<?xml version='1.0' encoding='UTF-8'?><gpx version="1.1" creator="JPX - https://github.com/jenetics/jpx" xmlns="http://www.topografix.com/GPX/1/1"><trk><trkseg><trkpt lat="43.88335" lon="12.786715"><ele>127.66666666666666</ele><time>2026-04-12T07:57:45.03Z</time></trkpt><trkpt lat="43.8834933" lon="12.7865833"><ele>127.33333333333334</ele><time>2026-04-12T07:57:46.025Z</time></trkpt><trkpt lat="43.8836967" lon="12.7863833"><ele>127.0</ele><time>2026-04-12T07:57:47.523Z</time></trkpt><trkpt lat="43.88387" lon="12.786125"><ele>129.33333333333334</ele><time>2026-04-12T07:57:49.027Z</time></trkpt><trkpt lat="43.883965" lon="12.785925"><ele>131.66666666666666</ele><time>2026-04-12T07:57:50.028Z</time></trkpt><trkpt lat="43.88405" lon="12.7857133"><ele>134.0</ele><time>2026-04-12T07:57:51.035Z</time></trkpt><trkpt lat="43.8841317" lon="12.7855017"><ele>134.0</ele><time>2026-04-12T07:57:52.028Z</time></trkpt><trkpt lat="43.8842133" lon="12.7852833"><ele>134.0</ele><time>2026-04-12T07:57:53.028Z</time></trkpt><trkpt lat="43.8842983" lon="12.7850533"><ele>134.0</ele><time>2026-04-12T07:57:54.028Z</time></trkpt><trkpt lat="43.884385" lon="12.78482"><ele>134.0</ele><time>2026-04-12T07:57:55.035Z</time></trkpt><trkpt lat="43.884465" lon="12.7845783"><ele>134.0</ele><time>2026-04-12T07:57:56.027Z</time></trkpt><trkpt lat="43.88454" lon="12.7843333"><ele>134.0</ele><time>2026-04-12T07:57:57.028Z</time></trkpt><trkpt lat="43.8846067" lon="12.78408"><ele>136.66666666666666</ele><time>2026-04-12T07:57:58.029Z</time></trkpt><trkpt lat="43.8846683" lon="12.7838183"><ele>139.33333333333334</ele><time>2026-04-12T07:57:59.032Z</time></trkpt><trkpt lat="43.8847217" lon="12.7835517"><ele>142.0</ele><time>2026-04-12T07:58:00.027Z</time></trkpt><trkpt lat="43.8847733" lon="12.7832817"><ele>142.66666666666669</ele><time>2026-04-12T07:58:01.036Z</time></trkpt><trkpt lat="43.884825" lon="12.783005"><ele>143.33333333333334</ele><time>2026-04-12T07:58:02.028Z</time></trkpt><trkpt lat="43.8848733" lon="12.7827283"><ele>144.0</ele><time>2026-04-12T07:58:03.029Z</time></trkpt><trkpt lat="43.8849217" lon="12.782465"><ele>144.66666666666666</ele><time>2026-04-12T07:58:04.029Z</time></trkpt><trkpt lat="43.8849683" lon="12.782215"><ele>145.33333333333331</ele><time>2026-04-12T07:58:05.035Z</time></trkpt><trkpt lat="43.88502" lon="12.7819667"><ele>146.0</ele><time>2026-04-12T07:58:06.026Z</time></trkpt><trkpt lat="43.8850767" lon="12.78172"><ele>144.0</ele><time>2026-04-12T07:58:07.025Z</time></trkpt><trkpt lat="43.8851367" lon="12.7814833"><ele>142.0</ele><time>2026-04-12T07:58:08.033Z</time></trkpt><trkpt lat="43.8851967" lon="12.7812533"><ele>140.0</ele><time>2026-04-12T07:58:09.029Z</time></trkpt><trkpt lat="43.8852567" lon="12.78103"><ele>142.66666666666666</ele><time>2026-04-12T07:58:10.029Z</time></trkpt><trkpt lat="43.8853217" lon="12.780805"><ele>145.33333333333334</ele><time>2026-04-12T07:58:11.027Z</time></trkpt><trkpt lat="43.885385" lon="12.7805767"><ele>148.0</ele><time>2026-04-12T07:58:12.031Z</time></trkpt><trkpt lat="43.8854517" lon="12.7803483"><ele>151.0</ele><time>2026-04-12T07:58:13.026Z</time></trkpt><trkpt lat="43.8855167" lon="12.7801183"><ele>154.0</ele><time>2026-04-12T07:58:14.027Z</time></trkpt><trkpt lat="43.88558" lon="12.7798867"><ele>157.0</ele><time>2026-04-12T07:58:15.031Z</time></trkpt><trkpt lat="43.8856433" lon="12.779655"><ele>157.0</ele><time>2026-04-12T07:58:16.027Z</time></trkpt><trkpt lat="43.885705" lon="12.779415"><ele>157.0</ele><time>2026-04-12T07:58:17.033Z</time></trkpt><trkpt lat="43.8857533" lon="12.77917"><ele>157.0</ele><time>2026-04-12T07:58:18.03Z</time></trkpt><trkpt lat="43.8857867" lon="12.778915"><ele>159.66666666666669</ele><time>2026-04-12T07:58:19.029Z</time></trkpt><trkpt lat="43.885795" lon="12.7786583"><ele>162.33333333333334</ele><time>2026-04-12T07:58:20.032Z</time></trkpt><trkpt lat="43.8857683" lon="12.778385"><ele>165.0</ele><time>2026-04-12T07:58:21.028Z</time></trkpt><trkpt lat="43.8857167" lon="12.7781033"><ele>166.66666666666666</ele><time>2026-04-12T07:58:22.029Z</time></trkpt><trkpt lat="43.8856433" lon="12.77783"><ele>168.33333333333331</ele><time>2026-04-12T07:58:23.03Z</time></trkpt><trkpt lat="43.8855583" lon="12.7775767"><ele>170.0</ele><time>2026-04-12T07:58:24.028Z</time></trkpt><trkpt lat="43.8854733" lon="12.7773417"><ele>171.66666666666666</ele><time>2026-04-12T07:58:25.026Z</time></trkpt><trkpt lat="43.885395" lon="12.7771217"><ele>173.33333333333334</ele><time>2026-04-12T07:58:26.029Z</time></trkpt><trkpt lat="43.8853183" lon="12.7769067"><ele>175.0</ele><time>2026-04-12T07:58:27.031Z</time></trkpt><trkpt lat="43.8852483" lon="12.7766917"><ele>173.0</ele><time>2026-04-12T07:58:28.029Z</time></trkpt><trkpt lat="43.8851783" lon="12.776475"><ele>171.0</ele><time>2026-04-12T07:58:29.028Z</time></trkpt><trkpt lat="43.8851083" lon="12.77626"><ele>169.0</ele><time>2026-04-12T07:58:30.031Z</time></trkpt><trkpt lat="43.885035" lon="12.7760433"><ele>172.33333333333334</ele><time>2026-04-12T07:58:31.028Z</time></trkpt><trkpt lat="43.8849683" lon="12.7758317"><ele>175.66666666666666</ele><time>2026-04-12T07:58:32.024Z</time></trkpt><trkpt lat="43.8849133" lon="12.7756217"><ele>179.0</ele><time>2026-04-12T07:58:33.024Z</time></trkpt><trkpt lat="43.8848817" lon="12.7754083"><ele>179.0</ele><time>2026-04-12T07:58:34.03Z</time></trkpt><trkpt lat="43.8848883" lon="12.7751933"><ele>179.0</ele><time>2026-04-12T07:58:35.031Z</time></trkpt><trkpt lat="43.8849267" lon="12.7749967"><ele>179.0</ele><time>2026-04-12T07:58:36.027Z</time></trkpt><trkpt lat="43.8850033" lon="12.7748217"><ele>179.0</ele><time>2026-04-12T07:58:37.03Z</time></trkpt><trkpt lat="43.88511" lon="12.7746767"><ele>180.0</ele><time>2026-04-12T07:58:38.024Z</time></trkpt><trkpt lat="43.8852517" lon="12.77456"><ele>181.0</ele><time>2026-04-12T07:58:39.032Z</time></trkpt><trkpt lat="43.885405" lon="12.7744533"><ele>182.0</ele><time>2026-04-12T07:58:40.036Z</time></trkpt><trkpt lat="43.8855683" lon="12.7743467"><ele>182.0</ele><time>2026-04-12T07:58:41.03Z</time></trkpt><trkpt lat="43.88573" lon="12.7742367"><ele>182.0</ele><time>2026-04-12T07:58:42.028Z</time></trkpt><trkpt lat="43.885885" lon="12.77413"><ele>182.0</ele><time>2026-04-12T07:58:43.031Z</time></trkpt><trkpt lat="43.8860383" lon="12.774025"><ele>182.0</ele><time>2026-04-12T07:58:44.029Z</time></trkpt><trkpt lat="43.8861867" lon="12.7739167"><ele>182.0</ele><time>2026-04-12T07:58:45.03Z</time></trkpt><trkpt lat="43.88634" lon="12.7738067"><ele>182.0</ele><time>2026-04-12T07:58:46.028Z</time></trkpt><trkpt lat="43.8865" lon="12.7736967"><ele>182.0</ele><time>2026-04-12T07:58:47.039Z</time></trkpt><trkpt lat="43.8866633" lon="12.7735833"><ele>182.0</ele><time>2026-04-12T07:58:48.027Z</time></trkpt><trkpt lat="43.886815" lon="12.7734767"><ele>182.0</ele><time>2026-04-12T07:58:49.029Z</time></trkpt><trkpt lat="43.8869417" lon="12.7733767"><ele>181.6</ele><time>2026-04-12T07:58:50.029Z</time></trkpt><trkpt lat="43.8870467" lon="12.7732783"><ele>181.2</ele><time>2026-04-12T07:58:51.027Z</time></trkpt><trkpt lat="43.88713" lon="12.77319"><ele>180.8</ele><time>2026-04-12T07:58:52.025Z</time></trkpt><trkpt lat="43.8872017" lon="12.7731133"><ele>180.4</ele><time>2026-04-12T07:58:53.025Z</time></trkpt><trkpt lat="43.8872633" lon="12.773045"><ele>180.0</ele><time>2026-04-12T07:58:54.028Z</time></trkpt><trkpt lat="43.8873133" lon="12.7729817"><ele>180.0</ele><time>2026-04-12T07:58:55.028Z</time></trkpt><trkpt lat="43.8873767" lon="12.7729033"><ele>180.0</ele><time>2026-04-12T07:58:57.027Z</time></trkpt><trkpt lat="43.8874167" lon="12.772835"><ele>180.0</ele><time>2026-04-12T07:59:00.023Z</time></trkpt><trkpt lat="43.887455" lon="12.7727633"><ele>180.0</ele><time>2026-04-12T07:59:06.028Z</time></trkpt><trkpt lat="43.8874983" lon="12.7726983"><ele>180.0</ele><time>2026-04-12T07:59:07.027Z</time></trkpt><trkpt lat="43.8875483" lon="12.7726317"><ele>180.0</ele><time>2026-04-12T07:59:08.027Z</time></trkpt><trkpt lat="43.8876083" lon="12.7725483"><ele>180.0</ele><time>2026-04-12T07:59:09.03Z</time></trkpt><trkpt lat="43.8876717" lon="12.7724617"><ele>180.33333333333334</ele><time>2026-04-12T07:59:10.027Z</time></trkpt><trkpt lat="43.8877333" lon="12.7723783"><ele>180.66666666666666</ele><time>2026-04-12T07:59:11.028Z</time></trkpt><trkpt lat="43.8877867" lon="12.772305"><ele>181.0</ele><time>2026-04-12T07:59:12.029Z</time></trkpt><trkpt lat="43.8878667" lon="12.77219"><ele>181.33333333333331</ele><time>2026-04-12T07:59:14.033Z</time></trkpt><trkpt lat="43.8879333" lon="12.7720933"><ele>181.66666666666666</ele><time>2026-04-12T07:59:16.031Z</time></trkpt><trkpt lat="43.8879883" lon="12.772025"><ele>182.0</ele><time>2026-04-12T07:59:18.031Z</time></trkpt><trkpt lat="43.8880983" lon="12.7719117"><ele>182.39999999999998</ele><time>2026-04-12T07:59:35.033Z</time></trkpt><trkpt lat="43.8881517" lon="12.7718483"><ele>182.79999999999998</ele><time>2026-04-12T07:59:36.031Z</time></trkpt><trkpt lat="43.8882183" lon="12.771765"><ele>183.2</ele><time>2026-04-12T07:59:37.03Z</time></trkpt><trkpt lat="43.8882933" lon="12.7716633"><ele>183.6</ele><time>2026-04-12T07:59:38.032Z</time></trkpt><trkpt lat="43.8883783" lon="12.7715417"><ele>184.0</ele><time>2026-04-12T07:59:39.028Z</time></trkpt><trkpt lat="43.88847" lon="12.7714133"><ele>184.66666666666669</ele><time>2026-04-12T07:59:40.03Z</time></trkpt><trkpt lat="43.8885717" lon="12.77128"><ele>185.33333333333334</ele><time>2026-04-12T07:59:41.028Z</time></trkpt><trkpt lat="43.888685" lon="12.7711417"><ele>186.0</ele><time>2026-04-12T07:59:42.027Z</time></trkpt><trkpt lat="43.888815" lon="12.7710117"><ele>186.0</ele><time>2026-04-12T07:59:43.032Z</time></trkpt><trkpt lat="43.8889617" lon="12.7708967"><ele>186.0</ele><time>2026-04-12T07:59:44.028Z</time></trkpt><trkpt lat="43.8891083" lon="12.770805"><ele>186.0</ele><time>2026-04-12T07:59:45.039Z</time></trkpt><trkpt lat="43.8892467" lon="12.7707267"><ele>185.5</ele><time>2026-04-12T07:59:46.027Z</time></trkpt><trkpt lat="43.8893833" lon="12.7706583"><ele>185.0</ele><time>2026-04-12T07:59:47.027Z</time></trkpt><trkpt lat="43.8895167" lon="12.7705917"><ele>184.5</ele><time>2026-04-12T07:59:48.025Z</time></trkpt><trkpt lat="43.8896467" lon="12.7705283"><ele>184.0</ele><time>2026-04-12T07:59:49.027Z</time></trkpt><trkpt lat="43.8897767" lon="12.7704667"><ele>184.0</ele><time>2026-04-12T07:59:50.03Z</time></trkpt><trkpt lat="43.8899067" lon="12.7703967"><ele>184.0</ele><time>2026-04-12T07:59:51.032Z</time></trkpt><trkpt lat="43.8900367" lon="12.7703217"><ele>184.0</ele><time>2026-04-12T07:59:52.03Z</time></trkpt><trkpt lat="43.8901633" lon="12.7702317"><ele>184.0</ele><time>2026-04-12T07:59:53.033Z</time></trkpt><trkpt lat="43.8902883" lon="12.7701183"><ele>183.33333333333334</ele><time>2026-04-12T07:59:54.03Z</time></trkpt><trkpt lat="43.8904083" lon="12.7699867"><ele>182.66666666666666</ele><time>2026-04-12T07:59:55.03Z</time></trkpt><trkpt lat="43.8905267" lon="12.76984"><ele>182.0</ele><time>2026-04-12T07:59:56.028Z</time></trkpt><trkpt lat="43.8906467" lon="12.769685"><ele>182.0</ele><time>2026-04-12T07:59:57.028Z</time></trkpt><trkpt lat="43.8907717" lon="12.769535"><ele>182.0</ele><time>2026-04-12T07:59:58.029Z</time></trkpt><trkpt lat="43.8908967" lon="12.7693817"><ele>182.0</ele><time>2026-04-12T07:59:59.028Z</time></trkpt><trkpt lat="43.8910167" lon="12.7692317"><ele>181.0</ele><time>2026-04-12T08:00:00.026Z</time></trkpt><trkpt lat="43.8911367" lon="12.76909"><ele>180.0</ele><time>2026-04-12T08:00:01.031Z</time></trkpt><trkpt lat="43.89125" lon="12.7689533"><ele>179.0</ele><time>2026-04-12T08:00:02.029Z</time></trkpt><trkpt lat="43.8913633" lon="12.7688167"><ele>179.0</ele><time>2026-04-12T08:00:03.033Z</time></trkpt><trkpt lat="43.8914767" lon="12.7686733"><ele>179.0</ele><time>2026-04-12T08:00:04.027Z</time></trkpt><trkpt lat="43.8915933" lon="12.7685267"><ele>179.0</ele><time>2026-04-12T08:00:05.03Z</time></trkpt><trkpt lat="43.89171" lon="12.76838"><ele>178.66666666666666</ele><time>2026-04-12T08:00:06.035Z</time></trkpt><trkpt lat="43.8918283" lon="12.7682383"><ele>178.33333333333334</ele><time>2026-04-12T08:00:07.027Z</time></trkpt><trkpt lat="43.8919433" lon="12.7680983"><ele>178.0</ele><time>2026-04-12T08:00:08.03Z</time></trkpt><trkpt lat="43.8920617" lon="12.767965"><ele>178.0</ele><time>2026-04-12T08:00:09.032Z</time></trkpt><trkpt lat="43.8921867" lon="12.7678383"><ele>178.0</ele><time>2026-04-12T08:00:10.03Z</time></trkpt><trkpt lat="43.89232" lon="12.7677217"><ele>178.0</ele><time>2026-04-12T08:00:11.03Z</time></trkpt><trkpt lat="43.8924633" lon="12.7676117"><ele>179.33333333333334</ele><time>2026-04-12T08:00:12.03Z</time></trkpt><trkpt lat="43.8926183" lon="12.7675117"><ele>180.66666666666666</ele><time>2026-04-12T08:00:13.032Z</time></trkpt><trkpt lat="43.8927833" lon="12.7674283"><ele>182.0</ele><time>2026-04-12T08:00:14.036Z</time></trkpt><trkpt lat="43.8929483" lon="12.7673567"><ele>182.0</ele><time>2026-04-12T08:00:15.035Z</time></trkpt><trkpt lat="43.8931017" lon="12.7672933"><ele>182.0</ele><time>2026-04-12T08:00:16.032Z</time></trkpt><trkpt lat="43.8932383" lon="12.76724"><ele>182.0</ele><time>2026-04-12T08:00:17.03Z</time></trkpt><trkpt lat="43.8933567" lon="12.7671983"><ele>182.0</ele><time>2026-04-12T08:00:18.031Z</time></trkpt><trkpt lat="43.8934583" lon="12.7671667"><ele>182.0</ele><time>2026-04-12T08:00:19.033Z</time></trkpt><trkpt lat="43.893545" lon="12.7671367"><ele>182.0</ele><time>2026-04-12T08:00:20.032Z</time></trkpt><trkpt lat="43.8936233" lon="12.7671067"><ele>182.0</ele><time>2026-04-12T08:00:21.029Z</time></trkpt><trkpt lat="43.8936917" lon="12.7670817"><ele>182.0</ele><time>2026-04-12T08:00:22.027Z</time></trkpt><trkpt lat="43.893755" lon="12.767065"><ele>182.0</ele><time>2026-04-12T08:00:23.03Z</time></trkpt><trkpt lat="43.8938517" lon="12.7670383"><ele>182.0</ele><time>2026-04-12T08:00:25.028Z</time></trkpt><trkpt lat="43.8939033" lon="12.7669733"><ele>182.0</ele><time>2026-04-12T08:00:27.027Z</time></trkpt><trkpt lat="43.8938417" lon="12.7669133"><ele>182.0</ele><time>2026-04-12T08:00:30.032Z</time></trkpt><trkpt lat="43.8937483" lon="12.76695"><ele>182.0</ele><time>2026-04-12T08:00:32.033Z</time></trkpt><trkpt lat="43.8936233" lon="12.7669967"><ele>182.0</ele><time>2026-04-12T08:00:34.032Z</time></trkpt><trkpt lat="43.89356" lon="12.7670217"><ele>182.0</ele><time>2026-04-12T08:00:35.027Z</time></trkpt><trkpt lat="43.8934967" lon="12.7670483"><ele>182.0</ele><time>2026-04-12T08:00:36.031Z</time></trkpt><trkpt lat="43.893435" lon="12.7670717"><ele>182.0</ele><time>2026-04-12T08:00:37.033Z</time></trkpt><trkpt lat="43.8933683" lon="12.7670917"><ele>182.0</ele><time>2026-04-12T08:00:38.03Z</time></trkpt><trkpt lat="43.8933" lon="12.7671067"><ele>182.0</ele><time>2026-04-12T08:00:39.034Z</time></trkpt><trkpt lat="43.8932267" lon="12.7671167"><ele>182.0</ele><time>2026-04-12T08:00:40.028Z</time></trkpt><trkpt lat="43.8931467" lon="12.76712"><ele>182.0</ele><time>2026-04-12T08:00:41.028Z</time></trkpt><trkpt lat="43.893065" lon="12.7671117"><ele>182.0</ele><time>2026-04-12T08:00:42.033Z</time></trkpt><trkpt lat="43.8929717" lon="12.7670883"><ele>182.0</ele><time>2026-04-12T08:00:43.031Z</time></trkpt><trkpt lat="43.8928817" lon="12.7670483"><ele>182.0</ele><time>2026-04-12T08:00:44.028Z</time></trkpt><trkpt lat="43.892795" lon="12.7669967"><ele>182.0</ele><time>2026-04-12T08:00:45.03Z</time></trkpt><trkpt lat="43.892715" lon="12.766945"><ele>182.0</ele><time>2026-04-12T08:00:46.032Z</time></trkpt><trkpt lat="43.8926383" lon="12.7668933"><ele>182.0</ele><time>2026-04-12T08:00:47.029Z</time></trkpt><trkpt lat="43.8925683" lon="12.766845"><ele>182.0</ele><time>2026-04-12T08:00:48.031Z</time></trkpt><trkpt lat="43.892505" lon="12.7668033"><ele>182.16666666666666</ele><time>2026-04-12T08:00:49.031Z</time></trkpt><trkpt lat="43.8924467" lon="12.7667633"><ele>182.33333333333331</ele><time>2026-04-12T08:00:50.034Z</time></trkpt><trkpt lat="43.8923467" lon="12.7666933"><ele>182.5</ele><time>2026-04-12T08:00:52.033Z</time></trkpt><trkpt lat="43.89226" lon="12.7666333"><ele>182.66666666666666</ele><time>2026-04-12T08:00:54.029Z</time></trkpt><trkpt lat="43.8921817" lon="12.7665817"><ele>182.83333333333334</ele><time>2026-04-12T08:00:56.031Z</time></trkpt><trkpt lat="43.89211" lon="12.7665267"><ele>183.0</ele><time>2026-04-12T08:00:58.03Z</time></trkpt><trkpt lat="43.8920383" lon="12.766475"><ele>183.0</ele><time>2026-04-12T08:01:00.027Z</time></trkpt><trkpt lat="43.8919583" lon="12.7664233"><ele>183.0</ele><time>2026-04-12T08:01:02.032Z</time></trkpt><trkpt lat="43.8918617" lon="12.7663567"><ele>183.0</ele><time>2026-04-12T08:01:04.029Z</time></trkpt><trkpt lat="43.8917617" lon="12.7662883"><ele>183.0</ele><time>2026-04-12T08:01:06.029Z</time></trkpt><trkpt lat="43.8916667" lon="12.76622"><ele>183.0</ele><time>2026-04-12T08:01:08.03Z</time></trkpt><trkpt lat="43.8915767" lon="12.7661517"><ele>183.16666666666666</ele><time>2026-04-12T08:01:10.028Z</time></trkpt><trkpt lat="43.8914983" lon="12.766085"><ele>183.33333333333334</ele><time>2026-04-12T08:01:12.03Z</time></trkpt><trkpt lat="43.8914217" lon="12.7660233"><ele>183.5</ele><time>2026-04-12T08:01:14.034Z</time></trkpt><trkpt lat="43.8913517" lon="12.76598"><ele>183.66666666666669</ele><time>2026-04-12T08:01:16.031Z</time></trkpt><trkpt lat="43.8912933" lon="12.7659433"><ele>183.83333333333334</ele><time>2026-04-12T08:01:18.034Z</time></trkpt><trkpt lat="43.8912117" lon="12.7658983"><ele>184.0</ele><time>2026-04-12T08:01:21.028Z</time></trkpt><trkpt lat="43.891145" lon="12.7658717"><ele>182.0</ele><time>2026-04-12T08:01:23.03Z</time></trkpt><trkpt lat="43.8910533" lon="12.7658433"><ele>180.0</ele><time>2026-04-12T08:01:25.03Z</time></trkpt><trkpt lat="43.8909283" lon="12.7657983"><ele>178.0</ele><time>2026-04-12T08:01:27.032Z</time></trkpt><trkpt lat="43.8908583" lon="12.7657767"><ele>176.0</ele><time>2026-04-12T08:01:28.031Z</time></trkpt><trkpt lat="43.8907817" lon="12.7657567"><ele>174.0</ele><time>2026-04-12T08:01:29.033Z</time></trkpt><trkpt lat="43.8907" lon="12.7657333"><ele>174.0</ele><time>2026-04-12T08:01:30.029Z</time></trkpt><trkpt lat="43.8906133" lon="12.7657117"><ele>174.0</ele><time>2026-04-12T08:01:31.029Z</time></trkpt><trkpt lat="43.8905217" lon="12.7656867"><ele>174.0</ele><time>2026-04-12T08:01:32.028Z</time></trkpt><trkpt lat="43.8904217" lon="12.76566"><ele>174.0</ele><time>2026-04-12T08:01:33.027Z</time></trkpt><trkpt lat="43.89031" lon="12.765625"><ele>174.0</ele><time>2026-04-12T08:01:34.028Z</time></trkpt><trkpt lat="43.8901917" lon="12.765585"><ele>174.6</ele><time>2026-04-12T08:01:35.028Z</time></trkpt><trkpt lat="43.8900767" lon="12.7655433"><ele>175.2</ele><time>2026-04-12T08:01:36.026Z</time></trkpt><trkpt lat="43.8899717" lon="12.7655"><ele>175.79999999999998</ele><time>2026-04-12T08:01:37.031Z</time></trkpt><trkpt lat="43.889875" lon="12.76545"><ele>176.39999999999998</ele><time>2026-04-12T08:01:38.032Z</time></trkpt><trkpt lat="43.8897817" lon="12.7653933"><ele>177.0</ele><time>2026-04-12T08:01:39.031Z</time></trkpt><trkpt lat="43.8896817" lon="12.7653283"><ele>177.0</ele><time>2026-04-12T08:01:40.026Z</time></trkpt><trkpt lat="43.8895767" lon="12.7652517"><ele>177.0</ele><time>2026-04-12T08:01:41.026Z</time></trkpt><trkpt lat="43.8894667" lon="12.7651667"><ele>177.0</ele><time>2026-04-12T08:01:42.026Z</time></trkpt><trkpt lat="43.88935" lon="12.765075"><ele>177.0</ele><time>2026-04-12T08:01:43.028Z</time></trkpt><trkpt lat="43.889225" lon="12.7649783"><ele>174.33333333333334</ele><time>2026-04-12T08:01:44.029Z</time></trkpt><trkpt lat="43.8890933" lon="12.764885"><ele>171.66666666666669</ele><time>2026-04-12T08:01:45.026Z</time></trkpt><trkpt lat="43.8889583" lon="12.764795"><ele>169.0</ele><time>2026-04-12T08:01:46.029Z</time></trkpt><trkpt lat="43.888815" lon="12.7647033"><ele>169.0</ele><time>2026-04-12T08:01:47.033Z</time></trkpt><trkpt lat="43.8886617" lon="12.7646067"><ele>169.0</ele><time>2026-04-12T08:01:48.029Z</time></trkpt><trkpt lat="43.88851" lon="12.7645083"><ele>169.0</ele><time>2026-04-12T08:01:49.03Z</time></trkpt><trkpt lat="43.8883683" lon="12.7644133"><ele>166.66666666666669</ele><time>2026-04-12T08:01:50.031Z</time></trkpt><trkpt lat="43.88823" lon="12.7643133"><ele>164.33333333333334</ele><time>2026-04-12T08:01:51.034Z</time></trkpt><trkpt lat="43.888095" lon="12.7642083"><ele>162.0</ele><time>2026-04-12T08:01:52.031Z</time></trkpt><trkpt lat="43.8879583" lon="12.7640933"><ele>162.0</ele><time>2026-04-12T08:01:53.033Z</time></trkpt><trkpt lat="43.887825" lon="12.7639517"><ele>162.0</ele><time>2026-04-12T08:01:54.029Z</time></trkpt><trkpt lat="43.8876983" lon="12.7637883"><ele>162.0</ele><time>2026-04-12T08:01:55.032Z</time></trkpt><trkpt lat="43.887575" lon="12.7636233"><ele>160.0</ele><time>2026-04-12T08:01:56.033Z</time></trkpt><trkpt lat="43.8874567" lon="12.7634583"><ele>158.0</ele><time>2026-04-12T08:01:57.033Z</time></trkpt><trkpt lat="43.88734" lon="12.76329"><ele>156.0</ele><time>2026-04-12T08:01:58.031Z</time></trkpt><trkpt lat="43.8872283" lon="12.7631283"><ele>156.0</ele><time>2026-04-12T08:01:59.028Z</time></trkpt><trkpt lat="43.8871217" lon="12.7629733"><ele>156.0</ele><time>2026-04-12T08:02:00.033Z</time></trkpt><trkpt lat="43.8870183" lon="12.762825"><ele>156.0</ele><time>2026-04-12T08:02:01.029Z</time></trkpt><trkpt lat="43.886915" lon="12.76268"><ele>155.66666666666666</ele><time>2026-04-12T08:02:02.031Z</time></trkpt><trkpt lat="43.88681" lon="12.7625333"><ele>155.33333333333331</ele><time>2026-04-12T08:02:03.028Z</time></trkpt><trkpt lat="43.8867017" lon="12.76239"><ele>155.0</ele><time>2026-04-12T08:02:04.031Z</time></trkpt><trkpt lat="43.8865867" lon="12.76225"><ele>155.0</ele><time>2026-04-12T08:02:05.028Z</time></trkpt><trkpt lat="43.886465" lon="12.7621167"><ele>155.0</ele><time>2026-04-12T08:02:06.034Z</time></trkpt><trkpt lat="43.8863367" lon="12.7619867"><ele>155.0</ele><time>2026-04-12T08:02:07.032Z</time></trkpt><trkpt lat="43.8862083" lon="12.7618567"><ele>155.33333333333331</ele><time>2026-04-12T08:02:08.037Z</time></trkpt><trkpt lat="43.886075" lon="12.7617333"><ele>155.66666666666666</ele><time>2026-04-12T08:02:09.037Z</time></trkpt><trkpt lat="43.8859417" lon="12.761605"><ele>156.0</ele><time>2026-04-12T08:02:10.034Z</time></trkpt><trkpt lat="43.8858117" lon="12.76148"><ele>156.0</ele><time>2026-04-12T08:02:11.029Z</time></trkpt><trkpt lat="43.88569" lon="12.7613517"><ele>156.0</ele><time>2026-04-12T08:02:12.028Z</time></trkpt><trkpt lat="43.8855717" lon="12.7612167"><ele>156.0</ele><time>2026-04-12T08:02:13.032Z</time></trkpt><trkpt lat="43.8854567" lon="12.7610683"><ele>157.33333333333334</ele><time>2026-04-12T08:02:14.029Z</time></trkpt><trkpt lat="43.8853433" lon="12.7609067"><ele>158.66666666666669</ele><time>2026-04-12T08:02:15.031Z</time></trkpt><trkpt lat="43.8852267" lon="12.7607433"><ele>160.0</ele><time>2026-04-12T08:02:16.03Z</time></trkpt><trkpt lat="43.88511" lon="12.7605783"><ele>158.66666666666669</ele><time>2026-04-12T08:02:17.032Z</time></trkpt><trkpt lat="43.8849917" lon="12.76042"><ele>157.33333333333334</ele><time>2026-04-12T08:02:18.03Z</time></trkpt><trkpt lat="43.884875" lon="12.76026"><ele>156.0</ele><time>2026-04-12T08:02:19.027Z</time></trkpt><trkpt lat="43.8847583" lon="12.7600983"><ele>155.0</ele><time>2026-04-12T08:02:20.028Z</time></trkpt><trkpt lat="43.884645" lon="12.7599317"><ele>154.0</ele><time>2026-04-12T08:02:21.031Z</time></trkpt><trkpt lat="43.8845317" lon="12.7597667"><ele>153.0</ele><time>2026-04-12T08:02:22.031Z</time></trkpt><trkpt lat="43.8844183" lon="12.7596"><ele>153.0</ele><time>2026-04-12T08:02:23.029Z</time></trkpt><trkpt lat="43.884305" lon="12.7594333"><ele>153.0</ele><time>2026-04-12T08:02:24.031Z</time></trkpt><trkpt lat="43.88419" lon="12.75927"><ele>153.0</ele><time>2026-04-12T08:02:25.034Z</time></trkpt><trkpt lat="43.884075" lon="12.7591067"><ele>151.66666666666666</ele><time>2026-04-12T08:02:26.03Z</time></trkpt><trkpt lat="43.8839567" lon="12.758945"><ele>150.33333333333331</ele><time>2026-04-12T08:02:27.03Z</time></trkpt><trkpt lat="43.8838383" lon="12.758785"><ele>149.0</ele><time>2026-04-12T08:02:28.03Z</time></trkpt><trkpt lat="43.88372" lon="12.758625"><ele>148.0</ele><time>2026-04-12T08:02:29.027Z</time></trkpt><trkpt lat="43.8836033" lon="12.7584633"><ele>147.0</ele><time>2026-04-12T08:02:30.026Z</time></trkpt><trkpt lat="43.883485" lon="12.7582983"><ele>146.0</ele><time>2026-04-12T08:02:31.033Z</time></trkpt><trkpt lat="43.883365" lon="12.758135"><ele>146.0</ele><time>2026-04-12T08:02:32.028Z</time></trkpt><trkpt lat="43.8832483" lon="12.7579783"><ele>146.0</ele><time>2026-04-12T08:02:33.03Z</time></trkpt><trkpt lat="43.8831383" lon="12.7578267"><ele>146.0</ele><time>2026-04-12T08:02:34.034Z</time></trkpt><trkpt lat="43.8830317" lon="12.757675"><ele>144.66666666666666</ele><time>2026-04-12T08:02:35.029Z</time></trkpt><trkpt lat="43.882925" lon="12.7575267"><ele>143.33333333333334</ele><time>2026-04-12T08:02:36.029Z</time></trkpt><trkpt lat="43.8828183" lon="12.7573717"><ele>142.0</ele><time>2026-04-12T08:02:37.029Z</time></trkpt><trkpt lat="43.8827117" lon="12.75721"><ele>142.0</ele><time>2026-04-12T08:02:38.03Z</time></trkpt><trkpt lat="43.88261" lon="12.7570483"><ele>142.0</ele><time>2026-04-12T08:02:39.036Z</time></trkpt><trkpt lat="43.8825167" lon="12.75689"><ele>142.0</ele><time>2026-04-12T08:02:40.029Z</time></trkpt><trkpt lat="43.88243" lon="12.7567183"><ele>143.33333333333334</ele><time>2026-04-12T08:02:41.031Z</time></trkpt><trkpt lat="43.8823433" lon="12.7565367"><ele>144.66666666666666</ele><time>2026-04-12T08:02:42.035Z</time></trkpt><trkpt lat="43.8822567" lon="12.75634"><ele>146.0</ele><time>2026-04-12T08:02:43.029Z</time></trkpt><trkpt lat="43.8821733" lon="12.7561267"><ele>144.33333333333331</ele><time>2026-04-12T08:02:44.03Z</time></trkpt><trkpt lat="43.8820917" lon="12.7559067"><ele>142.66666666666666</ele><time>2026-04-12T08:02:45.037Z</time></trkpt><trkpt lat="43.8820133" lon="12.755695"><ele>141.0</ele><time>2026-04-12T08:02:46.033Z</time></trkpt><trkpt lat="43.88194" lon="12.7554933"><ele>141.0</ele><time>2026-04-12T08:02:47.03Z</time></trkpt><trkpt lat="43.88187" lon="12.7552983"><ele>141.0</ele><time>2026-04-12T08:02:48.029Z</time></trkpt><trkpt lat="43.8817983" lon="12.755105"><ele>141.0</ele><time>2026-04-12T08:02:49.037Z</time></trkpt><trkpt lat="43.8817283" lon="12.7549167"><ele>142.66666666666666</ele><time>2026-04-12T08:02:50.034Z</time></trkpt><trkpt lat="43.8816633" lon="12.7547283"><ele>144.33333333333331</ele><time>2026-04-12T08:02:51.032Z</time></trkpt><trkpt lat="43.8816" lon="12.7545383"><ele>146.0</ele><time>2026-04-12T08:02:52.032Z</time></trkpt><trkpt lat="43.881535" lon="12.7543467"><ele>146.0</ele><time>2026-04-12T08:02:53.035Z</time></trkpt><trkpt lat="43.8814767" lon="12.75415"><ele>146.0</ele><time>2026-04-12T08:02:54.034Z</time></trkpt><trkpt lat="43.88143" lon="12.7539467"><ele>146.0</ele><time>2026-04-12T08:02:55.034Z</time></trkpt><trkpt lat="43.88139" lon="12.75374"><ele>145.66666666666666</ele><time>2026-04-12T08:02:56.034Z</time></trkpt><trkpt lat="43.8813517" lon="12.7535333"><ele>145.33333333333334</ele><time>2026-04-12T08:02:57.032Z</time></trkpt><trkpt lat="43.8813167" lon="12.75332"><ele>145.0</ele><time>2026-04-12T08:02:58.037Z</time></trkpt><trkpt lat="43.8812683" lon="12.7531067"><ele>145.0</ele><time>2026-04-12T08:02:59.035Z</time></trkpt><trkpt lat="43.8812033" lon="12.75289"><ele>145.0</ele><time>2026-04-12T08:03:00.036Z</time></trkpt><trkpt lat="43.8811267" lon="12.7526783"><ele>145.0</ele><time>2026-04-12T08:03:01.033Z</time></trkpt><trkpt lat="43.8810483" lon="12.7524717"><ele>144.66666666666669</ele><time>2026-04-12T08:03:02.034Z</time></trkpt><trkpt lat="43.8809717" lon="12.7522683"><ele>144.33333333333334</ele><time>2026-04-12T08:03:03.031Z</time></trkpt><trkpt lat="43.8808883" lon="12.7520667"><ele>144.0</ele><time>2026-04-12T08:03:04.028Z</time></trkpt><trkpt lat="43.8808017" lon="12.7518717"><ele>145.33333333333334</ele><time>2026-04-12T08:03:05.029Z</time></trkpt><trkpt lat="43.880705" lon="12.7516933"><ele>146.66666666666669</ele><time>2026-04-12T08:03:06.026Z</time></trkpt><trkpt lat="43.8806017" lon="12.75152"><ele>148.0</ele><time>2026-04-12T08:03:07.029Z</time></trkpt><trkpt lat="43.8805017" lon="12.751345"><ele>148.0</ele><time>2026-04-12T08:03:08.033Z</time></trkpt><trkpt lat="43.8804017" lon="12.7511683"><ele>148.0</ele><time>2026-04-12T08:03:09.03Z</time></trkpt><trkpt lat="43.88031" lon="12.7509867"><ele>148.0</ele><time>2026-04-12T08:03:10.028Z</time></trkpt><trkpt lat="43.880225" lon="12.7508017"><ele>148.0</ele><time>2026-04-12T08:03:11.028Z</time></trkpt><trkpt lat="43.8801417" lon="12.7506067"><ele>148.0</ele><time>2026-04-12T08:03:12.028Z</time></trkpt><trkpt lat="43.8800567" lon="12.7504017"><ele>148.0</ele><time>2026-04-12T08:03:13.032Z</time></trkpt><trkpt lat="43.87997" lon="12.7501933"><ele>146.66666666666669</ele><time>2026-04-12T08:03:14.027Z</time></trkpt><trkpt lat="43.8798817" lon="12.7499883"><ele>145.33333333333334</ele><time>2026-04-12T08:03:15.03Z</time></trkpt><trkpt lat="43.8797983" lon="12.7497767"><ele>144.0</ele><time>2026-04-12T08:03:16.031Z</time></trkpt><trkpt lat="43.8797167" lon="12.7495667"><ele>143.66666666666666</ele><time>2026-04-12T08:03:17.029Z</time></trkpt><trkpt lat="43.879635" lon="12.749365"><ele>143.33333333333331</ele><time>2026-04-12T08:03:18.031Z</time></trkpt><trkpt lat="43.8795433" lon="12.7491783"><ele>143.0</ele><time>2026-04-12T08:03:19.026Z</time></trkpt><trkpt lat="43.8794467" lon="12.74899"><ele>143.0</ele><time>2026-04-12T08:03:20.035Z</time></trkpt><trkpt lat="43.8793433" lon="12.7487967"><ele>143.0</ele><time>2026-04-12T08:03:21.034Z</time></trkpt><trkpt lat="43.879235" lon="12.748605"><ele>143.0</ele><time>2026-04-12T08:03:22.029Z</time></trkpt><trkpt lat="43.8791267" lon="12.7484217"><ele>144.33333333333331</ele><time>2026-04-12T08:03:23.029Z</time></trkpt><trkpt lat="43.8790233" lon="12.7482517"><ele>145.66666666666666</ele><time>2026-04-12T08:03:24.032Z</time></trkpt><trkpt lat="43.8789283" lon="12.7480867"><ele>147.0</ele><time>2026-04-12T08:03:25.034Z</time></trkpt><trkpt lat="43.8788383" lon="12.7479133"><ele>147.0</ele><time>2026-04-12T08:03:26.033Z</time></trkpt><trkpt lat="43.8787567" lon="12.747725"><ele>147.0</ele><time>2026-04-12T08:03:27.028Z</time></trkpt><trkpt lat="43.8786817" lon="12.747515"><ele>147.0</ele><time>2026-04-12T08:03:28.032Z</time></trkpt><trkpt lat="43.87861" lon="12.74729"><ele>146.33333333333334</ele><time>2026-04-12T08:03:29.03Z</time></trkpt><trkpt lat="43.87854" lon="12.7470517"><ele>145.66666666666669</ele><time>2026-04-12T08:03:30.027Z</time></trkpt><trkpt lat="43.8784683" lon="12.7468117"><ele>145.0</ele><time>2026-04-12T08:03:31.033Z</time></trkpt><trkpt lat="43.8783983" lon="12.74658"><ele>145.0</ele><time>2026-04-12T08:03:32.03Z</time></trkpt><trkpt lat="43.878335" lon="12.746365"><ele>145.0</ele><time>2026-04-12T08:03:33.035Z</time></trkpt><trkpt lat="43.8782733" lon="12.746165"><ele>145.0</ele><time>2026-04-12T08:03:34.033Z</time></trkpt><trkpt lat="43.87821" lon="12.7459817"><ele>145.0</ele><time>2026-04-12T08:03:35.029Z</time></trkpt><trkpt lat="43.8781467" lon="12.7457983"><ele>145.0</ele><time>2026-04-12T08:03:36.027Z</time></trkpt><trkpt lat="43.878085" lon="12.7456133"><ele>145.0</ele><time>2026-04-12T08:03:37.029Z</time></trkpt><trkpt lat="43.8780167" lon="12.745425"><ele>145.0</ele><time>2026-04-12T08:03:38.031Z</time></trkpt><trkpt lat="43.87793" lon="12.7452333"><ele>144.33333333333334</ele><time>2026-04-12T08:03:39.031Z</time></trkpt><trkpt lat="43.8778083" lon="12.7450433"><ele>143.66666666666666</ele><time>2026-04-12T08:03:40.029Z</time></trkpt><trkpt lat="43.8776683" lon="12.7448417"><ele>143.0</ele><time>2026-04-12T08:03:41.029Z</time></trkpt><trkpt lat="43.877515" lon="12.7446317"><ele>146.66666666666666</ele><time>2026-04-12T08:03:42.028Z</time></trkpt><trkpt lat="43.8773633" lon="12.7444317"><ele>150.33333333333334</ele><time>2026-04-12T08:03:43.03Z</time></trkpt><trkpt lat="43.8772267" lon="12.7442533"><ele>154.0</ele><time>2026-04-12T08:03:44.028Z</time></trkpt><trkpt lat="43.877105" lon="12.7440967"><ele>154.0</ele><time>2026-04-12T08:03:45.03Z</time></trkpt><trkpt lat="43.87699" lon="12.7439567"><ele>154.0</ele><time>2026-04-12T08:03:46.028Z</time></trkpt><trkpt lat="43.8768817" lon="12.7438233"><ele>154.0</ele><time>2026-04-12T08:03:47.031Z</time></trkpt><trkpt lat="43.8767733" lon="12.74369"><ele>154.0</ele><time>2026-04-12T08:03:48.028Z</time></trkpt><trkpt lat="43.876665" lon="12.74356"><ele>157.33333333333334</ele><time>2026-04-12T08:03:49.032Z</time></trkpt><trkpt lat="43.8765517" lon="12.743425"><ele>160.66666666666666</ele><time>2026-04-12T08:03:50.029Z</time></trkpt><trkpt lat="43.8764333" lon="12.7432833"><ele>164.0</ele><time>2026-04-12T08:03:51.029Z</time></trkpt><trkpt lat="43.876305" lon="12.7431317"><ele>164.0</ele><time>2026-04-12T08:03:52.03Z</time></trkpt><trkpt lat="43.8761683" lon="12.7429667"><ele>164.0</ele><time>2026-04-12T08:03:53.031Z</time></trkpt><trkpt lat="43.8760317" lon="12.7427917"><ele>164.0</ele><time>2026-04-12T08:03:54.03Z</time></trkpt><trkpt lat="43.875905" lon="12.742625"><ele>165.0</ele><time>2026-04-12T08:03:55.029Z</time></trkpt><trkpt lat="43.8757833" lon="12.7424667"><ele>166.0</ele><time>2026-04-12T08:03:56.029Z</time></trkpt><trkpt lat="43.8756683" lon="12.7423067"><ele>167.0</ele><time>2026-04-12T08:03:57.032Z</time></trkpt><trkpt lat="43.8755567" lon="12.74215"><ele>167.0</ele><time>2026-04-12T08:03:58.036Z</time></trkpt><trkpt lat="43.8754467" lon="12.7419917"><ele>167.0</ele><time>2026-04-12T08:03:59.03Z</time></trkpt><trkpt lat="43.8753333" lon="12.7418283"><ele>167.0</ele><time>2026-04-12T08:04:00.029Z</time></trkpt><trkpt lat="43.8752217" lon="12.7416533"><ele>168.66666666666666</ele><time>2026-04-12T08:04:01.033Z</time></trkpt><trkpt lat="43.8751183" lon="12.7414733"><ele>170.33333333333334</ele><time>2026-04-12T08:04:02.041Z</time></trkpt><trkpt lat="43.875025" lon="12.741295"><ele>172.0</ele><time>2026-04-12T08:04:03.028Z</time></trkpt><trkpt lat="43.87493" lon="12.741125"><ele>169.0</ele><time>2026-04-12T08:04:04.031Z</time></trkpt><trkpt lat="43.8748167" lon="12.7409783"><ele>166.0</ele><time>2026-04-12T08:04:05.036Z</time></trkpt><trkpt lat="43.8746717" lon="12.740855"><ele>163.0</ele><time>2026-04-12T08:04:06.027Z</time></trkpt><trkpt lat="43.874495" lon="12.740765"><ele>163.0</ele><time>2026-04-12T08:04:07.031Z</time></trkpt><trkpt lat="43.8743117" lon="12.7406983"><ele>163.0</ele><time>2026-04-12T08:04:08.031Z</time></trkpt><trkpt lat="43.8741317" lon="12.7406467"><ele>163.0</ele><time>2026-04-12T08:04:09.03Z</time></trkpt><trkpt lat="43.87396" lon="12.740595"><ele>159.33333333333334</ele><time>2026-04-12T08:04:10.03Z</time></trkpt><trkpt lat="43.8737883" lon="12.7405417"><ele>155.66666666666666</ele><time>2026-04-12T08:04:11.027Z</time></trkpt><trkpt lat="43.8736233" lon="12.740485"><ele>152.0</ele><time>2026-04-12T08:04:12.029Z</time></trkpt><trkpt lat="43.8734617" lon="12.7404267"><ele>149.33333333333331</ele><time>2026-04-12T08:04:13.029Z</time></trkpt><trkpt lat="43.8733017" lon="12.74037"><ele>146.66666666666666</ele><time>2026-04-12T08:04:14.028Z</time></trkpt><trkpt lat="43.8731467" lon="12.74031"><ele>144.0</ele><time>2026-04-12T08:04:15.032Z</time></trkpt><trkpt lat="43.8730017" lon="12.7402417"><ele>147.66666666666666</ele><time>2026-04-12T08:04:16.034Z</time></trkpt><trkpt lat="43.8728633" lon="12.7401533"><ele>151.33333333333331</ele><time>2026-04-12T08:04:17.032Z</time></trkpt><trkpt lat="43.8727317" lon="12.740045"><ele>155.0</ele><time>2026-04-12T08:04:18.031Z</time></trkpt><trkpt lat="43.8726117" lon="12.7399233"><ele>153.0</ele><time>2026-04-12T08:04:19.03Z</time></trkpt><trkpt lat="43.8725017" lon="12.7397883"><ele>151.0</ele><time>2026-04-12T08:04:20.032Z</time></trkpt><trkpt lat="43.872405" lon="12.7396283"><ele>149.0</ele><time>2026-04-12T08:04:21.031Z</time></trkpt><trkpt lat="43.8723267" lon="12.7394467"><ele>149.66666666666666</ele><time>2026-04-12T08:04:22.032Z</time></trkpt><trkpt lat="43.87227" lon="12.739245"><ele>150.33333333333334</ele><time>2026-04-12T08:04:23.031Z</time></trkpt><trkpt lat="43.87222" lon="12.7390317"><ele>151.0</ele><time>2026-04-12T08:04:24.03Z</time></trkpt><trkpt lat="43.8721733" lon="12.7388183"><ele>151.0</ele><time>2026-04-12T08:04:25.026Z</time></trkpt><trkpt lat="43.87213" lon="12.7386133"><ele>151.0</ele><time>2026-04-12T08:04:26.029Z</time></trkpt><trkpt lat="43.8720833" lon="12.7384133"><ele>151.0</ele><time>2026-04-12T08:04:27.029Z</time></trkpt><trkpt lat="43.87202" lon="12.7382233"><ele>150.0</ele><time>2026-04-12T08:04:28.033Z</time></trkpt><trkpt lat="43.8719367" lon="12.73804"><ele>149.0</ele><time>2026-04-12T08:04:29.027Z</time></trkpt><trkpt lat="43.8718267" lon="12.73787"><ele>148.0</ele><time>2026-04-12T08:04:30.029Z</time></trkpt><trkpt lat="43.8717" lon="12.7377133"><ele>147.0</ele><time>2026-04-12T08:04:31.03Z</time></trkpt><trkpt lat="43.87157" lon="12.7375717"><ele>146.0</ele><time>2026-04-12T08:04:32.024Z</time></trkpt><trkpt lat="43.8714367" lon="12.7374483"><ele>145.0</ele><time>2026-04-12T08:04:33.031Z</time></trkpt><trkpt lat="43.8713" lon="12.737335"><ele>145.0</ele><time>2026-04-12T08:04:34.031Z</time></trkpt><trkpt lat="43.871165" lon="12.7372217"><ele>145.0</ele><time>2026-04-12T08:04:35.029Z</time></trkpt><trkpt lat="43.8710333" lon="12.7371117"><ele>145.0</ele><time>2026-04-12T08:04:36.03Z</time></trkpt><trkpt lat="43.8709033" lon="12.73702"><ele>143.75</ele><time>2026-04-12T08:04:37.028Z</time></trkpt><trkpt lat="43.870775" lon="12.7369417"><ele>142.5</ele><time>2026-04-12T08:04:38.028Z</time></trkpt><trkpt lat="43.8706417" lon="12.73687"><ele>141.25</ele><time>2026-04-12T08:04:39.03Z</time></trkpt><trkpt lat="43.8705033" lon="12.736795"><ele>140.0</ele><time>2026-04-12T08:04:40.029Z</time></trkpt><trkpt lat="43.87036" lon="12.7367133"><ele>140.0</ele><time>2026-04-12T08:04:41.035Z</time></trkpt><trkpt lat="43.87021" lon="12.7366267"><ele>140.0</ele><time>2026-04-12T08:04:42.027Z</time></trkpt><trkpt lat="43.8700583" lon="12.736525"><ele>140.0</ele><time>2026-04-12T08:04:43.031Z</time></trkpt><trkpt lat="43.8699067" lon="12.736415"><ele>139.0</ele><time>2026-04-12T08:04:44.038Z</time></trkpt><trkpt lat="43.869755" lon="12.736295"><ele>138.0</ele><time>2026-04-12T08:04:45.033Z</time></trkpt><trkpt lat="43.8696083" lon="12.73617"><ele>137.0</ele><time>2026-04-12T08:04:46.03Z</time></trkpt><trkpt lat="43.8694667" lon="12.7360483"><ele>137.0</ele><time>2026-04-12T08:04:47.03Z</time></trkpt><trkpt lat="43.8693317" lon="12.7359283"><ele>137.0</ele><time>2026-04-12T08:04:48.027Z</time></trkpt><trkpt lat="43.8691983" lon="12.73581"><ele>137.0</ele><time>2026-04-12T08:04:49.028Z</time></trkpt><trkpt lat="43.86906" lon="12.7356933"><ele>137.75</ele><time>2026-04-12T08:04:50.03Z</time></trkpt><trkpt lat="43.8689267" lon="12.7355817"><ele>138.5</ele><time>2026-04-12T08:04:51.029Z</time></trkpt><trkpt lat="43.8688" lon="12.73548"><ele>139.25</ele><time>2026-04-12T08:04:52.032Z</time></trkpt><trkpt lat="43.8686833" lon="12.73539"><ele>140.0</ele><time>2026-04-12T08:04:53.027Z</time></trkpt><trkpt lat="43.8685767" lon="12.7353017"><ele>139.4</ele><time>2026-04-12T08:04:54.03Z</time></trkpt><trkpt lat="43.8684867" lon="12.7352"><ele>138.8</ele><time>2026-04-12T08:04:55.028Z</time></trkpt><trkpt lat="43.8684217" lon="12.7350717"><ele>138.2</ele><time>2026-04-12T08:04:56.027Z</time></trkpt><trkpt lat="43.868395" lon="12.7349267"><ele>137.6</ele><time>2026-04-12T08:04:57.028Z</time></trkpt><trkpt lat="43.8684117" lon="12.734775"><ele>137.0</ele><time>2026-04-12T08:04:58.028Z</time></trkpt><trkpt lat="43.8684633" lon="12.7346183"><ele>137.0</ele><time>2026-04-12T08:04:59.03Z</time></trkpt><trkpt lat="43.86854" lon="12.7344467"><ele>137.0</ele><time>2026-04-12T08:05:00.031Z</time></trkpt><trkpt lat="43.8686283" lon="12.7342617"><ele>137.0</ele><time>2026-04-12T08:05:01.03Z</time></trkpt><trkpt lat="43.8687183" lon="12.734075"><ele>134.33333333333331</ele><time>2026-04-12T08:05:02.029Z</time></trkpt><trkpt lat="43.8688117" lon="12.7339"><ele>131.66666666666666</ele><time>2026-04-12T08:05:03.03Z</time></trkpt><trkpt lat="43.86891" lon="12.733745"><ele>129.0</ele><time>2026-04-12T08:05:04.034Z</time></trkpt><trkpt lat="43.8690117" lon="12.7336033"><ele>128.0</ele><time>2026-04-12T08:05:05.03Z</time></trkpt><trkpt lat="43.8691133" lon="12.7334683"><ele>127.0</ele><time>2026-04-12T08:05:06.027Z</time></trkpt><trkpt lat="43.8692117" lon="12.7333367"><ele>126.0</ele><time>2026-04-12T08:05:07.031Z</time></trkpt><trkpt lat="43.8693017" lon="12.7332083"><ele>125.0</ele><time>2026-04-12T08:05:08.026Z</time></trkpt><trkpt lat="43.8693833" lon="12.733085"><ele>123.25</ele><time>2026-04-12T08:05:09.029Z</time></trkpt><trkpt lat="43.8694533" lon="12.7329567"><ele>121.5</ele><time>2026-04-12T08:05:10.032Z</time></trkpt><trkpt lat="43.8694983" lon="12.732805"><ele>119.75</ele><time>2026-04-12T08:05:11.026Z</time></trkpt><trkpt lat="43.869515" lon="12.7326317"><ele>118.0</ele><time>2026-04-12T08:05:12.032Z</time></trkpt><trkpt lat="43.8695067" lon="12.732455"><ele>118.0</ele><time>2026-04-12T08:05:13.027Z</time></trkpt><trkpt lat="43.86949" lon="12.7322883"><ele>118.00000000000001</ele><time>2026-04-12T08:05:14.029Z</time></trkpt><trkpt lat="43.86947" lon="12.732135"><ele>118.00000000000001</ele><time>2026-04-12T08:05:15.027Z</time></trkpt><trkpt lat="43.8694417" lon="12.7319933"><ele>118.0</ele><time>2026-04-12T08:05:16.034Z</time></trkpt><trkpt lat="43.8694017" lon="12.7318683"><ele>118.0</ele><time>2026-04-12T08:05:17.028Z</time></trkpt><trkpt lat="43.869365" lon="12.7317533"><ele>117.83333333333334</ele><time>2026-04-12T08:05:18.03Z</time></trkpt><trkpt lat="43.8693433" lon="12.731645"><ele>117.66666666666667</ele><time>2026-04-12T08:05:19.029Z</time></trkpt><trkpt lat="43.8693517" lon="12.7315383"><ele>117.5</ele><time>2026-04-12T08:05:20.025Z</time></trkpt><trkpt lat="43.8693867" lon="12.7314467"><ele>117.33333333333334</ele><time>2026-04-12T08:05:21.031Z</time></trkpt><trkpt lat="43.8694317" lon="12.73137"><ele>117.16666666666667</ele><time>2026-04-12T08:05:22.028Z</time></trkpt><trkpt lat="43.86948" lon="12.73129"><ele>117.0</ele><time>2026-04-12T08:05:23.032Z</time></trkpt><trkpt lat="43.86953" lon="12.7312083"><ele>117.0</ele><time>2026-04-12T08:05:24.029Z</time></trkpt><trkpt lat="43.8695817" lon="12.73112"><ele>116.99999999999999</ele><time>2026-04-12T08:05:25.03Z</time></trkpt><trkpt lat="43.8696383" lon="12.73102"><ele>116.99999999999999</ele><time>2026-04-12T08:05:26.03Z</time></trkpt><trkpt lat="43.8697033" lon="12.73091"><ele>117.0</ele><time>2026-04-12T08:05:27.035Z</time></trkpt><trkpt lat="43.8697717" lon="12.7307933"><ele>117.0</ele><time>2026-04-12T08:05:28.032Z</time></trkpt><trkpt lat="43.8698467" lon="12.7306717"><ele>116.75</ele><time>2026-04-12T08:05:29.03Z</time></trkpt><trkpt lat="43.8699283" lon="12.7305483"><ele>116.5</ele><time>2026-04-12T08:05:30.029Z</time></trkpt><trkpt lat="43.8700083" lon="12.7304183"><ele>116.25</ele><time>2026-04-12T08:05:31.025Z</time></trkpt><trkpt lat="43.8700917" lon="12.7302867"><ele>116.0</ele><time>2026-04-12T08:05:32.024Z</time></trkpt><trkpt lat="43.8701833" lon="12.7301467"><ele>113.5</ele><time>2026-04-12T08:05:33.029Z</time></trkpt><trkpt lat="43.8702783" lon="12.7299933"><ele>111.0</ele><time>2026-04-12T08:05:34.031Z</time></trkpt><trkpt lat="43.8703717" lon="12.7298433"><ele>108.5</ele><time>2026-04-12T08:05:35.029Z</time></trkpt><trkpt lat="43.87046" lon="12.7297"><ele>106.0</ele><time>2026-04-12T08:05:36.031Z</time></trkpt><trkpt lat="43.87055" lon="12.7295567"><ele>106.0</ele><time>2026-04-12T08:05:37.03Z</time></trkpt><trkpt lat="43.8706417" lon="12.729405"><ele>106.0</ele><time>2026-04-12T08:05:38.028Z</time></trkpt><trkpt lat="43.8707317" lon="12.7292583"><ele>106.0</ele><time>2026-04-12T08:05:39.03Z</time></trkpt><trkpt lat="43.87082" lon="12.7291167"><ele>106.0</ele><time>2026-04-12T08:05:40.031Z</time></trkpt><trkpt lat="43.8709033" lon="12.728965"><ele>105.75</ele><time>2026-04-12T08:05:41.03Z</time></trkpt><trkpt lat="43.8709833" lon="12.7288083"><ele>105.5</ele><time>2026-04-12T08:05:42.029Z</time></trkpt><trkpt lat="43.8710567" lon="12.72864"><ele>105.25</ele><time>2026-04-12T08:05:43.03Z</time></trkpt><trkpt lat="43.8711167" lon="12.7284667"><ele>105.0</ele><time>2026-04-12T08:05:44.031Z</time></trkpt><trkpt lat="43.871175" lon="12.7282967"><ele>105.0</ele><time>2026-04-12T08:05:45.024Z</time></trkpt><trkpt lat="43.87123" lon="12.728125"><ele>105.0</ele><time>2026-04-12T08:05:46.029Z</time></trkpt><trkpt lat="43.871285" lon="12.727955"><ele>105.0</ele><time>2026-04-12T08:05:47.028Z</time></trkpt><trkpt lat="43.87134" lon="12.72779"><ele>105.0</ele><time>2026-04-12T08:05:48.029Z</time></trkpt><trkpt lat="43.8713917" lon="12.72763"><ele>105.25</ele><time>2026-04-12T08:05:49.031Z</time></trkpt><trkpt lat="43.8714433" lon="12.7274733"><ele>105.5</ele><time>2026-04-12T08:05:50.029Z</time></trkpt><trkpt lat="43.8714917" lon="12.7273217"><ele>105.75</ele><time>2026-04-12T08:05:51.028Z</time></trkpt><trkpt lat="43.8715417" lon="12.727175"><ele>106.0</ele><time>2026-04-12T08:05:52.03Z</time></trkpt><trkpt lat="43.8715917" lon="12.727025"><ele>106.19999999999999</ele><time>2026-04-12T08:05:53.031Z</time></trkpt><trkpt lat="43.8716417" lon="12.7268817"><ele>106.39999999999999</ele><time>2026-04-12T08:05:54.028Z</time></trkpt><trkpt lat="43.8716933" lon="12.7267417"><ele>106.6</ele><time>2026-04-12T08:05:55.029Z</time></trkpt><trkpt lat="43.871745" lon="12.7266117"><ele>106.8</ele><time>2026-04-12T08:05:56.03Z</time></trkpt><trkpt lat="43.8717917" lon="12.726495"><ele>107.0</ele><time>2026-04-12T08:05:57.031Z</time></trkpt><trkpt lat="43.87183" lon="12.7263933"><ele>107.49999999999999</ele><time>2026-04-12T08:05:58.027Z</time></trkpt><trkpt lat="43.8718467" lon="12.7262983"><ele>108.0</ele><time>2026-04-12T08:05:59.03Z</time></trkpt><trkpt lat="43.8718333" lon="12.7262067"><ele>108.5</ele><time>2026-04-12T08:06:00.029Z</time></trkpt><trkpt lat="43.8717833" lon="12.7261217"><ele>109.0</ele><time>2026-04-12T08:06:01.031Z</time></trkpt><trkpt lat="43.8717067" lon="12.7260383"><ele>109.49999999999999</ele><time>2026-04-12T08:06:02.029Z</time></trkpt><trkpt lat="43.8716133" lon="12.7259517"><ele>110.0</ele><time>2026-04-12T08:06:03.031Z</time></trkpt><trkpt lat="43.8715183" lon="12.7258617"><ele>108.8</ele><time>2026-04-12T08:06:04.033Z</time></trkpt><trkpt lat="43.8714233" lon="12.7257683"><ele>107.6</ele><time>2026-04-12T08:06:05.026Z</time></trkpt><trkpt lat="43.8713333" lon="12.7256767"><ele>106.4</ele><time>2026-04-12T08:06:06.029Z</time></trkpt><trkpt lat="43.871245" lon="12.7255867"><ele>105.2</ele><time>2026-04-12T08:06:07.038Z</time></trkpt><trkpt lat="43.8711533" lon="12.725505"><ele>104.0</ele><time>2026-04-12T08:06:08.029Z</time></trkpt><trkpt lat="43.8710667" lon="12.7254217"><ele>104.0</ele><time>2026-04-12T08:06:09.028Z</time></trkpt><trkpt lat="43.8709817" lon="12.7253367"><ele>104.0</ele><time>2026-04-12T08:06:10.029Z</time></trkpt><trkpt lat="43.870905" lon="12.7252383"><ele>104.0</ele><time>2026-04-12T08:06:11.032Z</time></trkpt><trkpt lat="43.8708433" lon="12.7251133"><ele>104.0</ele><time>2026-04-12T08:06:12.03Z</time></trkpt><trkpt lat="43.8707933" lon="12.7249667"><ele>104.0</ele><time>2026-04-12T08:06:13.029Z</time></trkpt><trkpt lat="43.8707483" lon="12.7248033"><ele>101.0</ele><time>2026-04-12T08:06:14.03Z</time></trkpt><trkpt lat="43.870705" lon="12.72463"><ele>98.0</ele><time>2026-04-12T08:06:15.029Z</time></trkpt><trkpt lat="43.8706583" lon="12.7244567"><ele>95.0</ele><time>2026-04-12T08:06:16.027Z</time></trkpt><trkpt lat="43.8706133" lon="12.72428"><ele>92.0</ele><time>2026-04-12T08:06:17.03Z</time></trkpt><trkpt lat="43.8705667" lon="12.7241067"><ele>89.75</ele><time>2026-04-12T08:06:18.028Z</time></trkpt><trkpt lat="43.8705217" lon="12.7239283"><ele>87.5</ele><time>2026-04-12T08:06:19.026Z</time></trkpt><trkpt lat="43.8704733" lon="12.7237517"><ele>85.25</ele><time>2026-04-12T08:06:20.027Z</time></trkpt><trkpt lat="43.870425" lon="12.723575"><ele>83.0</ele><time>2026-04-12T08:06:21.028Z</time></trkpt><trkpt lat="43.8703817" lon="12.7233983"><ele>80.75</ele><time>2026-04-12T08:06:22.029Z</time></trkpt><trkpt lat="43.8703467" lon="12.723225"><ele>78.5</ele><time>2026-04-12T08:06:23.03Z</time></trkpt><trkpt lat="43.8703317" lon="12.7230433"><ele>76.25</ele><time>2026-04-12T08:06:24.034Z</time></trkpt><trkpt lat="43.870335" lon="12.7228483"><ele>74.0</ele><time>2026-04-12T08:06:25.029Z</time></trkpt><trkpt lat="43.87035" lon="12.7226383"><ele>71.0</ele><time>2026-04-12T08:06:26.031Z</time></trkpt><trkpt lat="43.8703683" lon="12.7224283"><ele>68.0</ele><time>2026-04-12T08:06:27.033Z</time></trkpt><trkpt lat="43.8703867" lon="12.7222217"><ele>65.0</ele><time>2026-04-12T08:06:28.031Z</time></trkpt><trkpt lat="43.8704033" lon="12.722015"><ele>64.33333333333334</ele><time>2026-04-12T08:06:29.026Z</time></trkpt><trkpt lat="43.87042" lon="12.7218033"><ele>63.66666666666667</ele><time>2026-04-12T08:06:30.035Z</time></trkpt><trkpt lat="43.870435" lon="12.7215833"><ele>63.0</ele><time>2026-04-12T08:06:31.032Z</time></trkpt><trkpt lat="43.87043" lon="12.7213417"><ele>63.0</ele><time>2026-04-12T08:06:32.033Z</time></trkpt><trkpt lat="43.8703983" lon="12.721075"><ele>63.0</ele><time>2026-04-12T08:06:33.032Z</time></trkpt><trkpt lat="43.8703467" lon="12.7208"><ele>63.0</ele><time>2026-04-12T08:06:34.031Z</time></trkpt><trkpt lat="43.8702917" lon="12.72055"><ele>62.33333333333333</ele><time>2026-04-12T08:06:35.029Z</time></trkpt><trkpt lat="43.870235" lon="12.7203233"><ele>61.666666666666664</ele><time>2026-04-12T08:06:36.034Z</time></trkpt><trkpt lat="43.870175" lon="12.7201033"><ele>61.0</ele><time>2026-04-12T08:06:37.032Z</time></trkpt><trkpt lat="43.8701117" lon="12.7198817"><ele>62.0</ele><time>2026-04-12T08:06:38.03Z</time></trkpt><trkpt lat="43.8700417" lon="12.7196667"><ele>63.0</ele><time>2026-04-12T08:06:39.032Z</time></trkpt><trkpt lat="43.8699717" lon="12.7194667"><ele>64.0</ele><time>2026-04-12T08:06:40.034Z</time></trkpt><trkpt lat="43.8699067" lon="12.7192833"><ele>64.0</ele><time>2026-04-12T08:06:41.031Z</time></trkpt><trkpt lat="43.86985" lon="12.7191117"><ele>64.0</ele><time>2026-04-12T08:06:42.031Z</time></trkpt><trkpt lat="43.8698033" lon="12.718955"><ele>64.0</ele><time>2026-04-12T08:06:43.03Z</time></trkpt><trkpt lat="43.8697683" lon="12.71881"><ele>64.0</ele><time>2026-04-12T08:06:44.031Z</time></trkpt><trkpt lat="43.8697483" lon="12.7186667"><ele>64.0</ele><time>2026-04-12T08:06:45.032Z</time></trkpt><trkpt lat="43.869745" lon="12.71852"><ele>64.0</ele><time>2026-04-12T08:06:46.032Z</time></trkpt><trkpt lat="43.8697633" lon="12.7183833"><ele>64.0</ele><time>2026-04-12T08:06:47.032Z</time></trkpt><trkpt lat="43.8697917" lon="12.71826"><ele>64.0</ele><time>2026-04-12T08:06:48.029Z</time></trkpt><trkpt lat="43.8698217" lon="12.7181533"><ele>64.0</ele><time>2026-04-12T08:06:49.026Z</time></trkpt><trkpt lat="43.869855" lon="12.7180617"><ele>63.99999999999999</ele><time>2026-04-12T08:06:50.032Z</time></trkpt><trkpt lat="43.8698967" lon="12.7179917"><ele>64.0</ele><time>2026-04-12T08:06:51.032Z</time></trkpt><trkpt lat="43.8699983" lon="12.7179033"><ele>64.0</ele><time>2026-04-12T08:06:53.032Z</time></trkpt><trkpt lat="43.87007" lon="12.71789"><ele>64.0</ele><time>2026-04-12T08:06:54.031Z</time></trkpt><trkpt lat="43.87015" lon="12.7178833"><ele>63.99999999999999</ele><time>2026-04-12T08:06:55.027Z</time></trkpt><trkpt lat="43.87024" lon="12.7178733"><ele>64.0</ele><time>2026-04-12T08:06:56.033Z</time></trkpt><trkpt lat="43.8703367" lon="12.7178533"><ele>63.6</ele><time>2026-04-12T08:06:57.026Z</time></trkpt><trkpt lat="43.8704383" lon="12.717835"><ele>63.2</ele><time>2026-04-12T08:06:58.031Z</time></trkpt><trkpt lat="43.8705433" lon="12.7178117"><ele>62.800000000000004</ele><time>2026-04-12T08:06:59.027Z</time></trkpt><trkpt lat="43.870645" lon="12.717775"><ele>62.400000000000006</ele><time>2026-04-12T08:07:00.032Z</time></trkpt><trkpt lat="43.870735" lon="12.7177333"><ele>62.0</ele><time>2026-04-12T08:07:01.029Z</time></trkpt><trkpt lat="43.87082" lon="12.7176967"><ele>62.0</ele><time>2026-04-12T08:07:02.032Z</time></trkpt><trkpt lat="43.8709117" lon="12.7176683"><ele>62.0</ele><time>2026-04-12T08:07:03.028Z</time></trkpt><trkpt lat="43.8709983" lon="12.7176733"><ele>62.0</ele><time>2026-04-12T08:07:04.028Z</time></trkpt><trkpt lat="43.8710867" lon="12.717705"><ele>62.0</ele><time>2026-04-12T08:07:05.037Z</time></trkpt><trkpt lat="43.871175" lon="12.7177617"><ele>62.0</ele><time>2026-04-12T08:07:06.031Z</time></trkpt><trkpt lat="43.8712767" lon="12.717835"><ele>61.75</ele><time>2026-04-12T08:07:07.031Z</time></trkpt><trkpt lat="43.8713883" lon="12.7179167"><ele>61.5</ele><time>2026-04-12T08:07:08.028Z</time></trkpt><trkpt lat="43.8715017" lon="12.717995"><ele>61.25</ele><time>2026-04-12T08:07:09.03Z</time></trkpt><trkpt lat="43.87161" lon="12.7180683"><ele>61.0</ele><time>2026-04-12T08:07:10.029Z</time></trkpt><trkpt lat="43.87172" lon="12.7181333"><ele>61.4</ele><time>2026-04-12T08:07:11.03Z</time></trkpt><trkpt lat="43.8718283" lon="12.71819"><ele>61.8</ele><time>2026-04-12T08:07:12.03Z</time></trkpt><trkpt lat="43.8719317" lon="12.71824"><ele>62.199999999999996</ele><time>2026-04-12T08:07:13.031Z</time></trkpt><trkpt lat="43.8720283" lon="12.71828"><ele>62.599999999999994</ele><time>2026-04-12T08:07:14.067Z</time></trkpt><trkpt lat="43.87213" lon="12.71831"><ele>63.0</ele><time>2026-04-12T08:07:15.027Z</time></trkpt><trkpt lat="43.872245" lon="12.7183283"><ele>63.0</ele><time>2026-04-12T08:07:16.025Z</time></trkpt><trkpt lat="43.8723767" lon="12.7183383"><ele>63.0</ele><time>2026-04-12T08:07:17.033Z</time></trkpt><trkpt lat="43.872515" lon="12.7183433"><ele>63.0</ele><time>2026-04-12T08:07:18.035Z</time></trkpt><trkpt lat="43.87265" lon="12.7183433"><ele>63.0</ele><time>2026-04-12T08:07:19.031Z</time></trkpt><trkpt lat="43.8727867" lon="12.71834"><ele>63.0</ele><time>2026-04-12T08:07:20.031Z</time></trkpt><trkpt lat="43.8729217" lon="12.7183367"><ele>63.0</ele><time>2026-04-12T08:07:21.028Z</time></trkpt><trkpt lat="43.8730567" lon="12.7183367"><ele>63.0</ele><time>2026-04-12T08:07:22.032Z</time></trkpt><trkpt lat="43.87319" lon="12.7183383"><ele>63.0</ele><time>2026-04-12T08:07:23.034Z</time></trkpt><trkpt lat="43.873325" lon="12.7183383"><ele>62.75</ele><time>2026-04-12T08:07:24.026Z</time></trkpt><trkpt lat="43.873465" lon="12.71834"><ele>62.5</ele><time>2026-04-12T08:07:25.032Z</time></trkpt><trkpt lat="43.8736067" lon="12.718335"><ele>62.25</ele><time>2026-04-12T08:07:26.03Z</time></trkpt><trkpt lat="43.873745" lon="12.7183283"><ele>62.0</ele><time>2026-04-12T08:07:27.031Z</time></trkpt><trkpt lat="43.873875" lon="12.7183133"><ele>62.0</ele><time>2026-04-12T08:07:28.03Z</time></trkpt><trkpt lat="43.8740033" lon="12.71829"><ele>62.0</ele><time>2026-04-12T08:07:29.031Z</time></trkpt><trkpt lat="43.8741317" lon="12.71825"><ele>62.0</ele><time>2026-04-12T08:07:30.03Z</time></trkpt><trkpt lat="43.8742583" lon="12.7182017"><ele>62.0</ele><time>2026-04-12T08:07:31.027Z</time></trkpt><trkpt lat="43.8743817" lon="12.7181517"><ele>61.75</ele><time>2026-04-12T08:07:32.033Z</time></trkpt><trkpt lat="43.874505" lon="12.718105"><ele>61.5</ele><time>2026-04-12T08:07:33.032Z</time></trkpt><trkpt lat="43.8746283" lon="12.718065"><ele>61.25</ele><time>2026-04-12T08:07:34.029Z</time></trkpt><trkpt lat="43.8747517" lon="12.7180233"><ele>61.0</ele><time>2026-04-12T08:07:35.03Z</time></trkpt><trkpt lat="43.8748733" lon="12.7179833"><ele>61.0</ele><time>2026-04-12T08:07:36.028Z</time></trkpt><trkpt lat="43.874995" lon="12.717945"><ele>61.0</ele><time>2026-04-12T08:07:37.029Z</time></trkpt><trkpt lat="43.8751183" lon="12.7179067"><ele>61.0</ele><time>2026-04-12T08:07:38.029Z</time></trkpt><trkpt lat="43.875245" lon="12.7178833"><ele>61.0</ele><time>2026-04-12T08:07:39.028Z</time></trkpt><trkpt lat="43.8753733" lon="12.71787"><ele>60.25</ele><time>2026-04-12T08:07:40.032Z</time></trkpt><trkpt lat="43.8755033" lon="12.717875"><ele>59.5</ele><time>2026-04-12T08:07:41.032Z</time></trkpt><trkpt lat="43.8756267" lon="12.7178883"><ele>58.75</ele><time>2026-04-12T08:07:42.031Z</time></trkpt><trkpt lat="43.87575" lon="12.7179117"><ele>58.0</ele><time>2026-04-12T08:07:43.03Z</time></trkpt><trkpt lat="43.8758767" lon="12.7179267"><ele>57.5</ele><time>2026-04-12T08:07:44.03Z</time></trkpt><trkpt lat="43.8760017" lon="12.7179467"><ele>57.0</ele><time>2026-04-12T08:07:45.028Z</time></trkpt><trkpt lat="43.876125" lon="12.7179667"><ele>56.5</ele><time>2026-04-12T08:07:46.03Z</time></trkpt><trkpt lat="43.8762533" lon="12.7179867"><ele>56.0</ele><time>2026-04-12T08:07:47.029Z</time></trkpt><trkpt lat="43.876375" lon="12.7180183"><ele>56.0</ele><time>2026-04-12T08:07:48.03Z</time></trkpt><trkpt lat="43.8764883" lon="12.71806"><ele>56.0</ele><time>2026-04-12T08:07:49.026Z</time></trkpt><trkpt lat="43.8766033" lon="12.7181167"><ele>56.0</ele><time>2026-04-12T08:07:50.032Z</time></trkpt><trkpt lat="43.876715" lon="12.7181883"><ele>56.0</ele><time>2026-04-12T08:07:51.029Z</time></trkpt><trkpt lat="43.8768283" lon="12.7182567"><ele>56.0</ele><time>2026-04-12T08:07:52.029Z</time></trkpt><trkpt lat="43.8769433" lon="12.718325"><ele>56.0</ele><time>2026-04-12T08:07:53.03Z</time></trkpt><trkpt lat="43.8770567" lon="12.718385"><ele>56.0</ele><time>2026-04-12T08:07:54.029Z</time></trkpt><trkpt lat="43.8771717" lon="12.71843"><ele>56.0</ele><time>2026-04-12T08:07:55.026Z</time></trkpt><trkpt lat="43.8772917" lon="12.7184617"><ele>56.0</ele><time>2026-04-12T08:07:56.03Z</time></trkpt><trkpt lat="43.8774183" lon="12.7184883"><ele>56.0</ele><time>2026-04-12T08:07:57.03Z</time></trkpt><trkpt lat="43.8775433" lon="12.7185067"><ele>56.0</ele><time>2026-04-12T08:07:58.035Z</time></trkpt><trkpt lat="43.8776617" lon="12.718515"><ele>56.0</ele><time>2026-04-12T08:07:59.026Z</time></trkpt><trkpt lat="43.877775" lon="12.7185367"><ele>56.0</ele><time>2026-04-12T08:08:00.033Z</time></trkpt><trkpt lat="43.87789" lon="12.7185667"><ele>56.0</ele><time>2026-04-12T08:08:01.027Z</time></trkpt><trkpt lat="43.8780133" lon="12.718595"><ele>56.0</ele><time>2026-04-12T08:08:02.034Z</time></trkpt><trkpt lat="43.8781383" lon="12.7186233"><ele>56.0</ele><time>2026-04-12T08:08:03.039Z</time></trkpt><trkpt lat="43.8782617" lon="12.7186483"><ele>56.0</ele><time>2026-04-12T08:08:04.03Z</time></trkpt><trkpt lat="43.878385" lon="12.7186633"><ele>56.0</ele><time>2026-04-12T08:08:05.03Z</time></trkpt><trkpt lat="43.87851" lon="12.7186633"><ele>56.0</ele><time>2026-04-12T08:08:06.026Z</time></trkpt><trkpt lat="43.8786417" lon="12.7186383"><ele>56.0</ele><time>2026-04-12T08:08:07.028Z</time></trkpt><trkpt lat="43.878775" lon="12.7185967"><ele>57.5</ele><time>2026-04-12T08:08:08.025Z</time></trkpt><trkpt lat="43.8789067" lon="12.7185433"><ele>59.0</ele><time>2026-04-12T08:08:09.026Z</time></trkpt><trkpt lat="43.87902" lon="12.7184783"><ele>60.5</ele><time>2026-04-12T08:08:10.036Z</time></trkpt><trkpt lat="43.8791183" lon="12.718425"><ele>62.0</ele><time>2026-04-12T08:08:11.033Z</time></trkpt><trkpt lat="43.8792083" lon="12.7184"><ele>63.400000000000006</ele><time>2026-04-12T08:08:12.028Z</time></trkpt><trkpt lat="43.8792917" lon="12.7184067"><ele>64.80000000000001</ele><time>2026-04-12T08:08:13.032Z</time></trkpt><trkpt lat="43.8793733" lon="12.718445"><ele>66.2</ele><time>2026-04-12T08:08:14.026Z</time></trkpt><trkpt lat="43.8794483" lon="12.7185133"><ele>67.60000000000001</ele><time>2026-04-12T08:08:15.03Z</time></trkpt><trkpt lat="43.8795167" lon="12.7186067"><ele>69.0</ele><time>2026-04-12T08:08:16.027Z</time></trkpt><trkpt lat="43.8795817" lon="12.7187183"><ele>69.0</ele><time>2026-04-12T08:08:17.029Z</time></trkpt><trkpt lat="43.8796483" lon="12.7188417"><ele>69.0</ele><time>2026-04-12T08:08:18.027Z</time></trkpt><trkpt lat="43.8797217" lon="12.71897"><ele>69.0</ele><time>2026-04-12T08:08:19.028Z</time></trkpt><trkpt lat="43.8798" lon="12.7191083"><ele>69.0</ele><time>2026-04-12T08:08:20.03Z</time></trkpt><trkpt lat="43.8798833" lon="12.71923"><ele>69.0</ele><time>2026-04-12T08:08:21.028Z</time></trkpt><trkpt lat="43.8799667" lon="12.7193383"><ele>69.0</ele><time>2026-04-12T08:08:22.032Z</time></trkpt><trkpt lat="43.8800499" lon="12.7194293"><ele>69.0</ele><time>2026-04-12T08:08:23.03Z</time></trkpt><trkpt lat="43.8801344" lon="12.7194969"><ele>69.0</ele><time>2026-04-12T08:08:24.026Z</time></trkpt><trkpt lat="43.8802224" lon="12.7195492"><ele>69.0</ele><time>2026-04-12T08:08:25.026Z</time></trkpt><trkpt lat="43.8803209" lon="12.7195917"><ele>67.25</ele><time>2026-04-12T08:08:26.029Z</time></trkpt><trkpt lat="43.8804329" lon="12.7196261"><ele>65.5</ele><time>2026-04-12T08:08:27.031Z</time></trkpt><trkpt lat="43.8805608" lon="12.7196496"><ele>63.75</ele><time>2026-04-12T08:08:28.028Z</time></trkpt><trkpt lat="43.8806961" lon="12.7196635"><ele>62.0</ele><time>2026-04-12T08:08:29.027Z</time></trkpt><trkpt lat="43.8808191" lon="12.7196753"><ele>62.00000000000001</ele><time>2026-04-12T08:08:30.031Z</time></trkpt><trkpt lat="43.8809289" lon="12.7196868"><ele>62.0</ele><time>2026-04-12T08:08:31.034Z</time></trkpt><trkpt lat="43.8810234" lon="12.719699"><ele>62.0</ele><time>2026-04-12T08:08:32.03Z</time></trkpt><trkpt lat="43.8811051" lon="12.7197067"><ele>62.0</ele><time>2026-04-12T08:08:33.031Z</time></trkpt><trkpt lat="43.8811739" lon="12.7197042"><ele>62.00000000000001</ele><time>2026-04-12T08:08:34.032Z</time></trkpt><trkpt lat="43.8812367" lon="12.7196813"><ele>62.0</ele><time>2026-04-12T08:08:35.035Z</time></trkpt><trkpt lat="43.8813177" lon="12.7195547"><ele>62.50000000000001</ele><time>2026-04-12T08:08:37.025Z</time></trkpt><trkpt lat="43.8813388" lon="12.7194556"><ele>63.0</ele><time>2026-04-12T08:08:38.03Z</time></trkpt><trkpt lat="43.8813449" lon="12.7193402"><ele>63.5</ele><time>2026-04-12T08:08:39.029Z</time></trkpt><trkpt lat="43.8813552" lon="12.7192238"><ele>64.0</ele><time>2026-04-12T08:08:40.026Z</time></trkpt><trkpt lat="43.8813684" lon="12.7191061"><ele>64.5</ele><time>2026-04-12T08:08:41.028Z</time></trkpt><trkpt lat="43.8813835" lon="12.7189887"><ele>65.0</ele><time>2026-04-12T08:08:42.029Z</time></trkpt><trkpt lat="43.8814032" lon="12.7188657"><ele>66.83333333333334</ele><time>2026-04-12T08:08:43.029Z</time></trkpt><trkpt lat="43.8814236" lon="12.7187353"><ele>68.66666666666667</ele><time>2026-04-12T08:08:44.036Z</time></trkpt><trkpt lat="43.8814387" lon="12.7186051"><ele>70.5</ele><time>2026-04-12T08:08:45.032Z</time></trkpt><trkpt lat="43.8814482" lon="12.7184778"><ele>72.33333333333333</ele><time>2026-04-12T08:08:46.031Z</time></trkpt><trkpt lat="43.8814382" lon="12.7183676"><ele>74.16666666666666</ele><time>2026-04-12T08:08:47.032Z</time></trkpt><trkpt lat="43.8814082" lon="12.7182681"><ele>76.0</ele><time>2026-04-12T08:08:48.029Z</time></trkpt><trkpt lat="43.8813645" lon="12.7181658"><ele>77.5</ele><time>2026-04-12T08:08:49.028Z</time></trkpt><trkpt lat="43.8813212" lon="12.7180607"><ele>79.0</ele><time>2026-04-12T08:08:50.03Z</time></trkpt><trkpt lat="43.8812938" lon="12.7179447"><ele>80.5</ele><time>2026-04-12T08:08:51.027Z</time></trkpt><trkpt lat="43.8812825" lon="12.7178162"><ele>82.0</ele><time>2026-04-12T08:08:52.035Z</time></trkpt><trkpt lat="43.8812786" lon="12.7176934"><ele>83.5</ele><time>2026-04-12T08:08:53.03Z</time></trkpt><trkpt lat="43.8812877" lon="12.7175891"><ele>85.0</ele><time>2026-04-12T08:08:54.029Z</time></trkpt><trkpt lat="43.8813175" lon="12.7174979"><ele>85.83333333333333</ele><time>2026-04-12T08:08:55.025Z</time></trkpt><trkpt lat="43.8813534" lon="12.7174043"><ele>86.66666666666666</ele><time>2026-04-12T08:08:56.037Z</time></trkpt><trkpt lat="43.8813807" lon="12.7173062"><ele>87.5</ele><time>2026-04-12T08:08:57.033Z</time></trkpt><trkpt lat="43.8813912" lon="12.7171902"><ele>88.33333333333333</ele><time>2026-04-12T08:08:58.034Z</time></trkpt><trkpt lat="43.8813949" lon="12.7170509"><ele>89.16666666666667</ele><time>2026-04-12T08:08:59.032Z</time></trkpt><trkpt lat="43.8813986" lon="12.7168954"><ele>90.0</ele><time>2026-04-12T08:09:00.033Z</time></trkpt><trkpt lat="43.8814035" lon="12.7167372"><ele>90.4</ele><time>2026-04-12T08:09:01.032Z</time></trkpt><trkpt lat="43.8814054" lon="12.7165806"><ele>90.8</ele><time>2026-04-12T08:09:02.03Z</time></trkpt><trkpt lat="43.8814054" lon="12.7164304"><ele>91.19999999999999</ele><time>2026-04-12T08:09:03.028Z</time></trkpt><trkpt lat="43.8813989" lon="12.7162916"><ele>91.6</ele><time>2026-04-12T08:09:04.03Z</time></trkpt><trkpt lat="43.8813862" lon="12.7161652"><ele>92.0</ele><time>2026-04-12T08:09:05.029Z</time></trkpt><trkpt lat="43.8813699" lon="12.716049"><ele>93.16666666666667</ele><time>2026-04-12T08:09:06.034Z</time></trkpt><trkpt lat="43.8813554" lon="12.7159342"><ele>94.33333333333334</ele><time>2026-04-12T08:09:07.028Z</time></trkpt><trkpt lat="43.8813431" lon="12.7158171"><ele>95.5</ele><time>2026-04-12T08:09:08.027Z</time></trkpt><trkpt lat="43.8813371" lon="12.7156975"><ele>96.66666666666667</ele><time>2026-04-12T08:09:09.035Z</time></trkpt><trkpt lat="43.8813325" lon="12.7155782"><ele>97.83333333333333</ele><time>2026-04-12T08:09:10.025Z</time></trkpt><trkpt lat="43.8813292" lon="12.7154592"><ele>99.0</ele><time>2026-04-12T08:09:11.03Z</time></trkpt><trkpt lat="43.8813291" lon="12.7153435"><ele>99.83333333333333</ele><time>2026-04-12T08:09:12.028Z</time></trkpt><trkpt lat="43.8813335" lon="12.7152242"><ele>100.66666666666666</ele><time>2026-04-12T08:09:13.029Z</time></trkpt><trkpt lat="43.8813374" lon="12.7151029"><ele>101.5</ele><time>2026-04-12T08:09:14.033Z</time></trkpt><trkpt lat="43.8813398" lon="12.7149786"><ele>102.33333333333333</ele><time>2026-04-12T08:09:15.031Z</time></trkpt><trkpt lat="43.8813398" lon="12.7148545"><ele>103.16666666666666</ele><time>2026-04-12T08:09:16.034Z</time></trkpt><trkpt lat="43.8813395" lon="12.7147315"><ele>104.0</ele><time>2026-04-12T08:09:17.029Z</time></trkpt><trkpt lat="43.8813428" lon="12.7146022"><ele>104.0</ele><time>2026-04-12T08:09:18.029Z</time></trkpt><trkpt lat="43.881348" lon="12.7144663"><ele>104.0</ele><time>2026-04-12T08:09:19.025Z</time></trkpt><trkpt lat="43.8813504" lon="12.71433"><ele>104.0</ele><time>2026-04-12T08:09:20.031Z</time></trkpt><trkpt lat="43.8813545" lon="12.7141938"><ele>104.0</ele><time>2026-04-12T08:09:21.031Z</time></trkpt><trkpt lat="43.8813569" lon="12.7140611"><ele>104.0</ele><time>2026-04-12T08:09:22.03Z</time></trkpt><trkpt lat="43.8813581" lon="12.7139218"><ele>104.0</ele><time>2026-04-12T08:09:23.035Z</time></trkpt><trkpt lat="43.8813555" lon="12.7137747"><ele>104.0</ele><time>2026-04-12T08:09:24.031Z</time></trkpt><trkpt lat="43.8813533" lon="12.713624"><ele>104.0</ele><time>2026-04-12T08:09:25.029Z</time></trkpt><trkpt lat="43.8813485" lon="12.7134735"><ele>104.0</ele><time>2026-04-12T08:09:26.028Z</time></trkpt><trkpt lat="43.8813405" lon="12.713326"><ele>104.0</ele><time>2026-04-12T08:09:27.029Z</time></trkpt><trkpt lat="43.8813332" lon="12.7131807"><ele>104.0</ele><time>2026-04-12T08:09:28.031Z</time></trkpt><trkpt lat="43.8813228" lon="12.7130345"><ele>104.0</ele><time>2026-04-12T08:09:29.029Z</time></trkpt><trkpt lat="43.8813101" lon="12.7128906"><ele>104.0</ele><time>2026-04-12T08:09:30.031Z</time></trkpt><trkpt lat="43.8812955" lon="12.7127525"><ele>104.0</ele><time>2026-04-12T08:09:31.03Z</time></trkpt><trkpt lat="43.8812821" lon="12.7126162"><ele>104.0</ele><time>2026-04-12T08:09:32.029Z</time></trkpt><trkpt lat="43.8812639" lon="12.7124813"><ele>104.80000000000001</ele><time>2026-04-12T08:09:33.028Z</time></trkpt><trkpt lat="43.8812426" lon="12.7123463"><ele>105.60000000000001</ele><time>2026-04-12T08:09:34.031Z</time></trkpt><trkpt lat="43.8812211" lon="12.7122086"><ele>106.4</ele><time>2026-04-12T08:09:35.033Z</time></trkpt><trkpt lat="43.881209" lon="12.7120631"><ele>107.2</ele><time>2026-04-12T08:09:36.032Z</time></trkpt><trkpt lat="43.8811988" lon="12.7119071"><ele>108.0</ele><time>2026-04-12T08:09:37.033Z</time></trkpt><trkpt lat="43.881186" lon="12.7117486"><ele>108.0</ele><time>2026-04-12T08:09:38.03Z</time></trkpt><trkpt lat="43.8811672" lon="12.7115881"><ele>108.0</ele><time>2026-04-12T08:09:39.035Z</time></trkpt><trkpt lat="43.8811481" lon="12.7114322"><ele>108.0</ele><time>2026-04-12T08:09:40.029Z</time></trkpt><trkpt lat="43.8811267" lon="12.7112796"><ele>108.0</ele><time>2026-04-12T08:09:41.03Z</time></trkpt><trkpt lat="43.8811011" lon="12.7111293"><ele>108.5</ele><time>2026-04-12T08:09:42.03Z</time></trkpt><trkpt lat="43.8810729" lon="12.7109781"><ele>109.0</ele><time>2026-04-12T08:09:43.031Z</time></trkpt><trkpt lat="43.8810392" lon="12.7108255"><ele>109.5</ele><time>2026-04-12T08:09:44.027Z</time></trkpt><trkpt lat="43.8809916" lon="12.7106775"><ele>110.0</ele><time>2026-04-12T08:09:45.027Z</time></trkpt><trkpt lat="43.8809348" lon="12.710534"><ele>113.75</ele><time>2026-04-12T08:09:46.033Z</time></trkpt><trkpt lat="43.8808698" lon="12.7103982"><ele>117.5</ele><time>2026-04-12T08:09:47.03Z</time></trkpt><trkpt lat="43.8808065" lon="12.7102615"><ele>121.25</ele><time>2026-04-12T08:09:48.03Z</time></trkpt><trkpt lat="43.8807517" lon="12.7101117"><ele>125.0</ele><time>2026-04-12T08:09:49.031Z</time></trkpt><trkpt lat="43.8807054" lon="12.7099451"><ele>125.75</ele><time>2026-04-12T08:09:50.036Z</time></trkpt><trkpt lat="43.8806644" lon="12.7097667"><ele>126.5</ele><time>2026-04-12T08:09:51.028Z</time></trkpt><trkpt lat="43.8806213" lon="12.7095854"><ele>127.25</ele><time>2026-04-12T08:09:52.035Z</time></trkpt><trkpt lat="43.8805729" lon="12.7094098"><ele>128.0</ele><time>2026-04-12T08:09:53.033Z</time></trkpt><trkpt lat="43.8805191" lon="12.7092431"><ele>128.5</ele><time>2026-04-12T08:09:54.029Z</time></trkpt><trkpt lat="43.8804604" lon="12.7090828"><ele>129.0</ele><time>2026-04-12T08:09:55.031Z</time></trkpt><trkpt lat="43.8803877" lon="12.7089384"><ele>129.5</ele><time>2026-04-12T08:09:56.03Z</time></trkpt><trkpt lat="43.8803114" lon="12.7088152"><ele>130.0</ele><time>2026-04-12T08:09:57.027Z</time></trkpt><trkpt lat="43.8802308" lon="12.7086955"><ele>129.5</ele><time>2026-04-12T08:09:58.031Z</time></trkpt><trkpt lat="43.8801512" lon="12.7085646"><ele>129.0</ele><time>2026-04-12T08:09:59.03Z</time></trkpt><trkpt lat="43.8800786" lon="12.7084268"><ele>128.5</ele><time>2026-04-12T08:10:00.026Z</time></trkpt><trkpt lat="43.8800131" lon="12.7082862"><ele>128.0</ele><time>2026-04-12T08:10:01.031Z</time></trkpt><trkpt lat="43.8799535" lon="12.7081429"><ele>129.5</ele><time>2026-04-12T08:10:02.028Z</time></trkpt><trkpt lat="43.8798914" lon="12.7079915"><ele>131.0</ele><time>2026-04-12T08:10:03.028Z</time></trkpt><trkpt lat="43.8798265" lon="12.7078254"><ele>132.5</ele><time>2026-04-12T08:10:04.028Z</time></trkpt><trkpt lat="43.8797502" lon="12.7076418"><ele>134.0</ele><time>2026-04-12T08:10:05.033Z</time></trkpt><trkpt lat="43.8796676" lon="12.7074546"><ele>134.5</ele><time>2026-04-12T08:10:06.03Z</time></trkpt><trkpt lat="43.8795876" lon="12.707281"><ele>135.0</ele><time>2026-04-12T08:10:07.028Z</time></trkpt><trkpt lat="43.8795072" lon="12.7071202"><ele>135.5</ele><time>2026-04-12T08:10:08.027Z</time></trkpt><trkpt lat="43.8794196" lon="12.7069633"><ele>136.0</ele><time>2026-04-12T08:10:09.031Z</time></trkpt><trkpt lat="43.8793289" lon="12.7068043"><ele>138.33333333333334</ele><time>2026-04-12T08:10:10.029Z</time></trkpt><trkpt lat="43.8792398" lon="12.7066346"><ele>140.66666666666666</ele><time>2026-04-12T08:10:11.03Z</time></trkpt><trkpt lat="43.8791569" lon="12.706456"><ele>143.0</ele><time>2026-04-12T08:10:12.027Z</time></trkpt><trkpt lat="43.8790763" lon="12.7062764"><ele>143.0</ele><time>2026-04-12T08:10:13.033Z</time></trkpt><trkpt lat="43.8789953" lon="12.7061035"><ele>143.0</ele><time>2026-04-12T08:10:14.026Z</time></trkpt><trkpt lat="43.8789128" lon="12.7059386"><ele>143.0</ele><time>2026-04-12T08:10:15.03Z</time></trkpt><trkpt lat="43.878834" lon="12.7057777"><ele>143.0</ele><time>2026-04-12T08:10:16.031Z</time></trkpt><trkpt lat="43.8787619" lon="12.705617"><ele>141.25</ele><time>2026-04-12T08:10:17.027Z</time></trkpt><trkpt lat="43.8786991" lon="12.7054473"><ele>139.5</ele><time>2026-04-12T08:10:18.029Z</time></trkpt><trkpt lat="43.8786539" lon="12.7052657"><ele>137.75</ele><time>2026-04-12T08:10:19.027Z</time></trkpt><trkpt lat="43.878621" lon="12.705077"><ele>136.0</ele><time>2026-04-12T08:10:20.035Z</time></trkpt><trkpt lat="43.8785955" lon="12.7048849"><ele>135.75</ele><time>2026-04-12T08:10:21.035Z</time></trkpt><trkpt lat="43.8785719" lon="12.7046936"><ele>135.5</ele><time>2026-04-12T08:10:22.027Z</time></trkpt><trkpt lat="43.8785516" lon="12.7045028"><ele>135.25</ele><time>2026-04-12T08:10:23.027Z</time></trkpt><trkpt lat="43.8785293" lon="12.7043134"><ele>135.0</ele><time>2026-04-12T08:10:24.029Z</time></trkpt><trkpt lat="43.8785063" lon="12.7041224"><ele>135.0</ele><time>2026-04-12T08:10:25.027Z</time></trkpt><trkpt lat="43.8784855" lon="12.7039371"><ele>135.0</ele><time>2026-04-12T08:10:26.034Z</time></trkpt><trkpt lat="43.8784661" lon="12.703764"><ele>135.0</ele><time>2026-04-12T08:10:27.029Z</time></trkpt><trkpt lat="43.8784448" lon="12.7035985"><ele>135.0</ele><time>2026-04-12T08:10:28.03Z</time></trkpt><trkpt lat="43.8784162" lon="12.7034372"><ele>137.25</ele><time>2026-04-12T08:10:29.033Z</time></trkpt><trkpt lat="43.8783776" lon="12.7032751"><ele>139.5</ele><time>2026-04-12T08:10:30.029Z</time></trkpt><trkpt lat="43.8783178" lon="12.7031098"><ele>141.75</ele><time>2026-04-12T08:10:31.028Z</time></trkpt><trkpt lat="43.8782429" lon="12.7029349"><ele>144.0</ele><time>2026-04-12T08:10:32.03Z</time></trkpt><trkpt lat="43.878153" lon="12.7027489"><ele>142.33333333333334</ele><time>2026-04-12T08:10:33.027Z</time></trkpt><trkpt lat="43.8780582" lon="12.7025639"><ele>140.66666666666669</ele><time>2026-04-12T08:10:34.028Z</time></trkpt><trkpt lat="43.8779659" lon="12.7023907"><ele>139.0</ele><time>2026-04-12T08:10:35.03Z</time></trkpt><trkpt lat="43.8778793" lon="12.702229"><ele>139.0</ele><time>2026-04-12T08:10:36.029Z</time></trkpt><trkpt lat="43.8778005" lon="12.7020667"><ele>139.0</ele><time>2026-04-12T08:10:37.03Z</time></trkpt><trkpt lat="43.8777278" lon="12.7018974"><ele>139.0</ele><time>2026-04-12T08:10:38.029Z</time></trkpt><trkpt lat="43.8776603" lon="12.7017216"><ele>139.0</ele><time>2026-04-12T08:10:39.037Z</time></trkpt><trkpt lat="43.8775958" lon="12.701541"><ele>139.5</ele><time>2026-04-12T08:10:40.028Z</time></trkpt><trkpt lat="43.8775317" lon="12.7013578"><ele>140.0</ele><time>2026-04-12T08:10:41.031Z</time></trkpt><trkpt lat="43.8774727" lon="12.7011668"><ele>140.5</ele><time>2026-04-12T08:10:42.025Z</time></trkpt><trkpt lat="43.8774213" lon="12.7009753"><ele>141.0</ele><time>2026-04-12T08:10:43.029Z</time></trkpt><trkpt lat="43.8773738" lon="12.7007842"><ele>142.0</ele><time>2026-04-12T08:10:44.028Z</time></trkpt><trkpt lat="43.877332" lon="12.7005897"><ele>143.0</ele><time>2026-04-12T08:10:45.027Z</time></trkpt><trkpt lat="43.8772898" lon="12.700394"><ele>144.0</ele><time>2026-04-12T08:10:46.031Z</time></trkpt><trkpt lat="43.8772486" lon="12.7001949"><ele>145.0</ele><time>2026-04-12T08:10:47.029Z</time></trkpt><trkpt lat="43.8772115" lon="12.699996"><ele>145.75</ele><time>2026-04-12T08:10:48.03Z</time></trkpt><trkpt lat="43.8771753" lon="12.6997974"><ele>146.5</ele><time>2026-04-12T08:10:49.033Z</time></trkpt><trkpt lat="43.8771374" lon="12.6996025"><ele>147.25</ele><time>2026-04-12T08:10:50.026Z</time></trkpt><trkpt lat="43.8770919" lon="12.6994122"><ele>148.0</ele><time>2026-04-12T08:10:51.037Z</time></trkpt><trkpt lat="43.8770401" lon="12.6992355"><ele>148.25</ele><time>2026-04-12T08:10:52.033Z</time></trkpt><trkpt lat="43.8769882" lon="12.6990732"><ele>148.5</ele><time>2026-04-12T08:10:53.04Z</time></trkpt><trkpt lat="43.8769405" lon="12.698924"><ele>148.75</ele><time>2026-04-12T08:10:54.03Z</time></trkpt><trkpt lat="43.8768947" lon="12.6987781"><ele>149.0</ele><time>2026-04-12T08:10:55.034Z</time></trkpt><trkpt lat="43.8768369" lon="12.6986343"><ele>150.0</ele><time>2026-04-12T08:10:56.032Z</time></trkpt><trkpt lat="43.8767569" lon="12.6984862"><ele>151.0</ele><time>2026-04-12T08:10:57.03Z</time></trkpt><trkpt lat="43.8766471" lon="12.6983389"><ele>152.0</ele><time>2026-04-12T08:10:58.031Z</time></trkpt><trkpt lat="43.8765268" lon="12.6981925"><ele>153.0</ele><time>2026-04-12T08:10:59.028Z</time></trkpt><trkpt lat="43.8764155" lon="12.698053"><ele>153.0</ele><time>2026-04-12T08:11:00.027Z</time></trkpt><trkpt lat="43.8763232" lon="12.6979055"><ele>153.0</ele><time>2026-04-12T08:11:01.03Z</time></trkpt><trkpt lat="43.8762459" lon="12.6977473"><ele>153.0</ele><time>2026-04-12T08:11:02.03Z</time></trkpt><trkpt lat="43.8761784" lon="12.6975744"><ele>153.0</ele><time>2026-04-12T08:11:03.028Z</time></trkpt><trkpt lat="43.8761121" lon="12.6973862"><ele>152.33333333333334</ele><time>2026-04-12T08:11:04.029Z</time></trkpt><trkpt lat="43.8760421" lon="12.6971894"><ele>151.66666666666669</ele><time>2026-04-12T08:11:05.029Z</time></trkpt><trkpt lat="43.8759749" lon="12.696993"><ele>151.0</ele><time>2026-04-12T08:11:06.027Z</time></trkpt><trkpt lat="43.8759082" lon="12.696804"><ele>151.0</ele><time>2026-04-12T08:11:07.03Z</time></trkpt><trkpt lat="43.8758461" lon="12.6966324"><ele>151.0</ele><time>2026-04-12T08:11:08.027Z</time></trkpt><trkpt lat="43.875785" lon="12.6964818"><ele>151.0</ele><time>2026-04-12T08:11:09.027Z</time></trkpt><trkpt lat="43.8757156" lon="12.696342"><ele>151.0</ele><time>2026-04-12T08:11:10.031Z</time></trkpt><trkpt lat="43.8756436" lon="12.6962053"><ele>151.75</ele><time>2026-04-12T08:11:11.028Z</time></trkpt><trkpt lat="43.8755629" lon="12.6960629"><ele>152.5</ele><time>2026-04-12T08:11:12.029Z</time></trkpt><trkpt lat="43.8754775" lon="12.695918"><ele>153.25</ele><time>2026-04-12T08:11:13.031Z</time></trkpt><trkpt lat="43.8753888" lon="12.6957766"><ele>154.0</ele><time>2026-04-12T08:11:14.029Z</time></trkpt><trkpt lat="43.8752984" lon="12.6956466"><ele>154.0</ele><time>2026-04-12T08:11:15.031Z</time></trkpt><trkpt lat="43.875208" lon="12.695528"><ele>154.0</ele><time>2026-04-12T08:11:16.027Z</time></trkpt><trkpt lat="43.8751189" lon="12.6954169"><ele>154.0</ele><time>2026-04-12T08:11:17.03Z</time></trkpt><trkpt lat="43.8750335" lon="12.695311"><ele>154.0</ele><time>2026-04-12T08:11:18.027Z</time></trkpt><trkpt lat="43.8749533" lon="12.6952063"><ele>153.4</ele><time>2026-04-12T08:11:19.03Z</time></trkpt><trkpt lat="43.8748754" lon="12.6951029"><ele>152.8</ele><time>2026-04-12T08:11:20.029Z</time></trkpt><trkpt lat="43.8747877" lon="12.6950082"><ele>152.2</ele><time>2026-04-12T08:11:21.031Z</time></trkpt><trkpt lat="43.8746906" lon="12.6949314"><ele>151.6</ele><time>2026-04-12T08:11:22.031Z</time></trkpt><trkpt lat="43.8745915" lon="12.6948683"><ele>151.0</ele><time>2026-04-12T08:11:23.027Z</time></trkpt><trkpt lat="43.8744858" lon="12.69482"><ele>151.0</ele><time>2026-04-12T08:11:24.029Z</time></trkpt><trkpt lat="43.8743758" lon="12.6947777"><ele>151.0</ele><time>2026-04-12T08:11:25.029Z</time></trkpt><trkpt lat="43.8742556" lon="12.69475"><ele>151.0</ele><time>2026-04-12T08:11:26.026Z</time></trkpt><trkpt lat="43.8741224" lon="12.6947442"><ele>151.0</ele><time>2026-04-12T08:11:27.028Z</time></trkpt><trkpt lat="43.8739763" lon="12.6947631"><ele>149.0</ele><time>2026-04-12T08:11:28.028Z</time></trkpt><trkpt lat="43.8738195" lon="12.6947997"><ele>147.0</ele><time>2026-04-12T08:11:29.026Z</time></trkpt><trkpt lat="43.8736552" lon="12.6948366"><ele>145.0</ele><time>2026-04-12T08:11:30.027Z</time></trkpt><trkpt lat="43.8734891" lon="12.6948744"><ele>145.0</ele><time>2026-04-12T08:11:31.03Z</time></trkpt><trkpt lat="43.8733324" lon="12.6949066"><ele>145.0</ele><time>2026-04-12T08:11:32.028Z</time></trkpt><trkpt lat="43.8731781" lon="12.6949294"><ele>145.0</ele><time>2026-04-12T08:11:33.032Z</time></trkpt><trkpt lat="43.8730293" lon="12.6949505"><ele>145.0</ele><time>2026-04-12T08:11:34.029Z</time></trkpt><trkpt lat="43.8728877" lon="12.6949638"><ele>145.0</ele><time>2026-04-12T08:11:35.029Z</time></trkpt><trkpt lat="43.8727485" lon="12.6949698"><ele>145.0</ele><time>2026-04-12T08:11:36.028Z</time></trkpt><trkpt lat="43.8726113" lon="12.6949726"><ele>145.0</ele><time>2026-04-12T08:11:37.027Z</time></trkpt><trkpt lat="43.8724843" lon="12.6949686"><ele>146.0</ele><time>2026-04-12T08:11:38.03Z</time></trkpt><trkpt lat="43.8723715" lon="12.6949538"><ele>147.0</ele><time>2026-04-12T08:11:39.028Z</time></trkpt><trkpt lat="43.8722675" lon="12.6949304"><ele>148.0</ele><time>2026-04-12T08:11:40.033Z</time></trkpt><trkpt lat="43.8721615" lon="12.6949058"><ele>149.0</ele><time>2026-04-12T08:11:41.031Z</time></trkpt><trkpt lat="43.8720559" lon="12.6948774"><ele>150.0</ele><time>2026-04-12T08:11:42.03Z</time></trkpt><trkpt lat="43.8719552" lon="12.6948449"><ele>150.0</ele><time>2026-04-12T08:11:43.029Z</time></trkpt><trkpt lat="43.8718565" lon="12.6947921"><ele>150.0</ele><time>2026-04-12T08:11:44.03Z</time></trkpt><trkpt lat="43.8717717" lon="12.6947"><ele>150.0</ele><time>2026-04-12T08:11:45.027Z</time></trkpt><trkpt lat="43.8717017" lon="12.6945917"><ele>150.0</ele><time>2026-04-12T08:11:46.031Z</time></trkpt><trkpt lat="43.8716417" lon="12.6944917"><ele>150.0</ele><time>2026-04-12T08:11:47.026Z</time></trkpt><trkpt lat="43.8715867" lon="12.694395"><ele>147.8</ele><time>2026-04-12T08:11:48.026Z</time></trkpt><trkpt lat="43.8715233" lon="12.694305"><ele>145.6</ele><time>2026-04-12T08:11:49.03Z</time></trkpt><trkpt lat="43.8714483" lon="12.6942117"><ele>143.4</ele><time>2026-04-12T08:11:50.028Z</time></trkpt><trkpt lat="43.8713617" lon="12.6941183"><ele>141.2</ele><time>2026-04-12T08:11:51.029Z</time></trkpt><trkpt lat="43.8712433" lon="12.6940317"><ele>139.0</ele><time>2026-04-12T08:11:52.026Z</time></trkpt><trkpt lat="43.871095" lon="12.6939483"><ele>140.0</ele><time>2026-04-12T08:11:53.033Z</time></trkpt><trkpt lat="43.87092" lon="12.6938733"><ele>141.0</ele><time>2026-04-12T08:11:54.028Z</time></trkpt><trkpt lat="43.8707333" lon="12.6938117"><ele>142.0</ele><time>2026-04-12T08:11:55.025Z</time></trkpt><trkpt lat="43.8705567" lon="12.6937583"><ele>142.0</ele><time>2026-04-12T08:11:56.029Z</time></trkpt><trkpt lat="43.870395" lon="12.69372"><ele>142.0</ele><time>2026-04-12T08:11:57.027Z</time></trkpt><trkpt lat="43.8702483" lon="12.6936833"><ele>142.0</ele><time>2026-04-12T08:11:58.026Z</time></trkpt><trkpt lat="43.87012" lon="12.69365"><ele>142.0</ele><time>2026-04-12T08:11:59.028Z</time></trkpt><trkpt lat="43.8700083" lon="12.6936167"><ele>140.79999999999998</ele><time>2026-04-12T08:12:00.027Z</time></trkpt><trkpt lat="43.8699133" lon="12.693565"><ele>139.6</ele><time>2026-04-12T08:12:01.032Z</time></trkpt><trkpt lat="43.8698367" lon="12.6934917"><ele>138.39999999999998</ele><time>2026-04-12T08:12:02.025Z</time></trkpt><trkpt lat="43.8697733" lon="12.6933983"><ele>137.2</ele><time>2026-04-12T08:12:03.028Z</time></trkpt><trkpt lat="43.8697" lon="12.693295"><ele>136.0</ele><time>2026-04-12T08:12:04.029Z</time></trkpt><trkpt lat="43.8695967" lon="12.6932067"><ele>136.0</ele><time>2026-04-12T08:12:05.028Z</time></trkpt><trkpt lat="43.8694617" lon="12.69315"><ele>136.0</ele><time>2026-04-12T08:12:06.027Z</time></trkpt><trkpt lat="43.8693033" lon="12.6931167"><ele>136.0</ele><time>2026-04-12T08:12:07.026Z</time></trkpt><trkpt lat="43.8691267" lon="12.6930867"><ele>137.66666666666669</ele><time>2026-04-12T08:12:08.029Z</time></trkpt><trkpt lat="43.8689383" lon="12.6930533"><ele>139.33333333333334</ele><time>2026-04-12T08:12:09.029Z</time></trkpt><trkpt lat="43.868745" lon="12.6930133"><ele>141.0</ele><time>2026-04-12T08:12:10.027Z</time></trkpt><trkpt lat="43.8685683" lon="12.6929583"><ele>141.75</ele><time>2026-04-12T08:12:11.027Z</time></trkpt><trkpt lat="43.8684167" lon="12.6928983"><ele>142.5</ele><time>2026-04-12T08:12:12.031Z</time></trkpt><trkpt lat="43.8683067" lon="12.692835"><ele>143.25</ele><time>2026-04-12T08:12:13.026Z</time></trkpt><trkpt lat="43.8682383" lon="12.692765"><ele>144.0</ele><time>2026-04-12T08:12:14.029Z</time></trkpt><trkpt lat="43.8682083" lon="12.6926083"><ele>144.0</ele><time>2026-04-12T08:12:16.029Z</time></trkpt><trkpt lat="43.8682667" lon="12.6925583"><ele>144.0</ele><time>2026-04-12T08:12:17.03Z</time></trkpt><trkpt lat="43.868355" lon="12.6925667"><ele>144.0</ele><time>2026-04-12T08:12:18.026Z</time></trkpt><trkpt lat="43.8684533" lon="12.692585"><ele>144.0</ele><time>2026-04-12T08:12:19.024Z</time></trkpt><trkpt lat="43.8686" lon="12.6926217"><ele>144.0</ele><time>2026-04-12T08:12:20.027Z</time></trkpt><trkpt lat="43.8687683" lon="12.692635"><ele>144.33333333333334</ele><time>2026-04-12T08:12:21.029Z</time></trkpt><trkpt lat="43.86895" lon="12.692625"><ele>144.66666666666669</ele><time>2026-04-12T08:12:22.032Z</time></trkpt><trkpt lat="43.8691233" lon="12.6926083"><ele>145.0</ele><time>2026-04-12T08:12:23.028Z</time></trkpt><trkpt lat="43.8692867" lon="12.692595"><ele>144.0</ele><time>2026-04-12T08:12:24.029Z</time></trkpt><trkpt lat="43.8694317" lon="12.6925733"><ele>143.0</ele><time>2026-04-12T08:12:25.027Z</time></trkpt><trkpt lat="43.86956" lon="12.6925367"><ele>142.0</ele><time>2026-04-12T08:12:26.032Z</time></trkpt><trkpt lat="43.86967" lon="12.6924783"><ele>141.0</ele><time>2026-04-12T08:12:27.028Z</time></trkpt><trkpt lat="43.86975" lon="12.6923933"><ele>141.0</ele><time>2026-04-12T08:12:28.03Z</time></trkpt><trkpt lat="43.8697967" lon="12.6922817"><ele>141.0</ele><time>2026-04-12T08:12:29.028Z</time></trkpt><trkpt lat="43.8698017" lon="12.6921467"><ele>141.0</ele><time>2026-04-12T08:12:30.032Z</time></trkpt><trkpt lat="43.8697817" lon="12.6920017"><ele>141.0</ele><time>2026-04-12T08:12:31.024Z</time></trkpt><trkpt lat="43.8697333" lon="12.6918533"><ele>141.0</ele><time>2026-04-12T08:12:32.033Z</time></trkpt><trkpt lat="43.8696617" lon="12.6917167"><ele>142.4</ele><time>2026-04-12T08:12:33.031Z</time></trkpt><trkpt lat="43.8695867" lon="12.6916"><ele>143.8</ele><time>2026-04-12T08:12:34.028Z</time></trkpt><trkpt lat="43.8695167" lon="12.6915"><ele>145.20000000000002</ele><time>2026-04-12T08:12:35.025Z</time></trkpt><trkpt lat="43.8694517" lon="12.6914017"><ele>146.6</ele><time>2026-04-12T08:12:36.023Z</time></trkpt><trkpt lat="43.8693867" lon="12.6913"><ele>148.0</ele><time>2026-04-12T08:12:37.028Z</time></trkpt><trkpt lat="43.8693217" lon="12.691195"><ele>149.16666666666669</ele><time>2026-04-12T08:12:38.027Z</time></trkpt><trkpt lat="43.869255" lon="12.6910917"><ele>150.33333333333334</ele><time>2026-04-12T08:12:39.029Z</time></trkpt><trkpt lat="43.86919" lon="12.6909983"><ele>151.5</ele><time>2026-04-12T08:12:40.027Z</time></trkpt><trkpt lat="43.8691317" lon="12.690915"><ele>152.66666666666666</ele><time>2026-04-12T08:12:41.027Z</time></trkpt><trkpt lat="43.8690883" lon="12.690845"><ele>153.83333333333331</ele><time>2026-04-12T08:12:42.03Z</time></trkpt><trkpt lat="43.869045" lon="12.6907783"><ele>155.0</ele><time>2026-04-12T08:12:43.029Z</time></trkpt><trkpt lat="43.86895" lon="12.69064"><ele>155.6</ele><time>2026-04-12T08:12:45.028Z</time></trkpt><trkpt lat="43.868885" lon="12.690565"><ele>156.2</ele><time>2026-04-12T08:12:46.027Z</time></trkpt><trkpt lat="43.8688117" lon="12.6904767"><ele>156.8</ele><time>2026-04-12T08:12:47.03Z</time></trkpt><trkpt lat="43.86873" lon="12.69038"><ele>157.4</ele><time>2026-04-12T08:12:48.025Z</time></trkpt><trkpt lat="43.8686417" lon="12.6902833"><ele>158.0</ele><time>2026-04-12T08:12:49.032Z</time></trkpt><trkpt lat="43.8685517" lon="12.690185"><ele>159.5</ele><time>2026-04-12T08:12:50.03Z</time></trkpt><trkpt lat="43.8684617" lon="12.6900883"><ele>161.0</ele><time>2026-04-12T08:12:51.029Z</time></trkpt><trkpt lat="43.86837" lon="12.68999"><ele>162.5</ele><time>2026-04-12T08:12:52.03Z</time></trkpt><trkpt lat="43.8682817" lon="12.6898833"><ele>164.0</ele><time>2026-04-12T08:12:53.033Z</time></trkpt><trkpt lat="43.8682" lon="12.6897583"><ele>165.5</ele><time>2026-04-12T08:12:54.031Z</time></trkpt><trkpt lat="43.8681283" lon="12.6896217"><ele>167.0</ele><time>2026-04-12T08:12:55.029Z</time></trkpt><trkpt lat="43.868065" lon="12.6894733"><ele>168.5</ele><time>2026-04-12T08:12:56.031Z</time></trkpt><trkpt lat="43.86801" lon="12.6893183"><ele>170.0</ele><time>2026-04-12T08:12:57.029Z</time></trkpt><trkpt lat="43.8679617" lon="12.689175"><ele>172.2</ele><time>2026-04-12T08:12:58.029Z</time></trkpt><trkpt lat="43.8679183" lon="12.6890517"><ele>174.4</ele><time>2026-04-12T08:12:59.028Z</time></trkpt><trkpt lat="43.8678667" lon="12.6889483"><ele>176.60000000000002</ele><time>2026-04-12T08:13:00.033Z</time></trkpt><trkpt lat="43.867805" lon="12.6888633"><ele>178.8</ele><time>2026-04-12T08:13:01.03Z</time></trkpt><trkpt lat="43.867725" lon="12.6888067"><ele>181.0</ele><time>2026-04-12T08:13:02.033Z</time></trkpt><trkpt lat="43.8676217" lon="12.6887633"><ele>181.66666666666669</ele><time>2026-04-12T08:13:03.026Z</time></trkpt><trkpt lat="43.8674883" lon="12.68872"><ele>182.33333333333334</ele><time>2026-04-12T08:13:04.031Z</time></trkpt><trkpt lat="43.867335" lon="12.68867"><ele>183.0</ele><time>2026-04-12T08:13:05.027Z</time></trkpt><trkpt lat="43.8671767" lon="12.68863"><ele>183.0</ele><time>2026-04-12T08:13:06.028Z</time></trkpt><trkpt lat="43.867025" lon="12.68861"><ele>183.0</ele><time>2026-04-12T08:13:07.027Z</time></trkpt><trkpt lat="43.86688" lon="12.68861"><ele>183.0</ele><time>2026-04-12T08:13:08.031Z</time></trkpt><trkpt lat="43.8667417" lon="12.688615"><ele>183.0</ele><time>2026-04-12T08:13:09.03Z</time></trkpt><trkpt lat="43.8666067" lon="12.68862"><ele>184.75</ele><time>2026-04-12T08:13:10.026Z</time></trkpt><trkpt lat="43.86647" lon="12.6886283"><ele>186.5</ele><time>2026-04-12T08:13:11.025Z</time></trkpt><trkpt lat="43.8663383" lon="12.68864"><ele>188.25</ele><time>2026-04-12T08:13:12.026Z</time></trkpt><trkpt lat="43.86621" lon="12.688645"><ele>190.0</ele><time>2026-04-12T08:13:13.03Z</time></trkpt><trkpt lat="43.8660817" lon="12.688645"><ele>190.0</ele><time>2026-04-12T08:13:14.028Z</time></trkpt><trkpt lat="43.865955" lon="12.6886517"><ele>190.0</ele><time>2026-04-12T08:13:15.03Z</time></trkpt><trkpt lat="43.865835" lon="12.6886583"><ele>190.0</ele><time>2026-04-12T08:13:16.029Z</time></trkpt><trkpt lat="43.8657083" lon="12.68866"><ele>190.0</ele><time>2026-04-12T08:13:17.027Z</time></trkpt><trkpt lat="43.8655833" lon="12.6886683"><ele>193.0</ele><time>2026-04-12T08:13:18.029Z</time></trkpt><trkpt lat="43.8654583" lon="12.6886833"><ele>196.0</ele><time>2026-04-12T08:13:19.029Z</time></trkpt><trkpt lat="43.8653283" lon="12.688695"><ele>199.0</ele><time>2026-04-12T08:13:20.034Z</time></trkpt><trkpt lat="43.8651983" lon="12.68871"><ele>202.0</ele><time>2026-04-12T08:13:21.031Z</time></trkpt><trkpt lat="43.865065" lon="12.68872"><ele>203.75</ele><time>2026-04-12T08:13:22.033Z</time></trkpt><trkpt lat="43.864935" lon="12.6887217"><ele>205.5</ele><time>2026-04-12T08:13:23.034Z</time></trkpt><trkpt lat="43.864805" lon="12.6887133"><ele>207.25</ele><time>2026-04-12T08:13:24.032Z</time></trkpt><trkpt lat="43.8646733" lon="12.68868"><ele>209.0</ele><time>2026-04-12T08:13:25.027Z</time></trkpt><trkpt lat="43.86454" lon="12.6886217"><ele>212.25</ele><time>2026-04-12T08:13:26.026Z</time></trkpt><trkpt lat="43.8644067" lon="12.688555"><ele>215.5</ele><time>2026-04-12T08:13:27.027Z</time></trkpt><trkpt lat="43.864285" lon="12.6884767"><ele>218.75</ele><time>2026-04-12T08:13:28.025Z</time></trkpt><trkpt lat="43.8641817" lon="12.68838"><ele>222.0</ele><time>2026-04-12T08:13:29.024Z</time></trkpt><trkpt lat="43.8641017" lon="12.6882733"><ele>222.0</ele><time>2026-04-12T08:13:30.027Z</time></trkpt><trkpt lat="43.8640483" lon="12.6881667"><ele>222.0</ele><time>2026-04-12T08:13:31.03Z</time></trkpt><trkpt lat="43.8640233" lon="12.68807"><ele>222.0</ele><time>2026-04-12T08:13:32.027Z</time></trkpt><trkpt lat="43.86407" lon="12.68792"><ele>222.0</ele><time>2026-04-12T08:13:34.029Z</time></trkpt><trkpt lat="43.864135" lon="12.6878733"><ele>222.0</ele><time>2026-04-12T08:13:35.028Z</time></trkpt><trkpt lat="43.8642233" lon="12.687855"><ele>222.0</ele><time>2026-04-12T08:13:36.027Z</time></trkpt><trkpt lat="43.864335" lon="12.6878683"><ele>222.0</ele><time>2026-04-12T08:13:37.025Z</time></trkpt><trkpt lat="43.8644617" lon="12.6878883"><ele>222.0</ele><time>2026-04-12T08:13:38.027Z</time></trkpt><trkpt lat="43.8645883" lon="12.6878833"><ele>222.0</ele><time>2026-04-12T08:13:39.027Z</time></trkpt><trkpt lat="43.86471" lon="12.68785"><ele>222.0</ele><time>2026-04-12T08:13:40.028Z</time></trkpt><trkpt lat="43.86483" lon="12.687785"><ele>224.33333333333331</ele><time>2026-04-12T08:13:41.032Z</time></trkpt><trkpt lat="43.8649467" lon="12.6876683"><ele>226.66666666666666</ele><time>2026-04-12T08:13:42.026Z</time></trkpt><trkpt lat="43.8650717" lon="12.687525"><ele>229.0</ele><time>2026-04-12T08:13:43.03Z</time></trkpt><trkpt lat="43.8651917" lon="12.6873867"><ele>229.0</ele><time>2026-04-12T08:13:44.029Z</time></trkpt><trkpt lat="43.8653217" lon="12.6872367"><ele>229.0</ele><time>2026-04-12T08:13:45.033Z</time></trkpt><trkpt lat="43.8654283" lon="12.68714"><ele>229.0</ele><time>2026-04-12T08:13:46.04Z</time></trkpt><trkpt lat="43.865535" lon="12.68704"><ele>229.0</ele><time>2026-04-12T08:13:47.034Z</time></trkpt><trkpt lat="43.86563" lon="12.6869517"><ele>230.25</ele><time>2026-04-12T08:13:48.032Z</time></trkpt><trkpt lat="43.8657233" lon="12.6868633"><ele>231.5</ele><time>2026-04-12T08:13:49.031Z</time></trkpt><trkpt lat="43.8658083" lon="12.6867633"><ele>232.75</ele><time>2026-04-12T08:13:50.028Z</time></trkpt><trkpt lat="43.8658833" lon="12.6866333"><ele>234.0</ele><time>2026-04-12T08:13:51.029Z</time></trkpt><trkpt lat="43.86595" lon="12.6864933"><ele>234.0</ele><time>2026-04-12T08:13:52.029Z</time></trkpt><trkpt lat="43.866005" lon="12.68633"><ele>234.0</ele><time>2026-04-12T08:13:53.036Z</time></trkpt><trkpt lat="43.866055" lon="12.6861433"><ele>234.0</ele><time>2026-04-12T08:13:54.029Z</time></trkpt><trkpt lat="43.8661017" lon="12.6859567"><ele>234.0</ele><time>2026-04-12T08:13:55.028Z</time></trkpt><trkpt lat="43.8661433" lon="12.6857783"><ele>238.5</ele><time>2026-04-12T08:13:56.032Z</time></trkpt><trkpt lat="43.8661733" lon="12.6856167"><ele>243.0</ele><time>2026-04-12T08:13:57.031Z</time></trkpt><trkpt lat="43.8661933" lon="12.6854617"><ele>247.5</ele><time>2026-04-12T08:13:58.029Z</time></trkpt><trkpt lat="43.8662067" lon="12.68531"><ele>252.0</ele><time>2026-04-12T08:13:59.029Z</time></trkpt><trkpt lat="43.8662133" lon="12.6851617"><ele>254.83333333333334</ele><time>2026-04-12T08:14:00.028Z</time></trkpt><trkpt lat="43.8662217" lon="12.6850217"><ele>257.6666666666667</ele><time>2026-04-12T08:14:01.032Z</time></trkpt><trkpt lat="43.8662383" lon="12.6849"><ele>260.5</ele><time>2026-04-12T08:14:02.029Z</time></trkpt><trkpt lat="43.8662667" lon="12.6848017"><ele>263.33333333333337</ele><time>2026-04-12T08:14:03.037Z</time></trkpt><trkpt lat="43.866305" lon="12.6847317"><ele>266.1666666666667</ele><time>2026-04-12T08:14:04.033Z</time></trkpt><trkpt lat="43.8663717" lon="12.6847233"><ele>269.0</ele><time>2026-04-12T08:14:05.03Z</time></trkpt><trkpt lat="43.8664517" lon="12.6847317"><ele>269.0</ele><time>2026-04-12T08:14:06.03Z</time></trkpt><trkpt lat="43.8665483" lon="12.6847617"><ele>269.0</ele><time>2026-04-12T08:14:07.027Z</time></trkpt><trkpt lat="43.866645" lon="12.684775"><ele>269.0</ele><time>2026-04-12T08:14:08.03Z</time></trkpt><trkpt lat="43.866725" lon="12.6847633"><ele>269.0</ele><time>2026-04-12T08:14:09.028Z</time></trkpt><trkpt lat="43.8667817" lon="12.6846367"><ele>269.0</ele><time>2026-04-12T08:14:11.025Z</time></trkpt><trkpt lat="43.8667433" lon="12.6845283"><ele>271.4</ele><time>2026-04-12T08:14:12.028Z</time></trkpt><trkpt lat="43.86669" lon="12.6844167"><ele>273.79999999999995</ele><time>2026-04-12T08:14:13.031Z</time></trkpt><trkpt lat="43.86664" lon="12.684295"><ele>276.20000000000005</ele><time>2026-04-12T08:14:14.03Z</time></trkpt><trkpt lat="43.8665967" lon="12.68415"><ele>278.6</ele><time>2026-04-12T08:14:15.029Z</time></trkpt><trkpt lat="43.866565" lon="12.6839783"><ele>281.0</ele><time>2026-04-12T08:14:16.031Z</time></trkpt><trkpt lat="43.86654" lon="12.6837833"><ele>282.25</ele><time>2026-04-12T08:14:17.033Z</time></trkpt><trkpt lat="43.86652" lon="12.6835883"><ele>283.5</ele><time>2026-04-12T08:14:18.029Z</time></trkpt><trkpt lat="43.866505" lon="12.6834067"><ele>284.75</ele><time>2026-04-12T08:14:19.028Z</time></trkpt><trkpt lat="43.866485" lon="12.683245"><ele>286.0</ele><time>2026-04-12T08:14:20.027Z</time></trkpt><trkpt lat="43.8664433" lon="12.6831117"><ele>286.0</ele><time>2026-04-12T08:14:21.028Z</time></trkpt><trkpt lat="43.8663733" lon="12.6830083"><ele>286.0</ele><time>2026-04-12T08:14:22.032Z</time></trkpt><trkpt lat="43.8662733" lon="12.6829333"><ele>286.0</ele><time>2026-04-12T08:14:23.028Z</time></trkpt><trkpt lat="43.8661533" lon="12.6828967"><ele>286.0</ele><time>2026-04-12T08:14:24.038Z</time></trkpt><trkpt lat="43.8660383" lon="12.6828883"><ele>285.40000000000003</ele><time>2026-04-12T08:14:25.03Z</time></trkpt><trkpt lat="43.8659383" lon="12.68289"><ele>284.8</ele><time>2026-04-12T08:14:26.036Z</time></trkpt><trkpt lat="43.8658433" lon="12.6828883"><ele>284.20000000000005</ele><time>2026-04-12T08:14:27.034Z</time></trkpt><trkpt lat="43.8657633" lon="12.6828533"><ele>283.6</ele><time>2026-04-12T08:14:28.028Z</time></trkpt><trkpt lat="43.8656933" lon="12.6827967"><ele>283.0</ele><time>2026-04-12T08:14:29.031Z</time></trkpt><trkpt lat="43.86564" lon="12.6826933"><ele>286.5</ele><time>2026-04-12T08:14:30.027Z</time></trkpt><trkpt lat="43.8656033" lon="12.6825517"><ele>290.0</ele><time>2026-04-12T08:14:31.031Z</time></trkpt><trkpt lat="43.8655767" lon="12.682365"><ele>293.5</ele><time>2026-04-12T08:14:32.031Z</time></trkpt><trkpt lat="43.8655283" lon="12.6821883"><ele>297.0</ele><time>2026-04-12T08:14:33.03Z</time></trkpt><trkpt lat="43.86547" lon="12.6820133"><ele>297.4</ele><time>2026-04-12T08:14:34.031Z</time></trkpt><trkpt lat="43.8653983" lon="12.6818567"><ele>297.79999999999995</ele><time>2026-04-12T08:14:35.031Z</time></trkpt><trkpt lat="43.8653267" lon="12.6817283"><ele>298.2</ele><time>2026-04-12T08:14:36.03Z</time></trkpt><trkpt lat="43.8652483" lon="12.681635"><ele>298.59999999999997</ele><time>2026-04-12T08:14:37.035Z</time></trkpt><trkpt lat="43.8651617" lon="12.6815883"><ele>299.0</ele><time>2026-04-12T08:14:38.025Z</time></trkpt><trkpt lat="43.8650683" lon="12.6815767"><ele>302.5</ele><time>2026-04-12T08:14:39.031Z</time></trkpt><trkpt lat="43.8649633" lon="12.6815967"><ele>306.0</ele><time>2026-04-12T08:14:40.028Z</time></trkpt><trkpt lat="43.8648517" lon="12.6816383"><ele>309.5</ele><time>2026-04-12T08:14:41.027Z</time></trkpt><trkpt lat="43.8647383" lon="12.68169"><ele>313.0</ele><time>2026-04-12T08:14:42.029Z</time></trkpt><trkpt lat="43.864635" lon="12.6817367"><ele>313.0</ele><time>2026-04-12T08:14:43.031Z</time></trkpt><trkpt lat="43.8645417" lon="12.6817517"><ele>313.0</ele><time>2026-04-12T08:14:44.034Z</time></trkpt><trkpt lat="43.8644533" lon="12.6817417"><ele>313.0</ele><time>2026-04-12T08:14:45.028Z</time></trkpt><trkpt lat="43.864365" lon="12.68171"><ele>313.0</ele><time>2026-04-12T08:14:46.035Z</time></trkpt><trkpt lat="43.864295" lon="12.6816133"><ele>313.0</ele><time>2026-04-12T08:14:47.028Z</time></trkpt><trkpt lat="43.8642417" lon="12.6814817"><ele>314.0</ele><time>2026-04-12T08:14:48.032Z</time></trkpt><trkpt lat="43.8642" lon="12.6813383"><ele>315.0</ele><time>2026-04-12T08:14:49.033Z</time></trkpt><trkpt lat="43.8641583" lon="12.68119"><ele>316.0</ele><time>2026-04-12T08:14:50.03Z</time></trkpt><trkpt lat="43.86411" lon="12.6810467"><ele>317.0</ele><time>2026-04-12T08:14:51.028Z</time></trkpt><trkpt lat="43.8640483" lon="12.6809167"><ele>319.25</ele><time>2026-04-12T08:14:52.031Z</time></trkpt><trkpt lat="43.8639717" lon="12.6808"><ele>321.5</ele><time>2026-04-12T08:14:53.026Z</time></trkpt><trkpt lat="43.8638933" lon="12.6806933"><ele>323.75</ele><time>2026-04-12T08:14:54.027Z</time></trkpt><trkpt lat="43.86381" lon="12.68059"><ele>326.0</ele><time>2026-04-12T08:14:55.028Z</time></trkpt><trkpt lat="43.8637267" lon="12.68048"><ele>326.0</ele><time>2026-04-12T08:14:56.032Z</time></trkpt><trkpt lat="43.8636483" lon="12.6803583"><ele>326.0</ele><time>2026-04-12T08:14:57.03Z</time></trkpt><trkpt lat="43.8635683" lon="12.6802233"><ele>326.0</ele><time>2026-04-12T08:14:58.027Z</time></trkpt><trkpt lat="43.8634967" lon="12.6800717"><ele>326.0</ele><time>2026-04-12T08:14:59.034Z</time></trkpt><trkpt lat="43.8634267" lon="12.6799067"><ele>328.25</ele><time>2026-04-12T08:15:00.028Z</time></trkpt><trkpt lat="43.8633583" lon="12.6797317"><ele>330.5</ele><time>2026-04-12T08:15:01.033Z</time></trkpt><trkpt lat="43.8632867" lon="12.6795617"><ele>332.75</ele><time>2026-04-12T08:15:02.028Z</time></trkpt><trkpt lat="43.86321" lon="12.679405"><ele>335.0</ele><time>2026-04-12T08:15:03.029Z</time></trkpt><trkpt lat="43.863115" lon="12.6792733"><ele>335.33333333333337</ele><time>2026-04-12T08:15:04.029Z</time></trkpt><trkpt lat="43.8629983" lon="12.67916"><ele>335.6666666666667</ele><time>2026-04-12T08:15:05.028Z</time></trkpt><trkpt lat="43.86286" lon="12.6790667"><ele>336.0</ele><time>2026-04-12T08:15:06.026Z</time></trkpt><trkpt lat="43.8627017" lon="12.6789783"><ele>338.3333333333333</ele><time>2026-04-12T08:15:07.026Z</time></trkpt><trkpt lat="43.8625417" lon="12.6788867"><ele>340.66666666666663</ele><time>2026-04-12T08:15:08.027Z</time></trkpt><trkpt lat="43.8623917" lon="12.6788"><ele>343.0</ele><time>2026-04-12T08:15:09.028Z</time></trkpt><trkpt lat="43.86226" lon="12.6787067"><ele>343.0</ele><time>2026-04-12T08:15:10.03Z</time></trkpt><trkpt lat="43.86215" lon="12.6786167"><ele>343.0</ele><time>2026-04-12T08:15:11.029Z</time></trkpt><trkpt lat="43.8620583" lon="12.6785217"><ele>343.0</ele><time>2026-04-12T08:15:12.03Z</time></trkpt><trkpt lat="43.8619683" lon="12.6784317"><ele>343.0</ele><time>2026-04-12T08:15:13.031Z</time></trkpt><trkpt lat="43.8618683" lon="12.6783517"><ele>345.0</ele><time>2026-04-12T08:15:14.03Z</time></trkpt><trkpt lat="43.86177" lon="12.67828"><ele>347.0</ele><time>2026-04-12T08:15:15.028Z</time></trkpt><trkpt lat="43.8616683" lon="12.6782333"><ele>349.0</ele><time>2026-04-12T08:15:16.029Z</time></trkpt><trkpt lat="43.8615633" lon="12.6782083"><ele>351.0</ele><time>2026-04-12T08:15:17.026Z</time></trkpt><trkpt lat="43.861445" lon="12.67824"><ele>353.0</ele><time>2026-04-12T08:15:18.027Z</time></trkpt><trkpt lat="43.86132" lon="12.6782967"><ele>353.0</ele><time>2026-04-12T08:15:19.03Z</time></trkpt><trkpt lat="43.8611917" lon="12.678355"><ele>353.0</ele><time>2026-04-12T08:15:20.028Z</time></trkpt><trkpt lat="43.8610717" lon="12.67841"><ele>353.0</ele><time>2026-04-12T08:15:21.029Z</time></trkpt><trkpt lat="43.8609533" lon="12.678445"><ele>353.0</ele><time>2026-04-12T08:15:22.027Z</time></trkpt><trkpt lat="43.8608417" lon="12.6784533"><ele>352.59999999999997</ele><time>2026-04-12T08:15:23.029Z</time></trkpt><trkpt lat="43.860735" lon="12.678455"><ele>352.2</ele><time>2026-04-12T08:15:24.03Z</time></trkpt><trkpt lat="43.8606283" lon="12.6784567"><ele>351.8</ele><time>2026-04-12T08:15:25.028Z</time></trkpt><trkpt lat="43.8605167" lon="12.6784617"><ele>351.4</ele><time>2026-04-12T08:15:26.029Z</time></trkpt><trkpt lat="43.8604067" lon="12.67848"><ele>351.0</ele><time>2026-04-12T08:15:27.028Z</time></trkpt><trkpt lat="43.86031" lon="12.6785133"><ele>351.0</ele><time>2026-04-12T08:15:28.033Z</time></trkpt><trkpt lat="43.86022" lon="12.6785633"><ele>351.0</ele><time>2026-04-12T08:15:29.029Z</time></trkpt><trkpt lat="43.860135" lon="12.6786217"><ele>351.0</ele><time>2026-04-12T08:15:30.03Z</time></trkpt><trkpt lat="43.8600583" lon="12.6786733"><ele>351.0</ele><time>2026-04-12T08:15:31.029Z</time></trkpt><trkpt lat="43.859985" lon="12.6787067"><ele>351.0</ele><time>2026-04-12T08:15:32.032Z</time></trkpt><trkpt lat="43.8599067" lon="12.678715"><ele>351.0</ele><time>2026-04-12T08:15:33.027Z</time></trkpt><trkpt lat="43.859825" lon="12.678695"><ele>351.6</ele><time>2026-04-12T08:15:34.031Z</time></trkpt><trkpt lat="43.8597433" lon="12.6786417"><ele>352.20000000000005</ele><time>2026-04-12T08:15:35.025Z</time></trkpt><trkpt lat="43.8596783" lon="12.6785367"><ele>352.79999999999995</ele><time>2026-04-12T08:15:36.027Z</time></trkpt><trkpt lat="43.8596267" lon="12.6784117"><ele>353.4</ele><time>2026-04-12T08:15:37.028Z</time></trkpt><trkpt lat="43.8595817" lon="12.6782833"><ele>354.0</ele><time>2026-04-12T08:15:38.024Z</time></trkpt><trkpt lat="43.8595317" lon="12.6781467"><ele>354.0</ele><time>2026-04-12T08:15:39.026Z</time></trkpt><trkpt lat="43.859475" lon="12.678"><ele>354.0</ele><time>2026-04-12T08:15:40.028Z</time></trkpt><trkpt lat="43.8594133" lon="12.6778583"><ele>354.0</ele><time>2026-04-12T08:15:41.028Z</time></trkpt><trkpt lat="43.859355" lon="12.6777233"><ele>354.0</ele><time>2026-04-12T08:15:42.034Z</time></trkpt><trkpt lat="43.8593017" lon="12.6776"><ele>354.2</ele><time>2026-04-12T08:15:43.027Z</time></trkpt><trkpt lat="43.8592317" lon="12.6775033"><ele>354.4</ele><time>2026-04-12T08:15:44.027Z</time></trkpt><trkpt lat="43.8591417" lon="12.677445"><ele>354.6</ele><time>2026-04-12T08:15:45.027Z</time></trkpt><trkpt lat="43.859035" lon="12.6774233"><ele>354.8</ele><time>2026-04-12T08:15:46.028Z</time></trkpt><trkpt lat="43.858925" lon="12.677435"><ele>355.0</ele><time>2026-04-12T08:15:47.028Z</time></trkpt><trkpt lat="43.85882" lon="12.6774517"><ele>355.0</ele><time>2026-04-12T08:15:48.026Z</time></trkpt><trkpt lat="43.8587183" lon="12.67746"><ele>355.0</ele><time>2026-04-12T08:15:49.027Z</time></trkpt><trkpt lat="43.8586283" lon="12.6774517"><ele>355.0</ele><time>2026-04-12T08:15:50.029Z</time></trkpt><trkpt lat="43.8585617" lon="12.6774333"><ele>355.0</ele><time>2026-04-12T08:15:51.025Z</time></trkpt><trkpt lat="43.8584967" lon="12.6773717"><ele>355.0</ele><time>2026-04-12T08:15:53.03Z</time></trkpt><trkpt lat="43.8584883" lon="12.6772367"><ele>355.0</ele><time>2026-04-12T08:15:55.027Z</time></trkpt><trkpt lat="43.8584967" lon="12.67713"><ele>355.0</ele><time>2026-04-12T08:15:56.026Z</time></trkpt><trkpt lat="43.858505" lon="12.6770117"><ele>355.0</ele><time>2026-04-12T08:15:57.029Z</time></trkpt><trkpt lat="43.858515" lon="12.6768767"><ele>355.0</ele><time>2026-04-12T08:15:58.029Z</time></trkpt><trkpt lat="43.858525" lon="12.6767167"><ele>355.0</ele><time>2026-04-12T08:15:59.035Z</time></trkpt><trkpt lat="43.8585383" lon="12.6765467"><ele>355.0</ele><time>2026-04-12T08:16:00.029Z</time></trkpt><trkpt lat="43.85855" lon="12.67638"><ele>357.5</ele><time>2026-04-12T08:16:01.03Z</time></trkpt><trkpt lat="43.85856" lon="12.676215"><ele>360.0</ele><time>2026-04-12T08:16:02.029Z</time></trkpt><trkpt lat="43.8585683" lon="12.6760483"><ele>362.5</ele><time>2026-04-12T08:16:03.031Z</time></trkpt><trkpt lat="43.8585833" lon="12.67588"><ele>365.0</ele><time>2026-04-12T08:16:04.031Z</time></trkpt><trkpt lat="43.8586017" lon="12.67571"><ele>367.5</ele><time>2026-04-12T08:16:05.03Z</time></trkpt><trkpt lat="43.858615" lon="12.6755383"><ele>370.0</ele><time>2026-04-12T08:16:06.028Z</time></trkpt><trkpt lat="43.8586283" lon="12.6753617"><ele>372.5</ele><time>2026-04-12T08:16:07.027Z</time></trkpt><trkpt lat="43.858645" lon="12.675185"><ele>375.0</ele><time>2026-04-12T08:16:08.031Z</time></trkpt><trkpt lat="43.8586617" lon="12.6750083"><ele>375.75</ele><time>2026-04-12T08:16:09.029Z</time></trkpt><trkpt lat="43.858675" lon="12.67483"><ele>376.5</ele><time>2026-04-12T08:16:10.029Z</time></trkpt><trkpt lat="43.858685" lon="12.674655"><ele>377.25</ele><time>2026-04-12T08:16:11.028Z</time></trkpt><trkpt lat="43.8586917" lon="12.6744833"><ele>378.0</ele><time>2026-04-12T08:16:12.028Z</time></trkpt><trkpt lat="43.8587" lon="12.6743233"><ele>378.0</ele><time>2026-04-12T08:16:13.027Z</time></trkpt><trkpt lat="43.8587083" lon="12.6741717"><ele>378.0</ele><time>2026-04-12T08:16:14.027Z</time></trkpt><trkpt lat="43.8587183" lon="12.6740267"><ele>378.0</ele><time>2026-04-12T08:16:15.027Z</time></trkpt><trkpt lat="43.858735" lon="12.6738783"><ele>378.0</ele><time>2026-04-12T08:16:16.025Z</time></trkpt><trkpt lat="43.8587483" lon="12.6737217"><ele>378.0</ele><time>2026-04-12T08:16:17.032Z</time></trkpt><trkpt lat="43.8587683" lon="12.67356"><ele>378.0</ele><time>2026-04-12T08:16:18.027Z</time></trkpt><trkpt lat="43.85879" lon="12.6733983"><ele>378.0</ele><time>2026-04-12T08:16:19.033Z</time></trkpt><trkpt lat="43.858805" lon="12.67324"><ele>378.0</ele><time>2026-04-12T08:16:20.031Z</time></trkpt><trkpt lat="43.8588133" lon="12.6730917"><ele>378.0</ele><time>2026-04-12T08:16:21.028Z</time></trkpt><trkpt lat="43.8588067" lon="12.672955"><ele>378.0</ele><time>2026-04-12T08:16:22.031Z</time></trkpt><trkpt lat="43.8587767" lon="12.672825"><ele>378.2</ele><time>2026-04-12T08:16:23.029Z</time></trkpt><trkpt lat="43.858715" lon="12.6727233"><ele>378.4</ele><time>2026-04-12T08:16:24.031Z</time></trkpt><trkpt lat="43.85863" lon="12.6726483"><ele>378.59999999999997</ele><time>2026-04-12T08:16:25.035Z</time></trkpt><trkpt lat="43.8585267" lon="12.6725833"><ele>378.79999999999995</ele><time>2026-04-12T08:16:26.028Z</time></trkpt><trkpt lat="43.8584083" lon="12.6725317"><ele>379.0</ele><time>2026-04-12T08:16:27.031Z</time></trkpt><trkpt lat="43.858285" lon="12.6724733"><ele>379.0</ele><time>2026-04-12T08:16:28.034Z</time></trkpt><trkpt lat="43.8581533" lon="12.672415"><ele>379.0</ele><time>2026-04-12T08:16:29.027Z</time></trkpt><trkpt lat="43.8580217" lon="12.672355"><ele>379.0</ele><time>2026-04-12T08:16:30.025Z</time></trkpt><trkpt lat="43.8578983" lon="12.672295"><ele>379.0</ele><time>2026-04-12T08:16:31.028Z</time></trkpt><trkpt lat="43.857785" lon="12.6722383"><ele>379.0</ele><time>2026-04-12T08:16:32.027Z</time></trkpt><trkpt lat="43.8576833" lon="12.6721883"><ele>379.0</ele><time>2026-04-12T08:16:33.03Z</time></trkpt><trkpt lat="43.8575967" lon="12.67214"><ele>379.0</ele><time>2026-04-12T08:16:34.027Z</time></trkpt><trkpt lat="43.8575267" lon="12.672095"><ele>379.0</ele><time>2026-04-12T08:16:35.024Z</time></trkpt><trkpt lat="43.85747" lon="12.6720483"><ele>379.0</ele><time>2026-04-12T08:16:36.028Z</time></trkpt><trkpt lat="43.8574083" lon="12.6719667"><ele>379.0</ele><time>2026-04-12T08:16:38.028Z</time></trkpt><trkpt lat="43.857325" lon="12.67195"><ele>379.2</ele><time>2026-04-12T08:16:40.03Z</time></trkpt><trkpt lat="43.8572583" lon="12.67196"><ele>379.4</ele><time>2026-04-12T08:16:41.031Z</time></trkpt><trkpt lat="43.8571783" lon="12.6719583"><ele>379.6</ele><time>2026-04-12T08:16:42.027Z</time></trkpt><trkpt lat="43.8570883" lon="12.6719367"><ele>379.8</ele><time>2026-04-12T08:16:43.031Z</time></trkpt><trkpt lat="43.8569817" lon="12.6718717"><ele>380.0</ele><time>2026-04-12T08:16:44.029Z</time></trkpt><trkpt lat="43.8568617" lon="12.6717967"><ele>381.4</ele><time>2026-04-12T08:16:45.029Z</time></trkpt><trkpt lat="43.85675" lon="12.6717367"><ele>382.8</ele><time>2026-04-12T08:16:46.026Z</time></trkpt><trkpt lat="43.856645" lon="12.671695"><ele>384.20000000000005</ele><time>2026-04-12T08:16:47.028Z</time></trkpt><trkpt lat="43.8565417" lon="12.671675"><ele>385.6</ele><time>2026-04-12T08:16:48.029Z</time></trkpt><trkpt lat="43.8564467" lon="12.671675"><ele>387.0</ele><time>2026-04-12T08:16:49.028Z</time></trkpt><trkpt lat="43.85637" lon="12.6716967"><ele>387.0</ele><time>2026-04-12T08:16:50.03Z</time></trkpt><trkpt lat="43.856275" lon="12.67176"><ele>387.0</ele><time>2026-04-12T08:16:52.032Z</time></trkpt><trkpt lat="43.856185" lon="12.6718767"><ele>387.0</ele><time>2026-04-12T08:16:54.024Z</time></trkpt><trkpt lat="43.8561183" lon="12.67192"><ele>387.0</ele><time>2026-04-12T08:16:55.028Z</time></trkpt><trkpt lat="43.856045" lon="12.6719467"><ele>387.0</ele><time>2026-04-12T08:16:56.027Z</time></trkpt><trkpt lat="43.8559633" lon="12.6719683"><ele>384.6</ele><time>2026-04-12T08:16:57.031Z</time></trkpt><trkpt lat="43.855875" lon="12.6719917"><ele>382.20000000000005</ele><time>2026-04-12T08:16:58.026Z</time></trkpt><trkpt lat="43.8557783" lon="12.6720117"><ele>379.8</ele><time>2026-04-12T08:16:59.031Z</time></trkpt><trkpt lat="43.8556717" lon="12.67203"><ele>377.4</ele><time>2026-04-12T08:17:00.03Z</time></trkpt><trkpt lat="43.855555" lon="12.672045"><ele>375.0</ele><time>2026-04-12T08:17:01.03Z</time></trkpt><trkpt lat="43.855435" lon="12.6720533"><ele>375.0</ele><time>2026-04-12T08:17:02.028Z</time></trkpt><trkpt lat="43.8553167" lon="12.67205"><ele>375.0</ele><time>2026-04-12T08:17:03.032Z</time></trkpt><trkpt lat="43.855195" lon="12.6720267"><ele>375.0</ele><time>2026-04-12T08:17:04.038Z</time></trkpt><trkpt lat="43.8550683" lon="12.6719883"><ele>375.0</ele><time>2026-04-12T08:17:05.03Z</time></trkpt><trkpt lat="43.8549433" lon="12.6719517"><ele>378.25</ele><time>2026-04-12T08:17:06.03Z</time></trkpt><trkpt lat="43.8548183" lon="12.67192"><ele>381.5</ele><time>2026-04-12T08:17:07.028Z</time></trkpt><trkpt lat="43.85469" lon="12.6719117"><ele>384.75</ele><time>2026-04-12T08:17:08.031Z</time></trkpt><trkpt lat="43.8545567" lon="12.67191"><ele>388.0</ele><time>2026-04-12T08:17:09.027Z</time></trkpt><trkpt lat="43.8544217" lon="12.6719283"><ele>383.25</ele><time>2026-04-12T08:17:10.029Z</time></trkpt><trkpt lat="43.8542883" lon="12.67195"><ele>378.5</ele><time>2026-04-12T08:17:11.03Z</time></trkpt><trkpt lat="43.8541583" lon="12.6719717"><ele>373.75</ele><time>2026-04-12T08:17:12.027Z</time></trkpt><trkpt lat="43.8540283" lon="12.6719883"><ele>369.0</ele><time>2026-04-12T08:17:13.032Z</time></trkpt><trkpt lat="43.8538983" lon="12.672005"><ele>367.25</ele><time>2026-04-12T08:17:14.027Z</time></trkpt><trkpt lat="43.853775" lon="12.67201"><ele>365.5</ele><time>2026-04-12T08:17:15.034Z</time></trkpt><trkpt lat="43.853655" lon="12.672"><ele>363.75</ele><time>2026-04-12T08:17:16.03Z</time></trkpt><trkpt lat="43.853535" lon="12.6719917"><ele>362.0</ele><time>2026-04-12T08:17:17.029Z</time></trkpt><trkpt lat="43.8534183" lon="12.6719617"><ele>366.25</ele><time>2026-04-12T08:17:18.029Z</time></trkpt><trkpt lat="43.8533017" lon="12.6719167"><ele>370.5</ele><time>2026-04-12T08:17:19.025Z</time></trkpt><trkpt lat="43.85318" lon="12.67187"><ele>374.75</ele><time>2026-04-12T08:17:20.03Z</time></trkpt><trkpt lat="43.85306" lon="12.6718183"><ele>379.0</ele><time>2026-04-12T08:17:21.031Z</time></trkpt><trkpt lat="43.8529433" lon="12.671755"><ele>379.0</ele><time>2026-04-12T08:17:22.025Z</time></trkpt><trkpt lat="43.852835" lon="12.6716867"><ele>379.0</ele><time>2026-04-12T08:17:23.03Z</time></trkpt><trkpt lat="43.8527333" lon="12.671605"><ele>379.0</ele><time>2026-04-12T08:17:24.032Z</time></trkpt><trkpt lat="43.8526383" lon="12.6715033"><ele>379.0</ele><time>2026-04-12T08:17:25.027Z</time></trkpt><trkpt lat="43.8525483" lon="12.67138"><ele>376.25</ele><time>2026-04-12T08:17:26.028Z</time></trkpt><trkpt lat="43.852465" lon="12.671235"><ele>373.5</ele><time>2026-04-12T08:17:27.027Z</time></trkpt><trkpt lat="43.8523783" lon="12.671105"><ele>370.75</ele><time>2026-04-12T08:17:28.028Z</time></trkpt><trkpt lat="43.8523033" lon="12.670985"><ele>368.0</ele><time>2026-04-12T08:17:29.033Z</time></trkpt><trkpt lat="43.852245" lon="12.670865"><ele>368.0</ele><time>2026-04-12T08:17:30.03Z</time></trkpt><trkpt lat="43.8522117" lon="12.6707317"><ele>368.0</ele><time>2026-04-12T08:17:31.03Z</time></trkpt><trkpt lat="43.85221" lon="12.6705933"><ele>368.0</ele><time>2026-04-12T08:17:32.031Z</time></trkpt><trkpt lat="43.8522383" lon="12.6704617"><ele>368.0</ele><time>2026-04-12T08:17:33.029Z</time></trkpt><trkpt lat="43.8522983" lon="12.6703383"><ele>368.0</ele><time>2026-04-12T08:17:34.027Z</time></trkpt><trkpt lat="43.852385" lon="12.6702167"><ele>366.4</ele><time>2026-04-12T08:17:35.026Z</time></trkpt><trkpt lat="43.8524817" lon="12.6701017"><ele>364.79999999999995</ele><time>2026-04-12T08:17:36.029Z</time></trkpt><trkpt lat="43.8525617" lon="12.6700067"><ele>363.2</ele><time>2026-04-12T08:17:37.033Z</time></trkpt><trkpt lat="43.85263" lon="12.6699333"><ele>361.6</ele><time>2026-04-12T08:17:38.029Z</time></trkpt><trkpt lat="43.8526883" lon="12.6698617"><ele>360.0</ele><time>2026-04-12T08:17:39.027Z</time></trkpt><trkpt lat="43.85273" lon="12.6697883"><ele>360.0</ele><time>2026-04-12T08:17:40.028Z</time></trkpt><trkpt lat="43.8527267" lon="12.6696483"><ele>360.0</ele><time>2026-04-12T08:17:42.025Z</time></trkpt><trkpt lat="43.85262" lon="12.6696317"><ele>360.0</ele><time>2026-04-12T08:17:44.029Z</time></trkpt><trkpt lat="43.8525467" lon="12.6696783"><ele>360.0</ele><time>2026-04-12T08:17:45.032Z</time></trkpt><trkpt lat="43.8524717" lon="12.6697733"><ele>360.0</ele><time>2026-04-12T08:17:46.03Z</time></trkpt><trkpt lat="43.8523967" lon="12.6698783"><ele>359.3333333333333</ele><time>2026-04-12T08:17:47.027Z</time></trkpt><trkpt lat="43.8523267" lon="12.6699683"><ele>358.6666666666667</ele><time>2026-04-12T08:17:48.032Z</time></trkpt><trkpt lat="43.85226" lon="12.6700383"><ele>358.0</ele><time>2026-04-12T08:17:49.03Z</time></trkpt><trkpt lat="43.8521817" lon="12.6700733"><ele>357.33333333333337</ele><time>2026-04-12T08:17:50.03Z</time></trkpt><trkpt lat="43.8521133" lon="12.6700667"><ele>356.6666666666667</ele><time>2026-04-12T08:17:51.026Z</time></trkpt><trkpt lat="43.852065" lon="12.6700083"><ele>356.0</ele><time>2026-04-12T08:17:52.032Z</time></trkpt><trkpt lat="43.8520533" lon="12.6699167"><ele>356.0</ele><time>2026-04-12T08:17:53.029Z</time></trkpt><trkpt lat="43.8520933" lon="12.6698133"><ele>356.0</ele><time>2026-04-12T08:17:54.031Z</time></trkpt><trkpt lat="43.85216" lon="12.6697133"><ele>356.0</ele><time>2026-04-12T08:17:55.029Z</time></trkpt><trkpt lat="43.852255" lon="12.669625"><ele>356.0</ele><time>2026-04-12T08:17:56.027Z</time></trkpt><trkpt lat="43.8523533" lon="12.6695383"><ele>356.0</ele><time>2026-04-12T08:17:57.026Z</time></trkpt><trkpt lat="43.8524467" lon="12.66946"><ele>351.8</ele><time>2026-04-12T08:17:58.025Z</time></trkpt><trkpt lat="43.8525317" lon="12.6693917"><ele>347.6</ele><time>2026-04-12T08:17:59.026Z</time></trkpt><trkpt lat="43.8526067" lon="12.66934"><ele>343.4</ele><time>2026-04-12T08:18:00.026Z</time></trkpt><trkpt lat="43.8526717" lon="12.669295"><ele>339.2</ele><time>2026-04-12T08:18:01.026Z</time></trkpt><trkpt lat="43.8527483" lon="12.66918"><ele>335.0</ele><time>2026-04-12T08:18:03.033Z</time></trkpt><trkpt lat="43.8526833" lon="12.6690633"><ele>335.0</ele><time>2026-04-12T08:18:05.03Z</time></trkpt><trkpt lat="43.8526017" lon="12.6690867"><ele>335.0</ele><time>2026-04-12T08:18:06.024Z</time></trkpt><trkpt lat="43.852525" lon="12.6691167"><ele>335.0</ele><time>2026-04-12T08:18:07.029Z</time></trkpt><trkpt lat="43.8524367" lon="12.66918"><ele>335.0</ele><time>2026-04-12T08:18:08.029Z</time></trkpt><trkpt lat="43.8523467" lon="12.66923"><ele>335.0</ele><time>2026-04-12T08:18:09.029Z</time></trkpt><trkpt lat="43.8522433" lon="12.6692517"><ele>335.0</ele><time>2026-04-12T08:18:10.029Z</time></trkpt><trkpt lat="43.85213" lon="12.669235"><ele>335.0</ele><time>2026-04-12T08:18:11.027Z</time></trkpt><trkpt lat="43.8520233" lon="12.669185"><ele>335.0</ele><time>2026-04-12T08:18:12.029Z</time></trkpt><trkpt lat="43.8519333" lon="12.6691167"><ele>335.0</ele><time>2026-04-12T08:18:13.026Z</time></trkpt><trkpt lat="43.8518567" lon="12.6690483"><ele>335.0</ele><time>2026-04-12T08:18:14.034Z</time></trkpt><trkpt lat="43.8517817" lon="12.669005"><ele>334.6666666666667</ele><time>2026-04-12T08:18:15.025Z</time></trkpt><trkpt lat="43.8517067" lon="12.6689767"><ele>334.33333333333337</ele><time>2026-04-12T08:18:16.029Z</time></trkpt><trkpt lat="43.8516383" lon="12.6690167"><ele>334.0</ele><time>2026-04-12T08:18:17.03Z</time></trkpt><trkpt lat="43.8515817" lon="12.6691033"><ele>333.6666666666667</ele><time>2026-04-12T08:18:18.025Z</time></trkpt><trkpt lat="43.8515333" lon="12.66922"><ele>333.3333333333333</ele><time>2026-04-12T08:18:19.027Z</time></trkpt><trkpt lat="43.851495" lon="12.6693567"><ele>333.0</ele><time>2026-04-12T08:18:20.03Z</time></trkpt><trkpt lat="43.8514567" lon="12.6694983"><ele>333.0</ele><time>2026-04-12T08:18:21.028Z</time></trkpt><trkpt lat="43.8514167" lon="12.6696433"><ele>333.0</ele><time>2026-04-12T08:18:22.031Z</time></trkpt><trkpt lat="43.8513733" lon="12.6697917"><ele>333.0</ele><time>2026-04-12T08:18:23.03Z</time></trkpt><trkpt lat="43.851335" lon="12.6699383"><ele>333.0</ele><time>2026-04-12T08:18:24.026Z</time></trkpt><trkpt lat="43.8513017" lon="12.67008"><ele>333.0</ele><time>2026-04-12T08:18:25.03Z</time></trkpt><trkpt lat="43.8512733" lon="12.6702117"><ele>334.4</ele><time>2026-04-12T08:18:26.026Z</time></trkpt><trkpt lat="43.8512433" lon="12.6703333"><ele>335.79999999999995</ele><time>2026-04-12T08:18:27.03Z</time></trkpt><trkpt lat="43.8512033" lon="12.6704467"><ele>337.2</ele><time>2026-04-12T08:18:28.032Z</time></trkpt><trkpt lat="43.8511417" lon="12.6705433"><ele>338.6</ele><time>2026-04-12T08:18:29.027Z</time></trkpt><trkpt lat="43.85106" lon="12.67062"><ele>340.0</ele><time>2026-04-12T08:18:30.027Z</time></trkpt><trkpt lat="43.85096" lon="12.6706767"><ele>334.0</ele><time>2026-04-12T08:18:31.028Z</time></trkpt><trkpt lat="43.8508433" lon="12.6707133"><ele>328.0</ele><time>2026-04-12T08:18:32.031Z</time></trkpt><trkpt lat="43.8507233" lon="12.670735"><ele>322.0</ele><time>2026-04-12T08:18:33.027Z</time></trkpt><trkpt lat="43.85061" lon="12.670745"><ele>316.0</ele><time>2026-04-12T08:18:34.029Z</time></trkpt><trkpt lat="43.8505" lon="12.670735"><ele>316.0</ele><time>2026-04-12T08:18:35.031Z</time></trkpt><trkpt lat="43.8504017" lon="12.6706967"><ele>316.0</ele><time>2026-04-12T08:18:36.03Z</time></trkpt><trkpt lat="43.850315" lon="12.6706317"><ele>316.0</ele><time>2026-04-12T08:18:37.028Z</time></trkpt><trkpt lat="43.8502317" lon="12.6705467"><ele>316.0</ele><time>2026-04-12T08:18:38.026Z</time></trkpt><trkpt lat="43.8501533" lon="12.6704367"><ele>316.0</ele><time>2026-04-12T08:18:39.027Z</time></trkpt><trkpt lat="43.8500783" lon="12.6703017"><ele>316.75</ele><time>2026-04-12T08:18:40.031Z</time></trkpt><trkpt lat="43.8500017" lon="12.6701633"><ele>317.5</ele><time>2026-04-12T08:18:41.029Z</time></trkpt><trkpt lat="43.84993" lon="12.670025"><ele>318.25</ele><time>2026-04-12T08:18:42.025Z</time></trkpt><trkpt lat="43.84986" lon="12.669905"><ele>319.0</ele><time>2026-04-12T08:18:43.029Z</time></trkpt><trkpt lat="43.8497933" lon="12.6697883"><ele>319.0</ele><time>2026-04-12T08:18:44.027Z</time></trkpt><trkpt lat="43.8497233" lon="12.669675"><ele>319.0</ele><time>2026-04-12T08:18:45.033Z</time></trkpt><trkpt lat="43.8496517" lon="12.6695583"><ele>319.0</ele><time>2026-04-12T08:18:46.028Z</time></trkpt><trkpt lat="43.849575" lon="12.6694483"><ele>319.0</ele><time>2026-04-12T08:18:47.025Z</time></trkpt><trkpt lat="43.84949" lon="12.66936"><ele>319.0</ele><time>2026-04-12T08:18:48.027Z</time></trkpt><trkpt lat="43.8494033" lon="12.6693"><ele>319.2</ele><time>2026-04-12T08:18:49.026Z</time></trkpt><trkpt lat="43.8493183" lon="12.669265"><ele>319.4</ele><time>2026-04-12T08:18:50.033Z</time></trkpt><trkpt lat="43.849225" lon="12.66924"><ele>319.6</ele><time>2026-04-12T08:18:51.025Z</time></trkpt><trkpt lat="43.84913" lon="12.6692067"><ele>319.8</ele><time>2026-04-12T08:18:52.027Z</time></trkpt><trkpt lat="43.8490383" lon="12.6691517"><ele>320.0</ele><time>2026-04-12T08:18:53.027Z</time></trkpt><trkpt lat="43.8489533" lon="12.6690717"><ele>320.0</ele><time>2026-04-12T08:18:54.029Z</time></trkpt><trkpt lat="43.8488817" lon="12.6689667"><ele>320.0</ele><time>2026-04-12T08:18:55.031Z</time></trkpt><trkpt lat="43.848815" lon="12.66885"><ele>320.0</ele><time>2026-04-12T08:18:56.032Z</time></trkpt><trkpt lat="43.8487417" lon="12.66874"><ele>320.0</ele><time>2026-04-12T08:18:57.028Z</time></trkpt><trkpt lat="43.84866" lon="12.668645"><ele>320.0</ele><time>2026-04-12T08:18:58.03Z</time></trkpt><trkpt lat="43.8485717" lon="12.6685617"><ele>321.25</ele><time>2026-04-12T08:18:59.028Z</time></trkpt><trkpt lat="43.8484833" lon="12.6684717"><ele>322.5</ele><time>2026-04-12T08:19:00.024Z</time></trkpt><trkpt lat="43.8483983" lon="12.6683583"><ele>323.75</ele><time>2026-04-12T08:19:01.029Z</time></trkpt><trkpt lat="43.8483333" lon="12.668225"><ele>325.0</ele><time>2026-04-12T08:19:02.027Z</time></trkpt><trkpt lat="43.848285" lon="12.6680867"><ele>325.0</ele><time>2026-04-12T08:19:03.033Z</time></trkpt><trkpt lat="43.8482483" lon="12.667945"><ele>325.0</ele><time>2026-04-12T08:19:04.028Z</time></trkpt><trkpt lat="43.8482083" lon="12.6678067"><ele>325.0</ele><time>2026-04-12T08:19:05.026Z</time></trkpt><trkpt lat="43.8481583" lon="12.66769"><ele>325.0</ele><time>2026-04-12T08:19:06.026Z</time></trkpt><trkpt lat="43.8481" lon="12.6675833"><ele>325.0</ele><time>2026-04-12T08:19:07.03Z</time></trkpt><trkpt lat="43.848025" lon="12.6674867"><ele>325.5</ele><time>2026-04-12T08:19:08.028Z</time></trkpt><trkpt lat="43.8479283" lon="12.6674167"><ele>326.0</ele><time>2026-04-12T08:19:09.034Z</time></trkpt><trkpt lat="43.8478167" lon="12.6673633"><ele>326.5</ele><time>2026-04-12T08:19:10.032Z</time></trkpt><trkpt lat="43.8477067" lon="12.6673167"><ele>327.0</ele><time>2026-04-12T08:19:11.028Z</time></trkpt><trkpt lat="43.847595" lon="12.6672833"><ele>327.0</ele><time>2026-04-12T08:19:12.03Z</time></trkpt><trkpt lat="43.847485" lon="12.6672467"><ele>327.0</ele><time>2026-04-12T08:19:13.026Z</time></trkpt><trkpt lat="43.8473667" lon="12.66721"><ele>327.0</ele><time>2026-04-12T08:19:14.025Z</time></trkpt><trkpt lat="43.84725" lon="12.66718"><ele>327.0</ele><time>2026-04-12T08:19:15.024Z</time></trkpt><trkpt lat="43.8471467" lon="12.6671483"><ele>327.0</ele><time>2026-04-12T08:19:16.033Z</time></trkpt><trkpt lat="43.84705" lon="12.6671067"><ele>327.0</ele><time>2026-04-12T08:19:17.025Z</time></trkpt><trkpt lat="43.8469583" lon="12.66705"><ele>327.0</ele><time>2026-04-12T08:19:18.026Z</time></trkpt><trkpt lat="43.8468667" lon="12.666985"><ele>327.0</ele><time>2026-04-12T08:19:19.027Z</time></trkpt><trkpt lat="43.846785" lon="12.66691"><ele>327.0</ele><time>2026-04-12T08:19:20.026Z</time></trkpt><trkpt lat="43.8467133" lon="12.6668183"><ele>327.20000000000005</ele><time>2026-04-12T08:19:21.028Z</time></trkpt><trkpt lat="43.8466567" lon="12.6666933"><ele>327.4</ele><time>2026-04-12T08:19:22.03Z</time></trkpt><trkpt lat="43.8466217" lon="12.6665483"><ele>327.6</ele><time>2026-04-12T08:19:23.026Z</time></trkpt><trkpt lat="43.8466" lon="12.6664"><ele>327.79999999999995</ele><time>2026-04-12T08:19:24.028Z</time></trkpt><trkpt lat="43.8465817" lon="12.6662583"><ele>328.0</ele><time>2026-04-12T08:19:25.029Z</time></trkpt><trkpt lat="43.846545" lon="12.666135"><ele>324.25</ele><time>2026-04-12T08:19:26.027Z</time></trkpt><trkpt lat="43.8464833" lon="12.6660183"><ele>320.5</ele><time>2026-04-12T08:19:27.031Z</time></trkpt><trkpt lat="43.8463917" lon="12.6659133"><ele>316.75</ele><time>2026-04-12T08:19:28.029Z</time></trkpt><trkpt lat="43.84629" lon="12.6658083"><ele>313.0</ele><time>2026-04-12T08:19:29.024Z</time></trkpt><trkpt lat="43.8461817" lon="12.6657183"><ele>313.0</ele><time>2026-04-12T08:19:30.028Z</time></trkpt><trkpt lat="43.84608" lon="12.6656233"><ele>313.0</ele><time>2026-04-12T08:19:31.024Z</time></trkpt><trkpt lat="43.84599" lon="12.6655033"><ele>313.0</ele><time>2026-04-12T08:19:32.028Z</time></trkpt><trkpt lat="43.8459117" lon="12.6653633"><ele>313.0</ele><time>2026-04-12T08:19:33.027Z</time></trkpt><trkpt lat="43.8458483" lon="12.6652"><ele>314.5</ele><time>2026-04-12T08:19:34.03Z</time></trkpt><trkpt lat="43.8458" lon="12.665035"><ele>316.0</ele><time>2026-04-12T08:19:35.03Z</time></trkpt><trkpt lat="43.8457617" lon="12.66488"><ele>317.5</ele><time>2026-04-12T08:19:36.025Z</time></trkpt><trkpt lat="43.84572" lon="12.66474"><ele>319.0</ele><time>2026-04-12T08:19:37.028Z</time></trkpt><trkpt lat="43.8456617" lon="12.6646383"><ele>319.0</ele><time>2026-04-12T08:19:38.027Z</time></trkpt><trkpt lat="43.8455967" lon="12.6645717"><ele>319.0</ele><time>2026-04-12T08:19:39.027Z</time></trkpt><trkpt lat="43.8455233" lon="12.6645317"><ele>319.0</ele><time>2026-04-12T08:19:40.03Z</time></trkpt><trkpt lat="43.8454417" lon="12.6645267"><ele>319.0</ele><time>2026-04-12T08:19:41.027Z</time></trkpt><trkpt lat="43.8453533" lon="12.6645533"><ele>319.0</ele><time>2026-04-12T08:19:42.027Z</time></trkpt><trkpt lat="43.8452667" lon="12.664625"><ele>319.0</ele><time>2026-04-12T08:19:43.03Z</time></trkpt><trkpt lat="43.8451783" lon="12.6647367"><ele>319.4</ele><time>2026-04-12T08:19:44.032Z</time></trkpt><trkpt lat="43.8450983" lon="12.66483"><ele>319.79999999999995</ele><time>2026-04-12T08:19:45.033Z</time></trkpt><trkpt lat="43.8450083" lon="12.6648983"><ele>320.20000000000005</ele><time>2026-04-12T08:19:46.033Z</time></trkpt><trkpt lat="43.844915" lon="12.6649383"><ele>320.6</ele><time>2026-04-12T08:19:47.029Z</time></trkpt><trkpt lat="43.8448167" lon="12.66493"><ele>321.0</ele><time>2026-04-12T08:19:48.027Z</time></trkpt><trkpt lat="43.844725" lon="12.6648917"><ele>321.0</ele><time>2026-04-12T08:19:49.031Z</time></trkpt><trkpt lat="43.8446367" lon="12.664855"><ele>321.0</ele><time>2026-04-12T08:19:50.033Z</time></trkpt><trkpt lat="43.8445517" lon="12.6648367"><ele>321.0</ele><time>2026-04-12T08:19:51.031Z</time></trkpt><trkpt lat="43.8444667" lon="12.66484"><ele>321.0</ele><time>2026-04-12T08:19:52.03Z</time></trkpt><trkpt lat="43.8443917" lon="12.6649133"><ele>321.0</ele><time>2026-04-12T08:19:53.028Z</time></trkpt><trkpt lat="43.84433" lon="12.665005"><ele>321.0</ele><time>2026-04-12T08:19:54.032Z</time></trkpt><trkpt lat="43.844285" lon="12.665145"><ele>319.25</ele><time>2026-04-12T08:19:55.032Z</time></trkpt><trkpt lat="43.8442433" lon="12.6652983"><ele>317.5</ele><time>2026-04-12T08:19:56.033Z</time></trkpt><trkpt lat="43.844185" lon="12.6654483"><ele>315.75</ele><time>2026-04-12T08:19:57.027Z</time></trkpt><trkpt lat="43.844115" lon="12.6655867"><ele>314.0</ele><time>2026-04-12T08:19:58.026Z</time></trkpt><trkpt lat="43.8440433" lon="12.66572"><ele>314.0</ele><time>2026-04-12T08:19:59.03Z</time></trkpt><trkpt lat="43.8439783" lon="12.6658517"><ele>314.0</ele><time>2026-04-12T08:20:00.028Z</time></trkpt><trkpt lat="43.843915" lon="12.6659783"><ele>314.0</ele><time>2026-04-12T08:20:01.031Z</time></trkpt><trkpt lat="43.8438417" lon="12.666095"><ele>314.0</ele><time>2026-04-12T08:20:02.029Z</time></trkpt><trkpt lat="43.84376" lon="12.6661917"><ele>314.0</ele><time>2026-04-12T08:20:03.029Z</time></trkpt><trkpt lat="43.8436667" lon="12.6662683"><ele>312.0</ele><time>2026-04-12T08:20:04.028Z</time></trkpt><trkpt lat="43.84357" lon="12.666335"><ele>310.0</ele><time>2026-04-12T08:20:05.026Z</time></trkpt><trkpt lat="43.8434817" lon="12.6664017"><ele>308.0</ele><time>2026-04-12T08:20:06.028Z</time></trkpt><trkpt lat="43.8434033" lon="12.6664817"><ele>306.0</ele><time>2026-04-12T08:20:07.026Z</time></trkpt><trkpt lat="43.8433417" lon="12.66659"><ele>304.0</ele><time>2026-04-12T08:20:08.031Z</time></trkpt><trkpt lat="43.8432883" lon="12.6667183"><ele>304.0</ele><time>2026-04-12T08:20:09.025Z</time></trkpt><trkpt lat="43.84323" lon="12.6668567"><ele>304.0</ele><time>2026-04-12T08:20:10.029Z</time></trkpt><trkpt lat="43.843165" lon="12.666995"><ele>304.0</ele><time>2026-04-12T08:20:11.026Z</time></trkpt><trkpt lat="43.8430817" lon="12.6671117"><ele>304.0</ele><time>2026-04-12T08:20:12.029Z</time></trkpt><trkpt lat="43.8429833" lon="12.6671967"><ele>304.5</ele><time>2026-04-12T08:20:13.034Z</time></trkpt><trkpt lat="43.8428767" lon="12.6672483"><ele>305.0</ele><time>2026-04-12T08:20:14.033Z</time></trkpt><trkpt lat="43.8427533" lon="12.667265"><ele>305.5</ele><time>2026-04-12T08:20:15.031Z</time></trkpt><trkpt lat="43.8426067" lon="12.667235"><ele>306.0</ele><time>2026-04-12T08:20:16.028Z</time></trkpt><trkpt lat="43.8424517" lon="12.667195"><ele>306.0</ele><time>2026-04-12T08:20:17.03Z</time></trkpt><trkpt lat="43.8423033" lon="12.6671667"><ele>306.0</ele><time>2026-04-12T08:20:18.025Z</time></trkpt><trkpt lat="43.8421683" lon="12.6671617"><ele>306.0</ele><time>2026-04-12T08:20:19.028Z</time></trkpt><trkpt lat="43.842045" lon="12.66718"><ele>306.0</ele><time>2026-04-12T08:20:20.03Z</time></trkpt><trkpt lat="43.8419383" lon="12.6672217"><ele>306.0</ele><time>2026-04-12T08:20:21.024Z</time></trkpt><trkpt lat="43.8418383" lon="12.6672833"><ele>306.0</ele><time>2026-04-12T08:20:22.023Z</time></trkpt><trkpt lat="43.841755" lon="12.6673733"><ele>306.0</ele><time>2026-04-12T08:20:23.023Z</time></trkpt><trkpt lat="43.84168" lon="12.6674883"><ele>306.0</ele><time>2026-04-12T08:20:24.024Z</time></trkpt><trkpt lat="43.8416117" lon="12.6676217"><ele>306.0</ele><time>2026-04-12T08:20:25.025Z</time></trkpt><trkpt lat="43.8415417" lon="12.667755"><ele>305.0</ele><time>2026-04-12T08:20:26.027Z</time></trkpt><trkpt lat="43.8414583" lon="12.6678717"><ele>304.0</ele><time>2026-04-12T08:20:27.025Z</time></trkpt><trkpt lat="43.8413617" lon="12.6679717"><ele>303.0</ele><time>2026-04-12T08:20:28.027Z</time></trkpt><trkpt lat="43.8412583" lon="12.6680583"><ele>302.0</ele><time>2026-04-12T08:20:29.023Z</time></trkpt><trkpt lat="43.8411583" lon="12.66814"><ele>302.0</ele><time>2026-04-12T08:20:30.029Z</time></trkpt><trkpt lat="43.841055" lon="12.6682167"><ele>302.0</ele><time>2026-04-12T08:20:31.026Z</time></trkpt><trkpt lat="43.8409317" lon="12.6682667"><ele>302.0</ele><time>2026-04-12T08:20:32.025Z</time></trkpt><trkpt lat="43.8407967" lon="12.6683"><ele>302.0</ele><time>2026-04-12T08:20:33.025Z</time></trkpt><trkpt lat="43.84066" lon="12.66832"><ele>297.75</ele><time>2026-04-12T08:20:34.031Z</time></trkpt><trkpt lat="43.8405317" lon="12.668335"><ele>293.5</ele><time>2026-04-12T08:20:35.026Z</time></trkpt><trkpt lat="43.8404133" lon="12.6683733"><ele>289.25</ele><time>2026-04-12T08:20:36.027Z</time></trkpt><trkpt lat="43.840295" lon="12.6684217"><ele>285.0</ele><time>2026-04-12T08:20:37.027Z</time></trkpt><trkpt lat="43.8401783" lon="12.6684467"><ele>283.75</ele><time>2026-04-12T08:20:38.025Z</time></trkpt><trkpt lat="43.8400533" lon="12.668445"><ele>282.5</ele><time>2026-04-12T08:20:39.03Z</time></trkpt><trkpt lat="43.8399217" lon="12.6684283"><ele>281.25</ele><time>2026-04-12T08:20:40.028Z</time></trkpt><trkpt lat="43.8397883" lon="12.6683883"><ele>280.0</ele><time>2026-04-12T08:20:41.028Z</time></trkpt><trkpt lat="43.8396533" lon="12.66834"><ele>280.0</ele><time>2026-04-12T08:20:42.029Z</time></trkpt><trkpt lat="43.8395167" lon="12.6682917"><ele>280.0</ele><time>2026-04-12T08:20:43.027Z</time></trkpt><trkpt lat="43.8393817" lon="12.668245"><ele>280.0</ele><time>2026-04-12T08:20:44.028Z</time></trkpt><trkpt lat="43.8392517" lon="12.6682017"><ele>280.0</ele><time>2026-04-12T08:20:45.028Z</time></trkpt><trkpt lat="43.8391317" lon="12.6681617"><ele>279.6</ele><time>2026-04-12T08:20:46.027Z</time></trkpt><trkpt lat="43.8390183" lon="12.6681233"><ele>279.2</ele><time>2026-04-12T08:20:47.029Z</time></trkpt><trkpt lat="43.8389083" lon="12.6680867"><ele>278.8</ele><time>2026-04-12T08:20:48.028Z</time></trkpt><trkpt lat="43.8388" lon="12.6680583"><ele>278.4</ele><time>2026-04-12T08:20:49.026Z</time></trkpt><trkpt lat="43.838695" lon="12.6680583"><ele>278.0</ele><time>2026-04-12T08:20:50.026Z</time></trkpt><trkpt lat="43.8386" lon="12.6681"><ele>278.0</ele><time>2026-04-12T08:20:51.03Z</time></trkpt><trkpt lat="43.8385133" lon="12.6681867"><ele>278.0</ele><time>2026-04-12T08:20:52.033Z</time></trkpt><trkpt lat="43.83843" lon="12.6683167"><ele>278.0</ele><time>2026-04-12T08:20:53.032Z</time></trkpt><trkpt lat="43.8383433" lon="12.6684883"><ele>278.0</ele><time>2026-04-12T08:20:54.027Z</time></trkpt><trkpt lat="43.83824" lon="12.668685"><ele>277.33333333333337</ele><time>2026-04-12T08:20:55.033Z</time></trkpt><trkpt lat="43.8381267" lon="12.66887"><ele>276.6666666666667</ele><time>2026-04-12T08:20:56.028Z</time></trkpt><trkpt lat="43.8380183" lon="12.66904"><ele>276.0</ele><time>2026-04-12T08:20:57.029Z</time></trkpt><trkpt lat="43.8379117" lon="12.669195"><ele>276.0</ele><time>2026-04-12T08:20:58.03Z</time></trkpt><trkpt lat="43.83781" lon="12.66935"><ele>276.0</ele><time>2026-04-12T08:20:59.029Z</time></trkpt><trkpt lat="43.837715" lon="12.669495"><ele>276.0</ele><time>2026-04-12T08:21:00.028Z</time></trkpt><trkpt lat="43.8376217" lon="12.6696417"><ele>276.0</ele><time>2026-04-12T08:21:01.031Z</time></trkpt><trkpt lat="43.8375267" lon="12.6697883"><ele>273.5</ele><time>2026-04-12T08:21:02.029Z</time></trkpt><trkpt lat="43.8374383" lon="12.66994"><ele>271.0</ele><time>2026-04-12T08:21:03.027Z</time></trkpt><trkpt lat="43.8373533" lon="12.670085"><ele>268.5</ele><time>2026-04-12T08:21:04.029Z</time></trkpt><trkpt lat="43.8372733" lon="12.6702167"><ele>266.0</ele><time>2026-04-12T08:21:05.028Z</time></trkpt><trkpt lat="43.8371933" lon="12.67032"><ele>266.0</ele><time>2026-04-12T08:21:06.027Z</time></trkpt><trkpt lat="43.837095" lon="12.6703867"><ele>266.0</ele><time>2026-04-12T08:21:07.03Z</time></trkpt><trkpt lat="43.8369783" lon="12.6704183"><ele>266.0</ele><time>2026-04-12T08:21:08.028Z</time></trkpt><trkpt lat="43.8368517" lon="12.670405"><ele>266.0</ele><time>2026-04-12T08:21:09.028Z</time></trkpt><trkpt lat="43.8367167" lon="12.6703717"><ele>264.5</ele><time>2026-04-12T08:21:10.033Z</time></trkpt><trkpt lat="43.836575" lon="12.6703533"><ele>263.0</ele><time>2026-04-12T08:21:11.028Z</time></trkpt><trkpt lat="43.83644" lon="12.6703633"><ele>261.5</ele><time>2026-04-12T08:21:12.027Z</time></trkpt><trkpt lat="43.8363117" lon="12.6703983"><ele>260.0</ele><time>2026-04-12T08:21:13.026Z</time></trkpt><trkpt lat="43.8361917" lon="12.6704367"><ele>260.0</ele><time>2026-04-12T08:21:14.032Z</time></trkpt><trkpt lat="43.836075" lon="12.6704533"><ele>260.0</ele><time>2026-04-12T08:21:15.03Z</time></trkpt><trkpt lat="43.8359467" lon="12.6704417"><ele>260.0</ele><time>2026-04-12T08:21:16.027Z</time></trkpt><trkpt lat="43.8358183" lon="12.6703767"><ele>260.0</ele><time>2026-04-12T08:21:17.027Z</time></trkpt><trkpt lat="43.8356983" lon="12.67028"><ele>256.0</ele><time>2026-04-12T08:21:18.024Z</time></trkpt><trkpt lat="43.8355933" lon="12.670165"><ele>252.0</ele><time>2026-04-12T08:21:19.028Z</time></trkpt><trkpt lat="43.8354917" lon="12.6700533"><ele>248.0</ele><time>2026-04-12T08:21:20.031Z</time></trkpt><trkpt lat="43.8353917" lon="12.6699483"><ele>244.0</ele><time>2026-04-12T08:21:21.029Z</time></trkpt><trkpt lat="43.8352883" lon="12.669855"><ele>244.0</ele><time>2026-04-12T08:21:22.026Z</time></trkpt><trkpt lat="43.8351817" lon="12.6697783"><ele>244.0</ele><time>2026-04-12T08:21:23.03Z</time></trkpt><trkpt lat="43.8350733" lon="12.6697233"><ele>244.0</ele><time>2026-04-12T08:21:24.025Z</time></trkpt><trkpt lat="43.8349617" lon="12.6697083"><ele>244.0</ele><time>2026-04-12T08:21:25.029Z</time></trkpt><trkpt lat="43.834845" lon="12.6697333"><ele>243.5</ele><time>2026-04-12T08:21:26.028Z</time></trkpt><trkpt lat="43.8347367" lon="12.669805"><ele>243.0</ele><time>2026-04-12T08:21:27.029Z</time></trkpt><trkpt lat="43.8346367" lon="12.6698883"><ele>242.5</ele><time>2026-04-12T08:21:28.027Z</time></trkpt><trkpt lat="43.83453" lon="12.669955"><ele>242.0</ele><time>2026-04-12T08:21:29.028Z</time></trkpt><trkpt lat="43.8344083" lon="12.6699817"><ele>240.0</ele><time>2026-04-12T08:21:30.029Z</time></trkpt><trkpt lat="43.8342783" lon="12.669965"><ele>238.0</ele><time>2026-04-12T08:21:31.028Z</time></trkpt><trkpt lat="43.83415" lon="12.66993"><ele>236.0</ele><time>2026-04-12T08:21:32.027Z</time></trkpt><trkpt lat="43.834035" lon="12.6698933"><ele>234.0</ele><time>2026-04-12T08:21:33.026Z</time></trkpt><trkpt lat="43.8339333" lon="12.6698617"><ele>234.0</ele><time>2026-04-12T08:21:34.031Z</time></trkpt><trkpt lat="43.833845" lon="12.669835"><ele>234.0</ele><time>2026-04-12T08:21:35.026Z</time></trkpt><trkpt lat="43.8337717" lon="12.6698233"><ele>234.0</ele><time>2026-04-12T08:21:36.029Z</time></trkpt><trkpt lat="43.8337067" lon="12.669835"><ele>234.0</ele><time>2026-04-12T08:21:37.03Z</time></trkpt><trkpt lat="43.8336167" lon="12.669935"><ele>234.0</ele><time>2026-04-12T08:21:39.031Z</time></trkpt><trkpt lat="43.8335733" lon="12.6700067"><ele>234.0</ele><time>2026-04-12T08:21:40.035Z</time></trkpt><trkpt lat="43.8335233" lon="12.67008"><ele>233.33333333333334</ele><time>2026-04-12T08:21:41.028Z</time></trkpt><trkpt lat="43.8334683" lon="12.67015"><ele>232.66666666666669</ele><time>2026-04-12T08:21:42.028Z</time></trkpt><trkpt lat="43.8334033" lon="12.67022"><ele>232.0</ele><time>2026-04-12T08:21:43.028Z</time></trkpt><trkpt lat="43.833335" lon="12.670305"><ele>231.33333333333334</ele><time>2026-04-12T08:21:44.027Z</time></trkpt><trkpt lat="43.833265" lon="12.6704033"><ele>230.66666666666669</ele><time>2026-04-12T08:21:45.032Z</time></trkpt><trkpt lat="43.8331933" lon="12.6704983"><ele>230.0</ele><time>2026-04-12T08:21:46.027Z</time></trkpt><trkpt lat="43.8331133" lon="12.6706017"><ele>230.0</ele><time>2026-04-12T08:21:47.026Z</time></trkpt><trkpt lat="43.8330283" lon="12.6707"><ele>230.0</ele><time>2026-04-12T08:21:48.029Z</time></trkpt><trkpt lat="43.832945" lon="12.67079"><ele>230.0</ele><time>2026-04-12T08:21:49.03Z</time></trkpt><trkpt lat="43.8328767" lon="12.6708783"><ele>230.0</ele><time>2026-04-12T08:21:50.032Z</time></trkpt><trkpt lat="43.8328217" lon="12.6709783"><ele>230.0</ele><time>2026-04-12T08:21:51.029Z</time></trkpt><trkpt lat="43.832775" lon="12.6710917"><ele>230.6</ele><time>2026-04-12T08:21:52.034Z</time></trkpt><trkpt lat="43.8327333" lon="12.671215"><ele>231.2</ele><time>2026-04-12T08:21:53.028Z</time></trkpt><trkpt lat="43.8326917" lon="12.6713383"><ele>231.8</ele><time>2026-04-12T08:21:54.032Z</time></trkpt><trkpt lat="43.8326533" lon="12.6714517"><ele>232.4</ele><time>2026-04-12T08:21:55.026Z</time></trkpt><trkpt lat="43.8326167" lon="12.67156"><ele>233.0</ele><time>2026-04-12T08:21:56.027Z</time></trkpt><trkpt lat="43.8325833" lon="12.6716633"><ele>233.0</ele><time>2026-04-12T08:21:57.029Z</time></trkpt><trkpt lat="43.8325567" lon="12.6717567"><ele>233.0</ele><time>2026-04-12T08:21:58.03Z</time></trkpt><trkpt lat="43.8325367" lon="12.6718533"><ele>233.0</ele><time>2026-04-12T08:21:59.032Z</time></trkpt><trkpt lat="43.8325317" lon="12.671945"><ele>233.0</ele><time>2026-04-12T08:22:00.028Z</time></trkpt><trkpt lat="43.83254" lon="12.6720367"><ele>233.0</ele><time>2026-04-12T08:22:01.033Z</time></trkpt><trkpt lat="43.8325667" lon="12.6721267"><ele>233.0</ele><time>2026-04-12T08:22:02.031Z</time></trkpt><trkpt lat="43.832605" lon="12.67222"><ele>233.0</ele><time>2026-04-12T08:22:03.027Z</time></trkpt><trkpt lat="43.8326567" lon="12.6723283"><ele>230.16666666666669</ele><time>2026-04-12T08:22:04.035Z</time></trkpt><trkpt lat="43.8327117" lon="12.6724383"><ele>227.33333333333334</ele><time>2026-04-12T08:22:05.025Z</time></trkpt><trkpt lat="43.8327583" lon="12.6725483"><ele>224.5</ele><time>2026-04-12T08:22:06.027Z</time></trkpt><trkpt lat="43.8328" lon="12.672655"><ele>221.66666666666669</ele><time>2026-04-12T08:22:07.029Z</time></trkpt><trkpt lat="43.8328383" lon="12.6727483"><ele>218.83333333333334</ele><time>2026-04-12T08:22:08.03Z</time></trkpt><trkpt lat="43.8328867" lon="12.67283"><ele>216.0</ele><time>2026-04-12T08:22:09.031Z</time></trkpt><trkpt lat="43.8329433" lon="12.6728967"><ele>215.0</ele><time>2026-04-12T08:22:10.029Z</time></trkpt><trkpt lat="43.8330083" lon="12.6729617"><ele>214.0</ele><time>2026-04-12T08:22:11.03Z</time></trkpt><trkpt lat="43.8330717" lon="12.6730317"><ele>213.0</ele><time>2026-04-12T08:22:12.03Z</time></trkpt><trkpt lat="43.8331283" lon="12.6731133"><ele>212.0</ele><time>2026-04-12T08:22:13.03Z</time></trkpt><trkpt lat="43.8331817" lon="12.6732067"><ele>211.0</ele><time>2026-04-12T08:22:14.029Z</time></trkpt><trkpt lat="43.8332317" lon="12.6733033"><ele>210.0</ele><time>2026-04-12T08:22:15.033Z</time></trkpt><trkpt lat="43.8332833" lon="12.6734017"><ele>210.0</ele><time>2026-04-12T08:22:16.03Z</time></trkpt><trkpt lat="43.833335" lon="12.6734967"><ele>210.0</ele><time>2026-04-12T08:22:17.027Z</time></trkpt><trkpt lat="43.8333867" lon="12.67359"><ele>210.0</ele><time>2026-04-12T08:22:18.029Z</time></trkpt><trkpt lat="43.8334333" lon="12.6736867"><ele>210.0</ele><time>2026-04-12T08:22:19.029Z</time></trkpt><trkpt lat="43.8334783" lon="12.6737733"><ele>210.0</ele><time>2026-04-12T08:22:20.03Z</time></trkpt><trkpt lat="43.8335217" lon="12.6738533"><ele>210.0</ele><time>2026-04-12T08:22:21.026Z</time></trkpt><trkpt lat="43.833565" lon="12.673935"><ele>205.5</ele><time>2026-04-12T08:22:22.028Z</time></trkpt><trkpt lat="43.8336033" lon="12.6740183"><ele>201.0</ele><time>2026-04-12T08:22:23.028Z</time></trkpt><trkpt lat="43.8336283" lon="12.6741133"><ele>196.5</ele><time>2026-04-12T08:22:24.028Z</time></trkpt><trkpt lat="43.8336367" lon="12.6742167"><ele>192.0</ele><time>2026-04-12T08:22:25.029Z</time></trkpt><trkpt lat="43.8336183" lon="12.6743383"><ele>187.5</ele><time>2026-04-12T08:22:26.028Z</time></trkpt><trkpt lat="43.8335883" lon="12.6744733"><ele>183.0</ele><time>2026-04-12T08:22:27.026Z</time></trkpt><trkpt lat="43.833545" lon="12.6746233"><ele>183.4</ele><time>2026-04-12T08:22:28.028Z</time></trkpt><trkpt lat="43.8335017" lon="12.674775"><ele>183.8</ele><time>2026-04-12T08:22:29.027Z</time></trkpt><trkpt lat="43.8334617" lon="12.67492"><ele>184.2</ele><time>2026-04-12T08:22:30.031Z</time></trkpt><trkpt lat="43.833415" lon="12.6750567"><ele>184.6</ele><time>2026-04-12T08:22:31.027Z</time></trkpt><trkpt lat="43.8333683" lon="12.6751867"><ele>185.0</ele><time>2026-04-12T08:22:32.027Z</time></trkpt><trkpt lat="43.83332" lon="12.6753"><ele>185.0</ele><time>2026-04-12T08:22:33.029Z</time></trkpt><trkpt lat="43.8332667" lon="12.6753933"><ele>185.0</ele><time>2026-04-12T08:22:34.034Z</time></trkpt><trkpt lat="43.8332117" lon="12.67547"><ele>185.0</ele><time>2026-04-12T08:22:35.027Z</time></trkpt><trkpt lat="43.8331583" lon="12.67554"><ele>185.0</ele><time>2026-04-12T08:22:36.029Z</time></trkpt><trkpt lat="43.8331067" lon="12.6756083"><ele>185.0</ele><time>2026-04-12T08:22:37.029Z</time></trkpt><trkpt lat="43.83306" lon="12.675675"><ele>185.0</ele><time>2026-04-12T08:22:38.027Z</time></trkpt><trkpt lat="43.832985" lon="12.6758083"><ele>185.0</ele><time>2026-04-12T08:22:40.03Z</time></trkpt><trkpt lat="43.8329317" lon="12.6759617"><ele>185.0</ele><time>2026-04-12T08:22:42.027Z</time></trkpt><trkpt lat="43.8329167" lon="12.6760483"><ele>185.0</ele><time>2026-04-12T08:22:43.028Z</time></trkpt><trkpt lat="43.8329117" lon="12.6761433"><ele>185.0</ele><time>2026-04-12T08:22:44.032Z</time></trkpt><trkpt lat="43.8329167" lon="12.6762383"><ele>185.0</ele><time>2026-04-12T08:22:45.029Z</time></trkpt><trkpt lat="43.8329217" lon="12.6763267"><ele>185.0</ele><time>2026-04-12T08:22:46.029Z</time></trkpt><trkpt lat="43.832915" lon="12.6764717"><ele>183.2</ele><time>2026-04-12T08:22:48.03Z</time></trkpt><trkpt lat="43.8328783" lon="12.6765983"><ele>181.4</ele><time>2026-04-12T08:22:50.031Z</time></trkpt><trkpt lat="43.83282" lon="12.6767267"><ele>179.60000000000002</ele><time>2026-04-12T08:22:52.031Z</time></trkpt><trkpt lat="43.83277" lon="12.6768533"><ele>177.8</ele><time>2026-04-12T08:22:54.026Z</time></trkpt><trkpt lat="43.8327383" lon="12.67698"><ele>176.0</ele><time>2026-04-12T08:22:56.026Z</time></trkpt><trkpt lat="43.8327167" lon="12.6771267"><ele>174.83333333333331</ele><time>2026-04-12T08:22:58.029Z</time></trkpt><trkpt lat="43.8326967" lon="12.6772983"><ele>173.66666666666666</ele><time>2026-04-12T08:23:00.031Z</time></trkpt><trkpt lat="43.8326767" lon="12.677395"><ele>172.5</ele><time>2026-04-12T08:23:01.025Z</time></trkpt><trkpt lat="43.83266" lon="12.6774983"><ele>171.33333333333334</ele><time>2026-04-12T08:23:02.029Z</time></trkpt><trkpt lat="43.832645" lon="12.6776133"><ele>170.16666666666669</ele><time>2026-04-12T08:23:03.026Z</time></trkpt><trkpt lat="43.832625" lon="12.67772"><ele>169.0</ele><time>2026-04-12T08:23:04.026Z</time></trkpt><trkpt lat="43.832595" lon="12.677815"><ele>164.39999999999998</ele><time>2026-04-12T08:23:05.025Z</time></trkpt><trkpt lat="43.8325567" lon="12.6778917"><ele>159.79999999999998</ele><time>2026-04-12T08:23:06.025Z</time></trkpt><trkpt lat="43.832475" lon="12.6779767"><ele>155.2</ele><time>2026-04-12T08:23:08.027Z</time></trkpt><trkpt lat="43.83241" lon="12.67808"><ele>150.6</ele><time>2026-04-12T08:23:10.027Z</time></trkpt><trkpt lat="43.832405" lon="12.6782133"><ele>146.0</ele><time>2026-04-12T08:23:12.028Z</time></trkpt><trkpt lat="43.8324617" lon="12.6783617"><ele>146.0</ele><time>2026-04-12T08:23:14.026Z</time></trkpt><trkpt lat="43.8325083" lon="12.678435"><ele>146.0</ele><time>2026-04-12T08:23:15.029Z</time></trkpt><trkpt lat="43.8325583" lon="12.6784933"><ele>146.0</ele><time>2026-04-12T08:23:16.031Z</time></trkpt><trkpt lat="43.832615" lon="12.6785367"><ele>146.0</ele><time>2026-04-12T08:23:17.029Z</time></trkpt><trkpt lat="43.8327267" lon="12.678575"><ele>146.0</ele><time>2026-04-12T08:23:19.034Z</time></trkpt><trkpt lat="43.832845" lon="12.67859"><ele>146.0</ele><time>2026-04-12T08:23:21.032Z</time></trkpt><trkpt lat="43.8329083" lon="12.678595"><ele>141.8</ele><time>2026-04-12T08:23:22.029Z</time></trkpt><trkpt lat="43.8330117" lon="12.678625"><ele>137.6</ele><time>2026-04-12T08:23:24.026Z</time></trkpt><trkpt lat="43.8330717" lon="12.6787133"><ele>133.4</ele><time>2026-04-12T08:23:26.027Z</time></trkpt><trkpt lat="43.8330683" lon="12.6788717"><ele>129.2</ele><time>2026-04-12T08:24:13.027Z</time></trkpt><trkpt lat="43.8330083" lon="12.67898"><ele>125.0</ele><time>2026-04-12T08:24:16.039Z</time></trkpt><trkpt lat="43.8329117" lon="12.6790417"><ele>125.0</ele><time>2026-04-12T08:24:18.025Z</time></trkpt><trkpt lat="43.8328083" lon="12.6790833"><ele>125.0</ele><time>2026-04-12T08:24:20.027Z</time></trkpt><trkpt lat="43.8326933" lon="12.6790933"><ele>125.0</ele><time>2026-04-12T08:24:22.029Z</time></trkpt><trkpt lat="43.8325733" lon="12.6791"><ele>125.0</ele><time>2026-04-12T08:24:24.027Z</time></trkpt><trkpt lat="43.8324667" lon="12.6790917"><ele>124.2</ele><time>2026-04-12T08:24:26.025Z</time></trkpt><trkpt lat="43.8323533" lon="12.6790367"><ele>123.4</ele><time>2026-04-12T08:24:28.029Z</time></trkpt><trkpt lat="43.8322567" lon="12.678955"><ele>122.6</ele><time>2026-04-12T08:24:30.026Z</time></trkpt><trkpt lat="43.8321633" lon="12.678865"><ele>121.8</ele><time>2026-04-12T08:24:32.028Z</time></trkpt><trkpt lat="43.832105" lon="12.6788133"><ele>121.0</ele><time>2026-04-12T08:24:33.028Z</time></trkpt><trkpt lat="43.8320317" lon="12.6787617"><ele>121.00000000000001</ele><time>2026-04-12T08:24:34.03Z</time></trkpt><trkpt lat="43.831965" lon="12.678705"><ele>121.0</ele><time>2026-04-12T08:24:35.024Z</time></trkpt><trkpt lat="43.8318933" lon="12.678655"><ele>121.0</ele><time>2026-04-12T08:24:36.029Z</time></trkpt><trkpt lat="43.83182" lon="12.678605"><ele>121.0</ele><time>2026-04-12T08:24:37.026Z</time></trkpt><trkpt lat="43.8317417" lon="12.6785667"><ele>121.00000000000001</ele><time>2026-04-12T08:24:38.025Z</time></trkpt><trkpt lat="43.8316533" lon="12.6785333"><ele>121.0</ele><time>2026-04-12T08:24:39.028Z</time></trkpt><trkpt lat="43.8315683" lon="12.6785"><ele>120.83333333333334</ele><time>2026-04-12T08:24:40.027Z</time></trkpt><trkpt lat="43.831485" lon="12.6784733"><ele>120.66666666666667</ele><time>2026-04-12T08:24:41.029Z</time></trkpt><trkpt lat="43.8314067" lon="12.67845"><ele>120.5</ele><time>2026-04-12T08:24:42.028Z</time></trkpt><trkpt lat="43.8313333" lon="12.6784317"><ele>120.33333333333334</ele><time>2026-04-12T08:24:43.031Z</time></trkpt><trkpt lat="43.8312217" lon="12.67842"><ele>120.16666666666667</ele><time>2026-04-12T08:24:45.031Z</time></trkpt><trkpt lat="43.83113" lon="12.678425"><ele>120.0</ele><time>2026-04-12T08:24:47.028Z</time></trkpt><trkpt lat="43.8310383" lon="12.6784417"><ele>117.33333333333333</ele><time>2026-04-12T08:24:49.032Z</time></trkpt><trkpt lat="43.8309667" lon="12.6784583"><ele>114.66666666666666</ele><time>2026-04-12T08:24:51.031Z</time></trkpt><trkpt lat="43.8308917" lon="12.6784817"><ele>112.0</ele><time>2026-04-12T08:24:53.029Z</time></trkpt><trkpt lat="43.8308083" lon="12.6785067"><ele>109.33333333333333</ele><time>2026-04-12T08:24:55.027Z</time></trkpt><trkpt lat="43.8306867" lon="12.6785483"><ele>106.66666666666666</ele><time>2026-04-12T08:24:57.029Z</time></trkpt><trkpt lat="43.8306217" lon="12.6785667"><ele>104.0</ele><time>2026-04-12T08:24:58.026Z</time></trkpt><trkpt lat="43.8305017" lon="12.6785767"><ele>104.0</ele><time>2026-04-12T08:25:00.028Z</time></trkpt><trkpt lat="43.8304017" lon="12.6785417"><ele>104.0</ele><time>2026-04-12T08:25:02.031Z</time></trkpt><trkpt lat="43.8303067" lon="12.67851"><ele>104.0</ele><time>2026-04-12T08:25:04.028Z</time></trkpt><trkpt lat="43.8301983" lon="12.6784767"><ele>104.0</ele><time>2026-04-12T08:25:06.026Z</time></trkpt><trkpt lat="43.8301117" lon="12.6784717"><ele>104.0</ele><time>2026-04-12T08:25:08.027Z</time></trkpt><trkpt lat="43.8300267" lon="12.6785283"><ele>100.0</ele><time>2026-04-12T08:25:10.033Z</time></trkpt><trkpt lat="43.8299667" lon="12.6786183"><ele>96.0</ele><time>2026-04-12T08:25:11.029Z</time></trkpt><trkpt lat="43.829895" lon="12.6787333"><ele>92.0</ele><time>2026-04-12T08:25:12.031Z</time></trkpt><trkpt lat="43.8298067" lon="12.67889"><ele>88.0</ele><time>2026-04-12T08:25:13.029Z</time></trkpt><trkpt lat="43.8297317" lon="12.6790433"><ele>88.0</ele><time>2026-04-12T08:25:14.029Z</time></trkpt><trkpt lat="43.82968" lon="12.67919"><ele>88.0</ele><time>2026-04-12T08:25:15.025Z</time></trkpt><trkpt lat="43.8296533" lon="12.6793267"><ele>88.0</ele><time>2026-04-12T08:25:16.029Z</time></trkpt><trkpt lat="43.8296383" lon="12.67945"><ele>88.0</ele><time>2026-04-12T08:25:17.03Z</time></trkpt><trkpt lat="43.8296267" lon="12.6795633"><ele>88.0</ele><time>2026-04-12T08:25:18.031Z</time></trkpt><trkpt lat="43.8296167" lon="12.6796583"><ele>87.66666666666666</ele><time>2026-04-12T08:25:19.031Z</time></trkpt><trkpt lat="43.8295783" lon="12.67982"><ele>87.33333333333333</ele><time>2026-04-12T08:25:21.03Z</time></trkpt><trkpt lat="43.8295367" lon="12.679895"><ele>87.0</ele><time>2026-04-12T08:25:22.03Z</time></trkpt><trkpt lat="43.8294767" lon="12.6799517"><ele>86.66666666666667</ele><time>2026-04-12T08:25:23.029Z</time></trkpt><trkpt lat="43.829405" lon="12.6799917"><ele>86.33333333333334</ele><time>2026-04-12T08:25:24.027Z</time></trkpt><trkpt lat="43.8293283" lon="12.680035"><ele>86.0</ele><time>2026-04-12T08:25:25.028Z</time></trkpt><trkpt lat="43.82924" lon="12.6800933"><ele>86.0</ele><time>2026-04-12T08:25:26.028Z</time></trkpt><trkpt lat="43.829145" lon="12.6801433"><ele>86.0</ele><time>2026-04-12T08:25:27.027Z</time></trkpt><trkpt lat="43.8290517" lon="12.68019"><ele>86.0</ele><time>2026-04-12T08:25:28.026Z</time></trkpt><trkpt lat="43.828965" lon="12.6802383"><ele>86.0</ele><time>2026-04-12T08:25:29.03Z</time></trkpt><trkpt lat="43.828885" lon="12.680285"><ele>86.0</ele><time>2026-04-12T08:25:30.029Z</time></trkpt><trkpt lat="43.8288167" lon="12.6803333"><ele>86.0</ele><time>2026-04-12T08:25:31.027Z</time></trkpt><trkpt lat="43.8287633" lon="12.6803817"><ele>86.0</ele><time>2026-04-12T08:25:32.028Z</time></trkpt><trkpt lat="43.8287233" lon="12.6805317"><ele>86.0</ele><time>2026-04-12T08:25:34.032Z</time></trkpt><trkpt lat="43.8287467" lon="12.6806383"><ele>86.0</ele><time>2026-04-12T08:25:35.028Z</time></trkpt><trkpt lat="43.8287683" lon="12.6807533"><ele>86.0</ele><time>2026-04-12T08:25:36.025Z</time></trkpt><trkpt lat="43.82878" lon="12.6808683"><ele>86.0</ele><time>2026-04-12T08:25:37.031Z</time></trkpt><trkpt lat="43.8287733" lon="12.6809817"><ele>86.0</ele><time>2026-04-12T08:25:38.033Z</time></trkpt><trkpt lat="43.82874" lon="12.6810883"><ele>86.0</ele><time>2026-04-12T08:25:39.028Z</time></trkpt><trkpt lat="43.8286867" lon="12.6811783"><ele>86.0</ele><time>2026-04-12T08:25:40.031Z</time></trkpt><trkpt lat="43.8286233" lon="12.6812483"><ele>86.0</ele><time>2026-04-12T08:25:41.028Z</time></trkpt><trkpt lat="43.82853" lon="12.681335"><ele>86.0</ele><time>2026-04-12T08:25:43.028Z</time></trkpt><trkpt lat="43.8284433" lon="12.6813667"><ele>84.39999999999999</ele><time>2026-04-12T08:25:45.03Z</time></trkpt><trkpt lat="43.82838" lon="12.6813433"><ele>82.8</ele><time>2026-04-12T08:25:46.028Z</time></trkpt><trkpt lat="43.8283033" lon="12.6812867"><ele>81.19999999999999</ele><time>2026-04-12T08:25:47.026Z</time></trkpt><trkpt lat="43.82821" lon="12.6812033"><ele>79.6</ele><time>2026-04-12T08:25:48.028Z</time></trkpt><trkpt lat="43.8281" lon="12.68111"><ele>78.0</ele><time>2026-04-12T08:25:49.026Z</time></trkpt><trkpt lat="43.8279817" lon="12.681005"><ele>78.0</ele><time>2026-04-12T08:25:50.027Z</time></trkpt><trkpt lat="43.8278717" lon="12.6809033"><ele>78.0</ele><time>2026-04-12T08:25:51.028Z</time></trkpt><trkpt lat="43.8277683" lon="12.6808083"><ele>78.0</ele><time>2026-04-12T08:25:52.027Z</time></trkpt><trkpt lat="43.827665" lon="12.680715"><ele>78.0</ele><time>2026-04-12T08:25:53.03Z</time></trkpt><trkpt lat="43.82756" lon="12.68062"><ele>78.0</ele><time>2026-04-12T08:25:54.029Z</time></trkpt><trkpt lat="43.8274533" lon="12.6805317"><ele>78.0</ele><time>2026-04-12T08:25:55.027Z</time></trkpt><trkpt lat="43.8273433" lon="12.680455"><ele>78.0</ele><time>2026-04-12T08:25:56.03Z</time></trkpt><trkpt lat="43.827225" lon="12.6803917"><ele>78.0</ele><time>2026-04-12T08:25:57.028Z</time></trkpt><trkpt lat="43.8271033" lon="12.6803417"><ele>78.0</ele><time>2026-04-12T08:25:58.031Z</time></trkpt><trkpt lat="43.8269767" lon="12.680305"><ele>78.0</ele><time>2026-04-12T08:25:59.029Z</time></trkpt><trkpt lat="43.8268417" lon="12.6802833"><ele>78.0</ele><time>2026-04-12T08:26:00.03Z</time></trkpt><trkpt lat="43.8267033" lon="12.6802767"><ele>78.0</ele><time>2026-04-12T08:26:01.035Z</time></trkpt><trkpt lat="43.8265633" lon="12.6802867"><ele>80.25</ele><time>2026-04-12T08:26:02.029Z</time></trkpt><trkpt lat="43.8264217" lon="12.6803167"><ele>82.5</ele><time>2026-04-12T08:26:03.027Z</time></trkpt><trkpt lat="43.82628" lon="12.68036"><ele>84.75</ele><time>2026-04-12T08:26:04.029Z</time></trkpt><trkpt lat="43.826135" lon="12.6804133"><ele>87.0</ele><time>2026-04-12T08:26:05.026Z</time></trkpt><trkpt lat="43.8259917" lon="12.680475"><ele>87.0</ele><time>2026-04-12T08:26:06.029Z</time></trkpt><trkpt lat="43.825845" lon="12.6805417"><ele>87.0</ele><time>2026-04-12T08:26:07.028Z</time></trkpt><trkpt lat="43.8257" lon="12.6806083"><ele>87.0</ele><time>2026-04-12T08:26:08.027Z</time></trkpt><trkpt lat="43.82556" lon="12.680675"><ele>87.0</ele><time>2026-04-12T08:26:09.028Z</time></trkpt><trkpt lat="43.8254283" lon="12.6807367"><ele>87.0</ele><time>2026-04-12T08:26:10.031Z</time></trkpt><trkpt lat="43.8252983" lon="12.6807933"><ele>87.0</ele><time>2026-04-12T08:26:11.03Z</time></trkpt><trkpt lat="43.8251667" lon="12.6808467"><ele>87.0</ele><time>2026-04-12T08:26:12.032Z</time></trkpt><trkpt lat="43.825025" lon="12.680885"><ele>87.33333333333333</ele><time>2026-04-12T08:26:13.033Z</time></trkpt><trkpt lat="43.8248783" lon="12.6809083"><ele>87.66666666666666</ele><time>2026-04-12T08:26:14.031Z</time></trkpt><trkpt lat="43.824725" lon="12.680915"><ele>88.0</ele><time>2026-04-12T08:26:15.028Z</time></trkpt><trkpt lat="43.8245683" lon="12.6809033"><ele>88.0</ele><time>2026-04-12T08:26:16.03Z</time></trkpt><trkpt lat="43.8244067" lon="12.68088"><ele>88.0</ele><time>2026-04-12T08:26:17.026Z</time></trkpt><trkpt lat="43.8242317" lon="12.6808383"><ele>88.0</ele><time>2026-04-12T08:26:18.028Z</time></trkpt><trkpt lat="43.82405" lon="12.6807717"><ele>87.33333333333333</ele><time>2026-04-12T08:26:19.029Z</time></trkpt><trkpt lat="43.823875" lon="12.6806733"><ele>86.66666666666667</ele><time>2026-04-12T08:26:20.03Z</time></trkpt><trkpt lat="43.8237217" lon="12.680555"><ele>86.0</ele><time>2026-04-12T08:26:21.029Z</time></trkpt><trkpt lat="43.823585" lon="12.6804233"><ele>86.33333333333334</ele><time>2026-04-12T08:26:22.027Z</time></trkpt><trkpt lat="43.82346" lon="12.68028"><ele>86.66666666666667</ele><time>2026-04-12T08:26:23.03Z</time></trkpt><trkpt lat="43.8233383" lon="12.6801267"><ele>87.0</ele><time>2026-04-12T08:26:24.028Z</time></trkpt><trkpt lat="43.8232267" lon="12.6799517"><ele>87.0</ele><time>2026-04-12T08:26:25.028Z</time></trkpt><trkpt lat="43.823125" lon="12.6797617"><ele>87.0</ele><time>2026-04-12T08:26:26.029Z</time></trkpt><trkpt lat="43.8230333" lon="12.679565"><ele>87.0</ele><time>2026-04-12T08:26:27.027Z</time></trkpt><trkpt lat="43.82295" lon="12.6793583"><ele>87.66666666666667</ele><time>2026-04-12T08:26:28.032Z</time></trkpt><trkpt lat="43.8228767" lon="12.67914"><ele>88.33333333333334</ele><time>2026-04-12T08:26:29.028Z</time></trkpt><trkpt lat="43.8228133" lon="12.67891"><ele>89.0</ele><time>2026-04-12T08:26:30.024Z</time></trkpt><trkpt lat="43.8227517" lon="12.67868"><ele>89.33333333333334</ele><time>2026-04-12T08:26:31.028Z</time></trkpt><trkpt lat="43.8226917" lon="12.6784433"><ele>89.66666666666667</ele><time>2026-04-12T08:26:32.028Z</time></trkpt><trkpt lat="43.8226317" lon="12.6782117"><ele>90.0</ele><time>2026-04-12T08:26:33.029Z</time></trkpt><trkpt lat="43.8225683" lon="12.6779833"><ele>90.0</ele><time>2026-04-12T08:26:34.029Z</time></trkpt><trkpt lat="43.8225067" lon="12.6777583"><ele>90.0</ele><time>2026-04-12T08:26:35.027Z</time></trkpt><trkpt lat="43.8224483" lon="12.6775367"><ele>90.0</ele><time>2026-04-12T08:26:36.024Z</time></trkpt><trkpt lat="43.8223883" lon="12.677315"><ele>90.0</ele><time>2026-04-12T08:26:37.03Z</time></trkpt><trkpt lat="43.82233" lon="12.6770933"><ele>90.0</ele><time>2026-04-12T08:26:38.028Z</time></trkpt><trkpt lat="43.8222717" lon="12.67687"><ele>90.0</ele><time>2026-04-12T08:26:39.028Z</time></trkpt><trkpt lat="43.8222117" lon="12.6766433"><ele>90.33333333333333</ele><time>2026-04-12T08:26:40.03Z</time></trkpt><trkpt lat="43.82215" lon="12.676415"><ele>90.66666666666666</ele><time>2026-04-12T08:26:41.028Z</time></trkpt><trkpt lat="43.8220867" lon="12.6761817"><ele>91.0</ele><time>2026-04-12T08:26:42.029Z</time></trkpt><trkpt lat="43.8220267" lon="12.6759483"><ele>91.66666666666666</ele><time>2026-04-12T08:26:43.032Z</time></trkpt><trkpt lat="43.8219633" lon="12.675715"><ele>92.33333333333333</ele><time>2026-04-12T08:26:44.026Z</time></trkpt><trkpt lat="43.8219" lon="12.67548"><ele>93.0</ele><time>2026-04-12T08:26:45.026Z</time></trkpt><trkpt lat="43.821845" lon="12.6752367"><ele>91.66666666666667</ele><time>2026-04-12T08:26:46.032Z</time></trkpt><trkpt lat="43.8218033" lon="12.6749867"><ele>90.33333333333334</ele><time>2026-04-12T08:26:47.027Z</time></trkpt><trkpt lat="43.82178" lon="12.6747283"><ele>89.0</ele><time>2026-04-12T08:26:48.025Z</time></trkpt><trkpt lat="43.8217717" lon="12.6744733"><ele>89.33333333333334</ele><time>2026-04-12T08:26:49.029Z</time></trkpt><trkpt lat="43.8217733" lon="12.6742267"><ele>89.66666666666667</ele><time>2026-04-12T08:26:50.028Z</time></trkpt><trkpt lat="43.8217767" lon="12.67399"><ele>90.0</ele><time>2026-04-12T08:26:51.033Z</time></trkpt><trkpt lat="43.82178" lon="12.6737567"><ele>90.0</ele><time>2026-04-12T08:26:52.027Z</time></trkpt><trkpt lat="43.8217833" lon="12.67352"><ele>90.0</ele><time>2026-04-12T08:26:53.029Z</time></trkpt><trkpt lat="43.8217867" lon="12.673285"><ele>90.0</ele><time>2026-04-12T08:26:54.036Z</time></trkpt><trkpt lat="43.8217917" lon="12.6730633"><ele>90.0</ele><time>2026-04-12T08:26:55.028Z</time></trkpt><trkpt lat="43.8217933" lon="12.672855"><ele>90.0</ele><time>2026-04-12T08:26:56.029Z</time></trkpt><trkpt lat="43.8217933" lon="12.6726483"><ele>90.0</ele><time>2026-04-12T08:26:57.036Z</time></trkpt><trkpt lat="43.8217967" lon="12.6724367"><ele>89.66666666666667</ele><time>2026-04-12T08:26:58.027Z</time></trkpt><trkpt lat="43.8218033" lon="12.6722217"><ele>89.33333333333334</ele><time>2026-04-12T08:26:59.026Z</time></trkpt><trkpt lat="43.8218133" lon="12.6720083"><ele>89.0</ele><time>2026-04-12T08:27:00.034Z</time></trkpt><trkpt lat="43.8218267" lon="12.671795"><ele>89.5</ele><time>2026-04-12T08:27:01.031Z</time></trkpt><trkpt lat="43.8218483" lon="12.6715867"><ele>90.0</ele><time>2026-04-12T08:27:02.034Z</time></trkpt><trkpt lat="43.8218717" lon="12.6713833"><ele>90.5</ele><time>2026-04-12T08:27:03.026Z</time></trkpt><trkpt lat="43.8218983" lon="12.67118"><ele>91.0</ele><time>2026-04-12T08:27:04.032Z</time></trkpt><trkpt lat="43.8219233" lon="12.6709783"><ele>92.0</ele><time>2026-04-12T08:27:05.035Z</time></trkpt><trkpt lat="43.8219483" lon="12.670775"><ele>93.0</ele><time>2026-04-12T08:27:06.03Z</time></trkpt><trkpt lat="43.8219767" lon="12.6705717"><ele>94.0</ele><time>2026-04-12T08:27:07.034Z</time></trkpt><trkpt lat="43.8220083" lon="12.6703667"><ele>95.0</ele><time>2026-04-12T08:27:08.034Z</time></trkpt><trkpt lat="43.82204" lon="12.6701617"><ele>95.5</ele><time>2026-04-12T08:27:09.027Z</time></trkpt><trkpt lat="43.82207" lon="12.6699583"><ele>96.0</ele><time>2026-04-12T08:27:10.03Z</time></trkpt><trkpt lat="43.822095" lon="12.6697583"><ele>96.5</ele><time>2026-04-12T08:27:11.03Z</time></trkpt><trkpt lat="43.8221183" lon="12.6695583"><ele>97.0</ele><time>2026-04-12T08:27:12.028Z</time></trkpt><trkpt lat="43.822125" lon="12.669355"><ele>97.0</ele><time>2026-04-12T08:27:13.03Z</time></trkpt><trkpt lat="43.8221017" lon="12.6691517"><ele>97.0</ele><time>2026-04-12T08:27:14.029Z</time></trkpt><trkpt lat="43.82204" lon="12.6689583"><ele>97.0</ele><time>2026-04-12T08:27:15.03Z</time></trkpt><trkpt lat="43.8219483" lon="12.6687917"><ele>97.0</ele><time>2026-04-12T08:27:16.027Z</time></trkpt><trkpt lat="43.8218383" lon="12.6686483"><ele>97.0</ele><time>2026-04-12T08:27:17.03Z</time></trkpt><trkpt lat="43.8217217" lon="12.6685333"><ele>97.0</ele><time>2026-04-12T08:27:18.025Z</time></trkpt><trkpt lat="43.821605" lon="12.6684267"><ele>97.0</ele><time>2026-04-12T08:27:19.029Z</time></trkpt><trkpt lat="43.821485" lon="12.6683217"><ele>97.5</ele><time>2026-04-12T08:27:20.027Z</time></trkpt><trkpt lat="43.8213617" lon="12.6682183"><ele>98.0</ele><time>2026-04-12T08:27:21.037Z</time></trkpt><trkpt lat="43.8212333" lon="12.6681167"><ele>98.5</ele><time>2026-04-12T08:27:22.03Z</time></trkpt><trkpt lat="43.821105" lon="12.66801"><ele>99.0</ele><time>2026-04-12T08:27:23.031Z</time></trkpt><trkpt lat="43.820975" lon="12.6679"><ele>99.0</ele><time>2026-04-12T08:27:24.029Z</time></trkpt><trkpt lat="43.8208433" lon="12.6677933"><ele>99.0</ele><time>2026-04-12T08:27:25.031Z</time></trkpt><trkpt lat="43.82071" lon="12.6676917"><ele>99.0</ele><time>2026-04-12T08:27:26.029Z</time></trkpt><trkpt lat="43.8205733" lon="12.6675967"><ele>100.66666666666666</ele><time>2026-04-12T08:27:27.027Z</time></trkpt><trkpt lat="43.8204367" lon="12.667505"><ele>102.33333333333333</ele><time>2026-04-12T08:27:28.031Z</time></trkpt><trkpt lat="43.8202967" lon="12.667415"><ele>104.0</ele><time>2026-04-12T08:27:29.032Z</time></trkpt><trkpt lat="43.820155" lon="12.6673267"><ele>103.33333333333333</ele><time>2026-04-12T08:27:30.028Z</time></trkpt><trkpt lat="43.8200133" lon="12.6672433"><ele>102.66666666666666</ele><time>2026-04-12T08:27:31.028Z</time></trkpt><trkpt lat="43.81987" lon="12.66716"><ele>102.0</ele><time>2026-04-12T08:27:32.03Z</time></trkpt><trkpt lat="43.8197283" lon="12.6670717"><ele>102.0</ele><time>2026-04-12T08:27:33.03Z</time></trkpt><trkpt lat="43.819585" lon="12.666985"><ele>102.0</ele><time>2026-04-12T08:27:34.033Z</time></trkpt><trkpt lat="43.8194417" lon="12.6669017"><ele>102.0</ele><time>2026-04-12T08:27:35.036Z</time></trkpt><trkpt lat="43.8193" lon="12.6668167"><ele>103.33333333333334</ele><time>2026-04-12T08:27:36.028Z</time></trkpt><trkpt lat="43.8191583" lon="12.6667317"><ele>104.66666666666667</ele><time>2026-04-12T08:27:37.028Z</time></trkpt><trkpt lat="43.819015" lon="12.6666483"><ele>106.0</ele><time>2026-04-12T08:27:38.033Z</time></trkpt><trkpt lat="43.818875" lon="12.6665667"><ele>106.0</ele><time>2026-04-12T08:27:39.029Z</time></trkpt><trkpt lat="43.818735" lon="12.6664883"><ele>106.0</ele><time>2026-04-12T08:27:40.032Z</time></trkpt><trkpt lat="43.8185967" lon="12.66641"><ele>106.0</ele><time>2026-04-12T08:27:41.032Z</time></trkpt><trkpt lat="43.8184583" lon="12.66633"><ele>105.66666666666667</ele><time>2026-04-12T08:27:42.032Z</time></trkpt><trkpt lat="43.8183183" lon="12.666245"><ele>105.33333333333334</ele><time>2026-04-12T08:27:43.034Z</time></trkpt><trkpt lat="43.818175" lon="12.66616"><ele>105.0</ele><time>2026-04-12T08:27:44.031Z</time></trkpt><trkpt lat="43.8180317" lon="12.6660733"><ele>105.25</ele><time>2026-04-12T08:27:45.028Z</time></trkpt><trkpt lat="43.8178933" lon="12.66599"><ele>105.5</ele><time>2026-04-12T08:27:46.026Z</time></trkpt><trkpt lat="43.817765" lon="12.6659117"><ele>105.75</ele><time>2026-04-12T08:27:47.029Z</time></trkpt><trkpt lat="43.81764" lon="12.6658317"><ele>106.0</ele><time>2026-04-12T08:27:48.03Z</time></trkpt><trkpt lat="43.817515" lon="12.665755"><ele>106.0</ele><time>2026-04-12T08:27:49.028Z</time></trkpt><trkpt lat="43.81739" lon="12.6656817"><ele>106.0</ele><time>2026-04-12T08:27:50.027Z</time></trkpt><trkpt lat="43.8172617" lon="12.66561"><ele>106.0</ele><time>2026-04-12T08:27:51.029Z</time></trkpt><trkpt lat="43.8171317" lon="12.6655367"><ele>106.0</ele><time>2026-04-12T08:27:52.029Z</time></trkpt><trkpt lat="43.8169983" lon="12.66546"><ele>106.0</ele><time>2026-04-12T08:27:53.028Z</time></trkpt><trkpt lat="43.816865" lon="12.66538"><ele>106.0</ele><time>2026-04-12T08:27:54.032Z</time></trkpt><trkpt lat="43.81673" lon="12.6652983"><ele>106.0</ele><time>2026-04-12T08:27:55.033Z</time></trkpt><trkpt lat="43.81659" lon="12.6652183"><ele>106.0</ele><time>2026-04-12T08:27:56.028Z</time></trkpt><trkpt lat="43.8164467" lon="12.665135"><ele>107.0</ele><time>2026-04-12T08:27:57.035Z</time></trkpt><trkpt lat="43.8163033" lon="12.6650467"><ele>108.0</ele><time>2026-04-12T08:27:58.03Z</time></trkpt><trkpt lat="43.8161633" lon="12.6649617"><ele>109.0</ele><time>2026-04-12T08:27:59.03Z</time></trkpt><trkpt lat="43.81603" lon="12.6648817"><ele>108.0</ele><time>2026-04-12T08:28:00.032Z</time></trkpt><trkpt lat="43.8158983" lon="12.6647983"><ele>107.0</ele><time>2026-04-12T08:28:01.029Z</time></trkpt><trkpt lat="43.8157633" lon="12.6647133"><ele>106.0</ele><time>2026-04-12T08:28:02.031Z</time></trkpt><trkpt lat="43.8156217" lon="12.6646283"><ele>105.0</ele><time>2026-04-12T08:28:03.028Z</time></trkpt><trkpt lat="43.81548" lon="12.6645417"><ele>105.0</ele><time>2026-04-12T08:28:04.027Z</time></trkpt><trkpt lat="43.815325" lon="12.664465"><ele>105.0</ele><time>2026-04-12T08:28:05.029Z</time></trkpt><trkpt lat="43.8151683" lon="12.6643983"><ele>105.0</ele><time>2026-04-12T08:28:06.027Z</time></trkpt><trkpt lat="43.8150217" lon="12.6643467"><ele>105.25</ele><time>2026-04-12T08:28:07.027Z</time></trkpt><trkpt lat="43.814885" lon="12.6643"><ele>105.5</ele><time>2026-04-12T08:28:08.027Z</time></trkpt><trkpt lat="43.8147483" lon="12.6642533"><ele>105.75</ele><time>2026-04-12T08:28:09.028Z</time></trkpt><trkpt lat="43.81461" lon="12.6642017"><ele>106.0</ele><time>2026-04-12T08:28:10.033Z</time></trkpt><trkpt lat="43.8144683" lon="12.6641483"><ele>106.0</ele><time>2026-04-12T08:28:11.028Z</time></trkpt><trkpt lat="43.8143233" lon="12.6640967"><ele>106.0</ele><time>2026-04-12T08:28:12.03Z</time></trkpt><trkpt lat="43.8141767" lon="12.66404"><ele>106.0</ele><time>2026-04-12T08:28:13.029Z</time></trkpt><trkpt lat="43.8140283" lon="12.6639883"><ele>106.0</ele><time>2026-04-12T08:28:14.029Z</time></trkpt><trkpt lat="43.8138783" lon="12.6639317"><ele>106.0</ele><time>2026-04-12T08:28:15.028Z</time></trkpt><trkpt lat="43.8137233" lon="12.663875"><ele>106.0</ele><time>2026-04-12T08:28:16.032Z</time></trkpt><trkpt lat="43.81357" lon="12.6638117"><ele>106.0</ele><time>2026-04-12T08:28:17.028Z</time></trkpt><trkpt lat="43.813425" lon="12.6637517"><ele>106.0</ele><time>2026-04-12T08:28:18.03Z</time></trkpt><trkpt lat="43.8132833" lon="12.663695"><ele>106.0</ele><time>2026-04-12T08:28:19.028Z</time></trkpt><trkpt lat="43.813145" lon="12.6636417"><ele>106.0</ele><time>2026-04-12T08:28:20.028Z</time></trkpt><trkpt lat="43.813005" lon="12.6635883"><ele>106.5</ele><time>2026-04-12T08:28:21.038Z</time></trkpt><trkpt lat="43.8128683" lon="12.66353"><ele>107.0</ele><time>2026-04-12T08:28:22.033Z</time></trkpt><trkpt lat="43.8127283" lon="12.6634683"><ele>107.5</ele><time>2026-04-12T08:28:23.036Z</time></trkpt><trkpt lat="43.8125883" lon="12.6633917"><ele>108.0</ele><time>2026-04-12T08:28:24.031Z</time></trkpt><trkpt lat="43.8124483" lon="12.6632883"><ele>105.33333333333334</ele><time>2026-04-12T08:28:25.028Z</time></trkpt><trkpt lat="43.8123183" lon="12.6631417"><ele>102.66666666666667</ele><time>2026-04-12T08:28:26.027Z</time></trkpt><trkpt lat="43.8121983" lon="12.6629617"><ele>100.0</ele><time>2026-04-12T08:28:27.031Z</time></trkpt><trkpt lat="43.81208" lon="12.6627833"><ele>99.33333333333334</ele><time>2026-04-12T08:28:28.029Z</time></trkpt><trkpt lat="43.8119517" lon="12.6626283"><ele>98.66666666666666</ele><time>2026-04-12T08:28:29.033Z</time></trkpt><trkpt lat="43.811815" lon="12.6624967"><ele>98.0</ele><time>2026-04-12T08:28:30.033Z</time></trkpt><trkpt lat="43.811675" lon="12.6623783"><ele>94.33333333333333</ele><time>2026-04-12T08:28:31.029Z</time></trkpt><trkpt lat="43.8115367" lon="12.6622667"><ele>90.66666666666666</ele><time>2026-04-12T08:28:32.028Z</time></trkpt><trkpt lat="43.811395" lon="12.6621533"><ele>87.0</ele><time>2026-04-12T08:28:33.029Z</time></trkpt><trkpt lat="43.81125" lon="12.662035"><ele>88.33333333333333</ele><time>2026-04-12T08:28:34.033Z</time></trkpt><trkpt lat="43.8111017" lon="12.661915"><ele>89.66666666666666</ele><time>2026-04-12T08:28:35.029Z</time></trkpt><trkpt lat="43.81095" lon="12.66179"><ele>91.0</ele><time>2026-04-12T08:28:36.029Z</time></trkpt><trkpt lat="43.8107983" lon="12.6616633"><ele>91.0</ele><time>2026-04-12T08:28:37.028Z</time></trkpt><trkpt lat="43.8106517" lon="12.6615483"><ele>91.0</ele><time>2026-04-12T08:28:38.03Z</time></trkpt><trkpt lat="43.81051" lon="12.661445"><ele>91.0</ele><time>2026-04-12T08:28:39.028Z</time></trkpt><trkpt lat="43.810375" lon="12.6613433"><ele>91.0</ele><time>2026-04-12T08:28:40.03Z</time></trkpt><trkpt lat="43.8102417" lon="12.6612383"><ele>91.0</ele><time>2026-04-12T08:28:41.032Z</time></trkpt><trkpt lat="43.8101033" lon="12.6611417"><ele>91.0</ele><time>2026-04-12T08:28:42.031Z</time></trkpt><trkpt lat="43.8099517" lon="12.6610633"><ele>93.0</ele><time>2026-04-12T08:28:43.031Z</time></trkpt><trkpt lat="43.8097767" lon="12.6610217"><ele>95.0</ele><time>2026-04-12T08:28:44.029Z</time></trkpt><trkpt lat="43.809585" lon="12.6610167"><ele>97.0</ele><time>2026-04-12T08:28:45.027Z</time></trkpt><trkpt lat="43.8093917" lon="12.6610433"><ele>94.0</ele><time>2026-04-12T08:28:46.032Z</time></trkpt><trkpt lat="43.8092083" lon="12.6610817"><ele>91.0</ele><time>2026-04-12T08:28:47.029Z</time></trkpt><trkpt lat="43.80903" lon="12.6611117"><ele>88.0</ele><time>2026-04-12T08:28:48.026Z</time></trkpt><trkpt lat="43.808855" lon="12.661145"><ele>86.0</ele><time>2026-04-12T08:28:49.03Z</time></trkpt><trkpt lat="43.808685" lon="12.661185"><ele>84.0</ele><time>2026-04-12T08:28:50.028Z</time></trkpt><trkpt lat="43.80851" lon="12.6612267"><ele>82.0</ele><time>2026-04-12T08:28:51.029Z</time></trkpt><trkpt lat="43.8083333" lon="12.6612667"><ele>81.66666666666666</ele><time>2026-04-12T08:28:52.028Z</time></trkpt><trkpt lat="43.80816" lon="12.6613033"><ele>81.33333333333333</ele><time>2026-04-12T08:28:53.033Z</time></trkpt><trkpt lat="43.8079967" lon="12.6613367"><ele>81.0</ele><time>2026-04-12T08:28:54.029Z</time></trkpt><trkpt lat="43.8078383" lon="12.6613667"><ele>81.0</ele><time>2026-04-12T08:28:55.032Z</time></trkpt><trkpt lat="43.8076833" lon="12.6613983"><ele>81.0</ele><time>2026-04-12T08:28:56.029Z</time></trkpt><trkpt lat="43.8075283" lon="12.6614267"><ele>81.0</ele><time>2026-04-12T08:28:57.033Z</time></trkpt><trkpt lat="43.8073717" lon="12.661455"><ele>81.0</ele><time>2026-04-12T08:28:58.031Z</time></trkpt><trkpt lat="43.807215" lon="12.6614867"><ele>81.0</ele><time>2026-04-12T08:28:59.031Z</time></trkpt><trkpt lat="43.8070583" lon="12.6615217"><ele>81.0</ele><time>2026-04-12T08:29:00.031Z</time></trkpt><trkpt lat="43.8069017" lon="12.661555"><ele>81.33333333333333</ele><time>2026-04-12T08:29:01.025Z</time></trkpt><trkpt lat="43.8067467" lon="12.66158"><ele>81.66666666666666</ele><time>2026-04-12T08:29:02.03Z</time></trkpt><trkpt lat="43.80659" lon="12.66161"><ele>82.0</ele><time>2026-04-12T08:29:03.03Z</time></trkpt><trkpt lat="43.8064383" lon="12.6616383"><ele>82.0</ele><time>2026-04-12T08:29:04.031Z</time></trkpt><trkpt lat="43.8062867" lon="12.6616733"><ele>82.0</ele><time>2026-04-12T08:29:05.034Z</time></trkpt><trkpt lat="43.8061317" lon="12.6617033"><ele>82.0</ele><time>2026-04-12T08:29:06.03Z</time></trkpt><trkpt lat="43.8059767" lon="12.6617317"><ele>83.66666666666666</ele><time>2026-04-12T08:29:07.03Z</time></trkpt><trkpt lat="43.80582" lon="12.6617533"><ele>85.33333333333333</ele><time>2026-04-12T08:29:08.03Z</time></trkpt><trkpt lat="43.805665" lon="12.6617717"><ele>87.0</ele><time>2026-04-12T08:29:09.026Z</time></trkpt><trkpt lat="43.805505" lon="12.6617683"><ele>87.0</ele><time>2026-04-12T08:29:10.029Z</time></trkpt><trkpt lat="43.80534" lon="12.6617417"><ele>87.0</ele><time>2026-04-12T08:29:11.031Z</time></trkpt><trkpt lat="43.8051717" lon="12.6617"><ele>87.0</ele><time>2026-04-12T08:29:12.031Z</time></trkpt><trkpt lat="43.8050067" lon="12.6616417"><ele>86.66666666666667</ele><time>2026-04-12T08:29:13.031Z</time></trkpt><trkpt lat="43.8048483" lon="12.6615633"><ele>86.33333333333334</ele><time>2026-04-12T08:29:14.03Z</time></trkpt><trkpt lat="43.8046933" lon="12.6614583"><ele>86.0</ele><time>2026-04-12T08:29:15.027Z</time></trkpt><trkpt lat="43.8045433" lon="12.6613417"><ele>86.0</ele><time>2026-04-12T08:29:16.032Z</time></trkpt><trkpt lat="43.8043917" lon="12.6612133"><ele>86.0</ele><time>2026-04-12T08:29:17.028Z</time></trkpt><trkpt lat="43.8042383" lon="12.6610833"><ele>86.0</ele><time>2026-04-12T08:29:18.029Z</time></trkpt><trkpt lat="43.8040833" lon="12.6609533"><ele>85.66666666666667</ele><time>2026-04-12T08:29:19.03Z</time></trkpt><trkpt lat="43.8039283" lon="12.6608267"><ele>85.33333333333333</ele><time>2026-04-12T08:29:20.025Z</time></trkpt><trkpt lat="43.8037733" lon="12.6606917"><ele>85.0</ele><time>2026-04-12T08:29:21.025Z</time></trkpt><trkpt lat="43.8036183" lon="12.6605583"><ele>85.0</ele><time>2026-04-12T08:29:22.039Z</time></trkpt><trkpt lat="43.8034617" lon="12.6604217"><ele>85.0</ele><time>2026-04-12T08:29:23.027Z</time></trkpt><trkpt lat="43.8033067" lon="12.66029"><ele>85.0</ele><time>2026-04-12T08:29:24.032Z</time></trkpt><trkpt lat="43.8031517" lon="12.6601567"><ele>85.0</ele><time>2026-04-12T08:29:25.03Z</time></trkpt><trkpt lat="43.802995" lon="12.66003"><ele>85.0</ele><time>2026-04-12T08:29:26.028Z</time></trkpt><trkpt lat="43.8028433" lon="12.6599"><ele>85.0</ele><time>2026-04-12T08:29:27.029Z</time></trkpt><trkpt lat="43.8026917" lon="12.6597733"><ele>85.33333333333333</ele><time>2026-04-12T08:29:28.025Z</time></trkpt><trkpt lat="43.8025417" lon="12.6596483"><ele>85.66666666666667</ele><time>2026-04-12T08:29:29.026Z</time></trkpt><trkpt lat="43.802395" lon="12.6595267"><ele>86.0</ele><time>2026-04-12T08:29:30.031Z</time></trkpt><trkpt lat="43.8022467" lon="12.659405"><ele>86.0</ele><time>2026-04-12T08:29:31.03Z</time></trkpt><trkpt lat="43.8020967" lon="12.6592783"><ele>86.0</ele><time>2026-04-12T08:29:32.029Z</time></trkpt><trkpt lat="43.801945" lon="12.6591533"><ele>86.0</ele><time>2026-04-12T08:29:33.029Z</time></trkpt><trkpt lat="43.801795" lon="12.659025"><ele>85.66666666666667</ele><time>2026-04-12T08:29:34.024Z</time></trkpt><trkpt lat="43.8016417" lon="12.6588967"><ele>85.33333333333333</ele><time>2026-04-12T08:29:35.028Z</time></trkpt><trkpt lat="43.8014867" lon="12.6587683"><ele>85.0</ele><time>2026-04-12T08:29:36.028Z</time></trkpt><trkpt lat="43.801335" lon="12.6586383"><ele>85.33333333333333</ele><time>2026-04-12T08:29:37.027Z</time></trkpt><trkpt lat="43.8011867" lon="12.6585067"><ele>85.66666666666667</ele><time>2026-04-12T08:29:38.031Z</time></trkpt><trkpt lat="43.80104" lon="12.6583767"><ele>86.0</ele><time>2026-04-12T08:29:39.031Z</time></trkpt><trkpt lat="43.8008983" lon="12.6582533"><ele>86.66666666666667</ele><time>2026-04-12T08:29:40.03Z</time></trkpt><trkpt lat="43.8007633" lon="12.6581133"><ele>87.33333333333333</ele><time>2026-04-12T08:29:41.034Z</time></trkpt><trkpt lat="43.800645" lon="12.6579483"><ele>88.0</ele><time>2026-04-12T08:29:42.027Z</time></trkpt><trkpt lat="43.8005467" lon="12.6577567"><ele>90.33333333333333</ele><time>2026-04-12T08:29:43.031Z</time></trkpt><trkpt lat="43.8004767" lon="12.6575383"><ele>92.66666666666667</ele><time>2026-04-12T08:29:44.032Z</time></trkpt><trkpt lat="43.800435" lon="12.6572967"><ele>95.0</ele><time>2026-04-12T08:29:45.027Z</time></trkpt><trkpt lat="43.80041" lon="12.6570417"><ele>96.66666666666667</ele><time>2026-04-12T08:29:46.029Z</time></trkpt><trkpt lat="43.8003883" lon="12.6567883"><ele>98.33333333333334</ele><time>2026-04-12T08:29:47.025Z</time></trkpt><trkpt lat="43.80037" lon="12.6565417"><ele>100.0</ele><time>2026-04-12T08:29:48.03Z</time></trkpt><trkpt lat="43.80035" lon="12.6563033"><ele>101.33333333333334</ele><time>2026-04-12T08:29:49.029Z</time></trkpt><trkpt lat="43.800325" lon="12.6560717"><ele>102.66666666666666</ele><time>2026-04-12T08:29:50.027Z</time></trkpt><trkpt lat="43.80029" lon="12.6558467"><ele>104.0</ele><time>2026-04-12T08:29:51.026Z</time></trkpt><trkpt lat="43.8002383" lon="12.655635"><ele>101.0</ele><time>2026-04-12T08:29:52.032Z</time></trkpt><trkpt lat="43.800165" lon="12.6554283"><ele>98.0</ele><time>2026-04-12T08:29:53.029Z</time></trkpt><trkpt lat="43.8000633" lon="12.6552217"><ele>95.0</ele><time>2026-04-12T08:29:54.028Z</time></trkpt><trkpt lat="43.7999433" lon="12.6550117"><ele>95.0</ele><time>2026-04-12T08:29:55.034Z</time></trkpt><trkpt lat="43.799815" lon="12.6548133"><ele>95.0</ele><time>2026-04-12T08:29:56.027Z</time></trkpt><trkpt lat="43.7996883" lon="12.6546417"><ele>95.0</ele><time>2026-04-12T08:29:57.029Z</time></trkpt><trkpt lat="43.79957" lon="12.654475"><ele>97.33333333333334</ele><time>2026-04-12T08:29:58.03Z</time></trkpt><trkpt lat="43.799455" lon="12.6543167"><ele>99.66666666666667</ele><time>2026-04-12T08:29:59.03Z</time></trkpt><trkpt lat="43.7993417" lon="12.65416"><ele>102.0</ele><time>2026-04-12T08:30:00.026Z</time></trkpt><trkpt lat="43.7992283" lon="12.6540067"><ele>102.0</ele><time>2026-04-12T08:30:01.029Z</time></trkpt><trkpt lat="43.7991133" lon="12.65385"><ele>102.0</ele><time>2026-04-12T08:30:02.029Z</time></trkpt><trkpt lat="43.7989983" lon="12.6536967"><ele>102.0</ele><time>2026-04-12T08:30:03.031Z</time></trkpt><trkpt lat="43.7988767" lon="12.6535483"><ele>103.66666666666666</ele><time>2026-04-12T08:30:04.028Z</time></trkpt><trkpt lat="43.79874" lon="12.6534133"><ele>105.33333333333333</ele><time>2026-04-12T08:30:05.032Z</time></trkpt><trkpt lat="43.7985933" lon="12.6532917"><ele>107.0</ele><time>2026-04-12T08:30:06.03Z</time></trkpt><trkpt lat="43.7984367" lon="12.6531833"><ele>107.0</ele><time>2026-04-12T08:30:07.031Z</time></trkpt><trkpt lat="43.7982767" lon="12.6530783"><ele>107.0</ele><time>2026-04-12T08:30:08.027Z</time></trkpt><trkpt lat="43.79811" lon="12.6529733"><ele>107.0</ele><time>2026-04-12T08:30:09.029Z</time></trkpt><trkpt lat="43.797945" lon="12.65287"><ele>108.33333333333333</ele><time>2026-04-12T08:30:10.03Z</time></trkpt><trkpt lat="43.79778" lon="12.6527583"><ele>109.66666666666666</ele><time>2026-04-12T08:30:11.029Z</time></trkpt><trkpt lat="43.7976167" lon="12.652655"><ele>111.0</ele><time>2026-04-12T08:30:12.03Z</time></trkpt><trkpt lat="43.7974533" lon="12.6525533"><ele>111.0</ele><time>2026-04-12T08:30:13.032Z</time></trkpt><trkpt lat="43.7972917" lon="12.6524617"><ele>111.0</ele><time>2026-04-12T08:30:14.034Z</time></trkpt><trkpt lat="43.7971267" lon="12.6523733"><ele>111.0</ele><time>2026-04-12T08:30:15.027Z</time></trkpt><trkpt lat="43.7969667" lon="12.6522917"><ele>109.0</ele><time>2026-04-12T08:30:16.027Z</time></trkpt><trkpt lat="43.7968083" lon="12.6522183"><ele>107.0</ele><time>2026-04-12T08:30:17.037Z</time></trkpt><trkpt lat="43.7966533" lon="12.65215"><ele>105.0</ele><time>2026-04-12T08:30:18.028Z</time></trkpt><trkpt lat="43.796495" lon="12.6520917"><ele>105.0</ele><time>2026-04-12T08:30:19.032Z</time></trkpt><trkpt lat="43.79634" lon="12.6520267"><ele>105.0</ele><time>2026-04-12T08:30:20.027Z</time></trkpt><trkpt lat="43.796185" lon="12.65195"><ele>105.0</ele><time>2026-04-12T08:30:21.026Z</time></trkpt><trkpt lat="43.7960317" lon="12.6518533"><ele>106.66666666666666</ele><time>2026-04-12T08:30:22.029Z</time></trkpt><trkpt lat="43.795875" lon="12.651735"><ele>108.33333333333333</ele><time>2026-04-12T08:30:23.027Z</time></trkpt><trkpt lat="43.7957183" lon="12.6516117"><ele>110.0</ele><time>2026-04-12T08:30:24.025Z</time></trkpt><trkpt lat="43.7955617" lon="12.6514767"><ele>110.0</ele><time>2026-04-12T08:30:25.029Z</time></trkpt><trkpt lat="43.7953983" lon="12.6513433"><ele>110.0</ele><time>2026-04-12T08:30:26.031Z</time></trkpt><trkpt lat="43.795235" lon="12.6511967"><ele>110.0</ele><time>2026-04-12T08:30:27.032Z</time></trkpt><trkpt lat="43.7950667" lon="12.6510517"><ele>111.0</ele><time>2026-04-12T08:30:28.032Z</time></trkpt><trkpt lat="43.7948917" lon="12.6508983"><ele>112.0</ele><time>2026-04-12T08:30:29.026Z</time></trkpt><trkpt lat="43.79471" lon="12.6507517"><ele>113.0</ele><time>2026-04-12T08:30:30.028Z</time></trkpt><trkpt lat="43.794535" lon="12.6505967"><ele>113.0</ele><time>2026-04-12T08:30:31.029Z</time></trkpt><trkpt lat="43.7943717" lon="12.650455"><ele>113.0</ele><time>2026-04-12T08:30:32.032Z</time></trkpt><trkpt lat="43.7942167" lon="12.6503183"><ele>113.0</ele><time>2026-04-12T08:30:33.033Z</time></trkpt><trkpt lat="43.7940717" lon="12.6501817"><ele>112.66666666666666</ele><time>2026-04-12T08:30:34.033Z</time></trkpt><trkpt lat="43.7939267" lon="12.6500517"><ele>112.33333333333334</ele><time>2026-04-12T08:30:35.03Z</time></trkpt><trkpt lat="43.7937833" lon="12.6499283"><ele>112.0</ele><time>2026-04-12T08:30:36.024Z</time></trkpt><trkpt lat="43.793645" lon="12.649805"><ele>112.0</ele><time>2026-04-12T08:30:37.032Z</time></trkpt><trkpt lat="43.7935167" lon="12.649685"><ele>112.0</ele><time>2026-04-12T08:30:38.031Z</time></trkpt><trkpt lat="43.79339" lon="12.6495783"><ele>112.0</ele><time>2026-04-12T08:30:39.034Z</time></trkpt><trkpt lat="43.7932683" lon="12.649475"><ele>112.0</ele><time>2026-04-12T08:30:40.026Z</time></trkpt><trkpt lat="43.7931467" lon="12.6493683"><ele>112.25</ele><time>2026-04-12T08:30:41.032Z</time></trkpt><trkpt lat="43.7930217" lon="12.6492617"><ele>112.5</ele><time>2026-04-12T08:30:42.031Z</time></trkpt><trkpt lat="43.792905" lon="12.6491533"><ele>112.75</ele><time>2026-04-12T08:30:43.034Z</time></trkpt><trkpt lat="43.7928017" lon="12.6490383"><ele>113.0</ele><time>2026-04-12T08:30:44.032Z</time></trkpt><trkpt lat="43.79272" lon="12.64891"><ele>112.0</ele><time>2026-04-12T08:30:45.03Z</time></trkpt><trkpt lat="43.7926633" lon="12.648755"><ele>111.0</ele><time>2026-04-12T08:30:46.029Z</time></trkpt><trkpt lat="43.7926317" lon="12.6485633"><ele>110.0</ele><time>2026-04-12T08:30:47.025Z</time></trkpt><trkpt lat="43.7926217" lon="12.6483467"><ele>109.0</ele><time>2026-04-12T08:30:48.029Z</time></trkpt><trkpt lat="43.7926183" lon="12.64812"><ele>109.0</ele><time>2026-04-12T08:30:49.025Z</time></trkpt><trkpt lat="43.79262" lon="12.6478967"><ele>109.0</ele><time>2026-04-12T08:30:50.026Z</time></trkpt><trkpt lat="43.7926183" lon="12.647675"><ele>109.0</ele><time>2026-04-12T08:30:51.03Z</time></trkpt><trkpt lat="43.7926167" lon="12.6474367"><ele>109.66666666666667</ele><time>2026-04-12T08:30:52.026Z</time></trkpt><trkpt lat="43.79261" lon="12.6471983"><ele>110.33333333333334</ele><time>2026-04-12T08:30:53.027Z</time></trkpt><trkpt lat="43.79259" lon="12.646975"><ele>111.0</ele><time>2026-04-12T08:30:54.027Z</time></trkpt><trkpt lat="43.79255" lon="12.6467633"><ele>111.33333333333334</ele><time>2026-04-12T08:30:55.031Z</time></trkpt><trkpt lat="43.7924983" lon="12.6465533"><ele>111.66666666666667</ele><time>2026-04-12T08:30:56.029Z</time></trkpt><trkpt lat="43.7924283" lon="12.6463567"><ele>112.0</ele><time>2026-04-12T08:30:57.03Z</time></trkpt><trkpt lat="43.7923483" lon="12.6461583"><ele>113.66666666666667</ele><time>2026-04-12T08:30:58.025Z</time></trkpt><trkpt lat="43.7922633" lon="12.64596"><ele>115.33333333333334</ele><time>2026-04-12T08:30:59.027Z</time></trkpt><trkpt lat="43.7921783" lon="12.6457667"><ele>117.0</ele><time>2026-04-12T08:31:00.03Z</time></trkpt><trkpt lat="43.792095" lon="12.6455717"><ele>117.0</ele><time>2026-04-12T08:31:01.028Z</time></trkpt><trkpt lat="43.7920133" lon="12.645375"><ele>117.0</ele><time>2026-04-12T08:31:02.026Z</time></trkpt><trkpt lat="43.7919317" lon="12.6451783"><ele>117.0</ele><time>2026-04-12T08:31:03.028Z</time></trkpt><trkpt lat="43.79185" lon="12.6449783"><ele>117.66666666666666</ele><time>2026-04-12T08:31:04.03Z</time></trkpt><trkpt lat="43.79177" lon="12.6447817"><ele>118.33333333333333</ele><time>2026-04-12T08:31:05.026Z</time></trkpt><trkpt lat="43.7916933" lon="12.6445883"><ele>119.0</ele><time>2026-04-12T08:31:06.033Z</time></trkpt><trkpt lat="43.7916183" lon="12.6444017"><ele>119.0</ele><time>2026-04-12T08:31:07.027Z</time></trkpt><trkpt lat="43.7915467" lon="12.6442133"><ele>119.0</ele><time>2026-04-12T08:31:08.03Z</time></trkpt><trkpt lat="43.7914667" lon="12.644025"><ele>119.0</ele><time>2026-04-12T08:31:09.027Z</time></trkpt><trkpt lat="43.791385" lon="12.6438333"><ele>119.0</ele><time>2026-04-12T08:31:10.027Z</time></trkpt><trkpt lat="43.7913" lon="12.6436417"><ele>119.0</ele><time>2026-04-12T08:31:11.029Z</time></trkpt><trkpt lat="43.7912217" lon="12.64345"><ele>119.0</ele><time>2026-04-12T08:31:12.026Z</time></trkpt><trkpt lat="43.7911383" lon="12.6432683"><ele>118.66666666666666</ele><time>2026-04-12T08:31:13.032Z</time></trkpt><trkpt lat="43.791055" lon="12.6430817"><ele>118.33333333333334</ele><time>2026-04-12T08:31:14.024Z</time></trkpt><trkpt lat="43.7909733" lon="12.6428883"><ele>118.0</ele><time>2026-04-12T08:31:15.03Z</time></trkpt><trkpt lat="43.7908933" lon="12.6426933"><ele>118.0</ele><time>2026-04-12T08:31:16.032Z</time></trkpt><trkpt lat="43.7908183" lon="12.642495"><ele>118.0</ele><time>2026-04-12T08:31:17.028Z</time></trkpt><trkpt lat="43.7907467" lon="12.6423083"><ele>118.0</ele><time>2026-04-12T08:31:18.026Z</time></trkpt><trkpt lat="43.7906767" lon="12.6421233"><ele>119.25</ele><time>2026-04-12T08:31:19.031Z</time></trkpt><trkpt lat="43.79061" lon="12.64193"><ele>120.5</ele><time>2026-04-12T08:31:20.032Z</time></trkpt><trkpt lat="43.7905533" lon="12.6417383"><ele>121.75</ele><time>2026-04-12T08:31:21.029Z</time></trkpt><trkpt lat="43.790505" lon="12.64155"><ele>123.0</ele><time>2026-04-12T08:31:22.034Z</time></trkpt><trkpt lat="43.790465" lon="12.6413683"><ele>123.0</ele><time>2026-04-12T08:31:23.025Z</time></trkpt><trkpt lat="43.79044" lon="12.6412017"><ele>123.00000000000001</ele><time>2026-04-12T08:31:24.027Z</time></trkpt><trkpt lat="43.7904317" lon="12.6410467"><ele>123.00000000000001</ele><time>2026-04-12T08:31:25.027Z</time></trkpt><trkpt lat="43.7904333" lon="12.6409133"><ele>123.0</ele><time>2026-04-12T08:31:26.032Z</time></trkpt><trkpt lat="43.7904283" lon="12.6407983"><ele>123.0</ele><time>2026-04-12T08:31:27.028Z</time></trkpt><trkpt lat="43.7904083" lon="12.6407"><ele>123.2</ele><time>2026-04-12T08:31:28.03Z</time></trkpt><trkpt lat="43.79037" lon="12.64062"><ele>123.4</ele><time>2026-04-12T08:31:29.033Z</time></trkpt><trkpt lat="43.79032" lon="12.6405633"><ele>123.60000000000001</ele><time>2026-04-12T08:31:30.028Z</time></trkpt><trkpt lat="43.79026" lon="12.64053"><ele>123.80000000000001</ele><time>2026-04-12T08:31:31.027Z</time></trkpt><trkpt lat="43.790145" lon="12.6404767"><ele>124.0</ele><time>2026-04-12T08:31:33.031Z</time></trkpt><trkpt lat="43.7900133" lon="12.6404717"><ele>122.2</ele><time>2026-04-12T08:31:35.029Z</time></trkpt><trkpt lat="43.78993" lon="12.6405033"><ele>120.4</ele><time>2026-04-12T08:31:36.03Z</time></trkpt><trkpt lat="43.7898333" lon="12.640555"><ele>118.6</ele><time>2026-04-12T08:31:37.027Z</time></trkpt><trkpt lat="43.78973" lon="12.6406083"><ele>116.8</ele><time>2026-04-12T08:31:38.026Z</time></trkpt><trkpt lat="43.7896233" lon="12.6406567"><ele>115.0</ele><time>2026-04-12T08:31:39.027Z</time></trkpt><trkpt lat="43.7895117" lon="12.6407083"><ele>115.0</ele><time>2026-04-12T08:31:40.028Z</time></trkpt><trkpt lat="43.7893933" lon="12.6407567"><ele>115.0</ele><time>2026-04-12T08:31:41.034Z</time></trkpt><trkpt lat="43.7892733" lon="12.6407983"><ele>115.0</ele><time>2026-04-12T08:31:42.03Z</time></trkpt><trkpt lat="43.78915" lon="12.6408317"><ele>115.0</ele><time>2026-04-12T08:31:43.028Z</time></trkpt><trkpt lat="43.7890267" lon="12.6408583"><ele>114.25</ele><time>2026-04-12T08:31:44.035Z</time></trkpt><trkpt lat="43.7888967" lon="12.6408683"><ele>113.5</ele><time>2026-04-12T08:31:45.027Z</time></trkpt><trkpt lat="43.7887617" lon="12.64088"><ele>112.75</ele><time>2026-04-12T08:31:46.029Z</time></trkpt><trkpt lat="43.788635" lon="12.6408883"><ele>112.0</ele><time>2026-04-12T08:31:47.028Z</time></trkpt><trkpt lat="43.7885117" lon="12.6409"><ele>111.0</ele><time>2026-04-12T08:31:48.029Z</time></trkpt><trkpt lat="43.7883883" lon="12.6409033"><ele>110.0</ele><time>2026-04-12T08:31:49.035Z</time></trkpt><trkpt lat="43.788265" lon="12.6409"><ele>109.0</ele><time>2026-04-12T08:31:50.027Z</time></trkpt><trkpt lat="43.7881417" lon="12.6408983"><ele>108.0</ele><time>2026-04-12T08:31:51.028Z</time></trkpt><trkpt lat="43.7880217" lon="12.6408983"><ele>108.0</ele><time>2026-04-12T08:31:52.033Z</time></trkpt><trkpt lat="43.78791" lon="12.64091"><ele>108.00000000000001</ele><time>2026-04-12T08:31:53.034Z</time></trkpt><trkpt lat="43.7878133" lon="12.6409433"><ele>108.00000000000001</ele><time>2026-04-12T08:31:54.026Z</time></trkpt><trkpt lat="43.7877317" lon="12.641005"><ele>108.0</ele><time>2026-04-12T08:31:55.033Z</time></trkpt><trkpt lat="43.7876617" lon="12.6410917"><ele>108.0</ele><time>2026-04-12T08:31:56.03Z</time></trkpt><trkpt lat="43.7875933" lon="12.6412067"><ele>108.0</ele><time>2026-04-12T08:31:57.029Z</time></trkpt><trkpt lat="43.78752" lon="12.6413333"><ele>108.0</ele><time>2026-04-12T08:31:58.028Z</time></trkpt><trkpt lat="43.7874433" lon="12.6414617"><ele>108.0</ele><time>2026-04-12T08:31:59.027Z</time></trkpt><trkpt lat="43.7873683" lon="12.64159"><ele>108.0</ele><time>2026-04-12T08:32:00.026Z</time></trkpt><trkpt lat="43.78729" lon="12.64172"><ele>108.0</ele><time>2026-04-12T08:32:01.026Z</time></trkpt><trkpt lat="43.7872033" lon="12.641845"><ele>108.0</ele><time>2026-04-12T08:32:02.032Z</time></trkpt><trkpt lat="43.78711" lon="12.6419817"><ele>108.0</ele><time>2026-04-12T08:32:03.029Z</time></trkpt><trkpt lat="43.7870167" lon="12.64212"><ele>108.0</ele><time>2026-04-12T08:32:04.026Z</time></trkpt><trkpt lat="43.786935" lon="12.642255"><ele>108.16666666666667</ele><time>2026-04-12T08:32:05.028Z</time></trkpt><trkpt lat="43.786865" lon="12.6423733"><ele>108.33333333333334</ele><time>2026-04-12T08:32:06.032Z</time></trkpt><trkpt lat="43.786815" lon="12.642465"><ele>108.5</ele><time>2026-04-12T08:32:07.033Z</time></trkpt><trkpt lat="43.7867683" lon="12.6425317"><ele>108.66666666666667</ele><time>2026-04-12T08:32:08.03Z</time></trkpt><trkpt lat="43.786675" lon="12.6425333"><ele>108.83333333333334</ele><time>2026-04-12T08:32:10.027Z</time></trkpt><trkpt lat="43.786615" lon="12.6424767"><ele>109.0</ele><time>2026-04-12T08:32:11.031Z</time></trkpt><trkpt lat="43.7865517" lon="12.642395"><ele>109.0</ele><time>2026-04-12T08:32:12.027Z</time></trkpt><trkpt lat="43.786475" lon="12.6422917"><ele>109.0</ele><time>2026-04-12T08:32:13.032Z</time></trkpt><trkpt lat="43.786395" lon="12.6421867"><ele>109.0</ele><time>2026-04-12T08:32:14.031Z</time></trkpt><trkpt lat="43.7863083" lon="12.6420867"><ele>109.0</ele><time>2026-04-12T08:32:15.031Z</time></trkpt><trkpt lat="43.7862183" lon="12.641985"><ele>109.0</ele><time>2026-04-12T08:32:16.041Z</time></trkpt><trkpt lat="43.786125" lon="12.641875"><ele>109.0</ele><time>2026-04-12T08:32:17.029Z</time></trkpt><trkpt lat="43.78603" lon="12.64176"><ele>109.0</ele><time>2026-04-12T08:32:18.028Z</time></trkpt><trkpt lat="43.7859367" lon="12.6416467"><ele>109.0</ele><time>2026-04-12T08:32:19.026Z</time></trkpt><trkpt lat="43.7858517" lon="12.6415467"><ele>109.0</ele><time>2026-04-12T08:32:20.028Z</time></trkpt><trkpt lat="43.7857717" lon="12.6414517"><ele>109.25</ele><time>2026-04-12T08:32:21.028Z</time></trkpt><trkpt lat="43.78569" lon="12.6413517"><ele>109.5</ele><time>2026-04-12T08:32:22.025Z</time></trkpt><trkpt lat="43.785595" lon="12.6412433"><ele>109.75</ele><time>2026-04-12T08:32:23.027Z</time></trkpt><trkpt lat="43.7854933" lon="12.6411267"><ele>110.0</ele><time>2026-04-12T08:32:24.026Z</time></trkpt><trkpt lat="43.7853917" lon="12.6410133"><ele>110.0</ele><time>2026-04-12T08:32:25.032Z</time></trkpt><trkpt lat="43.7853033" lon="12.6409083"><ele>110.0</ele><time>2026-04-12T08:32:26.035Z</time></trkpt><trkpt lat="43.785225" lon="12.6408117"><ele>110.0</ele><time>2026-04-12T08:32:27.029Z</time></trkpt><trkpt lat="43.7851567" lon="12.64073"><ele>110.0</ele><time>2026-04-12T08:32:28.028Z</time></trkpt><trkpt lat="43.7850933" lon="12.6406667"><ele>110.0</ele><time>2026-04-12T08:32:29.029Z</time></trkpt><trkpt lat="43.7850283" lon="12.6406333"><ele>109.8</ele><time>2026-04-12T08:32:30.029Z</time></trkpt><trkpt lat="43.7849117" lon="12.640655"><ele>109.6</ele><time>2026-04-12T08:32:32.032Z</time></trkpt><trkpt lat="43.784855" lon="12.6407083"><ele>109.4</ele><time>2026-04-12T08:32:33.031Z</time></trkpt><trkpt lat="43.7848017" lon="12.6407983"><ele>109.2</ele><time>2026-04-12T08:32:34.028Z</time></trkpt><trkpt lat="43.7847383" lon="12.6409133"><ele>109.0</ele><time>2026-04-12T08:32:35.029Z</time></trkpt><trkpt lat="43.78467" lon="12.6410283"><ele>109.2</ele><time>2026-04-12T08:32:36.027Z</time></trkpt><trkpt lat="43.7846017" lon="12.641145"><ele>109.4</ele><time>2026-04-12T08:32:37.028Z</time></trkpt><trkpt lat="43.784535" lon="12.64126"><ele>109.6</ele><time>2026-04-12T08:32:38.029Z</time></trkpt><trkpt lat="43.7844683" lon="12.6413667"><ele>109.8</ele><time>2026-04-12T08:32:39.03Z</time></trkpt><trkpt lat="43.7844017" lon="12.64147"><ele>110.0</ele><time>2026-04-12T08:32:40.033Z</time></trkpt><trkpt lat="43.78434" lon="12.64157"><ele>108.99999999999999</ele><time>2026-04-12T08:32:41.028Z</time></trkpt><trkpt lat="43.7842767" lon="12.6416717"><ele>108.0</ele><time>2026-04-12T08:32:42.029Z</time></trkpt><trkpt lat="43.784215" lon="12.64177"><ele>107.0</ele><time>2026-04-12T08:32:43.028Z</time></trkpt><trkpt lat="43.784155" lon="12.6418617"><ele>106.0</ele><time>2026-04-12T08:32:44.031Z</time></trkpt><trkpt lat="43.7840983" lon="12.6419483"><ele>104.99999999999999</ele><time>2026-04-12T08:32:45.028Z</time></trkpt><trkpt lat="43.784045" lon="12.64203"><ele>104.0</ele><time>2026-04-12T08:32:46.035Z</time></trkpt><trkpt lat="43.7839967" lon="12.6421117"><ele>103.33333333333333</ele><time>2026-04-12T08:32:47.029Z</time></trkpt><trkpt lat="43.7839567" lon="12.6421933"><ele>102.66666666666666</ele><time>2026-04-12T08:32:48.026Z</time></trkpt><trkpt lat="43.7839317" lon="12.642285"><ele>102.0</ele><time>2026-04-12T08:32:49.026Z</time></trkpt><trkpt lat="43.7839417" lon="12.6424533"><ele>101.33333333333334</ele><time>2026-04-12T08:32:51.03Z</time></trkpt><trkpt lat="43.783975" lon="12.6425483"><ele>100.66666666666667</ele><time>2026-04-12T08:32:52.033Z</time></trkpt><trkpt lat="43.7840233" lon="12.6426367"><ele>100.0</ele><time>2026-04-12T08:32:53.03Z</time></trkpt><trkpt lat="43.784085" lon="12.6427233"><ele>100.4</ele><time>2026-04-12T08:32:54.026Z</time></trkpt><trkpt lat="43.7841583" lon="12.642815"><ele>100.8</ele><time>2026-04-12T08:32:55.03Z</time></trkpt><trkpt lat="43.7842517" lon="12.6429"><ele>101.19999999999999</ele><time>2026-04-12T08:32:56.028Z</time></trkpt><trkpt lat="43.78435" lon="12.6429717"><ele>101.6</ele><time>2026-04-12T08:32:57.035Z</time></trkpt><trkpt lat="43.7844417" lon="12.6430383"><ele>102.0</ele><time>2026-04-12T08:32:58.032Z</time></trkpt><trkpt lat="43.7845233" lon="12.6431117"><ele>102.0</ele><time>2026-04-12T08:32:59.031Z</time></trkpt><trkpt lat="43.7845767" lon="12.6432033"><ele>102.0</ele><time>2026-04-12T08:33:00.027Z</time></trkpt><trkpt lat="43.7846083" lon="12.6432967"><ele>102.0</ele><time>2026-04-12T08:33:01.027Z</time></trkpt><trkpt lat="43.7846167" lon="12.6434033"><ele>102.0</ele><time>2026-04-12T08:33:02.026Z</time></trkpt><trkpt lat="43.78461" lon="12.6435233"><ele>102.0</ele><time>2026-04-12T08:33:03.034Z</time></trkpt><trkpt lat="43.7845833" lon="12.643665"><ele>102.0</ele><time>2026-04-12T08:33:04.027Z</time></trkpt><trkpt lat="43.7845517" lon="12.643815"><ele>100.8</ele><time>2026-04-12T08:33:05.03Z</time></trkpt><trkpt lat="43.7845233" lon="12.6439667"><ele>99.6</ele><time>2026-04-12T08:33:06.024Z</time></trkpt><trkpt lat="43.784495" lon="12.6441117"><ele>98.39999999999999</ele><time>2026-04-12T08:33:07.029Z</time></trkpt><trkpt lat="43.7844667" lon="12.644245"><ele>97.19999999999999</ele><time>2026-04-12T08:33:08.03Z</time></trkpt><trkpt lat="43.7844417" lon="12.644375"><ele>96.0</ele><time>2026-04-12T08:33:09.028Z</time></trkpt><trkpt lat="43.7844117" lon="12.6445083"><ele>95.8</ele><time>2026-04-12T08:33:10.031Z</time></trkpt><trkpt lat="43.7843867" lon="12.644635"><ele>95.6</ele><time>2026-04-12T08:33:11.027Z</time></trkpt><trkpt lat="43.7843583" lon="12.64476"><ele>95.4</ele><time>2026-04-12T08:33:12.027Z</time></trkpt><trkpt lat="43.7843317" lon="12.644885"><ele>95.2</ele><time>2026-04-12T08:33:13.029Z</time></trkpt><trkpt lat="43.7843033" lon="12.64501"><ele>95.0</ele><time>2026-04-12T08:33:14.027Z</time></trkpt><trkpt lat="43.7842783" lon="12.6451367"><ele>95.25</ele><time>2026-04-12T08:33:15.027Z</time></trkpt><trkpt lat="43.7842467" lon="12.6452633"><ele>95.5</ele><time>2026-04-12T08:33:16.03Z</time></trkpt><trkpt lat="43.7842083" lon="12.645395"><ele>95.75</ele><time>2026-04-12T08:33:17.028Z</time></trkpt><trkpt lat="43.7841433" lon="12.645525"><ele>96.0</ele><time>2026-04-12T08:33:18.029Z</time></trkpt><trkpt lat="43.7840417" lon="12.64566"><ele>96.0</ele><time>2026-04-12T08:33:19.027Z</time></trkpt><trkpt lat="43.783925" lon="12.6458"><ele>96.0</ele><time>2026-04-12T08:33:20.027Z</time></trkpt><trkpt lat="43.7838033" lon="12.6459333"><ele>96.0</ele><time>2026-04-12T08:33:21.029Z</time></trkpt><trkpt lat="43.7836867" lon="12.6460483"><ele>96.0</ele><time>2026-04-12T08:33:22.028Z</time></trkpt><trkpt lat="43.783575" lon="12.646145"><ele>96.0</ele><time>2026-04-12T08:33:23.027Z</time></trkpt><trkpt lat="43.7834767" lon="12.646225"><ele>96.0</ele><time>2026-04-12T08:33:24.029Z</time></trkpt><trkpt lat="43.783385" lon="12.64631"><ele>96.0</ele><time>2026-04-12T08:33:25.035Z</time></trkpt><trkpt lat="43.7832983" lon="12.6464067"><ele>97.25</ele><time>2026-04-12T08:33:26.033Z</time></trkpt><trkpt lat="43.7832267" lon="12.6465267"><ele>98.5</ele><time>2026-04-12T08:33:27.034Z</time></trkpt><trkpt lat="43.7831583" lon="12.646675"><ele>99.75</ele><time>2026-04-12T08:33:28.032Z</time></trkpt><trkpt lat="43.7830917" lon="12.6468617"><ele>101.0</ele><time>2026-04-12T08:33:29.028Z</time></trkpt><trkpt lat="43.7830283" lon="12.64707"><ele>101.0</ele><time>2026-04-12T08:33:30.033Z</time></trkpt><trkpt lat="43.7829683" lon="12.6472717"><ele>101.0</ele><time>2026-04-12T08:33:31.024Z</time></trkpt><trkpt lat="43.7829117" lon="12.64745"><ele>101.0</ele><time>2026-04-12T08:33:32.031Z</time></trkpt><trkpt lat="43.7828583" lon="12.64763"><ele>101.0</ele><time>2026-04-12T08:33:33.029Z</time></trkpt><trkpt lat="43.7828033" lon="12.6478017"><ele>100.75</ele><time>2026-04-12T08:33:34.029Z</time></trkpt><trkpt lat="43.7827517" lon="12.6479783"><ele>100.5</ele><time>2026-04-12T08:33:35.029Z</time></trkpt><trkpt lat="43.78269" lon="12.6481483"><ele>100.25</ele><time>2026-04-12T08:33:36.028Z</time></trkpt><trkpt lat="43.7826383" lon="12.6483067"><ele>100.0</ele><time>2026-04-12T08:33:37.029Z</time></trkpt><trkpt lat="43.782595" lon="12.64844"><ele>103.0</ele><time>2026-04-12T08:33:38.031Z</time></trkpt><trkpt lat="43.7825567" lon="12.6485617"><ele>106.0</ele><time>2026-04-12T08:33:39.029Z</time></trkpt><trkpt lat="43.782515" lon="12.6486833"><ele>109.0</ele><time>2026-04-12T08:33:40.028Z</time></trkpt><trkpt lat="43.78247" lon="12.648815"><ele>112.0</ele><time>2026-04-12T08:33:41.026Z</time></trkpt><trkpt lat="43.782425" lon="12.6489483"><ele>115.0</ele><time>2026-04-12T08:33:42.031Z</time></trkpt><trkpt lat="43.7823783" lon="12.6490883"><ele>115.0</ele><time>2026-04-12T08:33:43.027Z</time></trkpt><trkpt lat="43.7823283" lon="12.649235"><ele>115.0</ele><time>2026-04-12T08:33:44.033Z</time></trkpt><trkpt lat="43.7822817" lon="12.6493617"><ele>115.0</ele><time>2026-04-12T08:33:45.026Z</time></trkpt><trkpt lat="43.7822433" lon="12.6494633"><ele>115.0</ele><time>2026-04-12T08:33:46.025Z</time></trkpt><trkpt lat="43.7821667" lon="12.6495583"><ele>115.0</ele><time>2026-04-12T08:33:48.025Z</time></trkpt><trkpt lat="43.7820967" lon="12.6494983"><ele>115.0</ele><time>2026-04-12T08:33:50.028Z</time></trkpt><trkpt lat="43.7820583" lon="12.6493233"><ele>115.0</ele><time>2026-04-12T08:33:52.032Z</time></trkpt><trkpt lat="43.7820433" lon="12.6491933"><ele>115.0</ele><time>2026-04-12T08:33:53.025Z</time></trkpt><trkpt lat="43.7820383" lon="12.64902"><ele>115.0</ele><time>2026-04-12T08:33:54.029Z</time></trkpt><trkpt lat="43.7820217" lon="12.64881"><ele>115.25</ele><time>2026-04-12T08:33:55.025Z</time></trkpt><trkpt lat="43.782005" lon="12.648605"><ele>115.5</ele><time>2026-04-12T08:33:56.029Z</time></trkpt><trkpt lat="43.7819833" lon="12.6484167"><ele>115.75</ele><time>2026-04-12T08:33:57.029Z</time></trkpt><trkpt lat="43.78196" lon="12.64824"><ele>116.0</ele><time>2026-04-12T08:33:58.025Z</time></trkpt><trkpt lat="43.7819333" lon="12.6480733"><ele>116.0</ele><time>2026-04-12T08:33:59.026Z</time></trkpt><trkpt lat="43.781905" lon="12.6479067"><ele>116.0</ele><time>2026-04-12T08:34:00.029Z</time></trkpt><trkpt lat="43.7818683" lon="12.6477317"><ele>116.0</ele><time>2026-04-12T08:34:01.026Z</time></trkpt><trkpt lat="43.7818167" lon="12.6475483"><ele>116.0</ele><time>2026-04-12T08:34:02.031Z</time></trkpt><trkpt lat="43.7817617" lon="12.6473783"><ele>119.4</ele><time>2026-04-12T08:34:03.032Z</time></trkpt><trkpt lat="43.7817167" lon="12.6472283"><ele>122.8</ele><time>2026-04-12T08:34:04.026Z</time></trkpt><trkpt lat="43.78167" lon="12.6471017"><ele>126.20000000000002</ele><time>2026-04-12T08:34:05.028Z</time></trkpt><trkpt lat="43.7816233" lon="12.6469883"><ele>129.6</ele><time>2026-04-12T08:34:06.027Z</time></trkpt><trkpt lat="43.7815683" lon="12.6468867"><ele>133.0</ele><time>2026-04-12T08:34:07.032Z</time></trkpt><trkpt lat="43.781505" lon="12.64681"><ele>133.0</ele><time>2026-04-12T08:34:08.031Z</time></trkpt><trkpt lat="43.7814333" lon="12.6467517"><ele>133.0</ele><time>2026-04-12T08:34:09.025Z</time></trkpt><trkpt lat="43.7813617" lon="12.6467233"><ele>133.0</ele><time>2026-04-12T08:34:10.03Z</time></trkpt><trkpt lat="43.7812883" lon="12.6467283"><ele>133.0</ele><time>2026-04-12T08:34:11.026Z</time></trkpt><trkpt lat="43.7812083" lon="12.6467683"><ele>133.0</ele><time>2026-04-12T08:34:12.027Z</time></trkpt><trkpt lat="43.7811283" lon="12.6468383"><ele>133.0</ele><time>2026-04-12T08:34:13.027Z</time></trkpt><trkpt lat="43.78105" lon="12.646945"><ele>138.0</ele><time>2026-04-12T08:34:14.033Z</time></trkpt><trkpt lat="43.780965" lon="12.64708"><ele>143.0</ele><time>2026-04-12T08:34:15.027Z</time></trkpt><trkpt lat="43.7808767" lon="12.647225"><ele>148.0</ele><time>2026-04-12T08:34:16.028Z</time></trkpt><trkpt lat="43.7807933" lon="12.647355"><ele>153.0</ele><time>2026-04-12T08:34:17.029Z</time></trkpt><trkpt lat="43.7807067" lon="12.6474767"><ele>153.0</ele><time>2026-04-12T08:34:18.027Z</time></trkpt><trkpt lat="43.7806233" lon="12.6475867"><ele>153.0</ele><time>2026-04-12T08:34:19.029Z</time></trkpt><trkpt lat="43.7805383" lon="12.647695"><ele>153.0</ele><time>2026-04-12T08:34:20.037Z</time></trkpt><trkpt lat="43.7804533" lon="12.6478033"><ele>153.0</ele><time>2026-04-12T08:34:21.029Z</time></trkpt><trkpt lat="43.780365" lon="12.64789"><ele>153.33333333333334</ele><time>2026-04-12T08:34:22.032Z</time></trkpt><trkpt lat="43.780285" lon="12.64795"><ele>153.66666666666666</ele><time>2026-04-12T08:34:23.033Z</time></trkpt><trkpt lat="43.7802133" lon="12.6479817"><ele>154.0</ele><time>2026-04-12T08:34:24.027Z</time></trkpt><trkpt lat="43.7801467" lon="12.6479767"><ele>154.33333333333331</ele><time>2026-04-12T08:34:25.026Z</time></trkpt><trkpt lat="43.7800667" lon="12.6479517"><ele>154.66666666666666</ele><time>2026-04-12T08:34:26.026Z</time></trkpt><trkpt lat="43.779975" lon="12.647895"><ele>155.0</ele><time>2026-04-12T08:34:27.026Z</time></trkpt><trkpt lat="43.7798767" lon="12.6478233"><ele>156.8</ele><time>2026-04-12T08:34:28.028Z</time></trkpt><trkpt lat="43.7797883" lon="12.647755"><ele>158.6</ele><time>2026-04-12T08:34:29.026Z</time></trkpt><trkpt lat="43.7797033" lon="12.6477017"><ele>160.39999999999998</ele><time>2026-04-12T08:34:30.031Z</time></trkpt><trkpt lat="43.7796183" lon="12.6476667"><ele>162.2</ele><time>2026-04-12T08:34:31.035Z</time></trkpt><trkpt lat="43.7795267" lon="12.64765"><ele>164.0</ele><time>2026-04-12T08:34:32.031Z</time></trkpt><trkpt lat="43.7794367" lon="12.6476583"><ele>165.39999999999998</ele><time>2026-04-12T08:34:33.03Z</time></trkpt><trkpt lat="43.779345" lon="12.6476867"><ele>166.8</ele><time>2026-04-12T08:34:34.03Z</time></trkpt><trkpt lat="43.77925" lon="12.6477267"><ele>168.2</ele><time>2026-04-12T08:34:35.035Z</time></trkpt><trkpt lat="43.77915" lon="12.647785"><ele>169.60000000000002</ele><time>2026-04-12T08:34:36.031Z</time></trkpt><trkpt lat="43.779045" lon="12.64785"><ele>171.0</ele><time>2026-04-12T08:34:37.027Z</time></trkpt><trkpt lat="43.7789433" lon="12.6479283"><ele>174.25</ele><time>2026-04-12T08:34:38.03Z</time></trkpt><trkpt lat="43.7788417" lon="12.6480233"><ele>177.5</ele><time>2026-04-12T08:34:39.028Z</time></trkpt><trkpt lat="43.7787467" lon="12.6481183"><ele>180.75</ele><time>2026-04-12T08:34:40.03Z</time></trkpt><trkpt lat="43.778645" lon="12.648215"><ele>184.0</ele><time>2026-04-12T08:34:41.03Z</time></trkpt><trkpt lat="43.7785417" lon="12.6483083"><ele>185.25</ele><time>2026-04-12T08:34:42.026Z</time></trkpt><trkpt lat="43.778435" lon="12.648385"><ele>186.5</ele><time>2026-04-12T08:34:43.031Z</time></trkpt><trkpt lat="43.7783283" lon="12.6484367"><ele>187.75</ele><time>2026-04-12T08:34:44.036Z</time></trkpt><trkpt lat="43.7782117" lon="12.6484783"><ele>189.0</ele><time>2026-04-12T08:34:45.035Z</time></trkpt><trkpt lat="43.7780933" lon="12.64851"><ele>189.0</ele><time>2026-04-12T08:34:46.035Z</time></trkpt><trkpt lat="43.77797" lon="12.6485367"><ele>189.0</ele><time>2026-04-12T08:34:47.032Z</time></trkpt><trkpt lat="43.7778433" lon="12.648555"><ele>189.0</ele><time>2026-04-12T08:34:48.036Z</time></trkpt><trkpt lat="43.7777167" lon="12.6485683"><ele>189.0</ele><time>2026-04-12T08:34:49.037Z</time></trkpt><trkpt lat="43.777595" lon="12.6485767"><ele>188.5</ele><time>2026-04-12T08:34:50.032Z</time></trkpt><trkpt lat="43.7774767" lon="12.6485817"><ele>188.0</ele><time>2026-04-12T08:34:51.034Z</time></trkpt><trkpt lat="43.777355" lon="12.64859"><ele>187.5</ele><time>2026-04-12T08:34:52.033Z</time></trkpt><trkpt lat="43.7772333" lon="12.648595"><ele>187.0</ele><time>2026-04-12T08:34:53.032Z</time></trkpt><trkpt lat="43.7771067" lon="12.6485983"><ele>187.0</ele><time>2026-04-12T08:34:54.037Z</time></trkpt><trkpt lat="43.7769767" lon="12.648605"><ele>187.0</ele><time>2026-04-12T08:34:55.031Z</time></trkpt><trkpt lat="43.7768433" lon="12.648615"><ele>187.0</ele><time>2026-04-12T08:34:56.029Z</time></trkpt><trkpt lat="43.7767067" lon="12.6486267"><ele>187.0</ele><time>2026-04-12T08:34:57.027Z</time></trkpt><trkpt lat="43.776575" lon="12.6486383"><ele>188.5</ele><time>2026-04-12T08:34:58.03Z</time></trkpt><trkpt lat="43.776455" lon="12.6486483"><ele>190.0</ele><time>2026-04-12T08:34:59.029Z</time></trkpt><trkpt lat="43.77634" lon="12.64866"><ele>191.5</ele><time>2026-04-12T08:35:00.032Z</time></trkpt><trkpt lat="43.7762283" lon="12.6486733"><ele>193.0</ele><time>2026-04-12T08:35:01.029Z</time></trkpt><trkpt lat="43.77612" lon="12.64869"><ele>195.2</ele><time>2026-04-12T08:35:02.034Z</time></trkpt><trkpt lat="43.7760133" lon="12.6487117"><ele>197.4</ele><time>2026-04-12T08:35:03.031Z</time></trkpt><trkpt lat="43.7759067" lon="12.6487383"><ele>199.6</ele><time>2026-04-12T08:35:04.032Z</time></trkpt><trkpt lat="43.7758" lon="12.648765"><ele>201.79999999999998</ele><time>2026-04-12T08:35:05.029Z</time></trkpt><trkpt lat="43.775695" lon="12.6487933"><ele>204.0</ele><time>2026-04-12T08:35:06.025Z</time></trkpt><trkpt lat="43.7755833" lon="12.6488217"><ele>204.0</ele><time>2026-04-12T08:35:07.027Z</time></trkpt><trkpt lat="43.775455" lon="12.64885"><ele>204.0</ele><time>2026-04-12T08:35:08.031Z</time></trkpt><trkpt lat="43.77531" lon="12.6488817"><ele>204.0</ele><time>2026-04-12T08:35:09.032Z</time></trkpt><trkpt lat="43.775165" lon="12.64891"><ele>204.0</ele><time>2026-04-12T08:35:10.032Z</time></trkpt><trkpt lat="43.7750233" lon="12.6489383"><ele>204.25</ele><time>2026-04-12T08:35:11.031Z</time></trkpt><trkpt lat="43.774885" lon="12.64896"><ele>204.5</ele><time>2026-04-12T08:35:12.035Z</time></trkpt><trkpt lat="43.7747467" lon="12.6489817"><ele>204.75</ele><time>2026-04-12T08:35:13.032Z</time></trkpt><trkpt lat="43.774615" lon="12.6489983"><ele>205.0</ele><time>2026-04-12T08:35:14.028Z</time></trkpt><trkpt lat="43.774485" lon="12.6490117"><ele>205.0</ele><time>2026-04-12T08:35:15.03Z</time></trkpt><trkpt lat="43.774355" lon="12.6490233"><ele>205.0</ele><time>2026-04-12T08:35:16.032Z</time></trkpt><trkpt lat="43.7742233" lon="12.64904"><ele>205.0</ele><time>2026-04-12T08:35:17.031Z</time></trkpt><trkpt lat="43.7740883" lon="12.64906"><ele>205.0</ele><time>2026-04-12T08:35:18.028Z</time></trkpt><trkpt lat="43.773955" lon="12.6490783"><ele>203.0</ele><time>2026-04-12T08:35:19.033Z</time></trkpt><trkpt lat="43.77382" lon="12.649095"><ele>201.0</ele><time>2026-04-12T08:35:20.032Z</time></trkpt><trkpt lat="43.773685" lon="12.6491117"><ele>199.0</ele><time>2026-04-12T08:35:21.034Z</time></trkpt><trkpt lat="43.77355" lon="12.6491283"><ele>197.0</ele><time>2026-04-12T08:35:22.034Z</time></trkpt><trkpt lat="43.7734167" lon="12.6491467"><ele>197.0</ele><time>2026-04-12T08:35:23.031Z</time></trkpt><trkpt lat="43.77328" lon="12.6491633"><ele>197.0</ele><time>2026-04-12T08:35:24.033Z</time></trkpt><trkpt lat="43.7731433" lon="12.6491733"><ele>197.0</ele><time>2026-04-12T08:35:25.03Z</time></trkpt><trkpt lat="43.7730083" lon="12.6491867"><ele>197.0</ele><time>2026-04-12T08:35:26.029Z</time></trkpt><trkpt lat="43.7728767" lon="12.6492033"><ele>197.0</ele><time>2026-04-12T08:35:27.032Z</time></trkpt><trkpt lat="43.7727467" lon="12.6492217"><ele>197.0</ele><time>2026-04-12T08:35:28.031Z</time></trkpt><trkpt lat="43.7726183" lon="12.64924"><ele>197.0</ele><time>2026-04-12T08:35:29.03Z</time></trkpt><trkpt lat="43.77249" lon="12.6492567"><ele>197.0</ele><time>2026-04-12T08:35:30.034Z</time></trkpt><trkpt lat="43.7723633" lon="12.6492767"><ele>197.0</ele><time>2026-04-12T08:35:31.028Z</time></trkpt><trkpt lat="43.7722383" lon="12.6492933"><ele>197.0</ele><time>2026-04-12T08:35:32.03Z</time></trkpt><trkpt lat="43.7721167" lon="12.6493067"><ele>197.0</ele><time>2026-04-12T08:35:33.029Z</time></trkpt><trkpt lat="43.772" lon="12.6493133"><ele>197.0</ele><time>2026-04-12T08:35:34.028Z</time></trkpt><trkpt lat="43.7718817" lon="12.6493183"><ele>199.0</ele><time>2026-04-12T08:35:35.029Z</time></trkpt><trkpt lat="43.7717583" lon="12.6493283"><ele>201.0</ele><time>2026-04-12T08:35:36.028Z</time></trkpt><trkpt lat="43.7716317" lon="12.6493467"><ele>203.0</ele><time>2026-04-12T08:35:37.027Z</time></trkpt><trkpt lat="43.7715067" lon="12.6493633"><ele>205.0</ele><time>2026-04-12T08:35:38.034Z</time></trkpt><trkpt lat="43.7713767" lon="12.6493867"><ele>205.0</ele><time>2026-04-12T08:35:39.033Z</time></trkpt><trkpt lat="43.7712333" lon="12.6494267"><ele>205.0</ele><time>2026-04-12T08:35:40.032Z</time></trkpt><trkpt lat="43.771095" lon="12.6494733"><ele>205.0</ele><time>2026-04-12T08:35:41.029Z</time></trkpt><trkpt lat="43.7709633" lon="12.6495083"><ele>205.0</ele><time>2026-04-12T08:35:42.031Z</time></trkpt><trkpt lat="43.7708367" lon="12.6495367"><ele>205.25</ele><time>2026-04-12T08:35:43.024Z</time></trkpt><trkpt lat="43.770715" lon="12.6495517"><ele>205.5</ele><time>2026-04-12T08:35:44.029Z</time></trkpt><trkpt lat="43.770595" lon="12.649545"><ele>205.75</ele><time>2026-04-12T08:35:45.029Z</time></trkpt><trkpt lat="43.7704733" lon="12.6495167"><ele>206.0</ele><time>2026-04-12T08:35:46.03Z</time></trkpt><trkpt lat="43.7703583" lon="12.64945"><ele>207.0</ele><time>2026-04-12T08:35:47.029Z</time></trkpt><trkpt lat="43.77024" lon="12.649355"><ele>208.0</ele><time>2026-04-12T08:35:48.03Z</time></trkpt><trkpt lat="43.7701067" lon="12.6492467"><ele>209.0</ele><time>2026-04-12T08:35:49.026Z</time></trkpt><trkpt lat="43.769955" lon="12.6491217"><ele>212.33333333333334</ele><time>2026-04-12T08:35:50.029Z</time></trkpt><trkpt lat="43.7697933" lon="12.6489967"><ele>215.66666666666669</ele><time>2026-04-12T08:35:51.033Z</time></trkpt><trkpt lat="43.7696217" lon="12.6488817"><ele>219.0</ele><time>2026-04-12T08:35:52.036Z</time></trkpt><trkpt lat="43.7694467" lon="12.6487767"><ele>222.0</ele><time>2026-04-12T08:35:53.034Z</time></trkpt><trkpt lat="43.76928" lon="12.6486817"><ele>225.0</ele><time>2026-04-12T08:35:54.033Z</time></trkpt><trkpt lat="43.7691283" lon="12.6485933"><ele>228.0</ele><time>2026-04-12T08:35:55.031Z</time></trkpt><trkpt lat="43.7689883" lon="12.6485"><ele>228.0</ele><time>2026-04-12T08:35:56.032Z</time></trkpt><trkpt lat="43.768865" lon="12.6483867"><ele>228.0</ele><time>2026-04-12T08:35:57.029Z</time></trkpt><trkpt lat="43.7687667" lon="12.64828"><ele>228.0</ele><time>2026-04-12T08:35:58.03Z</time></trkpt><trkpt lat="43.7686867" lon="12.64819"><ele>228.0</ele><time>2026-04-12T08:35:59.027Z</time></trkpt><trkpt lat="43.768615" lon="12.648125"><ele>228.0</ele><time>2026-04-12T08:36:00.029Z</time></trkpt><trkpt lat="43.7685433" lon="12.6480733"><ele>228.0</ele><time>2026-04-12T08:36:01.029Z</time></trkpt><trkpt lat="43.76847" lon="12.64804"><ele>228.0</ele><time>2026-04-12T08:36:02.028Z</time></trkpt><trkpt lat="43.7683917" lon="12.6480317"><ele>228.0</ele><time>2026-04-12T08:36:03.027Z</time></trkpt><trkpt lat="43.768315" lon="12.6480567"><ele>228.0</ele><time>2026-04-12T08:36:04.028Z</time></trkpt><trkpt lat="43.7682533" lon="12.64812"><ele>228.0</ele><time>2026-04-12T08:36:05.03Z</time></trkpt><trkpt lat="43.7682083" lon="12.6482117"><ele>230.0</ele><time>2026-04-12T08:36:06.027Z</time></trkpt><trkpt lat="43.768185" lon="12.6483383"><ele>232.0</ele><time>2026-04-12T08:36:07.031Z</time></trkpt><trkpt lat="43.7681617" lon="12.648485"><ele>234.0</ele><time>2026-04-12T08:36:08.027Z</time></trkpt><trkpt lat="43.7681317" lon="12.6486267"><ele>236.0</ele><time>2026-04-12T08:36:09.028Z</time></trkpt><trkpt lat="43.7680767" lon="12.6487517"><ele>238.0</ele><time>2026-04-12T08:36:10.031Z</time></trkpt><trkpt lat="43.7679883" lon="12.6488733"><ele>238.0</ele><time>2026-04-12T08:36:11.03Z</time></trkpt><trkpt lat="43.7678717" lon="12.649"><ele>238.0</ele><time>2026-04-12T08:36:12.033Z</time></trkpt><trkpt lat="43.7677433" lon="12.6491283"><ele>238.0</ele><time>2026-04-12T08:36:13.031Z</time></trkpt><trkpt lat="43.7676233" lon="12.6492417"><ele>240.0</ele><time>2026-04-12T08:36:14.034Z</time></trkpt><trkpt lat="43.767505" lon="12.6493383"><ele>242.0</ele><time>2026-04-12T08:36:15.031Z</time></trkpt><trkpt lat="43.7673883" lon="12.6494217"><ele>244.0</ele><time>2026-04-12T08:36:16.031Z</time></trkpt><trkpt lat="43.7672683" lon="12.649495"><ele>246.0</ele><time>2026-04-12T08:36:17.028Z</time></trkpt><trkpt lat="43.7671433" lon="12.649555"><ele>246.0</ele><time>2026-04-12T08:36:18.028Z</time></trkpt><trkpt lat="43.7670117" lon="12.6496117"><ele>246.0</ele><time>2026-04-12T08:36:19.027Z</time></trkpt><trkpt lat="43.7668833" lon="12.64966"><ele>246.0</ele><time>2026-04-12T08:36:20.028Z</time></trkpt><trkpt lat="43.7667517" lon="12.6497067"><ele>246.0</ele><time>2026-04-12T08:36:21.029Z</time></trkpt><trkpt lat="43.76662" lon="12.649755"><ele>249.75</ele><time>2026-04-12T08:36:22.036Z</time></trkpt><trkpt lat="43.7664817" lon="12.6498083"><ele>253.5</ele><time>2026-04-12T08:36:23.03Z</time></trkpt><trkpt lat="43.7663467" lon="12.6498583"><ele>257.25</ele><time>2026-04-12T08:36:24.031Z</time></trkpt><trkpt lat="43.7662167" lon="12.649905"><ele>261.0</ele><time>2026-04-12T08:36:25.032Z</time></trkpt><trkpt lat="43.7660883" lon="12.64995"><ele>264.75</ele><time>2026-04-12T08:36:26.026Z</time></trkpt><trkpt lat="43.7659567" lon="12.649995"><ele>268.5</ele><time>2026-04-12T08:36:27.029Z</time></trkpt><trkpt lat="43.76581" lon="12.6500483"><ele>272.25</ele><time>2026-04-12T08:36:28.026Z</time></trkpt><trkpt lat="43.7656667" lon="12.650105"><ele>276.0</ele><time>2026-04-12T08:36:29.025Z</time></trkpt><trkpt lat="43.76554" lon="12.65016"><ele>276.0</ele><time>2026-04-12T08:36:30.026Z</time></trkpt><trkpt lat="43.7654217" lon="12.6502117"><ele>276.0</ele><time>2026-04-12T08:36:31.027Z</time></trkpt><trkpt lat="43.7653133" lon="12.650255"><ele>276.0</ele><time>2026-04-12T08:36:32.029Z</time></trkpt><trkpt lat="43.765215" lon="12.6502867"><ele>276.0</ele><time>2026-04-12T08:36:33.026Z</time></trkpt><trkpt lat="43.7651367" lon="12.65031"><ele>276.0</ele><time>2026-04-12T08:36:34.032Z</time></trkpt><trkpt lat="43.76507" lon="12.6503133"><ele>279.6</ele><time>2026-04-12T08:36:35.027Z</time></trkpt><trkpt lat="43.76496" lon="12.6502417"><ele>283.20000000000005</ele><time>2026-04-12T08:36:37.028Z</time></trkpt><trkpt lat="43.764905" lon="12.6500867"><ele>286.79999999999995</ele><time>2026-04-12T08:36:39.032Z</time></trkpt><trkpt lat="43.76493" lon="12.6499683"><ele>290.4</ele><time>2026-04-12T08:36:40.03Z</time></trkpt><trkpt lat="43.76496" lon="12.649865"><ele>294.0</ele><time>2026-04-12T08:36:41.033Z</time></trkpt><trkpt lat="43.7650067" lon="12.6497567"><ele>294.0</ele><time>2026-04-12T08:36:42.033Z</time></trkpt><trkpt lat="43.7650733" lon="12.6496417"><ele>294.0</ele><time>2026-04-12T08:36:43.031Z</time></trkpt><trkpt lat="43.7651833" lon="12.6495483"><ele>294.0</ele><time>2026-04-12T08:36:44.027Z</time></trkpt><trkpt lat="43.76529" lon="12.6494617"><ele>294.0</ele><time>2026-04-12T08:36:45.028Z</time></trkpt><trkpt lat="43.765395" lon="12.6493817"><ele>294.0</ele><time>2026-04-12T08:36:46.028Z</time></trkpt><trkpt lat="43.7654983" lon="12.6492933"><ele>294.0</ele><time>2026-04-12T08:36:47.03Z</time></trkpt><trkpt lat="43.7655883" lon="12.6491983"><ele>294.0</ele><time>2026-04-12T08:36:48.026Z</time></trkpt><trkpt lat="43.7656733" lon="12.6490917"><ele>294.0</ele><time>2026-04-12T08:36:49.03Z</time></trkpt><trkpt lat="43.765745" lon="12.64895"><ele>294.0</ele><time>2026-04-12T08:36:50.033Z</time></trkpt><trkpt lat="43.765815" lon="12.6488083"><ele>294.0</ele><time>2026-04-12T08:36:51.026Z</time></trkpt><trkpt lat="43.76588" lon="12.6486733"><ele>294.0</ele><time>2026-04-12T08:36:52.027Z</time></trkpt><trkpt lat="43.76592" lon="12.6485667"><ele>294.0</ele><time>2026-04-12T08:36:53.027Z</time></trkpt><trkpt lat="43.7659467" lon="12.6484717"><ele>294.0</ele><time>2026-04-12T08:36:54.029Z</time></trkpt><trkpt lat="43.7659667" lon="12.648385"><ele>295.5</ele><time>2026-04-12T08:36:55.028Z</time></trkpt><trkpt lat="43.7659783" lon="12.6482917"><ele>297.0</ele><time>2026-04-12T08:36:56.031Z</time></trkpt><trkpt lat="43.7659717" lon="12.6481333"><ele>298.5</ele><time>2026-04-12T08:36:58.03Z</time></trkpt><trkpt lat="43.7659617" lon="12.6480433"><ele>300.0</ele><time>2026-04-12T08:36:59.036Z</time></trkpt><trkpt lat="43.7659517" lon="12.6479483"><ele>301.5</ele><time>2026-04-12T08:37:00.03Z</time></trkpt><trkpt lat="43.7659383" lon="12.6478517"><ele>303.0</ele><time>2026-04-12T08:37:01.029Z</time></trkpt><trkpt lat="43.7659183" lon="12.6477483"><ele>303.0</ele><time>2026-04-12T08:37:02.034Z</time></trkpt><trkpt lat="43.7658917" lon="12.6476433"><ele>303.0</ele><time>2026-04-12T08:37:03.03Z</time></trkpt><trkpt lat="43.765855" lon="12.6475333"><ele>303.0</ele><time>2026-04-12T08:37:04.029Z</time></trkpt><trkpt lat="43.7658083" lon="12.64742"><ele>303.0</ele><time>2026-04-12T08:37:05.033Z</time></trkpt><trkpt lat="43.7657433" lon="12.647295"><ele>303.0</ele><time>2026-04-12T08:37:06.028Z</time></trkpt><trkpt lat="43.765675" lon="12.6471733"><ele>303.0</ele><time>2026-04-12T08:37:07.028Z</time></trkpt><trkpt lat="43.7656" lon="12.64705"><ele>303.0</ele><time>2026-04-12T08:37:08.031Z</time></trkpt><trkpt lat="43.7655167" lon="12.646925"><ele>303.0</ele><time>2026-04-12T08:37:09.031Z</time></trkpt><trkpt lat="43.76543" lon="12.6467917"><ele>303.0</ele><time>2026-04-12T08:37:10.032Z</time></trkpt><trkpt lat="43.765335" lon="12.6466583"><ele>300.75</ele><time>2026-04-12T08:37:11.029Z</time></trkpt><trkpt lat="43.76524" lon="12.6465233"><ele>298.5</ele><time>2026-04-12T08:37:12.031Z</time></trkpt><trkpt lat="43.7651517" lon="12.6464017"><ele>296.25</ele><time>2026-04-12T08:37:13.033Z</time></trkpt><trkpt lat="43.7650767" lon="12.646295"><ele>294.0</ele><time>2026-04-12T08:37:14.033Z</time></trkpt><trkpt lat="43.765015" lon="12.64621"><ele>296.5</ele><time>2026-04-12T08:37:15.03Z</time></trkpt><trkpt lat="43.7649583" lon="12.6461417"><ele>299.0</ele><time>2026-04-12T08:37:16.033Z</time></trkpt><trkpt lat="43.764905" lon="12.6460917"><ele>301.5</ele><time>2026-04-12T08:37:17.025Z</time></trkpt><trkpt lat="43.7647867" lon="12.6460733"><ele>304.0</ele><time>2026-04-12T08:37:19.032Z</time></trkpt><trkpt lat="43.76472" lon="12.6460917"><ele>306.5</ele><time>2026-04-12T08:37:20.035Z</time></trkpt><trkpt lat="43.7646333" lon="12.646125"><ele>309.0</ele><time>2026-04-12T08:37:21.033Z</time></trkpt><trkpt lat="43.7645283" lon="12.6461633"><ele>310.0</ele><time>2026-04-12T08:37:22.027Z</time></trkpt><trkpt lat="43.764425" lon="12.6461833"><ele>311.0</ele><time>2026-04-12T08:37:23.029Z</time></trkpt><trkpt lat="43.7643233" lon="12.6462"><ele>312.0</ele><time>2026-04-12T08:37:24.034Z</time></trkpt><trkpt lat="43.76423" lon="12.6462233"><ele>313.0</ele><time>2026-04-12T08:37:25.03Z</time></trkpt><trkpt lat="43.76414" lon="12.6462467"><ele>314.0</ele><time>2026-04-12T08:37:26.029Z</time></trkpt><trkpt lat="43.764045" lon="12.6462767"><ele>317.6</ele><time>2026-04-12T08:37:27.032Z</time></trkpt><trkpt lat="43.7639483" lon="12.6463083"><ele>321.2</ele><time>2026-04-12T08:37:28.027Z</time></trkpt><trkpt lat="43.7638467" lon="12.64634"><ele>324.8</ele><time>2026-04-12T08:37:29.028Z</time></trkpt><trkpt lat="43.7637467" lon="12.64638"><ele>328.40000000000003</ele><time>2026-04-12T08:37:30.029Z</time></trkpt><trkpt lat="43.7636483" lon="12.6464217"><ele>332.0</ele><time>2026-04-12T08:37:31.03Z</time></trkpt><trkpt lat="43.7635517" lon="12.64646"><ele>335.20000000000005</ele><time>2026-04-12T08:37:32.03Z</time></trkpt><trkpt lat="43.7634483" lon="12.6464933"><ele>338.4</ele><time>2026-04-12T08:37:33.031Z</time></trkpt><trkpt lat="43.7633433" lon="12.6465233"><ele>341.6</ele><time>2026-04-12T08:37:34.035Z</time></trkpt><trkpt lat="43.7632417" lon="12.6465417"><ele>344.79999999999995</ele><time>2026-04-12T08:37:35.028Z</time></trkpt><trkpt lat="43.763135" lon="12.646545"><ele>348.0</ele><time>2026-04-12T08:37:36.026Z</time></trkpt><trkpt lat="43.763015" lon="12.64655"><ele>348.0</ele><time>2026-04-12T08:37:37.028Z</time></trkpt><trkpt lat="43.762885" lon="12.6465367"><ele>348.0</ele><time>2026-04-12T08:37:38.032Z</time></trkpt><trkpt lat="43.76274" lon="12.6465233"><ele>348.0</ele><time>2026-04-12T08:37:39.032Z</time></trkpt><trkpt lat="43.7625883" lon="12.6464967"><ele>348.0</ele><time>2026-04-12T08:37:40.028Z</time></trkpt><trkpt lat="43.7624283" lon="12.6464483"><ele>351.0</ele><time>2026-04-12T08:37:41.025Z</time></trkpt><trkpt lat="43.76228" lon="12.6464033"><ele>354.0</ele><time>2026-04-12T08:37:42.028Z</time></trkpt><trkpt lat="43.76215" lon="12.64636"><ele>357.0</ele><time>2026-04-12T08:37:43.027Z</time></trkpt><trkpt lat="43.7620333" lon="12.6463233"><ele>360.0</ele><time>2026-04-12T08:37:44.03Z</time></trkpt><trkpt lat="43.7619317" lon="12.64628"><ele>360.8</ele><time>2026-04-12T08:37:45.03Z</time></trkpt><trkpt lat="43.7618367" lon="12.6462283"><ele>361.6</ele><time>2026-04-12T08:37:46.025Z</time></trkpt><trkpt lat="43.761745" lon="12.6461767"><ele>362.4</ele><time>2026-04-12T08:37:47.032Z</time></trkpt><trkpt lat="43.7616517" lon="12.6461133"><ele>363.2</ele><time>2026-04-12T08:37:48.03Z</time></trkpt><trkpt lat="43.7615617" lon="12.6460667"><ele>364.0</ele><time>2026-04-12T08:37:49.031Z</time></trkpt><trkpt lat="43.7614833" lon="12.646035"><ele>364.0</ele><time>2026-04-12T08:37:50.029Z</time></trkpt><trkpt lat="43.7614183" lon="12.6460083"><ele>364.0</ele><time>2026-04-12T08:37:51.031Z</time></trkpt><trkpt lat="43.7613217" lon="12.6460267"><ele>364.0</ele><time>2026-04-12T08:37:53.031Z</time></trkpt><trkpt lat="43.76128" lon="12.6461333"><ele>364.0</ele><time>2026-04-12T08:37:55.03Z</time></trkpt><trkpt lat="43.761345" lon="12.6462717"><ele>364.0</ele><time>2026-04-12T08:37:57.031Z</time></trkpt><trkpt lat="43.76141" lon="12.646345"><ele>367.2</ele><time>2026-04-12T08:37:58.03Z</time></trkpt><trkpt lat="43.76149" lon="12.6464067"><ele>370.4</ele><time>2026-04-12T08:37:59.026Z</time></trkpt><trkpt lat="43.761555" lon="12.6464717"><ele>373.6</ele><time>2026-04-12T08:38:00.032Z</time></trkpt><trkpt lat="43.7616083" lon="12.64661"><ele>376.8</ele><time>2026-04-12T08:38:02.028Z</time></trkpt><trkpt lat="43.761525" lon="12.6467217"><ele>380.0</ele><time>2026-04-12T08:38:04.031Z</time></trkpt><trkpt lat="43.7614583" lon="12.6467483"><ele>380.0</ele><time>2026-04-12T08:38:05.027Z</time></trkpt><trkpt lat="43.7613517" lon="12.6467517"><ele>380.0</ele><time>2026-04-12T08:38:07.029Z</time></trkpt><trkpt lat="43.7612717" lon="12.6466417"><ele>380.0</ele><time>2026-04-12T08:38:09.031Z</time></trkpt><trkpt lat="43.761235" lon="12.64655"><ele>380.0</ele><time>2026-04-12T08:38:10.029Z</time></trkpt><trkpt lat="43.7612" lon="12.6464483"><ele>380.0</ele><time>2026-04-12T08:38:11.03Z</time></trkpt><trkpt lat="43.7611583" lon="12.64634"><ele>380.0</ele><time>2026-04-12T08:38:12.032Z</time></trkpt><trkpt lat="43.7611083" lon="12.646225"><ele>380.0</ele><time>2026-04-12T08:38:13.027Z</time></trkpt><trkpt lat="43.761055" lon="12.64611"><ele>380.0</ele><time>2026-04-12T08:38:14.028Z</time></trkpt><trkpt lat="43.760995" lon="12.6460033"><ele>380.0</ele><time>2026-04-12T08:38:15.027Z</time></trkpt><trkpt lat="43.7609283" lon="12.645905"><ele>380.0</ele><time>2026-04-12T08:38:16.032Z</time></trkpt><trkpt lat="43.7608617" lon="12.6458117"><ele>380.6</ele><time>2026-04-12T08:38:17.028Z</time></trkpt><trkpt lat="43.760795" lon="12.645725"><ele>381.2</ele><time>2026-04-12T08:38:18.027Z</time></trkpt><trkpt lat="43.7607283" lon="12.64564"><ele>381.79999999999995</ele><time>2026-04-12T08:38:19.026Z</time></trkpt><trkpt lat="43.760655" lon="12.645555"><ele>382.4</ele><time>2026-04-12T08:38:20.028Z</time></trkpt><trkpt lat="43.76058" lon="12.6454683"><ele>383.0</ele><time>2026-04-12T08:38:21.027Z</time></trkpt><trkpt lat="43.7605067" lon="12.6453883"><ele>383.0</ele><time>2026-04-12T08:38:22.03Z</time></trkpt><trkpt lat="43.7604367" lon="12.6453117"><ele>383.0</ele><time>2026-04-12T08:38:23.03Z</time></trkpt><trkpt lat="43.76036" lon="12.6452467"><ele>383.0</ele><time>2026-04-12T08:38:24.026Z</time></trkpt><trkpt lat="43.760285" lon="12.6451883"><ele>383.0</ele><time>2026-04-12T08:38:25.025Z</time></trkpt><trkpt lat="43.760205" lon="12.645125"><ele>383.0</ele><time>2026-04-12T08:38:26.033Z</time></trkpt><trkpt lat="43.760125" lon="12.6450533"><ele>384.0</ele><time>2026-04-12T08:38:27.027Z</time></trkpt><trkpt lat="43.7600367" lon="12.6449833"><ele>385.0</ele><time>2026-04-12T08:38:28.029Z</time></trkpt><trkpt lat="43.7599433" lon="12.644915"><ele>386.0</ele><time>2026-04-12T08:38:29.028Z</time></trkpt><trkpt lat="43.7598467" lon="12.6448517"><ele>387.0</ele><time>2026-04-12T08:38:30.029Z</time></trkpt><trkpt lat="43.75975" lon="12.6447933"><ele>388.0</ele><time>2026-04-12T08:38:31.032Z</time></trkpt><trkpt lat="43.7596517" lon="12.6447333"><ele>388.0</ele><time>2026-04-12T08:38:32.028Z</time></trkpt><trkpt lat="43.7595483" lon="12.6446817"><ele>388.0</ele><time>2026-04-12T08:38:33.026Z</time></trkpt><trkpt lat="43.7594433" lon="12.64463"><ele>388.0</ele><time>2026-04-12T08:38:34.031Z</time></trkpt><trkpt lat="43.7593417" lon="12.6445783"><ele>388.0</ele><time>2026-04-12T08:38:35.028Z</time></trkpt><trkpt lat="43.7592383" lon="12.6445217"><ele>388.0</ele><time>2026-04-12T08:38:36.03Z</time></trkpt><trkpt lat="43.75914" lon="12.6444583"><ele>390.25</ele><time>2026-04-12T08:38:37.03Z</time></trkpt><trkpt lat="43.7590433" lon="12.6443783"><ele>392.5</ele><time>2026-04-12T08:38:38.03Z</time></trkpt><trkpt lat="43.7589483" lon="12.6442867"><ele>394.75</ele><time>2026-04-12T08:38:39.026Z</time></trkpt><trkpt lat="43.75886" lon="12.6441983"><ele>397.0</ele><time>2026-04-12T08:38:40.03Z</time></trkpt><trkpt lat="43.758775" lon="12.644095"><ele>397.0</ele><time>2026-04-12T08:38:41.03Z</time></trkpt><trkpt lat="43.7586933" lon="12.6439883"><ele>397.0</ele><time>2026-04-12T08:38:42.029Z</time></trkpt><trkpt lat="43.7586083" lon="12.6438867"><ele>397.0</ele><time>2026-04-12T08:38:43.028Z</time></trkpt><trkpt lat="43.75852" lon="12.6437833"><ele>397.0</ele><time>2026-04-12T08:38:44.029Z</time></trkpt><trkpt lat="43.7584333" lon="12.6436767"><ele>398.75</ele><time>2026-04-12T08:38:45.033Z</time></trkpt><trkpt lat="43.758345" lon="12.643565"><ele>400.5</ele><time>2026-04-12T08:38:46.035Z</time></trkpt><trkpt lat="43.7582583" lon="12.6434617"><ele>402.25</ele><time>2026-04-12T08:38:47.029Z</time></trkpt><trkpt lat="43.7581683" lon="12.64337"><ele>404.0</ele><time>2026-04-12T08:38:48.029Z</time></trkpt><trkpt lat="43.7580733" lon="12.6432783"><ele>404.0</ele><time>2026-04-12T08:38:49.029Z</time></trkpt><trkpt lat="43.7579633" lon="12.6431983"><ele>404.0</ele><time>2026-04-12T08:38:50.025Z</time></trkpt><trkpt lat="43.7578367" lon="12.643125"><ele>404.0</ele><time>2026-04-12T08:38:51.037Z</time></trkpt><trkpt lat="43.7577033" lon="12.643045"><ele>404.0</ele><time>2026-04-12T08:38:52.029Z</time></trkpt><trkpt lat="43.75757" lon="12.6429633"><ele>404.0</ele><time>2026-04-12T08:38:53.026Z</time></trkpt><trkpt lat="43.75744" lon="12.64289"><ele>404.0</ele><time>2026-04-12T08:38:54.027Z</time></trkpt><trkpt lat="43.7573117" lon="12.6428317"><ele>404.0</ele><time>2026-04-12T08:38:55.029Z</time></trkpt><trkpt lat="43.7572" lon="12.6427683"><ele>404.0</ele><time>2026-04-12T08:38:56.027Z</time></trkpt><trkpt lat="43.757095" lon="12.6427083"><ele>402.0</ele><time>2026-04-12T08:38:57.03Z</time></trkpt><trkpt lat="43.7569917" lon="12.6426517"><ele>400.0</ele><time>2026-04-12T08:38:58.03Z</time></trkpt><trkpt lat="43.7569017" lon="12.6425967"><ele>398.0</ele><time>2026-04-12T08:38:59.028Z</time></trkpt><trkpt lat="43.7568183" lon="12.64254"><ele>396.0</ele><time>2026-04-12T08:39:00.032Z</time></trkpt><trkpt lat="43.7567217" lon="12.6424783"><ele>394.0</ele><time>2026-04-12T08:39:01.029Z</time></trkpt><trkpt lat="43.7566083" lon="12.6424"><ele>394.0</ele><time>2026-04-12T08:39:02.031Z</time></trkpt><trkpt lat="43.7564767" lon="12.64231"><ele>394.0</ele><time>2026-04-12T08:39:03.033Z</time></trkpt><trkpt lat="43.7563333" lon="12.642215"><ele>394.0</ele><time>2026-04-12T08:39:04.033Z</time></trkpt><trkpt lat="43.7561883" lon="12.6421167"><ele>394.0</ele><time>2026-04-12T08:39:05.028Z</time></trkpt><trkpt lat="43.7560533" lon="12.64202"><ele>394.0</ele><time>2026-04-12T08:39:06.028Z</time></trkpt><trkpt lat="43.7559267" lon="12.641925"><ele>394.0</ele><time>2026-04-12T08:39:07.03Z</time></trkpt><trkpt lat="43.7558083" lon="12.6418333"><ele>394.0</ele><time>2026-04-12T08:39:08.029Z</time></trkpt><trkpt lat="43.7556983" lon="12.6417467"><ele>393.75</ele><time>2026-04-12T08:39:09.034Z</time></trkpt><trkpt lat="43.7555917" lon="12.64166"><ele>393.5</ele><time>2026-04-12T08:39:10.03Z</time></trkpt><trkpt lat="43.7554783" lon="12.64158"><ele>393.25</ele><time>2026-04-12T08:39:11.031Z</time></trkpt><trkpt lat="43.7553483" lon="12.6415067"><ele>393.0</ele><time>2026-04-12T08:39:12.029Z</time></trkpt><trkpt lat="43.75519" lon="12.6414417"><ele>395.0</ele><time>2026-04-12T08:39:13.035Z</time></trkpt><trkpt lat="43.7550183" lon="12.6413883"><ele>397.0</ele><time>2026-04-12T08:39:14.037Z</time></trkpt><trkpt lat="43.7548483" lon="12.6413333"><ele>399.0</ele><time>2026-04-12T08:39:15.03Z</time></trkpt><trkpt lat="43.75469" lon="12.641285"><ele>399.0</ele><time>2026-04-12T08:39:16.031Z</time></trkpt><trkpt lat="43.75455" lon="12.6412433"><ele>399.0</ele><time>2026-04-12T08:39:17.029Z</time></trkpt><trkpt lat="43.7544233" lon="12.6411883"><ele>399.0</ele><time>2026-04-12T08:39:18.03Z</time></trkpt><trkpt lat="43.7543067" lon="12.64112"><ele>399.0</ele><time>2026-04-12T08:39:19.031Z</time></trkpt><trkpt lat="43.754195" lon="12.6410317"><ele>397.75</ele><time>2026-04-12T08:39:20.031Z</time></trkpt><trkpt lat="43.7540867" lon="12.6409333"><ele>396.5</ele><time>2026-04-12T08:39:21.029Z</time></trkpt><trkpt lat="43.7539767" lon="12.640835"><ele>395.25</ele><time>2026-04-12T08:39:22.03Z</time></trkpt><trkpt lat="43.7538683" lon="12.640735"><ele>394.0</ele><time>2026-04-12T08:39:23.032Z</time></trkpt><trkpt lat="43.75376" lon="12.6406317"><ele>394.0</ele><time>2026-04-12T08:39:24.032Z</time></trkpt><trkpt lat="43.7536533" lon="12.64053"><ele>394.0</ele><time>2026-04-12T08:39:25.033Z</time></trkpt><trkpt lat="43.7535433" lon="12.6404283"><ele>394.0</ele><time>2026-04-12T08:39:26.039Z</time></trkpt><trkpt lat="43.7534383" lon="12.640325"><ele>394.0</ele><time>2026-04-12T08:39:27.027Z</time></trkpt><trkpt lat="43.753335" lon="12.6402233"><ele>394.25</ele><time>2026-04-12T08:39:28.037Z</time></trkpt><trkpt lat="43.753235" lon="12.6401283"><ele>394.5</ele><time>2026-04-12T08:39:29.035Z</time></trkpt><trkpt lat="43.75314" lon="12.640035"><ele>394.75</ele><time>2026-04-12T08:39:30.029Z</time></trkpt><trkpt lat="43.7530383" lon="12.6399467"><ele>395.0</ele><time>2026-04-12T08:39:31.034Z</time></trkpt><trkpt lat="43.7529317" lon="12.6398567"><ele>395.0</ele><time>2026-04-12T08:39:32.032Z</time></trkpt><trkpt lat="43.7528117" lon="12.63978"><ele>395.0</ele><time>2026-04-12T08:39:33.029Z</time></trkpt><trkpt lat="43.7526783" lon="12.6397233"><ele>395.0</ele><time>2026-04-12T08:39:34.033Z</time></trkpt><trkpt lat="43.7525383" lon="12.6396783"><ele>395.0</ele><time>2026-04-12T08:39:35.027Z</time></trkpt><trkpt lat="43.7523917" lon="12.6396517"><ele>393.5</ele><time>2026-04-12T08:39:36.031Z</time></trkpt><trkpt lat="43.75224" lon="12.63962"><ele>392.0</ele><time>2026-04-12T08:39:37.03Z</time></trkpt><trkpt lat="43.7520917" lon="12.6395883"><ele>390.5</ele><time>2026-04-12T08:39:38.027Z</time></trkpt><trkpt lat="43.7519567" lon="12.6395583"><ele>389.0</ele><time>2026-04-12T08:39:39.025Z</time></trkpt><trkpt lat="43.7518283" lon="12.6395267"><ele>389.0</ele><time>2026-04-12T08:39:40.027Z</time></trkpt><trkpt lat="43.7517" lon="12.6394883"><ele>389.0</ele><time>2026-04-12T08:39:41.03Z</time></trkpt><trkpt lat="43.7515717" lon="12.6394533"><ele>389.0</ele><time>2026-04-12T08:39:42.029Z</time></trkpt><trkpt lat="43.75144" lon="12.63942"><ele>389.0</ele><time>2026-04-12T08:39:43.028Z</time></trkpt><trkpt lat="43.751305" lon="12.6393767"><ele>389.25</ele><time>2026-04-12T08:39:44.029Z</time></trkpt><trkpt lat="43.751165" lon="12.6393183"><ele>389.5</ele><time>2026-04-12T08:39:45.031Z</time></trkpt><trkpt lat="43.7510267" lon="12.6392383"><ele>389.75</ele><time>2026-04-12T08:39:46.031Z</time></trkpt><trkpt lat="43.7508917" lon="12.6391417"><ele>390.0</ele><time>2026-04-12T08:39:47.029Z</time></trkpt><trkpt lat="43.7507567" lon="12.6390333"><ele>390.0</ele><time>2026-04-12T08:39:48.028Z</time></trkpt><trkpt lat="43.7506217" lon="12.6389167"><ele>390.0</ele><time>2026-04-12T08:39:49.032Z</time></trkpt><trkpt lat="43.7504933" lon="12.6388033"><ele>390.0</ele><time>2026-04-12T08:39:50.03Z</time></trkpt><trkpt lat="43.7503733" lon="12.6386933"><ele>391.25</ele><time>2026-04-12T08:39:51.03Z</time></trkpt><trkpt lat="43.7502517" lon="12.6385917"><ele>392.5</ele><time>2026-04-12T08:39:52.03Z</time></trkpt><trkpt lat="43.7501333" lon="12.6384933"><ele>393.75</ele><time>2026-04-12T08:39:53.03Z</time></trkpt><trkpt lat="43.75001" lon="12.6384117"><ele>395.0</ele><time>2026-04-12T08:39:54.03Z</time></trkpt><trkpt lat="43.7498833" lon="12.6383533"><ele>395.0</ele><time>2026-04-12T08:39:55.028Z</time></trkpt><trkpt lat="43.74975" lon="12.6383283"><ele>395.0</ele><time>2026-04-12T08:39:56.029Z</time></trkpt><trkpt lat="43.749615" lon="12.6383367"><ele>395.0</ele><time>2026-04-12T08:39:57.028Z</time></trkpt><trkpt lat="43.7494917" lon="12.638375"><ele>395.0</ele><time>2026-04-12T08:39:58.029Z</time></trkpt><trkpt lat="43.7493783" lon="12.6384233"><ele>397.0</ele><time>2026-04-12T08:39:59.029Z</time></trkpt><trkpt lat="43.74927" lon="12.63846"><ele>399.0</ele><time>2026-04-12T08:40:00.028Z</time></trkpt><trkpt lat="43.749155" lon="12.6384617"><ele>401.0</ele><time>2026-04-12T08:40:01.029Z</time></trkpt><trkpt lat="43.7490383" lon="12.638435"><ele>403.0</ele><time>2026-04-12T08:40:02.028Z</time></trkpt><trkpt lat="43.7489133" lon="12.6383633"><ele>403.0</ele><time>2026-04-12T08:40:03.03Z</time></trkpt><trkpt lat="43.7487817" lon="12.638265"><ele>403.0</ele><time>2026-04-12T08:40:04.029Z</time></trkpt><trkpt lat="43.7486567" lon="12.638165"><ele>403.0</ele><time>2026-04-12T08:40:05.026Z</time></trkpt><trkpt lat="43.7485417" lon="12.6380783"><ele>403.0</ele><time>2026-04-12T08:40:06.029Z</time></trkpt><trkpt lat="43.7484217" lon="12.6380117"><ele>403.0</ele><time>2026-04-12T08:40:07.037Z</time></trkpt><trkpt lat="43.7482783" lon="12.6379883"><ele>403.0</ele><time>2026-04-12T08:40:08.03Z</time></trkpt><trkpt lat="43.7481133" lon="12.637995"><ele>403.0</ele><time>2026-04-12T08:40:09.029Z</time></trkpt><trkpt lat="43.74795" lon="12.6380233"><ele>403.0</ele><time>2026-04-12T08:40:10.028Z</time></trkpt><trkpt lat="43.7478017" lon="12.6380617"><ele>403.0</ele><time>2026-04-12T08:40:11.027Z</time></trkpt><trkpt lat="43.7476683" lon="12.6380967"><ele>403.0</ele><time>2026-04-12T08:40:12.029Z</time></trkpt><trkpt lat="43.7475367" lon="12.6381083"><ele>403.0</ele><time>2026-04-12T08:40:13.028Z</time></trkpt><trkpt lat="43.747405" lon="12.6380833"><ele>403.75</ele><time>2026-04-12T08:40:14.026Z</time></trkpt><trkpt lat="43.74727" lon="12.6380283"><ele>404.5</ele><time>2026-04-12T08:40:15.027Z</time></trkpt><trkpt lat="43.7471367" lon="12.6379533"><ele>405.25</ele><time>2026-04-12T08:40:16.028Z</time></trkpt><trkpt lat="43.747005" lon="12.6378733"><ele>406.0</ele><time>2026-04-12T08:40:17.026Z</time></trkpt><trkpt lat="43.7468817" lon="12.6377817"><ele>407.75</ele><time>2026-04-12T08:40:18.029Z</time></trkpt><trkpt lat="43.74676" lon="12.6376867"><ele>409.5</ele><time>2026-04-12T08:40:19.027Z</time></trkpt><trkpt lat="43.7466417" lon="12.63759"><ele>411.25</ele><time>2026-04-12T08:40:20.03Z</time></trkpt><trkpt lat="43.7465217" lon="12.6374933"><ele>413.0</ele><time>2026-04-12T08:40:21.028Z</time></trkpt><trkpt lat="43.7463967" lon="12.6373983"><ele>413.0</ele><time>2026-04-12T08:40:22.027Z</time></trkpt><trkpt lat="43.7462683" lon="12.637305"><ele>413.0</ele><time>2026-04-12T08:40:23.023Z</time></trkpt><trkpt lat="43.746135" lon="12.63722"><ele>413.0</ele><time>2026-04-12T08:40:24.033Z</time></trkpt><trkpt lat="43.746" lon="12.6371433"><ele>413.0</ele><time>2026-04-12T08:40:25.027Z</time></trkpt><trkpt lat="43.74586" lon="12.63708"><ele>412.75</ele><time>2026-04-12T08:40:26.028Z</time></trkpt><trkpt lat="43.7457217" lon="12.6370167"><ele>412.5</ele><time>2026-04-12T08:40:27.028Z</time></trkpt><trkpt lat="43.7455867" lon="12.6369617"><ele>412.25</ele><time>2026-04-12T08:40:28.043Z</time></trkpt><trkpt lat="43.745455" lon="12.6369117"><ele>412.0</ele><time>2026-04-12T08:40:29.035Z</time></trkpt><trkpt lat="43.745335" lon="12.6368533"><ele>412.0</ele><time>2026-04-12T08:40:30.029Z</time></trkpt><trkpt lat="43.7452317" lon="12.6367767"><ele>412.0</ele><time>2026-04-12T08:40:31.031Z</time></trkpt><trkpt lat="43.7451383" lon="12.6366917"><ele>412.0</ele><time>2026-04-12T08:40:32.028Z</time></trkpt><trkpt lat="43.7450483" lon="12.6366"><ele>412.0</ele><time>2026-04-12T08:40:33.031Z</time></trkpt><trkpt lat="43.7449567" lon="12.636495"><ele>413.25</ele><time>2026-04-12T08:40:34.028Z</time></trkpt><trkpt lat="43.744865" lon="12.636385"><ele>414.5</ele><time>2026-04-12T08:40:35.029Z</time></trkpt><trkpt lat="43.7447733" lon="12.6362717"><ele>415.75</ele><time>2026-04-12T08:40:36.028Z</time></trkpt><trkpt lat="43.7446783" lon="12.6361567"><ele>417.0</ele><time>2026-04-12T08:40:37.032Z</time></trkpt><trkpt lat="43.74458" lon="12.6360417"><ele>417.0</ele><time>2026-04-12T08:40:38.028Z</time></trkpt><trkpt lat="43.7444783" lon="12.6359283"><ele>417.0</ele><time>2026-04-12T08:40:39.027Z</time></trkpt><trkpt lat="43.7443733" lon="12.6358117"><ele>417.0</ele><time>2026-04-12T08:40:40.03Z</time></trkpt><trkpt lat="43.7442667" lon="12.63569"><ele>417.0</ele><time>2026-04-12T08:40:41.03Z</time></trkpt><trkpt lat="43.74416" lon="12.63557"><ele>418.75</ele><time>2026-04-12T08:40:42.029Z</time></trkpt><trkpt lat="43.7440517" lon="12.6354467"><ele>420.5</ele><time>2026-04-12T08:40:43.03Z</time></trkpt><trkpt lat="43.743945" lon="12.63532"><ele>422.25</ele><time>2026-04-12T08:40:44.028Z</time></trkpt><trkpt lat="43.7438383" lon="12.6351967"><ele>424.0</ele><time>2026-04-12T08:40:45.024Z</time></trkpt><trkpt lat="43.7437283" lon="12.63507"><ele>426.0</ele><time>2026-04-12T08:40:46.033Z</time></trkpt><trkpt lat="43.7436183" lon="12.6349417"><ele>428.0</ele><time>2026-04-12T08:40:47.028Z</time></trkpt><trkpt lat="43.74351" lon="12.6348017"><ele>430.0</ele><time>2026-04-12T08:40:48.031Z</time></trkpt><trkpt lat="43.7433983" lon="12.6346617"><ele>432.0</ele><time>2026-04-12T08:40:49.029Z</time></trkpt><trkpt lat="43.7432867" lon="12.6345167"><ele>434.0</ele><time>2026-04-12T08:40:50.031Z</time></trkpt><trkpt lat="43.7431733" lon="12.634375"><ele>436.0</ele><time>2026-04-12T08:40:51.032Z</time></trkpt><trkpt lat="43.7430667" lon="12.6342333"><ele>438.0</ele><time>2026-04-12T08:40:52.03Z</time></trkpt><trkpt lat="43.7429667" lon="12.6341"><ele>440.0</ele><time>2026-04-12T08:40:53.035Z</time></trkpt><trkpt lat="43.7428767" lon="12.6339717"><ele>440.0</ele><time>2026-04-12T08:40:54.03Z</time></trkpt><trkpt lat="43.7427933" lon="12.6338383"><ele>440.0</ele><time>2026-04-12T08:40:55.029Z</time></trkpt><trkpt lat="43.74272" lon="12.63369"><ele>440.0</ele><time>2026-04-12T08:40:56.03Z</time></trkpt><trkpt lat="43.7426567" lon="12.633525"><ele>440.0</ele><time>2026-04-12T08:40:57.037Z</time></trkpt><trkpt lat="43.7426033" lon="12.6333483"><ele>439.75</ele><time>2026-04-12T08:40:58.03Z</time></trkpt><trkpt lat="43.7425533" lon="12.63317"><ele>439.5</ele><time>2026-04-12T08:40:59.039Z</time></trkpt><trkpt lat="43.742505" lon="12.6329883"><ele>439.25</ele><time>2026-04-12T08:41:00.031Z</time></trkpt><trkpt lat="43.742455" lon="12.6328067"><ele>439.0</ele><time>2026-04-12T08:41:01.027Z</time></trkpt><trkpt lat="43.742405" lon="12.63262"><ele>438.25</ele><time>2026-04-12T08:41:02.031Z</time></trkpt><trkpt lat="43.7423433" lon="12.6324367"><ele>437.5</ele><time>2026-04-12T08:41:03.028Z</time></trkpt><trkpt lat="43.742265" lon="12.6322733"><ele>436.75</ele><time>2026-04-12T08:41:04.032Z</time></trkpt><trkpt lat="43.7421633" lon="12.6321517"><ele>436.0</ele><time>2026-04-12T08:41:05.03Z</time></trkpt><trkpt lat="43.742045" lon="12.6320683"><ele>436.0</ele><time>2026-04-12T08:41:06.029Z</time></trkpt><trkpt lat="43.74192" lon="12.6320267"><ele>436.0</ele><time>2026-04-12T08:41:07.028Z</time></trkpt><trkpt lat="43.741795" lon="12.6320033"><ele>436.0</ele><time>2026-04-12T08:41:08.028Z</time></trkpt><trkpt lat="43.7416667" lon="12.631985"><ele>436.0</ele><time>2026-04-12T08:41:09.031Z</time></trkpt><trkpt lat="43.7415383" lon="12.6319767"><ele>437.25</ele><time>2026-04-12T08:41:10.03Z</time></trkpt><trkpt lat="43.7414083" lon="12.6319767"><ele>438.5</ele><time>2026-04-12T08:41:11.03Z</time></trkpt><trkpt lat="43.7412867" lon="12.6319567"><ele>439.75</ele><time>2026-04-12T08:41:12.028Z</time></trkpt><trkpt lat="43.7411767" lon="12.6319333"><ele>441.0</ele><time>2026-04-12T08:41:13.031Z</time></trkpt><trkpt lat="43.74107" lon="12.631915"><ele>443.0</ele><time>2026-04-12T08:41:14.024Z</time></trkpt><trkpt lat="43.7409617" lon="12.63189"><ele>445.0</ele><time>2026-04-12T08:41:15.033Z</time></trkpt><trkpt lat="43.740845" lon="12.631875"><ele>447.0</ele><time>2026-04-12T08:41:16.025Z</time></trkpt><trkpt lat="43.7407233" lon="12.6318517"><ele>449.0</ele><time>2026-04-12T08:41:17.026Z</time></trkpt><trkpt lat="43.740595" lon="12.6318183"><ele>449.0</ele><time>2026-04-12T08:41:18.025Z</time></trkpt><trkpt lat="43.7404633" lon="12.6317883"><ele>449.0</ele><time>2026-04-12T08:41:19.031Z</time></trkpt><trkpt lat="43.7403317" lon="12.6317567"><ele>449.0</ele><time>2026-04-12T08:41:20.03Z</time></trkpt><trkpt lat="43.7402" lon="12.6317217"><ele>449.0</ele><time>2026-04-12T08:41:21.029Z</time></trkpt><trkpt lat="43.7400683" lon="12.6316883"><ele>447.75</ele><time>2026-04-12T08:41:22.038Z</time></trkpt><trkpt lat="43.739945" lon="12.63166"><ele>446.5</ele><time>2026-04-12T08:41:23.032Z</time></trkpt><trkpt lat="43.7398317" lon="12.6316183"><ele>445.25</ele><time>2026-04-12T08:41:24.034Z</time></trkpt><trkpt lat="43.739725" lon="12.6315767"><ele>444.0</ele><time>2026-04-12T08:41:25.03Z</time></trkpt><trkpt lat="43.739615" lon="12.6315317"><ele>444.0</ele><time>2026-04-12T08:41:26.029Z</time></trkpt><trkpt lat="43.7395" lon="12.631485"><ele>444.0</ele><time>2026-04-12T08:41:27.028Z</time></trkpt><trkpt lat="43.7393783" lon="12.63143"><ele>444.0</ele><time>2026-04-12T08:41:28.026Z</time></trkpt><trkpt lat="43.73925" lon="12.6313717"><ele>444.0</ele><time>2026-04-12T08:41:29.029Z</time></trkpt><trkpt lat="43.7391083" lon="12.63133"><ele>444.75</ele><time>2026-04-12T08:41:30.028Z</time></trkpt><trkpt lat="43.7389617" lon="12.6313133"><ele>445.5</ele><time>2026-04-12T08:41:31.03Z</time></trkpt><trkpt lat="43.7388233" lon="12.63132"><ele>446.25</ele><time>2026-04-12T08:41:32.03Z</time></trkpt><trkpt lat="43.7386967" lon="12.63135"><ele>447.0</ele><time>2026-04-12T08:41:33.031Z</time></trkpt><trkpt lat="43.7385767" lon="12.6313983"><ele>447.5</ele><time>2026-04-12T08:41:34.032Z</time></trkpt><trkpt lat="43.7384633" lon="12.6314633"><ele>448.0</ele><time>2026-04-12T08:41:35.028Z</time></trkpt><trkpt lat="43.73835" lon="12.6315233"><ele>448.5</ele><time>2026-04-12T08:41:36.025Z</time></trkpt><trkpt lat="43.738245" lon="12.631615"><ele>449.0</ele><time>2026-04-12T08:41:37.029Z</time></trkpt><trkpt lat="43.73814" lon="12.6317067"><ele>449.0</ele><time>2026-04-12T08:41:38.033Z</time></trkpt><trkpt lat="43.73803" lon="12.631805"><ele>449.0</ele><time>2026-04-12T08:41:39.029Z</time></trkpt><trkpt lat="43.737915" lon="12.6319167"><ele>449.0</ele><time>2026-04-12T08:41:40.032Z</time></trkpt><trkpt lat="43.7377983" lon="12.6320083"><ele>449.0</ele><time>2026-04-12T08:41:41.03Z</time></trkpt><trkpt lat="43.7376717" lon="12.6320983"><ele>447.25</ele><time>2026-04-12T08:41:42.026Z</time></trkpt><trkpt lat="43.7375383" lon="12.632175"><ele>445.5</ele><time>2026-04-12T08:41:43.031Z</time></trkpt><trkpt lat="43.73741" lon="12.6322617"><ele>443.75</ele><time>2026-04-12T08:41:44.028Z</time></trkpt><trkpt lat="43.7372867" lon="12.6323383"><ele>442.0</ele><time>2026-04-12T08:41:45.03Z</time></trkpt><trkpt lat="43.7371633" lon="12.6324067"><ele>442.0</ele><time>2026-04-12T08:41:46.03Z</time></trkpt><trkpt lat="43.7370333" lon="12.632465"><ele>442.0</ele><time>2026-04-12T08:41:47.028Z</time></trkpt><trkpt lat="43.7369017" lon="12.6325017"><ele>442.0</ele><time>2026-04-12T08:41:48.032Z</time></trkpt><trkpt lat="43.73677" lon="12.6325233"><ele>442.0</ele><time>2026-04-12T08:41:49.031Z</time></trkpt><trkpt lat="43.7366433" lon="12.632535"><ele>442.25</ele><time>2026-04-12T08:41:50.026Z</time></trkpt><trkpt lat="43.736515" lon="12.6325367"><ele>442.5</ele><time>2026-04-12T08:41:51.03Z</time></trkpt><trkpt lat="43.7363833" lon="12.632525"><ele>442.75</ele><time>2026-04-12T08:41:52.026Z</time></trkpt><trkpt lat="43.7362483" lon="12.6325033"><ele>443.0</ele><time>2026-04-12T08:41:53.032Z</time></trkpt><trkpt lat="43.7361133" lon="12.6324717"><ele>442.5</ele><time>2026-04-12T08:41:54.028Z</time></trkpt><trkpt lat="43.73598" lon="12.63243"><ele>442.0</ele><time>2026-04-12T08:41:55.028Z</time></trkpt><trkpt lat="43.73585" lon="12.6323783"><ele>441.5</ele><time>2026-04-12T08:41:56.025Z</time></trkpt><trkpt lat="43.7357217" lon="12.6323183"><ele>441.0</ele><time>2026-04-12T08:41:57.026Z</time></trkpt><trkpt lat="43.7355983" lon="12.6322433"><ele>441.0</ele><time>2026-04-12T08:41:58.026Z</time></trkpt><trkpt lat="43.735475" lon="12.6321767"><ele>441.0</ele><time>2026-04-12T08:41:59.03Z</time></trkpt><trkpt lat="43.7353617" lon="12.63213"><ele>441.0</ele><time>2026-04-12T08:42:00.034Z</time></trkpt><trkpt lat="43.7352567" lon="12.6320917"><ele>441.0</ele><time>2026-04-12T08:42:01.032Z</time></trkpt><trkpt lat="43.7351533" lon="12.63206"><ele>440.4</ele><time>2026-04-12T08:42:02.027Z</time></trkpt><trkpt lat="43.735045" lon="12.6320367"><ele>439.8</ele><time>2026-04-12T08:42:03.026Z</time></trkpt><trkpt lat="43.7349367" lon="12.6320183"><ele>439.19999999999993</ele><time>2026-04-12T08:42:04.026Z</time></trkpt><trkpt lat="43.73483" lon="12.6320067"><ele>438.59999999999997</ele><time>2026-04-12T08:42:05.028Z</time></trkpt><trkpt lat="43.7347383" lon="12.631995"><ele>438.0</ele><time>2026-04-12T08:42:06.028Z</time></trkpt><trkpt lat="43.7346733" lon="12.6319867"><ele>438.0</ele><time>2026-04-12T08:42:07.029Z</time></trkpt><trkpt lat="43.7345933" lon="12.6319483"><ele>437.99999999999994</ele><time>2026-04-12T08:42:09.027Z</time></trkpt><trkpt lat="43.7345183" lon="12.6318833"><ele>437.99999999999994</ele><time>2026-04-12T08:42:11.026Z</time></trkpt><trkpt lat="43.734415" lon="12.63185"><ele>438.0</ele><time>2026-04-12T08:42:13.028Z</time></trkpt><trkpt lat="43.7342833" lon="12.6318867"><ele>438.0</ele><time>2026-04-12T08:42:15.027Z</time></trkpt><trkpt lat="43.7342117" lon="12.631905"><ele>437.8333333333333</ele><time>2026-04-12T08:42:16.029Z</time></trkpt><trkpt lat="43.7341333" lon="12.631915"><ele>437.66666666666663</ele><time>2026-04-12T08:42:17.031Z</time></trkpt><trkpt lat="43.7340533" lon="12.63192"><ele>437.5</ele><time>2026-04-12T08:42:18.028Z</time></trkpt><trkpt lat="43.73397" lon="12.6319267"><ele>437.3333333333333</ele><time>2026-04-12T08:42:19.024Z</time></trkpt><trkpt lat="43.7338833" lon="12.6319317"><ele>437.16666666666663</ele><time>2026-04-12T08:42:20.031Z</time></trkpt><trkpt lat="43.7337967" lon="12.631935"><ele>437.0</ele><time>2026-04-12T08:42:21.03Z</time></trkpt><trkpt lat="43.7337083" lon="12.6319367"><ele>436.99999999999994</ele><time>2026-04-12T08:42:22.031Z</time></trkpt><trkpt lat="43.7336233" lon="12.6319333"><ele>437.0</ele><time>2026-04-12T08:42:23.028Z</time></trkpt><trkpt lat="43.7335467" lon="12.6319317"><ele>437.0</ele><time>2026-04-12T08:42:24.025Z</time></trkpt><trkpt lat="43.7334767" lon="12.63193"><ele>437.0</ele><time>2026-04-12T08:42:25.031Z</time></trkpt><trkpt lat="43.7333633" lon="12.6319067"><ele>436.99999999999994</ele><time>2026-04-12T08:42:27.025Z</time></trkpt><trkpt lat="43.7332917" lon="12.6318867"><ele>437.0</ele><time>2026-04-12T08:42:29.03Z</time></trkpt><trkpt lat="43.7332083" lon="12.6319567"><ele>437.16666666666663</ele><time>2026-04-12T08:49:09.03Z</time></trkpt><trkpt lat="43.7331733" lon="12.6320317"><ele>437.3333333333333</ele><time>2026-04-12T08:49:11.029Z</time></trkpt><trkpt lat="43.733145" lon="12.6321983"><ele>437.5</ele><time>2026-04-12T08:49:13.025Z</time></trkpt><trkpt lat="43.7331183" lon="12.6322983"><ele>437.66666666666663</ele><time>2026-04-12T08:49:14.026Z</time></trkpt><trkpt lat="43.7330717" lon="12.6323967"><ele>437.8333333333333</ele><time>2026-04-12T08:49:15.027Z</time></trkpt><trkpt lat="43.73301" lon="12.6324833"><ele>438.0</ele><time>2026-04-12T08:49:16.027Z</time></trkpt><trkpt lat="43.7329333" lon="12.632555"><ele>438.0</ele><time>2026-04-12T08:49:17.031Z</time></trkpt><trkpt lat="43.7328583" lon="12.6326117"><ele>437.99999999999994</ele><time>2026-04-12T08:49:18.03Z</time></trkpt><trkpt lat="43.732775" lon="12.6326617"><ele>437.99999999999994</ele><time>2026-04-12T08:49:19.027Z</time></trkpt><trkpt lat="43.73268" lon="12.6326917"><ele>438.0</ele><time>2026-04-12T08:49:20.025Z</time></trkpt><trkpt lat="43.7325733" lon="12.6327083"><ele>438.0</ele><time>2026-04-12T08:49:21.028Z</time></trkpt><trkpt lat="43.7324667" lon="12.63272"><ele>438.2</ele><time>2026-04-12T08:49:22.028Z</time></trkpt><trkpt lat="43.7323583" lon="12.63273"><ele>438.4</ele><time>2026-04-12T08:49:23.031Z</time></trkpt><trkpt lat="43.7322517" lon="12.632735"><ele>438.59999999999997</ele><time>2026-04-12T08:49:24.027Z</time></trkpt><trkpt lat="43.7321517" lon="12.6327367"><ele>438.79999999999995</ele><time>2026-04-12T08:49:25.027Z</time></trkpt><trkpt lat="43.732055" lon="12.6327383"><ele>439.0</ele><time>2026-04-12T08:49:26.03Z</time></trkpt><trkpt lat="43.731955" lon="12.6327467"><ele>438.2</ele><time>2026-04-12T08:49:27.026Z</time></trkpt><trkpt lat="43.731845" lon="12.6327583"><ele>437.4</ele><time>2026-04-12T08:49:28.03Z</time></trkpt><trkpt lat="43.731735" lon="12.6327683"><ele>436.6</ele><time>2026-04-12T08:49:29.028Z</time></trkpt><trkpt lat="43.7316267" lon="12.6327767"><ele>435.8</ele><time>2026-04-12T08:49:30.036Z</time></trkpt><trkpt lat="43.7315183" lon="12.63278"><ele>435.0</ele><time>2026-04-12T08:49:31.034Z</time></trkpt><trkpt lat="43.7314117" lon="12.6327733"><ele>435.0</ele><time>2026-04-12T08:49:32.028Z</time></trkpt><trkpt lat="43.7312967" lon="12.6327467"><ele>435.0</ele><time>2026-04-12T08:49:33.033Z</time></trkpt><trkpt lat="43.7311817" lon="12.63269"><ele>435.0</ele><time>2026-04-12T08:49:34.032Z</time></trkpt><trkpt lat="43.7310783" lon="12.63261"><ele>435.0</ele><time>2026-04-12T08:49:35.028Z</time></trkpt><trkpt lat="43.7309783" lon="12.6325267"><ele>433.0</ele><time>2026-04-12T08:49:36.028Z</time></trkpt><trkpt lat="43.7308867" lon="12.6324367"><ele>431.0</ele><time>2026-04-12T08:49:37.028Z</time></trkpt><trkpt lat="43.7307967" lon="12.632355"><ele>429.0</ele><time>2026-04-12T08:49:38.029Z</time></trkpt><trkpt lat="43.730705" lon="12.6322767"><ele>427.0</ele><time>2026-04-12T08:49:39.03Z</time></trkpt><trkpt lat="43.7305983" lon="12.63223"><ele>425.0</ele><time>2026-04-12T08:49:40.033Z</time></trkpt><trkpt lat="43.730485" lon="12.632205"><ele>425.0</ele><time>2026-04-12T08:49:41.03Z</time></trkpt><trkpt lat="43.7303667" lon="12.632225"><ele>425.0</ele><time>2026-04-12T08:49:42.025Z</time></trkpt><trkpt lat="43.7302583" lon="12.6322767"><ele>425.0</ele><time>2026-04-12T08:49:43.029Z</time></trkpt><trkpt lat="43.730155" lon="12.6323617"><ele>425.0</ele><time>2026-04-12T08:49:44.029Z</time></trkpt><trkpt lat="43.7300767" lon="12.63247"><ele>424.8</ele><time>2026-04-12T08:49:45.027Z</time></trkpt><trkpt lat="43.7300367" lon="12.6325967"><ele>424.6</ele><time>2026-04-12T08:49:46.028Z</time></trkpt><trkpt lat="43.7300217" lon="12.63273"><ele>424.4</ele><time>2026-04-12T08:49:47.029Z</time></trkpt><trkpt lat="43.7300217" lon="12.6328567"><ele>424.2</ele><time>2026-04-12T08:49:48.029Z</time></trkpt><trkpt lat="43.73002" lon="12.632985"><ele>424.0</ele><time>2026-04-12T08:49:49.028Z</time></trkpt><trkpt lat="43.730015" lon="12.63313"><ele>424.0</ele><time>2026-04-12T08:49:50.031Z</time></trkpt><trkpt lat="43.7300217" lon="12.633295"><ele>424.0</ele><time>2026-04-12T08:49:51.028Z</time></trkpt><trkpt lat="43.73004" lon="12.6334683"><ele>424.0</ele><time>2026-04-12T08:49:52.029Z</time></trkpt><trkpt lat="43.7300633" lon="12.6336367"><ele>424.0</ele><time>2026-04-12T08:49:53.028Z</time></trkpt><trkpt lat="43.7300883" lon="12.6337967"><ele>423.75</ele><time>2026-04-12T08:49:54.03Z</time></trkpt><trkpt lat="43.7301167" lon="12.6339567"><ele>423.5</ele><time>2026-04-12T08:49:55.028Z</time></trkpt><trkpt lat="43.7301433" lon="12.6341183"><ele>423.25</ele><time>2026-04-12T08:49:56.03Z</time></trkpt><trkpt lat="43.730165" lon="12.6342783"><ele>423.0</ele><time>2026-04-12T08:49:57.029Z</time></trkpt><trkpt lat="43.7301917" lon="12.6344417"><ele>424.5</ele><time>2026-04-12T08:49:58.028Z</time></trkpt><trkpt lat="43.7302133" lon="12.634615"><ele>426.0</ele><time>2026-04-12T08:49:59.028Z</time></trkpt><trkpt lat="43.73024" lon="12.634795"><ele>427.5</ele><time>2026-04-12T08:50:00.027Z</time></trkpt><trkpt lat="43.7302683" lon="12.6349733"><ele>429.0</ele><time>2026-04-12T08:50:01.029Z</time></trkpt><trkpt lat="43.730295" lon="12.6351517"><ele>420.5</ele><time>2026-04-12T08:50:02.031Z</time></trkpt><trkpt lat="43.7303217" lon="12.6353333"><ele>412.0</ele><time>2026-04-12T08:50:03.028Z</time></trkpt><trkpt lat="43.73035" lon="12.6355167"><ele>403.5</ele><time>2026-04-12T08:50:04.03Z</time></trkpt><trkpt lat="43.7303817" lon="12.6357033"><ele>395.0</ele><time>2026-04-12T08:50:05.029Z</time></trkpt><trkpt lat="43.7304183" lon="12.63589"><ele>395.0</ele><time>2026-04-12T08:50:06.029Z</time></trkpt><trkpt lat="43.73046" lon="12.6360683"><ele>395.0</ele><time>2026-04-12T08:50:07.026Z</time></trkpt><trkpt lat="43.730505" lon="12.6362433"><ele>395.0</ele><time>2026-04-12T08:50:08.03Z</time></trkpt><trkpt lat="43.73055" lon="12.6364167"><ele>395.0</ele><time>2026-04-12T08:50:09.028Z</time></trkpt><trkpt lat="43.7305983" lon="12.6365867"><ele>396.0</ele><time>2026-04-12T08:50:10.03Z</time></trkpt><trkpt lat="43.7306467" lon="12.6367583"><ele>397.0</ele><time>2026-04-12T08:50:11.028Z</time></trkpt><trkpt lat="43.730695" lon="12.6369283"><ele>398.0</ele><time>2026-04-12T08:50:12.031Z</time></trkpt><trkpt lat="43.730745" lon="12.6370917"><ele>399.0</ele><time>2026-04-12T08:50:13.028Z</time></trkpt><trkpt lat="43.7307883" lon="12.6372517"><ele>399.0</ele><time>2026-04-12T08:50:14.03Z</time></trkpt><trkpt lat="43.730815" lon="12.6374083"><ele>399.0</ele><time>2026-04-12T08:50:15.026Z</time></trkpt><trkpt lat="43.7308217" lon="12.6375633"><ele>399.0</ele><time>2026-04-12T08:50:16.029Z</time></trkpt><trkpt lat="43.730805" lon="12.6377133"><ele>399.0</ele><time>2026-04-12T08:50:17.027Z</time></trkpt><trkpt lat="43.7307733" lon="12.63786"><ele>399.0</ele><time>2026-04-12T08:50:18.028Z</time></trkpt><trkpt lat="43.730725" lon="12.6379983"><ele>397.0</ele><time>2026-04-12T08:50:19.028Z</time></trkpt><trkpt lat="43.73066" lon="12.6381217"><ele>395.0</ele><time>2026-04-12T08:50:20.029Z</time></trkpt><trkpt lat="43.7305817" lon="12.638225"><ele>393.0</ele><time>2026-04-12T08:50:21.029Z</time></trkpt><trkpt lat="43.730495" lon="12.6383067"><ele>391.0</ele><time>2026-04-12T08:50:22.027Z</time></trkpt><trkpt lat="43.730395" lon="12.6383717"><ele>389.0</ele><time>2026-04-12T08:50:23.033Z</time></trkpt><trkpt lat="43.7302883" lon="12.63841"><ele>391.0</ele><time>2026-04-12T08:50:24.027Z</time></trkpt><trkpt lat="43.7301717" lon="12.6384233"><ele>393.0</ele><time>2026-04-12T08:50:25.029Z</time></trkpt><trkpt lat="43.7300467" lon="12.6384"><ele>395.0</ele><time>2026-04-12T08:50:26.026Z</time></trkpt><trkpt lat="43.7299133" lon="12.6383483"><ele>397.0</ele><time>2026-04-12T08:50:27.028Z</time></trkpt><trkpt lat="43.7297667" lon="12.6382867"><ele>397.0</ele><time>2026-04-12T08:50:28.03Z</time></trkpt><trkpt lat="43.72962" lon="12.6382317"><ele>397.0</ele><time>2026-04-12T08:50:29.027Z</time></trkpt><trkpt lat="43.7294717" lon="12.63818"><ele>397.0</ele><time>2026-04-12T08:50:30.028Z</time></trkpt><trkpt lat="43.7293317" lon="12.63813"><ele>397.0</ele><time>2026-04-12T08:50:31.036Z</time></trkpt><trkpt lat="43.729195" lon="12.6380783"><ele>394.33333333333337</ele><time>2026-04-12T08:50:32.031Z</time></trkpt><trkpt lat="43.7290517" lon="12.6380433"><ele>391.66666666666663</ele><time>2026-04-12T08:50:33.033Z</time></trkpt><trkpt lat="43.7289" lon="12.6380333"><ele>389.0</ele><time>2026-04-12T08:50:34.031Z</time></trkpt><trkpt lat="43.7287417" lon="12.6380567"><ele>389.0</ele><time>2026-04-12T08:50:35.029Z</time></trkpt><trkpt lat="43.7285817" lon="12.6381117"><ele>389.0</ele><time>2026-04-12T08:50:36.028Z</time></trkpt><trkpt lat="43.7284283" lon="12.6381767"><ele>389.0</ele><time>2026-04-12T08:50:37.027Z</time></trkpt><trkpt lat="43.72828" lon="12.6382467"><ele>390.0</ele><time>2026-04-12T08:50:38.035Z</time></trkpt><trkpt lat="43.7281433" lon="12.6383233"><ele>391.0</ele><time>2026-04-12T08:50:39.033Z</time></trkpt><trkpt lat="43.7280133" lon="12.638395"><ele>392.0</ele><time>2026-04-12T08:50:40.036Z</time></trkpt><trkpt lat="43.7278967" lon="12.6384667"><ele>393.0</ele><time>2026-04-12T08:50:41.027Z</time></trkpt><trkpt lat="43.727785" lon="12.6385433"><ele>391.25</ele><time>2026-04-12T08:50:42.03Z</time></trkpt><trkpt lat="43.7276817" lon="12.6386083"><ele>389.5</ele><time>2026-04-12T08:50:43.029Z</time></trkpt><trkpt lat="43.72758" lon="12.63868"><ele>387.75</ele><time>2026-04-12T08:50:44.03Z</time></trkpt><trkpt lat="43.72748" lon="12.6387533"><ele>386.0</ele><time>2026-04-12T08:50:45.032Z</time></trkpt><trkpt lat="43.72738" lon="12.6388317"><ele>386.0</ele><time>2026-04-12T08:50:46.027Z</time></trkpt><trkpt lat="43.7272767" lon="12.6389117"><ele>386.0</ele><time>2026-04-12T08:50:47.03Z</time></trkpt><trkpt lat="43.7271717" lon="12.638995"><ele>386.0</ele><time>2026-04-12T08:50:48.032Z</time></trkpt><trkpt lat="43.72707" lon="12.63908"><ele>386.0</ele><time>2026-04-12T08:50:49.03Z</time></trkpt><trkpt lat="43.7269733" lon="12.6391617"><ele>388.20000000000005</ele><time>2026-04-12T08:50:50.03Z</time></trkpt><trkpt lat="43.72688" lon="12.639235"><ele>390.40000000000003</ele><time>2026-04-12T08:50:51.03Z</time></trkpt><trkpt lat="43.7267867" lon="12.6393017"><ele>392.6</ele><time>2026-04-12T08:50:52.031Z</time></trkpt><trkpt lat="43.7266917" lon="12.6393583"><ele>394.8</ele><time>2026-04-12T08:50:53.027Z</time></trkpt><trkpt lat="43.7265867" lon="12.6394117"><ele>397.0</ele><time>2026-04-12T08:50:54.026Z</time></trkpt><trkpt lat="43.72647" lon="12.639455"><ele>395.6</ele><time>2026-04-12T08:50:55.028Z</time></trkpt><trkpt lat="43.726355" lon="12.6395017"><ele>394.20000000000005</ele><time>2026-04-12T08:50:56.029Z</time></trkpt><trkpt lat="43.7262483" lon="12.6395533"><ele>392.8</ele><time>2026-04-12T08:50:57.025Z</time></trkpt><trkpt lat="43.72615" lon="12.63961"><ele>391.4</ele><time>2026-04-12T08:50:58.033Z</time></trkpt><trkpt lat="43.7260583" lon="12.6396617"><ele>390.0</ele><time>2026-04-12T08:50:59.025Z</time></trkpt><trkpt lat="43.725965" lon="12.639715"><ele>390.0</ele><time>2026-04-12T08:51:00.027Z</time></trkpt><trkpt lat="43.7258717" lon="12.63976"><ele>390.0</ele><time>2026-04-12T08:51:01.026Z</time></trkpt><trkpt lat="43.725765" lon="12.6397917"><ele>390.0</ele><time>2026-04-12T08:51:02.026Z</time></trkpt><trkpt lat="43.7256483" lon="12.639805"><ele>390.0</ele><time>2026-04-12T08:51:03.028Z</time></trkpt><trkpt lat="43.725525" lon="12.6397983"><ele>390.0</ele><time>2026-04-12T08:51:04.03Z</time></trkpt><trkpt lat="43.72539" lon="12.6397533"><ele>390.0</ele><time>2026-04-12T08:51:05.029Z</time></trkpt><trkpt lat="43.72526" lon="12.6396667"><ele>390.0</ele><time>2026-04-12T08:51:06.028Z</time></trkpt><trkpt lat="43.7251383" lon="12.6395783"><ele>390.0</ele><time>2026-04-12T08:51:07.026Z</time></trkpt><trkpt lat="43.7250183" lon="12.63951"><ele>390.0</ele><time>2026-04-12T08:51:08.031Z</time></trkpt><trkpt lat="43.72489" lon="12.6394533"><ele>395.5</ele><time>2026-04-12T08:51:09.027Z</time></trkpt><trkpt lat="43.7247567" lon="12.639405"><ele>401.0</ele><time>2026-04-12T08:51:10.03Z</time></trkpt><trkpt lat="43.7246183" lon="12.63937"><ele>406.5</ele><time>2026-04-12T08:51:11.032Z</time></trkpt><trkpt lat="43.724475" lon="12.6393417"><ele>412.0</ele><time>2026-04-12T08:51:12.028Z</time></trkpt><trkpt lat="43.72433" lon="12.6393083"><ele>412.0</ele><time>2026-04-12T08:51:13.029Z</time></trkpt><trkpt lat="43.7241883" lon="12.639275"><ele>412.0</ele><time>2026-04-12T08:51:14.03Z</time></trkpt><trkpt lat="43.72405" lon="12.6392417"><ele>412.0</ele><time>2026-04-12T08:51:15.029Z</time></trkpt><trkpt lat="43.72391" lon="12.6392167"><ele>412.0</ele><time>2026-04-12T08:51:16.029Z</time></trkpt><trkpt lat="43.7237733" lon="12.6391867"><ele>412.0</ele><time>2026-04-12T08:51:17.032Z</time></trkpt><trkpt lat="43.72364" lon="12.639165"><ele>412.0</ele><time>2026-04-12T08:51:18.028Z</time></trkpt><trkpt lat="43.723505" lon="12.6391567"><ele>412.0</ele><time>2026-04-12T08:51:19.028Z</time></trkpt><trkpt lat="43.7233733" lon="12.63917"><ele>412.0</ele><time>2026-04-12T08:51:20.037Z</time></trkpt><trkpt lat="43.723245" lon="12.6391933"><ele>411.8</ele><time>2026-04-12T08:51:21.03Z</time></trkpt><trkpt lat="43.7231217" lon="12.6392217"><ele>411.6</ele><time>2026-04-12T08:51:22.03Z</time></trkpt><trkpt lat="43.72301" lon="12.639225"><ele>411.40000000000003</ele><time>2026-04-12T08:51:23.028Z</time></trkpt><trkpt lat="43.7229067" lon="12.6392"><ele>411.20000000000005</ele><time>2026-04-12T08:51:24.029Z</time></trkpt><trkpt lat="43.7228133" lon="12.6391417"><ele>411.0</ele><time>2026-04-12T08:51:25.029Z</time></trkpt><trkpt lat="43.7227267" lon="12.6390617"><ele>409.4</ele><time>2026-04-12T08:51:26.03Z</time></trkpt><trkpt lat="43.72264" lon="12.6389783"><ele>407.8</ele><time>2026-04-12T08:51:27.028Z</time></trkpt><trkpt lat="43.7225483" lon="12.6388967"><ele>406.2</ele><time>2026-04-12T08:51:28.029Z</time></trkpt><trkpt lat="43.7224567" lon="12.6388133"><ele>404.59999999999997</ele><time>2026-04-12T08:51:29.037Z</time></trkpt><trkpt lat="43.72237" lon="12.6387383"><ele>403.0</ele><time>2026-04-12T08:51:30.03Z</time></trkpt><trkpt lat="43.72229" lon="12.6386683"><ele>405.00000000000006</ele><time>2026-04-12T08:51:31.029Z</time></trkpt><trkpt lat="43.722225" lon="12.6386167"><ele>407.0</ele><time>2026-04-12T08:51:32.028Z</time></trkpt><trkpt lat="43.7221483" lon="12.6385583"><ele>409.0</ele><time>2026-04-12T08:51:34.026Z</time></trkpt><trkpt lat="43.72206" lon="12.63849"><ele>411.0</ele><time>2026-04-12T08:51:42.029Z</time></trkpt><trkpt lat="43.7219883" lon="12.638455"><ele>413.00000000000006</ele><time>2026-04-12T08:51:43.027Z</time></trkpt><trkpt lat="43.7219033" lon="12.6383967"><ele>415.0</ele><time>2026-04-12T08:51:44.029Z</time></trkpt><trkpt lat="43.7218117" lon="12.6383233"><ele>415.0</ele><time>2026-04-12T08:51:45.028Z</time></trkpt><trkpt lat="43.7217133" lon="12.63824"><ele>415.0</ele><time>2026-04-12T08:51:46.027Z</time></trkpt><trkpt lat="43.7216117" lon="12.63815"><ele>415.0</ele><time>2026-04-12T08:51:47.026Z</time></trkpt><trkpt lat="43.7215117" lon="12.6380567"><ele>415.0</ele><time>2026-04-12T08:51:48.028Z</time></trkpt><trkpt lat="43.72142" lon="12.6379633"><ele>415.0</ele><time>2026-04-12T08:51:49.026Z</time></trkpt><trkpt lat="43.7213333" lon="12.6378683"><ele>415.0</ele><time>2026-04-12T08:51:50.033Z</time></trkpt><trkpt lat="43.7212517" lon="12.6377567"><ele>415.0</ele><time>2026-04-12T08:51:51.03Z</time></trkpt><trkpt lat="43.7211817" lon="12.6376267"><ele>415.0</ele><time>2026-04-12T08:51:52.032Z</time></trkpt><trkpt lat="43.721115" lon="12.637485"><ele>414.75</ele><time>2026-04-12T08:51:53.033Z</time></trkpt><trkpt lat="43.721045" lon="12.6373367"><ele>414.5</ele><time>2026-04-12T08:51:54.036Z</time></trkpt><trkpt lat="43.7209717" lon="12.637185"><ele>414.25</ele><time>2026-04-12T08:51:55.031Z</time></trkpt><trkpt lat="43.7208967" lon="12.637035"><ele>414.0</ele><time>2026-04-12T08:51:56.029Z</time></trkpt><trkpt lat="43.7208267" lon="12.636895"><ele>414.0</ele><time>2026-04-12T08:51:57.03Z</time></trkpt><trkpt lat="43.7207633" lon="12.6367683"><ele>414.0</ele><time>2026-04-12T08:51:58.028Z</time></trkpt><trkpt lat="43.7207133" lon="12.6366567"><ele>414.0</ele><time>2026-04-12T08:51:59.032Z</time></trkpt><trkpt lat="43.7206783" lon="12.6365567"><ele>414.0</ele><time>2026-04-12T08:52:00.029Z</time></trkpt><trkpt lat="43.7206767" lon="12.6364567"><ele>414.0</ele><time>2026-04-12T08:52:01.031Z</time></trkpt><trkpt lat="43.7207033" lon="12.6363483"><ele>414.0</ele><time>2026-04-12T08:52:02.028Z</time></trkpt><trkpt lat="43.7208017" lon="12.63625"><ele>414.0</ele><time>2026-04-12T08:52:03.028Z</time></trkpt><trkpt lat="43.7209133" lon="12.636165"><ele>414.0</ele><time>2026-04-12T08:52:04.028Z</time></trkpt><trkpt lat="43.7210483" lon="12.6360683"><ele>414.0</ele><time>2026-04-12T08:52:05.028Z</time></trkpt><trkpt lat="43.72118" lon="12.6359717"><ele>414.0</ele><time>2026-04-12T08:52:06.028Z</time></trkpt><trkpt lat="43.721295" lon="12.635885"><ele>416.0</ele><time>2026-04-12T08:52:07.028Z</time></trkpt><trkpt lat="43.7214033" lon="12.63581"><ele>418.0</ele><time>2026-04-12T08:52:08.032Z</time></trkpt><trkpt lat="43.7215017" lon="12.635745"><ele>420.0</ele><time>2026-04-12T08:52:09.029Z</time></trkpt><trkpt lat="43.7215883" lon="12.635685"><ele>422.0</ele><time>2026-04-12T08:52:10.025Z</time></trkpt><trkpt lat="43.7216717" lon="12.635625"><ele>424.0</ele><time>2026-04-12T08:52:11.029Z</time></trkpt><trkpt lat="43.7217617" lon="12.6355717"><ele>424.0</ele><time>2026-04-12T08:52:12.034Z</time></trkpt><trkpt lat="43.721875" lon="12.63555"><ele>424.0</ele><time>2026-04-12T08:52:13.029Z</time></trkpt><trkpt lat="43.7219967" lon="12.63553"><ele>424.0</ele><time>2026-04-12T08:52:14.025Z</time></trkpt><trkpt lat="43.7221267" lon="12.635505"><ele>424.0</ele><time>2026-04-12T08:52:15.027Z</time></trkpt><trkpt lat="43.722255" lon="12.63547"><ele>427.5</ele><time>2026-04-12T08:52:16.025Z</time></trkpt><trkpt lat="43.7223733" lon="12.6354217"><ele>431.0</ele><time>2026-04-12T08:52:17.025Z</time></trkpt><trkpt lat="43.722485" lon="12.6353667"><ele>434.5</ele><time>2026-04-12T08:52:18.03Z</time></trkpt><trkpt lat="43.7225867" lon="12.63531"><ele>438.0</ele><time>2026-04-12T08:52:19.027Z</time></trkpt><trkpt lat="43.7226833" lon="12.6352567"><ele>432.4</ele><time>2026-04-12T08:52:20.03Z</time></trkpt><trkpt lat="43.7227783" lon="12.6352117"><ele>426.79999999999995</ele><time>2026-04-12T08:52:21.029Z</time></trkpt><trkpt lat="43.72287" lon="12.6351767"><ele>421.2</ele><time>2026-04-12T08:52:22.029Z</time></trkpt><trkpt lat="43.7229583" lon="12.6351533"><ele>415.6</ele><time>2026-04-12T08:52:23.032Z</time></trkpt><trkpt lat="43.7230533" lon="12.6351383"><ele>410.0</ele><time>2026-04-12T08:52:24.029Z</time></trkpt><trkpt lat="43.7231633" lon="12.6351433"><ele>410.0</ele><time>2026-04-12T08:52:25.031Z</time></trkpt><trkpt lat="43.7232717" lon="12.6351383"><ele>410.0</ele><time>2026-04-12T08:52:26.028Z</time></trkpt><trkpt lat="43.7233683" lon="12.6351067"><ele>410.0</ele><time>2026-04-12T08:52:27.035Z</time></trkpt><trkpt lat="43.7234483" lon="12.6350367"><ele>410.0</ele><time>2026-04-12T08:52:28.029Z</time></trkpt><trkpt lat="43.7235083" lon="12.6349133"><ele>410.0</ele><time>2026-04-12T08:52:29.029Z</time></trkpt><trkpt lat="43.7235583" lon="12.6347433"><ele>411.25</ele><time>2026-04-12T08:52:30.029Z</time></trkpt><trkpt lat="43.7235983" lon="12.6345617"><ele>412.5</ele><time>2026-04-12T08:52:31.031Z</time></trkpt><trkpt lat="43.7236317" lon="12.6343983"><ele>413.75</ele><time>2026-04-12T08:52:32.031Z</time></trkpt><trkpt lat="43.72364" lon="12.634245"><ele>415.0</ele><time>2026-04-12T08:52:33.03Z</time></trkpt><trkpt lat="43.723615" lon="12.6340933"><ele>414.0</ele><time>2026-04-12T08:52:34.029Z</time></trkpt><trkpt lat="43.7235583" lon="12.6339367"><ele>413.0</ele><time>2026-04-12T08:52:35.025Z</time></trkpt><trkpt lat="43.7234867" lon="12.6337917"><ele>412.0</ele><time>2026-04-12T08:52:36.026Z</time></trkpt><trkpt lat="43.7234183" lon="12.6336583"><ele>411.0</ele><time>2026-04-12T08:52:37.029Z</time></trkpt><trkpt lat="43.7233583" lon="12.6335183"><ele>411.0</ele><time>2026-04-12T08:52:38.026Z</time></trkpt><trkpt lat="43.7233117" lon="12.6333567"><ele>411.0</ele><time>2026-04-12T08:52:39.032Z</time></trkpt><trkpt lat="43.723275" lon="12.6331733"><ele>411.0</ele><time>2026-04-12T08:52:40.03Z</time></trkpt><trkpt lat="43.7232417" lon="12.6329817"><ele>411.0</ele><time>2026-04-12T08:52:41.028Z</time></trkpt><trkpt lat="43.7232033" lon="12.6328033"><ele>414.75</ele><time>2026-04-12T08:52:42.03Z</time></trkpt><trkpt lat="43.7231617" lon="12.6326483"><ele>418.5</ele><time>2026-04-12T08:52:43.027Z</time></trkpt><trkpt lat="43.723105" lon="12.632515"><ele>422.25</ele><time>2026-04-12T08:52:44.029Z</time></trkpt><trkpt lat="43.7230133" lon="12.6324117"><ele>426.0</ele><time>2026-04-12T08:52:45.031Z</time></trkpt><trkpt lat="43.7228983" lon="12.6323417"><ele>426.0</ele><time>2026-04-12T08:52:46.028Z</time></trkpt><trkpt lat="43.7227583" lon="12.6323167"><ele>426.0</ele><time>2026-04-12T08:52:47.026Z</time></trkpt><trkpt lat="43.7225983" lon="12.6323067"><ele>426.0</ele><time>2026-04-12T08:52:48.027Z</time></trkpt><trkpt lat="43.7224417" lon="12.6322817"><ele>429.75</ele><time>2026-04-12T08:52:49.028Z</time></trkpt><trkpt lat="43.7223" lon="12.632235"><ele>433.5</ele><time>2026-04-12T08:52:50.024Z</time></trkpt><trkpt lat="43.7221767" lon="12.632165"><ele>437.25</ele><time>2026-04-12T08:52:51.027Z</time></trkpt><trkpt lat="43.722065" lon="12.63207"><ele>441.0</ele><time>2026-04-12T08:52:52.025Z</time></trkpt><trkpt lat="43.72197" lon="12.6319483"><ele>433.75</ele><time>2026-04-12T08:52:53.027Z</time></trkpt><trkpt lat="43.7218933" lon="12.631805"><ele>426.5</ele><time>2026-04-12T08:52:54.034Z</time></trkpt><trkpt lat="43.7218167" lon="12.6316633"><ele>419.25</ele><time>2026-04-12T08:52:55.028Z</time></trkpt><trkpt lat="43.721745" lon="12.6315183"><ele>412.0</ele><time>2026-04-12T08:52:56.032Z</time></trkpt><trkpt lat="43.72167" lon="12.631375"><ele>412.0</ele><time>2026-04-12T08:52:57.031Z</time></trkpt><trkpt lat="43.7215983" lon="12.6312283"><ele>412.0</ele><time>2026-04-12T08:52:58.031Z</time></trkpt><trkpt lat="43.7215283" lon="12.6310683"><ele>412.0</ele><time>2026-04-12T08:52:59.029Z</time></trkpt><trkpt lat="43.7214767" lon="12.6308833"><ele>412.0</ele><time>2026-04-12T08:53:00.026Z</time></trkpt><trkpt lat="43.721435" lon="12.6306883"><ele>416.0</ele><time>2026-04-12T08:53:01.03Z</time></trkpt><trkpt lat="43.7214" lon="12.63049"><ele>420.0</ele><time>2026-04-12T08:53:02.029Z</time></trkpt><trkpt lat="43.7213633" lon="12.6302967"><ele>424.0</ele><time>2026-04-12T08:53:03.029Z</time></trkpt><trkpt lat="43.72132" lon="12.6301133"><ele>428.0</ele><time>2026-04-12T08:53:04.028Z</time></trkpt><trkpt lat="43.721265" lon="12.629935"><ele>428.75</ele><time>2026-04-12T08:53:05.025Z</time></trkpt><trkpt lat="43.7212117" lon="12.629775"><ele>429.5</ele><time>2026-04-12T08:53:06.031Z</time></trkpt><trkpt lat="43.7211483" lon="12.6296217"><ele>430.25</ele><time>2026-04-12T08:53:07.027Z</time></trkpt><trkpt lat="43.721085" lon="12.6294667"><ele>431.0</ele><time>2026-04-12T08:53:08.029Z</time></trkpt><trkpt lat="43.7210133" lon="12.62932"><ele>428.0</ele><time>2026-04-12T08:53:09.028Z</time></trkpt><trkpt lat="43.7209217" lon="12.629205"><ele>425.0</ele><time>2026-04-12T08:53:10.031Z</time></trkpt><trkpt lat="43.7208217" lon="12.62912"><ele>422.0</ele><time>2026-04-12T08:53:11.028Z</time></trkpt><trkpt lat="43.7207133" lon="12.6290367"><ele>419.0</ele><time>2026-04-12T08:53:12.032Z</time></trkpt><trkpt lat="43.7205983" lon="12.62895"><ele>419.0</ele><time>2026-04-12T08:53:13.029Z</time></trkpt><trkpt lat="43.7204817" lon="12.6288583"><ele>419.0</ele><time>2026-04-12T08:53:14.037Z</time></trkpt><trkpt lat="43.72036" lon="12.6287633"><ele>419.0</ele><time>2026-04-12T08:53:15.024Z</time></trkpt><trkpt lat="43.72023" lon="12.6286633"><ele>419.0</ele><time>2026-04-12T08:53:16.03Z</time></trkpt><trkpt lat="43.7200717" lon="12.62857"><ele>423.0</ele><time>2026-04-12T08:53:17.03Z</time></trkpt><trkpt lat="43.7199" lon="12.62849"><ele>427.0</ele><time>2026-04-12T08:53:18.028Z</time></trkpt><trkpt lat="43.719745" lon="12.628415"><ele>431.0</ele><time>2026-04-12T08:53:19.033Z</time></trkpt><trkpt lat="43.7196067" lon="12.628355"><ele>431.0</ele><time>2026-04-12T08:53:20.029Z</time></trkpt><trkpt lat="43.7194717" lon="12.6283117"><ele>431.0</ele><time>2026-04-12T08:53:21.031Z</time></trkpt><trkpt lat="43.7193367" lon="12.6282967"><ele>431.0</ele><time>2026-04-12T08:53:22.031Z</time></trkpt><trkpt lat="43.7192033" lon="12.6283233"><ele>431.0</ele><time>2026-04-12T08:53:23.029Z</time></trkpt><trkpt lat="43.719085" lon="12.628375"><ele>432.25</ele><time>2026-04-12T08:53:24.033Z</time></trkpt><trkpt lat="43.71897" lon="12.6284417"><ele>433.5</ele><time>2026-04-12T08:53:25.028Z</time></trkpt><trkpt lat="43.7188583" lon="12.6284833"><ele>434.75</ele><time>2026-04-12T08:53:26.028Z</time></trkpt><trkpt lat="43.718745" lon="12.628485"><ele>436.0</ele><time>2026-04-12T08:53:27.031Z</time></trkpt><trkpt lat="43.7186317" lon="12.6284533"><ele>434.75</ele><time>2026-04-12T08:53:28.026Z</time></trkpt><trkpt lat="43.7185117" lon="12.6284033"><ele>433.5</ele><time>2026-04-12T08:53:29.026Z</time></trkpt><trkpt lat="43.71839" lon="12.6283367"><ele>432.25</ele><time>2026-04-12T08:53:30.027Z</time></trkpt><trkpt lat="43.7182783" lon="12.62827"><ele>431.0</ele><time>2026-04-12T08:53:31.026Z</time></trkpt><trkpt lat="43.7181733" lon="12.6281917"><ele>431.0</ele><time>2026-04-12T08:53:32.028Z</time></trkpt><trkpt lat="43.7180733" lon="12.6280933"><ele>431.0</ele><time>2026-04-12T08:53:33.028Z</time></trkpt><trkpt lat="43.7179733" lon="12.6279733"><ele>431.0</ele><time>2026-04-12T08:53:34.031Z</time></trkpt><trkpt lat="43.7178783" lon="12.6278317"><ele>431.0</ele><time>2026-04-12T08:53:35.03Z</time></trkpt><trkpt lat="43.7177917" lon="12.6276817"><ele>429.5</ele><time>2026-04-12T08:53:36.029Z</time></trkpt><trkpt lat="43.7177133" lon="12.6275367"><ele>428.0</ele><time>2026-04-12T08:53:37.027Z</time></trkpt><trkpt lat="43.71764" lon="12.627405"><ele>426.5</ele><time>2026-04-12T08:53:38.026Z</time></trkpt><trkpt lat="43.7175667" lon="12.6272767"><ele>425.0</ele><time>2026-04-12T08:53:39.026Z</time></trkpt><trkpt lat="43.71749" lon="12.6271517"><ele>425.0</ele><time>2026-04-12T08:53:40.027Z</time></trkpt><trkpt lat="43.7174033" lon="12.6270317"><ele>425.0</ele><time>2026-04-12T08:53:41.029Z</time></trkpt><trkpt lat="43.7172983" lon="12.6269367"><ele>425.0</ele><time>2026-04-12T08:53:42.024Z</time></trkpt><trkpt lat="43.7171883" lon="12.6268617"><ele>425.0</ele><time>2026-04-12T08:53:43.028Z</time></trkpt><trkpt lat="43.7170883" lon="12.6267883"><ele>427.2</ele><time>2026-04-12T08:53:44.029Z</time></trkpt><trkpt lat="43.7169983" lon="12.6267083"><ele>429.4</ele><time>2026-04-12T08:53:45.03Z</time></trkpt><trkpt lat="43.71692" lon="12.6266133"><ele>431.6</ele><time>2026-04-12T08:53:46.03Z</time></trkpt><trkpt lat="43.71685" lon="12.6265"><ele>433.8</ele><time>2026-04-12T08:53:47.029Z</time></trkpt><trkpt lat="43.71679" lon="12.6263767"><ele>436.0</ele><time>2026-04-12T08:53:48.03Z</time></trkpt><trkpt lat="43.7167317" lon="12.6262467"><ele>432.8</ele><time>2026-04-12T08:53:49.032Z</time></trkpt><trkpt lat="43.716675" lon="12.6261083"><ele>429.6</ele><time>2026-04-12T08:53:50.028Z</time></trkpt><trkpt lat="43.7166217" lon="12.62597"><ele>426.4</ele><time>2026-04-12T08:53:51.031Z</time></trkpt><trkpt lat="43.716565" lon="12.6258383"><ele>423.2</ele><time>2026-04-12T08:53:52.027Z</time></trkpt><trkpt lat="43.7165017" lon="12.6257133"><ele>420.0</ele><time>2026-04-12T08:53:53.03Z</time></trkpt><trkpt lat="43.7164233" lon="12.6256067"><ele>420.0</ele><time>2026-04-12T08:53:54.025Z</time></trkpt><trkpt lat="43.7163233" lon="12.6255233"><ele>420.0</ele><time>2026-04-12T08:53:55.026Z</time></trkpt><trkpt lat="43.7162117" lon="12.625465"><ele>420.0</ele><time>2026-04-12T08:53:56.03Z</time></trkpt><trkpt lat="43.7160983" lon="12.625425"><ele>420.0</ele><time>2026-04-12T08:53:57.027Z</time></trkpt><trkpt lat="43.7159833" lon="12.6253983"><ele>417.75</ele><time>2026-04-12T08:53:58.031Z</time></trkpt><trkpt lat="43.7158667" lon="12.6253817"><ele>415.5</ele><time>2026-04-12T08:53:59.032Z</time></trkpt><trkpt lat="43.7157517" lon="12.6253767"><ele>413.25</ele><time>2026-04-12T08:54:00.024Z</time></trkpt><trkpt lat="43.7156367" lon="12.625385"><ele>411.0</ele><time>2026-04-12T08:54:01.028Z</time></trkpt><trkpt lat="43.7155267" lon="12.6254183"><ele>411.0</ele><time>2026-04-12T08:54:02.032Z</time></trkpt><trkpt lat="43.7154233" lon="12.6254733"><ele>411.0</ele><time>2026-04-12T08:54:03.029Z</time></trkpt><trkpt lat="43.7153267" lon="12.6255267"><ele>411.0</ele><time>2026-04-12T08:54:04.033Z</time></trkpt><trkpt lat="43.7152317" lon="12.6255633"><ele>411.0</ele><time>2026-04-12T08:54:05.028Z</time></trkpt><trkpt lat="43.7151367" lon="12.625565"><ele>411.0</ele><time>2026-04-12T08:54:06.027Z</time></trkpt><trkpt lat="43.7150433" lon="12.6255333"><ele>412.0</ele><time>2026-04-12T08:54:07.029Z</time></trkpt><trkpt lat="43.7149517" lon="12.6254667"><ele>413.0</ele><time>2026-04-12T08:54:08.031Z</time></trkpt><trkpt lat="43.7148483" lon="12.6253817"><ele>414.0</ele><time>2026-04-12T08:54:09.028Z</time></trkpt><trkpt lat="43.7147333" lon="12.62529"><ele>415.0</ele><time>2026-04-12T08:54:10.028Z</time></trkpt><trkpt lat="43.714605" lon="12.6251867"><ele>415.5</ele><time>2026-04-12T08:54:11.026Z</time></trkpt><trkpt lat="43.714475" lon="12.6250783"><ele>416.0</ele><time>2026-04-12T08:54:12.029Z</time></trkpt><trkpt lat="43.7143483" lon="12.6249817"><ele>416.5</ele><time>2026-04-12T08:54:13.026Z</time></trkpt><trkpt lat="43.7142333" lon="12.6248833"><ele>417.0</ele><time>2026-04-12T08:54:14.029Z</time></trkpt><trkpt lat="43.7141267" lon="12.62478"><ele>417.0</ele><time>2026-04-12T08:54:15.023Z</time></trkpt><trkpt lat="43.7140217" lon="12.6246667"><ele>417.0</ele><time>2026-04-12T08:54:16.026Z</time></trkpt><trkpt lat="43.7139167" lon="12.62454"><ele>417.0</ele><time>2026-04-12T08:54:17.024Z</time></trkpt><trkpt lat="43.7138217" lon="12.6243983"><ele>417.0</ele><time>2026-04-12T08:54:18.026Z</time></trkpt><trkpt lat="43.7137317" lon="12.6242633"><ele>417.0</ele><time>2026-04-12T08:54:19.025Z</time></trkpt><trkpt lat="43.7136467" lon="12.6241417"><ele>417.0</ele><time>2026-04-12T08:54:20.028Z</time></trkpt><trkpt lat="43.713565" lon="12.624025"><ele>417.0</ele><time>2026-04-12T08:54:21.028Z</time></trkpt><trkpt lat="43.7134883" lon="12.62391"><ele>417.0</ele><time>2026-04-12T08:54:22.026Z</time></trkpt><trkpt lat="43.7134217" lon="12.6237983"><ele>417.0</ele><time>2026-04-12T08:54:23.03Z</time></trkpt><trkpt lat="43.7133767" lon="12.6236717"><ele>417.0</ele><time>2026-04-12T08:54:24.026Z</time></trkpt><trkpt lat="43.713355" lon="12.623535"><ele>417.0</ele><time>2026-04-12T08:54:25.026Z</time></trkpt><trkpt lat="43.7133583" lon="12.62338"><ele>417.0</ele><time>2026-04-12T08:54:26.025Z</time></trkpt><trkpt lat="43.7133817" lon="12.623205"><ele>417.0</ele><time>2026-04-12T08:54:27.035Z</time></trkpt><trkpt lat="43.7134233" lon="12.623"><ele>416.66666666666663</ele><time>2026-04-12T08:54:28.032Z</time></trkpt><trkpt lat="43.713485" lon="12.6227683"><ele>416.3333333333333</ele><time>2026-04-12T08:54:29.028Z</time></trkpt><trkpt lat="43.7135767" lon="12.6225233"><ele>416.0</ele><time>2026-04-12T08:54:30.025Z</time></trkpt><trkpt lat="43.7136967" lon="12.62228"><ele>420.0</ele><time>2026-04-12T08:54:31.028Z</time></trkpt><trkpt lat="43.7138217" lon="12.6220483"><ele>424.0</ele><time>2026-04-12T08:54:32.028Z</time></trkpt><trkpt lat="43.71393" lon="12.6218433"><ele>428.0</ele><time>2026-04-12T08:54:33.025Z</time></trkpt><trkpt lat="43.71401" lon="12.6216733"><ele>428.0</ele><time>2026-04-12T08:54:34.029Z</time></trkpt><trkpt lat="43.7140683" lon="12.6215283"><ele>427.99999999999994</ele><time>2026-04-12T08:54:35.031Z</time></trkpt><trkpt lat="43.71409" lon="12.6213867"><ele>427.99999999999994</ele><time>2026-04-12T08:54:36.026Z</time></trkpt><trkpt lat="43.71408" lon="12.621255"><ele>428.0</ele><time>2026-04-12T08:54:37.026Z</time></trkpt><trkpt lat="43.71405" lon="12.6211317"><ele>428.0</ele><time>2026-04-12T08:54:38.026Z</time></trkpt><trkpt lat="43.7139767" lon="12.62102"><ele>428.5</ele><time>2026-04-12T08:54:39.026Z</time></trkpt><trkpt lat="43.7138533" lon="12.620955"><ele>429.0</ele><time>2026-04-12T08:54:40.027Z</time></trkpt><trkpt lat="43.71372" lon="12.620895"><ele>429.5</ele><time>2026-04-12T08:54:41.032Z</time></trkpt><trkpt lat="43.7136033" lon="12.6208233"><ele>430.0</ele><time>2026-04-12T08:54:42.029Z</time></trkpt><trkpt lat="43.7135133" lon="12.6207317"><ele>430.0</ele><time>2026-04-12T08:54:43.029Z</time></trkpt><trkpt lat="43.7134483" lon="12.62061"><ele>430.0</ele><time>2026-04-12T08:54:44.025Z</time></trkpt><trkpt lat="43.7134167" lon="12.6204383"><ele>430.0</ele><time>2026-04-12T08:54:45.027Z</time></trkpt><trkpt lat="43.7133767" lon="12.6202483"><ele>430.0</ele><time>2026-04-12T08:54:46.036Z</time></trkpt><trkpt lat="43.7132983" lon="12.620065"><ele>430.0</ele><time>2026-04-12T08:54:47.028Z</time></trkpt><trkpt lat="43.7131817" lon="12.619905"><ele>430.0</ele><time>2026-04-12T08:54:48.029Z</time></trkpt><trkpt lat="43.7130533" lon="12.61976"><ele>430.0</ele><time>2026-04-12T08:54:49.029Z</time></trkpt><trkpt lat="43.7129333" lon="12.61962"><ele>432.0</ele><time>2026-04-12T08:54:50.024Z</time></trkpt><trkpt lat="43.7128433" lon="12.61947"><ele>434.0</ele><time>2026-04-12T08:54:51.025Z</time></trkpt><trkpt lat="43.71277" lon="12.6193183"><ele>436.0</ele><time>2026-04-12T08:54:52.027Z</time></trkpt><trkpt lat="43.7127267" lon="12.6191483"><ele>438.0</ele><time>2026-04-12T08:54:53.031Z</time></trkpt><trkpt lat="43.7127083" lon="12.6189783"><ele>437.5</ele><time>2026-04-12T08:54:54.03Z</time></trkpt><trkpt lat="43.7127217" lon="12.6188083"><ele>437.0</ele><time>2026-04-12T08:54:55.027Z</time></trkpt><trkpt lat="43.7127583" lon="12.61864"><ele>436.5</ele><time>2026-04-12T08:54:56.026Z</time></trkpt><trkpt lat="43.7128067" lon="12.6184717"><ele>436.0</ele><time>2026-04-12T08:54:57.028Z</time></trkpt><trkpt lat="43.7128633" lon="12.6183"><ele>436.0</ele><time>2026-04-12T08:54:58.031Z</time></trkpt><trkpt lat="43.71292" lon="12.6181117"><ele>436.0</ele><time>2026-04-12T08:54:59.03Z</time></trkpt><trkpt lat="43.71297" lon="12.6179183"><ele>436.0</ele><time>2026-04-12T08:55:00.034Z</time></trkpt><trkpt lat="43.7129917" lon="12.6177167"><ele>436.0</ele><time>2026-04-12T08:55:01.027Z</time></trkpt><trkpt lat="43.7129783" lon="12.6175017"><ele>434.75</ele><time>2026-04-12T08:55:02.029Z</time></trkpt><trkpt lat="43.7129433" lon="12.617295"><ele>433.5</ele><time>2026-04-12T08:55:03.033Z</time></trkpt><trkpt lat="43.7128933" lon="12.61711"><ele>432.25</ele><time>2026-04-12T08:55:04.028Z</time></trkpt><trkpt lat="43.71285" lon="12.6169267"><ele>431.0</ele><time>2026-04-12T08:55:05.029Z</time></trkpt><trkpt lat="43.7128217" lon="12.6167383"><ele>430.25</ele><time>2026-04-12T08:55:06.033Z</time></trkpt><trkpt lat="43.7128017" lon="12.6165433"><ele>429.5</ele><time>2026-04-12T08:55:07.026Z</time></trkpt><trkpt lat="43.7127867" lon="12.6163433"><ele>428.75</ele><time>2026-04-12T08:55:08.032Z</time></trkpt><trkpt lat="43.7127717" lon="12.6161533"><ele>428.0</ele><time>2026-04-12T08:55:09.029Z</time></trkpt><trkpt lat="43.71275" lon="12.61598"><ele>426.5</ele><time>2026-04-12T08:55:10.029Z</time></trkpt><trkpt lat="43.7127117" lon="12.6158183"><ele>425.0</ele><time>2026-04-12T08:55:11.033Z</time></trkpt><trkpt lat="43.7126317" lon="12.615675"><ele>423.5</ele><time>2026-04-12T08:55:12.026Z</time></trkpt><trkpt lat="43.712515" lon="12.6155533"><ele>422.0</ele><time>2026-04-12T08:55:13.03Z</time></trkpt><trkpt lat="43.7123917" lon="12.6154567"><ele>422.0</ele><time>2026-04-12T08:55:14.027Z</time></trkpt><trkpt lat="43.7122767" lon="12.6153733"><ele>422.0</ele><time>2026-04-12T08:55:15.031Z</time></trkpt><trkpt lat="43.7121633" lon="12.6152883"><ele>422.0</ele><time>2026-04-12T08:55:16.028Z</time></trkpt><trkpt lat="43.71205" lon="12.6151983"><ele>422.0</ele><time>2026-04-12T08:55:17.027Z</time></trkpt><trkpt lat="43.71194" lon="12.615095"><ele>421.5</ele><time>2026-04-12T08:55:18.028Z</time></trkpt><trkpt lat="43.71184" lon="12.6149683"><ele>421.0</ele><time>2026-04-12T08:55:19.024Z</time></trkpt><trkpt lat="43.71175" lon="12.6148267"><ele>420.5</ele><time>2026-04-12T08:55:20.025Z</time></trkpt><trkpt lat="43.7116867" lon="12.6146533"><ele>420.0</ele><time>2026-04-12T08:55:21.026Z</time></trkpt><trkpt lat="43.7116283" lon="12.6144783"><ele>420.0</ele><time>2026-04-12T08:55:22.031Z</time></trkpt><trkpt lat="43.7115517" lon="12.614325"><ele>420.0</ele><time>2026-04-12T08:55:23.03Z</time></trkpt><trkpt lat="43.7114467" lon="12.6141983"><ele>420.0</ele><time>2026-04-12T08:55:24.031Z</time></trkpt><trkpt lat="43.7113217" lon="12.6141117"><ele>420.0</ele><time>2026-04-12T08:55:25.032Z</time></trkpt><trkpt lat="43.7111867" lon="12.6140517"><ele>419.5</ele><time>2026-04-12T08:55:26.031Z</time></trkpt><trkpt lat="43.71105" lon="12.6140183"><ele>419.0</ele><time>2026-04-12T08:55:27.028Z</time></trkpt><trkpt lat="43.71092" lon="12.6140133"><ele>418.5</ele><time>2026-04-12T08:55:28.029Z</time></trkpt><trkpt lat="43.710795" lon="12.6140417"><ele>418.0</ele><time>2026-04-12T08:55:29.025Z</time></trkpt><trkpt lat="43.710685" lon="12.61407"><ele>418.0</ele><time>2026-04-12T08:55:30.032Z</time></trkpt><trkpt lat="43.71058" lon="12.6140817"><ele>418.0</ele><time>2026-04-12T08:55:31.03Z</time></trkpt><trkpt lat="43.71049" lon="12.6140533"><ele>418.0</ele><time>2026-04-12T08:55:32.029Z</time></trkpt><trkpt lat="43.7104133" lon="12.61398"><ele>418.0</ele><time>2026-04-12T08:55:33.037Z</time></trkpt><trkpt lat="43.7103817" lon="12.61386"><ele>418.0</ele><time>2026-04-12T08:55:34.026Z</time></trkpt><trkpt lat="43.7103717" lon="12.61373"><ele>418.75</ele><time>2026-04-12T08:55:35.036Z</time></trkpt><trkpt lat="43.71043" lon="12.6136"><ele>419.5</ele><time>2026-04-12T08:55:36.028Z</time></trkpt><trkpt lat="43.710525" lon="12.6134983"><ele>420.25</ele><time>2026-04-12T08:55:37.028Z</time></trkpt><trkpt lat="43.7106367" lon="12.6134033"><ele>421.0</ele><time>2026-04-12T08:55:38.03Z</time></trkpt><trkpt lat="43.7107517" lon="12.6132917"><ele>421.0</ele><time>2026-04-12T08:55:39.026Z</time></trkpt><trkpt lat="43.710845" lon="12.6131417"><ele>421.0</ele><time>2026-04-12T08:55:40.028Z</time></trkpt><trkpt lat="43.7109117" lon="12.61296"><ele>421.0</ele><time>2026-04-12T08:55:41.031Z</time></trkpt><trkpt lat="43.7109467" lon="12.61276"><ele>421.0</ele><time>2026-04-12T08:55:42.03Z</time></trkpt><trkpt lat="43.7109533" lon="12.61256"><ele>419.75</ele><time>2026-04-12T08:55:43.029Z</time></trkpt><trkpt lat="43.71094" lon="12.61238"><ele>418.5</ele><time>2026-04-12T08:55:44.032Z</time></trkpt><trkpt lat="43.7109083" lon="12.6122167"><ele>417.25</ele><time>2026-04-12T08:55:45.03Z</time></trkpt><trkpt lat="43.7108533" lon="12.6120667"><ele>416.0</ele><time>2026-04-12T08:55:46.031Z</time></trkpt><trkpt lat="43.7107667" lon="12.6119367"><ele>414.5</ele><time>2026-04-12T08:55:47.027Z</time></trkpt><trkpt lat="43.7106617" lon="12.611815"><ele>413.0</ele><time>2026-04-12T08:55:48.026Z</time></trkpt><trkpt lat="43.710545" lon="12.611695"><ele>411.5</ele><time>2026-04-12T08:55:49.029Z</time></trkpt><trkpt lat="43.7104233" lon="12.61157"><ele>410.0</ele><time>2026-04-12T08:55:50.031Z</time></trkpt><trkpt lat="43.7103067" lon="12.611425"><ele>410.3333333333333</ele><time>2026-04-12T08:55:51.032Z</time></trkpt><trkpt lat="43.7102067" lon="12.6112483"><ele>410.66666666666663</ele><time>2026-04-12T08:55:52.031Z</time></trkpt><trkpt lat="43.7101217" lon="12.6110483"><ele>411.0</ele><time>2026-04-12T08:55:53.03Z</time></trkpt><trkpt lat="43.7100417" lon="12.610855"><ele>411.0</ele><time>2026-04-12T08:55:54.033Z</time></trkpt><trkpt lat="43.7099633" lon="12.6106733"><ele>411.0</ele><time>2026-04-12T08:55:55.029Z</time></trkpt><trkpt lat="43.7098667" lon="12.6105117"><ele>411.0</ele><time>2026-04-12T08:55:56.033Z</time></trkpt><trkpt lat="43.7097533" lon="12.610365"><ele>410.5</ele><time>2026-04-12T08:55:57.032Z</time></trkpt><trkpt lat="43.709645" lon="12.6102367"><ele>410.0</ele><time>2026-04-12T08:55:58.035Z</time></trkpt><trkpt lat="43.709545" lon="12.61012"><ele>409.5</ele><time>2026-04-12T08:55:59.027Z</time></trkpt><trkpt lat="43.7094533" lon="12.6100117"><ele>409.0</ele><time>2026-04-12T08:56:00.028Z</time></trkpt><trkpt lat="43.7093783" lon="12.6098917"><ele>409.0</ele><time>2026-04-12T08:56:01.027Z</time></trkpt><trkpt lat="43.709325" lon="12.6097517"><ele>409.0</ele><time>2026-04-12T08:56:02.034Z</time></trkpt><trkpt lat="43.709295" lon="12.6096067"><ele>409.0</ele><time>2026-04-12T08:56:03.026Z</time></trkpt><trkpt lat="43.7092767" lon="12.6094567"><ele>409.0</ele><time>2026-04-12T08:56:04.038Z</time></trkpt><trkpt lat="43.7092467" lon="12.6093133"><ele>409.0</ele><time>2026-04-12T08:56:05.03Z</time></trkpt><trkpt lat="43.7091917" lon="12.6092"><ele>411.2</ele><time>2026-04-12T08:56:06.032Z</time></trkpt><trkpt lat="43.709105" lon="12.6091233"><ele>413.4</ele><time>2026-04-12T08:56:07.028Z</time></trkpt><trkpt lat="43.7090067" lon="12.6091"><ele>415.6</ele><time>2026-04-12T08:56:08.033Z</time></trkpt><trkpt lat="43.7089117" lon="12.6091217"><ele>417.8</ele><time>2026-04-12T08:56:09.025Z</time></trkpt><trkpt lat="43.7088117" lon="12.6091783"><ele>420.0</ele><time>2026-04-12T08:56:10.032Z</time></trkpt><trkpt lat="43.7087117" lon="12.6092567"><ele>420.0</ele><time>2026-04-12T08:56:11.032Z</time></trkpt><trkpt lat="43.70861" lon="12.6093333"><ele>420.0</ele><time>2026-04-12T08:56:12.033Z</time></trkpt><trkpt lat="43.708495" lon="12.6093817"><ele>420.0</ele><time>2026-04-12T08:56:13.027Z</time></trkpt><trkpt lat="43.7083667" lon="12.6093933"><ele>420.0</ele><time>2026-04-12T08:56:14.034Z</time></trkpt><trkpt lat="43.7082233" lon="12.6093783"><ele>421.75</ele><time>2026-04-12T08:56:15.037Z</time></trkpt><trkpt lat="43.7080783" lon="12.6093567"><ele>423.5</ele><time>2026-04-12T08:56:16.031Z</time></trkpt><trkpt lat="43.707945" lon="12.609335"><ele>425.25</ele><time>2026-04-12T08:56:17.028Z</time></trkpt><trkpt lat="43.7078233" lon="12.6093083"><ele>427.0</ele><time>2026-04-12T08:56:18.028Z</time></trkpt><trkpt lat="43.7077133" lon="12.6092767"><ele>427.0</ele><time>2026-04-12T08:56:19.032Z</time></trkpt><trkpt lat="43.707615" lon="12.6092267"><ele>427.0</ele><time>2026-04-12T08:56:20.034Z</time></trkpt><trkpt lat="43.7075183" lon="12.6091483"><ele>427.0</ele><time>2026-04-12T08:56:21.034Z</time></trkpt><trkpt lat="43.70743" lon="12.6090417"><ele>427.0</ele><time>2026-04-12T08:56:22.034Z</time></trkpt><trkpt lat="43.7073533" lon="12.608905"><ele>427.0</ele><time>2026-04-12T08:56:23.03Z</time></trkpt><trkpt lat="43.7072817" lon="12.6087533"><ele>427.0</ele><time>2026-04-12T08:56:24.028Z</time></trkpt><trkpt lat="43.7072017" lon="12.6085983"><ele>427.0</ele><time>2026-04-12T08:56:25.035Z</time></trkpt><trkpt lat="43.7071233" lon="12.6084417"><ele>427.0</ele><time>2026-04-12T08:56:26.029Z</time></trkpt><trkpt lat="43.7070433" lon="12.60829"><ele>428.25</ele><time>2026-04-12T08:56:27.03Z</time></trkpt><trkpt lat="43.706965" lon="12.608145"><ele>429.5</ele><time>2026-04-12T08:56:28.032Z</time></trkpt><trkpt lat="43.7068833" lon="12.60801"><ele>430.75</ele><time>2026-04-12T08:56:29.029Z</time></trkpt><trkpt lat="43.70679" lon="12.6078867"><ele>432.0</ele><time>2026-04-12T08:56:30.035Z</time></trkpt><trkpt lat="43.70667" lon="12.607785"><ele>432.0</ele><time>2026-04-12T08:56:31.027Z</time></trkpt><trkpt lat="43.7065467" lon="12.6076633"><ele>432.0</ele><time>2026-04-12T08:56:32.035Z</time></trkpt><trkpt lat="43.70643" lon="12.607515"><ele>432.0</ele><time>2026-04-12T08:56:33.027Z</time></trkpt><trkpt lat="43.7063133" lon="12.6073483"><ele>432.0</ele><time>2026-04-12T08:56:34.029Z</time></trkpt><trkpt lat="43.7061833" lon="12.6071717"><ele>432.0</ele><time>2026-04-12T08:56:35.028Z</time></trkpt><trkpt lat="43.7060367" lon="12.6070167"><ele>432.0</ele><time>2026-04-12T08:56:36.027Z</time></trkpt><trkpt lat="43.7058917" lon="12.6068933"><ele>431.0</ele><time>2026-04-12T08:56:37.027Z</time></trkpt><trkpt lat="43.7057633" lon="12.6067717"><ele>430.0</ele><time>2026-04-12T08:56:38.031Z</time></trkpt><trkpt lat="43.7056583" lon="12.6066433"><ele>429.0</ele><time>2026-04-12T08:56:39.03Z</time></trkpt><trkpt lat="43.7055683" lon="12.6065083"><ele>428.0</ele><time>2026-04-12T08:56:40.027Z</time></trkpt><trkpt lat="43.7054983" lon="12.6063583"><ele>428.0</ele><time>2026-04-12T08:56:41.027Z</time></trkpt><trkpt lat="43.7054483" lon="12.6061983"><ele>428.0</ele><time>2026-04-12T08:56:42.037Z</time></trkpt><trkpt lat="43.705415" lon="12.606025"><ele>428.0</ele><time>2026-04-12T08:56:43.03Z</time></trkpt><trkpt lat="43.7053833" lon="12.605845"><ele>428.0</ele><time>2026-04-12T08:56:44.029Z</time></trkpt><trkpt lat="43.7053367" lon="12.605665"><ele>427.5</ele><time>2026-04-12T08:56:45.029Z</time></trkpt><trkpt lat="43.705275" lon="12.6054933"><ele>427.0</ele><time>2026-04-12T08:56:46.03Z</time></trkpt><trkpt lat="43.7052117" lon="12.605335"><ele>426.5</ele><time>2026-04-12T08:56:47.026Z</time></trkpt><trkpt lat="43.7051533" lon="12.6051883"><ele>426.0</ele><time>2026-04-12T08:56:48.033Z</time></trkpt><trkpt lat="43.705095" lon="12.6050467"><ele>426.0</ele><time>2026-04-12T08:56:49.026Z</time></trkpt><trkpt lat="43.70502" lon="12.60492"><ele>426.0</ele><time>2026-04-12T08:56:50.028Z</time></trkpt><trkpt lat="43.70492" lon="12.604815"><ele>426.0</ele><time>2026-04-12T08:56:51.028Z</time></trkpt><trkpt lat="43.7048133" lon="12.604715"><ele>426.0</ele><time>2026-04-12T08:56:52.029Z</time></trkpt><trkpt lat="43.7047017" lon="12.604615"><ele>426.0</ele><time>2026-04-12T08:56:53.031Z</time></trkpt><trkpt lat="43.7045967" lon="12.6045267"><ele>426.0</ele><time>2026-04-12T08:56:54.029Z</time></trkpt><trkpt lat="43.7044883" lon="12.60445"><ele>426.0</ele><time>2026-04-12T08:56:55.031Z</time></trkpt><trkpt lat="43.7043633" lon="12.6044"><ele>426.0</ele><time>2026-04-12T08:56:56.025Z</time></trkpt><trkpt lat="43.7042317" lon="12.6043883"><ele>426.5</ele><time>2026-04-12T08:56:57.028Z</time></trkpt><trkpt lat="43.7041033" lon="12.6044"><ele>427.0</ele><time>2026-04-12T08:56:58.032Z</time></trkpt><trkpt lat="43.7039733" lon="12.6043833"><ele>427.5</ele><time>2026-04-12T08:56:59.03Z</time></trkpt><trkpt lat="43.70385" lon="12.6043033"><ele>428.0</ele><time>2026-04-12T08:57:00.026Z</time></trkpt><trkpt lat="43.70374" lon="12.6041717"><ele>428.0</ele><time>2026-04-12T08:57:01.03Z</time></trkpt><trkpt lat="43.703635" lon="12.60403"><ele>428.0</ele><time>2026-04-12T08:57:02.028Z</time></trkpt><trkpt lat="43.7035433" lon="12.6038917"><ele>428.0</ele><time>2026-04-12T08:57:03.031Z</time></trkpt><trkpt lat="43.7034633" lon="12.6037567"><ele>428.0</ele><time>2026-04-12T08:57:04.03Z</time></trkpt><trkpt lat="43.703385" lon="12.6036283"><ele>429.25</ele><time>2026-04-12T08:57:05.032Z</time></trkpt><trkpt lat="43.7032867" lon="12.6035233"><ele>430.5</ele><time>2026-04-12T08:57:06.031Z</time></trkpt><trkpt lat="43.703165" lon="12.6034467"><ele>431.75</ele><time>2026-04-12T08:57:07.035Z</time></trkpt><trkpt lat="43.7030367" lon="12.6033583"><ele>433.0</ele><time>2026-04-12T08:57:08.027Z</time></trkpt><trkpt lat="43.7029217" lon="12.6032383"><ele>433.0</ele><time>2026-04-12T08:57:09.031Z</time></trkpt><trkpt lat="43.7028367" lon="12.60308"><ele>433.0</ele><time>2026-04-12T08:57:10.027Z</time></trkpt><trkpt lat="43.70279" lon="12.6028933"><ele>433.0</ele><time>2026-04-12T08:57:11.035Z</time></trkpt><trkpt lat="43.7027517" lon="12.6027133"><ele>433.0</ele><time>2026-04-12T08:57:12.027Z</time></trkpt><trkpt lat="43.702715" lon="12.6025517"><ele>437.59999999999997</ele><time>2026-04-12T08:57:13.032Z</time></trkpt><trkpt lat="43.7026817" lon="12.6024117"><ele>442.19999999999993</ele><time>2026-04-12T08:57:14.033Z</time></trkpt><trkpt lat="43.7026617" lon="12.6022783"><ele>446.8</ele><time>2026-04-12T08:57:15.028Z</time></trkpt><trkpt lat="43.7026533" lon="12.6021483"><ele>451.4</ele><time>2026-04-12T08:57:16.028Z</time></trkpt><trkpt lat="43.7026483" lon="12.6020117"><ele>456.0</ele><time>2026-04-12T08:57:17.025Z</time></trkpt><trkpt lat="43.7026417" lon="12.60187"><ele>456.0</ele><time>2026-04-12T08:57:18.035Z</time></trkpt><trkpt lat="43.702625" lon="12.60172"><ele>456.0</ele><time>2026-04-12T08:57:19.03Z</time></trkpt><trkpt lat="43.702605" lon="12.601565"><ele>456.0</ele><time>2026-04-12T08:57:20.032Z</time></trkpt><trkpt lat="43.7025833" lon="12.6014067"><ele>456.0</ele><time>2026-04-12T08:57:21.027Z</time></trkpt><trkpt lat="43.7025717" lon="12.6012483"><ele>457.20000000000005</ele><time>2026-04-12T08:57:22.033Z</time></trkpt><trkpt lat="43.7025717" lon="12.601095"><ele>458.40000000000003</ele><time>2026-04-12T08:57:23.027Z</time></trkpt><trkpt lat="43.7025833" lon="12.6009533"><ele>459.6</ele><time>2026-04-12T08:57:24.027Z</time></trkpt><trkpt lat="43.7026083" lon="12.60084"><ele>460.8</ele><time>2026-04-12T08:57:25.027Z</time></trkpt><trkpt lat="43.7026433" lon="12.6007483"><ele>462.0</ele><time>2026-04-12T08:57:26.025Z</time></trkpt><trkpt lat="43.702695" lon="12.6006017"><ele>462.0</ele><time>2026-04-12T08:57:28.032Z</time></trkpt><trkpt lat="43.7026717" lon="12.6005167"><ele>462.0</ele><time>2026-04-12T08:57:30.026Z</time></trkpt><trkpt lat="43.7025933" lon="12.6005517"><ele>462.0</ele><time>2026-04-12T08:57:32.028Z</time></trkpt><trkpt lat="43.7025417" lon="12.600605"><ele>462.0</ele><time>2026-04-12T08:57:33.029Z</time></trkpt><trkpt lat="43.7024733" lon="12.6006733"><ele>462.0</ele><time>2026-04-12T08:57:34.029Z</time></trkpt><trkpt lat="43.7024067" lon="12.6007483"><ele>462.0</ele><time>2026-04-12T08:57:35.029Z</time></trkpt><trkpt lat="43.7023383" lon="12.6008417"><ele>462.0</ele><time>2026-04-12T08:57:36.029Z</time></trkpt><trkpt lat="43.7022867" lon="12.600955"><ele>462.00000000000006</ele><time>2026-04-12T08:57:37.028Z</time></trkpt><trkpt lat="43.7022817" lon="12.6010967"><ele>462.00000000000006</ele><time>2026-04-12T08:57:38.026Z</time></trkpt><trkpt lat="43.7022933" lon="12.6012517"><ele>462.0</ele><time>2026-04-12T08:57:39.036Z</time></trkpt><trkpt lat="43.70232" lon="12.6014083"><ele>462.0</ele><time>2026-04-12T08:57:40.032Z</time></trkpt><trkpt lat="43.7023233" lon="12.60158"><ele>460.5</ele><time>2026-04-12T08:57:41.027Z</time></trkpt><trkpt lat="43.7023067" lon="12.6017567"><ele>459.0</ele><time>2026-04-12T08:57:42.027Z</time></trkpt><trkpt lat="43.702265" lon="12.6019333"><ele>457.5</ele><time>2026-04-12T08:57:43.027Z</time></trkpt><trkpt lat="43.702215" lon="12.6020967"><ele>456.0</ele><time>2026-04-12T08:57:44.026Z</time></trkpt><trkpt lat="43.7021617" lon="12.6022383"><ele>456.0</ele><time>2026-04-12T08:57:45.026Z</time></trkpt><trkpt lat="43.7020867" lon="12.60235"><ele>456.0</ele><time>2026-04-12T08:57:46.034Z</time></trkpt><trkpt lat="43.7019883" lon="12.6024483"><ele>456.0</ele><time>2026-04-12T08:57:47.032Z</time></trkpt><trkpt lat="43.7018767" lon="12.6025067"><ele>456.0</ele><time>2026-04-12T08:57:48.032Z</time></trkpt><trkpt lat="43.7017467" lon="12.6025333"><ele>462.25</ele><time>2026-04-12T08:57:49.03Z</time></trkpt><trkpt lat="43.7016017" lon="12.602535"><ele>468.5</ele><time>2026-04-12T08:57:50.033Z</time></trkpt><trkpt lat="43.7014683" lon="12.6025267"><ele>474.75</ele><time>2026-04-12T08:57:51.026Z</time></trkpt><trkpt lat="43.7013433" lon="12.6025183"><ele>481.0</ele><time>2026-04-12T08:57:52.032Z</time></trkpt><trkpt lat="43.7012333" lon="12.6025083"><ele>481.0</ele><time>2026-04-12T08:57:53.03Z</time></trkpt><trkpt lat="43.701125" lon="12.6025"><ele>481.0</ele><time>2026-04-12T08:57:54.036Z</time></trkpt><trkpt lat="43.7010217" lon="12.6025067"><ele>481.0</ele><time>2026-04-12T08:57:55.028Z</time></trkpt><trkpt lat="43.7009183" lon="12.6025417"><ele>481.0</ele><time>2026-04-12T08:57:56.029Z</time></trkpt><trkpt lat="43.7008133" lon="12.602605"><ele>481.0</ele><time>2026-04-12T08:57:57.036Z</time></trkpt><trkpt lat="43.7007083" lon="12.6026867"><ele>481.5</ele><time>2026-04-12T08:57:58.027Z</time></trkpt><trkpt lat="43.70059" lon="12.6027667"><ele>482.0</ele><time>2026-04-12T08:57:59.026Z</time></trkpt><trkpt lat="43.7004583" lon="12.6028233"><ele>482.5</ele><time>2026-04-12T08:58:00.031Z</time></trkpt><trkpt lat="43.7003233" lon="12.602865"><ele>483.0</ele><time>2026-04-12T08:58:01.032Z</time></trkpt><trkpt lat="43.7002" lon="12.6028817"><ele>483.0</ele><time>2026-04-12T08:58:02.029Z</time></trkpt><trkpt lat="43.7000933" lon="12.60289"><ele>482.99999999999994</ele><time>2026-04-12T08:58:03.031Z</time></trkpt><trkpt lat="43.6999967" lon="12.6028883"><ele>482.99999999999994</ele><time>2026-04-12T08:58:04.028Z</time></trkpt><trkpt lat="43.6999067" lon="12.60286"><ele>483.0</ele><time>2026-04-12T08:58:05.026Z</time></trkpt><trkpt lat="43.6998233" lon="12.6028183"><ele>483.0</ele><time>2026-04-12T08:58:06.031Z</time></trkpt><trkpt lat="43.6997517" lon="12.6027767"><ele>485.79999999999995</ele><time>2026-04-12T08:58:07.026Z</time></trkpt><trkpt lat="43.6996933" lon="12.6027433"><ele>488.59999999999997</ele><time>2026-04-12T08:58:08.029Z</time></trkpt><trkpt lat="43.69959" lon="12.6026783"><ele>491.40000000000003</ele><time>2026-04-12T08:58:10.03Z</time></trkpt><trkpt lat="43.6995017" lon="12.6025483"><ele>494.20000000000005</ele><time>2026-04-12T08:58:12.03Z</time></trkpt><trkpt lat="43.699455" lon="12.602485"><ele>497.0</ele><time>2026-04-12T08:58:13.032Z</time></trkpt><trkpt lat="43.69936" lon="12.6023767"><ele>496.99999999999994</ele><time>2026-04-12T08:58:15.028Z</time></trkpt><trkpt lat="43.6993083" lon="12.6023183"><ele>497.0</ele><time>2026-04-12T08:58:16.027Z</time></trkpt><trkpt lat="43.6992517" lon="12.60225"><ele>497.0</ele><time>2026-04-12T08:58:17.036Z</time></trkpt><trkpt lat="43.6992033" lon="12.6021583"><ele>497.0</ele><time>2026-04-12T08:58:18.028Z</time></trkpt><trkpt lat="43.6991517" lon="12.602055"><ele>496.99999999999994</ele><time>2026-04-12T08:58:19.032Z</time></trkpt><trkpt lat="43.6991017" lon="12.601945"><ele>497.0</ele><time>2026-04-12T08:58:20.025Z</time></trkpt><trkpt lat="43.699055" lon="12.60184"><ele>496.66666666666663</ele><time>2026-04-12T08:58:21.03Z</time></trkpt><trkpt lat="43.6990133" lon="12.6017367"><ele>496.3333333333333</ele><time>2026-04-12T08:58:22.027Z</time></trkpt><trkpt lat="43.698975" lon="12.60164"><ele>496.0</ele><time>2026-04-12T08:58:23.028Z</time></trkpt><trkpt lat="43.69894" lon="12.6015433"><ele>495.66666666666663</ele><time>2026-04-12T08:58:24.029Z</time></trkpt><trkpt lat="43.6989083" lon="12.6014433"><ele>495.3333333333333</ele><time>2026-04-12T08:58:25.027Z</time></trkpt><trkpt lat="43.6988817" lon="12.6013283"><ele>495.0</ele><time>2026-04-12T08:58:26.029Z</time></trkpt><trkpt lat="43.6988617" lon="12.6012017"><ele>495.0</ele><time>2026-04-12T08:58:27.028Z</time></trkpt><trkpt lat="43.6988517" lon="12.601075"><ele>495.0</ele><time>2026-04-12T08:58:28.029Z</time></trkpt><trkpt lat="43.6988567" lon="12.6009433"><ele>495.0</ele><time>2026-04-12T08:58:29.032Z</time></trkpt><trkpt lat="43.6988667" lon="12.60082"><ele>495.0</ele><time>2026-04-12T08:58:30.029Z</time></trkpt><trkpt lat="43.6988783" lon="12.6007033"><ele>495.0</ele><time>2026-04-12T08:58:31.033Z</time></trkpt><trkpt lat="43.698895" lon="12.6005883"><ele>495.0</ele><time>2026-04-12T08:58:32.032Z</time></trkpt><trkpt lat="43.69892" lon="12.6004867"><ele>495.0</ele><time>2026-04-12T08:58:33.03Z</time></trkpt><trkpt lat="43.6989383" lon="12.60039"><ele>495.0</ele><time>2026-04-12T08:58:34.032Z</time></trkpt><trkpt lat="43.6989517" lon="12.600295"><ele>495.0</ele><time>2026-04-12T08:58:35.029Z</time></trkpt><trkpt lat="43.6989533" lon="12.600205"><ele>495.0</ele><time>2026-04-12T08:58:36.029Z</time></trkpt><trkpt lat="43.698925" lon="12.6000617"><ele>495.0</ele><time>2026-04-12T08:58:38.03Z</time></trkpt><trkpt lat="43.6988767" lon="12.6000033"><ele>495.0</ele><time>2026-04-12T08:58:39.03Z</time></trkpt><trkpt lat="43.6987867" lon="12.5999733"><ele>494.5</ele><time>2026-04-12T08:58:40.033Z</time></trkpt><trkpt lat="43.698685" lon="12.5999467"><ele>494.0</ele><time>2026-04-12T08:58:41.032Z</time></trkpt><trkpt lat="43.698565" lon="12.599905"><ele>493.5</ele><time>2026-04-12T08:58:42.035Z</time></trkpt><trkpt lat="43.6984317" lon="12.5998533"><ele>493.0</ele><time>2026-04-12T08:58:43.03Z</time></trkpt><trkpt lat="43.698305" lon="12.5997967"><ele>495.5</ele><time>2026-04-12T08:58:44.032Z</time></trkpt><trkpt lat="43.6981933" lon="12.5997333"><ele>498.0</ele><time>2026-04-12T08:58:45.029Z</time></trkpt><trkpt lat="43.69809" lon="12.5996533"><ele>500.5</ele><time>2026-04-12T08:58:46.031Z</time></trkpt><trkpt lat="43.6979917" lon="12.5995617"><ele>503.0</ele><time>2026-04-12T08:58:47.034Z</time></trkpt><trkpt lat="43.697895" lon="12.5994567"><ele>503.0</ele><time>2026-04-12T08:58:48.032Z</time></trkpt><trkpt lat="43.6977917" lon="12.59936"><ele>503.0</ele><time>2026-04-12T08:58:49.028Z</time></trkpt><trkpt lat="43.6976833" lon="12.599265"><ele>503.0</ele><time>2026-04-12T08:58:50.026Z</time></trkpt><trkpt lat="43.6975667" lon="12.5991933"><ele>503.0</ele><time>2026-04-12T08:58:51.032Z</time></trkpt><trkpt lat="43.6974567" lon="12.59913"><ele>500.59999999999997</ele><time>2026-04-12T08:58:52.029Z</time></trkpt><trkpt lat="43.6973583" lon="12.5990683"><ele>498.19999999999993</ele><time>2026-04-12T08:58:53.029Z</time></trkpt><trkpt lat="43.6972683" lon="12.599"><ele>495.8</ele><time>2026-04-12T08:58:54.029Z</time></trkpt><trkpt lat="43.6971883" lon="12.5988983"><ele>493.4</ele><time>2026-04-12T08:58:55.035Z</time></trkpt><trkpt lat="43.6971167" lon="12.59877"><ele>491.0</ele><time>2026-04-12T08:58:56.025Z</time></trkpt><trkpt lat="43.6970533" lon="12.59863"><ele>489.0</ele><time>2026-04-12T08:58:57.026Z</time></trkpt><trkpt lat="43.6969967" lon="12.5984767"><ele>487.0</ele><time>2026-04-12T08:58:58.029Z</time></trkpt><trkpt lat="43.69695" lon="12.598285"><ele>485.0</ele><time>2026-04-12T08:58:59.028Z</time></trkpt><trkpt lat="43.6969167" lon="12.5980833"><ele>483.0</ele><time>2026-04-12T08:59:00.026Z</time></trkpt><trkpt lat="43.69689" lon="12.5978917"><ele>485.79999999999995</ele><time>2026-04-12T08:59:01.029Z</time></trkpt><trkpt lat="43.6968667" lon="12.597725"><ele>488.59999999999997</ele><time>2026-04-12T08:59:02.031Z</time></trkpt><trkpt lat="43.6968467" lon="12.5975783"><ele>491.40000000000003</ele><time>2026-04-12T08:59:03.034Z</time></trkpt><trkpt lat="43.6968183" lon="12.5974433"><ele>494.20000000000005</ele><time>2026-04-12T08:59:04.029Z</time></trkpt><trkpt lat="43.6967667" lon="12.5973217"><ele>497.0</ele><time>2026-04-12T08:59:05.029Z</time></trkpt><trkpt lat="43.6966933" lon="12.5972067"><ele>497.0</ele><time>2026-04-12T08:59:06.029Z</time></trkpt><trkpt lat="43.696615" lon="12.5970817"><ele>497.00000000000006</ele><time>2026-04-12T08:59:07.032Z</time></trkpt><trkpt lat="43.696545" lon="12.59696"><ele>497.00000000000006</ele><time>2026-04-12T08:59:08.028Z</time></trkpt><trkpt lat="43.696485" lon="12.596845"><ele>497.0</ele><time>2026-04-12T08:59:09.031Z</time></trkpt><trkpt lat="43.6964367" lon="12.5967367"><ele>497.0</ele><time>2026-04-12T08:59:10.026Z</time></trkpt><trkpt lat="43.6963967" lon="12.5966333"><ele>496.3333333333333</ele><time>2026-04-12T08:59:11.035Z</time></trkpt><trkpt lat="43.6963567" lon="12.5965333"><ele>495.66666666666663</ele><time>2026-04-12T08:59:12.031Z</time></trkpt><trkpt lat="43.6963233" lon="12.596435"><ele>495.0</ele><time>2026-04-12T08:59:13.031Z</time></trkpt><trkpt lat="43.6962967" lon="12.59634"><ele>494.33333333333337</ele><time>2026-04-12T08:59:14.03Z</time></trkpt><trkpt lat="43.69628" lon="12.596245"><ele>493.6666666666667</ele><time>2026-04-12T08:59:15.029Z</time></trkpt><trkpt lat="43.696265" lon="12.5961433"><ele>493.0</ele><time>2026-04-12T08:59:16.027Z</time></trkpt><trkpt lat="43.6962433" lon="12.596045"><ele>493.00000000000006</ele><time>2026-04-12T08:59:17.028Z</time></trkpt><trkpt lat="43.6962233" lon="12.59594"><ele>493.0</ele><time>2026-04-12T08:59:18.03Z</time></trkpt><trkpt lat="43.6962" lon="12.5958283"><ele>493.0</ele><time>2026-04-12T08:59:19.03Z</time></trkpt><trkpt lat="43.696175" lon="12.595715"><ele>493.0</ele><time>2026-04-12T08:59:20.028Z</time></trkpt><trkpt lat="43.6961533" lon="12.5956083"><ele>493.00000000000006</ele><time>2026-04-12T08:59:21.03Z</time></trkpt><trkpt lat="43.6961333" lon="12.5955067"><ele>493.0</ele><time>2026-04-12T08:59:22.037Z</time></trkpt><trkpt lat="43.696115" lon="12.5954133"><ele>489.59999999999997</ele><time>2026-04-12T08:59:23.03Z</time></trkpt><trkpt lat="43.6960733" lon="12.595275"><ele>486.19999999999993</ele><time>2026-04-12T08:59:25.032Z</time></trkpt><trkpt lat="43.696005" lon="12.59518"><ele>482.8</ele><time>2026-04-12T08:59:27.028Z</time></trkpt><trkpt lat="43.6959883" lon="12.5950617"><ele>479.4</ele><time>2026-04-12T08:59:29.028Z</time></trkpt><trkpt lat="43.6960667" lon="12.5949483"><ele>476.0</ele><time>2026-04-12T08:59:31.029Z</time></trkpt><trkpt lat="43.6961433" lon="12.594935"><ele>475.8</ele><time>2026-04-12T08:59:32.032Z</time></trkpt><trkpt lat="43.6962333" lon="12.59493"><ele>475.6</ele><time>2026-04-12T08:59:33.028Z</time></trkpt><trkpt lat="43.6963417" lon="12.5949433"><ele>475.4</ele><time>2026-04-12T08:59:34.03Z</time></trkpt><trkpt lat="43.6964533" lon="12.59495"><ele>475.2</ele><time>2026-04-12T08:59:35.027Z</time></trkpt><trkpt lat="43.6965567" lon="12.5949483"><ele>475.0</ele><time>2026-04-12T08:59:36.03Z</time></trkpt><trkpt lat="43.6966583" lon="12.5949433"><ele>475.0</ele><time>2026-04-12T08:59:37.027Z</time></trkpt><trkpt lat="43.696755" lon="12.5949383"><ele>475.0</ele><time>2026-04-12T08:59:38.034Z</time></trkpt><trkpt lat="43.69685" lon="12.594935"><ele>475.0</ele><time>2026-04-12T08:59:39.027Z</time></trkpt><trkpt lat="43.6969383" lon="12.5949317"><ele>475.0</ele><time>2026-04-12T08:59:40.03Z</time></trkpt><trkpt lat="43.6970267" lon="12.5949183"><ele>475.0</ele><time>2026-04-12T08:59:41.03Z</time></trkpt><trkpt lat="43.6971183" lon="12.594895"><ele>477.6</ele><time>2026-04-12T08:59:42.028Z</time></trkpt><trkpt lat="43.69721" lon="12.5948633"><ele>480.2</ele><time>2026-04-12T08:59:43.03Z</time></trkpt><trkpt lat="43.6973" lon="12.594825"><ele>482.79999999999995</ele><time>2026-04-12T08:59:44.028Z</time></trkpt><trkpt lat="43.6973867" lon="12.5947767"><ele>485.4</ele><time>2026-04-12T08:59:45.03Z</time></trkpt><trkpt lat="43.6974617" lon="12.59472"><ele>488.0</ele><time>2026-04-12T08:59:46.029Z</time></trkpt><trkpt lat="43.69753" lon="12.59465"><ele>487.99999999999994</ele><time>2026-04-12T08:59:47.026Z</time></trkpt><trkpt lat="43.697595" lon="12.5945733"><ele>488.0</ele><time>2026-04-12T08:59:48.03Z</time></trkpt><trkpt lat="43.69766" lon="12.5944933"><ele>488.0</ele><time>2026-04-12T08:59:49.032Z</time></trkpt><trkpt lat="43.6977233" lon="12.5944083"><ele>488.0</ele><time>2026-04-12T08:59:50.031Z</time></trkpt><trkpt lat="43.6977867" lon="12.5943283"><ele>487.99999999999994</ele><time>2026-04-12T08:59:51.028Z</time></trkpt><trkpt lat="43.6978567" lon="12.5942583"><ele>488.0</ele><time>2026-04-12T08:59:52.031Z</time></trkpt><trkpt lat="43.6979417" lon="12.5942033"><ele>487.0</ele><time>2026-04-12T08:59:53.025Z</time></trkpt><trkpt lat="43.69804" lon="12.59415"><ele>485.99999999999994</ele><time>2026-04-12T08:59:54.028Z</time></trkpt><trkpt lat="43.6981383" lon="12.5941033"><ele>484.99999999999994</ele><time>2026-04-12T08:59:55.03Z</time></trkpt><trkpt lat="43.698235" lon="12.5940567"><ele>484.0</ele><time>2026-04-12T08:59:56.032Z</time></trkpt><trkpt lat="43.6983333" lon="12.59402"><ele>483.0</ele><time>2026-04-12T08:59:57.026Z</time></trkpt><trkpt lat="43.6984383" lon="12.593995"><ele>483.0</ele><time>2026-04-12T08:59:58.032Z</time></trkpt><trkpt lat="43.6985483" lon="12.593975"><ele>482.99999999999994</ele><time>2026-04-12T08:59:59.03Z</time></trkpt><trkpt lat="43.69866" lon="12.5939517"><ele>482.99999999999994</ele><time>2026-04-12T09:00:00.028Z</time></trkpt><trkpt lat="43.698765" lon="12.5939183"><ele>483.0</ele><time>2026-04-12T09:00:01.03Z</time></trkpt><trkpt lat="43.6988633" lon="12.5938717"><ele>483.0</ele><time>2026-04-12T09:00:02.028Z</time></trkpt><trkpt lat="43.6989617" lon="12.59381"><ele>484.5</ele><time>2026-04-12T09:00:03.027Z</time></trkpt><trkpt lat="43.69906" lon="12.59373"><ele>486.0</ele><time>2026-04-12T09:00:04.031Z</time></trkpt><trkpt lat="43.6991667" lon="12.5936267"><ele>487.5</ele><time>2026-04-12T09:00:05.033Z</time></trkpt><trkpt lat="43.69929" lon="12.5935033"><ele>489.0</ele><time>2026-04-12T09:00:06.025Z</time></trkpt><trkpt lat="43.6994117" lon="12.5933733"><ele>488.25</ele><time>2026-04-12T09:00:07.024Z</time></trkpt><trkpt lat="43.6995167" lon="12.5932483"><ele>487.5</ele><time>2026-04-12T09:00:08.029Z</time></trkpt><trkpt lat="43.6996133" lon="12.5931267"><ele>486.75</ele><time>2026-04-12T09:00:09.028Z</time></trkpt><trkpt lat="43.699705" lon="12.5930067"><ele>486.0</ele><time>2026-04-12T09:00:10.032Z</time></trkpt><trkpt lat="43.699795" lon="12.59289"><ele>485.0</ele><time>2026-04-12T09:00:11.028Z</time></trkpt><trkpt lat="43.6998817" lon="12.5927783"><ele>484.0</ele><time>2026-04-12T09:00:12.031Z</time></trkpt><trkpt lat="43.69997" lon="12.59267"><ele>483.0</ele><time>2026-04-12T09:00:13.028Z</time></trkpt><trkpt lat="43.7000567" lon="12.5925633"><ele>482.0</ele><time>2026-04-12T09:00:14.027Z</time></trkpt><trkpt lat="43.70015" lon="12.592465"><ele>482.0</ele><time>2026-04-12T09:00:15.031Z</time></trkpt><trkpt lat="43.7002417" lon="12.592385"><ele>482.00000000000006</ele><time>2026-04-12T09:00:16.033Z</time></trkpt><trkpt lat="43.7003233" lon="12.592315"><ele>482.00000000000006</ele><time>2026-04-12T09:00:17.026Z</time></trkpt><trkpt lat="43.700395" lon="12.5922483"><ele>482.0</ele><time>2026-04-12T09:00:18.029Z</time></trkpt><trkpt lat="43.7004467" lon="12.592175"><ele>482.0</ele><time>2026-04-12T09:00:19.033Z</time></trkpt><trkpt lat="43.700485" lon="12.592045"><ele>484.6</ele><time>2026-04-12T09:00:21.03Z</time></trkpt><trkpt lat="43.700435" lon="12.5919267"><ele>487.20000000000005</ele><time>2026-04-12T09:00:23.029Z</time></trkpt><trkpt lat="43.700305" lon="12.5918867"><ele>489.8</ele><time>2026-04-12T09:00:25.026Z</time></trkpt><trkpt lat="43.7002233" lon="12.591875"><ele>492.4</ele><time>2026-04-12T09:00:26.027Z</time></trkpt><trkpt lat="43.7001133" lon="12.5918783"><ele>495.0</ele><time>2026-04-12T09:00:27.027Z</time></trkpt><trkpt lat="43.6999733" lon="12.5919"><ele>495.0</ele><time>2026-04-12T09:00:28.032Z</time></trkpt><trkpt lat="43.6998217" lon="12.5919333"><ele>495.0</ele><time>2026-04-12T09:00:29.028Z</time></trkpt><trkpt lat="43.6996767" lon="12.5919667"><ele>495.0</ele><time>2026-04-12T09:00:30.032Z</time></trkpt><trkpt lat="43.6995483" lon="12.59199"><ele>495.0</ele><time>2026-04-12T09:00:31.028Z</time></trkpt><trkpt lat="43.6994283" lon="12.5920183"><ele>495.0</ele><time>2026-04-12T09:00:32.03Z</time></trkpt><trkpt lat="43.6993183" lon="12.592045"><ele>495.0</ele><time>2026-04-12T09:00:33.027Z</time></trkpt><trkpt lat="43.6992133" lon="12.59206"><ele>495.0</ele><time>2026-04-12T09:00:34.032Z</time></trkpt><trkpt lat="43.6991067" lon="12.59206"><ele>495.0</ele><time>2026-04-12T09:00:35.027Z</time></trkpt><trkpt lat="43.6989933" lon="12.5920333"><ele>495.0</ele><time>2026-04-12T09:00:36.029Z</time></trkpt><trkpt lat="43.698865" lon="12.59199"><ele>495.0</ele><time>2026-04-12T09:00:37.025Z</time></trkpt><trkpt lat="43.69873" lon="12.5919283"><ele>495.0</ele><time>2026-04-12T09:00:38.028Z</time></trkpt><trkpt lat="43.6986033" lon="12.591865"><ele>495.0</ele><time>2026-04-12T09:00:39.027Z</time></trkpt><trkpt lat="43.6984933" lon="12.5918233"><ele>495.0</ele><time>2026-04-12T09:00:40.03Z</time></trkpt><trkpt lat="43.6983883" lon="12.5918117"><ele>494.0</ele><time>2026-04-12T09:00:41.027Z</time></trkpt><trkpt lat="43.6982933" lon="12.5918033"><ele>493.0</ele><time>2026-04-12T09:00:42.033Z</time></trkpt><trkpt lat="43.6982083" lon="12.591775"><ele>492.0</ele><time>2026-04-12T09:00:43.028Z</time></trkpt><trkpt lat="43.6981217" lon="12.5917183"><ele>491.0</ele><time>2026-04-12T09:00:44.03Z</time></trkpt><trkpt lat="43.698025" lon="12.5916683"><ele>490.0</ele><time>2026-04-12T09:00:45.028Z</time></trkpt><trkpt lat="43.697925" lon="12.5916417"><ele>490.0</ele><time>2026-04-12T09:00:46.026Z</time></trkpt><trkpt lat="43.6978133" lon="12.5916517"><ele>490.0</ele><time>2026-04-12T09:00:47.026Z</time></trkpt><trkpt lat="43.6976883" lon="12.5916867"><ele>490.0</ele><time>2026-04-12T09:00:48.03Z</time></trkpt><trkpt lat="43.6975633" lon="12.5917383"><ele>490.0</ele><time>2026-04-12T09:00:49.028Z</time></trkpt><trkpt lat="43.6974583" lon="12.5917667"><ele>488.50000000000006</ele><time>2026-04-12T09:00:50.03Z</time></trkpt><trkpt lat="43.6973733" lon="12.59177"><ele>487.0</ele><time>2026-04-12T09:00:51.027Z</time></trkpt><trkpt lat="43.6973033" lon="12.5917467"><ele>485.5</ele><time>2026-04-12T09:00:52.027Z</time></trkpt><trkpt lat="43.6972433" lon="12.5916883"><ele>484.0</ele><time>2026-04-12T09:00:53.028Z</time></trkpt><trkpt lat="43.6972333" lon="12.5915833"><ele>482.50000000000006</ele><time>2026-04-12T09:00:54.029Z</time></trkpt><trkpt lat="43.6972383" lon="12.5914633"><ele>481.0</ele><time>2026-04-12T09:00:55.028Z</time></trkpt><trkpt lat="43.6972683" lon="12.59134"><ele>481.00000000000006</ele><time>2026-04-12T09:00:56.026Z</time></trkpt><trkpt lat="43.697285" lon="12.591225"><ele>481.0</ele><time>2026-04-12T09:00:57.029Z</time></trkpt><trkpt lat="43.6972883" lon="12.5911233"><ele>481.0</ele><time>2026-04-12T09:00:58.029Z</time></trkpt><trkpt lat="43.6972367" lon="12.5909833"><ele>481.0</ele><time>2026-04-12T09:01:00.027Z</time></trkpt><trkpt lat="43.6971733" lon="12.5909367"><ele>481.00000000000006</ele><time>2026-04-12T09:01:01.025Z</time></trkpt><trkpt lat="43.6970767" lon="12.5909033"><ele>481.0</ele><time>2026-04-12T09:01:02.026Z</time></trkpt><trkpt lat="43.696945" lon="12.59089"><ele>480.75</ele><time>2026-04-12T09:01:03.028Z</time></trkpt><trkpt lat="43.696815" lon="12.5908733"><ele>480.5</ele><time>2026-04-12T09:01:04.03Z</time></trkpt><trkpt lat="43.6966917" lon="12.5908567"><ele>480.25</ele><time>2026-04-12T09:01:05.024Z</time></trkpt><trkpt lat="43.6965767" lon="12.5908483"><ele>480.0</ele><time>2026-04-12T09:01:06.025Z</time></trkpt><trkpt lat="43.6964683" lon="12.5908533"><ele>480.0</ele><time>2026-04-12T09:01:07.034Z</time></trkpt><trkpt lat="43.696375" lon="12.590855"><ele>480.0</ele><time>2026-04-12T09:01:08.032Z</time></trkpt><trkpt lat="43.696295" lon="12.5908533"><ele>480.0</ele><time>2026-04-12T09:01:09.029Z</time></trkpt><trkpt lat="43.6962233" lon="12.5908183"><ele>480.0</ele><time>2026-04-12T09:01:10.024Z</time></trkpt><trkpt lat="43.6961667" lon="12.5907383"><ele>480.0</ele><time>2026-04-12T09:01:11.027Z</time></trkpt><trkpt lat="43.6961267" lon="12.5906217"><ele>480.0</ele><time>2026-04-12T09:01:12.03Z</time></trkpt><trkpt lat="43.6961017" lon="12.59049"><ele>480.8333333333333</ele><time>2026-04-12T09:01:13.025Z</time></trkpt><trkpt lat="43.696075" lon="12.590375"><ele>481.66666666666663</ele><time>2026-04-12T09:01:14.03Z</time></trkpt><trkpt lat="43.696055" lon="12.5902817"><ele>482.5</ele><time>2026-04-12T09:01:15.028Z</time></trkpt><trkpt lat="43.69602" lon="12.5901983"><ele>483.3333333333333</ele><time>2026-04-12T09:01:16.031Z</time></trkpt><trkpt lat="43.695965" lon="12.5901283"><ele>484.16666666666663</ele><time>2026-04-12T09:01:17.029Z</time></trkpt><trkpt lat="43.6958783" lon="12.5900933"><ele>485.0</ele><time>2026-04-12T09:01:18.026Z</time></trkpt><trkpt lat="43.69577" lon="12.5900733"><ele>485.0</ele><time>2026-04-12T09:01:19.03Z</time></trkpt><trkpt lat="43.6956267" lon="12.5900733"><ele>485.0</ele><time>2026-04-12T09:01:20.03Z</time></trkpt><trkpt lat="43.695495" lon="12.590075"><ele>485.0</ele><time>2026-04-12T09:01:21.034Z</time></trkpt><trkpt lat="43.6953683" lon="12.5900783"><ele>485.0</ele><time>2026-04-12T09:01:22.033Z</time></trkpt><trkpt lat="43.6952517" lon="12.5900767"><ele>481.8</ele><time>2026-04-12T09:01:23.028Z</time></trkpt><trkpt lat="43.6951367" lon="12.590075"><ele>478.6</ele><time>2026-04-12T09:01:24.031Z</time></trkpt><trkpt lat="43.69502" lon="12.5900617"><ele>475.4</ele><time>2026-04-12T09:01:25.03Z</time></trkpt><trkpt lat="43.69491" lon="12.5900433"><ele>472.2</ele><time>2026-04-12T09:01:26.028Z</time></trkpt><trkpt lat="43.69481" lon="12.5900233"><ele>469.0</ele><time>2026-04-12T09:01:27.029Z</time></trkpt><trkpt lat="43.69472" lon="12.59"><ele>469.00000000000006</ele><time>2026-04-12T09:01:28.029Z</time></trkpt><trkpt lat="43.6946367" lon="12.5899467"><ele>469.0</ele><time>2026-04-12T09:01:29.029Z</time></trkpt><trkpt lat="43.6945533" lon="12.5898883"><ele>469.0</ele><time>2026-04-12T09:01:30.028Z</time></trkpt><trkpt lat="43.6944733" lon="12.5898367"><ele>469.0</ele><time>2026-04-12T09:01:31.026Z</time></trkpt><trkpt lat="43.694395" lon="12.5898"><ele>469.00000000000006</ele><time>2026-04-12T09:01:32.03Z</time></trkpt><trkpt lat="43.69432" lon="12.589755"><ele>469.0</ele><time>2026-04-12T09:01:33.029Z</time></trkpt><trkpt lat="43.694245" lon="12.5896783"><ele>467.0</ele><time>2026-04-12T09:01:34.028Z</time></trkpt><trkpt lat="43.694175" lon="12.589565"><ele>465.0</ele><time>2026-04-12T09:01:35.029Z</time></trkpt><trkpt lat="43.6941017" lon="12.5894317"><ele>463.0</ele><time>2026-04-12T09:01:36.027Z</time></trkpt><trkpt lat="43.6940267" lon="12.589295"><ele>461.0</ele><time>2026-04-12T09:01:37.032Z</time></trkpt><trkpt lat="43.6939533" lon="12.5891683"><ele>461.0</ele><time>2026-04-12T09:01:38.027Z</time></trkpt><trkpt lat="43.6938817" lon="12.5890583"><ele>461.0</ele><time>2026-04-12T09:01:39.03Z</time></trkpt><trkpt lat="43.69381" lon="12.588955"><ele>461.0</ele><time>2026-04-12T09:01:40.034Z</time></trkpt><trkpt lat="43.6937467" lon="12.588855"><ele>461.0</ele><time>2026-04-12T09:01:41.029Z</time></trkpt><trkpt lat="43.6936933" lon="12.5887517"><ele>461.0</ele><time>2026-04-12T09:01:42.027Z</time></trkpt><trkpt lat="43.69365" lon="12.5886417"><ele>460.6</ele><time>2026-04-12T09:01:43.031Z</time></trkpt><trkpt lat="43.6936233" lon="12.5885183"><ele>460.20000000000005</ele><time>2026-04-12T09:01:44.028Z</time></trkpt><trkpt lat="43.6936067" lon="12.5883867"><ele>459.79999999999995</ele><time>2026-04-12T09:01:45.026Z</time></trkpt><trkpt lat="43.6935933" lon="12.5882567"><ele>459.4</ele><time>2026-04-12T09:01:46.027Z</time></trkpt><trkpt lat="43.6935883" lon="12.5881317"><ele>459.0</ele><time>2026-04-12T09:01:47.029Z</time></trkpt><trkpt lat="43.6935783" lon="12.58802"><ele>455.0</ele><time>2026-04-12T09:01:48.025Z</time></trkpt><trkpt lat="43.69356" lon="12.5879167"><ele>451.0</ele><time>2026-04-12T09:01:49.031Z</time></trkpt><trkpt lat="43.69354" lon="12.587825"><ele>447.0</ele><time>2026-04-12T09:01:50.029Z</time></trkpt><trkpt lat="43.6935067" lon="12.58774"><ele>443.0</ele><time>2026-04-12T09:01:51.03Z</time></trkpt><trkpt lat="43.6934733" lon="12.5876533"><ele>439.0</ele><time>2026-04-12T09:01:52.031Z</time></trkpt><trkpt lat="43.69342" lon="12.587575"><ele>435.0</ele><time>2026-04-12T09:01:53.025Z</time></trkpt><trkpt lat="43.6933383" lon="12.5875083"><ele>435.0</ele><time>2026-04-12T09:01:54.03Z</time></trkpt><trkpt lat="43.6932583" lon="12.5874317"><ele>435.0</ele><time>2026-04-12T09:01:55.027Z</time></trkpt><trkpt lat="43.6931967" lon="12.587335"><ele>435.0</ele><time>2026-04-12T09:01:56.026Z</time></trkpt><trkpt lat="43.6931467" lon="12.5872283"><ele>435.0</ele><time>2026-04-12T09:01:57.03Z</time></trkpt><trkpt lat="43.6931167" lon="12.587125"><ele>435.0</ele><time>2026-04-12T09:01:58.031Z</time></trkpt><trkpt lat="43.6931067" lon="12.5870267"><ele>435.0</ele><time>2026-04-12T09:01:59.032Z</time></trkpt><trkpt lat="43.6931133" lon="12.5869333"><ele>433.8333333333333</ele><time>2026-04-12T09:02:00.033Z</time></trkpt><trkpt lat="43.6931467" lon="12.58685"><ele>432.66666666666663</ele><time>2026-04-12T09:02:01.032Z</time></trkpt><trkpt lat="43.693195" lon="12.58677"><ele>431.5</ele><time>2026-04-12T09:02:02.033Z</time></trkpt><trkpt lat="43.6932617" lon="12.5866983"><ele>430.3333333333333</ele><time>2026-04-12T09:02:03.028Z</time></trkpt><trkpt lat="43.693335" lon="12.5866383"><ele>429.16666666666663</ele><time>2026-04-12T09:02:04.031Z</time></trkpt><trkpt lat="43.6934067" lon="12.5865783"><ele>428.0</ele><time>2026-04-12T09:02:05.029Z</time></trkpt><trkpt lat="43.693465" lon="12.5865083"><ele>427.99999999999994</ele><time>2026-04-12T09:02:06.035Z</time></trkpt><trkpt lat="43.69351" lon="12.586405"><ele>428.0</ele><time>2026-04-12T09:02:07.031Z</time></trkpt><trkpt lat="43.69354" lon="12.5862917"><ele>428.0</ele><time>2026-04-12T09:02:08.032Z</time></trkpt><trkpt lat="43.6935467" lon="12.58617"><ele>428.0</ele><time>2026-04-12T09:02:09.031Z</time></trkpt><trkpt lat="43.693555" lon="12.586055"><ele>427.99999999999994</ele><time>2026-04-12T09:02:10.035Z</time></trkpt><trkpt lat="43.6935567" lon="12.5859467"><ele>428.0</ele><time>2026-04-12T09:02:11.029Z</time></trkpt><trkpt lat="43.69355" lon="12.5858383"><ele>426.16666666666663</ele><time>2026-04-12T09:02:12.026Z</time></trkpt><trkpt lat="43.693535" lon="12.5857483"><ele>424.3333333333333</ele><time>2026-04-12T09:02:13.028Z</time></trkpt><trkpt lat="43.693505" lon="12.5856617"><ele>422.5</ele><time>2026-04-12T09:02:14.029Z</time></trkpt><trkpt lat="43.693465" lon="12.5855867"><ele>420.66666666666663</ele><time>2026-04-12T09:02:15.026Z</time></trkpt><trkpt lat="43.69341" lon="12.5855083"><ele>418.8333333333333</ele><time>2026-04-12T09:02:16.031Z</time></trkpt><trkpt lat="43.6933483" lon="12.5854217"><ele>417.0</ele><time>2026-04-12T09:02:17.028Z</time></trkpt><trkpt lat="43.6932817" lon="12.5853383"><ele>416.5</ele><time>2026-04-12T09:02:18.027Z</time></trkpt><trkpt lat="43.693215" lon="12.58526"><ele>416.0</ele><time>2026-04-12T09:02:19.031Z</time></trkpt><trkpt lat="43.6931517" lon="12.5851933"><ele>415.5</ele><time>2026-04-12T09:02:20.03Z</time></trkpt><trkpt lat="43.6930917" lon="12.585145"><ele>415.0</ele><time>2026-04-12T09:02:21.031Z</time></trkpt><trkpt lat="43.6930067" lon="12.5850683"><ele>414.5</ele><time>2026-04-12T09:02:23.028Z</time></trkpt><trkpt lat="43.69291" lon="12.5850183"><ele>414.0</ele><time>2026-04-12T09:03:25.034Z</time></trkpt><trkpt lat="43.6928233" lon="12.5850083"><ele>414.00000000000006</ele><time>2026-04-12T09:03:27.027Z</time></trkpt><trkpt lat="43.69276" lon="12.5849967"><ele>414.0</ele><time>2026-04-12T09:03:28.028Z</time></trkpt><trkpt lat="43.6926883" lon="12.584985"><ele>414.0</ele><time>2026-04-12T09:03:29.03Z</time></trkpt><trkpt lat="43.6926133" lon="12.5849767"><ele>414.0</ele><time>2026-04-12T09:03:30.032Z</time></trkpt><trkpt lat="43.69254" lon="12.5849717"><ele>414.0</ele><time>2026-04-12T09:03:31.036Z</time></trkpt><trkpt lat="43.6924617" lon="12.58498"><ele>414.00000000000006</ele><time>2026-04-12T09:03:32.032Z</time></trkpt><trkpt lat="43.692385" lon="12.5849933"><ele>414.0</ele><time>2026-04-12T09:03:33.031Z</time></trkpt><trkpt lat="43.6922967" lon="12.5850267"><ele>411.0</ele><time>2026-04-12T09:03:34.028Z</time></trkpt><trkpt lat="43.6921983" lon="12.5850733"><ele>408.0</ele><time>2026-04-12T09:03:35.03Z</time></trkpt><trkpt lat="43.6920967" lon="12.5851333"><ele>405.0</ele><time>2026-04-12T09:03:36.029Z</time></trkpt><trkpt lat="43.6920033" lon="12.5851867"><ele>402.0</ele><time>2026-04-12T09:03:37.024Z</time></trkpt><trkpt lat="43.6919167" lon="12.5852367"><ele>399.0</ele><time>2026-04-12T09:03:38.034Z</time></trkpt><trkpt lat="43.691845" lon="12.5852883"><ele>396.0</ele><time>2026-04-12T09:03:39.032Z</time></trkpt><trkpt lat="43.6917833" lon="12.5853417"><ele>393.0</ele><time>2026-04-12T09:03:40.03Z</time></trkpt><trkpt lat="43.6917317" lon="12.5853983"><ele>390.0</ele><time>2026-04-12T09:03:41.03Z</time></trkpt><trkpt lat="43.691655" lon="12.5855317"><ele>387.0</ele><time>2026-04-12T09:03:43.028Z</time></trkpt><trkpt lat="43.6916283" lon="12.585705"><ele>384.0</ele><time>2026-04-12T09:03:45.03Z</time></trkpt><trkpt lat="43.6916283" lon="12.58583"><ele>384.0</ele><time>2026-04-12T09:03:46.026Z</time></trkpt><trkpt lat="43.69163" lon="12.58596"><ele>384.0</ele><time>2026-04-12T09:03:47.027Z</time></trkpt><trkpt lat="43.691635" lon="12.58607"><ele>384.0</ele><time>2026-04-12T09:03:48.033Z</time></trkpt><trkpt lat="43.691635" lon="12.586165"><ele>384.0</ele><time>2026-04-12T09:03:49.028Z</time></trkpt><trkpt lat="43.6916333" lon="12.5863117"><ele>384.0</ele><time>2026-04-12T09:03:51.031Z</time></trkpt><trkpt lat="43.69159" lon="12.586395"><ele>384.0</ele><time>2026-04-12T09:03:53.032Z</time></trkpt><trkpt lat="43.69152" lon="12.586355"><ele>384.0</ele><time>2026-04-12T09:03:55.029Z</time></trkpt><trkpt lat="43.69146" lon="12.5861717"><ele>384.0</ele><time>2026-04-12T09:03:57.03Z</time></trkpt><trkpt lat="43.6914233" lon="12.5860567"><ele>384.0</ele><time>2026-04-12T09:03:58.032Z</time></trkpt><trkpt lat="43.6913767" lon="12.58595"><ele>384.0</ele><time>2026-04-12T09:03:59.03Z</time></trkpt><trkpt lat="43.6913283" lon="12.585855"><ele>384.0</ele><time>2026-04-12T09:04:00.029Z</time></trkpt><trkpt lat="43.6912667" lon="12.585765"><ele>384.0</ele><time>2026-04-12T09:04:01.031Z</time></trkpt><trkpt lat="43.6911833" lon="12.585675"><ele>384.0</ele><time>2026-04-12T09:04:02.033Z</time></trkpt><trkpt lat="43.6910967" lon="12.5855783"><ele>384.0</ele><time>2026-04-12T09:04:03.033Z</time></trkpt><trkpt lat="43.6910183" lon="12.5854883"><ele>384.0</ele><time>2026-04-12T09:04:04.027Z</time></trkpt><trkpt lat="43.690945" lon="12.5853983"><ele>384.0</ele><time>2026-04-12T09:04:05.028Z</time></trkpt><trkpt lat="43.69088" lon="12.5853083"><ele>381.0</ele><time>2026-04-12T09:04:06.026Z</time></trkpt><trkpt lat="43.69082" lon="12.5852167"><ele>378.0</ele><time>2026-04-12T09:04:07.03Z</time></trkpt><trkpt lat="43.6907567" lon="12.58514"><ele>375.0</ele><time>2026-04-12T09:04:08.028Z</time></trkpt><trkpt lat="43.6906833" lon="12.58509"><ele>372.0</ele><time>2026-04-12T09:04:09.025Z</time></trkpt><trkpt lat="43.690605" lon="12.585055"><ele>369.0</ele><time>2026-04-12T09:04:10.031Z</time></trkpt><trkpt lat="43.690525" lon="12.5850067"><ele>366.0</ele><time>2026-04-12T09:04:11.029Z</time></trkpt><trkpt lat="43.6904333" lon="12.5849467"><ele>366.0</ele><time>2026-04-12T09:04:12.028Z</time></trkpt><trkpt lat="43.6903433" lon="12.58486"><ele>366.0</ele><time>2026-04-12T09:04:13.029Z</time></trkpt><trkpt lat="43.690265" lon="12.5847567"><ele>366.0</ele><time>2026-04-12T09:04:14.03Z</time></trkpt><trkpt lat="43.6902017" lon="12.58466"><ele>366.0</ele><time>2026-04-12T09:04:15.029Z</time></trkpt><trkpt lat="43.6901533" lon="12.58458"><ele>366.0</ele><time>2026-04-12T09:04:16.031Z</time></trkpt><trkpt lat="43.6901167" lon="12.5845083"><ele>362.6</ele><time>2026-04-12T09:04:17.032Z</time></trkpt><trkpt lat="43.6900617" lon="12.5843717"><ele>359.20000000000005</ele><time>2026-04-12T09:04:19.038Z</time></trkpt><trkpt lat="43.6900017" lon="12.5842883"><ele>355.79999999999995</ele><time>2026-04-12T09:04:21.029Z</time></trkpt><trkpt lat="43.6899417" lon="12.5843183"><ele>352.4</ele><time>2026-04-12T09:04:23.031Z</time></trkpt><trkpt lat="43.6899217" lon="12.5844317"><ele>349.0</ele><time>2026-04-12T09:04:25.033Z</time></trkpt><trkpt lat="43.6899717" lon="12.5846217"><ele>348.3333333333333</ele><time>2026-04-12T09:04:27.029Z</time></trkpt><trkpt lat="43.6900083" lon="12.58473"><ele>347.66666666666663</ele><time>2026-04-12T09:04:28.034Z</time></trkpt><trkpt lat="43.6900467" lon="12.5848267"><ele>347.0</ele><time>2026-04-12T09:04:29.03Z</time></trkpt><trkpt lat="43.69008" lon="12.584905"><ele>346.3333333333333</ele><time>2026-04-12T09:04:30.028Z</time></trkpt><trkpt lat="43.6900933" lon="12.5850417"><ele>345.6666666666667</ele><time>2026-04-12T09:04:32.031Z</time></trkpt><trkpt lat="43.690005" lon="12.5850933"><ele>345.0</ele><time>2026-04-12T09:04:34.032Z</time></trkpt><trkpt lat="43.6899333" lon="12.5850383"><ele>345.0</ele><time>2026-04-12T09:04:35.03Z</time></trkpt><trkpt lat="43.6898567" lon="12.58494"><ele>345.0</ele><time>2026-04-12T09:04:36.03Z</time></trkpt><trkpt lat="43.6897883" lon="12.5848133"><ele>345.0</ele><time>2026-04-12T09:04:37.028Z</time></trkpt><trkpt lat="43.6897333" lon="12.5846817"><ele>345.0</ele><time>2026-04-12T09:04:38.025Z</time></trkpt><trkpt lat="43.6896867" lon="12.584545"><ele>345.0</ele><time>2026-04-12T09:04:39.032Z</time></trkpt><trkpt lat="43.68964" lon="12.5844133"><ele>345.6666666666667</ele><time>2026-04-12T09:04:40.027Z</time></trkpt><trkpt lat="43.689595" lon="12.5843"><ele>346.3333333333333</ele><time>2026-04-12T09:04:41.03Z</time></trkpt><trkpt lat="43.6895533" lon="12.5842"><ele>347.0</ele><time>2026-04-12T09:04:42.028Z</time></trkpt><trkpt lat="43.6895133" lon="12.5841133"><ele>347.66666666666663</ele><time>2026-04-12T09:04:43.029Z</time></trkpt><trkpt lat="43.6894683" lon="12.5840367"><ele>348.3333333333333</ele><time>2026-04-12T09:04:44.029Z</time></trkpt><trkpt lat="43.6894183" lon="12.58397"><ele>349.0</ele><time>2026-04-12T09:04:45.029Z</time></trkpt><trkpt lat="43.6893567" lon="12.5839033"><ele>345.99999999999994</ele><time>2026-04-12T09:04:46.031Z</time></trkpt><trkpt lat="43.6892867" lon="12.58383"><ele>343.0</ele><time>2026-04-12T09:04:47.028Z</time></trkpt><trkpt lat="43.6892183" lon="12.5837633"><ele>340.0</ele><time>2026-04-12T09:04:48.028Z</time></trkpt><trkpt lat="43.68916" lon="12.5837"><ele>337.0</ele><time>2026-04-12T09:04:49.027Z</time></trkpt><trkpt lat="43.6891133" lon="12.5836317"><ele>334.0</ele><time>2026-04-12T09:04:50.029Z</time></trkpt><trkpt lat="43.689085" lon="12.5835533"><ele>330.99999999999994</ele><time>2026-04-12T09:04:51.029Z</time></trkpt><trkpt lat="43.6890717" lon="12.5834617"><ele>328.0</ele><time>2026-04-12T09:04:52.028Z</time></trkpt><trkpt lat="43.6890767" lon="12.5833533"><ele>328.0</ele><time>2026-04-12T09:04:53.031Z</time></trkpt><trkpt lat="43.68908" lon="12.5832433"><ele>328.0</ele><time>2026-04-12T09:04:54.028Z</time></trkpt><trkpt lat="43.6890867" lon="12.5831383"><ele>328.0</ele><time>2026-04-12T09:04:55.029Z</time></trkpt><trkpt lat="43.6891067" lon="12.5830333"><ele>328.0</ele><time>2026-04-12T09:04:56.029Z</time></trkpt><trkpt lat="43.6891467" lon="12.582945"><ele>328.0</ele><time>2026-04-12T09:04:57.029Z</time></trkpt><trkpt lat="43.68919" lon="12.582875"><ele>328.0</ele><time>2026-04-12T09:04:58.03Z</time></trkpt><trkpt lat="43.6892417" lon="12.5827467"><ele>325.2</ele><time>2026-04-12T09:05:00.032Z</time></trkpt><trkpt lat="43.689215" lon="12.5826167"><ele>322.4</ele><time>2026-04-12T09:05:02.029Z</time></trkpt><trkpt lat="43.68911" lon="12.5825683"><ele>319.59999999999997</ele><time>2026-04-12T09:05:04.029Z</time></trkpt><trkpt lat="43.6890383" lon="12.5825983"><ele>316.79999999999995</ele><time>2026-04-12T09:05:05.032Z</time></trkpt><trkpt lat="43.688965" lon="12.5826533"><ele>314.0</ele><time>2026-04-12T09:05:06.028Z</time></trkpt><trkpt lat="43.6888983" lon="12.582755"><ele>312.0</ele><time>2026-04-12T09:05:07.03Z</time></trkpt><trkpt lat="43.6888417" lon="12.5828717"><ele>310.0</ele><time>2026-04-12T09:05:08.029Z</time></trkpt><trkpt lat="43.6887867" lon="12.5829867"><ele>308.0</ele><time>2026-04-12T09:05:09.029Z</time></trkpt><trkpt lat="43.688725" lon="12.5830983"><ele>306.0</ele><time>2026-04-12T09:05:10.031Z</time></trkpt><trkpt lat="43.688645" lon="12.5831917"><ele>304.0</ele><time>2026-04-12T09:05:11.03Z</time></trkpt><trkpt lat="43.68855" lon="12.583265"><ele>304.0</ele><time>2026-04-12T09:05:12.028Z</time></trkpt><trkpt lat="43.6884433" lon="12.5832967"><ele>304.0</ele><time>2026-04-12T09:05:13.031Z</time></trkpt><trkpt lat="43.6883383" lon="12.5832967"><ele>304.0</ele><time>2026-04-12T09:05:14.029Z</time></trkpt><trkpt lat="43.68822" lon="12.5832767"><ele>304.0</ele><time>2026-04-12T09:05:15.03Z</time></trkpt><trkpt lat="43.6880967" lon="12.5832417"><ele>304.0</ele><time>2026-04-12T09:05:16.03Z</time></trkpt><trkpt lat="43.68798" lon="12.5832033"><ele>304.0</ele><time>2026-04-12T09:05:17.033Z</time></trkpt><trkpt lat="43.6878767" lon="12.5831567"><ele>304.0</ele><time>2026-04-12T09:05:18.025Z</time></trkpt><trkpt lat="43.6877833" lon="12.5831017"><ele>304.0</ele><time>2026-04-12T09:05:19.025Z</time></trkpt><trkpt lat="43.6876967" lon="12.5830367"><ele>304.0</ele><time>2026-04-12T09:05:20.032Z</time></trkpt><trkpt lat="43.6876167" lon="12.582965"><ele>302.3333333333333</ele><time>2026-04-12T09:05:21.03Z</time></trkpt><trkpt lat="43.6875433" lon="12.5828867"><ele>300.66666666666663</ele><time>2026-04-12T09:05:22.032Z</time></trkpt><trkpt lat="43.68747" lon="12.5828183"><ele>299.0</ele><time>2026-04-12T09:05:23.027Z</time></trkpt><trkpt lat="43.6873933" lon="12.5827583"><ele>297.3333333333333</ele><time>2026-04-12T09:05:24.031Z</time></trkpt><trkpt lat="43.6873167" lon="12.5827117"><ele>295.6666666666667</ele><time>2026-04-12T09:05:25.026Z</time></trkpt><trkpt lat="43.68724" lon="12.5826683"><ele>294.0</ele><time>2026-04-12T09:05:26.029Z</time></trkpt><trkpt lat="43.687165" lon="12.5826317"><ele>294.0</ele><time>2026-04-12T09:05:27.026Z</time></trkpt><trkpt lat="43.6870917" lon="12.5825967"><ele>294.0</ele><time>2026-04-12T09:05:28.029Z</time></trkpt><trkpt lat="43.6870183" lon="12.5825767"><ele>294.0</ele><time>2026-04-12T09:05:29.035Z</time></trkpt><trkpt lat="43.686945" lon="12.5825733"><ele>294.0</ele><time>2026-04-12T09:05:30.029Z</time></trkpt><trkpt lat="43.6868683" lon="12.58259"><ele>294.0</ele><time>2026-04-12T09:05:31.025Z</time></trkpt><trkpt lat="43.6868" lon="12.58262"><ele>294.0</ele><time>2026-04-12T09:05:32.028Z</time></trkpt><trkpt lat="43.6867367" lon="12.5826633"><ele>294.0</ele><time>2026-04-12T09:05:33.03Z</time></trkpt><trkpt lat="43.6866783" lon="12.5827167"><ele>293.1666666666667</ele><time>2026-04-12T09:05:34.029Z</time></trkpt><trkpt lat="43.68662" lon="12.5827717"><ele>292.3333333333333</ele><time>2026-04-12T09:05:35.029Z</time></trkpt><trkpt lat="43.686565" lon="12.582815"><ele>291.5</ele><time>2026-04-12T09:05:36.025Z</time></trkpt><trkpt lat="43.686475" lon="12.5828533"><ele>290.66666666666663</ele><time>2026-04-12T09:05:38.033Z</time></trkpt><trkpt lat="43.6863617" lon="12.5828333"><ele>289.8333333333333</ele><time>2026-04-12T09:06:18.032Z</time></trkpt><trkpt lat="43.6863233" lon="12.582725"><ele>289.0</ele><time>2026-04-12T09:12:54.032Z</time></trkpt><trkpt lat="43.686235" lon="12.5826117"><ele>288.0</ele><time>2026-04-12T09:12:56.034Z</time></trkpt><trkpt lat="43.6861867" lon="12.5825483"><ele>287.0</ele><time>2026-04-12T09:12:57.028Z</time></trkpt><trkpt lat="43.686135" lon="12.582495"><ele>286.0</ele><time>2026-04-12T09:12:58.028Z</time></trkpt><trkpt lat="43.686075" lon="12.58246"><ele>285.0</ele><time>2026-04-12T09:12:59.029Z</time></trkpt><trkpt lat="43.6859567" lon="12.5824283"><ele>284.0</ele><time>2026-04-12T09:13:01.029Z</time></trkpt><trkpt lat="43.6858933" lon="12.58243"><ele>283.0</ele><time>2026-04-12T09:13:02.031Z</time></trkpt><trkpt lat="43.6858183" lon="12.5824433"><ele>283.0</ele><time>2026-04-12T09:13:03.031Z</time></trkpt><trkpt lat="43.6857367" lon="12.5824717"><ele>283.0</ele><time>2026-04-12T09:13:04.028Z</time></trkpt><trkpt lat="43.68565" lon="12.5825117"><ele>283.0</ele><time>2026-04-12T09:13:05.029Z</time></trkpt><trkpt lat="43.685565" lon="12.58256"><ele>283.0</ele><time>2026-04-12T09:13:06.026Z</time></trkpt><trkpt lat="43.68548" lon="12.582615"><ele>283.0</ele><time>2026-04-12T09:13:07.027Z</time></trkpt><trkpt lat="43.6854" lon="12.582665"><ele>283.0</ele><time>2026-04-12T09:13:08.031Z</time></trkpt><trkpt lat="43.6853267" lon="12.5827167"><ele>283.16666666666663</ele><time>2026-04-12T09:13:09.031Z</time></trkpt><trkpt lat="43.6852583" lon="12.5827583"><ele>283.3333333333333</ele><time>2026-04-12T09:13:10.031Z</time></trkpt><trkpt lat="43.6851983" lon="12.5828"><ele>283.5</ele><time>2026-04-12T09:13:11.031Z</time></trkpt><trkpt lat="43.6850983" lon="12.5828783"><ele>283.6666666666667</ele><time>2026-04-12T09:13:13.029Z</time></trkpt><trkpt lat="43.6850517" lon="12.5830117"><ele>283.83333333333337</ele><time>2026-04-12T09:13:15.03Z</time></trkpt><trkpt lat="43.6850967" lon="12.5831067"><ele>284.0</ele><time>2026-04-12T09:13:16.033Z</time></trkpt><trkpt lat="43.6851533" lon="12.5831933"><ele>284.83333333333337</ele><time>2026-04-12T09:13:17.031Z</time></trkpt><trkpt lat="43.6852183" lon="12.5832933"><ele>285.6666666666667</ele><time>2026-04-12T09:13:18.028Z</time></trkpt><trkpt lat="43.6852867" lon="12.58339"><ele>286.5</ele><time>2026-04-12T09:13:19.032Z</time></trkpt><trkpt lat="43.6853517" lon="12.5834717"><ele>287.3333333333333</ele><time>2026-04-12T09:13:20.03Z</time></trkpt><trkpt lat="43.6854133" lon="12.5835317"><ele>288.16666666666663</ele><time>2026-04-12T09:13:21.033Z</time></trkpt><trkpt lat="43.6854817" lon="12.583575"><ele>289.0</ele><time>2026-04-12T09:13:22.035Z</time></trkpt><trkpt lat="43.6855567" lon="12.5836017"><ele>290.2</ele><time>2026-04-12T09:13:23.032Z</time></trkpt><trkpt lat="43.6856533" lon="12.5836167"><ele>291.4</ele><time>2026-04-12T09:13:24.027Z</time></trkpt><trkpt lat="43.685765" lon="12.5836283"><ele>292.6</ele><time>2026-04-12T09:13:25.032Z</time></trkpt><trkpt lat="43.6858717" lon="12.5836417"><ele>293.8</ele><time>2026-04-12T09:13:26.035Z</time></trkpt><trkpt lat="43.6859683" lon="12.5836717"><ele>295.0</ele><time>2026-04-12T09:13:27.031Z</time></trkpt><trkpt lat="43.6860567" lon="12.5837117"><ele>296.8333333333333</ele><time>2026-04-12T09:13:28.035Z</time></trkpt><trkpt lat="43.6861367" lon="12.5837567"><ele>298.66666666666663</ele><time>2026-04-12T09:13:29.03Z</time></trkpt><trkpt lat="43.6862067" lon="12.583815"><ele>300.5</ele><time>2026-04-12T09:13:30.036Z</time></trkpt><trkpt lat="43.68627" lon="12.583885"><ele>302.3333333333333</ele><time>2026-04-12T09:13:31.03Z</time></trkpt><trkpt lat="43.68632" lon="12.5839633"><ele>304.1666666666667</ele><time>2026-04-12T09:13:32.028Z</time></trkpt><trkpt lat="43.6863417" lon="12.5840633"><ele>306.0</ele><time>2026-04-12T09:13:33.035Z</time></trkpt><trkpt lat="43.6863556" lon="12.5841669"><ele>306.0</ele><time>2026-04-12T09:13:34.032Z</time></trkpt><trkpt lat="43.6863558" lon="12.5842875"><ele>306.0</ele><time>2026-04-12T09:13:35.03Z</time></trkpt><trkpt lat="43.6863513" lon="12.5844157"><ele>306.0</ele><time>2026-04-12T09:13:36.032Z</time></trkpt><trkpt lat="43.6863476" lon="12.5845483"><ele>306.0</ele><time>2026-04-12T09:13:37.032Z</time></trkpt><trkpt lat="43.6863497" lon="12.5846825"><ele>306.0</ele><time>2026-04-12T09:13:38.03Z</time></trkpt><trkpt lat="43.6863548" lon="12.5848218"><ele>307.8</ele><time>2026-04-12T09:13:39.028Z</time></trkpt><trkpt lat="43.6863601" lon="12.5849656"><ele>309.6</ele><time>2026-04-12T09:13:40.029Z</time></trkpt><trkpt lat="43.6863653" lon="12.5851163"><ele>311.4</ele><time>2026-04-12T09:13:41.03Z</time></trkpt><trkpt lat="43.6863703" lon="12.5852724"><ele>313.2</ele><time>2026-04-12T09:13:42.027Z</time></trkpt><trkpt lat="43.6863762" lon="12.5854426"><ele>315.0</ele><time>2026-04-12T09:13:43.032Z</time></trkpt><trkpt lat="43.6863815" lon="12.5856329"><ele>316.75</ele><time>2026-04-12T09:13:44.028Z</time></trkpt><trkpt lat="43.6863857" lon="12.5858286"><ele>318.5</ele><time>2026-04-12T09:13:45.032Z</time></trkpt><trkpt lat="43.6863889" lon="12.5860007"><ele>320.25</ele><time>2026-04-12T09:13:46.027Z</time></trkpt><trkpt lat="43.6863898" lon="12.586155"><ele>322.0</ele><time>2026-04-12T09:13:47.03Z</time></trkpt><trkpt lat="43.6863899" lon="12.5862981"><ele>323.66666666666663</ele><time>2026-04-12T09:13:48.031Z</time></trkpt><trkpt lat="43.6863884" lon="12.5864327"><ele>325.3333333333333</ele><time>2026-04-12T09:13:49.028Z</time></trkpt><trkpt lat="43.686392" lon="12.5865611"><ele>327.0</ele><time>2026-04-12T09:13:50.028Z</time></trkpt><trkpt lat="43.6864089" lon="12.5866808"><ele>328.6666666666667</ele><time>2026-04-12T09:13:51.029Z</time></trkpt><trkpt lat="43.6864407" lon="12.586788"><ele>330.33333333333337</ele><time>2026-04-12T09:13:52.034Z</time></trkpt><trkpt lat="43.6864838" lon="12.586888"><ele>332.0</ele><time>2026-04-12T09:13:53.028Z</time></trkpt><trkpt lat="43.6865306" lon="12.5869914"><ele>333.6666666666667</ele><time>2026-04-12T09:13:54.027Z</time></trkpt><trkpt lat="43.6865738" lon="12.5871073"><ele>335.33333333333337</ele><time>2026-04-12T09:13:55.027Z</time></trkpt><trkpt lat="43.6866197" lon="12.5872268"><ele>337.0</ele><time>2026-04-12T09:13:56.029Z</time></trkpt><trkpt lat="43.6866598" lon="12.5873399"><ele>338.6666666666667</ele><time>2026-04-12T09:13:57.034Z</time></trkpt><trkpt lat="43.6866874" lon="12.5874431"><ele>340.3333333333333</ele><time>2026-04-12T09:13:58.03Z</time></trkpt><trkpt lat="43.686696" lon="12.5875402"><ele>342.0</ele><time>2026-04-12T09:13:59.027Z</time></trkpt><trkpt lat="43.6866818" lon="12.5876256"><ele>342.0</ele><time>2026-04-12T09:14:00.024Z</time></trkpt><trkpt lat="43.6865785" lon="12.5877253"><ele>342.0</ele><time>2026-04-12T09:14:02.027Z</time></trkpt><trkpt lat="43.6865005" lon="12.5877618"><ele>342.0</ele><time>2026-04-12T09:14:03.03Z</time></trkpt><trkpt lat="43.6864274" lon="12.5878149"><ele>342.0</ele><time>2026-04-12T09:14:04.029Z</time></trkpt><trkpt lat="43.6863705" lon="12.5878911"><ele>342.0</ele><time>2026-04-12T09:14:05.03Z</time></trkpt><trkpt lat="43.68634" lon="12.5879775"><ele>342.0</ele><time>2026-04-12T09:14:06.028Z</time></trkpt><trkpt lat="43.6863294" lon="12.5880775"><ele>343.0</ele><time>2026-04-12T09:14:07.03Z</time></trkpt><trkpt lat="43.6863296" lon="12.5881991"><ele>344.0</ele><time>2026-04-12T09:14:08.031Z</time></trkpt><trkpt lat="43.6863282" lon="12.5883333"><ele>345.0</ele><time>2026-04-12T09:14:09.036Z</time></trkpt><trkpt lat="43.6863215" lon="12.588459"><ele>346.0</ele><time>2026-04-12T09:14:10.027Z</time></trkpt><trkpt lat="43.6863021" lon="12.5885659"><ele>347.0</ele><time>2026-04-12T09:14:11.031Z</time></trkpt><trkpt lat="43.6862667" lon="12.5886553"><ele>348.0</ele><time>2026-04-12T09:14:12.029Z</time></trkpt><trkpt lat="43.6862188" lon="12.5887156"><ele>349.0</ele><time>2026-04-12T09:14:13.03Z</time></trkpt><trkpt lat="43.6861578" lon="12.5887449"><ele>350.0</ele><time>2026-04-12T09:14:14.028Z</time></trkpt><trkpt lat="43.6860853" lon="12.5887526"><ele>351.0</ele><time>2026-04-12T09:14:15.029Z</time></trkpt><trkpt lat="43.6860167" lon="12.5887526"><ele>352.0</ele><time>2026-04-12T09:14:16.026Z</time></trkpt><trkpt lat="43.6859525" lon="12.5887597"><ele>353.0</ele><time>2026-04-12T09:14:17.036Z</time></trkpt><trkpt lat="43.6858359" lon="12.5888091"><ele>354.0</ele><time>2026-04-12T09:14:19.028Z</time></trkpt><trkpt lat="43.685779" lon="12.5888531"><ele>355.3333333333333</ele><time>2026-04-12T09:14:20.027Z</time></trkpt><trkpt lat="43.6857255" lon="12.5889154"><ele>356.6666666666667</ele><time>2026-04-12T09:14:21.031Z</time></trkpt><trkpt lat="43.6856757" lon="12.5890011"><ele>358.0</ele><time>2026-04-12T09:14:22.032Z</time></trkpt><trkpt lat="43.6856244" lon="12.5891119"><ele>359.33333333333337</ele><time>2026-04-12T09:14:23.027Z</time></trkpt><trkpt lat="43.6855738" lon="12.5892295"><ele>360.6666666666667</ele><time>2026-04-12T09:14:24.03Z</time></trkpt><trkpt lat="43.6855276" lon="12.589341"><ele>362.0</ele><time>2026-04-12T09:14:25.028Z</time></trkpt><trkpt lat="43.6854714" lon="12.5894402"><ele>362.25</ele><time>2026-04-12T09:14:26.032Z</time></trkpt><trkpt lat="43.6854012" lon="12.5895234"><ele>362.5</ele><time>2026-04-12T09:14:27.027Z</time></trkpt><trkpt lat="43.6853014" lon="12.5895654"><ele>362.75</ele><time>2026-04-12T09:14:28.033Z</time></trkpt><trkpt lat="43.6851782" lon="12.589574"><ele>363.0</ele><time>2026-04-12T09:14:29.029Z</time></trkpt><trkpt lat="43.6850401" lon="12.5895768"><ele>363.0</ele><time>2026-04-12T09:14:30.025Z</time></trkpt><trkpt lat="43.6849049" lon="12.5895814"><ele>363.0</ele><time>2026-04-12T09:14:31.027Z</time></trkpt><trkpt lat="43.684787" lon="12.5895898"><ele>363.0</ele><time>2026-04-12T09:14:32.026Z</time></trkpt><trkpt lat="43.6846865" lon="12.5895992"><ele>363.0</ele><time>2026-04-12T09:14:33.029Z</time></trkpt><trkpt lat="43.6845929" lon="12.5896265"><ele>363.0</ele><time>2026-04-12T09:14:34.032Z</time></trkpt><trkpt lat="43.6845018" lon="12.5896733"><ele>363.0</ele><time>2026-04-12T09:14:35.028Z</time></trkpt><trkpt lat="43.6844078" lon="12.5897261"><ele>363.0</ele><time>2026-04-12T09:14:36.029Z</time></trkpt><trkpt lat="43.6843064" lon="12.589777"><ele>363.0</ele><time>2026-04-12T09:14:37.026Z</time></trkpt><trkpt lat="43.6841945" lon="12.5898164"><ele>363.0</ele><time>2026-04-12T09:14:38.032Z</time></trkpt><trkpt lat="43.6840824" lon="12.5898357"><ele>363.4</ele><time>2026-04-12T09:14:39.027Z</time></trkpt><trkpt lat="43.6839711" lon="12.5898434"><ele>363.79999999999995</ele><time>2026-04-12T09:14:40.031Z</time></trkpt><trkpt lat="43.6838655" lon="12.589849"><ele>364.2</ele><time>2026-04-12T09:14:41.027Z</time></trkpt><trkpt lat="43.683773" lon="12.5898641"><ele>364.6</ele><time>2026-04-12T09:14:42.029Z</time></trkpt><trkpt lat="43.6836906" lon="12.5898931"><ele>365.0</ele><time>2026-04-12T09:14:43.029Z</time></trkpt><trkpt lat="43.6836181" lon="12.5899427"><ele>365.4</ele><time>2026-04-12T09:14:44.03Z</time></trkpt><trkpt lat="43.6835536" lon="12.5900101"><ele>365.8</ele><time>2026-04-12T09:14:45.03Z</time></trkpt><trkpt lat="43.6834987" lon="12.5900919"><ele>366.20000000000005</ele><time>2026-04-12T09:14:46.029Z</time></trkpt><trkpt lat="43.6834506" lon="12.5901932"><ele>366.6</ele><time>2026-04-12T09:14:47.031Z</time></trkpt><trkpt lat="43.6834116" lon="12.5903139"><ele>367.0</ele><time>2026-04-12T09:14:48.026Z</time></trkpt><trkpt lat="43.6833795" lon="12.5904522"><ele>368.8333333333333</ele><time>2026-04-12T09:14:49.032Z</time></trkpt><trkpt lat="43.6833516" lon="12.5905825"><ele>370.66666666666663</ele><time>2026-04-12T09:14:50.029Z</time></trkpt><trkpt lat="43.683329" lon="12.5906916"><ele>372.5</ele><time>2026-04-12T09:14:51.027Z</time></trkpt><trkpt lat="43.6833166" lon="12.5907861"><ele>374.3333333333333</ele><time>2026-04-12T09:14:52.031Z</time></trkpt><trkpt lat="43.6833208" lon="12.5908786"><ele>376.1666666666667</ele><time>2026-04-12T09:14:53.03Z</time></trkpt><trkpt lat="43.6833557" lon="12.5909739"><ele>378.0</ele><time>2026-04-12T09:14:54.035Z</time></trkpt><trkpt lat="43.683415" lon="12.5910771"><ele>379.5</ele><time>2026-04-12T09:14:55.034Z</time></trkpt><trkpt lat="43.683487" lon="12.5911917"><ele>381.0</ele><time>2026-04-12T09:14:56.024Z</time></trkpt><trkpt lat="43.683564" lon="12.5913098"><ele>382.5</ele><time>2026-04-12T09:14:57.031Z</time></trkpt><trkpt lat="43.6836398" lon="12.5914282"><ele>384.0</ele><time>2026-04-12T09:14:58.027Z</time></trkpt><trkpt lat="43.68371" lon="12.5915461"><ele>384.0</ele><time>2026-04-12T09:14:59.028Z</time></trkpt><trkpt lat="43.6837703" lon="12.5916702"><ele>384.0</ele><time>2026-04-12T09:15:00.029Z</time></trkpt><trkpt lat="43.6838219" lon="12.5918011"><ele>384.0</ele><time>2026-04-12T09:15:01.032Z</time></trkpt><trkpt lat="43.6838636" lon="12.5919442"><ele>384.0</ele><time>2026-04-12T09:15:02.032Z</time></trkpt><trkpt lat="43.6838877" lon="12.5920837"><ele>384.0</ele><time>2026-04-12T09:15:03.027Z</time></trkpt><trkpt lat="43.6838956" lon="12.592209"><ele>386.2</ele><time>2026-04-12T09:15:04.027Z</time></trkpt><trkpt lat="43.6838862" lon="12.5923227"><ele>388.4</ele><time>2026-04-12T09:15:05.029Z</time></trkpt><trkpt lat="43.6838688" lon="12.5924225"><ele>390.6</ele><time>2026-04-12T09:15:06.03Z</time></trkpt><trkpt lat="43.6838615" lon="12.5925665"><ele>392.8</ele><time>2026-04-12T09:15:08.031Z</time></trkpt><trkpt lat="43.6839068" lon="12.5927166"><ele>395.0</ele><time>2026-04-12T09:15:10.035Z</time></trkpt><trkpt lat="43.6839455" lon="12.5928183"><ele>396.8</ele><time>2026-04-12T09:15:11.035Z</time></trkpt><trkpt lat="43.6839918" lon="12.5929458"><ele>398.6</ele><time>2026-04-12T09:15:12.028Z</time></trkpt><trkpt lat="43.6840372" lon="12.5930841"><ele>400.4</ele><time>2026-04-12T09:15:13.032Z</time></trkpt><trkpt lat="43.6840686" lon="12.5932072"><ele>402.2</ele><time>2026-04-12T09:15:14.031Z</time></trkpt><trkpt lat="43.6840855" lon="12.5933067"><ele>404.0</ele><time>2026-04-12T09:15:15.026Z</time></trkpt><trkpt lat="43.6840773" lon="12.5934136"><ele>404.0</ele><time>2026-04-12T09:15:17.028Z</time></trkpt><trkpt lat="43.6839893" lon="12.5935338"><ele>404.0</ele><time>2026-04-12T09:15:34.032Z</time></trkpt><trkpt lat="43.6839297" lon="12.5936371"><ele>404.0</ele><time>2026-04-12T09:15:35.032Z</time></trkpt><trkpt lat="43.6838685" lon="12.5937464"><ele>404.0</ele><time>2026-04-12T09:15:36.032Z</time></trkpt><trkpt lat="43.6838084" lon="12.5938543"><ele>404.0</ele><time>2026-04-12T09:15:37.028Z</time></trkpt><trkpt lat="43.683747" lon="12.5939583"><ele>402.79999999999995</ele><time>2026-04-12T09:15:38.031Z</time></trkpt><trkpt lat="43.6836815" lon="12.5940674"><ele>401.59999999999997</ele><time>2026-04-12T09:15:39.028Z</time></trkpt><trkpt lat="43.6836151" lon="12.5941801"><ele>400.4</ele><time>2026-04-12T09:15:40.027Z</time></trkpt><trkpt lat="43.6835479" lon="12.5942914"><ele>399.2</ele><time>2026-04-12T09:15:41.028Z</time></trkpt><trkpt lat="43.6834849" lon="12.594396"><ele>398.0</ele><time>2026-04-12T09:15:42.028Z</time></trkpt><trkpt lat="43.6834183" lon="12.5944933"><ele>399.49999999999994</ele><time>2026-04-12T09:15:43.027Z</time></trkpt><trkpt lat="43.683345" lon="12.5945667"><ele>401.0</ele><time>2026-04-12T09:15:44.028Z</time></trkpt><trkpt lat="43.68326" lon="12.5946067"><ele>402.5</ele><time>2026-04-12T09:15:45.03Z</time></trkpt><trkpt lat="43.6831783" lon="12.5946233"><ele>404.0</ele><time>2026-04-12T09:15:46.029Z</time></trkpt><trkpt lat="43.6830917" lon="12.5946233"><ele>405.49999999999994</ele><time>2026-04-12T09:15:47.027Z</time></trkpt><trkpt lat="43.683" lon="12.5946333"><ele>407.0</ele><time>2026-04-12T09:15:48.029Z</time></trkpt><trkpt lat="43.682895" lon="12.59467"><ele>407.0</ele><time>2026-04-12T09:15:49.03Z</time></trkpt><trkpt lat="43.6827883" lon="12.594725"><ele>407.0</ele><time>2026-04-12T09:15:50.029Z</time></trkpt><trkpt lat="43.68269" lon="12.594775"><ele>407.0</ele><time>2026-04-12T09:15:51.026Z</time></trkpt><trkpt lat="43.6825933" lon="12.5948017"><ele>407.0</ele><time>2026-04-12T09:15:52.027Z</time></trkpt><trkpt lat="43.68249" lon="12.5948017"><ele>407.0</ele><time>2026-04-12T09:15:53.029Z</time></trkpt><trkpt lat="43.6823733" lon="12.5947767"><ele>405.0</ele><time>2026-04-12T09:15:54.034Z</time></trkpt><trkpt lat="43.68225" lon="12.59474"><ele>403.0</ele><time>2026-04-12T09:15:55.031Z</time></trkpt><trkpt lat="43.6821117" lon="12.5947"><ele>401.0</ele><time>2026-04-12T09:15:56.029Z</time></trkpt><trkpt lat="43.68197" lon="12.5946683"><ele>399.0</ele><time>2026-04-12T09:15:57.032Z</time></trkpt><trkpt lat="43.6818283" lon="12.59464"><ele>398.5</ele><time>2026-04-12T09:15:58.037Z</time></trkpt><trkpt lat="43.68169" lon="12.59462"><ele>398.0</ele><time>2026-04-12T09:15:59.029Z</time></trkpt><trkpt lat="43.681565" lon="12.5945883"><ele>397.5</ele><time>2026-04-12T09:16:00.032Z</time></trkpt><trkpt lat="43.68145" lon="12.5945383"><ele>397.0</ele><time>2026-04-12T09:16:01.027Z</time></trkpt><trkpt lat="43.681345" lon="12.5944833"><ele>396.00000000000006</ele><time>2026-04-12T09:16:02.03Z</time></trkpt><trkpt lat="43.6812583" lon="12.594445"><ele>395.0</ele><time>2026-04-12T09:16:03.028Z</time></trkpt><trkpt lat="43.6811783" lon="12.5944267"><ele>394.0</ele><time>2026-04-12T09:16:04.029Z</time></trkpt><trkpt lat="43.6811017" lon="12.59443"><ele>393.0</ele><time>2026-04-12T09:16:05.031Z</time></trkpt><trkpt lat="43.68104" lon="12.5944783"><ele>392.00000000000006</ele><time>2026-04-12T09:16:06.031Z</time></trkpt><trkpt lat="43.6809983" lon="12.59456"><ele>391.0</ele><time>2026-04-12T09:16:07.029Z</time></trkpt><trkpt lat="43.680985" lon="12.5946733"><ele>391.00000000000006</ele><time>2026-04-12T09:16:08.031Z</time></trkpt><trkpt lat="43.6810067" lon="12.5948117"><ele>391.0</ele><time>2026-04-12T09:16:09.029Z</time></trkpt><trkpt lat="43.6810017" lon="12.5949167"><ele>391.0</ele><time>2026-04-12T09:16:10.024Z</time></trkpt><trkpt lat="43.6809883" lon="12.5950083"><ele>391.0</ele><time>2026-04-12T09:16:11.027Z</time></trkpt><trkpt lat="43.6809317" lon="12.5950783"><ele>391.00000000000006</ele><time>2026-04-12T09:16:13.031Z</time></trkpt><trkpt lat="43.68088" lon="12.594975"><ele>391.0</ele><time>2026-04-12T09:16:15.025Z</time></trkpt><trkpt lat="43.68084" lon="12.5948983"><ele>391.00000000000006</ele><time>2026-04-12T09:16:16.028Z</time></trkpt><trkpt lat="43.6808017" lon="12.5948267"><ele>391.0</ele><time>2026-04-12T09:16:17.031Z</time></trkpt><trkpt lat="43.6806967" lon="12.5947367"><ele>391.0</ele><time>2026-04-12T09:16:19.029Z</time></trkpt><trkpt lat="43.680635" lon="12.5947017"><ele>391.0</ele><time>2026-04-12T09:16:20.031Z</time></trkpt><trkpt lat="43.6805617" lon="12.5946633"><ele>391.00000000000006</ele><time>2026-04-12T09:16:21.03Z</time></trkpt><trkpt lat="43.6804717" lon="12.5946083"><ele>391.0</ele><time>2026-04-12T09:16:22.029Z</time></trkpt><trkpt lat="43.6803783" lon="12.5945533"><ele>387.6666666666667</ele><time>2026-04-12T09:16:23.033Z</time></trkpt><trkpt lat="43.6802483" lon="12.594445"><ele>384.33333333333337</ele><time>2026-04-12T09:16:24.028Z</time></trkpt><trkpt lat="43.6801067" lon="12.594305"><ele>381.0</ele><time>2026-04-12T09:16:25.029Z</time></trkpt><trkpt lat="43.6799717" lon="12.5941667"><ele>381.0</ele><time>2026-04-12T09:16:26.032Z</time></trkpt><trkpt lat="43.6798583" lon="12.594035"><ele>381.0</ele><time>2026-04-12T09:16:27.029Z</time></trkpt><trkpt lat="43.6797533" lon="12.5939117"><ele>381.0</ele><time>2026-04-12T09:16:28.031Z</time></trkpt><trkpt lat="43.6796483" lon="12.593795"><ele>381.0</ele><time>2026-04-12T09:16:29.025Z</time></trkpt><trkpt lat="43.6795517" lon="12.5936867"><ele>379.20000000000005</ele><time>2026-04-12T09:16:30.025Z</time></trkpt><trkpt lat="43.67947" lon="12.5935817"><ele>377.40000000000003</ele><time>2026-04-12T09:16:31.026Z</time></trkpt><trkpt lat="43.6793967" lon="12.5934817"><ele>375.6</ele><time>2026-04-12T09:16:32.029Z</time></trkpt><trkpt lat="43.6793183" lon="12.5934"><ele>373.8</ele><time>2026-04-12T09:16:33.031Z</time></trkpt><trkpt lat="43.6792233" lon="12.593335"><ele>372.0</ele><time>2026-04-12T09:16:34.026Z</time></trkpt><trkpt lat="43.67912" lon="12.5932683"><ele>372.0</ele><time>2026-04-12T09:16:35.03Z</time></trkpt><trkpt lat="43.6790217" lon="12.5931983"><ele>372.0</ele><time>2026-04-12T09:16:36.029Z</time></trkpt><trkpt lat="43.678935" lon="12.5931117"><ele>372.0</ele><time>2026-04-12T09:16:37.028Z</time></trkpt><trkpt lat="43.6788633" lon="12.5930133"><ele>372.0</ele><time>2026-04-12T09:16:38.032Z</time></trkpt><trkpt lat="43.6788117" lon="12.592915"><ele>372.0</ele><time>2026-04-12T09:16:39.027Z</time></trkpt><trkpt lat="43.6787733" lon="12.5928117"><ele>371.0</ele><time>2026-04-12T09:16:40.027Z</time></trkpt><trkpt lat="43.67875" lon="12.5927083"><ele>370.0</ele><time>2026-04-12T09:16:41.03Z</time></trkpt><trkpt lat="43.6787383" lon="12.5926017"><ele>369.0</ele><time>2026-04-12T09:16:42.027Z</time></trkpt><trkpt lat="43.6787417" lon="12.5924933"><ele>368.0</ele><time>2026-04-12T09:16:43.03Z</time></trkpt><trkpt lat="43.6787667" lon="12.5923883"><ele>367.0</ele><time>2026-04-12T09:16:44.028Z</time></trkpt><trkpt lat="43.6788033" lon="12.592295"><ele>366.0</ele><time>2026-04-12T09:16:45.029Z</time></trkpt><trkpt lat="43.6788383" lon="12.5921967"><ele>366.0</ele><time>2026-04-12T09:16:46.032Z</time></trkpt><trkpt lat="43.678865" lon="12.5920867"><ele>366.0</ele><time>2026-04-12T09:16:47.028Z</time></trkpt><trkpt lat="43.6788917" lon="12.5919417"><ele>366.0</ele><time>2026-04-12T09:16:48.03Z</time></trkpt><trkpt lat="43.6789183" lon="12.59178"><ele>366.0</ele><time>2026-04-12T09:16:49.033Z</time></trkpt><trkpt lat="43.678945" lon="12.59162"><ele>366.0</ele><time>2026-04-12T09:16:50.03Z</time></trkpt><trkpt lat="43.678965" lon="12.591475"><ele>364.8333333333333</ele><time>2026-04-12T09:16:51.028Z</time></trkpt><trkpt lat="43.6789833" lon="12.5913417"><ele>363.6666666666667</ele><time>2026-04-12T09:16:52.03Z</time></trkpt><trkpt lat="43.6789867" lon="12.591215"><ele>362.5</ele><time>2026-04-12T09:16:53.03Z</time></trkpt><trkpt lat="43.6789783" lon="12.5910933"><ele>361.33333333333337</ele><time>2026-04-12T09:16:54.029Z</time></trkpt><trkpt lat="43.6789583" lon="12.5909783"><ele>360.1666666666667</ele><time>2026-04-12T09:16:55.031Z</time></trkpt><trkpt lat="43.6789117" lon="12.5908833"><ele>359.0</ele><time>2026-04-12T09:16:56.024Z</time></trkpt><trkpt lat="43.67884" lon="12.590805"><ele>358.5</ele><time>2026-04-12T09:16:57.028Z</time></trkpt><trkpt lat="43.6787517" lon="12.59073"><ele>358.0</ele><time>2026-04-12T09:16:58.031Z</time></trkpt><trkpt lat="43.67864" lon="12.5906767"><ele>357.5</ele><time>2026-04-12T09:16:59.03Z</time></trkpt><trkpt lat="43.6785233" lon="12.5906133"><ele>357.0</ele><time>2026-04-12T09:17:00.031Z</time></trkpt><trkpt lat="43.67841" lon="12.5905383"><ele>357.0</ele><time>2026-04-12T09:17:01.033Z</time></trkpt><trkpt lat="43.6783167" lon="12.5904567"><ele>357.0</ele><time>2026-04-12T09:17:02.033Z</time></trkpt><trkpt lat="43.678235" lon="12.5903833"><ele>357.0</ele><time>2026-04-12T09:17:03.026Z</time></trkpt><trkpt lat="43.6781767" lon="12.590325"><ele>357.0</ele><time>2026-04-12T09:17:04.026Z</time></trkpt><trkpt lat="43.678105" lon="12.5902783"><ele>357.0</ele><time>2026-04-12T09:17:06.027Z</time></trkpt><trkpt lat="43.6780567" lon="12.5901867"><ele>357.0</ele><time>2026-04-12T09:18:15.035Z</time></trkpt><trkpt lat="43.678025" lon="12.5900617"><ele>355.0</ele><time>2026-04-12T09:18:17.031Z</time></trkpt><trkpt lat="43.6780167" lon="12.5898917"><ele>353.0</ele><time>2026-04-12T09:18:19.033Z</time></trkpt><trkpt lat="43.6780267" lon="12.5897883"><ele>351.0</ele><time>2026-04-12T09:18:20.028Z</time></trkpt><trkpt lat="43.6780433" lon="12.5896717"><ele>349.0</ele><time>2026-04-12T09:18:21.028Z</time></trkpt><trkpt lat="43.6780667" lon="12.589545"><ele>347.0</ele><time>2026-04-12T09:18:22.025Z</time></trkpt><trkpt lat="43.678085" lon="12.5894217"><ele>345.8</ele><time>2026-04-12T09:18:23.031Z</time></trkpt><trkpt lat="43.6781067" lon="12.5892917"><ele>344.6</ele><time>2026-04-12T09:18:24.03Z</time></trkpt><trkpt lat="43.6781283" lon="12.5891667"><ele>343.40000000000003</ele><time>2026-04-12T09:18:25.031Z</time></trkpt><trkpt lat="43.6781483" lon="12.5890483"><ele>342.20000000000005</ele><time>2026-04-12T09:18:26.032Z</time></trkpt><trkpt lat="43.6781683" lon="12.588925"><ele>341.0</ele><time>2026-04-12T09:18:27.03Z</time></trkpt><trkpt lat="43.67819" lon="12.5887983"><ele>341.0</ele><time>2026-04-12T09:18:28.033Z</time></trkpt><trkpt lat="43.6782083" lon="12.5886767"><ele>341.0</ele><time>2026-04-12T09:18:29.032Z</time></trkpt><trkpt lat="43.6782283" lon="12.588555"><ele>341.0</ele><time>2026-04-12T09:18:30.031Z</time></trkpt><trkpt lat="43.6782483" lon="12.588425"><ele>341.0</ele><time>2026-04-12T09:18:31.028Z</time></trkpt><trkpt lat="43.6782683" lon="12.588295"><ele>341.0</ele><time>2026-04-12T09:18:32.031Z</time></trkpt><trkpt lat="43.6782883" lon="12.588175"><ele>341.0</ele><time>2026-04-12T09:18:33.035Z</time></trkpt><trkpt lat="43.67831" lon="12.5880533"><ele>341.0</ele><time>2026-04-12T09:18:34.027Z</time></trkpt><trkpt lat="43.6783333" lon="12.5879283"><ele>341.0</ele><time>2026-04-12T09:18:35.031Z</time></trkpt><trkpt lat="43.6783583" lon="12.587805"><ele>341.0</ele><time>2026-04-12T09:18:36.029Z</time></trkpt><trkpt lat="43.67839" lon="12.5876867"><ele>341.0</ele><time>2026-04-12T09:18:37.031Z</time></trkpt><trkpt lat="43.6784233" lon="12.58757"><ele>340.5</ele><time>2026-04-12T09:18:38.034Z</time></trkpt><trkpt lat="43.6784533" lon="12.5874617"><ele>340.0</ele><time>2026-04-12T09:18:39.025Z</time></trkpt><trkpt lat="43.678485" lon="12.5873533"><ele>339.5</ele><time>2026-04-12T09:18:40.03Z</time></trkpt><trkpt lat="43.67851" lon="12.587245"><ele>339.0</ele><time>2026-04-12T09:18:41.027Z</time></trkpt><trkpt lat="43.6785317" lon="12.5871383"><ele>338.5</ele><time>2026-04-12T09:18:42.03Z</time></trkpt><trkpt lat="43.6785483" lon="12.5870317"><ele>338.0</ele><time>2026-04-12T09:18:43.027Z</time></trkpt><trkpt lat="43.6785567" lon="12.5869233"><ele>337.0</ele><time>2026-04-12T09:18:44.026Z</time></trkpt><trkpt lat="43.678555" lon="12.5868067"><ele>336.0</ele><time>2026-04-12T09:18:45.035Z</time></trkpt><trkpt lat="43.678545" lon="12.5866767"><ele>335.0</ele><time>2026-04-12T09:18:46.027Z</time></trkpt><trkpt lat="43.67854" lon="12.5865483"><ele>334.0</ele><time>2026-04-12T09:18:47.03Z</time></trkpt><trkpt lat="43.6785333" lon="12.5864183"><ele>333.0</ele><time>2026-04-12T09:18:48.031Z</time></trkpt><trkpt lat="43.67853" lon="12.586275"><ele>332.2</ele><time>2026-04-12T09:18:49.027Z</time></trkpt><trkpt lat="43.67853" lon="12.5861333"><ele>331.4</ele><time>2026-04-12T09:18:50.026Z</time></trkpt><trkpt lat="43.67854" lon="12.5859983"><ele>330.59999999999997</ele><time>2026-04-12T09:18:51.031Z</time></trkpt><trkpt lat="43.678555" lon="12.5858667"><ele>329.79999999999995</ele><time>2026-04-12T09:18:52.031Z</time></trkpt><trkpt lat="43.67857" lon="12.5857367"><ele>329.0</ele><time>2026-04-12T09:18:53.029Z</time></trkpt><trkpt lat="43.678585" lon="12.5856117"><ele>329.0</ele><time>2026-04-12T09:18:54.035Z</time></trkpt><trkpt lat="43.6785983" lon="12.5854967"><ele>329.0</ele><time>2026-04-12T09:18:55.027Z</time></trkpt><trkpt lat="43.6786067" lon="12.585385"><ele>329.0</ele><time>2026-04-12T09:18:56.033Z</time></trkpt><trkpt lat="43.67861" lon="12.5852817"><ele>329.0</ele><time>2026-04-12T09:18:57.025Z</time></trkpt><trkpt lat="43.6786033" lon="12.5851833"><ele>329.0</ele><time>2026-04-12T09:18:58.031Z</time></trkpt><trkpt lat="43.6785933" lon="12.58509"><ele>329.0</ele><time>2026-04-12T09:18:59.028Z</time></trkpt><trkpt lat="43.67857" lon="12.585"><ele>329.0</ele><time>2026-04-12T09:19:00.027Z</time></trkpt><trkpt lat="43.67854" lon="12.5849233"><ele>327.85714285714283</ele><time>2026-04-12T09:19:01.027Z</time></trkpt><trkpt lat="43.6785033" lon="12.58485"><ele>326.7142857142857</ele><time>2026-04-12T09:19:02.034Z</time></trkpt><trkpt lat="43.6784533" lon="12.584775"><ele>325.57142857142856</ele><time>2026-04-12T09:19:03.028Z</time></trkpt><trkpt lat="43.6783917" lon="12.58471"><ele>324.42857142857144</ele><time>2026-04-12T09:19:04.026Z</time></trkpt><trkpt lat="43.67833" lon="12.5846617"><ele>323.2857142857143</ele><time>2026-04-12T09:19:05.028Z</time></trkpt><trkpt lat="43.6782583" lon="12.58463"><ele>322.1428571428571</ele><time>2026-04-12T09:19:06.03Z</time></trkpt><trkpt lat="43.6781833" lon="12.58461"><ele>321.0</ele><time>2026-04-12T09:19:07.032Z</time></trkpt><trkpt lat="43.6781" lon="12.584595"><ele>321.0</ele><time>2026-04-12T09:19:08.03Z</time></trkpt><trkpt lat="43.6780117" lon="12.584585"><ele>321.0</ele><time>2026-04-12T09:19:09.033Z</time></trkpt><trkpt lat="43.6779167" lon="12.5845767"><ele>321.0</ele><time>2026-04-12T09:19:10.03Z</time></trkpt><trkpt lat="43.6778217" lon="12.58456"><ele>321.0</ele><time>2026-04-12T09:19:11.033Z</time></trkpt><trkpt lat="43.6777333" lon="12.5845383"><ele>321.0</ele><time>2026-04-12T09:19:12.032Z</time></trkpt><trkpt lat="43.67764" lon="12.5845033"><ele>318.0</ele><time>2026-04-12T09:19:13.027Z</time></trkpt><trkpt lat="43.67754" lon="12.5844517"><ele>315.0</ele><time>2026-04-12T09:19:14.03Z</time></trkpt><trkpt lat="43.6774533" lon="12.5843817"><ele>312.0</ele><time>2026-04-12T09:19:15.03Z</time></trkpt><trkpt lat="43.677375" lon="12.5843017"><ele>309.0</ele><time>2026-04-12T09:19:16.025Z</time></trkpt><trkpt lat="43.6772983" lon="12.5842167"><ele>306.0</ele><time>2026-04-12T09:19:17.026Z</time></trkpt><trkpt lat="43.6772283" lon="12.584135"><ele>306.0</ele><time>2026-04-12T09:19:18.028Z</time></trkpt><trkpt lat="43.6771633" lon="12.584055"><ele>306.0</ele><time>2026-04-12T09:19:19.033Z</time></trkpt><trkpt lat="43.677105" lon="12.5839817"><ele>306.0</ele><time>2026-04-12T09:19:20.032Z</time></trkpt><trkpt lat="43.6770517" lon="12.5839067"><ele>306.0</ele><time>2026-04-12T09:19:21.027Z</time></trkpt><trkpt lat="43.6770067" lon="12.58382"><ele>306.0</ele><time>2026-04-12T09:19:22.032Z</time></trkpt><trkpt lat="43.6769683" lon="12.5837233"><ele>306.0</ele><time>2026-04-12T09:19:23.029Z</time></trkpt><trkpt lat="43.67694" lon="12.5836183"><ele>304.7142857142857</ele><time>2026-04-12T09:19:24.025Z</time></trkpt><trkpt lat="43.676915" lon="12.5835133"><ele>303.42857142857144</ele><time>2026-04-12T09:19:25.027Z</time></trkpt><trkpt lat="43.6768883" lon="12.583415"><ele>302.14285714285717</ele><time>2026-04-12T09:19:26.029Z</time></trkpt><trkpt lat="43.67686" lon="12.5833167"><ele>300.8571428571429</ele><time>2026-04-12T09:19:27.027Z</time></trkpt><trkpt lat="43.6768433" lon="12.5832217"><ele>299.5714285714286</ele><time>2026-04-12T09:19:28.032Z</time></trkpt><trkpt lat="43.6768367" lon="12.583125"><ele>298.2857142857143</ele><time>2026-04-12T09:19:29.028Z</time></trkpt><trkpt lat="43.676835" lon="12.5830333"><ele>297.0</ele><time>2026-04-12T09:19:30.035Z</time></trkpt><trkpt lat="43.6768067" lon="12.5828967"><ele>297.0</ele><time>2026-04-12T09:19:32.034Z</time></trkpt><trkpt lat="43.6767183" lon="12.5828267"><ele>297.0</ele><time>2026-04-12T09:19:34.028Z</time></trkpt><trkpt lat="43.67659" lon="12.5829083"><ele>297.0</ele><time>2026-04-12T09:19:36.028Z</time></trkpt><trkpt lat="43.67651" lon="12.5830333"><ele>297.0</ele><time>2026-04-12T09:19:37.031Z</time></trkpt><trkpt lat="43.6764367" lon="12.5831333"><ele>297.0</ele><time>2026-04-12T09:19:38.031Z</time></trkpt><trkpt lat="43.6763583" lon="12.5832317"><ele>297.0</ele><time>2026-04-12T09:19:39.032Z</time></trkpt><trkpt lat="43.6762783" lon="12.583315"><ele>297.0</ele><time>2026-04-12T09:19:40.029Z</time></trkpt><trkpt lat="43.676205" lon="12.58339"><ele>297.0</ele><time>2026-04-12T09:19:41.033Z</time></trkpt><trkpt lat="43.6761417" lon="12.5834667"><ele>297.0</ele><time>2026-04-12T09:19:42.026Z</time></trkpt><trkpt lat="43.676095" lon="12.5835517"><ele>297.6</ele><time>2026-04-12T09:19:43.03Z</time></trkpt><trkpt lat="43.6760583" lon="12.583635"><ele>298.2</ele><time>2026-04-12T09:19:44.03Z</time></trkpt><trkpt lat="43.6759867" lon="12.5837567"><ele>298.8</ele><time>2026-04-12T09:19:46.028Z</time></trkpt><trkpt lat="43.6758983" lon="12.5837017"><ele>299.4</ele><time>2026-04-12T09:19:48.032Z</time></trkpt><trkpt lat="43.6758983" lon="12.58354"><ele>300.0</ele><time>2026-04-12T09:19:50.031Z</time></trkpt><trkpt lat="43.675935" lon="12.58341"><ele>296.25</ele><time>2026-04-12T09:19:51.035Z</time></trkpt><trkpt lat="43.675985" lon="12.5832583"><ele>292.5</ele><time>2026-04-12T09:19:52.033Z</time></trkpt><trkpt lat="43.6760383" lon="12.5831083"><ele>288.75</ele><time>2026-04-12T09:19:53.029Z</time></trkpt><trkpt lat="43.6760867" lon="12.58296"><ele>285.0</ele><time>2026-04-12T09:19:54.028Z</time></trkpt><trkpt lat="43.6761333" lon="12.5828167"><ele>284.6</ele><time>2026-04-12T09:19:55.029Z</time></trkpt><trkpt lat="43.67618" lon="12.5826817"><ele>284.2</ele><time>2026-04-12T09:19:56.028Z</time></trkpt><trkpt lat="43.67622" lon="12.5825583"><ele>283.8</ele><time>2026-04-12T09:19:57.031Z</time></trkpt><trkpt lat="43.6762617" lon="12.5824533"><ele>283.4</ele><time>2026-04-12T09:19:58.033Z</time></trkpt><trkpt lat="43.6763117" lon="12.5823567"><ele>283.0</ele><time>2026-04-12T09:19:59.034Z</time></trkpt><trkpt lat="43.6763683" lon="12.5822817"><ele>283.0</ele><time>2026-04-12T09:20:00.03Z</time></trkpt><trkpt lat="43.6764233" lon="12.5822233"><ele>283.0</ele><time>2026-04-12T09:20:01.029Z</time></trkpt><trkpt lat="43.67647" lon="12.5821567"><ele>283.0</ele><time>2026-04-12T09:20:02.026Z</time></trkpt><trkpt lat="43.6765" lon="12.5820083"><ele>283.0</ele><time>2026-04-12T09:20:04.028Z</time></trkpt><trkpt lat="43.6764083" lon="12.5819133"><ele>283.0</ele><time>2026-04-12T09:20:06.028Z</time></trkpt><trkpt lat="43.676335" lon="12.5819083"><ele>283.0</ele><time>2026-04-12T09:20:07.035Z</time></trkpt><trkpt lat="43.6762417" lon="12.5819517"><ele>281.3333333333333</ele><time>2026-04-12T09:20:08.027Z</time></trkpt><trkpt lat="43.6761533" lon="12.5820083"><ele>279.66666666666663</ele><time>2026-04-12T09:20:09.028Z</time></trkpt><trkpt lat="43.67608" lon="12.5820483"><ele>278.0</ele><time>2026-04-12T09:20:10.027Z</time></trkpt><trkpt lat="43.6760033" lon="12.5820717"><ele>276.3333333333333</ele><time>2026-04-12T09:20:11.029Z</time></trkpt><trkpt lat="43.6759317" lon="12.582055"><ele>274.6666666666667</ele><time>2026-04-12T09:20:12.027Z</time></trkpt><trkpt lat="43.675875" lon="12.5819983"><ele>273.0</ele><time>2026-04-12T09:20:13.029Z</time></trkpt><trkpt lat="43.6758333" lon="12.5819067"><ele>271.4</ele><time>2026-04-12T09:20:14.032Z</time></trkpt><trkpt lat="43.6758017" lon="12.5817867"><ele>269.8</ele><time>2026-04-12T09:20:15.026Z</time></trkpt><trkpt lat="43.6757833" lon="12.5816267"><ele>268.2</ele><time>2026-04-12T09:20:16.028Z</time></trkpt><trkpt lat="43.6757667" lon="12.5814733"><ele>266.6</ele><time>2026-04-12T09:20:17.029Z</time></trkpt><trkpt lat="43.6757417" lon="12.5813483"><ele>265.0</ele><time>2026-04-12T09:20:18.031Z</time></trkpt><trkpt lat="43.6757117" lon="12.5812467"><ele>265.0</ele><time>2026-04-12T09:20:19.029Z</time></trkpt><trkpt lat="43.675675" lon="12.5811633"><ele>265.0</ele><time>2026-04-12T09:20:20.028Z</time></trkpt><trkpt lat="43.675625" lon="12.581105"><ele>265.0</ele><time>2026-04-12T09:20:21.028Z</time></trkpt><trkpt lat="43.6755633" lon="12.58106"><ele>265.0</ele><time>2026-04-12T09:20:22.028Z</time></trkpt><trkpt lat="43.6754817" lon="12.5810533"><ele>265.0</ele><time>2026-04-12T09:20:23.03Z</time></trkpt><trkpt lat="43.6753917" lon="12.58111"><ele>265.0</ele><time>2026-04-12T09:20:24.03Z</time></trkpt><trkpt lat="43.6753033" lon="12.581185"><ele>263.6</ele><time>2026-04-12T09:20:25.03Z</time></trkpt><trkpt lat="43.675215" lon="12.5812733"><ele>262.2</ele><time>2026-04-12T09:20:26.027Z</time></trkpt><trkpt lat="43.6751367" lon="12.5813617"><ele>260.8</ele><time>2026-04-12T09:20:27.026Z</time></trkpt><trkpt lat="43.6750683" lon="12.5814583"><ele>259.4</ele><time>2026-04-12T09:20:28.032Z</time></trkpt><trkpt lat="43.6750117" lon="12.5815633"><ele>258.0</ele><time>2026-04-12T09:20:29.034Z</time></trkpt><trkpt lat="43.67497" lon="12.58167"><ele>258.0</ele><time>2026-04-12T09:20:30.029Z</time></trkpt><trkpt lat="43.6749367" lon="12.5817733"><ele>258.0</ele><time>2026-04-12T09:20:31.032Z</time></trkpt><trkpt lat="43.674905" lon="12.5818617"><ele>258.0</ele><time>2026-04-12T09:20:32.026Z</time></trkpt><trkpt lat="43.6748333" lon="12.5819717"><ele>258.0</ele><time>2026-04-12T09:20:34.029Z</time></trkpt><trkpt lat="43.67474" lon="12.5819417"><ele>258.0</ele><time>2026-04-12T09:20:36.028Z</time></trkpt><trkpt lat="43.6746933" lon="12.5817967"><ele>258.0</ele><time>2026-04-12T09:20:38.028Z</time></trkpt><trkpt lat="43.674695" lon="12.5816833"><ele>258.0</ele><time>2026-04-12T09:20:39.027Z</time></trkpt><trkpt lat="43.6747317" lon="12.5815433"><ele>258.0</ele><time>2026-04-12T09:20:40.028Z</time></trkpt><trkpt lat="43.67478" lon="12.5814117"><ele>258.0</ele><time>2026-04-12T09:20:41.028Z</time></trkpt><trkpt lat="43.6748383" lon="12.5812933"><ele>258.0</ele><time>2026-04-12T09:20:42.028Z</time></trkpt><trkpt lat="43.67489" lon="12.58119"><ele>257.3333333333333</ele><time>2026-04-12T09:20:43.029Z</time></trkpt><trkpt lat="43.6749367" lon="12.58109"><ele>256.6666666666667</ele><time>2026-04-12T09:20:44.032Z</time></trkpt><trkpt lat="43.6749867" lon="12.580995"><ele>256.0</ele><time>2026-04-12T09:20:45.03Z</time></trkpt><trkpt lat="43.6750367" lon="12.5809083"><ele>255.33333333333334</ele><time>2026-04-12T09:20:46.029Z</time></trkpt><trkpt lat="43.6750817" lon="12.5808217"><ele>254.66666666666669</ele><time>2026-04-12T09:20:47.029Z</time></trkpt><trkpt lat="43.6751583" lon="12.580695"><ele>254.0</ele><time>2026-04-12T09:20:49.027Z</time></trkpt><trkpt lat="43.6752167" lon="12.5805817"><ele>254.0</ele><time>2026-04-12T09:20:51.029Z</time></trkpt><trkpt lat="43.675225" lon="12.5804433"><ele>253.99999999999997</ele><time>2026-04-12T09:20:53.028Z</time></trkpt><trkpt lat="43.67516" lon="12.5802667"><ele>253.99999999999997</ele><time>2026-04-12T09:20:55.031Z</time></trkpt><trkpt lat="43.6751167" lon="12.5801567"><ele>254.0</ele><time>2026-04-12T09:20:56.029Z</time></trkpt><trkpt lat="43.6750767" lon="12.58005"><ele>254.0</ele><time>2026-04-12T09:20:57.032Z</time></trkpt><trkpt lat="43.6750417" lon="12.5799467"><ele>254.00000000000003</ele><time>2026-04-12T09:20:58.029Z</time></trkpt><trkpt lat="43.6750033" lon="12.5798417"><ele>254.0</ele><time>2026-04-12T09:20:59.028Z</time></trkpt><trkpt lat="43.6749717" lon="12.5797367"><ele>254.0</ele><time>2026-04-12T09:21:00.027Z</time></trkpt><trkpt lat="43.6749433" lon="12.5796283"><ele>254.0</ele><time>2026-04-12T09:21:01.032Z</time></trkpt><trkpt lat="43.674915" lon="12.5795317"><ele>254.00000000000003</ele><time>2026-04-12T09:21:02.029Z</time></trkpt><trkpt lat="43.6748933" lon="12.57944"><ele>254.0</ele><time>2026-04-12T09:21:03.031Z</time></trkpt><trkpt lat="43.6748667" lon="12.5792717"><ele>254.28571428571428</ele><time>2026-04-12T09:21:05.032Z</time></trkpt><trkpt lat="43.67487" lon="12.5791767"><ele>254.57142857142856</ele><time>2026-04-12T09:21:06.027Z</time></trkpt><trkpt lat="43.67488" lon="12.57908"><ele>254.85714285714283</ele><time>2026-04-12T09:21:07.03Z</time></trkpt><trkpt lat="43.6749067" lon="12.5789967"><ele>255.14285714285714</ele><time>2026-04-12T09:21:08.03Z</time></trkpt><trkpt lat="43.6749467" lon="12.578915"><ele>255.4285714285714</ele><time>2026-04-12T09:21:09.028Z</time></trkpt><trkpt lat="43.6749933" lon="12.5788367"><ele>255.7142857142857</ele><time>2026-04-12T09:21:10.03Z</time></trkpt><trkpt lat="43.67505" lon="12.5787717"><ele>256.0</ele><time>2026-04-12T09:21:11.034Z</time></trkpt><trkpt lat="43.6751117" lon="12.5787067"><ele>256.6</ele><time>2026-04-12T09:21:12.027Z</time></trkpt><trkpt lat="43.6751833" lon="12.5786467"><ele>257.20000000000005</ele><time>2026-04-12T09:21:13.031Z</time></trkpt><trkpt lat="43.675265" lon="12.57861"><ele>257.79999999999995</ele><time>2026-04-12T09:21:14.035Z</time></trkpt><trkpt lat="43.6753633" lon="12.5785867"><ele>258.4</ele><time>2026-04-12T09:21:15.03Z</time></trkpt><trkpt lat="43.6754567" lon="12.57855"><ele>259.0</ele><time>2026-04-12T09:21:16.028Z</time></trkpt><trkpt lat="43.6755483" lon="12.5784883"><ele>259.0</ele><time>2026-04-12T09:21:17.034Z</time></trkpt><trkpt lat="43.67564" lon="12.5784067"><ele>259.0</ele><time>2026-04-12T09:21:18.035Z</time></trkpt><trkpt lat="43.6757233" lon="12.5783233"><ele>259.0</ele><time>2026-04-12T09:21:19.028Z</time></trkpt><trkpt lat="43.6757967" lon="12.5782417"><ele>259.0</ele><time>2026-04-12T09:21:20.031Z</time></trkpt><trkpt lat="43.67587" lon="12.57818"><ele>259.0</ele><time>2026-04-12T09:21:21.03Z</time></trkpt><trkpt lat="43.6759467" lon="12.5781283"><ele>259.0</ele><time>2026-04-12T09:21:22.031Z</time></trkpt><trkpt lat="43.676025" lon="12.5780833"><ele>259.0</ele><time>2026-04-12T09:21:23.034Z</time></trkpt><trkpt lat="43.6761" lon="12.5780517"><ele>259.0</ele><time>2026-04-12T09:21:24.031Z</time></trkpt><trkpt lat="43.6761717" lon="12.578025"><ele>259.0</ele><time>2026-04-12T09:21:25.029Z</time></trkpt><trkpt lat="43.6762333" lon="12.5779867"><ele>259.0</ele><time>2026-04-12T09:21:26.031Z</time></trkpt><trkpt lat="43.6763" lon="12.577955"><ele>259.0</ele><time>2026-04-12T09:21:27.029Z</time></trkpt><trkpt lat="43.67636" lon="12.5779033"><ele>259.0</ele><time>2026-04-12T09:21:28.035Z</time></trkpt><trkpt lat="43.676415" lon="12.5778583"><ele>258.66666666666663</ele><time>2026-04-12T09:21:29.027Z</time></trkpt><trkpt lat="43.676475" lon="12.5777733"><ele>258.3333333333333</ele><time>2026-04-12T09:21:31.029Z</time></trkpt><trkpt lat="43.6764333" lon="12.5776967"><ele>258.0</ele><time>2026-04-12T09:21:34.031Z</time></trkpt><trkpt lat="43.6763567" lon="12.5777067"><ele>257.6666666666667</ele><time>2026-04-12T09:21:36.031Z</time></trkpt><trkpt lat="43.6762933" lon="12.5777233"><ele>257.33333333333337</ele><time>2026-04-12T09:21:37.029Z</time></trkpt><trkpt lat="43.6762217" lon="12.57772"><ele>257.0</ele><time>2026-04-12T09:21:38.037Z</time></trkpt><trkpt lat="43.67614" lon="12.5777067"><ele>257.6</ele><time>2026-04-12T09:21:39.029Z</time></trkpt><trkpt lat="43.67605" lon="12.57767"><ele>258.2</ele><time>2026-04-12T09:21:40.032Z</time></trkpt><trkpt lat="43.6759633" lon="12.5775817"><ele>258.8</ele><time>2026-04-12T09:21:41.03Z</time></trkpt><trkpt lat="43.6758783" lon="12.57751"><ele>259.4</ele><time>2026-04-12T09:21:42.029Z</time></trkpt><trkpt lat="43.6758033" lon="12.577465"><ele>260.0</ele><time>2026-04-12T09:21:43.032Z</time></trkpt><trkpt lat="43.6757367" lon="12.577435"><ele>260.0</ele><time>2026-04-12T09:21:44.03Z</time></trkpt><trkpt lat="43.6756683" lon="12.5774283"><ele>260.0</ele><time>2026-04-12T09:21:45.027Z</time></trkpt><trkpt lat="43.6755983" lon="12.57746"><ele>260.0</ele><time>2026-04-12T09:21:46.033Z</time></trkpt><trkpt lat="43.6755233" lon="12.5775183"><ele>260.0</ele><time>2026-04-12T09:21:47.031Z</time></trkpt><trkpt lat="43.6754483" lon="12.577575"><ele>260.0</ele><time>2026-04-12T09:21:48.03Z</time></trkpt><trkpt lat="43.6753717" lon="12.577635"><ele>260.0</ele><time>2026-04-12T09:21:49.029Z</time></trkpt><trkpt lat="43.6752983" lon="12.5776933"><ele>260.33333333333337</ele><time>2026-04-12T09:21:50.027Z</time></trkpt><trkpt lat="43.6752383" lon="12.577755"><ele>260.6666666666667</ele><time>2026-04-12T09:21:51.029Z</time></trkpt><trkpt lat="43.675185" lon="12.5778067"><ele>261.0</ele><time>2026-04-12T09:21:52.03Z</time></trkpt><trkpt lat="43.67508" lon="12.57786"><ele>261.3333333333333</ele><time>2026-04-12T09:21:54.029Z</time></trkpt><trkpt lat="43.675035" lon="12.5777783"><ele>261.66666666666663</ele><time>2026-04-12T09:21:56.029Z</time></trkpt><trkpt lat="43.6751" lon="12.5776567"><ele>262.0</ele><time>2026-04-12T09:21:58.032Z</time></trkpt><trkpt lat="43.6751617" lon="12.5775733"><ele>261.66666666666663</ele><time>2026-04-12T09:21:59.036Z</time></trkpt><trkpt lat="43.6752283" lon="12.577485"><ele>261.3333333333333</ele><time>2026-04-12T09:22:00.03Z</time></trkpt><trkpt lat="43.6752817" lon="12.5773967"><ele>261.0</ele><time>2026-04-12T09:22:01.031Z</time></trkpt><trkpt lat="43.6753133" lon="12.5773033"><ele>260.6666666666667</ele><time>2026-04-12T09:22:02.031Z</time></trkpt><trkpt lat="43.675335" lon="12.5772117"><ele>260.33333333333337</ele><time>2026-04-12T09:22:03.032Z</time></trkpt><trkpt lat="43.6752883" lon="12.577045"><ele>260.0</ele><time>2026-04-12T09:22:05.033Z</time></trkpt><trkpt lat="43.675225" lon="12.5769683"><ele>266.5</ele><time>2026-04-12T09:22:06.031Z</time></trkpt><trkpt lat="43.6751533" lon="12.5768783"><ele>273.0</ele><time>2026-04-12T09:22:07.037Z</time></trkpt><trkpt lat="43.6750633" lon="12.576765"><ele>279.5</ele><time>2026-04-12T09:22:08.034Z</time></trkpt><trkpt lat="43.674965" lon="12.5766417"><ele>286.0</ele><time>2026-04-12T09:22:09.033Z</time></trkpt><trkpt lat="43.6748733" lon="12.5765267"><ele>286.0</ele><time>2026-04-12T09:22:10.03Z</time></trkpt><trkpt lat="43.674795" lon="12.5764283"><ele>286.0</ele><time>2026-04-12T09:22:11.03Z</time></trkpt><trkpt lat="43.6747267" lon="12.5763367"><ele>286.0</ele><time>2026-04-12T09:22:12.03Z</time></trkpt><trkpt lat="43.67466" lon="12.5762433"><ele>286.0</ele><time>2026-04-12T09:22:13.029Z</time></trkpt><trkpt lat="43.6745917" lon="12.57615"><ele>286.0</ele><time>2026-04-12T09:22:14.03Z</time></trkpt><trkpt lat="43.67453" lon="12.576055"><ele>286.16666666666663</ele><time>2026-04-12T09:22:15.037Z</time></trkpt><trkpt lat="43.67448" lon="12.57596"><ele>286.3333333333333</ele><time>2026-04-12T09:22:16.029Z</time></trkpt><trkpt lat="43.6744433" lon="12.57586"><ele>286.5</ele><time>2026-04-12T09:22:17.029Z</time></trkpt><trkpt lat="43.6744217" lon="12.57575"><ele>286.6666666666667</ele><time>2026-04-12T09:22:18.026Z</time></trkpt><trkpt lat="43.6744167" lon="12.5756333"><ele>286.83333333333337</ele><time>2026-04-12T09:22:19.03Z</time></trkpt><trkpt lat="43.6744117" lon="12.5755367"><ele>287.0</ele><time>2026-04-12T09:22:20.027Z</time></trkpt><trkpt lat="43.6743983" lon="12.57545"><ele>289.57142857142856</ele><time>2026-04-12T09:22:21.03Z</time></trkpt><trkpt lat="43.6743683" lon="12.5753667"><ele>292.1428571428571</ele><time>2026-04-12T09:22:22.03Z</time></trkpt><trkpt lat="43.6743283" lon="12.575295"><ele>294.7142857142857</ele><time>2026-04-12T09:22:23.026Z</time></trkpt><trkpt lat="43.67427" lon="12.5752467"><ele>297.2857142857143</ele><time>2026-04-12T09:22:24.028Z</time></trkpt><trkpt lat="43.6742067" lon="12.5752067"><ele>299.85714285714283</ele><time>2026-04-12T09:22:25.027Z</time></trkpt><trkpt lat="43.6741367" lon="12.5751917"><ele>302.42857142857144</ele><time>2026-04-12T09:22:26.032Z</time></trkpt><trkpt lat="43.6740683" lon="12.5752017"><ele>305.0</ele><time>2026-04-12T09:22:27.029Z</time></trkpt><trkpt lat="43.6740017" lon="12.575235"><ele>305.0</ele><time>2026-04-12T09:22:28.031Z</time></trkpt><trkpt lat="43.6739383" lon="12.5752983"><ele>305.0</ele><time>2026-04-12T09:22:29.026Z</time></trkpt><trkpt lat="43.6738767" lon="12.5753933"><ele>305.0</ele><time>2026-04-12T09:22:30.024Z</time></trkpt><trkpt lat="43.6738033" lon="12.5754983"><ele>305.0</ele><time>2026-04-12T09:22:31.025Z</time></trkpt><trkpt lat="43.67373" lon="12.5756067"><ele>305.0</ele><time>2026-04-12T09:22:32.029Z</time></trkpt><trkpt lat="43.6736533" lon="12.5757133"><ele>309.2</ele><time>2026-04-12T09:22:33.031Z</time></trkpt><trkpt lat="43.67359" lon="12.5758067"><ele>313.4</ele><time>2026-04-12T09:22:34.029Z</time></trkpt><trkpt lat="43.673525" lon="12.5759"><ele>317.6</ele><time>2026-04-12T09:22:35.029Z</time></trkpt><trkpt lat="43.6734567" lon="12.575995"><ele>321.8</ele><time>2026-04-12T09:22:36.027Z</time></trkpt><trkpt lat="43.6733867" lon="12.576085"><ele>326.0</ele><time>2026-04-12T09:22:37.029Z</time></trkpt><trkpt lat="43.67331" lon="12.57618"><ele>325.6</ele><time>2026-04-12T09:22:38.032Z</time></trkpt><trkpt lat="43.673225" lon="12.5762783"><ele>325.20000000000005</ele><time>2026-04-12T09:22:39.025Z</time></trkpt><trkpt lat="43.6731467" lon="12.5763683"><ele>324.79999999999995</ele><time>2026-04-12T09:22:40.027Z</time></trkpt><trkpt lat="43.6730783" lon="12.5764417"><ele>324.4</ele><time>2026-04-12T09:22:41.029Z</time></trkpt><trkpt lat="43.6730167" lon="12.5764983"><ele>324.0</ele><time>2026-04-12T09:22:42.033Z</time></trkpt><trkpt lat="43.6729217" lon="12.5765383"><ele>324.0</ele><time>2026-04-12T09:22:44.033Z</time></trkpt><trkpt lat="43.6728567" lon="12.5764417"><ele>324.0</ele><time>2026-04-12T09:22:46.027Z</time></trkpt><trkpt lat="43.67284" lon="12.57635"><ele>324.0</ele><time>2026-04-12T09:22:47.028Z</time></trkpt><trkpt lat="43.6728283" lon="12.576235"><ele>324.0</ele><time>2026-04-12T09:22:48.027Z</time></trkpt><trkpt lat="43.6728183" lon="12.5760883"><ele>324.0</ele><time>2026-04-12T09:22:49.031Z</time></trkpt><trkpt lat="43.67279" lon="12.575945"><ele>328.4</ele><time>2026-04-12T09:22:50.03Z</time></trkpt><trkpt lat="43.6727667" lon="12.5757967"><ele>332.79999999999995</ele><time>2026-04-12T09:22:51.032Z</time></trkpt><trkpt lat="43.67275" lon="12.5756667"><ele>337.20000000000005</ele><time>2026-04-12T09:22:52.036Z</time></trkpt><trkpt lat="43.672735" lon="12.5755583"><ele>341.6</ele><time>2026-04-12T09:22:53.033Z</time></trkpt><trkpt lat="43.6727167" lon="12.575465"><ele>346.0</ele><time>2026-04-12T09:22:54.025Z</time></trkpt><trkpt lat="43.6726467" lon="12.5753567"><ele>346.0</ele><time>2026-04-12T09:22:56.028Z</time></trkpt><trkpt lat="43.6725533" lon="12.5753317"><ele>346.0</ele><time>2026-04-12T09:22:58.028Z</time></trkpt><trkpt lat="43.6725017" lon="12.575385"><ele>346.0</ele><time>2026-04-12T09:22:59.027Z</time></trkpt><trkpt lat="43.67244" lon="12.5754717"><ele>346.0</ele><time>2026-04-12T09:23:00.029Z</time></trkpt><trkpt lat="43.6723733" lon="12.5755683"><ele>346.0</ele><time>2026-04-12T09:23:01.032Z</time></trkpt><trkpt lat="43.6722967" lon="12.5756683"><ele>346.0</ele><time>2026-04-12T09:23:02.028Z</time></trkpt><trkpt lat="43.67221" lon="12.5757783"><ele>346.0</ele><time>2026-04-12T09:23:03.028Z</time></trkpt><trkpt lat="43.6721067" lon="12.575905"><ele>346.0</ele><time>2026-04-12T09:23:04.027Z</time></trkpt><trkpt lat="43.6719983" lon="12.5760383"><ele>346.0</ele><time>2026-04-12T09:23:05.032Z</time></trkpt><trkpt lat="43.6718967" lon="12.576155"><ele>346.0</ele><time>2026-04-12T09:23:06.028Z</time></trkpt><trkpt lat="43.6718017" lon="12.576245"><ele>348.4</ele><time>2026-04-12T09:23:07.033Z</time></trkpt><trkpt lat="43.6717033" lon="12.5763067"><ele>350.8</ele><time>2026-04-12T09:23:08.027Z</time></trkpt><trkpt lat="43.671605" lon="12.5763317"><ele>353.2</ele><time>2026-04-12T09:23:09.03Z</time></trkpt><trkpt lat="43.671495" lon="12.5763283"><ele>355.59999999999997</ele><time>2026-04-12T09:23:10.028Z</time></trkpt><trkpt lat="43.6713783" lon="12.5762933"><ele>358.0</ele><time>2026-04-12T09:23:11.029Z</time></trkpt><trkpt lat="43.67126" lon="12.5762517"><ele>358.0</ele><time>2026-04-12T09:23:12.031Z</time></trkpt><trkpt lat="43.6711583" lon="12.5762183"><ele>358.0</ele><time>2026-04-12T09:23:13.027Z</time></trkpt><trkpt lat="43.671075" lon="12.576195"><ele>358.0</ele><time>2026-04-12T09:23:14.029Z</time></trkpt><trkpt lat="43.6709983" lon="12.576185"><ele>358.0</ele><time>2026-04-12T09:23:15.026Z</time></trkpt><trkpt lat="43.670915" lon="12.5762067"><ele>358.0</ele><time>2026-04-12T09:23:16.03Z</time></trkpt><trkpt lat="43.6708267" lon="12.5762633"><ele>358.0</ele><time>2026-04-12T09:23:17.03Z</time></trkpt><trkpt lat="43.67072" lon="12.5763533"><ele>361.25</ele><time>2026-04-12T09:23:18.029Z</time></trkpt><trkpt lat="43.6706067" lon="12.576465"><ele>364.5</ele><time>2026-04-12T09:23:19.032Z</time></trkpt><trkpt lat="43.6704967" lon="12.5765917"><ele>367.75</ele><time>2026-04-12T09:23:20.03Z</time></trkpt><trkpt lat="43.6703867" lon="12.5767367"><ele>371.0</ele><time>2026-04-12T09:23:21.027Z</time></trkpt><trkpt lat="43.67028" lon="12.5768883"><ele>374.75</ele><time>2026-04-12T09:23:22.031Z</time></trkpt><trkpt lat="43.6701767" lon="12.5770333"><ele>378.5</ele><time>2026-04-12T09:23:23.029Z</time></trkpt><trkpt lat="43.6700817" lon="12.5771767"><ele>382.25</ele><time>2026-04-12T09:23:24.032Z</time></trkpt><trkpt lat="43.67" lon="12.5773267"><ele>386.0</ele><time>2026-04-12T09:23:25.031Z</time></trkpt><trkpt lat="43.66993" lon="12.57747"><ele>385.99999999999994</ele><time>2026-04-12T09:23:26.029Z</time></trkpt><trkpt lat="43.6698733" lon="12.5775933"><ele>386.0</ele><time>2026-04-12T09:23:27.03Z</time></trkpt><trkpt lat="43.669825" lon="12.5776967"><ele>386.0</ele><time>2026-04-12T09:23:28.029Z</time></trkpt><trkpt lat="43.669773" lon="12.5777914"><ele>386.0</ele><time>2026-04-12T09:23:29.03Z</time></trkpt><trkpt lat="43.6697068" lon="12.5778665"><ele>385.99999999999994</ele><time>2026-04-12T09:23:30.029Z</time></trkpt><trkpt lat="43.6696317" lon="12.5779138"><ele>386.0</ele><time>2026-04-12T09:23:31.029Z</time></trkpt><trkpt lat="43.6695467" lon="12.5779253"><ele>385.25</ele><time>2026-04-12T09:23:32.029Z</time></trkpt><trkpt lat="43.6694494" lon="12.5778932"><ele>384.5</ele><time>2026-04-12T09:23:33.026Z</time></trkpt><trkpt lat="43.6693453" lon="12.5778246"><ele>383.75</ele><time>2026-04-12T09:23:34.04Z</time></trkpt><trkpt lat="43.6692393" lon="12.5777336"><ele>383.0</ele><time>2026-04-12T09:23:35.029Z</time></trkpt><trkpt lat="43.6691463" lon="12.5776324"><ele>385.4</ele><time>2026-04-12T09:23:36.029Z</time></trkpt><trkpt lat="43.6690714" lon="12.5775389"><ele>387.79999999999995</ele><time>2026-04-12T09:23:37.03Z</time></trkpt><trkpt lat="43.6690001" lon="12.5774655"><ele>390.2</ele><time>2026-04-12T09:23:38.028Z</time></trkpt><trkpt lat="43.668921" lon="12.5774114"><ele>392.6</ele><time>2026-04-12T09:23:39.03Z</time></trkpt><trkpt lat="43.6688297" lon="12.5773706"><ele>395.0</ele><time>2026-04-12T09:23:40.027Z</time></trkpt><trkpt lat="43.6687148" lon="12.5773614"><ele>396.0</ele><time>2026-04-12T09:23:41.03Z</time></trkpt><trkpt lat="43.6685776" lon="12.5774065"><ele>397.0</ele><time>2026-04-12T09:23:42.028Z</time></trkpt><trkpt lat="43.6684289" lon="12.5774957"><ele>398.0</ele><time>2026-04-12T09:23:43.033Z</time></trkpt><trkpt lat="43.6682924" lon="12.5775903"><ele>398.0</ele><time>2026-04-12T09:23:44.028Z</time></trkpt><trkpt lat="43.6681784" lon="12.5776693"><ele>398.0</ele><time>2026-04-12T09:23:45.027Z</time></trkpt><trkpt lat="43.668076" lon="12.5777287"><ele>398.0</ele><time>2026-04-12T09:23:46.029Z</time></trkpt><trkpt lat="43.6679718" lon="12.5777646"><ele>398.0</ele><time>2026-04-12T09:23:47.028Z</time></trkpt><trkpt lat="43.6678628" lon="12.5777765"><ele>399.5</ele><time>2026-04-12T09:23:48.026Z</time></trkpt><trkpt lat="43.6677413" lon="12.5777611"><ele>401.0</ele><time>2026-04-12T09:23:49.032Z</time></trkpt><trkpt lat="43.6676087" lon="12.5777187"><ele>402.5</ele><time>2026-04-12T09:23:50.033Z</time></trkpt><trkpt lat="43.6674769" lon="12.5776624"><ele>404.0</ele><time>2026-04-12T09:23:51.029Z</time></trkpt><trkpt lat="43.6673559" lon="12.5776066"><ele>404.0</ele><time>2026-04-12T09:23:52.031Z</time></trkpt><trkpt lat="43.6672415" lon="12.5775484"><ele>404.0</ele><time>2026-04-12T09:23:53.032Z</time></trkpt><trkpt lat="43.667129" lon="12.5774846"><ele>404.0</ele><time>2026-04-12T09:23:54.028Z</time></trkpt><trkpt lat="43.6670161" lon="12.5774216"><ele>404.0</ele><time>2026-04-12T09:23:55.029Z</time></trkpt><trkpt lat="43.6669024" lon="12.5773579"><ele>401.25</ele><time>2026-04-12T09:23:56.033Z</time></trkpt><trkpt lat="43.666786" lon="12.5772885"><ele>398.5</ele><time>2026-04-12T09:23:57.025Z</time></trkpt><trkpt lat="43.6666612" lon="12.5772175"><ele>395.75</ele><time>2026-04-12T09:23:58.029Z</time></trkpt><trkpt lat="43.6665271" lon="12.5771413"><ele>393.0</ele><time>2026-04-12T09:23:59.027Z</time></trkpt><trkpt lat="43.6663904" lon="12.577057"><ele>394.5</ele><time>2026-04-12T09:24:00.025Z</time></trkpt><trkpt lat="43.6662587" lon="12.5769748"><ele>396.0</ele><time>2026-04-12T09:24:01.031Z</time></trkpt><trkpt lat="43.6661354" lon="12.5768966"><ele>397.5</ele><time>2026-04-12T09:24:02.027Z</time></trkpt><trkpt lat="43.6660126" lon="12.5768251"><ele>399.0</ele><time>2026-04-12T09:24:03.031Z</time></trkpt><trkpt lat="43.6658913" lon="12.5767639"><ele>399.0</ele><time>2026-04-12T09:24:04.031Z</time></trkpt><trkpt lat="43.6657726" lon="12.5767136"><ele>399.0</ele><time>2026-04-12T09:24:05.027Z</time></trkpt><trkpt lat="43.665653" lon="12.576679"><ele>399.0</ele><time>2026-04-12T09:24:06.029Z</time></trkpt><trkpt lat="43.6655301" lon="12.5766648"><ele>399.0</ele><time>2026-04-12T09:24:07.032Z</time></trkpt><trkpt lat="43.6654041" lon="12.5766703"><ele>399.0</ele><time>2026-04-12T09:24:08.031Z</time></trkpt><trkpt lat="43.6652818" lon="12.5766818"><ele>399.0</ele><time>2026-04-12T09:24:09.029Z</time></trkpt><trkpt lat="43.6651669" lon="12.5766777"><ele>399.0</ele><time>2026-04-12T09:24:10.028Z</time></trkpt><trkpt lat="43.6650622" lon="12.5766399"><ele>399.0</ele><time>2026-04-12T09:24:11.029Z</time></trkpt><trkpt lat="43.6649696" lon="12.5765773"><ele>399.0</ele><time>2026-04-12T09:24:12.024Z</time></trkpt><trkpt lat="43.6648787" lon="12.5765117"><ele>399.6</ele><time>2026-04-12T09:24:13.032Z</time></trkpt><trkpt lat="43.6647826" lon="12.5764488"><ele>400.2</ele><time>2026-04-12T09:24:14.029Z</time></trkpt><trkpt lat="43.6646819" lon="12.5763789"><ele>400.8</ele><time>2026-04-12T09:24:15.031Z</time></trkpt><trkpt lat="43.6645802" lon="12.5763066"><ele>401.40000000000003</ele><time>2026-04-12T09:24:16.03Z</time></trkpt><trkpt lat="43.6644817" lon="12.5762417"><ele>402.0</ele><time>2026-04-12T09:24:17.033Z</time></trkpt><trkpt lat="43.664395" lon="12.5761928"><ele>404.7142857142857</ele><time>2026-04-12T09:24:18.026Z</time></trkpt><trkpt lat="43.6643135" lon="12.5761572"><ele>407.42857142857144</ele><time>2026-04-12T09:24:19.028Z</time></trkpt><trkpt lat="43.6642366" lon="12.5761268"><ele>410.14285714285717</ele><time>2026-04-12T09:24:20.032Z</time></trkpt><trkpt lat="43.6641622" lon="12.576108"><ele>412.8571428571429</ele><time>2026-04-12T09:24:21.028Z</time></trkpt><trkpt lat="43.6640908" lon="12.5761119"><ele>415.57142857142856</ele><time>2026-04-12T09:24:22.028Z</time></trkpt><trkpt lat="43.6640235" lon="12.5761267"><ele>418.28571428571433</ele><time>2026-04-12T09:24:23.029Z</time></trkpt><trkpt lat="43.6639568" lon="12.5761422"><ele>421.0</ele><time>2026-04-12T09:24:24.033Z</time></trkpt><trkpt lat="43.663893" lon="12.5761472"><ele>421.00000000000006</ele><time>2026-04-12T09:24:25.034Z</time></trkpt><trkpt lat="43.6637829" lon="12.5761342"><ele>421.0</ele><time>2026-04-12T09:24:27.03Z</time></trkpt><trkpt lat="43.6637183" lon="12.576126"><ele>421.0</ele><time>2026-04-12T09:24:30.03Z</time></trkpt><trkpt lat="43.6636667" lon="12.576215"><ele>421.0</ele><time>2026-04-12T09:25:24.032Z</time></trkpt><trkpt lat="43.663625" lon="12.5762983"><ele>421.00000000000006</ele><time>2026-04-12T09:25:25.036Z</time></trkpt><trkpt lat="43.66358" lon="12.5763883"><ele>421.0</ele><time>2026-04-12T09:25:26.03Z</time></trkpt><trkpt lat="43.6635317" lon="12.5764767"><ele>418.83333333333337</ele><time>2026-04-12T09:25:27.029Z</time></trkpt><trkpt lat="43.66348" lon="12.5765533"><ele>416.6666666666667</ele><time>2026-04-12T09:25:28.028Z</time></trkpt><trkpt lat="43.6634233" lon="12.5766167"><ele>414.5</ele><time>2026-04-12T09:25:29.029Z</time></trkpt><trkpt lat="43.6633067" lon="12.5766267"><ele>412.33333333333337</ele><time>2026-04-12T09:25:31.024Z</time></trkpt><trkpt lat="43.6632533" lon="12.5765667"><ele>410.1666666666667</ele><time>2026-04-12T09:25:32.03Z</time></trkpt><trkpt lat="43.6632083" lon="12.5764667"><ele>408.0</ele><time>2026-04-12T09:25:33.028Z</time></trkpt><trkpt lat="43.663175" lon="12.5763433"><ele>408.0</ele><time>2026-04-12T09:25:34.029Z</time></trkpt><trkpt lat="43.6631533" lon="12.5762"><ele>408.0</ele><time>2026-04-12T09:25:35.029Z</time></trkpt><trkpt lat="43.66314" lon="12.5760583"><ele>408.0</ele><time>2026-04-12T09:25:36.034Z</time></trkpt><trkpt lat="43.66314" lon="12.5759183"><ele>408.0</ele><time>2026-04-12T09:25:37.029Z</time></trkpt><trkpt lat="43.6631383" lon="12.5757767"><ele>408.0</ele><time>2026-04-12T09:25:38.03Z</time></trkpt><trkpt lat="43.6631083" lon="12.5756433"><ele>406.5</ele><time>2026-04-12T09:25:39.03Z</time></trkpt><trkpt lat="43.663045" lon="12.5755183"><ele>405.0</ele><time>2026-04-12T09:25:40.033Z</time></trkpt><trkpt lat="43.6629517" lon="12.5753917"><ele>403.5</ele><time>2026-04-12T09:25:41.033Z</time></trkpt><trkpt lat="43.6628583" lon="12.5752667"><ele>402.0</ele><time>2026-04-12T09:25:42.03Z</time></trkpt><trkpt lat="43.66277" lon="12.5751483"><ele>402.0</ele><time>2026-04-12T09:25:43.031Z</time></trkpt><trkpt lat="43.6626883" lon="12.5750433"><ele>402.0</ele><time>2026-04-12T09:25:44.03Z</time></trkpt><trkpt lat="43.6626083" lon="12.5749267"><ele>402.0</ele><time>2026-04-12T09:25:45.029Z</time></trkpt><trkpt lat="43.6625333" lon="12.57479"><ele>402.0</ele><time>2026-04-12T09:25:46.028Z</time></trkpt><trkpt lat="43.6624717" lon="12.5746367"><ele>402.75</ele><time>2026-04-12T09:25:47.032Z</time></trkpt><trkpt lat="43.6624217" lon="12.5744867"><ele>403.5</ele><time>2026-04-12T09:25:48.031Z</time></trkpt><trkpt lat="43.6623867" lon="12.5743317"><ele>404.25</ele><time>2026-04-12T09:25:49.031Z</time></trkpt><trkpt lat="43.6623683" lon="12.5741733"><ele>405.0</ele><time>2026-04-12T09:25:50.031Z</time></trkpt><trkpt lat="43.66236" lon="12.5740217"><ele>405.0</ele><time>2026-04-12T09:25:51.032Z</time></trkpt><trkpt lat="43.66235" lon="12.5738767"><ele>405.0</ele><time>2026-04-12T09:25:52.027Z</time></trkpt><trkpt lat="43.6623283" lon="12.5737433"><ele>405.0</ele><time>2026-04-12T09:25:53.027Z</time></trkpt><trkpt lat="43.6623" lon="12.573625"><ele>405.0</ele><time>2026-04-12T09:25:54.029Z</time></trkpt><trkpt lat="43.6622433" lon="12.5735133"><ele>405.0</ele><time>2026-04-12T09:25:55.032Z</time></trkpt><trkpt lat="43.6621683" lon="12.5734317"><ele>406.0</ele><time>2026-04-12T09:25:56.029Z</time></trkpt><trkpt lat="43.6620817" lon="12.5733667"><ele>407.0</ele><time>2026-04-12T09:25:57.031Z</time></trkpt><trkpt lat="43.6619767" lon="12.573335"><ele>408.0</ele><time>2026-04-12T09:25:58.032Z</time></trkpt><trkpt lat="43.66185" lon="12.573335"><ele>409.0</ele><time>2026-04-12T09:25:59.029Z</time></trkpt><trkpt lat="43.6617183" lon="12.5733517"><ele>406.5</ele><time>2026-04-12T09:26:00.024Z</time></trkpt><trkpt lat="43.6615933" lon="12.5733683"><ele>404.0</ele><time>2026-04-12T09:26:01.028Z</time></trkpt><trkpt lat="43.661475" lon="12.5733733"><ele>401.5</ele><time>2026-04-12T09:26:02.024Z</time></trkpt><trkpt lat="43.66136" lon="12.5733683"><ele>399.0</ele><time>2026-04-12T09:26:03.024Z</time></trkpt><trkpt lat="43.6612417" lon="12.5733667"><ele>396.25</ele><time>2026-04-12T09:26:04.025Z</time></trkpt><trkpt lat="43.661115" lon="12.5733883"><ele>393.5</ele><time>2026-04-12T09:26:05.028Z</time></trkpt><trkpt lat="43.6609833" lon="12.573435"><ele>390.75</ele><time>2026-04-12T09:26:06.031Z</time></trkpt><trkpt lat="43.6608567" lon="12.573495"><ele>388.0</ele><time>2026-04-12T09:26:07.03Z</time></trkpt><trkpt lat="43.6607367" lon="12.5735633"><ele>388.0</ele><time>2026-04-12T09:26:08.032Z</time></trkpt><trkpt lat="43.6606267" lon="12.5736317"><ele>388.0</ele><time>2026-04-12T09:26:09.032Z</time></trkpt><trkpt lat="43.6605333" lon="12.57369"><ele>388.0</ele><time>2026-04-12T09:26:10.028Z</time></trkpt><trkpt lat="43.6604533" lon="12.573755"><ele>388.0</ele><time>2026-04-12T09:26:11.027Z</time></trkpt><trkpt lat="43.6603883" lon="12.5738333"><ele>388.0</ele><time>2026-04-12T09:26:12.029Z</time></trkpt><trkpt lat="43.66033" lon="12.5739317"><ele>388.5</ele><time>2026-04-12T09:26:13.025Z</time></trkpt><trkpt lat="43.6602867" lon="12.5740767"><ele>389.0</ele><time>2026-04-12T09:26:14.026Z</time></trkpt><trkpt lat="43.6602467" lon="12.5742617"><ele>389.5</ele><time>2026-04-12T09:26:15.027Z</time></trkpt><trkpt lat="43.660205" lon="12.5744533"><ele>390.0</ele><time>2026-04-12T09:26:16.028Z</time></trkpt><trkpt lat="43.6601683" lon="12.5746217"><ele>387.6</ele><time>2026-04-12T09:26:17.029Z</time></trkpt><trkpt lat="43.6601383" lon="12.5747683"><ele>385.2</ele><time>2026-04-12T09:26:18.031Z</time></trkpt><trkpt lat="43.6601167" lon="12.5749"><ele>382.79999999999995</ele><time>2026-04-12T09:26:19.028Z</time></trkpt><trkpt lat="43.660105" lon="12.5750283"><ele>380.4</ele><time>2026-04-12T09:26:20.031Z</time></trkpt><trkpt lat="43.6601183" lon="12.57516"><ele>378.0</ele><time>2026-04-12T09:26:21.032Z</time></trkpt><trkpt lat="43.6601483" lon="12.57528"><ele>377.0</ele><time>2026-04-12T09:26:22.035Z</time></trkpt><trkpt lat="43.6601917" lon="12.57538"><ele>376.0</ele><time>2026-04-12T09:26:23.027Z</time></trkpt><trkpt lat="43.660235" lon="12.5754717"><ele>375.0</ele><time>2026-04-12T09:26:24.027Z</time></trkpt><trkpt lat="43.660255" lon="12.5755633"><ele>374.0</ele><time>2026-04-12T09:26:25.035Z</time></trkpt><trkpt lat="43.6602583" lon="12.5756533"><ele>373.0</ele><time>2026-04-12T09:26:26.03Z</time></trkpt><trkpt lat="43.6602467" lon="12.5757517"><ele>372.0</ele><time>2026-04-12T09:26:27.031Z</time></trkpt><trkpt lat="43.660185" lon="12.5758617"><ele>372.0</ele><time>2026-04-12T09:26:28.027Z</time></trkpt><trkpt lat="43.66008" lon="12.57596"><ele>372.0</ele><time>2026-04-12T09:26:29.029Z</time></trkpt><trkpt lat="43.6599317" lon="12.5760583"><ele>372.0</ele><time>2026-04-12T09:26:30.029Z</time></trkpt><trkpt lat="43.659745" lon="12.5761633"><ele>368.5</ele><time>2026-04-12T09:26:31.028Z</time></trkpt><trkpt lat="43.6595267" lon="12.5762867"><ele>365.0</ele><time>2026-04-12T09:26:32.029Z</time></trkpt><trkpt lat="43.6593067" lon="12.5764117"><ele>365.0</ele><time>2026-04-12T09:26:33.027Z</time></trkpt><trkpt lat="43.6591067" lon="12.5765233"><ele>365.0</ele><time>2026-04-12T09:26:34.033Z</time></trkpt><trkpt lat="43.6589283" lon="12.5766217"><ele>365.0</ele><time>2026-04-12T09:26:35.03Z</time></trkpt><trkpt lat="43.6587617" lon="12.5767017"><ele>363.6666666666667</ele><time>2026-04-12T09:26:36.027Z</time></trkpt><trkpt lat="43.6586" lon="12.57677"><ele>362.3333333333333</ele><time>2026-04-12T09:26:37.029Z</time></trkpt><trkpt lat="43.6584417" lon="12.5768317"><ele>361.0</ele><time>2026-04-12T09:26:38.026Z</time></trkpt><trkpt lat="43.6582767" lon="12.57689"><ele>361.0</ele><time>2026-04-12T09:26:39.027Z</time></trkpt><trkpt lat="43.6581117" lon="12.57695"><ele>361.0</ele><time>2026-04-12T09:26:40.031Z</time></trkpt><trkpt lat="43.6579467" lon="12.5770067"><ele>361.0</ele><time>2026-04-12T09:26:41.026Z</time></trkpt><trkpt lat="43.65779" lon="12.57706"><ele>363.25</ele><time>2026-04-12T09:26:42.029Z</time></trkpt><trkpt lat="43.65764" lon="12.5771067"><ele>365.5</ele><time>2026-04-12T09:26:43.029Z</time></trkpt><trkpt lat="43.6574967" lon="12.5771417"><ele>367.75</ele><time>2026-04-12T09:26:44.027Z</time></trkpt><trkpt lat="43.6573617" lon="12.577165"><ele>370.0</ele><time>2026-04-12T09:26:45.031Z</time></trkpt><trkpt lat="43.6572417" lon="12.5771767"><ele>370.0</ele><time>2026-04-12T09:26:46.03Z</time></trkpt><trkpt lat="43.6571317" lon="12.5771867"><ele>370.0</ele><time>2026-04-12T09:26:47.033Z</time></trkpt><trkpt lat="43.657025" lon="12.577205"><ele>370.0</ele><time>2026-04-12T09:26:48.028Z</time></trkpt><trkpt lat="43.6569183" lon="12.577235"><ele>370.0</ele><time>2026-04-12T09:26:49.029Z</time></trkpt><trkpt lat="43.6568" lon="12.5772883"><ele>370.6</ele><time>2026-04-12T09:26:50.029Z</time></trkpt><trkpt lat="43.656685" lon="12.5773383"><ele>371.2</ele><time>2026-04-12T09:26:51.032Z</time></trkpt><trkpt lat="43.6565783" lon="12.5773883"><ele>371.79999999999995</ele><time>2026-04-12T09:26:52.029Z</time></trkpt><trkpt lat="43.6564783" lon="12.5774383"><ele>372.4</ele><time>2026-04-12T09:26:53.033Z</time></trkpt><trkpt lat="43.6563817" lon="12.5774883"><ele>373.0</ele><time>2026-04-12T09:26:54.031Z</time></trkpt><trkpt lat="43.6562933" lon="12.577545"><ele>373.0</ele><time>2026-04-12T09:26:55.029Z</time></trkpt><trkpt lat="43.6562033" lon="12.5776167"><ele>373.0</ele><time>2026-04-12T09:26:56.024Z</time></trkpt><trkpt lat="43.6561117" lon="12.5777133"><ele>373.0</ele><time>2026-04-12T09:26:57.025Z</time></trkpt><trkpt lat="43.65603" lon="12.5778217"><ele>373.0</ele><time>2026-04-12T09:26:58.028Z</time></trkpt><trkpt lat="43.6559567" lon="12.57794"><ele>373.0</ele><time>2026-04-12T09:26:59.03Z</time></trkpt><trkpt lat="43.6558917" lon="12.5780417"><ele>371.5</ele><time>2026-04-12T09:27:00.03Z</time></trkpt><trkpt lat="43.6558217" lon="12.578135"><ele>370.0</ele><time>2026-04-12T09:27:01.027Z</time></trkpt><trkpt lat="43.655745" lon="12.5781933"><ele>368.5</ele><time>2026-04-12T09:27:02.027Z</time></trkpt><trkpt lat="43.6556633" lon="12.5782317"><ele>367.0</ele><time>2026-04-12T09:27:03.026Z</time></trkpt><trkpt lat="43.6555817" lon="12.578215"><ele>365.5</ele><time>2026-04-12T09:27:04.034Z</time></trkpt><trkpt lat="43.655495" lon="12.5781617"><ele>364.0</ele><time>2026-04-12T09:27:05.034Z</time></trkpt><trkpt lat="43.6554233" lon="12.5781217"><ele>364.0</ele><time>2026-04-12T09:27:06.039Z</time></trkpt><trkpt lat="43.6553633" lon="12.57809"><ele>364.0</ele><time>2026-04-12T09:27:07.027Z</time></trkpt><trkpt lat="43.6552533" lon="12.5780867"><ele>364.0</ele><time>2026-04-12T09:27:09.027Z</time></trkpt><trkpt lat="43.6551917" lon="12.57821"><ele>364.0</ele><time>2026-04-12T09:27:11.025Z</time></trkpt><trkpt lat="43.6552117" lon="12.5782983"><ele>364.0</ele><time>2026-04-12T09:27:12.027Z</time></trkpt><trkpt lat="43.6552933" lon="12.5783967"><ele>364.0</ele><time>2026-04-12T09:27:13.031Z</time></trkpt><trkpt lat="43.65539" lon="12.5785067"><ele>364.0</ele><time>2026-04-12T09:27:14.028Z</time></trkpt><trkpt lat="43.655495" lon="12.5786217"><ele>364.0</ele><time>2026-04-12T09:27:15.026Z</time></trkpt><trkpt lat="43.6555833" lon="12.57872"><ele>364.0</ele><time>2026-04-12T09:27:16.03Z</time></trkpt><trkpt lat="43.6556667" lon="12.5788167"><ele>361.0</ele><time>2026-04-12T09:27:17.028Z</time></trkpt><trkpt lat="43.6557383" lon="12.5789167"><ele>358.0</ele><time>2026-04-12T09:27:18.031Z</time></trkpt><trkpt lat="43.6557967" lon="12.5790417"><ele>355.0</ele><time>2026-04-12T09:27:19.027Z</time></trkpt><trkpt lat="43.6558317" lon="12.5792017"><ele>352.0</ele><time>2026-04-12T09:27:20.032Z</time></trkpt><trkpt lat="43.65586" lon="12.5793833"><ele>349.0</ele><time>2026-04-12T09:27:21.027Z</time></trkpt><trkpt lat="43.6558833" lon="12.5795683"><ele>346.0</ele><time>2026-04-12T09:27:22.026Z</time></trkpt><trkpt lat="43.655905" lon="12.5797433"><ele>343.0</ele><time>2026-04-12T09:27:23.028Z</time></trkpt><trkpt lat="43.6559267" lon="12.5799083"><ele>340.0</ele><time>2026-04-12T09:27:24.033Z</time></trkpt><trkpt lat="43.65595" lon="12.5800633"><ele>340.0</ele><time>2026-04-12T09:27:25.032Z</time></trkpt><trkpt lat="43.65597" lon="12.5802017"><ele>340.0</ele><time>2026-04-12T09:27:26.028Z</time></trkpt><trkpt lat="43.6559767" lon="12.580325"><ele>340.0</ele><time>2026-04-12T09:27:27.034Z</time></trkpt><trkpt lat="43.6559683" lon="12.5804483"><ele>340.0</ele><time>2026-04-12T09:27:28.028Z</time></trkpt><trkpt lat="43.6559267" lon="12.5805783"><ele>340.0</ele><time>2026-04-12T09:27:29.029Z</time></trkpt><trkpt lat="43.6558533" lon="12.5807117"><ele>338.25</ele><time>2026-04-12T09:27:30.029Z</time></trkpt><trkpt lat="43.6557667" lon="12.5808383"><ele>336.5</ele><time>2026-04-12T09:27:31.032Z</time></trkpt><trkpt lat="43.655675" lon="12.580955"><ele>334.75</ele><time>2026-04-12T09:27:32.029Z</time></trkpt><trkpt lat="43.6555833" lon="12.5810617"><ele>333.0</ele><time>2026-04-12T09:27:33.028Z</time></trkpt><trkpt lat="43.655495" lon="12.581155"><ele>330.75</ele><time>2026-04-12T09:27:34.029Z</time></trkpt><trkpt lat="43.6554067" lon="12.5812517"><ele>328.5</ele><time>2026-04-12T09:27:35.029Z</time></trkpt><trkpt lat="43.65532" lon="12.5813533"><ele>326.25</ele><time>2026-04-12T09:27:36.027Z</time></trkpt><trkpt lat="43.6552383" lon="12.58147"><ele>324.0</ele><time>2026-04-12T09:27:37.035Z</time></trkpt><trkpt lat="43.65516" lon="12.5815883"><ele>323.5</ele><time>2026-04-12T09:27:38.031Z</time></trkpt><trkpt lat="43.6550833" lon="12.5817017"><ele>323.0</ele><time>2026-04-12T09:27:39.038Z</time></trkpt><trkpt lat="43.6550033" lon="12.5818083"><ele>322.5</ele><time>2026-04-12T09:27:40.029Z</time></trkpt><trkpt lat="43.6549033" lon="12.581895"><ele>322.0</ele><time>2026-04-12T09:27:41.026Z</time></trkpt><trkpt lat="43.6547833" lon="12.5819583"><ele>322.0</ele><time>2026-04-12T09:27:42.029Z</time></trkpt><trkpt lat="43.65466" lon="12.581995"><ele>322.0</ele><time>2026-04-12T09:27:43.028Z</time></trkpt><trkpt lat="43.6545367" lon="12.5820317"><ele>322.0</ele><time>2026-04-12T09:27:44.029Z</time></trkpt><trkpt lat="43.654425" lon="12.5820533"><ele>322.0</ele><time>2026-04-12T09:27:45.025Z</time></trkpt><trkpt lat="43.65432" lon="12.5820783"><ele>321.0</ele><time>2026-04-12T09:27:46.029Z</time></trkpt><trkpt lat="43.6542217" lon="12.5821167"><ele>320.0</ele><time>2026-04-12T09:27:47.028Z</time></trkpt><trkpt lat="43.6541383" lon="12.5821783"><ele>319.0</ele><time>2026-04-12T09:27:48.027Z</time></trkpt><trkpt lat="43.6540633" lon="12.58227"><ele>318.0</ele><time>2026-04-12T09:27:49.03Z</time></trkpt><trkpt lat="43.6539933" lon="12.5823983"><ele>317.0</ele><time>2026-04-12T09:27:50.031Z</time></trkpt><trkpt lat="43.653935" lon="12.58253"><ele>317.0</ele><time>2026-04-12T09:27:51.031Z</time></trkpt><trkpt lat="43.6538833" lon="12.5826483"><ele>317.0</ele><time>2026-04-12T09:27:52.03Z</time></trkpt><trkpt lat="43.653835" lon="12.5827383"><ele>317.0</ele><time>2026-04-12T09:27:53.032Z</time></trkpt><trkpt lat="43.653775" lon="12.582805"><ele>317.0</ele><time>2026-04-12T09:27:54.028Z</time></trkpt><trkpt lat="43.6537033" lon="12.58282"><ele>317.0</ele><time>2026-04-12T09:27:55.03Z</time></trkpt><trkpt lat="43.6536367" lon="12.5827833"><ele>317.0</ele><time>2026-04-12T09:27:56.032Z</time></trkpt><trkpt lat="43.65358" lon="12.5827133"><ele>317.0</ele><time>2026-04-12T09:27:57.031Z</time></trkpt><trkpt lat="43.6535383" lon="12.58262"><ele>317.0</ele><time>2026-04-12T09:27:58.033Z</time></trkpt><trkpt lat="43.6535583" lon="12.582475"><ele>317.0</ele><time>2026-04-12T09:27:59.032Z</time></trkpt><trkpt lat="43.6536033" lon="12.5822933"><ele>317.0</ele><time>2026-04-12T09:28:00.032Z</time></trkpt><trkpt lat="43.6536517" lon="12.582105"><ele>315.5</ele><time>2026-04-12T09:28:01.028Z</time></trkpt><trkpt lat="43.653705" lon="12.5819333"><ele>314.0</ele><time>2026-04-12T09:28:02.031Z</time></trkpt><trkpt lat="43.6537617" lon="12.5817817"><ele>312.5</ele><time>2026-04-12T09:28:03.028Z</time></trkpt><trkpt lat="43.6538383" lon="12.5816467"><ele>311.0</ele><time>2026-04-12T09:28:04.029Z</time></trkpt><trkpt lat="43.6539367" lon="12.5815383"><ele>311.0</ele><time>2026-04-12T09:28:05.029Z</time></trkpt><trkpt lat="43.6540283" lon="12.5814417"><ele>311.0</ele><time>2026-04-12T09:28:06.03Z</time></trkpt><trkpt lat="43.6541117" lon="12.581355"><ele>311.0</ele><time>2026-04-12T09:28:07.028Z</time></trkpt><trkpt lat="43.6541783" lon="12.5812383"><ele>311.0</ele><time>2026-04-12T09:28:08.028Z</time></trkpt><trkpt lat="43.6542317" lon="12.5810983"><ele>311.0</ele><time>2026-04-12T09:28:09.03Z</time></trkpt><trkpt lat="43.65426" lon="12.5809317"><ele>310.0</ele><time>2026-04-12T09:28:10.035Z</time></trkpt><trkpt lat="43.6542667" lon="12.580745"><ele>309.0</ele><time>2026-04-12T09:28:11.03Z</time></trkpt><trkpt lat="43.6542633" lon="12.58056"><ele>308.0</ele><time>2026-04-12T09:28:12.031Z</time></trkpt><trkpt lat="43.6542517" lon="12.5803917"><ele>307.0</ele><time>2026-04-12T09:28:13.029Z</time></trkpt><trkpt lat="43.6542283" lon="12.580245"><ele>307.0</ele><time>2026-04-12T09:28:14.031Z</time></trkpt><trkpt lat="43.65419" lon="12.5801183"><ele>307.0</ele><time>2026-04-12T09:28:15.028Z</time></trkpt><trkpt lat="43.6541283" lon="12.5800017"><ele>307.0</ele><time>2026-04-12T09:28:16.031Z</time></trkpt><trkpt lat="43.6540333" lon="12.5798967"><ele>307.0</ele><time>2026-04-12T09:28:17.031Z</time></trkpt><trkpt lat="43.6539067" lon="12.5798167"><ele>307.0</ele><time>2026-04-12T09:28:18.023Z</time></trkpt><trkpt lat="43.6537817" lon="12.5797567"><ele>307.0</ele><time>2026-04-12T09:28:19.024Z</time></trkpt><trkpt lat="43.6536617" lon="12.5797017"><ele>307.0</ele><time>2026-04-12T09:28:20.029Z</time></trkpt><trkpt lat="43.6535517" lon="12.5796617"><ele>307.0</ele><time>2026-04-12T09:28:21.03Z</time></trkpt><trkpt lat="43.6534483" lon="12.5796383"><ele>304.0</ele><time>2026-04-12T09:28:22.033Z</time></trkpt><trkpt lat="43.6533417" lon="12.57964"><ele>301.0</ele><time>2026-04-12T09:28:23.032Z</time></trkpt><trkpt lat="43.6532317" lon="12.5796733"><ele>298.0</ele><time>2026-04-12T09:28:24.033Z</time></trkpt><trkpt lat="43.6531083" lon="12.5797417"><ele>295.0</ele><time>2026-04-12T09:28:25.029Z</time></trkpt><trkpt lat="43.652985" lon="12.57982"><ele>295.0</ele><time>2026-04-12T09:28:26.027Z</time></trkpt><trkpt lat="43.65287" lon="12.579895"><ele>295.0</ele><time>2026-04-12T09:28:27.034Z</time></trkpt><trkpt lat="43.652755" lon="12.5799783"><ele>295.0</ele><time>2026-04-12T09:28:28.035Z</time></trkpt><trkpt lat="43.652645" lon="12.5800533"><ele>295.0</ele><time>2026-04-12T09:28:29.027Z</time></trkpt><trkpt lat="43.65253" lon="12.580115"><ele>292.75</ele><time>2026-04-12T09:28:30.031Z</time></trkpt><trkpt lat="43.6524167" lon="12.58017"><ele>290.5</ele><time>2026-04-12T09:28:31.025Z</time></trkpt><trkpt lat="43.6523033" lon="12.5802117"><ele>288.25</ele><time>2026-04-12T09:28:32.029Z</time></trkpt><trkpt lat="43.6521917" lon="12.5802533"><ele>286.0</ele><time>2026-04-12T09:28:33.03Z</time></trkpt><trkpt lat="43.652085" lon="12.580295"><ele>284.5</ele><time>2026-04-12T09:28:34.028Z</time></trkpt><trkpt lat="43.65198" lon="12.58036"><ele>283.0</ele><time>2026-04-12T09:28:35.031Z</time></trkpt><trkpt lat="43.6518767" lon="12.580445"><ele>281.5</ele><time>2026-04-12T09:28:36.033Z</time></trkpt><trkpt lat="43.65177" lon="12.58055"><ele>280.0</ele><time>2026-04-12T09:28:37.032Z</time></trkpt><trkpt lat="43.65166" lon="12.5806733"><ele>279.75</ele><time>2026-04-12T09:28:38.03Z</time></trkpt><trkpt lat="43.651545" lon="12.5808133"><ele>279.5</ele><time>2026-04-12T09:28:39.029Z</time></trkpt><trkpt lat="43.6514317" lon="12.58095"><ele>279.25</ele><time>2026-04-12T09:28:40.032Z</time></trkpt><trkpt lat="43.6513267" lon="12.5810833"><ele>279.0</ele><time>2026-04-12T09:28:41.032Z</time></trkpt><trkpt lat="43.651225" lon="12.5812167"><ele>279.0</ele><time>2026-04-12T09:28:42.028Z</time></trkpt><trkpt lat="43.6511317" lon="12.5813367"><ele>279.0</ele><time>2026-04-12T09:28:43.03Z</time></trkpt><trkpt lat="43.6510433" lon="12.5814433"><ele>279.0</ele><time>2026-04-12T09:28:44.035Z</time></trkpt><trkpt lat="43.650955" lon="12.58153"><ele>279.0</ele><time>2026-04-12T09:28:45.031Z</time></trkpt><trkpt lat="43.65086" lon="12.5815767"><ele>276.2</ele><time>2026-04-12T09:28:46.025Z</time></trkpt><trkpt lat="43.650765" lon="12.581575"><ele>273.4</ele><time>2026-04-12T09:28:47.029Z</time></trkpt><trkpt lat="43.6506667" lon="12.5815283"><ele>270.6</ele><time>2026-04-12T09:28:48.031Z</time></trkpt><trkpt lat="43.6505617" lon="12.58148"><ele>267.8</ele><time>2026-04-12T09:28:49.029Z</time></trkpt><trkpt lat="43.6504383" lon="12.581455"><ele>265.0</ele><time>2026-04-12T09:28:50.03Z</time></trkpt><trkpt lat="43.6502967" lon="12.5814783"><ele>263.66666666666663</ele><time>2026-04-12T09:28:51.024Z</time></trkpt><trkpt lat="43.6501317" lon="12.581535"><ele>262.3333333333333</ele><time>2026-04-12T09:28:52.029Z</time></trkpt><trkpt lat="43.6499633" lon="12.581605"><ele>261.0</ele><time>2026-04-12T09:28:53.03Z</time></trkpt><trkpt lat="43.6498083" lon="12.5816767"><ele>261.0</ele><time>2026-04-12T09:28:54.033Z</time></trkpt><trkpt lat="43.649665" lon="12.5817467"><ele>261.0</ele><time>2026-04-12T09:28:55.03Z</time></trkpt><trkpt lat="43.64953" lon="12.5818083"><ele>261.0</ele><time>2026-04-12T09:28:56.024Z</time></trkpt><trkpt lat="43.6494" lon="12.58186"><ele>261.0</ele><time>2026-04-12T09:28:57.031Z</time></trkpt><trkpt lat="43.6492783" lon="12.5819083"><ele>260.25</ele><time>2026-04-12T09:28:58.032Z</time></trkpt><trkpt lat="43.6491567" lon="12.581945"><ele>259.5</ele><time>2026-04-12T09:28:59.03Z</time></trkpt><trkpt lat="43.6490333" lon="12.5819567"><ele>258.75</ele><time>2026-04-12T09:29:00.031Z</time></trkpt><trkpt lat="43.648905" lon="12.581935"><ele>258.0</ele><time>2026-04-12T09:29:01.029Z</time></trkpt><trkpt lat="43.6487883" lon="12.581895"><ele>258.0</ele><time>2026-04-12T09:29:02.032Z</time></trkpt><trkpt lat="43.64868" lon="12.581845"><ele>258.0</ele><time>2026-04-12T09:29:03.031Z</time></trkpt><trkpt lat="43.648575" lon="12.581785"><ele>258.0</ele><time>2026-04-12T09:29:04.036Z</time></trkpt><trkpt lat="43.6484717" lon="12.5817217"><ele>258.0</ele><time>2026-04-12T09:29:05.026Z</time></trkpt><trkpt lat="43.64837" lon="12.5816333"><ele>256.5</ele><time>2026-04-12T09:29:06.028Z</time></trkpt><trkpt lat="43.6482783" lon="12.5815067"><ele>255.0</ele><time>2026-04-12T09:29:07.031Z</time></trkpt><trkpt lat="43.6482" lon="12.581365"><ele>253.5</ele><time>2026-04-12T09:29:08.03Z</time></trkpt><trkpt lat="43.6481317" lon="12.5812283"><ele>252.0</ele><time>2026-04-12T09:29:09.032Z</time></trkpt><trkpt lat="43.6480667" lon="12.581115"><ele>252.0</ele><time>2026-04-12T09:29:10.029Z</time></trkpt><trkpt lat="43.6480017" lon="12.5810267"><ele>252.0</ele><time>2026-04-12T09:29:11.03Z</time></trkpt><trkpt lat="43.6479283" lon="12.5809633"><ele>252.0</ele><time>2026-04-12T09:29:12.029Z</time></trkpt><trkpt lat="43.6478367" lon="12.580965"><ele>252.0</ele><time>2026-04-12T09:29:13.026Z</time></trkpt><trkpt lat="43.6477417" lon="12.581025"><ele>252.0</ele><time>2026-04-12T09:29:14.026Z</time></trkpt><trkpt lat="43.6476433" lon="12.5811367"><ele>247.0</ele><time>2026-04-12T09:29:15.024Z</time></trkpt><trkpt lat="43.64756" lon="12.5812683"><ele>242.0</ele><time>2026-04-12T09:29:16.032Z</time></trkpt><trkpt lat="43.647495" lon="12.5814117"><ele>237.0</ele><time>2026-04-12T09:29:17.03Z</time></trkpt><trkpt lat="43.6474483" lon="12.5815533"><ele>232.0</ele><time>2026-04-12T09:29:18.032Z</time></trkpt><trkpt lat="43.6474217" lon="12.5816783"><ele>231.99999999999997</ele><time>2026-04-12T09:29:19.029Z</time></trkpt><trkpt lat="43.647405" lon="12.581785"><ele>232.0</ele><time>2026-04-12T09:29:20.03Z</time></trkpt><trkpt lat="43.647385" lon="12.5818717"><ele>232.0</ele><time>2026-04-12T09:29:21.031Z</time></trkpt><trkpt lat="43.6473533" lon="12.5820083"><ele>232.0</ele><time>2026-04-12T09:29:23.029Z</time></trkpt><trkpt lat="43.6473267" lon="12.5821533"><ele>231.99999999999997</ele><time>2026-04-12T09:29:25.029Z</time></trkpt><trkpt lat="43.6473267" lon="12.5822467"><ele>232.0</ele><time>2026-04-12T09:29:26.031Z</time></trkpt><trkpt lat="43.647345" lon="12.5823583"><ele>231.66666666666666</ele><time>2026-04-12T09:29:27.031Z</time></trkpt><trkpt lat="43.6474017" lon="12.58252"><ele>231.33333333333331</ele><time>2026-04-12T09:29:28.026Z</time></trkpt><trkpt lat="43.6474783" lon="12.582745"><ele>231.0</ele><time>2026-04-12T09:29:29.033Z</time></trkpt><trkpt lat="43.6475667" lon="12.5829917"><ele>231.0</ele><time>2026-04-12T09:29:30.032Z</time></trkpt><trkpt lat="43.6476467" lon="12.583235"><ele>231.0</ele><time>2026-04-12T09:29:31.032Z</time></trkpt><trkpt lat="43.6477167" lon="12.5834617"><ele>231.0</ele><time>2026-04-12T09:29:32.032Z</time></trkpt><trkpt lat="43.6477817" lon="12.5836683"><ele>232.25</ele><time>2026-04-12T09:29:33.032Z</time></trkpt><trkpt lat="43.6478383" lon="12.5838667"><ele>233.5</ele><time>2026-04-12T09:29:34.034Z</time></trkpt><trkpt lat="43.64789" lon="12.5840567"><ele>234.75</ele><time>2026-04-12T09:29:35.027Z</time></trkpt><trkpt lat="43.6479417" lon="12.5842417"><ele>236.0</ele><time>2026-04-12T09:29:36.028Z</time></trkpt><trkpt lat="43.6479933" lon="12.584425"><ele>235.25</ele><time>2026-04-12T09:29:37.029Z</time></trkpt><trkpt lat="43.648045" lon="12.5846033"><ele>234.5</ele><time>2026-04-12T09:29:38.029Z</time></trkpt><trkpt lat="43.6481" lon="12.5847783"><ele>233.75</ele><time>2026-04-12T09:29:39.028Z</time></trkpt><trkpt lat="43.6481567" lon="12.5849517"><ele>233.0</ele><time>2026-04-12T09:29:40.032Z</time></trkpt><trkpt lat="43.6482133" lon="12.5851233"><ele>233.0</ele><time>2026-04-12T09:29:41.027Z</time></trkpt><trkpt lat="43.6482683" lon="12.5852967"><ele>233.0</ele><time>2026-04-12T09:29:42.03Z</time></trkpt><trkpt lat="43.6483233" lon="12.5854717"><ele>233.0</ele><time>2026-04-12T09:29:43.026Z</time></trkpt><trkpt lat="43.6483767" lon="12.58565"><ele>233.0</ele><time>2026-04-12T09:29:44.03Z</time></trkpt><trkpt lat="43.648435" lon="12.5858333"><ele>232.66666666666669</ele><time>2026-04-12T09:29:45.029Z</time></trkpt><trkpt lat="43.6484967" lon="12.5860317"><ele>232.33333333333331</ele><time>2026-04-12T09:29:46.032Z</time></trkpt><trkpt lat="43.6485633" lon="12.5862433"><ele>232.0</ele><time>2026-04-12T09:29:47.029Z</time></trkpt><trkpt lat="43.6486333" lon="12.5864717"><ele>234.66666666666666</ele><time>2026-04-12T09:29:48.028Z</time></trkpt><trkpt lat="43.6487067" lon="12.5867183"><ele>237.33333333333331</ele><time>2026-04-12T09:29:49.031Z</time></trkpt><trkpt lat="43.6487833" lon="12.5869767"><ele>240.0</ele><time>2026-04-12T09:29:50.031Z</time></trkpt><trkpt lat="43.6488633" lon="12.587245"><ele>240.0</ele><time>2026-04-12T09:29:51.035Z</time></trkpt><trkpt lat="43.6489467" lon="12.5875167"><ele>240.0</ele><time>2026-04-12T09:29:52.033Z</time></trkpt><trkpt lat="43.6490333" lon="12.5877867"><ele>240.0</ele><time>2026-04-12T09:29:53.031Z</time></trkpt><trkpt lat="43.649125" lon="12.5880417"><ele>240.0</ele><time>2026-04-12T09:29:54.036Z</time></trkpt><trkpt lat="43.6492217" lon="12.58828"><ele>240.0</ele><time>2026-04-12T09:29:55.032Z</time></trkpt><trkpt lat="43.649315" lon="12.588505"><ele>240.0</ele><time>2026-04-12T09:29:56.03Z</time></trkpt><trkpt lat="43.6494067" lon="12.5887267"><ele>239.66666666666669</ele><time>2026-04-12T09:29:57.025Z</time></trkpt><trkpt lat="43.6495017" lon="12.5889483"><ele>239.33333333333334</ele><time>2026-04-12T09:29:58.03Z</time></trkpt><trkpt lat="43.649595" lon="12.589175"><ele>239.0</ele><time>2026-04-12T09:29:59.026Z</time></trkpt><trkpt lat="43.64969" lon="12.589405"><ele>239.33333333333334</ele><time>2026-04-12T09:30:00.03Z</time></trkpt><trkpt lat="43.649785" lon="12.58963"><ele>239.66666666666669</ele><time>2026-04-12T09:30:01.033Z</time></trkpt><trkpt lat="43.6498733" lon="12.589845"><ele>240.0</ele><time>2026-04-12T09:30:02.03Z</time></trkpt><trkpt lat="43.64996" lon="12.59005"><ele>240.0</ele><time>2026-04-12T09:30:03.028Z</time></trkpt><trkpt lat="43.6500483" lon="12.590255"><ele>240.0</ele><time>2026-04-12T09:30:04.027Z</time></trkpt><trkpt lat="43.6501417" lon="12.590465"><ele>240.0</ele><time>2026-04-12T09:30:05.031Z</time></trkpt><trkpt lat="43.650235" lon="12.59068"><ele>239.66666666666669</ele><time>2026-04-12T09:30:06.032Z</time></trkpt><trkpt lat="43.65033" lon="12.5909033"><ele>239.33333333333334</ele><time>2026-04-12T09:30:07.032Z</time></trkpt><trkpt lat="43.6504283" lon="12.5911183"><ele>239.0</ele><time>2026-04-12T09:30:08.03Z</time></trkpt><trkpt lat="43.65052" lon="12.5913283"><ele>238.0</ele><time>2026-04-12T09:30:09.026Z</time></trkpt><trkpt lat="43.650615" lon="12.5915283"><ele>237.0</ele><time>2026-04-12T09:30:10.032Z</time></trkpt><trkpt lat="43.6507067" lon="12.5917317"><ele>236.0</ele><time>2026-04-12T09:30:11.029Z</time></trkpt><trkpt lat="43.6507983" lon="12.5919367"><ele>235.33333333333334</ele><time>2026-04-12T09:30:12.031Z</time></trkpt><trkpt lat="43.6508867" lon="12.592145"><ele>234.66666666666669</ele><time>2026-04-12T09:30:13.031Z</time></trkpt><trkpt lat="43.650975" lon="12.5923533"><ele>234.0</ele><time>2026-04-12T09:30:14.035Z</time></trkpt><trkpt lat="43.651065" lon="12.592565"><ele>235.0</ele><time>2026-04-12T09:30:15.032Z</time></trkpt><trkpt lat="43.6511567" lon="12.5927767"><ele>236.0</ele><time>2026-04-12T09:30:16.032Z</time></trkpt><trkpt lat="43.6512467" lon="12.5929883"><ele>237.0</ele><time>2026-04-12T09:30:17.033Z</time></trkpt><trkpt lat="43.6513367" lon="12.593195"><ele>237.0</ele><time>2026-04-12T09:30:18.031Z</time></trkpt><trkpt lat="43.6514267" lon="12.5933917"><ele>237.0</ele><time>2026-04-12T09:30:19.027Z</time></trkpt><trkpt lat="43.6515067" lon="12.5935733"><ele>237.0</ele><time>2026-04-12T09:30:20.033Z</time></trkpt><trkpt lat="43.6515833" lon="12.5937383"><ele>236.75</ele><time>2026-04-12T09:30:21.029Z</time></trkpt><trkpt lat="43.6516517" lon="12.5938933"><ele>236.5</ele><time>2026-04-12T09:30:22.031Z</time></trkpt><trkpt lat="43.6517183" lon="12.5940483"><ele>236.25</ele><time>2026-04-12T09:30:23.032Z</time></trkpt><trkpt lat="43.651785" lon="12.594205"><ele>236.0</ele><time>2026-04-12T09:30:24.031Z</time></trkpt><trkpt lat="43.6518533" lon="12.5943633"><ele>236.0</ele><time>2026-04-12T09:30:25.032Z</time></trkpt><trkpt lat="43.65192" lon="12.594515"><ele>236.00000000000003</ele><time>2026-04-12T09:30:26.032Z</time></trkpt><trkpt lat="43.6519833" lon="12.5946567"><ele>236.00000000000003</ele><time>2026-04-12T09:30:27.033Z</time></trkpt><trkpt lat="43.6520383" lon="12.5947717"><ele>236.0</ele><time>2026-04-12T09:30:28.031Z</time></trkpt><trkpt lat="43.6520967" lon="12.5948533"><ele>236.0</ele><time>2026-04-12T09:30:29.028Z</time></trkpt><trkpt lat="43.6521833" lon="12.5949017"><ele>236.60000000000002</ele><time>2026-04-12T09:30:31.033Z</time></trkpt><trkpt lat="43.6522067" lon="12.5948067"><ele>237.20000000000002</ele><time>2026-04-12T09:30:34.033Z</time></trkpt><trkpt lat="43.6522387" lon="12.594725"><ele>237.79999999999998</ele><time>2026-04-12T09:33:30.067Z</time></trkpt><trkpt lat="43.6522231" lon="12.5948229"><ele>238.39999999999998</ele><time>2026-04-12T09:34:05.03Z</time></trkpt><trkpt lat="43.652272" lon="12.5947461"><ele>239.0</ele><time>2026-04-12T09:34:52.033Z</time></trkpt><trkpt lat="43.6523626" lon="12.5945481"><ele>239.0</ele><time>2026-04-12T09:34:56.046Z</time></trkpt><trkpt lat="43.6523951" lon="12.5944705"><ele>239.0</ele><time>2026-04-12T09:34:58.053Z</time></trkpt><trkpt lat="43.6524517" lon="12.5944282"><ele>239.0</ele><time>2026-04-12T09:35:05.075Z</time></trkpt><trkpt lat="43.6526734" lon="12.5945086"><ele>239.0</ele><time>2026-04-12T09:35:25.039Z</time></trkpt><trkpt lat="43.652556" lon="12.5946185"><ele>239.00000000000003</ele><time>2026-04-12T09:35:45.032Z</time></trkpt><trkpt lat="43.6524838" lon="12.5946269"><ele>239.0</ele><time>2026-04-12T09:36:11.03Z</time></trkpt><trkpt lat="43.6524136" lon="12.5946263"><ele>239.00000000000003</ele><time>2026-04-12T09:36:31.049Z</time></trkpt><trkpt lat="43.6523511" lon="12.5946552"><ele>239.00000000000003</ele><time>2026-04-12T09:36:39.075Z</time></trkpt><trkpt lat="43.6522835" lon="12.5946576"><ele>239.0</ele><time>2026-04-12T09:36:50.032Z</time></trkpt><trkpt lat="43.6523519" lon="12.5946599"><ele>239.00000000000003</ele><time>2026-04-12T09:37:22.03Z</time></trkpt><trkpt lat="43.6523103" lon="12.5947259"><ele>239.00000000000003</ele><time>2026-04-12T09:38:44.078Z</time></trkpt><trkpt lat="43.6522457" lon="12.5947869"><ele>239.00000000000003</ele><time>2026-04-12T09:53:32.043Z</time></trkpt><trkpt lat="43.65215" lon="12.5947717"><ele>239.0</ele><time>2026-04-12T09:55:47.029Z</time></trkpt><trkpt lat="43.6521567" lon="12.5949067"><ele>239.0</ele><time>2026-04-12T09:55:55.031Z</time></trkpt><trkpt lat="43.652175" lon="12.5949967"><ele>239.0</ele><time>2026-04-12T09:55:56.031Z</time></trkpt><trkpt lat="43.6522033" lon="12.5951067"><ele>239.00000000000003</ele><time>2026-04-12T09:55:57.028Z</time></trkpt><trkpt lat="43.6522467" lon="12.59523"><ele>239.0</ele><time>2026-04-12T09:55:58.028Z</time></trkpt><trkpt lat="43.6522983" lon="12.5953533"><ele>238.83333333333334</ele><time>2026-04-12T09:55:59.026Z</time></trkpt><trkpt lat="43.652345" lon="12.5954733"><ele>238.66666666666669</ele><time>2026-04-12T09:56:00.025Z</time></trkpt><trkpt lat="43.6523917" lon="12.5955817"><ele>238.5</ele><time>2026-04-12T09:56:01.027Z</time></trkpt><trkpt lat="43.6524333" lon="12.59568"><ele>238.33333333333331</ele><time>2026-04-12T09:56:02.035Z</time></trkpt><trkpt lat="43.65247" lon="12.595775"><ele>238.16666666666666</ele><time>2026-04-12T09:56:03.031Z</time></trkpt><trkpt lat="43.6525083" lon="12.5958717"><ele>238.0</ele><time>2026-04-12T09:56:04.029Z</time></trkpt><trkpt lat="43.6525517" lon="12.59598"><ele>238.0</ele><time>2026-04-12T09:56:05.025Z</time></trkpt><trkpt lat="43.6526017" lon="12.5960967"><ele>238.0</ele><time>2026-04-12T09:56:06.03Z</time></trkpt><trkpt lat="43.6526567" lon="12.596225"><ele>238.0</ele><time>2026-04-12T09:56:07.026Z</time></trkpt><trkpt lat="43.6527183" lon="12.59636"><ele>238.0</ele><time>2026-04-12T09:56:08.03Z</time></trkpt><trkpt lat="43.65278" lon="12.5965033"><ele>238.0</ele><time>2026-04-12T09:56:09.029Z</time></trkpt><trkpt lat="43.652845" lon="12.596655"><ele>237.75</ele><time>2026-04-12T09:56:10.029Z</time></trkpt><trkpt lat="43.65291" lon="12.5968133"><ele>237.5</ele><time>2026-04-12T09:56:11.028Z</time></trkpt><trkpt lat="43.65298" lon="12.5969717"><ele>237.25</ele><time>2026-04-12T09:56:12.036Z</time></trkpt><trkpt lat="43.6530517" lon="12.597135"><ele>237.0</ele><time>2026-04-12T09:56:13.036Z</time></trkpt><trkpt lat="43.653125" lon="12.5973"><ele>236.75</ele><time>2026-04-12T09:56:14.034Z</time></trkpt><trkpt lat="43.6532" lon="12.5974683"><ele>236.5</ele><time>2026-04-12T09:56:15.034Z</time></trkpt><trkpt lat="43.6532767" lon="12.5976367"><ele>236.25</ele><time>2026-04-12T09:56:16.032Z</time></trkpt><trkpt lat="43.6533483" lon="12.59781"><ele>236.0</ele><time>2026-04-12T09:56:17.03Z</time></trkpt><trkpt lat="43.6534233" lon="12.5979833"><ele>235.75</ele><time>2026-04-12T09:56:18.025Z</time></trkpt><trkpt lat="43.653495" lon="12.5981583"><ele>235.5</ele><time>2026-04-12T09:56:19.027Z</time></trkpt><trkpt lat="43.6535717" lon="12.598335"><ele>235.25</ele><time>2026-04-12T09:56:20.038Z</time></trkpt><trkpt lat="43.6536483" lon="12.59851"><ele>235.0</ele><time>2026-04-12T09:56:21.028Z</time></trkpt><trkpt lat="43.65373" lon="12.5986867"><ele>234.66666666666666</ele><time>2026-04-12T09:56:22.038Z</time></trkpt><trkpt lat="43.65381" lon="12.5988667"><ele>234.33333333333331</ele><time>2026-04-12T09:56:23.033Z</time></trkpt><trkpt lat="43.6538917" lon="12.5990517"><ele>234.0</ele><time>2026-04-12T09:56:24.031Z</time></trkpt><trkpt lat="43.6539733" lon="12.5992433"><ele>234.0</ele><time>2026-04-12T09:56:25.032Z</time></trkpt><trkpt lat="43.654055" lon="12.599445"><ele>234.0</ele><time>2026-04-12T09:56:26.032Z</time></trkpt><trkpt lat="43.6541433" lon="12.5996533"><ele>234.0</ele><time>2026-04-12T09:56:27.026Z</time></trkpt><trkpt lat="43.6542367" lon="12.5998717"><ele>234.0</ele><time>2026-04-12T09:56:28.036Z</time></trkpt><trkpt lat="43.654335" lon="12.6001017"><ele>234.0</ele><time>2026-04-12T09:56:29.027Z</time></trkpt><trkpt lat="43.6544367" lon="12.6003367"><ele>234.0</ele><time>2026-04-12T09:56:30.027Z</time></trkpt><trkpt lat="43.65454" lon="12.600575"><ele>234.0</ele><time>2026-04-12T09:56:31.026Z</time></trkpt><trkpt lat="43.6546433" lon="12.6008167"><ele>234.0</ele><time>2026-04-12T09:56:32.034Z</time></trkpt><trkpt lat="43.65475" lon="12.6010583"><ele>234.0</ele><time>2026-04-12T09:56:33.033Z</time></trkpt><trkpt lat="43.654855" lon="12.6012983"><ele>233.33333333333331</ele><time>2026-04-12T09:56:34.032Z</time></trkpt><trkpt lat="43.6549567" lon="12.6015383"><ele>232.66666666666666</ele><time>2026-04-12T09:56:35.036Z</time></trkpt><trkpt lat="43.6550583" lon="12.601775"><ele>232.0</ele><time>2026-04-12T09:56:36.03Z</time></trkpt><trkpt lat="43.65516" lon="12.6020117"><ele>231.66666666666666</ele><time>2026-04-12T09:56:37.037Z</time></trkpt><trkpt lat="43.6552617" lon="12.6022517"><ele>231.33333333333331</ele><time>2026-04-12T09:56:38.029Z</time></trkpt><trkpt lat="43.6553633" lon="12.6024933"><ele>231.0</ele><time>2026-04-12T09:56:39.03Z</time></trkpt><trkpt lat="43.6554617" lon="12.6027267"><ele>231.0</ele><time>2026-04-12T09:56:40.029Z</time></trkpt><trkpt lat="43.6555583" lon="12.6029533"><ele>231.0</ele><time>2026-04-12T09:56:41.031Z</time></trkpt><trkpt lat="43.655655" lon="12.6031783"><ele>231.0</ele><time>2026-04-12T09:56:42.035Z</time></trkpt><trkpt lat="43.6557533" lon="12.6033983"><ele>231.0</ele><time>2026-04-12T09:56:43.03Z</time></trkpt><trkpt lat="43.65585" lon="12.6036133"><ele>231.0</ele><time>2026-04-12T09:56:44.03Z</time></trkpt><trkpt lat="43.65594" lon="12.6038233"><ele>231.0</ele><time>2026-04-12T09:56:45.033Z</time></trkpt><trkpt lat="43.65603" lon="12.60403"><ele>230.66666666666669</ele><time>2026-04-12T09:56:46.03Z</time></trkpt><trkpt lat="43.6561267" lon="12.604235"><ele>230.33333333333334</ele><time>2026-04-12T09:56:47.029Z</time></trkpt><trkpt lat="43.65622" lon="12.6044383"><ele>230.0</ele><time>2026-04-12T09:56:48.031Z</time></trkpt><trkpt lat="43.6563083" lon="12.6046433"><ele>230.0</ele><time>2026-04-12T09:56:49.031Z</time></trkpt><trkpt lat="43.6563917" lon="12.6048467"><ele>230.0</ele><time>2026-04-12T09:56:50.032Z</time></trkpt><trkpt lat="43.6564767" lon="12.6050533"><ele>230.0</ele><time>2026-04-12T09:56:51.03Z</time></trkpt><trkpt lat="43.6565667" lon="12.6052717"><ele>229.0</ele><time>2026-04-12T09:56:52.031Z</time></trkpt><trkpt lat="43.6566633" lon="12.6054917"><ele>228.0</ele><time>2026-04-12T09:56:53.026Z</time></trkpt><trkpt lat="43.6567767" lon="12.6057067"><ele>227.0</ele><time>2026-04-12T09:56:54.034Z</time></trkpt><trkpt lat="43.6569167" lon="12.6059067"><ele>226.66666666666669</ele><time>2026-04-12T09:56:55.03Z</time></trkpt><trkpt lat="43.6570717" lon="12.6060767"><ele>226.33333333333331</ele><time>2026-04-12T09:56:56.03Z</time></trkpt><trkpt lat="43.6572333" lon="12.6062183"><ele>226.0</ele><time>2026-04-12T09:56:57.036Z</time></trkpt><trkpt lat="43.6573967" lon="12.6063483"><ele>226.0</ele><time>2026-04-12T09:56:58.03Z</time></trkpt><trkpt lat="43.657565" lon="12.6064733"><ele>226.0</ele><time>2026-04-12T09:56:59.032Z</time></trkpt><trkpt lat="43.6577333" lon="12.6066033"><ele>226.0</ele><time>2026-04-12T09:57:00.026Z</time></trkpt><trkpt lat="43.6579083" lon="12.6067317"><ele>226.33333333333331</ele><time>2026-04-12T09:57:01.027Z</time></trkpt><trkpt lat="43.6580867" lon="12.606865"><ele>226.66666666666669</ele><time>2026-04-12T09:57:02.032Z</time></trkpt><trkpt lat="43.6582667" lon="12.607"><ele>227.0</ele><time>2026-04-12T09:57:03.031Z</time></trkpt><trkpt lat="43.6584467" lon="12.60713"><ele>226.66666666666669</ele><time>2026-04-12T09:57:04.031Z</time></trkpt><trkpt lat="43.6586183" lon="12.607255"><ele>226.33333333333331</ele><time>2026-04-12T09:57:05.027Z</time></trkpt><trkpt lat="43.6587883" lon="12.6073783"><ele>226.0</ele><time>2026-04-12T09:57:06.038Z</time></trkpt><trkpt lat="43.658955" lon="12.6075033"><ele>226.0</ele><time>2026-04-12T09:57:07.026Z</time></trkpt><trkpt lat="43.659115" lon="12.6076267"><ele>226.0</ele><time>2026-04-12T09:57:08.026Z</time></trkpt><trkpt lat="43.6592683" lon="12.6077417"><ele>226.0</ele><time>2026-04-12T09:57:09.026Z</time></trkpt><trkpt lat="43.6594167" lon="12.6078517"><ele>224.0</ele><time>2026-04-12T09:57:10.03Z</time></trkpt><trkpt lat="43.6595667" lon="12.6079633"><ele>222.0</ele><time>2026-04-12T09:57:11.033Z</time></trkpt><trkpt lat="43.6597183" lon="12.6080767"><ele>220.0</ele><time>2026-04-12T09:57:12.03Z</time></trkpt><trkpt lat="43.6598767" lon="12.6081967"><ele>220.0</ele><time>2026-04-12T09:57:13.029Z</time></trkpt><trkpt lat="43.66004" lon="12.60832"><ele>220.0</ele><time>2026-04-12T09:57:14.03Z</time></trkpt><trkpt lat="43.6602067" lon="12.608445"><ele>220.0</ele><time>2026-04-12T09:57:15.03Z</time></trkpt><trkpt lat="43.66038" lon="12.6085717"><ele>218.66666666666666</ele><time>2026-04-12T09:57:16.031Z</time></trkpt><trkpt lat="43.6605517" lon="12.6086983"><ele>217.33333333333331</ele><time>2026-04-12T09:57:17.031Z</time></trkpt><trkpt lat="43.660725" lon="12.6088267"><ele>216.0</ele><time>2026-04-12T09:57:18.029Z</time></trkpt><trkpt lat="43.6609" lon="12.6089567"><ele>216.0</ele><time>2026-04-12T09:57:19.028Z</time></trkpt><trkpt lat="43.6610717" lon="12.6090917"><ele>216.0</ele><time>2026-04-12T09:57:20.031Z</time></trkpt><trkpt lat="43.6612367" lon="12.6092383"><ele>216.0</ele><time>2026-04-12T09:57:21.031Z</time></trkpt><trkpt lat="43.6614" lon="12.6093833"><ele>218.0</ele><time>2026-04-12T09:57:22.031Z</time></trkpt><trkpt lat="43.6615633" lon="12.60953"><ele>220.0</ele><time>2026-04-12T09:57:23.027Z</time></trkpt><trkpt lat="43.6617183" lon="12.60969"><ele>222.0</ele><time>2026-04-12T09:57:24.029Z</time></trkpt><trkpt lat="43.6618683" lon="12.60988"><ele>223.0</ele><time>2026-04-12T09:57:25.029Z</time></trkpt><trkpt lat="43.6619967" lon="12.6101033"><ele>224.0</ele><time>2026-04-12T09:57:26.026Z</time></trkpt><trkpt lat="43.662105" lon="12.61034"><ele>225.0</ele><time>2026-04-12T09:57:27.032Z</time></trkpt><trkpt lat="43.6621933" lon="12.6105783"><ele>225.33333333333331</ele><time>2026-04-12T09:57:28.029Z</time></trkpt><trkpt lat="43.6622783" lon="12.6108133"><ele>225.66666666666666</ele><time>2026-04-12T09:57:29.035Z</time></trkpt><trkpt lat="43.6623583" lon="12.6110433"><ele>226.0</ele><time>2026-04-12T09:57:30.031Z</time></trkpt><trkpt lat="43.66244" lon="12.61127"><ele>226.0</ele><time>2026-04-12T09:57:31.029Z</time></trkpt><trkpt lat="43.662515" lon="12.6114967"><ele>226.0</ele><time>2026-04-12T09:57:32.033Z</time></trkpt><trkpt lat="43.662595" lon="12.61172"><ele>226.0</ele><time>2026-04-12T09:57:33.028Z</time></trkpt><trkpt lat="43.66267" lon="12.611935"><ele>226.0</ele><time>2026-04-12T09:57:34.029Z</time></trkpt><trkpt lat="43.6627433" lon="12.61214"><ele>226.0</ele><time>2026-04-12T09:57:35.032Z</time></trkpt><trkpt lat="43.66281" lon="12.6123367"><ele>226.0</ele><time>2026-04-12T09:57:36.031Z</time></trkpt><trkpt lat="43.6628717" lon="12.6125233"><ele>226.5</ele><time>2026-04-12T09:57:37.031Z</time></trkpt><trkpt lat="43.662935" lon="12.6127017"><ele>227.0</ele><time>2026-04-12T09:57:38.036Z</time></trkpt><trkpt lat="43.663" lon="12.6128817"><ele>227.5</ele><time>2026-04-12T09:57:39.031Z</time></trkpt><trkpt lat="43.6630633" lon="12.6130717"><ele>228.0</ele><time>2026-04-12T09:57:40.029Z</time></trkpt><trkpt lat="43.66313" lon="12.6132667"><ele>228.0</ele><time>2026-04-12T09:57:41.029Z</time></trkpt><trkpt lat="43.6631967" lon="12.6134683"><ele>228.0</ele><time>2026-04-12T09:57:42.027Z</time></trkpt><trkpt lat="43.6632667" lon="12.6136717"><ele>228.0</ele><time>2026-04-12T09:57:43.027Z</time></trkpt><trkpt lat="43.6633417" lon="12.6138817"><ele>227.66666666666669</ele><time>2026-04-12T09:57:44.029Z</time></trkpt><trkpt lat="43.66342" lon="12.61409"><ele>227.33333333333334</ele><time>2026-04-12T09:57:45.031Z</time></trkpt><trkpt lat="43.6635" lon="12.6143033"><ele>227.0</ele><time>2026-04-12T09:57:46.033Z</time></trkpt><trkpt lat="43.6635767" lon="12.6145167"><ele>227.0</ele><time>2026-04-12T09:57:47.038Z</time></trkpt><trkpt lat="43.6636567" lon="12.6147367"><ele>227.0</ele><time>2026-04-12T09:57:48.036Z</time></trkpt><trkpt lat="43.663735" lon="12.61496"><ele>227.0</ele><time>2026-04-12T09:57:49.026Z</time></trkpt><trkpt lat="43.6638117" lon="12.615185"><ele>226.66666666666669</ele><time>2026-04-12T09:57:50.032Z</time></trkpt><trkpt lat="43.6638933" lon="12.6154133"><ele>226.33333333333331</ele><time>2026-04-12T09:57:51.027Z</time></trkpt><trkpt lat="43.6639733" lon="12.6156433"><ele>226.0</ele><time>2026-04-12T09:57:52.032Z</time></trkpt><trkpt lat="43.6640517" lon="12.6158733"><ele>226.0</ele><time>2026-04-12T09:57:53.032Z</time></trkpt><trkpt lat="43.664135" lon="12.616105"><ele>226.0</ele><time>2026-04-12T09:57:54.032Z</time></trkpt><trkpt lat="43.664215" lon="12.6163333"><ele>226.0</ele><time>2026-04-12T09:57:55.03Z</time></trkpt><trkpt lat="43.6642917" lon="12.616555"><ele>226.0</ele><time>2026-04-12T09:57:56.029Z</time></trkpt><trkpt lat="43.6643683" lon="12.6167733"><ele>226.0</ele><time>2026-04-12T09:57:57.032Z</time></trkpt><trkpt lat="43.6644433" lon="12.61699"><ele>226.0</ele><time>2026-04-12T09:57:58.03Z</time></trkpt><trkpt lat="43.6645217" lon="12.6172083"><ele>226.0</ele><time>2026-04-12T09:57:59.03Z</time></trkpt><trkpt lat="43.6646033" lon="12.6174317"><ele>226.0</ele><time>2026-04-12T09:58:00.038Z</time></trkpt><trkpt lat="43.664685" lon="12.61766"><ele>226.0</ele><time>2026-04-12T09:58:01.037Z</time></trkpt><trkpt lat="43.6647667" lon="12.6178967"><ele>225.0</ele><time>2026-04-12T09:58:02.031Z</time></trkpt><trkpt lat="43.66485" lon="12.6181333"><ele>224.0</ele><time>2026-04-12T09:58:03.032Z</time></trkpt><trkpt lat="43.6649367" lon="12.6183717"><ele>223.0</ele><time>2026-04-12T09:58:04.031Z</time></trkpt><trkpt lat="43.66502" lon="12.6186117"><ele>223.0</ele><time>2026-04-12T09:58:05.031Z</time></trkpt><trkpt lat="43.6650983" lon="12.6188467"><ele>223.0</ele><time>2026-04-12T09:58:06.029Z</time></trkpt><trkpt lat="43.6651767" lon="12.6190733"><ele>223.0</ele><time>2026-04-12T09:58:07.028Z</time></trkpt><trkpt lat="43.6652567" lon="12.6193"><ele>221.33333333333331</ele><time>2026-04-12T09:58:08.029Z</time></trkpt><trkpt lat="43.6653317" lon="12.6195267"><ele>219.66666666666669</ele><time>2026-04-12T09:58:09.03Z</time></trkpt><trkpt lat="43.6654117" lon="12.6197533"><ele>218.0</ele><time>2026-04-12T09:58:10.033Z</time></trkpt><trkpt lat="43.665495" lon="12.6199833"><ele>218.0</ele><time>2026-04-12T09:58:11.03Z</time></trkpt><trkpt lat="43.6655767" lon="12.6202167"><ele>218.0</ele><time>2026-04-12T09:58:12.029Z</time></trkpt><trkpt lat="43.6656583" lon="12.6204517"><ele>218.0</ele><time>2026-04-12T09:58:13.032Z</time></trkpt><trkpt lat="43.6657417" lon="12.6206817"><ele>217.66666666666669</ele><time>2026-04-12T09:58:14.03Z</time></trkpt><trkpt lat="43.6658267" lon="12.62091"><ele>217.33333333333331</ele><time>2026-04-12T09:58:15.027Z</time></trkpt><trkpt lat="43.66591" lon="12.6211383"><ele>217.0</ele><time>2026-04-12T09:58:16.031Z</time></trkpt><trkpt lat="43.6659917" lon="12.62137"><ele>216.66666666666666</ele><time>2026-04-12T09:58:17.026Z</time></trkpt><trkpt lat="43.6660783" lon="12.6216067"><ele>216.33333333333331</ele><time>2026-04-12T09:58:18.031Z</time></trkpt><trkpt lat="43.6661633" lon="12.6218417"><ele>216.0</ele><time>2026-04-12T09:58:19.028Z</time></trkpt><trkpt lat="43.6662467" lon="12.62208"><ele>216.0</ele><time>2026-04-12T09:58:20.029Z</time></trkpt><trkpt lat="43.6663317" lon="12.6223133"><ele>216.0</ele><time>2026-04-12T09:58:21.025Z</time></trkpt><trkpt lat="43.6664117" lon="12.62255"><ele>216.0</ele><time>2026-04-12T09:58:22.029Z</time></trkpt><trkpt lat="43.6664933" lon="12.6227917"><ele>216.0</ele><time>2026-04-12T09:58:23.031Z</time></trkpt><trkpt lat="43.6665767" lon="12.6230267"><ele>216.0</ele><time>2026-04-12T09:58:24.028Z</time></trkpt><trkpt lat="43.66666" lon="12.623265"><ele>216.0</ele><time>2026-04-12T09:58:25.031Z</time></trkpt><trkpt lat="43.66674" lon="12.6235033"><ele>216.33333333333331</ele><time>2026-04-12T09:58:26.028Z</time></trkpt><trkpt lat="43.6668233" lon="12.62374"><ele>216.66666666666666</ele><time>2026-04-12T09:58:27.031Z</time></trkpt><trkpt lat="43.666905" lon="12.6239733"><ele>217.0</ele><time>2026-04-12T09:58:28.029Z</time></trkpt><trkpt lat="43.6669833" lon="12.6242033"><ele>216.0</ele><time>2026-04-12T09:58:29.026Z</time></trkpt><trkpt lat="43.667065" lon="12.624435"><ele>215.0</ele><time>2026-04-12T09:58:30.026Z</time></trkpt><trkpt lat="43.667145" lon="12.6246667"><ele>214.0</ele><time>2026-04-12T09:58:31.027Z</time></trkpt><trkpt lat="43.667225" lon="12.6249017"><ele>213.33333333333331</ele><time>2026-04-12T09:58:32.029Z</time></trkpt><trkpt lat="43.6673083" lon="12.625135"><ele>212.66666666666669</ele><time>2026-04-12T09:58:33.031Z</time></trkpt><trkpt lat="43.6673883" lon="12.6253717"><ele>212.0</ele><time>2026-04-12T09:58:34.027Z</time></trkpt><trkpt lat="43.6674683" lon="12.62561"><ele>211.66666666666669</ele><time>2026-04-12T09:58:35.03Z</time></trkpt><trkpt lat="43.6675467" lon="12.6258483"><ele>211.33333333333331</ele><time>2026-04-12T09:58:36.03Z</time></trkpt><trkpt lat="43.667625" lon="12.6260833"><ele>211.0</ele><time>2026-04-12T09:58:37.03Z</time></trkpt><trkpt lat="43.6677083" lon="12.626315"><ele>211.66666666666666</ele><time>2026-04-12T09:58:38.028Z</time></trkpt><trkpt lat="43.66779" lon="12.6265483"><ele>212.33333333333331</ele><time>2026-04-12T09:58:39.026Z</time></trkpt><trkpt lat="43.6678717" lon="12.6267833"><ele>213.0</ele><time>2026-04-12T09:58:40.025Z</time></trkpt><trkpt lat="43.6679517" lon="12.6270217"><ele>213.0</ele><time>2026-04-12T09:58:41.033Z</time></trkpt><trkpt lat="43.6680333" lon="12.62726"><ele>213.0</ele><time>2026-04-12T09:58:42.029Z</time></trkpt><trkpt lat="43.6681117" lon="12.6274967"><ele>213.0</ele><time>2026-04-12T09:58:43.03Z</time></trkpt><trkpt lat="43.6681933" lon="12.627725"><ele>212.0</ele><time>2026-04-12T09:58:44.029Z</time></trkpt><trkpt lat="43.6682733" lon="12.6279483"><ele>211.0</ele><time>2026-04-12T09:58:45.027Z</time></trkpt><trkpt lat="43.668355" lon="12.6281767"><ele>210.0</ele><time>2026-04-12T09:58:46.031Z</time></trkpt><trkpt lat="43.6684383" lon="12.628415"><ele>210.0</ele><time>2026-04-12T09:58:47.031Z</time></trkpt><trkpt lat="43.6685183" lon="12.62866"><ele>210.0</ele><time>2026-04-12T09:58:48.03Z</time></trkpt><trkpt lat="43.6685983" lon="12.6289133"><ele>210.0</ele><time>2026-04-12T09:58:49.027Z</time></trkpt><trkpt lat="43.668685" lon="12.6291733"><ele>210.0</ele><time>2026-04-12T09:58:50.031Z</time></trkpt><trkpt lat="43.66877" lon="12.62943"><ele>210.0</ele><time>2026-04-12T09:58:51.028Z</time></trkpt><trkpt lat="43.668855" lon="12.6296783"><ele>210.0</ele><time>2026-04-12T09:58:52.028Z</time></trkpt><trkpt lat="43.6689383" lon="12.629925"><ele>209.33333333333331</ele><time>2026-04-12T09:58:53.027Z</time></trkpt><trkpt lat="43.6690183" lon="12.630165"><ele>208.66666666666666</ele><time>2026-04-12T09:58:54.032Z</time></trkpt><trkpt lat="43.6690983" lon="12.6304017"><ele>208.0</ele><time>2026-04-12T09:58:55.029Z</time></trkpt><trkpt lat="43.66918" lon="12.6306383"><ele>207.66666666666666</ele><time>2026-04-12T09:58:56.033Z</time></trkpt><trkpt lat="43.6692617" lon="12.630875"><ele>207.33333333333331</ele><time>2026-04-12T09:58:57.026Z</time></trkpt><trkpt lat="43.6693417" lon="12.63111"><ele>207.0</ele><time>2026-04-12T09:58:58.036Z</time></trkpt><trkpt lat="43.66942" lon="12.6313417"><ele>207.0</ele><time>2026-04-12T09:58:59.029Z</time></trkpt><trkpt lat="43.669495" lon="12.6315683"><ele>207.0</ele><time>2026-04-12T09:59:00.032Z</time></trkpt><trkpt lat="43.6695717" lon="12.6317917"><ele>207.0</ele><time>2026-04-12T09:59:01.032Z</time></trkpt><trkpt lat="43.66965" lon="12.6320217"><ele>207.0</ele><time>2026-04-12T09:59:02.038Z</time></trkpt><trkpt lat="43.66973" lon="12.632255"><ele>207.0</ele><time>2026-04-12T09:59:03.03Z</time></trkpt><trkpt lat="43.6698133" lon="12.6324917"><ele>207.0</ele><time>2026-04-12T09:59:04.034Z</time></trkpt><trkpt lat="43.6698933" lon="12.63273"><ele>206.33333333333331</ele><time>2026-04-12T09:59:05.031Z</time></trkpt><trkpt lat="43.6699733" lon="12.6329667"><ele>205.66666666666666</ele><time>2026-04-12T09:59:06.027Z</time></trkpt><trkpt lat="43.6700533" lon="12.6332017"><ele>205.0</ele><time>2026-04-12T09:59:07.03Z</time></trkpt><trkpt lat="43.670135" lon="12.633435"><ele>204.66666666666666</ele><time>2026-04-12T09:59:08.031Z</time></trkpt><trkpt lat="43.670215" lon="12.6336667"><ele>204.33333333333331</ele><time>2026-04-12T09:59:09.031Z</time></trkpt><trkpt lat="43.6702917" lon="12.6339"><ele>204.0</ele><time>2026-04-12T09:59:10.037Z</time></trkpt><trkpt lat="43.67037" lon="12.6341317"><ele>204.0</ele><time>2026-04-12T09:59:11.029Z</time></trkpt><trkpt lat="43.6704483" lon="12.634365"><ele>204.0</ele><time>2026-04-12T09:59:12.034Z</time></trkpt><trkpt lat="43.6705283" lon="12.6345967"><ele>204.0</ele><time>2026-04-12T09:59:13.029Z</time></trkpt><trkpt lat="43.6706067" lon="12.634825"><ele>204.33333333333331</ele><time>2026-04-12T09:59:14.029Z</time></trkpt><trkpt lat="43.6706833" lon="12.635055"><ele>204.66666666666666</ele><time>2026-04-12T09:59:15.03Z</time></trkpt><trkpt lat="43.6707617" lon="12.6352833"><ele>205.0</ele><time>2026-04-12T09:59:16.036Z</time></trkpt><trkpt lat="43.67084" lon="12.635515"><ele>204.0</ele><time>2026-04-12T09:59:17.026Z</time></trkpt><trkpt lat="43.670925" lon="12.6357467"><ele>203.0</ele><time>2026-04-12T09:59:18.027Z</time></trkpt><trkpt lat="43.6710033" lon="12.635975"><ele>202.0</ele><time>2026-04-12T09:59:19.029Z</time></trkpt><trkpt lat="43.6710783" lon="12.6361983"><ele>203.33333333333331</ele><time>2026-04-12T09:59:20.03Z</time></trkpt><trkpt lat="43.671155" lon="12.636425"><ele>204.66666666666669</ele><time>2026-04-12T09:59:21.031Z</time></trkpt><trkpt lat="43.6712333" lon="12.6366533"><ele>206.0</ele><time>2026-04-12T09:59:22.031Z</time></trkpt><trkpt lat="43.67131" lon="12.6368867"><ele>206.0</ele><time>2026-04-12T09:59:23.029Z</time></trkpt><trkpt lat="43.6713917" lon="12.6371233"><ele>206.0</ele><time>2026-04-12T09:59:24.029Z</time></trkpt><trkpt lat="43.6714733" lon="12.6373617"><ele>206.0</ele><time>2026-04-12T09:59:25.033Z</time></trkpt><trkpt lat="43.6715567" lon="12.6376033"><ele>205.66666666666669</ele><time>2026-04-12T09:59:26.033Z</time></trkpt><trkpt lat="43.6716417" lon="12.637845"><ele>205.33333333333331</ele><time>2026-04-12T09:59:27.03Z</time></trkpt><trkpt lat="43.6717267" lon="12.6380883"><ele>205.0</ele><time>2026-04-12T09:59:28.033Z</time></trkpt><trkpt lat="43.6718083" lon="12.6383283"><ele>205.0</ele><time>2026-04-12T09:59:29.037Z</time></trkpt><trkpt lat="43.671885" lon="12.63856"><ele>205.0</ele><time>2026-04-12T09:59:30.032Z</time></trkpt><trkpt lat="43.6719617" lon="12.6387933"><ele>205.0</ele><time>2026-04-12T09:59:31.034Z</time></trkpt><trkpt lat="43.6720367" lon="12.639025"><ele>206.33333333333331</ele><time>2026-04-12T09:59:32.031Z</time></trkpt><trkpt lat="43.6721133" lon="12.6392567"><ele>207.66666666666669</ele><time>2026-04-12T09:59:33.031Z</time></trkpt><trkpt lat="43.67219" lon="12.6394917"><ele>209.0</ele><time>2026-04-12T09:59:34.031Z</time></trkpt><trkpt lat="43.6722683" lon="12.639725"><ele>209.0</ele><time>2026-04-12T09:59:35.03Z</time></trkpt><trkpt lat="43.672345" lon="12.6399617"><ele>209.0</ele><time>2026-04-12T09:59:36.03Z</time></trkpt><trkpt lat="43.6724233" lon="12.6402"><ele>209.0</ele><time>2026-04-12T09:59:37.031Z</time></trkpt><trkpt lat="43.6724983" lon="12.64043"><ele>209.0</ele><time>2026-04-12T09:59:38.032Z</time></trkpt><trkpt lat="43.6725733" lon="12.6406567"><ele>209.0</ele><time>2026-04-12T09:59:39.03Z</time></trkpt><trkpt lat="43.67265" lon="12.640885"><ele>209.0</ele><time>2026-04-12T09:59:40.033Z</time></trkpt><trkpt lat="43.6727283" lon="12.6411133"><ele>214.33333333333334</ele><time>2026-04-12T09:59:41.035Z</time></trkpt><trkpt lat="43.6728067" lon="12.6413433"><ele>219.66666666666669</ele><time>2026-04-12T09:59:42.032Z</time></trkpt><trkpt lat="43.6728833" lon="12.641565"><ele>225.0</ele><time>2026-04-12T09:59:43.029Z</time></trkpt><trkpt lat="43.672955" lon="12.6417783"><ele>221.0</ele><time>2026-04-12T09:59:44.032Z</time></trkpt><trkpt lat="43.6730283" lon="12.6419817"><ele>217.0</ele><time>2026-04-12T09:59:45.031Z</time></trkpt><trkpt lat="43.6731133" lon="12.6421817"><ele>213.0</ele><time>2026-04-12T09:59:46.034Z</time></trkpt><trkpt lat="43.6731983" lon="12.6423733"><ele>213.0</ele><time>2026-04-12T09:59:47.029Z</time></trkpt><trkpt lat="43.6732767" lon="12.6425617"><ele>213.0</ele><time>2026-04-12T09:59:48.032Z</time></trkpt><trkpt lat="43.6733483" lon="12.6427417"><ele>213.0</ele><time>2026-04-12T09:59:49.034Z</time></trkpt><trkpt lat="43.6734033" lon="12.6429217"><ele>213.0</ele><time>2026-04-12T09:59:50.03Z</time></trkpt><trkpt lat="43.6734333" lon="12.643105"><ele>210.0</ele><time>2026-04-12T09:59:51.029Z</time></trkpt><trkpt lat="43.673425" lon="12.643305"><ele>207.0</ele><time>2026-04-12T09:59:52.032Z</time></trkpt><trkpt lat="43.6734017" lon="12.6435033"><ele>204.0</ele><time>2026-04-12T09:59:53.033Z</time></trkpt><trkpt lat="43.6733717" lon="12.64369"><ele>201.0</ele><time>2026-04-12T09:59:54.031Z</time></trkpt><trkpt lat="43.673345" lon="12.6438683"><ele>200.20000000000002</ele><time>2026-04-12T09:59:55.032Z</time></trkpt><trkpt lat="43.6733233" lon="12.6440383"><ele>199.4</ele><time>2026-04-12T09:59:56.029Z</time></trkpt><trkpt lat="43.6733033" lon="12.6441933"><ele>198.6</ele><time>2026-04-12T09:59:57.029Z</time></trkpt><trkpt lat="43.673285" lon="12.6443267"><ele>197.8</ele><time>2026-04-12T09:59:58.032Z</time></trkpt><trkpt lat="43.673265" lon="12.64444"><ele>197.0</ele><time>2026-04-12T09:59:59.03Z</time></trkpt><trkpt lat="43.67325" lon="12.6445317"><ele>197.00000000000003</ele><time>2026-04-12T10:00:00.029Z</time></trkpt><trkpt lat="43.67322" lon="12.6446467"><ele>197.0</ele><time>2026-04-12T10:00:02.031Z</time></trkpt><trkpt lat="43.6732" lon="12.6447383"><ele>197.0</ele><time>2026-04-12T10:00:04.032Z</time></trkpt><trkpt lat="43.6731767" lon="12.6448667"><ele>197.0</ele><time>2026-04-12T10:00:06.028Z</time></trkpt><trkpt lat="43.6731583" lon="12.64499"><ele>197.00000000000003</ele><time>2026-04-12T10:00:08.027Z</time></trkpt><trkpt lat="43.67314" lon="12.64511"><ele>197.0</ele><time>2026-04-12T10:00:10.033Z</time></trkpt><trkpt lat="43.6731233" lon="12.6452533"><ele>197.8</ele><time>2026-04-12T10:00:12.027Z</time></trkpt><trkpt lat="43.6731067" lon="12.6454333"><ele>198.6</ele><time>2026-04-12T10:00:14.03Z</time></trkpt><trkpt lat="43.6731017" lon="12.6455383"><ele>199.4</ele><time>2026-04-12T10:00:15.03Z</time></trkpt><trkpt lat="43.673095" lon="12.6456467"><ele>200.20000000000002</ele><time>2026-04-12T10:00:16.027Z</time></trkpt><trkpt lat="43.67309" lon="12.64576"><ele>201.0</ele><time>2026-04-12T10:00:17.029Z</time></trkpt><trkpt lat="43.67309" lon="12.6458783"><ele>201.0</ele><time>2026-04-12T10:00:18.033Z</time></trkpt><trkpt lat="43.6730917" lon="12.6460033"><ele>201.0</ele><time>2026-04-12T10:00:19.029Z</time></trkpt><trkpt lat="43.6730933" lon="12.6461333"><ele>201.0</ele><time>2026-04-12T10:00:20.032Z</time></trkpt><trkpt lat="43.6730967" lon="12.64627"><ele>201.0</ele><time>2026-04-12T10:00:21.03Z</time></trkpt><trkpt lat="43.6730983" lon="12.6464"><ele>201.0</ele><time>2026-04-12T10:00:22.028Z</time></trkpt><trkpt lat="43.6730967" lon="12.646525"><ele>200.8</ele><time>2026-04-12T10:00:23.029Z</time></trkpt><trkpt lat="43.6730933" lon="12.6466533"><ele>200.60000000000002</ele><time>2026-04-12T10:00:24.026Z</time></trkpt><trkpt lat="43.67309" lon="12.6467833"><ele>200.4</ele><time>2026-04-12T10:00:25.029Z</time></trkpt><trkpt lat="43.6730867" lon="12.646915"><ele>200.2</ele><time>2026-04-12T10:00:26.036Z</time></trkpt><trkpt lat="43.6730817" lon="12.6470433"><ele>200.0</ele><time>2026-04-12T10:00:27.028Z</time></trkpt><trkpt lat="43.6730767" lon="12.6471633"><ele>200.57142857142858</ele><time>2026-04-12T10:00:28.031Z</time></trkpt><trkpt lat="43.673075" lon="12.6472717"><ele>201.14285714285714</ele><time>2026-04-12T10:00:29.028Z</time></trkpt><trkpt lat="43.6730783" lon="12.6473717"><ele>201.71428571428572</ele><time>2026-04-12T10:00:30.029Z</time></trkpt><trkpt lat="43.6730917" lon="12.64747"><ele>202.28571428571428</ele><time>2026-04-12T10:00:31.029Z</time></trkpt><trkpt lat="43.67312" lon="12.6475633"><ele>202.85714285714286</ele><time>2026-04-12T10:00:32.031Z</time></trkpt><trkpt lat="43.6731533" lon="12.6476483"><ele>203.42857142857144</ele><time>2026-04-12T10:00:33.03Z</time></trkpt><trkpt lat="43.6732" lon="12.64772"><ele>204.0</ele><time>2026-04-12T10:00:34.035Z</time></trkpt><trkpt lat="43.6732617" lon="12.6477767"><ele>204.79999999999998</ele><time>2026-04-12T10:00:35.029Z</time></trkpt><trkpt lat="43.67333" lon="12.6478183"><ele>205.6</ele><time>2026-04-12T10:00:36.03Z</time></trkpt><trkpt lat="43.6734117" lon="12.6478383"><ele>206.4</ele><time>2026-04-12T10:00:37.028Z</time></trkpt><trkpt lat="43.673505" lon="12.6478533"><ele>207.2</ele><time>2026-04-12T10:00:38.028Z</time></trkpt><trkpt lat="43.6736033" lon="12.647865"><ele>208.0</ele><time>2026-04-12T10:00:39.03Z</time></trkpt><trkpt lat="43.673705" lon="12.6478783"><ele>208.0</ele><time>2026-04-12T10:00:40.031Z</time></trkpt><trkpt lat="43.6738017" lon="12.6478917"><ele>208.0</ele><time>2026-04-12T10:00:41.028Z</time></trkpt><trkpt lat="43.6738933" lon="12.6479067"><ele>208.0</ele><time>2026-04-12T10:00:42.032Z</time></trkpt><trkpt lat="43.6739867" lon="12.6479183"><ele>208.0</ele><time>2026-04-12T10:00:43.029Z</time></trkpt><trkpt lat="43.6740833" lon="12.647935"><ele>208.0</ele><time>2026-04-12T10:00:44.034Z</time></trkpt><trkpt lat="43.674175" lon="12.64795"><ele>207.99999999999997</ele><time>2026-04-12T10:00:45.029Z</time></trkpt><trkpt lat="43.6742483" lon="12.64796"><ele>208.0</ele><time>2026-04-12T10:00:46.028Z</time></trkpt><trkpt lat="43.6743117" lon="12.647975"><ele>208.0</ele><time>2026-04-12T10:00:47.029Z</time></trkpt><trkpt lat="43.6744217" lon="12.648005"><ele>208.0</ele><time>2026-04-12T10:00:49.031Z</time></trkpt><trkpt lat="43.6745383" lon="12.6480283"><ele>207.99999999999997</ele><time>2026-04-12T10:00:51.029Z</time></trkpt><trkpt lat="43.67461" lon="12.6480483"><ele>208.0</ele><time>2026-04-12T10:00:52.03Z</time></trkpt><trkpt lat="43.6746917" lon="12.64807"><ele>207.0</ele><time>2026-04-12T10:00:53.029Z</time></trkpt><trkpt lat="43.67477" lon="12.6480917"><ele>206.0</ele><time>2026-04-12T10:00:54.03Z</time></trkpt><trkpt lat="43.6748567" lon="12.6481117"><ele>205.0</ele><time>2026-04-12T10:00:55.027Z</time></trkpt><trkpt lat="43.6749667" lon="12.6481383"><ele>204.0</ele><time>2026-04-12T10:00:56.024Z</time></trkpt><trkpt lat="43.6750983" lon="12.6481667"><ele>203.0</ele><time>2026-04-12T10:00:57.028Z</time></trkpt><trkpt lat="43.675245" lon="12.6481933"><ele>201.25</ele><time>2026-04-12T10:00:58.029Z</time></trkpt><trkpt lat="43.6753883" lon="12.6482267"><ele>199.5</ele><time>2026-04-12T10:00:59.028Z</time></trkpt><trkpt lat="43.6755283" lon="12.648255"><ele>197.75</ele><time>2026-04-12T10:01:00.032Z</time></trkpt><trkpt lat="43.6756633" lon="12.6482817"><ele>196.0</ele><time>2026-04-12T10:01:01.027Z</time></trkpt><trkpt lat="43.6757967" lon="12.6483033"><ele>196.0</ele><time>2026-04-12T10:01:02.036Z</time></trkpt><trkpt lat="43.675935" lon="12.6483183"><ele>196.0</ele><time>2026-04-12T10:01:03.026Z</time></trkpt><trkpt lat="43.6760783" lon="12.648325"><ele>196.0</ele><time>2026-04-12T10:01:04.029Z</time></trkpt><trkpt lat="43.6762267" lon="12.6483133"><ele>196.0</ele><time>2026-04-12T10:01:05.034Z</time></trkpt><trkpt lat="43.6763783" lon="12.6482767"><ele>196.25</ele><time>2026-04-12T10:01:06.03Z</time></trkpt><trkpt lat="43.6765233" lon="12.6482183"><ele>196.5</ele><time>2026-04-12T10:01:07.032Z</time></trkpt><trkpt lat="43.6766583" lon="12.648145"><ele>196.75</ele><time>2026-04-12T10:01:08.029Z</time></trkpt><trkpt lat="43.6767867" lon="12.64806"><ele>197.0</ele><time>2026-04-12T10:01:09.026Z</time></trkpt><trkpt lat="43.67691" lon="12.6479717"><ele>196.0</ele><time>2026-04-12T10:01:10.024Z</time></trkpt><trkpt lat="43.6770333" lon="12.6478817"><ele>195.0</ele><time>2026-04-12T10:01:11.03Z</time></trkpt><trkpt lat="43.6771483" lon="12.6477983"><ele>194.0</ele><time>2026-04-12T10:01:12.03Z</time></trkpt><trkpt lat="43.6772567" lon="12.6477183"><ele>193.0</ele><time>2026-04-12T10:01:13.026Z</time></trkpt><trkpt lat="43.6773617" lon="12.6476417"><ele>193.0</ele><time>2026-04-12T10:01:14.031Z</time></trkpt><trkpt lat="43.677465" lon="12.6475733"><ele>193.0</ele><time>2026-04-12T10:01:15.032Z</time></trkpt><trkpt lat="43.67757" lon="12.6475083"><ele>193.0</ele><time>2026-04-12T10:01:16.029Z</time></trkpt><trkpt lat="43.677675" lon="12.6474433"><ele>193.0</ele><time>2026-04-12T10:01:17.03Z</time></trkpt><trkpt lat="43.6777717" lon="12.6473783"><ele>194.8</ele><time>2026-04-12T10:01:18.029Z</time></trkpt><trkpt lat="43.6778667" lon="12.64732"><ele>196.60000000000002</ele><time>2026-04-12T10:01:19.03Z</time></trkpt><trkpt lat="43.67796" lon="12.6472633"><ele>198.39999999999998</ele><time>2026-04-12T10:01:20.031Z</time></trkpt><trkpt lat="43.678055" lon="12.6472083"><ele>200.2</ele><time>2026-04-12T10:01:21.033Z</time></trkpt><trkpt lat="43.6781533" lon="12.6471583"><ele>202.0</ele><time>2026-04-12T10:01:22.029Z</time></trkpt><trkpt lat="43.6782567" lon="12.647115"><ele>202.0</ele><time>2026-04-12T10:01:23.036Z</time></trkpt><trkpt lat="43.678365" lon="12.6470833"><ele>202.0</ele><time>2026-04-12T10:01:24.03Z</time></trkpt><trkpt lat="43.6784817" lon="12.647065"><ele>202.0</ele><time>2026-04-12T10:01:25.033Z</time></trkpt><trkpt lat="43.6785983" lon="12.6470583"><ele>202.0</ele><time>2026-04-12T10:01:26.029Z</time></trkpt><trkpt lat="43.67872" lon="12.6470683"><ele>201.0</ele><time>2026-04-12T10:01:27.03Z</time></trkpt><trkpt lat="43.6788433" lon="12.647095"><ele>200.0</ele><time>2026-04-12T10:01:28.03Z</time></trkpt><trkpt lat="43.67897" lon="12.647135"><ele>199.0</ele><time>2026-04-12T10:01:29.034Z</time></trkpt><trkpt lat="43.6790983" lon="12.6471967"><ele>198.0</ele><time>2026-04-12T10:01:30.031Z</time></trkpt><trkpt lat="43.6792333" lon="12.6472733"><ele>198.0</ele><time>2026-04-12T10:01:31.03Z</time></trkpt><trkpt lat="43.67938" lon="12.6473567"><ele>198.0</ele><time>2026-04-12T10:01:32.035Z</time></trkpt><trkpt lat="43.6795517" lon="12.6474283"><ele>198.0</ele><time>2026-04-12T10:01:33.029Z</time></trkpt><trkpt lat="43.67975" lon="12.6474733"><ele>196.0</ele><time>2026-04-12T10:01:34.032Z</time></trkpt><trkpt lat="43.679955" lon="12.647485"><ele>194.0</ele><time>2026-04-12T10:01:35.027Z</time></trkpt><trkpt lat="43.6801433" lon="12.647465"><ele>192.0</ele><time>2026-04-12T10:01:36.031Z</time></trkpt><trkpt lat="43.6803033" lon="12.6474383"><ele>192.0</ele><time>2026-04-12T10:01:37.037Z</time></trkpt><trkpt lat="43.6804417" lon="12.6474183"><ele>192.0</ele><time>2026-04-12T10:01:38.029Z</time></trkpt><trkpt lat="43.6805633" lon="12.647405"><ele>192.0</ele><time>2026-04-12T10:01:39.031Z</time></trkpt><trkpt lat="43.6806817" lon="12.6474133"><ele>192.0</ele><time>2026-04-12T10:01:40.031Z</time></trkpt><trkpt lat="43.6807917" lon="12.6474383"><ele>192.0</ele><time>2026-04-12T10:01:41.032Z</time></trkpt><trkpt lat="43.680895" lon="12.6474767"><ele>192.0</ele><time>2026-04-12T10:01:42.03Z</time></trkpt><trkpt lat="43.6809917" lon="12.6475267"><ele>192.0</ele><time>2026-04-12T10:01:43.028Z</time></trkpt><trkpt lat="43.6810833" lon="12.6475767"><ele>192.0</ele><time>2026-04-12T10:01:44.03Z</time></trkpt><trkpt lat="43.6811733" lon="12.6476317"><ele>192.0</ele><time>2026-04-12T10:01:45.026Z</time></trkpt><trkpt lat="43.681265" lon="12.6476983"><ele>192.75</ele><time>2026-04-12T10:01:46.027Z</time></trkpt><trkpt lat="43.6813617" lon="12.64778"><ele>193.5</ele><time>2026-04-12T10:01:47.029Z</time></trkpt><trkpt lat="43.6814517" lon="12.647865"><ele>194.25</ele><time>2026-04-12T10:01:48.024Z</time></trkpt><trkpt lat="43.6815417" lon="12.6479517"><ele>195.0</ele><time>2026-04-12T10:01:49.031Z</time></trkpt><trkpt lat="43.6816483" lon="12.648045"><ele>193.66666666666666</ele><time>2026-04-12T10:01:50.026Z</time></trkpt><trkpt lat="43.6817817" lon="12.64815"><ele>192.33333333333331</ele><time>2026-04-12T10:01:51.03Z</time></trkpt><trkpt lat="43.681935" lon="12.6482733"><ele>191.0</ele><time>2026-04-12T10:01:52.027Z</time></trkpt><trkpt lat="43.6820867" lon="12.648405"><ele>191.0</ele><time>2026-04-12T10:01:53.028Z</time></trkpt><trkpt lat="43.682225" lon="12.6485283"><ele>191.0</ele><time>2026-04-12T10:01:54.028Z</time></trkpt><trkpt lat="43.6823467" lon="12.6486383"><ele>191.0</ele><time>2026-04-12T10:01:55.03Z</time></trkpt><trkpt lat="43.68246" lon="12.6487367"><ele>191.0</ele><time>2026-04-12T10:01:56.035Z</time></trkpt><trkpt lat="43.6825717" lon="12.6488283"><ele>190.25</ele><time>2026-04-12T10:01:57.031Z</time></trkpt><trkpt lat="43.682685" lon="12.6489183"><ele>189.5</ele><time>2026-04-12T10:01:58.032Z</time></trkpt><trkpt lat="43.6828017" lon="12.6489967"><ele>188.75</ele><time>2026-04-12T10:01:59.026Z</time></trkpt><trkpt lat="43.682925" lon="12.6490617"><ele>188.0</ele><time>2026-04-12T10:02:00.027Z</time></trkpt><trkpt lat="43.6830517" lon="12.64911"><ele>188.0</ele><time>2026-04-12T10:02:01.03Z</time></trkpt><trkpt lat="43.6831817" lon="12.6491467"><ele>188.0</ele><time>2026-04-12T10:02:02.027Z</time></trkpt><trkpt lat="43.683315" lon="12.6491783"><ele>188.0</ele><time>2026-04-12T10:02:03.031Z</time></trkpt><trkpt lat="43.6834517" lon="12.6492017"><ele>188.0</ele><time>2026-04-12T10:02:04.03Z</time></trkpt><trkpt lat="43.683595" lon="12.6492183"><ele>187.75</ele><time>2026-04-12T10:02:05.03Z</time></trkpt><trkpt lat="43.68374" lon="12.6492333"><ele>187.5</ele><time>2026-04-12T10:02:06.037Z</time></trkpt><trkpt lat="43.6838867" lon="12.6492517"><ele>187.25</ele><time>2026-04-12T10:02:07.027Z</time></trkpt><trkpt lat="43.684035" lon="12.64927"><ele>187.0</ele><time>2026-04-12T10:02:08.035Z</time></trkpt><trkpt lat="43.684185" lon="12.64929"><ele>187.0</ele><time>2026-04-12T10:02:09.031Z</time></trkpt><trkpt lat="43.684335" lon="12.6493117"><ele>187.0</ele><time>2026-04-12T10:02:10.029Z</time></trkpt><trkpt lat="43.68449" lon="12.6493317"><ele>187.0</ele><time>2026-04-12T10:02:11.033Z</time></trkpt><trkpt lat="43.68465" lon="12.6493533"><ele>186.0</ele><time>2026-04-12T10:02:12.028Z</time></trkpt><trkpt lat="43.6848133" lon="12.6493783"><ele>185.0</ele><time>2026-04-12T10:02:13.028Z</time></trkpt><trkpt lat="43.6849833" lon="12.6494017"><ele>184.0</ele><time>2026-04-12T10:02:14.027Z</time></trkpt><trkpt lat="43.685155" lon="12.6494267"><ele>183.0</ele><time>2026-04-12T10:02:15.029Z</time></trkpt><trkpt lat="43.6853267" lon="12.64945"><ele>182.0</ele><time>2026-04-12T10:02:16.028Z</time></trkpt><trkpt lat="43.6854917" lon="12.649475"><ele>181.0</ele><time>2026-04-12T10:02:17.028Z</time></trkpt><trkpt lat="43.6856533" lon="12.6494983"><ele>179.66666666666669</ele><time>2026-04-12T10:02:18.033Z</time></trkpt><trkpt lat="43.6858167" lon="12.6495233"><ele>178.33333333333334</ele><time>2026-04-12T10:02:19.027Z</time></trkpt><trkpt lat="43.6859817" lon="12.6495467"><ele>177.0</ele><time>2026-04-12T10:02:20.028Z</time></trkpt><trkpt lat="43.6861483" lon="12.6495733"><ele>177.0</ele><time>2026-04-12T10:02:21.027Z</time></trkpt><trkpt lat="43.68632" lon="12.6495983"><ele>177.0</ele><time>2026-04-12T10:02:22.032Z</time></trkpt><trkpt lat="43.6864967" lon="12.6496217"><ele>177.0</ele><time>2026-04-12T10:02:23.029Z</time></trkpt><trkpt lat="43.68668" lon="12.6496467"><ele>177.0</ele><time>2026-04-12T10:02:24.029Z</time></trkpt><trkpt lat="43.6868717" lon="12.649675"><ele>177.0</ele><time>2026-04-12T10:02:25.032Z</time></trkpt><trkpt lat="43.68707" lon="12.649705"><ele>177.0</ele><time>2026-04-12T10:02:26.027Z</time></trkpt><trkpt lat="43.6872767" lon="12.6497383"><ele>177.33333333333334</ele><time>2026-04-12T10:02:27.029Z</time></trkpt><trkpt lat="43.687495" lon="12.6497667"><ele>177.66666666666669</ele><time>2026-04-12T10:02:28.031Z</time></trkpt><trkpt lat="43.6877117" lon="12.649795"><ele>178.0</ele><time>2026-04-12T10:02:29.028Z</time></trkpt><trkpt lat="43.6879183" lon="12.6498233"><ele>178.66666666666669</ele><time>2026-04-12T10:02:30.031Z</time></trkpt><trkpt lat="43.68812" lon="12.6498517"><ele>179.33333333333334</ele><time>2026-04-12T10:02:31.027Z</time></trkpt><trkpt lat="43.6883183" lon="12.6498767"><ele>180.0</ele><time>2026-04-12T10:02:32.029Z</time></trkpt><trkpt lat="43.6885117" lon="12.6499017"><ele>181.66666666666666</ele><time>2026-04-12T10:02:33.033Z</time></trkpt><trkpt lat="43.6886967" lon="12.64993"><ele>183.33333333333331</ele><time>2026-04-12T10:02:34.031Z</time></trkpt><trkpt lat="43.6888783" lon="12.6499667"><ele>185.0</ele><time>2026-04-12T10:02:35.028Z</time></trkpt><trkpt lat="43.68906" lon="12.650015"><ele>185.0</ele><time>2026-04-12T10:02:36.029Z</time></trkpt><trkpt lat="43.6892417" lon="12.65008"><ele>185.0</ele><time>2026-04-12T10:02:37.027Z</time></trkpt><trkpt lat="43.6894183" lon="12.650175"><ele>185.0</ele><time>2026-04-12T10:02:38.031Z</time></trkpt><trkpt lat="43.6895833" lon="12.6502967"><ele>185.33333333333331</ele><time>2026-04-12T10:02:39.032Z</time></trkpt><trkpt lat="43.6897383" lon="12.65044"><ele>185.66666666666666</ele><time>2026-04-12T10:02:40.031Z</time></trkpt><trkpt lat="43.689885" lon="12.650605"><ele>186.0</ele><time>2026-04-12T10:02:41.031Z</time></trkpt><trkpt lat="43.6900167" lon="12.6507917"><ele>186.0</ele><time>2026-04-12T10:02:42.029Z</time></trkpt><trkpt lat="43.69013" lon="12.650995"><ele>186.0</ele><time>2026-04-12T10:02:43.035Z</time></trkpt><trkpt lat="43.6902167" lon="12.651205"><ele>186.0</ele><time>2026-04-12T10:02:44.034Z</time></trkpt><trkpt lat="43.69028" lon="12.6514217"><ele>186.66666666666666</ele><time>2026-04-12T10:02:45.032Z</time></trkpt><trkpt lat="43.6903267" lon="12.6516483"><ele>187.33333333333331</ele><time>2026-04-12T10:02:46.032Z</time></trkpt><trkpt lat="43.6903617" lon="12.6518767"><ele>188.0</ele><time>2026-04-12T10:02:47.028Z</time></trkpt><trkpt lat="43.6903917" lon="12.652105"><ele>188.0</ele><time>2026-04-12T10:02:48.034Z</time></trkpt><trkpt lat="43.6904183" lon="12.6523267"><ele>188.0</ele><time>2026-04-12T10:02:49.028Z</time></trkpt><trkpt lat="43.6904467" lon="12.6525433"><ele>188.0</ele><time>2026-04-12T10:02:50.039Z</time></trkpt><trkpt lat="43.6904767" lon="12.6527483"><ele>187.0</ele><time>2026-04-12T10:02:51.031Z</time></trkpt><trkpt lat="43.6905183" lon="12.65295"><ele>186.0</ele><time>2026-04-12T10:02:52.031Z</time></trkpt><trkpt lat="43.6905733" lon="12.6531533"><ele>185.0</ele><time>2026-04-12T10:02:53.03Z</time></trkpt><trkpt lat="43.6906383" lon="12.6533667"><ele>185.0</ele><time>2026-04-12T10:02:54.029Z</time></trkpt><trkpt lat="43.69071" lon="12.65358"><ele>185.0</ele><time>2026-04-12T10:02:55.029Z</time></trkpt><trkpt lat="43.69079" lon="12.6537867"><ele>185.0</ele><time>2026-04-12T10:02:56.03Z</time></trkpt><trkpt lat="43.69088" lon="12.6539783"><ele>185.0</ele><time>2026-04-12T10:02:57.024Z</time></trkpt><trkpt lat="43.6909733" lon="12.65416"><ele>185.0</ele><time>2026-04-12T10:02:58.035Z</time></trkpt><trkpt lat="43.6910733" lon="12.654335"><ele>185.0</ele><time>2026-04-12T10:02:59.024Z</time></trkpt><trkpt lat="43.6911817" lon="12.654505"><ele>185.0</ele><time>2026-04-12T10:03:00.029Z</time></trkpt><trkpt lat="43.6912933" lon="12.6546733"><ele>185.0</ele><time>2026-04-12T10:03:01.028Z</time></trkpt><trkpt lat="43.6914033" lon="12.6548383"><ele>185.0</ele><time>2026-04-12T10:03:02.031Z</time></trkpt><trkpt lat="43.6915083" lon="12.6550017"><ele>185.0</ele><time>2026-04-12T10:03:03.029Z</time></trkpt><trkpt lat="43.6916133" lon="12.6551633"><ele>185.0</ele><time>2026-04-12T10:03:04.03Z</time></trkpt><trkpt lat="43.691725" lon="12.6553267"><ele>185.0</ele><time>2026-04-12T10:03:05.029Z</time></trkpt><trkpt lat="43.6918417" lon="12.6555"><ele>185.33333333333331</ele><time>2026-04-12T10:03:06.039Z</time></trkpt><trkpt lat="43.69196" lon="12.6556833"><ele>185.66666666666666</ele><time>2026-04-12T10:03:07.034Z</time></trkpt><trkpt lat="43.69208" lon="12.6558683"><ele>186.0</ele><time>2026-04-12T10:03:08.029Z</time></trkpt><trkpt lat="43.6921983" lon="12.6560567"><ele>184.66666666666666</ele><time>2026-04-12T10:03:09.029Z</time></trkpt><trkpt lat="43.6923217" lon="12.6562433"><ele>183.33333333333331</ele><time>2026-04-12T10:03:10.028Z</time></trkpt><trkpt lat="43.6924567" lon="12.65644"><ele>182.0</ele><time>2026-04-12T10:03:11.025Z</time></trkpt><trkpt lat="43.6926" lon="12.6566517"><ele>182.0</ele><time>2026-04-12T10:03:12.025Z</time></trkpt><trkpt lat="43.6927467" lon="12.6568767"><ele>182.0</ele><time>2026-04-12T10:03:13.031Z</time></trkpt><trkpt lat="43.6928867" lon="12.6570983"><ele>182.0</ele><time>2026-04-12T10:03:14.032Z</time></trkpt><trkpt lat="43.6930117" lon="12.6573083"><ele>182.33333333333331</ele><time>2026-04-12T10:03:15.029Z</time></trkpt><trkpt lat="43.6931233" lon="12.657515"><ele>182.66666666666666</ele><time>2026-04-12T10:03:16.035Z</time></trkpt><trkpt lat="43.6932133" lon="12.657725"><ele>183.0</ele><time>2026-04-12T10:03:17.027Z</time></trkpt><trkpt lat="43.6932933" lon="12.6579367"><ele>183.0</ele><time>2026-04-12T10:03:18.028Z</time></trkpt><trkpt lat="43.69337" lon="12.65815"><ele>183.0</ele><time>2026-04-12T10:03:19.029Z</time></trkpt><trkpt lat="43.69345" lon="12.6583717"><ele>183.0</ele><time>2026-04-12T10:03:20.031Z</time></trkpt><trkpt lat="43.6935283" lon="12.6586017"><ele>184.66666666666666</ele><time>2026-04-12T10:03:21.034Z</time></trkpt><trkpt lat="43.6936117" lon="12.6588383"><ele>186.33333333333331</ele><time>2026-04-12T10:03:22.028Z</time></trkpt><trkpt lat="43.6936933" lon="12.65907"><ele>188.0</ele><time>2026-04-12T10:03:23.026Z</time></trkpt><trkpt lat="43.693775" lon="12.65929"><ele>187.66666666666666</ele><time>2026-04-12T10:03:24.025Z</time></trkpt><trkpt lat="43.6938583" lon="12.6595067"><ele>187.33333333333334</ele><time>2026-04-12T10:03:25.03Z</time></trkpt><trkpt lat="43.6939533" lon="12.6597217"><ele>187.0</ele><time>2026-04-12T10:03:26.034Z</time></trkpt><trkpt lat="43.6940617" lon="12.6599383"><ele>187.0</ele><time>2026-04-12T10:03:27.031Z</time></trkpt><trkpt lat="43.69418" lon="12.66016"><ele>187.0</ele><time>2026-04-12T10:03:28.03Z</time></trkpt><trkpt lat="43.69431" lon="12.6603933"><ele>187.0</ele><time>2026-04-12T10:03:29.031Z</time></trkpt><trkpt lat="43.6944433" lon="12.6606283"><ele>186.33333333333334</ele><time>2026-04-12T10:03:30.028Z</time></trkpt><trkpt lat="43.6945633" lon="12.6608383"><ele>185.66666666666666</ele><time>2026-04-12T10:03:31.03Z</time></trkpt><trkpt lat="43.69467" lon="12.6610233"><ele>185.0</ele><time>2026-04-12T10:03:32.029Z</time></trkpt><trkpt lat="43.6947667" lon="12.6611983"><ele>184.0</ele><time>2026-04-12T10:03:33.028Z</time></trkpt><trkpt lat="43.6948617" lon="12.6613683"><ele>183.0</ele><time>2026-04-12T10:03:34.028Z</time></trkpt><trkpt lat="43.6949567" lon="12.66154"><ele>182.0</ele><time>2026-04-12T10:03:35.03Z</time></trkpt><trkpt lat="43.69505" lon="12.6617067"><ele>182.0</ele><time>2026-04-12T10:03:36.03Z</time></trkpt><trkpt lat="43.69514" lon="12.6618633"><ele>182.0</ele><time>2026-04-12T10:03:37.029Z</time></trkpt><trkpt lat="43.695225" lon="12.6620117"><ele>182.0</ele><time>2026-04-12T10:03:38.03Z</time></trkpt><trkpt lat="43.6953067" lon="12.6621533"><ele>182.0</ele><time>2026-04-12T10:03:39.029Z</time></trkpt><trkpt lat="43.695385" lon="12.6622917"><ele>182.75</ele><time>2026-04-12T10:03:40.028Z</time></trkpt><trkpt lat="43.69546" lon="12.6624233"><ele>183.5</ele><time>2026-04-12T10:03:41.029Z</time></trkpt><trkpt lat="43.695535" lon="12.6625517"><ele>184.25</ele><time>2026-04-12T10:03:42.028Z</time></trkpt><trkpt lat="43.6956183" lon="12.662675"><ele>185.0</ele><time>2026-04-12T10:03:43.03Z</time></trkpt><trkpt lat="43.69571" lon="12.66279"><ele>185.0</ele><time>2026-04-12T10:03:44.028Z</time></trkpt><trkpt lat="43.69582" lon="12.662885"><ele>185.0</ele><time>2026-04-12T10:03:45.03Z</time></trkpt><trkpt lat="43.6959333" lon="12.6629533"><ele>185.0</ele><time>2026-04-12T10:03:46.024Z</time></trkpt><trkpt lat="43.6960383" lon="12.663"><ele>185.0</ele><time>2026-04-12T10:03:47.03Z</time></trkpt><trkpt lat="43.6961433" lon="12.66302"><ele>185.25</ele><time>2026-04-12T10:03:48.025Z</time></trkpt><trkpt lat="43.696255" lon="12.6630217"><ele>185.5</ele><time>2026-04-12T10:03:49.027Z</time></trkpt><trkpt lat="43.6963717" lon="12.6630083"><ele>185.75</ele><time>2026-04-12T10:03:50.028Z</time></trkpt><trkpt lat="43.696495" lon="12.6629783"><ele>186.0</ele><time>2026-04-12T10:03:51.027Z</time></trkpt><trkpt lat="43.69662" lon="12.66293"><ele>186.0</ele><time>2026-04-12T10:03:52.033Z</time></trkpt><trkpt lat="43.69674" lon="12.6628667"><ele>186.0</ele><time>2026-04-12T10:03:53.03Z</time></trkpt><trkpt lat="43.6968583" lon="12.6628"><ele>186.0</ele><time>2026-04-12T10:03:54.03Z</time></trkpt><trkpt lat="43.6969767" lon="12.662735"><ele>186.0</ele><time>2026-04-12T10:03:55.029Z</time></trkpt><trkpt lat="43.6970917" lon="12.66267"><ele>186.5</ele><time>2026-04-12T10:03:56.031Z</time></trkpt><trkpt lat="43.6972033" lon="12.662605"><ele>187.0</ele><time>2026-04-12T10:03:57.029Z</time></trkpt><trkpt lat="43.697315" lon="12.6625367"><ele>187.5</ele><time>2026-04-12T10:03:58.027Z</time></trkpt><trkpt lat="43.6974333" lon="12.66246"><ele>188.0</ele><time>2026-04-12T10:03:59.03Z</time></trkpt><trkpt lat="43.6975533" lon="12.6623867"><ele>188.0</ele><time>2026-04-12T10:04:00.032Z</time></trkpt><trkpt lat="43.6976767" lon="12.6623167"><ele>188.0</ele><time>2026-04-12T10:04:01.033Z</time></trkpt><trkpt lat="43.6978" lon="12.6622483"><ele>188.0</ele><time>2026-04-12T10:04:02.031Z</time></trkpt><trkpt lat="43.697925" lon="12.66218"><ele>188.0</ele><time>2026-04-12T10:04:03.032Z</time></trkpt><trkpt lat="43.6980533" lon="12.662105"><ele>188.25</ele><time>2026-04-12T10:04:04.031Z</time></trkpt><trkpt lat="43.6981833" lon="12.6620267"><ele>188.5</ele><time>2026-04-12T10:04:05.03Z</time></trkpt><trkpt lat="43.6983083" lon="12.66195"><ele>188.75</ele><time>2026-04-12T10:04:06.028Z</time></trkpt><trkpt lat="43.6984233" lon="12.6618883"><ele>189.0</ele><time>2026-04-12T10:04:07.03Z</time></trkpt><trkpt lat="43.6985333" lon="12.66183"><ele>189.79999999999998</ele><time>2026-04-12T10:04:08.029Z</time></trkpt><trkpt lat="43.698635" lon="12.6617683"><ele>190.6</ele><time>2026-04-12T10:04:09.029Z</time></trkpt><trkpt lat="43.6987367" lon="12.6617033"><ele>191.4</ele><time>2026-04-12T10:04:10.033Z</time></trkpt><trkpt lat="43.6988367" lon="12.661645"><ele>192.2</ele><time>2026-04-12T10:04:11.025Z</time></trkpt><trkpt lat="43.698935" lon="12.66159"><ele>193.0</ele><time>2026-04-12T10:04:12.028Z</time></trkpt><trkpt lat="43.6990233" lon="12.6615467"><ele>192.99999999999997</ele><time>2026-04-12T10:04:13.025Z</time></trkpt><trkpt lat="43.699105" lon="12.66152"><ele>193.0</ele><time>2026-04-12T10:04:14.032Z</time></trkpt><trkpt lat="43.6991867" lon="12.6615133"><ele>193.0</ele><time>2026-04-12T10:04:15.029Z</time></trkpt><trkpt lat="43.6992567" lon="12.6615217"><ele>193.0</ele><time>2026-04-12T10:04:16.029Z</time></trkpt><trkpt lat="43.6993233" lon="12.6615517"><ele>192.99999999999997</ele><time>2026-04-12T10:04:17.031Z</time></trkpt><trkpt lat="43.6993867" lon="12.661605"><ele>193.0</ele><time>2026-04-12T10:04:18.029Z</time></trkpt><trkpt lat="43.6994433" lon="12.6616833"><ele>193.83333333333331</ele><time>2026-04-12T10:04:19.029Z</time></trkpt><trkpt lat="43.699485" lon="12.6617833"><ele>194.66666666666666</ele><time>2026-04-12T10:04:20.03Z</time></trkpt><trkpt lat="43.6995117" lon="12.6618983"><ele>195.5</ele><time>2026-04-12T10:04:21.033Z</time></trkpt><trkpt lat="43.699525" lon="12.6620167"><ele>196.33333333333331</ele><time>2026-04-12T10:04:22.029Z</time></trkpt><trkpt lat="43.6995367" lon="12.6621367"><ele>197.16666666666666</ele><time>2026-04-12T10:04:23.029Z</time></trkpt><trkpt lat="43.6995517" lon="12.662255"><ele>198.0</ele><time>2026-04-12T10:04:24.03Z</time></trkpt><trkpt lat="43.6995667" lon="12.6623683"><ele>198.0</ele><time>2026-04-12T10:04:25.028Z</time></trkpt><trkpt lat="43.6995867" lon="12.6624733"><ele>198.0</ele><time>2026-04-12T10:04:26.032Z</time></trkpt><trkpt lat="43.69961" lon="12.6625717"><ele>198.0</ele><time>2026-04-12T10:04:27.032Z</time></trkpt><trkpt lat="43.6996367" lon="12.6626583"><ele>198.0</ele><time>2026-04-12T10:04:28.031Z</time></trkpt><trkpt lat="43.6996633" lon="12.6627467"><ele>198.0</ele><time>2026-04-12T10:04:29.033Z</time></trkpt><trkpt lat="43.69969" lon="12.662845"><ele>198.0</ele><time>2026-04-12T10:04:30.024Z</time></trkpt><trkpt lat="43.6997133" lon="12.6629617"><ele>196.4</ele><time>2026-04-12T10:04:31.028Z</time></trkpt><trkpt lat="43.6997117" lon="12.663105"><ele>194.8</ele><time>2026-04-12T10:04:32.027Z</time></trkpt><trkpt lat="43.6997" lon="12.6632517"><ele>193.2</ele><time>2026-04-12T10:04:33.031Z</time></trkpt><trkpt lat="43.6997067" lon="12.6633817"><ele>191.6</ele><time>2026-04-12T10:04:34.031Z</time></trkpt><trkpt lat="43.6997383" lon="12.66349"><ele>190.0</ele><time>2026-04-12T10:04:35.026Z</time></trkpt><trkpt lat="43.6997883" lon="12.6635817"><ele>190.0</ele><time>2026-04-12T10:04:36.027Z</time></trkpt><trkpt lat="43.6998817" lon="12.6636083"><ele>190.0</ele><time>2026-04-12T10:04:37.026Z</time></trkpt><trkpt lat="43.6999717" lon="12.6635633"><ele>190.0</ele><time>2026-04-12T10:04:38.031Z</time></trkpt><trkpt lat="43.7000467" lon="12.663475"><ele>190.0</ele><time>2026-04-12T10:04:39.029Z</time></trkpt><trkpt lat="43.7001117" lon="12.66338"><ele>190.0</ele><time>2026-04-12T10:04:40.031Z</time></trkpt><trkpt lat="43.700175" lon="12.6632967"><ele>190.0</ele><time>2026-04-12T10:04:41.031Z</time></trkpt><trkpt lat="43.7002467" lon="12.6632267"><ele>190.0</ele><time>2026-04-12T10:04:42.025Z</time></trkpt><trkpt lat="43.7003267" lon="12.6631733"><ele>190.0</ele><time>2026-04-12T10:04:43.03Z</time></trkpt><trkpt lat="43.7004117" lon="12.66315"><ele>190.0</ele><time>2026-04-12T10:04:44.029Z</time></trkpt><trkpt lat="43.7005017" lon="12.6631583"><ele>190.0</ele><time>2026-04-12T10:04:45.034Z</time></trkpt><trkpt lat="43.70059" lon="12.6631917"><ele>190.0</ele><time>2026-04-12T10:04:46.034Z</time></trkpt><trkpt lat="43.7006817" lon="12.663255"><ele>190.8</ele><time>2026-04-12T10:04:47.028Z</time></trkpt><trkpt lat="43.7007733" lon="12.6633317"><ele>191.6</ele><time>2026-04-12T10:04:48.028Z</time></trkpt><trkpt lat="43.7008683" lon="12.663415"><ele>192.39999999999998</ele><time>2026-04-12T10:04:49.03Z</time></trkpt><trkpt lat="43.700965" lon="12.6634983"><ele>193.2</ele><time>2026-04-12T10:04:50.031Z</time></trkpt><trkpt lat="43.70106" lon="12.6635783"><ele>194.0</ele><time>2026-04-12T10:04:51.03Z</time></trkpt><trkpt lat="43.7011617" lon="12.66365"><ele>194.0</ele><time>2026-04-12T10:04:52.033Z</time></trkpt><trkpt lat="43.7012733" lon="12.66372"><ele>194.0</ele><time>2026-04-12T10:04:53.029Z</time></trkpt><trkpt lat="43.7014" lon="12.6637733"><ele>194.0</ele><time>2026-04-12T10:04:54.027Z</time></trkpt><trkpt lat="43.701535" lon="12.6638067"><ele>194.0</ele><time>2026-04-12T10:04:55.03Z</time></trkpt><trkpt lat="43.7016683" lon="12.66383"><ele>194.0</ele><time>2026-04-12T10:04:56.03Z</time></trkpt><trkpt lat="43.7018" lon="12.6638467"><ele>194.0</ele><time>2026-04-12T10:04:57.029Z</time></trkpt><trkpt lat="43.7019267" lon="12.6638533"><ele>194.0</ele><time>2026-04-12T10:04:58.031Z</time></trkpt><trkpt lat="43.7020517" lon="12.66384"><ele>194.0</ele><time>2026-04-12T10:04:59.024Z</time></trkpt><trkpt lat="43.7021733" lon="12.6638033"><ele>194.0</ele><time>2026-04-12T10:05:00.025Z</time></trkpt><trkpt lat="43.7022933" lon="12.663735"><ele>194.0</ele><time>2026-04-12T10:05:01.031Z</time></trkpt><trkpt lat="43.702405" lon="12.663645"><ele>194.0</ele><time>2026-04-12T10:05:02.027Z</time></trkpt><trkpt lat="43.7025083" lon="12.6635517"><ele>194.0</ele><time>2026-04-12T10:05:03.03Z</time></trkpt><trkpt lat="43.7026083" lon="12.66345"><ele>194.0</ele><time>2026-04-12T10:05:04.03Z</time></trkpt><trkpt lat="43.7027083" lon="12.6633483"><ele>194.0</ele><time>2026-04-12T10:05:05.027Z</time></trkpt><trkpt lat="43.7028117" lon="12.6632467"><ele>194.0</ele><time>2026-04-12T10:05:06.026Z</time></trkpt><trkpt lat="43.7029133" lon="12.6631383"><ele>194.0</ele><time>2026-04-12T10:05:07.032Z</time></trkpt><trkpt lat="43.7030167" lon="12.663035"><ele>195.5</ele><time>2026-04-12T10:05:08.027Z</time></trkpt><trkpt lat="43.703125" lon="12.662935"><ele>197.0</ele><time>2026-04-12T10:05:09.025Z</time></trkpt><trkpt lat="43.7032367" lon="12.66284"><ele>198.5</ele><time>2026-04-12T10:05:10.03Z</time></trkpt><trkpt lat="43.7033467" lon="12.6627467"><ele>200.0</ele><time>2026-04-12T10:05:11.029Z</time></trkpt><trkpt lat="43.7034617" lon="12.662655"><ele>200.0</ele><time>2026-04-12T10:05:12.028Z</time></trkpt><trkpt lat="43.703575" lon="12.66256"><ele>200.0</ele><time>2026-04-12T10:05:13.031Z</time></trkpt><trkpt lat="43.7036883" lon="12.6624683"><ele>200.0</ele><time>2026-04-12T10:05:14.028Z</time></trkpt><trkpt lat="43.7037933" lon="12.6623633"><ele>200.0</ele><time>2026-04-12T10:05:15.027Z</time></trkpt><trkpt lat="43.7038933" lon="12.66224"><ele>203.0</ele><time>2026-04-12T10:05:16.032Z</time></trkpt><trkpt lat="43.7039833" lon="12.662095"><ele>206.0</ele><time>2026-04-12T10:05:17.024Z</time></trkpt><trkpt lat="43.7040617" lon="12.6619333"><ele>209.0</ele><time>2026-04-12T10:05:18.029Z</time></trkpt><trkpt lat="43.70412" lon="12.6617567"><ele>212.0</ele><time>2026-04-12T10:05:19.027Z</time></trkpt><trkpt lat="43.7041633" lon="12.6615717"><ele>212.0</ele><time>2026-04-12T10:05:20.033Z</time></trkpt><trkpt lat="43.7042017" lon="12.661385"><ele>212.0</ele><time>2026-04-12T10:05:21.026Z</time></trkpt><trkpt lat="43.7042417" lon="12.66119"><ele>212.0</ele><time>2026-04-12T10:05:22.031Z</time></trkpt><trkpt lat="43.7042833" lon="12.660995"><ele>212.0</ele><time>2026-04-12T10:05:23.029Z</time></trkpt><trkpt lat="43.7043317" lon="12.6608"><ele>211.0</ele><time>2026-04-12T10:05:24.028Z</time></trkpt><trkpt lat="43.7043917" lon="12.6606017"><ele>210.0</ele><time>2026-04-12T10:05:25.032Z</time></trkpt><trkpt lat="43.7044633" lon="12.6604033"><ele>209.0</ele><time>2026-04-12T10:05:26.032Z</time></trkpt><trkpt lat="43.70456" lon="12.66021"><ele>211.66666666666669</ele><time>2026-04-12T10:05:27.024Z</time></trkpt><trkpt lat="43.70467" lon="12.6600267"><ele>214.33333333333331</ele><time>2026-04-12T10:05:28.032Z</time></trkpt><trkpt lat="43.704785" lon="12.65985"><ele>217.0</ele><time>2026-04-12T10:05:29.028Z</time></trkpt><trkpt lat="43.7049067" lon="12.65968"><ele>217.0</ele><time>2026-04-12T10:05:30.03Z</time></trkpt><trkpt lat="43.705025" lon="12.6595133"><ele>217.0</ele><time>2026-04-12T10:05:31.031Z</time></trkpt><trkpt lat="43.7051367" lon="12.6593417"><ele>217.0</ele><time>2026-04-12T10:05:32.028Z</time></trkpt><trkpt lat="43.7052433" lon="12.6591667"><ele>219.0</ele><time>2026-04-12T10:05:33.024Z</time></trkpt><trkpt lat="43.705345" lon="12.658995"><ele>221.0</ele><time>2026-04-12T10:05:34.033Z</time></trkpt><trkpt lat="43.7054433" lon="12.65883"><ele>223.0</ele><time>2026-04-12T10:05:35.027Z</time></trkpt><trkpt lat="43.705545" lon="12.6586733"><ele>218.66666666666666</ele><time>2026-04-12T10:05:36.028Z</time></trkpt><trkpt lat="43.70565" lon="12.6585117"><ele>214.33333333333331</ele><time>2026-04-12T10:05:37.028Z</time></trkpt><trkpt lat="43.70576" lon="12.658355"><ele>210.0</ele><time>2026-04-12T10:05:38.024Z</time></trkpt><trkpt lat="43.705865" lon="12.6581933"><ele>210.0</ele><time>2026-04-12T10:05:39.031Z</time></trkpt><trkpt lat="43.7059667" lon="12.6580267"><ele>210.0</ele><time>2026-04-12T10:05:40.03Z</time></trkpt><trkpt lat="43.7060683" lon="12.6578433"><ele>210.0</ele><time>2026-04-12T10:05:41.031Z</time></trkpt><trkpt lat="43.7061633" lon="12.6576417"><ele>210.0</ele><time>2026-04-12T10:05:42.026Z</time></trkpt><trkpt lat="43.7062417" lon="12.6574067"><ele>210.0</ele><time>2026-04-12T10:05:43.03Z</time></trkpt><trkpt lat="43.706325" lon="12.6571517"><ele>210.0</ele><time>2026-04-12T10:05:44.028Z</time></trkpt><trkpt lat="43.7064383" lon="12.6569017"><ele>210.0</ele><time>2026-04-12T10:05:45.034Z</time></trkpt><trkpt lat="43.706555" lon="12.6566717"><ele>210.0</ele><time>2026-04-12T10:05:46.028Z</time></trkpt><trkpt lat="43.7066683" lon="12.65646"><ele>210.0</ele><time>2026-04-12T10:05:47.026Z</time></trkpt><trkpt lat="43.7067767" lon="12.6562633"><ele>209.0</ele><time>2026-04-12T10:05:48.032Z</time></trkpt><trkpt lat="43.706875" lon="12.6560683"><ele>208.0</ele><time>2026-04-12T10:05:49.028Z</time></trkpt><trkpt lat="43.70697" lon="12.655875"><ele>207.0</ele><time>2026-04-12T10:05:50.031Z</time></trkpt><trkpt lat="43.707065" lon="12.6556867"><ele>210.0</ele><time>2026-04-12T10:05:51.027Z</time></trkpt><trkpt lat="43.7071383" lon="12.6554783"><ele>213.0</ele><time>2026-04-12T10:05:52.029Z</time></trkpt><trkpt lat="43.7071683" lon="12.6552317"><ele>216.0</ele><time>2026-04-12T10:05:53.03Z</time></trkpt><trkpt lat="43.7071717" lon="12.65495"><ele>216.0</ele><time>2026-04-12T10:05:54.029Z</time></trkpt><trkpt lat="43.7071517" lon="12.6546567"><ele>216.0</ele><time>2026-04-12T10:05:55.034Z</time></trkpt><trkpt lat="43.7071317" lon="12.6543867"><ele>216.0</ele><time>2026-04-12T10:05:56.027Z</time></trkpt><trkpt lat="43.7071117" lon="12.6541367"><ele>219.0</ele><time>2026-04-12T10:05:57.024Z</time></trkpt><trkpt lat="43.7070967" lon="12.6538983"><ele>222.0</ele><time>2026-04-12T10:05:58.032Z</time></trkpt><trkpt lat="43.7070767" lon="12.6536617"><ele>225.0</ele><time>2026-04-12T10:05:59.029Z</time></trkpt><trkpt lat="43.7070517" lon="12.653425"><ele>227.33333333333331</ele><time>2026-04-12T10:06:00.024Z</time></trkpt><trkpt lat="43.707025" lon="12.6531933"><ele>229.66666666666666</ele><time>2026-04-12T10:06:01.027Z</time></trkpt><trkpt lat="43.706995" lon="12.6529617"><ele>232.0</ele><time>2026-04-12T10:06:02.029Z</time></trkpt><trkpt lat="43.7069633" lon="12.6527317"><ele>232.0</ele><time>2026-04-12T10:06:03.027Z</time></trkpt><trkpt lat="43.7069267" lon="12.652505"><ele>232.0</ele><time>2026-04-12T10:06:04.023Z</time></trkpt><trkpt lat="43.7068917" lon="12.652275"><ele>232.0</ele><time>2026-04-12T10:06:05.023Z</time></trkpt><trkpt lat="43.70686" lon="12.6520417"><ele>225.66666666666666</ele><time>2026-04-12T10:06:06.029Z</time></trkpt><trkpt lat="43.706825" lon="12.6518033"><ele>219.33333333333331</ele><time>2026-04-12T10:06:07.028Z</time></trkpt><trkpt lat="43.7067883" lon="12.6515633"><ele>213.0</ele><time>2026-04-12T10:06:08.03Z</time></trkpt><trkpt lat="43.7067517" lon="12.6513183"><ele>214.0</ele><time>2026-04-12T10:06:09.029Z</time></trkpt><trkpt lat="43.7067183" lon="12.6510733"><ele>215.0</ele><time>2026-04-12T10:06:10.029Z</time></trkpt><trkpt lat="43.706685" lon="12.6508383"><ele>216.0</ele><time>2026-04-12T10:06:11.028Z</time></trkpt><trkpt lat="43.7066533" lon="12.6506083"><ele>216.0</ele><time>2026-04-12T10:06:12.024Z</time></trkpt><trkpt lat="43.7066217" lon="12.6503683"><ele>216.0</ele><time>2026-04-12T10:06:13.027Z</time></trkpt><trkpt lat="43.7065883" lon="12.6501217"><ele>216.0</ele><time>2026-04-12T10:06:14.025Z</time></trkpt><trkpt lat="43.7065567" lon="12.64987"><ele>216.33333333333331</ele><time>2026-04-12T10:06:15.029Z</time></trkpt><trkpt lat="43.706525" lon="12.6496233"><ele>216.66666666666666</ele><time>2026-04-12T10:06:16.025Z</time></trkpt><trkpt lat="43.7064933" lon="12.64939"><ele>217.0</ele><time>2026-04-12T10:06:17.026Z</time></trkpt><trkpt lat="43.7064683" lon="12.649165"><ele>218.0</ele><time>2026-04-12T10:06:18.03Z</time></trkpt><trkpt lat="43.7064617" lon="12.6489367"><ele>219.0</ele><time>2026-04-12T10:06:19.033Z</time></trkpt><trkpt lat="43.706495" lon="12.6486983"><ele>220.0</ele><time>2026-04-12T10:06:20.027Z</time></trkpt><trkpt lat="43.706575" lon="12.6484583"><ele>220.0</ele><time>2026-04-12T10:06:21.036Z</time></trkpt><trkpt lat="43.706685" lon="12.6482167"><ele>220.0</ele><time>2026-04-12T10:06:22.027Z</time></trkpt><trkpt lat="43.7068067" lon="12.6479783"><ele>220.0</ele><time>2026-04-12T10:06:23.034Z</time></trkpt><trkpt lat="43.7069183" lon="12.6477533"><ele>222.0</ele><time>2026-04-12T10:06:24.024Z</time></trkpt><trkpt lat="43.7070233" lon="12.6475433"><ele>224.0</ele><time>2026-04-12T10:06:25.028Z</time></trkpt><trkpt lat="43.70712" lon="12.6473467"><ele>226.0</ele><time>2026-04-12T10:06:26.026Z</time></trkpt><trkpt lat="43.7072133" lon="12.647155"><ele>225.0</ele><time>2026-04-12T10:06:27.027Z</time></trkpt><trkpt lat="43.7073017" lon="12.6469517"><ele>224.0</ele><time>2026-04-12T10:06:28.03Z</time></trkpt><trkpt lat="43.7073783" lon="12.6467383"><ele>223.0</ele><time>2026-04-12T10:06:29.029Z</time></trkpt><trkpt lat="43.7074383" lon="12.6465067"><ele>223.0</ele><time>2026-04-12T10:06:30.033Z</time></trkpt><trkpt lat="43.7074817" lon="12.64626"><ele>223.0</ele><time>2026-04-12T10:06:31.03Z</time></trkpt><trkpt lat="43.70752" lon="12.646005"><ele>223.0</ele><time>2026-04-12T10:06:32.027Z</time></trkpt><trkpt lat="43.707555" lon="12.6457583"><ele>222.66666666666666</ele><time>2026-04-12T10:06:33.027Z</time></trkpt><trkpt lat="43.7075883" lon="12.6455183"><ele>222.33333333333331</ele><time>2026-04-12T10:06:34.028Z</time></trkpt><trkpt lat="43.7075967" lon="12.6452683"><ele>222.0</ele><time>2026-04-12T10:06:35.029Z</time></trkpt><trkpt lat="43.707565" lon="12.6450167"><ele>223.33333333333331</ele><time>2026-04-12T10:06:36.024Z</time></trkpt><trkpt lat="43.7075017" lon="12.6447767"><ele>224.66666666666666</ele><time>2026-04-12T10:06:37.023Z</time></trkpt><trkpt lat="43.7074383" lon="12.64453"><ele>226.0</ele><time>2026-04-12T10:06:38.027Z</time></trkpt><trkpt lat="43.7074017" lon="12.6442567"><ele>227.33333333333331</ele><time>2026-04-12T10:06:39.027Z</time></trkpt><trkpt lat="43.7074033" lon="12.6439517"><ele>228.66666666666669</ele><time>2026-04-12T10:06:40.03Z</time></trkpt><trkpt lat="43.707425" lon="12.643655"><ele>230.0</ele><time>2026-04-12T10:06:41.028Z</time></trkpt><trkpt lat="43.7074533" lon="12.6433833"><ele>232.0</ele><time>2026-04-12T10:06:42.028Z</time></trkpt><trkpt lat="43.70748" lon="12.6431267"><ele>234.0</ele><time>2026-04-12T10:06:43.028Z</time></trkpt><trkpt lat="43.7075067" lon="12.642875"><ele>236.0</ele><time>2026-04-12T10:06:44.029Z</time></trkpt><trkpt lat="43.7075333" lon="12.6426267"><ele>236.0</ele><time>2026-04-12T10:06:45.027Z</time></trkpt><trkpt lat="43.70756" lon="12.6423817"><ele>236.0</ele><time>2026-04-12T10:06:46.027Z</time></trkpt><trkpt lat="43.7075783" lon="12.6421383"><ele>236.0</ele><time>2026-04-12T10:06:47.033Z</time></trkpt><trkpt lat="43.7076017" lon="12.6418917"><ele>236.66666666666669</ele><time>2026-04-12T10:06:48.027Z</time></trkpt><trkpt lat="43.70763" lon="12.6416517"><ele>237.33333333333331</ele><time>2026-04-12T10:06:49.025Z</time></trkpt><trkpt lat="43.7076517" lon="12.64141"><ele>238.0</ele><time>2026-04-12T10:06:50.03Z</time></trkpt><trkpt lat="43.70767" lon="12.64117"><ele>238.66666666666666</ele><time>2026-04-12T10:06:51.027Z</time></trkpt><trkpt lat="43.7076867" lon="12.6409267"><ele>239.33333333333331</ele><time>2026-04-12T10:06:52.028Z</time></trkpt><trkpt lat="43.7076917" lon="12.6406767"><ele>240.0</ele><time>2026-04-12T10:06:53.025Z</time></trkpt><trkpt lat="43.7076633" lon="12.64042"><ele>241.0</ele><time>2026-04-12T10:06:54.034Z</time></trkpt><trkpt lat="43.7076083" lon="12.6401683"><ele>242.0</ele><time>2026-04-12T10:06:55.027Z</time></trkpt><trkpt lat="43.7075867" lon="12.6399117"><ele>243.0</ele><time>2026-04-12T10:06:56.03Z</time></trkpt><trkpt lat="43.7075867" lon="12.6396617"><ele>243.0</ele><time>2026-04-12T10:06:57.03Z</time></trkpt><trkpt lat="43.7076267" lon="12.6394417"><ele>243.0</ele><time>2026-04-12T10:06:58.035Z</time></trkpt><trkpt lat="43.7077083" lon="12.6392583"><ele>243.0</ele><time>2026-04-12T10:06:59.031Z</time></trkpt><trkpt lat="43.7078267" lon="12.63912"><ele>249.66666666666669</ele><time>2026-04-12T10:07:00.028Z</time></trkpt><trkpt lat="43.70797" lon="12.6390167"><ele>256.33333333333337</ele><time>2026-04-12T10:07:01.03Z</time></trkpt><trkpt lat="43.708115" lon="12.6389167"><ele>263.0</ele><time>2026-04-12T10:07:02.029Z</time></trkpt><trkpt lat="43.7082767" lon="12.6388333"><ele>263.0</ele><time>2026-04-12T10:07:03.03Z</time></trkpt><trkpt lat="43.70846" lon="12.6387783"><ele>263.0</ele><time>2026-04-12T10:07:04.028Z</time></trkpt><trkpt lat="43.7086533" lon="12.6387483"><ele>263.0</ele><time>2026-04-12T10:07:05.024Z</time></trkpt><trkpt lat="43.7088433" lon="12.63872"><ele>268.6666666666667</ele><time>2026-04-12T10:07:06.025Z</time></trkpt><trkpt lat="43.70903" lon="12.6387217"><ele>274.3333333333333</ele><time>2026-04-12T10:07:07.03Z</time></trkpt><trkpt lat="43.7092133" lon="12.6387517"><ele>280.0</ele><time>2026-04-12T10:07:08.032Z</time></trkpt><trkpt lat="43.7093933" lon="12.6387783"><ele>278.66666666666663</ele><time>2026-04-12T10:07:09.029Z</time></trkpt><trkpt lat="43.7095717" lon="12.638815"><ele>277.3333333333333</ele><time>2026-04-12T10:07:10.031Z</time></trkpt><trkpt lat="43.7097383" lon="12.6389033"><ele>276.0</ele><time>2026-04-12T10:07:11.024Z</time></trkpt><trkpt lat="43.7098883" lon="12.6390133"><ele>276.0</ele><time>2026-04-12T10:07:12.03Z</time></trkpt><trkpt lat="43.7100433" lon="12.639095"><ele>276.0</ele><time>2026-04-12T10:07:13.026Z</time></trkpt><trkpt lat="43.7102183" lon="12.6391217"><ele>276.0</ele><time>2026-04-12T10:07:14.029Z</time></trkpt><trkpt lat="43.7104183" lon="12.6391"><ele>275.3333333333333</ele><time>2026-04-12T10:07:15.023Z</time></trkpt><trkpt lat="43.7106267" lon="12.6390733"><ele>274.66666666666663</ele><time>2026-04-12T10:07:16.028Z</time></trkpt><trkpt lat="43.710835" lon="12.6390467"><ele>274.0</ele><time>2026-04-12T10:07:17.028Z</time></trkpt><trkpt lat="43.71102" lon="12.6390183"><ele>276.0</ele><time>2026-04-12T10:07:18.031Z</time></trkpt><trkpt lat="43.7111883" lon="12.6389933"><ele>278.0</ele><time>2026-04-12T10:07:19.033Z</time></trkpt><trkpt lat="43.7113483" lon="12.638975"><ele>280.0</ele><time>2026-04-12T10:07:20.027Z</time></trkpt><trkpt lat="43.711515" lon="12.6389583"><ele>280.0</ele><time>2026-04-12T10:07:21.025Z</time></trkpt><trkpt lat="43.7116867" lon="12.63898"><ele>280.0</ele><time>2026-04-12T10:07:22.026Z</time></trkpt><trkpt lat="43.7118683" lon="12.63903"><ele>280.0</ele><time>2026-04-12T10:07:23.03Z</time></trkpt><trkpt lat="43.7120567" lon="12.6390933"><ele>280.3333333333333</ele><time>2026-04-12T10:07:24.032Z</time></trkpt><trkpt lat="43.7122417" lon="12.63915"><ele>280.6666666666667</ele><time>2026-04-12T10:07:25.031Z</time></trkpt><trkpt lat="43.7124167" lon="12.6391767"><ele>281.0</ele><time>2026-04-12T10:07:26.033Z</time></trkpt><trkpt lat="43.7125867" lon="12.6391733"><ele>278.0</ele><time>2026-04-12T10:07:27.029Z</time></trkpt><trkpt lat="43.7127467" lon="12.6391867"><ele>275.0</ele><time>2026-04-12T10:07:28.03Z</time></trkpt><trkpt lat="43.7129" lon="12.639255"><ele>272.0</ele><time>2026-04-12T10:07:29.032Z</time></trkpt><trkpt lat="43.7130433" lon="12.6394"><ele>279.0</ele><time>2026-04-12T10:07:30.031Z</time></trkpt><trkpt lat="43.7131567" lon="12.6395667"><ele>286.0</ele><time>2026-04-12T10:07:31.029Z</time></trkpt><trkpt lat="43.7132767" lon="12.6396983"><ele>293.0</ele><time>2026-04-12T10:07:32.035Z</time></trkpt><trkpt lat="43.7134" lon="12.63979"><ele>293.0</ele><time>2026-04-12T10:07:33.034Z</time></trkpt><trkpt lat="43.7135633" lon="12.6397917"><ele>293.0</ele><time>2026-04-12T10:07:34.027Z</time></trkpt><trkpt lat="43.7137233" lon="12.6397367"><ele>293.0</ele><time>2026-04-12T10:07:35.04Z</time></trkpt><trkpt lat="43.7138817" lon="12.63966"><ele>295.0</ele><time>2026-04-12T10:07:36.031Z</time></trkpt><trkpt lat="43.7140283" lon="12.63959"><ele>297.0</ele><time>2026-04-12T10:07:37.035Z</time></trkpt><trkpt lat="43.7141633" lon="12.639535"><ele>299.0</ele><time>2026-04-12T10:07:38.029Z</time></trkpt><trkpt lat="43.714285" lon="12.63951"><ele>301.0</ele><time>2026-04-12T10:07:39.029Z</time></trkpt><trkpt lat="43.7143967" lon="12.6395033"><ele>298.5</ele><time>2026-04-12T10:07:40.028Z</time></trkpt><trkpt lat="43.7145033" lon="12.639525"><ele>296.0</ele><time>2026-04-12T10:07:41.026Z</time></trkpt><trkpt lat="43.7146133" lon="12.6395733"><ele>293.5</ele><time>2026-04-12T10:07:42.031Z</time></trkpt><trkpt lat="43.7147183" lon="12.6396433"><ele>291.0</ele><time>2026-04-12T10:07:43.032Z</time></trkpt><trkpt lat="43.71482" lon="12.6397317"><ele>291.0</ele><time>2026-04-12T10:07:44.03Z</time></trkpt><trkpt lat="43.7149233" lon="12.6398317"><ele>291.0</ele><time>2026-04-12T10:07:45.03Z</time></trkpt><trkpt lat="43.7150167" lon="12.6399417"><ele>291.0</ele><time>2026-04-12T10:07:46.03Z</time></trkpt><trkpt lat="43.7151067" lon="12.64006"><ele>291.0</ele><time>2026-04-12T10:07:47.03Z</time></trkpt><trkpt lat="43.7151817" lon="12.6401933"><ele>292.8</ele><time>2026-04-12T10:07:48.031Z</time></trkpt><trkpt lat="43.7152433" lon="12.6403283"><ele>294.6</ele><time>2026-04-12T10:07:49.027Z</time></trkpt><trkpt lat="43.715305" lon="12.6404483"><ele>296.4</ele><time>2026-04-12T10:07:50.032Z</time></trkpt><trkpt lat="43.7153717" lon="12.6405367"><ele>298.2</ele><time>2026-04-12T10:07:51.029Z</time></trkpt><trkpt lat="43.71545" lon="12.6406117"><ele>300.0</ele><time>2026-04-12T10:07:52.031Z</time></trkpt><trkpt lat="43.71554" lon="12.6406867"><ele>300.0</ele><time>2026-04-12T10:07:53.028Z</time></trkpt><trkpt lat="43.7156483" lon="12.64075"><ele>300.0</ele><time>2026-04-12T10:07:54.026Z</time></trkpt><trkpt lat="43.7157783" lon="12.6407917"><ele>300.0</ele><time>2026-04-12T10:07:55.029Z</time></trkpt><trkpt lat="43.7159167" lon="12.6408233"><ele>300.0</ele><time>2026-04-12T10:07:56.025Z</time></trkpt><trkpt lat="43.7160467" lon="12.64087"><ele>300.6</ele><time>2026-04-12T10:07:57.03Z</time></trkpt><trkpt lat="43.7161567" lon="12.6409417"><ele>301.2</ele><time>2026-04-12T10:07:58.034Z</time></trkpt><trkpt lat="43.7162467" lon="12.6410483"><ele>301.8</ele><time>2026-04-12T10:07:59.028Z</time></trkpt><trkpt lat="43.7163167" lon="12.6411567"><ele>302.4</ele><time>2026-04-12T10:08:00.025Z</time></trkpt><trkpt lat="43.7163767" lon="12.641245"><ele>303.0</ele><time>2026-04-12T10:08:01.027Z</time></trkpt><trkpt lat="43.716425" lon="12.6413167"><ele>303.0</ele><time>2026-04-12T10:08:02.029Z</time></trkpt><trkpt lat="43.7164867" lon="12.64142"><ele>303.0</ele><time>2026-04-12T10:08:04.033Z</time></trkpt><trkpt lat="43.7164233" lon="12.641455"><ele>303.0</ele><time>2026-04-12T10:08:08.037Z</time></trkpt><trkpt lat="43.71636" lon="12.6413983"><ele>303.0</ele><time>2026-04-12T10:08:10.036Z</time></trkpt><trkpt lat="43.7163" lon="12.64135"><ele>303.0</ele><time>2026-04-12T10:08:12.033Z</time></trkpt><trkpt lat="43.7162217" lon="12.6412833"><ele>303.0</ele><time>2026-04-12T10:08:14.029Z</time></trkpt><trkpt lat="43.7161283" lon="12.6412183"><ele>302.4</ele><time>2026-04-12T10:08:16.038Z</time></trkpt><trkpt lat="43.7160317" lon="12.64116"><ele>301.8</ele><time>2026-04-12T10:08:18.031Z</time></trkpt><trkpt lat="43.7159083" lon="12.6411"><ele>301.2</ele><time>2026-04-12T10:08:20.032Z</time></trkpt><trkpt lat="43.715835" lon="12.64109"><ele>300.6</ele><time>2026-04-12T10:08:21.029Z</time></trkpt><trkpt lat="43.715755" lon="12.6410967"><ele>300.0</ele><time>2026-04-12T10:08:22.03Z</time></trkpt><trkpt lat="43.715675" lon="12.64112"><ele>306.0</ele><time>2026-04-12T10:08:23.03Z</time></trkpt><trkpt lat="43.71559" lon="12.6411583"><ele>312.0</ele><time>2026-04-12T10:08:24.034Z</time></trkpt><trkpt lat="43.715505" lon="12.641205"><ele>318.0</ele><time>2026-04-12T10:08:25.029Z</time></trkpt><trkpt lat="43.7154167" lon="12.6412567"><ele>324.0</ele><time>2026-04-12T10:08:26.029Z</time></trkpt><trkpt lat="43.7153283" lon="12.6413283"><ele>330.0</ele><time>2026-04-12T10:08:27.027Z</time></trkpt><trkpt lat="43.7152383" lon="12.641395"><ele>330.5</ele><time>2026-04-12T10:08:28.031Z</time></trkpt><trkpt lat="43.7151517" lon="12.6414617"><ele>331.0</ele><time>2026-04-12T10:08:29.028Z</time></trkpt><trkpt lat="43.715075" lon="12.641515"><ele>331.5</ele><time>2026-04-12T10:08:30.034Z</time></trkpt><trkpt lat="43.71501" lon="12.6415683"><ele>332.0</ele><time>2026-04-12T10:08:31.03Z</time></trkpt><trkpt lat="43.714955" lon="12.6416183"><ele>332.5</ele><time>2026-04-12T10:08:32.03Z</time></trkpt><trkpt lat="43.7149" lon="12.64171"><ele>333.0</ele><time>2026-04-12T10:08:34.027Z</time></trkpt><trkpt lat="43.7149783" lon="12.6417833"><ele>333.0</ele><time>2026-04-12T10:08:37.03Z</time></trkpt><trkpt lat="43.7151017" lon="12.641775"><ele>333.0</ele><time>2026-04-12T10:08:39.03Z</time></trkpt><trkpt lat="43.7151783" lon="12.6417933"><ele>333.0</ele><time>2026-04-12T10:08:40.032Z</time></trkpt><trkpt lat="43.7152733" lon="12.64181"><ele>333.0</ele><time>2026-04-12T10:08:41.026Z</time></trkpt><trkpt lat="43.7153733" lon="12.6418267"><ele>333.0</ele><time>2026-04-12T10:08:42.028Z</time></trkpt><trkpt lat="43.715465" lon="12.6418433"><ele>332.5</ele><time>2026-04-12T10:08:43.027Z</time></trkpt><trkpt lat="43.71554" lon="12.6418567"><ele>332.0</ele><time>2026-04-12T10:08:44.028Z</time></trkpt><trkpt lat="43.7156283" lon="12.6418967"><ele>331.5</ele><time>2026-04-12T10:08:46.029Z</time></trkpt><trkpt lat="43.7155467" lon="12.64196"><ele>331.0</ele><time>2026-04-12T10:08:49.029Z</time></trkpt><trkpt lat="43.7154683" lon="12.6419633"><ele>330.5</ele><time>2026-04-12T10:08:50.029Z</time></trkpt><trkpt lat="43.71537" lon="12.6419833"><ele>330.0</ele><time>2026-04-12T10:08:51.028Z</time></trkpt><trkpt lat="43.715265" lon="12.642035"><ele>336.5</ele><time>2026-04-12T10:08:52.026Z</time></trkpt><trkpt lat="43.7151433" lon="12.6421083"><ele>343.0</ele><time>2026-04-12T10:08:53.029Z</time></trkpt><trkpt lat="43.7150267" lon="12.6421883"><ele>349.5</ele><time>2026-04-12T10:08:54.026Z</time></trkpt><trkpt lat="43.7149117" lon="12.642265"><ele>356.0</ele><time>2026-04-12T10:08:55.029Z</time></trkpt><trkpt lat="43.7147933" lon="12.6423433"><ele>356.0</ele><time>2026-04-12T10:08:56.029Z</time></trkpt><trkpt lat="43.714665" lon="12.6423983"><ele>356.0</ele><time>2026-04-12T10:08:57.03Z</time></trkpt><trkpt lat="43.7145333" lon="12.6424083"><ele>356.0</ele><time>2026-04-12T10:08:58.029Z</time></trkpt><trkpt lat="43.7143917" lon="12.6423883"><ele>356.0</ele><time>2026-04-12T10:08:59.028Z</time></trkpt><trkpt lat="43.7142483" lon="12.6423317"><ele>357.0</ele><time>2026-04-12T10:09:00.026Z</time></trkpt><trkpt lat="43.7141133" lon="12.6422683"><ele>358.0</ele><time>2026-04-12T10:09:01.033Z</time></trkpt><trkpt lat="43.7140033" lon="12.6422067"><ele>359.0</ele><time>2026-04-12T10:09:02.028Z</time></trkpt><trkpt lat="43.713905" lon="12.642165"><ele>360.0</ele><time>2026-04-12T10:09:03.026Z</time></trkpt><trkpt lat="43.7138133" lon="12.6421483"><ele>360.0</ele><time>2026-04-12T10:09:04.038Z</time></trkpt><trkpt lat="43.7137217" lon="12.6421533"><ele>360.0</ele><time>2026-04-12T10:09:05.026Z</time></trkpt><trkpt lat="43.7136233" lon="12.642185"><ele>360.0</ele><time>2026-04-12T10:09:06.027Z</time></trkpt><trkpt lat="43.7135083" lon="12.6422483"><ele>360.0</ele><time>2026-04-12T10:09:07.028Z</time></trkpt><trkpt lat="43.7133917" lon="12.6423267"><ele>360.0</ele><time>2026-04-12T10:09:08.028Z</time></trkpt><trkpt lat="43.7132783" lon="12.642395"><ele>358.8</ele><time>2026-04-12T10:09:09.029Z</time></trkpt><trkpt lat="43.7131717" lon="12.642435"><ele>357.6</ele><time>2026-04-12T10:09:10.029Z</time></trkpt><trkpt lat="43.7130633" lon="12.6424367"><ele>356.4</ele><time>2026-04-12T10:09:11.025Z</time></trkpt><trkpt lat="43.7129533" lon="12.6424233"><ele>355.2</ele><time>2026-04-12T10:09:12.027Z</time></trkpt><trkpt lat="43.7128367" lon="12.6424067"><ele>354.0</ele><time>2026-04-12T10:09:13.03Z</time></trkpt><trkpt lat="43.712725" lon="12.6423883"><ele>354.0</ele><time>2026-04-12T10:09:14.032Z</time></trkpt><trkpt lat="43.7126217" lon="12.6423717"><ele>354.0</ele><time>2026-04-12T10:09:15.03Z</time></trkpt><trkpt lat="43.71253" lon="12.642365"><ele>354.0</ele><time>2026-04-12T10:09:16.028Z</time></trkpt><trkpt lat="43.7124483" lon="12.6423667"><ele>354.0</ele><time>2026-04-12T10:09:17.032Z</time></trkpt><trkpt lat="43.7123817" lon="12.6423783"><ele>354.0</ele><time>2026-04-12T10:09:18.024Z</time></trkpt><trkpt lat="43.71228" lon="12.64239"><ele>354.0</ele><time>2026-04-12T10:09:20.028Z</time></trkpt><trkpt lat="43.712185" lon="12.642405"><ele>354.0</ele><time>2026-04-12T10:09:22.03Z</time></trkpt><trkpt lat="43.7120533" lon="12.6424267"><ele>354.0</ele><time>2026-04-12T10:09:24.026Z</time></trkpt><trkpt lat="43.7119533" lon="12.6424383"><ele>354.0</ele><time>2026-04-12T10:09:25.027Z</time></trkpt><trkpt lat="43.7118467" lon="12.6424383"><ele>354.0</ele><time>2026-04-12T10:09:26.028Z</time></trkpt><trkpt lat="43.7117417" lon="12.6424167"><ele>354.0</ele><time>2026-04-12T10:09:27.026Z</time></trkpt><trkpt lat="43.711645" lon="12.6423633"><ele>355.2</ele><time>2026-04-12T10:09:28.029Z</time></trkpt><trkpt lat="43.7115683" lon="12.642315"><ele>356.4</ele><time>2026-04-12T10:09:29.031Z</time></trkpt><trkpt lat="43.711505" lon="12.6422917"><ele>357.6</ele><time>2026-04-12T10:09:30.025Z</time></trkpt><trkpt lat="43.711415" lon="12.642325"><ele>358.8</ele><time>2026-04-12T10:09:32.032Z</time></trkpt><trkpt lat="43.7113733" lon="12.6424083"><ele>360.0</ele><time>2026-04-12T10:09:34.029Z</time></trkpt><trkpt lat="43.7115017" lon="12.6425133"><ele>360.0</ele><time>2026-04-12T10:09:36.028Z</time></trkpt><trkpt lat="43.7116" lon="12.6425717"><ele>360.0</ele><time>2026-04-12T10:09:37.028Z</time></trkpt><trkpt lat="43.7117183" lon="12.64264"><ele>360.0</ele><time>2026-04-12T10:09:38.027Z</time></trkpt><trkpt lat="43.7118683" lon="12.6427117"><ele>360.0</ele><time>2026-04-12T10:09:39.025Z</time></trkpt><trkpt lat="43.7120133" lon="12.642785"><ele>362.75</ele><time>2026-04-12T10:09:40.029Z</time></trkpt><trkpt lat="43.7121483" lon="12.64285"><ele>365.5</ele><time>2026-04-12T10:09:41.029Z</time></trkpt><trkpt lat="43.7122733" lon="12.6429183"><ele>368.25</ele><time>2026-04-12T10:09:42.026Z</time></trkpt><trkpt lat="43.7124017" lon="12.6430033"><ele>371.0</ele><time>2026-04-12T10:09:43.031Z</time></trkpt><trkpt lat="43.7125433" lon="12.6431083"><ele>371.0</ele><time>2026-04-12T10:09:44.029Z</time></trkpt><trkpt lat="43.7126817" lon="12.6432167"><ele>371.0</ele><time>2026-04-12T10:09:45.03Z</time></trkpt><trkpt lat="43.7128083" lon="12.6433067"><ele>371.0</ele><time>2026-04-12T10:09:46.034Z</time></trkpt><trkpt lat="43.7129367" lon="12.643385"><ele>371.0</ele><time>2026-04-12T10:09:47.032Z</time></trkpt><trkpt lat="43.7130667" lon="12.6434683"><ele>371.8</ele><time>2026-04-12T10:09:48.027Z</time></trkpt><trkpt lat="43.71318" lon="12.6435583"><ele>372.6</ele><time>2026-04-12T10:09:49.033Z</time></trkpt><trkpt lat="43.7132767" lon="12.6436483"><ele>373.4</ele><time>2026-04-12T10:09:50.026Z</time></trkpt><trkpt lat="43.7133633" lon="12.64372"><ele>374.2</ele><time>2026-04-12T10:09:51.03Z</time></trkpt><trkpt lat="43.7134433" lon="12.64376"><ele>375.0</ele><time>2026-04-12T10:09:52.033Z</time></trkpt><trkpt lat="43.7135267" lon="12.6437767"><ele>381.75</ele><time>2026-04-12T10:09:53.026Z</time></trkpt><trkpt lat="43.713625" lon="12.6437617"><ele>388.5</ele><time>2026-04-12T10:09:54.028Z</time></trkpt><trkpt lat="43.7137467" lon="12.6437433"><ele>395.25</ele><time>2026-04-12T10:09:55.03Z</time></trkpt><trkpt lat="43.713885" lon="12.6437183"><ele>402.0</ele><time>2026-04-12T10:09:56.031Z</time></trkpt><trkpt lat="43.7140167" lon="12.643695"><ele>402.0</ele><time>2026-04-12T10:09:57.026Z</time></trkpt><trkpt lat="43.7141433" lon="12.6436717"><ele>402.0</ele><time>2026-04-12T10:09:58.032Z</time></trkpt><trkpt lat="43.71427" lon="12.6436833"><ele>402.0</ele><time>2026-04-12T10:09:59.036Z</time></trkpt><trkpt lat="43.7143867" lon="12.6437"><ele>402.0</ele><time>2026-04-12T10:10:00.025Z</time></trkpt><trkpt lat="43.7144833" lon="12.64373"><ele>398.6</ele><time>2026-04-12T10:10:01.029Z</time></trkpt><trkpt lat="43.7145567" lon="12.643765"><ele>395.20000000000005</ele><time>2026-04-12T10:10:02.029Z</time></trkpt><trkpt lat="43.7146117" lon="12.6438167"><ele>391.8</ele><time>2026-04-12T10:10:03.031Z</time></trkpt><trkpt lat="43.7146467" lon="12.6439817"><ele>388.4</ele><time>2026-04-12T10:10:05.031Z</time></trkpt><trkpt lat="43.7146383" lon="12.6441067"><ele>385.0</ele><time>2026-04-12T10:10:06.028Z</time></trkpt><trkpt lat="43.7146183" lon="12.6442533"><ele>385.0</ele><time>2026-04-12T10:10:07.028Z</time></trkpt><trkpt lat="43.71461" lon="12.6443967"><ele>385.0</ele><time>2026-04-12T10:10:08.031Z</time></trkpt><trkpt lat="43.714605" lon="12.6445383"><ele>385.0</ele><time>2026-04-12T10:10:09.027Z</time></trkpt><trkpt lat="43.7146133" lon="12.6446833"><ele>385.0</ele><time>2026-04-12T10:10:10.03Z</time></trkpt><trkpt lat="43.71464" lon="12.6448383"><ele>385.0</ele><time>2026-04-12T10:10:11.028Z</time></trkpt><trkpt lat="43.7146667" lon="12.644995"><ele>385.0</ele><time>2026-04-12T10:10:12.033Z</time></trkpt><trkpt lat="43.7147167" lon="12.6451417"><ele>385.0</ele><time>2026-04-12T10:10:13.029Z</time></trkpt><trkpt lat="43.7147733" lon="12.645275"><ele>385.0</ele><time>2026-04-12T10:10:14.027Z</time></trkpt><trkpt lat="43.7148483" lon="12.6453883"><ele>385.0</ele><time>2026-04-12T10:10:15.028Z</time></trkpt><trkpt lat="43.7149517" lon="12.6454817"><ele>383.33333333333337</ele><time>2026-04-12T10:10:16.033Z</time></trkpt><trkpt lat="43.7150867" lon="12.6455633"><ele>381.6666666666667</ele><time>2026-04-12T10:10:17.031Z</time></trkpt><trkpt lat="43.715225" lon="12.6456433"><ele>380.0</ele><time>2026-04-12T10:10:18.025Z</time></trkpt><trkpt lat="43.715365" lon="12.6457267"><ele>382.2</ele><time>2026-04-12T10:10:19.027Z</time></trkpt><trkpt lat="43.7154883" lon="12.645805"><ele>384.4</ele><time>2026-04-12T10:10:20.027Z</time></trkpt><trkpt lat="43.7155883" lon="12.64587"><ele>386.6</ele><time>2026-04-12T10:10:21.024Z</time></trkpt><trkpt lat="43.7156733" lon="12.6459033"><ele>388.8</ele><time>2026-04-12T10:10:22.029Z</time></trkpt><trkpt lat="43.7157683" lon="12.6459133"><ele>391.0</ele><time>2026-04-12T10:10:23.026Z</time></trkpt><trkpt lat="43.7158717" lon="12.6458683"><ele>391.0</ele><time>2026-04-12T10:10:24.026Z</time></trkpt><trkpt lat="43.715975" lon="12.6458183"><ele>391.0</ele><time>2026-04-12T10:10:25.031Z</time></trkpt><trkpt lat="43.7160967" lon="12.6457733"><ele>391.0</ele><time>2026-04-12T10:10:26.028Z</time></trkpt><trkpt lat="43.716205" lon="12.6457467"><ele>391.0</ele><time>2026-04-12T10:10:27.029Z</time></trkpt><trkpt lat="43.7163" lon="12.6457567"><ele>391.0</ele><time>2026-04-12T10:10:28.029Z</time></trkpt><trkpt lat="43.71639" lon="12.645795"><ele>392.5</ele><time>2026-04-12T10:10:29.026Z</time></trkpt><trkpt lat="43.7164717" lon="12.6459083"><ele>394.0</ele><time>2026-04-12T10:10:30.027Z</time></trkpt><trkpt lat="43.7165533" lon="12.64607"><ele>395.5</ele><time>2026-04-12T10:10:31.029Z</time></trkpt><trkpt lat="43.7166533" lon="12.646215"><ele>397.0</ele><time>2026-04-12T10:10:32.029Z</time></trkpt><trkpt lat="43.71677" lon="12.6463117"><ele>400.0</ele><time>2026-04-12T10:10:33.027Z</time></trkpt><trkpt lat="43.71691" lon="12.64636"><ele>403.0</ele><time>2026-04-12T10:10:34.031Z</time></trkpt><trkpt lat="43.71706" lon="12.6463617"><ele>406.0</ele><time>2026-04-12T10:10:35.027Z</time></trkpt><trkpt lat="43.7172" lon="12.6463533"><ele>409.0</ele><time>2026-04-12T10:10:36.03Z</time></trkpt><trkpt lat="43.7173267" lon="12.6463617"><ele>409.0</ele><time>2026-04-12T10:10:37.027Z</time></trkpt><trkpt lat="43.717455" lon="12.6464067"><ele>409.0</ele><time>2026-04-12T10:10:38.027Z</time></trkpt><trkpt lat="43.7175917" lon="12.64647"><ele>409.0</ele><time>2026-04-12T10:10:39.029Z</time></trkpt><trkpt lat="43.7177417" lon="12.6465483"><ele>409.0</ele><time>2026-04-12T10:10:40.025Z</time></trkpt><trkpt lat="43.71789" lon="12.6466283"><ele>408.0</ele><time>2026-04-12T10:10:41.028Z</time></trkpt><trkpt lat="43.7180233" lon="12.6467017"><ele>407.0</ele><time>2026-04-12T10:10:42.028Z</time></trkpt><trkpt lat="43.7181433" lon="12.646775"><ele>406.0</ele><time>2026-04-12T10:10:43.032Z</time></trkpt><trkpt lat="43.71825" lon="12.64684"><ele>405.0</ele><time>2026-04-12T10:10:44.027Z</time></trkpt><trkpt lat="43.7183533" lon="12.6469"><ele>405.0</ele><time>2026-04-12T10:10:45.027Z</time></trkpt><trkpt lat="43.7184617" lon="12.6469467"><ele>405.0</ele><time>2026-04-12T10:10:46.028Z</time></trkpt><trkpt lat="43.71859" lon="12.6469633"><ele>405.0</ele><time>2026-04-12T10:10:47.028Z</time></trkpt><trkpt lat="43.7187333" lon="12.6469467"><ele>405.0</ele><time>2026-04-12T10:10:48.031Z</time></trkpt><trkpt lat="43.7188733" lon="12.6468983"><ele>405.0</ele><time>2026-04-12T10:10:49.029Z</time></trkpt><trkpt lat="43.7189967" lon="12.6468217"><ele>405.0</ele><time>2026-04-12T10:10:50.027Z</time></trkpt><trkpt lat="43.7190983" lon="12.6467383"><ele>405.0</ele><time>2026-04-12T10:10:51.033Z</time></trkpt><trkpt lat="43.7191817" lon="12.6466567"><ele>405.0</ele><time>2026-04-12T10:10:52.029Z</time></trkpt><trkpt lat="43.7192583" lon="12.646605"><ele>405.0</ele><time>2026-04-12T10:10:53.03Z</time></trkpt><trkpt lat="43.7193383" lon="12.6465817"><ele>408.25</ele><time>2026-04-12T10:10:54.03Z</time></trkpt><trkpt lat="43.7194233" lon="12.6466383"><ele>411.5</ele><time>2026-04-12T10:10:55.036Z</time></trkpt><trkpt lat="43.719535" lon="12.6466967"><ele>414.75</ele><time>2026-04-12T10:10:56.028Z</time></trkpt><trkpt lat="43.71966" lon="12.6467467"><ele>418.0</ele><time>2026-04-12T10:10:57.029Z</time></trkpt><trkpt lat="43.7197833" lon="12.6467883"><ele>418.0</ele><time>2026-04-12T10:10:58.026Z</time></trkpt><trkpt lat="43.7199117" lon="12.646825"><ele>418.0</ele><time>2026-04-12T10:10:59.028Z</time></trkpt><trkpt lat="43.7200417" lon="12.6468633"><ele>418.0</ele><time>2026-04-12T10:11:00.029Z</time></trkpt><trkpt lat="43.72016" lon="12.6469317"><ele>418.0</ele><time>2026-04-12T10:11:01.027Z</time></trkpt><trkpt lat="43.7202533" lon="12.6470133"><ele>418.00000000000006</ele><time>2026-04-12T10:11:02.024Z</time></trkpt><trkpt lat="43.72032" lon="12.6470917"><ele>418.0</ele><time>2026-04-12T10:11:03.025Z</time></trkpt><trkpt lat="43.7203733" lon="12.6471467"><ele>418.0</ele><time>2026-04-12T10:11:04.028Z</time></trkpt><trkpt lat="43.7204767" lon="12.6472267"><ele>418.0</ele><time>2026-04-12T10:11:06.027Z</time></trkpt><trkpt lat="43.7205367" lon="12.64726"><ele>418.00000000000006</ele><time>2026-04-12T10:11:07.031Z</time></trkpt><trkpt lat="43.7206033" lon="12.6473067"><ele>418.0</ele><time>2026-04-12T10:11:08.03Z</time></trkpt><trkpt lat="43.720685" lon="12.647355"><ele>418.0</ele><time>2026-04-12T10:11:09.031Z</time></trkpt><trkpt lat="43.7208" lon="12.6474"><ele>418.0</ele><time>2026-04-12T10:11:10.028Z</time></trkpt><trkpt lat="43.7209133" lon="12.6474683"><ele>418.0</ele><time>2026-04-12T10:11:11.027Z</time></trkpt><trkpt lat="43.721025" lon="12.64754"><ele>418.0</ele><time>2026-04-12T10:11:12.028Z</time></trkpt><trkpt lat="43.7211333" lon="12.64761"><ele>416.4</ele><time>2026-04-12T10:11:13.031Z</time></trkpt><trkpt lat="43.7212433" lon="12.6476667"><ele>414.79999999999995</ele><time>2026-04-12T10:11:14.029Z</time></trkpt><trkpt lat="43.7213467" lon="12.647705"><ele>413.2</ele><time>2026-04-12T10:11:15.029Z</time></trkpt><trkpt lat="43.7214417" lon="12.6477267"><ele>411.6</ele><time>2026-04-12T10:11:16.029Z</time></trkpt><trkpt lat="43.7215233" lon="12.647745"><ele>410.0</ele><time>2026-04-12T10:11:17.027Z</time></trkpt><trkpt lat="43.7215967" lon="12.6477883"><ele>410.3333333333333</ele><time>2026-04-12T10:11:18.027Z</time></trkpt><trkpt lat="43.7216533" lon="12.6478583"><ele>410.66666666666663</ele><time>2026-04-12T10:11:19.029Z</time></trkpt><trkpt lat="43.721725" lon="12.6479467"><ele>411.0</ele><time>2026-04-12T10:11:20.028Z</time></trkpt><trkpt lat="43.7218" lon="12.64803"><ele>411.33333333333337</ele><time>2026-04-12T10:11:21.03Z</time></trkpt><trkpt lat="43.7218783" lon="12.648095"><ele>411.6666666666667</ele><time>2026-04-12T10:11:22.03Z</time></trkpt><trkpt lat="43.72195" lon="12.6481367"><ele>412.0</ele><time>2026-04-12T10:11:23.03Z</time></trkpt><trkpt lat="43.7220317" lon="12.64815"><ele>413.40000000000003</ele><time>2026-04-12T10:11:24.028Z</time></trkpt><trkpt lat="43.722125" lon="12.6481567"><ele>414.8</ele><time>2026-04-12T10:11:25.029Z</time></trkpt><trkpt lat="43.7222283" lon="12.64816"><ele>416.2</ele><time>2026-04-12T10:11:26.024Z</time></trkpt><trkpt lat="43.7223367" lon="12.6481717"><ele>417.6</ele><time>2026-04-12T10:11:27.028Z</time></trkpt><trkpt lat="43.7224717" lon="12.6481933"><ele>419.0</ele><time>2026-04-12T10:11:28.028Z</time></trkpt><trkpt lat="43.7226183" lon="12.6482267"><ele>417.3333333333333</ele><time>2026-04-12T10:11:29.031Z</time></trkpt><trkpt lat="43.7227733" lon="12.6482833"><ele>415.66666666666663</ele><time>2026-04-12T10:11:30.028Z</time></trkpt><trkpt lat="43.7229317" lon="12.6483583"><ele>414.0</ele><time>2026-04-12T10:11:31.029Z</time></trkpt><trkpt lat="43.7230767" lon="12.6484333"><ele>414.0</ele><time>2026-04-12T10:11:32.026Z</time></trkpt><trkpt lat="43.723205" lon="12.6484983"><ele>414.0</ele><time>2026-04-12T10:11:33.03Z</time></trkpt><trkpt lat="43.7233217" lon="12.6485533"><ele>414.0</ele><time>2026-04-12T10:11:34.028Z</time></trkpt><trkpt lat="43.7234217" lon="12.6485983"><ele>414.0</ele><time>2026-04-12T10:11:35.029Z</time></trkpt><trkpt lat="43.7235067" lon="12.648635"><ele>415.6666666666667</ele><time>2026-04-12T10:11:36.026Z</time></trkpt><trkpt lat="43.723575" lon="12.6486633"><ele>417.33333333333337</ele><time>2026-04-12T10:11:37.028Z</time></trkpt><trkpt lat="43.723645" lon="12.648695"><ele>419.0</ele><time>2026-04-12T10:11:39.028Z</time></trkpt><trkpt lat="43.7235633" lon="12.648745"><ele>420.6666666666667</ele><time>2026-04-12T10:11:43.027Z</time></trkpt><trkpt lat="43.72345" lon="12.6486933"><ele>422.33333333333337</ele><time>2026-04-12T10:11:45.03Z</time></trkpt><trkpt lat="43.7233867" lon="12.648675"><ele>424.0</ele><time>2026-04-12T10:11:46.025Z</time></trkpt><trkpt lat="43.7233083" lon="12.6486717"><ele>424.0</ele><time>2026-04-12T10:11:48.025Z</time></trkpt><trkpt lat="43.7234133" lon="12.6487467"><ele>424.0</ele><time>2026-04-12T10:11:52.033Z</time></trkpt><trkpt lat="43.7234767" lon="12.648785"><ele>424.0</ele><time>2026-04-12T10:11:53.027Z</time></trkpt><trkpt lat="43.72355" lon="12.6488467"><ele>424.0</ele><time>2026-04-12T10:11:54.028Z</time></trkpt><trkpt lat="43.7236333" lon="12.6489433"><ele>424.0</ele><time>2026-04-12T10:11:55.033Z</time></trkpt><trkpt lat="43.7237317" lon="12.6490833"><ele>424.0</ele><time>2026-04-12T10:11:56.031Z</time></trkpt><trkpt lat="43.723825" lon="12.6492183"><ele>424.0</ele><time>2026-04-12T10:11:57.03Z</time></trkpt><trkpt lat="43.7239083" lon="12.6493467"><ele>424.0</ele><time>2026-04-12T10:11:58.026Z</time></trkpt><trkpt lat="43.7240033" lon="12.649445"><ele>424.0</ele><time>2026-04-12T10:11:59.029Z</time></trkpt><trkpt lat="43.7241183" lon="12.649515"><ele>425.0</ele><time>2026-04-12T10:12:00.028Z</time></trkpt><trkpt lat="43.72424" lon="12.64956"><ele>426.0</ele><time>2026-04-12T10:12:01.034Z</time></trkpt><trkpt lat="43.724365" lon="12.6495917"><ele>427.0</ele><time>2026-04-12T10:12:02.032Z</time></trkpt><trkpt lat="43.724485" lon="12.649625"><ele>428.0</ele><time>2026-04-12T10:12:03.028Z</time></trkpt><trkpt lat="43.7246033" lon="12.6496617"><ele>428.0</ele><time>2026-04-12T10:12:04.032Z</time></trkpt><trkpt lat="43.7247133" lon="12.6497033"><ele>427.99999999999994</ele><time>2026-04-12T10:12:05.031Z</time></trkpt><trkpt lat="43.72482" lon="12.6497467"><ele>427.99999999999994</ele><time>2026-04-12T10:12:06.034Z</time></trkpt><trkpt lat="43.7249217" lon="12.6497933"><ele>428.0</ele><time>2026-04-12T10:12:07.03Z</time></trkpt><trkpt lat="43.725005" lon="12.6498767"><ele>428.0</ele><time>2026-04-12T10:12:08.03Z</time></trkpt><trkpt lat="43.7250767" lon="12.649985"><ele>428.0</ele><time>2026-04-12T10:12:09.031Z</time></trkpt><trkpt lat="43.725125" lon="12.650135"><ele>428.0</ele><time>2026-04-12T10:12:10.029Z</time></trkpt><trkpt lat="43.7251467" lon="12.6503117"><ele>428.0</ele><time>2026-04-12T10:12:11.026Z</time></trkpt><trkpt lat="43.7251667" lon="12.650505"><ele>428.0</ele><time>2026-04-12T10:12:12.027Z</time></trkpt><trkpt lat="43.7251917" lon="12.6506983"><ele>428.25</ele><time>2026-04-12T10:12:13.029Z</time></trkpt><trkpt lat="43.7252233" lon="12.6508867"><ele>428.5</ele><time>2026-04-12T10:12:14.031Z</time></trkpt><trkpt lat="43.7252533" lon="12.6510567"><ele>428.75</ele><time>2026-04-12T10:12:15.035Z</time></trkpt><trkpt lat="43.7252883" lon="12.6512167"><ele>429.0</ele><time>2026-04-12T10:12:16.033Z</time></trkpt><trkpt lat="43.7253233" lon="12.651375"><ele>432.25</ele><time>2026-04-12T10:12:17.027Z</time></trkpt><trkpt lat="43.7253567" lon="12.6515383"><ele>435.5</ele><time>2026-04-12T10:12:18.029Z</time></trkpt><trkpt lat="43.7254017" lon="12.6517"><ele>438.75</ele><time>2026-04-12T10:12:19.026Z</time></trkpt><trkpt lat="43.7254617" lon="12.65186"><ele>442.0</ele><time>2026-04-12T10:12:20.03Z</time></trkpt><trkpt lat="43.7255167" lon="12.6520233"><ele>442.5</ele><time>2026-04-12T10:12:21.029Z</time></trkpt><trkpt lat="43.7255733" lon="12.6521867"><ele>443.0</ele><time>2026-04-12T10:12:22.029Z</time></trkpt><trkpt lat="43.72563" lon="12.6523533"><ele>443.5</ele><time>2026-04-12T10:12:23.029Z</time></trkpt><trkpt lat="43.7256917" lon="12.6525233"><ele>444.0</ele><time>2026-04-12T10:12:24.026Z</time></trkpt><trkpt lat="43.72575" lon="12.6526867"><ele>442.79999999999995</ele><time>2026-04-12T10:12:25.026Z</time></trkpt><trkpt lat="43.7257983" lon="12.652835"><ele>441.59999999999997</ele><time>2026-04-12T10:12:26.03Z</time></trkpt><trkpt lat="43.725845" lon="12.6529633"><ele>440.4</ele><time>2026-04-12T10:12:27.027Z</time></trkpt><trkpt lat="43.7258883" lon="12.65307"><ele>439.2</ele><time>2026-04-12T10:12:28.034Z</time></trkpt><trkpt lat="43.7259333" lon="12.653175"><ele>438.0</ele><time>2026-04-12T10:12:29.026Z</time></trkpt><trkpt lat="43.725995" lon="12.6533067"><ele>441.0</ele><time>2026-04-12T10:12:30.028Z</time></trkpt><trkpt lat="43.726065" lon="12.6534633"><ele>444.0</ele><time>2026-04-12T10:12:31.03Z</time></trkpt><trkpt lat="43.7261217" lon="12.653615"><ele>447.0</ele><time>2026-04-12T10:12:32.024Z</time></trkpt><trkpt lat="43.72617" lon="12.6537583"><ele>450.0</ele><time>2026-04-12T10:12:33.029Z</time></trkpt><trkpt lat="43.7262283" lon="12.6538933"><ele>450.0</ele><time>2026-04-12T10:12:34.03Z</time></trkpt><trkpt lat="43.726295" lon="12.6540183"><ele>450.0</ele><time>2026-04-12T10:12:35.03Z</time></trkpt><trkpt lat="43.72636" lon="12.6541367"><ele>450.0</ele><time>2026-04-12T10:12:36.026Z</time></trkpt><trkpt lat="43.7264133" lon="12.6542517"><ele>450.0</ele><time>2026-04-12T10:12:37.033Z</time></trkpt><trkpt lat="43.7264567" lon="12.65436"><ele>450.0</ele><time>2026-04-12T10:12:38.029Z</time></trkpt><trkpt lat="43.7264983" lon="12.654475"><ele>449.2</ele><time>2026-04-12T10:12:39.026Z</time></trkpt><trkpt lat="43.726535" lon="12.6545883"><ele>448.4</ele><time>2026-04-12T10:12:40.028Z</time></trkpt><trkpt lat="43.726555" lon="12.65473"><ele>447.6</ele><time>2026-04-12T10:12:41.026Z</time></trkpt><trkpt lat="43.72655" lon="12.6548867"><ele>446.8</ele><time>2026-04-12T10:12:42.029Z</time></trkpt><trkpt lat="43.7265267" lon="12.65504"><ele>446.0</ele><time>2026-04-12T10:12:43.031Z</time></trkpt><trkpt lat="43.726505" lon="12.6551867"><ele>446.0</ele><time>2026-04-12T10:12:44.029Z</time></trkpt><trkpt lat="43.7264783" lon="12.65533"><ele>446.0</ele><time>2026-04-12T10:12:45.027Z</time></trkpt><trkpt lat="43.7264433" lon="12.655475"><ele>446.0</ele><time>2026-04-12T10:12:46.027Z</time></trkpt><trkpt lat="43.72639" lon="12.6556117"><ele>446.0</ele><time>2026-04-12T10:12:47.033Z</time></trkpt><trkpt lat="43.726335" lon="12.655735"><ele>446.0</ele><time>2026-04-12T10:12:48.074Z</time></trkpt><trkpt lat="43.7262917" lon="12.655855"><ele>446.0</ele><time>2026-04-12T10:12:49.03Z</time></trkpt><trkpt lat="43.72626" lon="12.6559733"><ele>446.0</ele><time>2026-04-12T10:12:50.032Z</time></trkpt><trkpt lat="43.7262133" lon="12.65609"><ele>446.0</ele><time>2026-04-12T10:12:51.033Z</time></trkpt><trkpt lat="43.7261383" lon="12.6561967"><ele>446.0</ele><time>2026-04-12T10:12:52.032Z</time></trkpt><trkpt lat="43.7260417" lon="12.65633"><ele>446.0</ele><time>2026-04-12T10:12:53.03Z</time></trkpt><trkpt lat="43.725935" lon="12.6564917"><ele>442.0</ele><time>2026-04-12T10:12:54.026Z</time></trkpt><trkpt lat="43.7258233" lon="12.65666"><ele>438.0</ele><time>2026-04-12T10:12:55.029Z</time></trkpt><trkpt lat="43.7257167" lon="12.6568233"><ele>434.0</ele><time>2026-04-12T10:12:56.027Z</time></trkpt><trkpt lat="43.7256133" lon="12.6569817"><ele>434.0</ele><time>2026-04-12T10:12:57.03Z</time></trkpt><trkpt lat="43.7255083" lon="12.6571317"><ele>434.0</ele><time>2026-04-12T10:12:58.025Z</time></trkpt><trkpt lat="43.7254017" lon="12.657265"><ele>434.0</ele><time>2026-04-12T10:12:59.029Z</time></trkpt><trkpt lat="43.7253017" lon="12.6573917"><ele>434.0</ele><time>2026-04-12T10:13:00.029Z</time></trkpt><trkpt lat="43.725215" lon="12.6575167"><ele>430.2</ele><time>2026-04-12T10:13:01.029Z</time></trkpt><trkpt lat="43.725145" lon="12.6576433"><ele>426.4</ele><time>2026-04-12T10:13:02.033Z</time></trkpt><trkpt lat="43.72508" lon="12.6577633"><ele>422.6</ele><time>2026-04-12T10:13:03.025Z</time></trkpt><trkpt lat="43.7250367" lon="12.6578917"><ele>418.8</ele><time>2026-04-12T10:13:04.029Z</time></trkpt><trkpt lat="43.72501" lon="12.65802"><ele>415.0</ele><time>2026-04-12T10:13:05.032Z</time></trkpt><trkpt lat="43.7249983" lon="12.6581483"><ele>415.0</ele><time>2026-04-12T10:13:06.03Z</time></trkpt><trkpt lat="43.7249817" lon="12.6582667"><ele>415.0</ele><time>2026-04-12T10:13:07.025Z</time></trkpt><trkpt lat="43.7249433" lon="12.6583867"><ele>415.0</ele><time>2026-04-12T10:13:08.029Z</time></trkpt><trkpt lat="43.7248783" lon="12.6584933"><ele>415.0</ele><time>2026-04-12T10:13:09.034Z</time></trkpt><trkpt lat="43.7248133" lon="12.6585883"><ele>415.0</ele><time>2026-04-12T10:13:10.034Z</time></trkpt><trkpt lat="43.7247567" lon="12.6586867"><ele>418.5</ele><time>2026-04-12T10:13:11.028Z</time></trkpt><trkpt lat="43.7247083" lon="12.6587967"><ele>422.0</ele><time>2026-04-12T10:13:12.029Z</time></trkpt><trkpt lat="43.72466" lon="12.6589267"><ele>425.5</ele><time>2026-04-12T10:13:13.025Z</time></trkpt><trkpt lat="43.7245917" lon="12.659075"><ele>429.0</ele><time>2026-04-12T10:13:14.029Z</time></trkpt><trkpt lat="43.7244917" lon="12.6592417"><ele>426.33333333333337</ele><time>2026-04-12T10:13:15.03Z</time></trkpt><trkpt lat="43.7243767" lon="12.6594183"><ele>423.6666666666667</ele><time>2026-04-12T10:13:16.03Z</time></trkpt><trkpt lat="43.7242633" lon="12.6596017"><ele>421.0</ele><time>2026-04-12T10:13:17.027Z</time></trkpt><trkpt lat="43.7241717" lon="12.6597583"><ele>421.0</ele><time>2026-04-12T10:13:18.025Z</time></trkpt><trkpt lat="43.7240883" lon="12.6598983"><ele>421.0</ele><time>2026-04-12T10:13:19.027Z</time></trkpt><trkpt lat="43.7240033" lon="12.66004"><ele>421.0</ele><time>2026-04-12T10:13:20.028Z</time></trkpt><trkpt lat="43.7239233" lon="12.66021"><ele>421.0</ele><time>2026-04-12T10:13:21.027Z</time></trkpt><trkpt lat="43.72385" lon="12.6603883"><ele>425.25</ele><time>2026-04-12T10:13:22.033Z</time></trkpt><trkpt lat="43.72378" lon="12.66056"><ele>429.5</ele><time>2026-04-12T10:13:23.029Z</time></trkpt><trkpt lat="43.7237167" lon="12.660725"><ele>433.75</ele><time>2026-04-12T10:13:24.031Z</time></trkpt><trkpt lat="43.7236617" lon="12.66087"><ele>438.0</ele><time>2026-04-12T10:13:25.029Z</time></trkpt><trkpt lat="43.723615" lon="12.6610067"><ele>437.5</ele><time>2026-04-12T10:13:26.031Z</time></trkpt><trkpt lat="43.7235733" lon="12.66114"><ele>437.0</ele><time>2026-04-12T10:13:27.027Z</time></trkpt><trkpt lat="43.7235267" lon="12.6612767"><ele>436.5</ele><time>2026-04-12T10:13:28.026Z</time></trkpt><trkpt lat="43.7234683" lon="12.661425"><ele>436.0</ele><time>2026-04-12T10:13:29.027Z</time></trkpt><trkpt lat="43.7233967" lon="12.66158"><ele>436.0</ele><time>2026-04-12T10:13:30.031Z</time></trkpt><trkpt lat="43.7233117" lon="12.6617267"><ele>436.0</ele><time>2026-04-12T10:13:31.028Z</time></trkpt><trkpt lat="43.72323" lon="12.661855"><ele>436.0</ele><time>2026-04-12T10:13:32.03Z</time></trkpt><trkpt lat="43.7231567" lon="12.66196"><ele>436.0</ele><time>2026-04-12T10:13:33.028Z</time></trkpt><trkpt lat="43.723085" lon="12.6620467"><ele>436.33333333333337</ele><time>2026-04-12T10:13:34.026Z</time></trkpt><trkpt lat="43.7230233" lon="12.66212"><ele>436.6666666666667</ele><time>2026-04-12T10:13:35.026Z</time></trkpt><trkpt lat="43.7229733" lon="12.6621933"><ele>437.0</ele><time>2026-04-12T10:13:36.028Z</time></trkpt><trkpt lat="43.7229367" lon="12.6622717"><ele>437.33333333333337</ele><time>2026-04-12T10:13:37.029Z</time></trkpt><trkpt lat="43.722925" lon="12.6623583"><ele>437.6666666666667</ele><time>2026-04-12T10:13:38.028Z</time></trkpt><trkpt lat="43.7229417" lon="12.6624533"><ele>438.0</ele><time>2026-04-12T10:13:39.026Z</time></trkpt><trkpt lat="43.7229983" lon="12.662565"><ele>438.0</ele><time>2026-04-12T10:13:40.029Z</time></trkpt><trkpt lat="43.7230833" lon="12.6626833"><ele>437.99999999999994</ele><time>2026-04-12T10:13:41.028Z</time></trkpt><trkpt lat="43.7231717" lon="12.6627967"><ele>437.99999999999994</ele><time>2026-04-12T10:13:42.027Z</time></trkpt><trkpt lat="43.72326" lon="12.6628967"><ele>438.0</ele><time>2026-04-12T10:13:43.026Z</time></trkpt><trkpt lat="43.72333" lon="12.66298"><ele>438.0</ele><time>2026-04-12T10:13:44.027Z</time></trkpt><trkpt lat="43.7233883" lon="12.6630517"><ele>437.4</ele><time>2026-04-12T10:13:45.03Z</time></trkpt><trkpt lat="43.7234267" lon="12.6631283"><ele>436.79999999999995</ele><time>2026-04-12T10:13:46.031Z</time></trkpt><trkpt lat="43.7234267" lon="12.663265"><ele>436.2</ele><time>2026-04-12T10:13:48.029Z</time></trkpt><trkpt lat="43.7233133" lon="12.66333"><ele>435.6</ele><time>2026-04-12T10:13:50.025Z</time></trkpt><trkpt lat="43.72322" lon="12.6633383"><ele>435.0</ele><time>2026-04-12T10:13:51.027Z</time></trkpt><trkpt lat="43.7231267" lon="12.6633467"><ele>435.0</ele><time>2026-04-12T10:13:52.031Z</time></trkpt><trkpt lat="43.7230433" lon="12.6633667"><ele>435.0</ele><time>2026-04-12T10:13:53.03Z</time></trkpt><trkpt lat="43.7229617" lon="12.663395"><ele>435.0</ele><time>2026-04-12T10:13:54.027Z</time></trkpt><trkpt lat="43.7228817" lon="12.6634417"><ele>435.0</ele><time>2026-04-12T10:13:55.03Z</time></trkpt><trkpt lat="43.7228083" lon="12.6635117"><ele>435.0</ele><time>2026-04-12T10:13:56.029Z</time></trkpt><trkpt lat="43.7227467" lon="12.66363"><ele>433.25</ele><time>2026-04-12T10:13:57.029Z</time></trkpt><trkpt lat="43.7226817" lon="12.66378"><ele>431.5</ele><time>2026-04-12T10:13:58.031Z</time></trkpt><trkpt lat="43.7226133" lon="12.663925"><ele>429.75</ele><time>2026-04-12T10:13:59.032Z</time></trkpt><trkpt lat="43.722555" lon="12.6640633"><ele>428.0</ele><time>2026-04-12T10:14:00.03Z</time></trkpt><trkpt lat="43.7225217" lon="12.6641917"><ele>428.0</ele><time>2026-04-12T10:14:01.032Z</time></trkpt><trkpt lat="43.7225067" lon="12.66432"><ele>428.0</ele><time>2026-04-12T10:14:02.029Z</time></trkpt><trkpt lat="43.7225067" lon="12.6644833"><ele>428.0</ele><time>2026-04-12T10:14:03.025Z</time></trkpt><trkpt lat="43.722525" lon="12.6646767"><ele>428.0</ele><time>2026-04-12T10:14:04.026Z</time></trkpt><trkpt lat="43.722545" lon="12.6648817"><ele>430.0</ele><time>2026-04-12T10:14:05.026Z</time></trkpt><trkpt lat="43.7225733" lon="12.665075"><ele>432.0</ele><time>2026-04-12T10:14:06.03Z</time></trkpt><trkpt lat="43.7226117" lon="12.6652533"><ele>434.0</ele><time>2026-04-12T10:14:07.026Z</time></trkpt><trkpt lat="43.7226667" lon="12.6654333"><ele>436.0</ele><time>2026-04-12T10:14:08.029Z</time></trkpt><trkpt lat="43.72275" lon="12.6656017"><ele>445.5</ele><time>2026-04-12T10:14:09.033Z</time></trkpt><trkpt lat="43.722825" lon="12.66575"><ele>455.0</ele><time>2026-04-12T10:14:10.035Z</time></trkpt><trkpt lat="43.7228817" lon="12.6658917"><ele>464.5</ele><time>2026-04-12T10:14:11.026Z</time></trkpt><trkpt lat="43.722925" lon="12.66603"><ele>474.0</ele><time>2026-04-12T10:14:12.028Z</time></trkpt><trkpt lat="43.722935" lon="12.6661717"><ele>475.0</ele><time>2026-04-12T10:14:13.031Z</time></trkpt><trkpt lat="43.722915" lon="12.6663283"><ele>476.0</ele><time>2026-04-12T10:14:14.029Z</time></trkpt><trkpt lat="43.7228883" lon="12.6664733"><ele>477.0</ele><time>2026-04-12T10:14:15.03Z</time></trkpt><trkpt lat="43.7228683" lon="12.6666033"><ele>478.0</ele><time>2026-04-12T10:14:16.027Z</time></trkpt><trkpt lat="43.7228633" lon="12.6667283"><ele>479.0</ele><time>2026-04-12T10:14:17.029Z</time></trkpt><trkpt lat="43.72288" lon="12.6668467"><ele>476.2</ele><time>2026-04-12T10:14:18.029Z</time></trkpt><trkpt lat="43.722925" lon="12.6669533"><ele>473.4</ele><time>2026-04-12T10:14:19.031Z</time></trkpt><trkpt lat="43.7229933" lon="12.6670433"><ele>470.6</ele><time>2026-04-12T10:14:20.027Z</time></trkpt><trkpt lat="43.723085" lon="12.667135"><ele>467.8</ele><time>2026-04-12T10:14:21.028Z</time></trkpt><trkpt lat="43.7231933" lon="12.6672083"><ele>465.0</ele><time>2026-04-12T10:14:22.03Z</time></trkpt><trkpt lat="43.72328" lon="12.66729"><ele>465.0</ele><time>2026-04-12T10:14:23.027Z</time></trkpt><trkpt lat="43.7233683" lon="12.66737"><ele>465.0</ele><time>2026-04-12T10:14:24.027Z</time></trkpt><trkpt lat="43.7234583" lon="12.6674533"><ele>465.0</ele><time>2026-04-12T10:14:25.031Z</time></trkpt><trkpt lat="43.7235367" lon="12.6675467"><ele>465.0</ele><time>2026-04-12T10:14:26.028Z</time></trkpt><trkpt lat="43.7236083" lon="12.6676467"><ele>465.0</ele><time>2026-04-12T10:14:27.029Z</time></trkpt><trkpt lat="43.72367" lon="12.6677433"><ele>467.8</ele><time>2026-04-12T10:14:28.029Z</time></trkpt><trkpt lat="43.7237233" lon="12.6678433"><ele>470.6</ele><time>2026-04-12T10:14:29.03Z</time></trkpt><trkpt lat="43.723775" lon="12.6679583"><ele>473.4</ele><time>2026-04-12T10:14:30.028Z</time></trkpt><trkpt lat="43.7238283" lon="12.6681117"><ele>476.2</ele><time>2026-04-12T10:14:31.029Z</time></trkpt><trkpt lat="43.72388" lon="12.6682867"><ele>479.0</ele><time>2026-04-12T10:14:32.028Z</time></trkpt><trkpt lat="43.7239133" lon="12.668495"><ele>474.66666666666663</ele><time>2026-04-12T10:14:33.027Z</time></trkpt><trkpt lat="43.7239583" lon="12.66872"><ele>470.33333333333337</ele><time>2026-04-12T10:14:34.025Z</time></trkpt><trkpt lat="43.7239883" lon="12.66896"><ele>466.0</ele><time>2026-04-12T10:14:35.023Z</time></trkpt><trkpt lat="43.7240217" lon="12.66919"><ele>466.0</ele><time>2026-04-12T10:14:36.029Z</time></trkpt><trkpt lat="43.7240517" lon="12.6694033"><ele>466.0</ele><time>2026-04-12T10:14:37.027Z</time></trkpt><trkpt lat="43.7240683" lon="12.6696017"><ele>466.0</ele><time>2026-04-12T10:14:38.027Z</time></trkpt><trkpt lat="43.7241" lon="12.6697867"><ele>466.0</ele><time>2026-04-12T10:14:39.029Z</time></trkpt><trkpt lat="43.724135" lon="12.6699517"><ele>466.0</ele><time>2026-04-12T10:14:40.027Z</time></trkpt><trkpt lat="43.7241633" lon="12.670105"><ele>466.0</ele><time>2026-04-12T10:14:41.028Z</time></trkpt><trkpt lat="43.7241783" lon="12.6702567"><ele>466.0</ele><time>2026-04-12T10:14:42.028Z</time></trkpt><trkpt lat="43.724175" lon="12.6704017"><ele>466.0</ele><time>2026-04-12T10:14:43.028Z</time></trkpt><trkpt lat="43.7241433" lon="12.6705417"><ele>466.0</ele><time>2026-04-12T10:14:44.029Z</time></trkpt><trkpt lat="43.72409" lon="12.670685"><ele>466.0</ele><time>2026-04-12T10:14:45.028Z</time></trkpt><trkpt lat="43.72402" lon="12.67084"><ele>466.0</ele><time>2026-04-12T10:14:46.026Z</time></trkpt><trkpt lat="43.723935" lon="12.6710083"><ele>466.0</ele><time>2026-04-12T10:14:47.029Z</time></trkpt><trkpt lat="43.7238617" lon="12.671185"><ele>466.0</ele><time>2026-04-12T10:14:48.026Z</time></trkpt><trkpt lat="43.72379" lon="12.6713483"><ele>468.20000000000005</ele><time>2026-04-12T10:14:49.029Z</time></trkpt><trkpt lat="43.7237267" lon="12.6715"><ele>470.40000000000003</ele><time>2026-04-12T10:14:50.029Z</time></trkpt><trkpt lat="43.7236767" lon="12.6716367"><ele>472.6</ele><time>2026-04-12T10:14:51.03Z</time></trkpt><trkpt lat="43.7236417" lon="12.6717617"><ele>474.8</ele><time>2026-04-12T10:14:52.028Z</time></trkpt><trkpt lat="43.7236233" lon="12.671885"><ele>477.0</ele><time>2026-04-12T10:14:53.033Z</time></trkpt><trkpt lat="43.7236217" lon="12.6720117"><ele>477.5</ele><time>2026-04-12T10:14:54.028Z</time></trkpt><trkpt lat="43.7236417" lon="12.6721433"><ele>478.0</ele><time>2026-04-12T10:14:55.029Z</time></trkpt><trkpt lat="43.7236833" lon="12.6722817"><ele>478.5</ele><time>2026-04-12T10:14:56.03Z</time></trkpt><trkpt lat="43.72374" lon="12.6724217"><ele>479.0</ele><time>2026-04-12T10:14:57.027Z</time></trkpt><trkpt lat="43.7238167" lon="12.6725683"><ele>479.0</ele><time>2026-04-12T10:14:58.025Z</time></trkpt><trkpt lat="43.723905" lon="12.672715"><ele>479.0</ele><time>2026-04-12T10:14:59.029Z</time></trkpt><trkpt lat="43.7240183" lon="12.6728667"><ele>479.0</ele><time>2026-04-12T10:15:00.033Z</time></trkpt><trkpt lat="43.72414" lon="12.6730333"><ele>477.25</ele><time>2026-04-12T10:15:01.029Z</time></trkpt><trkpt lat="43.7242533" lon="12.67319"><ele>475.5</ele><time>2026-04-12T10:15:02.033Z</time></trkpt><trkpt lat="43.7243533" lon="12.6733283"><ele>473.75</ele><time>2026-04-12T10:15:03.028Z</time></trkpt><trkpt lat="43.7244383" lon="12.67345"><ele>472.0</ele><time>2026-04-12T10:15:04.029Z</time></trkpt><trkpt lat="43.7244933" lon="12.673585"><ele>476.6</ele><time>2026-04-12T10:15:05.028Z</time></trkpt><trkpt lat="43.7245283" lon="12.6737283"><ele>481.20000000000005</ele><time>2026-04-12T10:15:06.027Z</time></trkpt><trkpt lat="43.7245417" lon="12.6738883"><ele>485.8</ele><time>2026-04-12T10:15:07.029Z</time></trkpt><trkpt lat="43.72454" lon="12.67404"><ele>490.4</ele><time>2026-04-12T10:15:08.03Z</time></trkpt><trkpt lat="43.7245367" lon="12.6741733"><ele>495.0</ele><time>2026-04-12T10:15:09.033Z</time></trkpt><trkpt lat="43.724535" lon="12.674275"><ele>495.0</ele><time>2026-04-12T10:15:10.026Z</time></trkpt><trkpt lat="43.7245267" lon="12.6743817"><ele>495.0</ele><time>2026-04-12T10:15:12.025Z</time></trkpt><trkpt lat="43.7245933" lon="12.6743533"><ele>495.0</ele><time>2026-04-12T10:15:16.034Z</time></trkpt><trkpt lat="43.7246133" lon="12.67422"><ele>495.0</ele><time>2026-04-12T10:15:18.024Z</time></trkpt><trkpt lat="43.7246633" lon="12.6740717"><ele>495.0</ele><time>2026-04-12T10:15:20.025Z</time></trkpt><trkpt lat="43.7247567" lon="12.6739733"><ele>495.0</ele><time>2026-04-12T10:15:22.025Z</time></trkpt><trkpt lat="43.7248267" lon="12.6739667"><ele>495.0</ele><time>2026-04-12T10:15:23.025Z</time></trkpt><trkpt lat="43.724905" lon="12.673975"><ele>495.0</ele><time>2026-04-12T10:15:24.03Z</time></trkpt><trkpt lat="43.7249933" lon="12.67402"><ele>495.0</ele><time>2026-04-12T10:15:25.025Z</time></trkpt><trkpt lat="43.7250967" lon="12.6740967"><ele>495.0</ele><time>2026-04-12T10:15:26.031Z</time></trkpt><trkpt lat="43.7252083" lon="12.6741917"><ele>495.0</ele><time>2026-04-12T10:15:27.027Z</time></trkpt><trkpt lat="43.7253183" lon="12.674305"><ele>495.0</ele><time>2026-04-12T10:15:28.026Z</time></trkpt><trkpt lat="43.7254367" lon="12.6744183"><ele>495.0</ele><time>2026-04-12T10:15:29.024Z</time></trkpt><trkpt lat="43.7255667" lon="12.674515"><ele>495.0</ele><time>2026-04-12T10:15:30.029Z</time></trkpt><trkpt lat="43.7256833" lon="12.6745883"><ele>495.0</ele><time>2026-04-12T10:15:31.03Z</time></trkpt><trkpt lat="43.725795" lon="12.674645"><ele>495.0</ele><time>2026-04-12T10:15:32.028Z</time></trkpt><trkpt lat="43.7258917" lon="12.6746933"><ele>495.0</ele><time>2026-04-12T10:15:33.031Z</time></trkpt><trkpt lat="43.7259783" lon="12.6747317"><ele>495.0</ele><time>2026-04-12T10:15:34.027Z</time></trkpt><trkpt lat="43.72607" lon="12.67475"><ele>495.0</ele><time>2026-04-12T10:15:35.031Z</time></trkpt><trkpt lat="43.7261883" lon="12.67474"><ele>496.75</ele><time>2026-04-12T10:15:36.029Z</time></trkpt><trkpt lat="43.7263267" lon="12.6747"><ele>498.5</ele><time>2026-04-12T10:15:37.03Z</time></trkpt><trkpt lat="43.7264667" lon="12.6746333"><ele>500.25</ele><time>2026-04-12T10:15:38.028Z</time></trkpt><trkpt lat="43.7265967" lon="12.674555"><ele>502.0</ele><time>2026-04-12T10:15:39.03Z</time></trkpt><trkpt lat="43.7267133" lon="12.6744867"><ele>502.0</ele><time>2026-04-12T10:15:40.03Z</time></trkpt><trkpt lat="43.7268183" lon="12.674455"><ele>502.00000000000006</ele><time>2026-04-12T10:15:41.027Z</time></trkpt><trkpt lat="43.72691" lon="12.6744667"><ele>502.00000000000006</ele><time>2026-04-12T10:15:42.03Z</time></trkpt><trkpt lat="43.72699" lon="12.6745233"><ele>502.0</ele><time>2026-04-12T10:15:43.029Z</time></trkpt><trkpt lat="43.7270533" lon="12.6746083"><ele>502.0</ele><time>2026-04-12T10:15:44.029Z</time></trkpt><trkpt lat="43.7271017" lon="12.674725"><ele>505.8</ele><time>2026-04-12T10:15:45.028Z</time></trkpt><trkpt lat="43.7271417" lon="12.6748383"><ele>509.6</ele><time>2026-04-12T10:15:46.03Z</time></trkpt><trkpt lat="43.72718" lon="12.67493"><ele>513.4000000000001</ele><time>2026-04-12T10:15:47.029Z</time></trkpt><trkpt lat="43.7272567" lon="12.674975"><ele>517.2</ele><time>2026-04-12T10:15:48.026Z</time></trkpt><trkpt lat="43.72735" lon="12.6750283"><ele>521.0</ele><time>2026-04-12T10:15:49.03Z</time></trkpt><trkpt lat="43.72746" lon="12.67509"><ele>521.0</ele><time>2026-04-12T10:15:50.03Z</time></trkpt><trkpt lat="43.7275717" lon="12.67515"><ele>521.0</ele><time>2026-04-12T10:15:51.028Z</time></trkpt><trkpt lat="43.7276683" lon="12.6752067"><ele>521.0</ele><time>2026-04-12T10:15:52.031Z</time></trkpt><trkpt lat="43.7277467" lon="12.67524"><ele>521.0</ele><time>2026-04-12T10:15:53.029Z</time></trkpt><trkpt lat="43.7278283" lon="12.67533"><ele>521.0</ele><time>2026-04-12T10:15:55.03Z</time></trkpt><trkpt lat="43.7277883" lon="12.6754033"><ele>520.5</ele><time>2026-04-12T10:15:56.032Z</time></trkpt><trkpt lat="43.7276983" lon="12.6755383"><ele>520.0</ele><time>2026-04-12T10:15:58.026Z</time></trkpt><trkpt lat="43.7276633" lon="12.675635"><ele>519.5</ele><time>2026-04-12T10:15:59.024Z</time></trkpt><trkpt lat="43.7276617" lon="12.6757483"><ele>519.0</ele><time>2026-04-12T10:16:00.024Z</time></trkpt><trkpt lat="43.727705" lon="12.6758283"><ele>518.5</ele><time>2026-04-12T10:16:01.025Z</time></trkpt><trkpt lat="43.7277767" lon="12.67587"><ele>518.0</ele><time>2026-04-12T10:16:02.024Z</time></trkpt><trkpt lat="43.7278867" lon="12.6758783"><ele>522.25</ele><time>2026-04-12T10:16:03.025Z</time></trkpt><trkpt lat="43.7280367" lon="12.675875"><ele>526.5</ele><time>2026-04-12T10:16:04.029Z</time></trkpt><trkpt lat="43.7281883" lon="12.6758733"><ele>530.75</ele><time>2026-04-12T10:16:05.025Z</time></trkpt><trkpt lat="43.7283217" lon="12.6758667"><ele>535.0</ele><time>2026-04-12T10:16:06.031Z</time></trkpt><trkpt lat="43.7284133" lon="12.67586"><ele>535.0</ele><time>2026-04-12T10:16:07.024Z</time></trkpt><trkpt lat="43.7284767" lon="12.6758483"><ele>535.0</ele><time>2026-04-12T10:16:08.025Z</time></trkpt><trkpt lat="43.7285567" lon="12.6758433"><ele>535.0</ele><time>2026-04-12T10:16:33.031Z</time></trkpt><trkpt lat="43.7285767" lon="12.6759283"><ele>535.0</ele><time>2026-04-12T10:16:35.027Z</time></trkpt><trkpt lat="43.728635" lon="12.6761217"><ele>535.0</ele><time>2026-04-12T10:16:37.031Z</time></trkpt><trkpt lat="43.7286967" lon="12.6762833"><ele>532.6666666666667</ele><time>2026-04-12T10:16:38.025Z</time></trkpt><trkpt lat="43.7287767" lon="12.6764883"><ele>530.3333333333334</ele><time>2026-04-12T10:16:39.03Z</time></trkpt><trkpt lat="43.7288633" lon="12.6767033"><ele>528.0</ele><time>2026-04-12T10:16:40.027Z</time></trkpt><trkpt lat="43.7289483" lon="12.676915"><ele>528.0</ele><time>2026-04-12T10:16:41.034Z</time></trkpt><trkpt lat="43.7290317" lon="12.6771167"><ele>528.0</ele><time>2026-04-12T10:16:42.033Z</time></trkpt><trkpt lat="43.7291117" lon="12.6773117"><ele>528.0</ele><time>2026-04-12T10:16:43.03Z</time></trkpt><trkpt lat="43.7291933" lon="12.6775067"><ele>528.0</ele><time>2026-04-12T10:16:44.031Z</time></trkpt><trkpt lat="43.7292767" lon="12.6777067"><ele>528.0</ele><time>2026-04-12T10:16:45.032Z</time></trkpt><trkpt lat="43.7293583" lon="12.67791"><ele>528.0</ele><time>2026-04-12T10:16:46.031Z</time></trkpt><trkpt lat="43.7294417" lon="12.6781117"><ele>526.3333333333334</ele><time>2026-04-12T10:16:47.032Z</time></trkpt><trkpt lat="43.7295217" lon="12.6783133"><ele>524.6666666666667</ele><time>2026-04-12T10:16:48.03Z</time></trkpt><trkpt lat="43.7296017" lon="12.6785133"><ele>523.0</ele><time>2026-04-12T10:16:49.028Z</time></trkpt><trkpt lat="43.7296833" lon="12.6787117"><ele>523.0</ele><time>2026-04-12T10:16:50.032Z</time></trkpt><trkpt lat="43.729765" lon="12.6789083"><ele>523.0</ele><time>2026-04-12T10:16:51.03Z</time></trkpt><trkpt lat="43.7298517" lon="12.679105"><ele>523.0</ele><time>2026-04-12T10:16:52.033Z</time></trkpt><trkpt lat="43.7299367" lon="12.679305"><ele>523.3333333333334</ele><time>2026-04-12T10:16:53.032Z</time></trkpt><trkpt lat="43.7300217" lon="12.67951"><ele>523.6666666666666</ele><time>2026-04-12T10:16:54.026Z</time></trkpt><trkpt lat="43.73011" lon="12.679725"><ele>524.0</ele><time>2026-04-12T10:16:55.032Z</time></trkpt><trkpt lat="43.730195" lon="12.67995"><ele>519.3333333333333</ele><time>2026-04-12T10:16:56.033Z</time></trkpt><trkpt lat="43.7302783" lon="12.680185"><ele>514.6666666666666</ele><time>2026-04-12T10:16:57.028Z</time></trkpt><trkpt lat="43.7303633" lon="12.68043"><ele>510.0</ele><time>2026-04-12T10:16:58.026Z</time></trkpt><trkpt lat="43.7304483" lon="12.680685"><ele>510.0</ele><time>2026-04-12T10:16:59.028Z</time></trkpt><trkpt lat="43.730535" lon="12.6809483"><ele>510.0</ele><time>2026-04-12T10:17:00.035Z</time></trkpt><trkpt lat="43.7306283" lon="12.6812133"><ele>510.0</ele><time>2026-04-12T10:17:01.033Z</time></trkpt><trkpt lat="43.730715" lon="12.6814683"><ele>510.66666666666663</ele><time>2026-04-12T10:17:02.025Z</time></trkpt><trkpt lat="43.7307983" lon="12.681715"><ele>511.3333333333333</ele><time>2026-04-12T10:17:03.029Z</time></trkpt><trkpt lat="43.7308783" lon="12.6819567"><ele>512.0</ele><time>2026-04-12T10:17:04.033Z</time></trkpt><trkpt lat="43.7309567" lon="12.68219"><ele>512.0</ele><time>2026-04-12T10:17:05.026Z</time></trkpt><trkpt lat="43.731035" lon="12.682415"><ele>512.0</ele><time>2026-04-12T10:17:06.031Z</time></trkpt><trkpt lat="43.73111" lon="12.6826333"><ele>512.0</ele><time>2026-04-12T10:17:07.027Z</time></trkpt><trkpt lat="43.7311817" lon="12.682845"><ele>512.0</ele><time>2026-04-12T10:17:08.03Z</time></trkpt><trkpt lat="43.7312583" lon="12.6830567"><ele>512.0</ele><time>2026-04-12T10:17:09.03Z</time></trkpt><trkpt lat="43.7313367" lon="12.6832683"><ele>512.0</ele><time>2026-04-12T10:17:10.035Z</time></trkpt><trkpt lat="43.73142" lon="12.6834783"><ele>512.25</ele><time>2026-04-12T10:17:11.029Z</time></trkpt><trkpt lat="43.7315067" lon="12.6836717"><ele>512.5</ele><time>2026-04-12T10:17:12.031Z</time></trkpt><trkpt lat="43.73159" lon="12.6838417"><ele>512.75</ele><time>2026-04-12T10:17:13.027Z</time></trkpt><trkpt lat="43.7316617" lon="12.68399"><ele>513.0</ele><time>2026-04-12T10:17:14.03Z</time></trkpt><trkpt lat="43.731725" lon="12.68412"><ele>513.0</ele><time>2026-04-12T10:17:15.031Z</time></trkpt><trkpt lat="43.7317767" lon="12.6842317"><ele>513.0</ele><time>2026-04-12T10:17:16.03Z</time></trkpt><trkpt lat="43.7318217" lon="12.684325"><ele>513.0</ele><time>2026-04-12T10:17:17.029Z</time></trkpt><trkpt lat="43.7318617" lon="12.6844017"><ele>513.0</ele><time>2026-04-12T10:17:18.032Z</time></trkpt><trkpt lat="43.7319267" lon="12.6844867"><ele>513.0</ele><time>2026-04-12T10:17:20.027Z</time></trkpt><trkpt lat="43.7319817" lon="12.68443"><ele>513.0</ele><time>2026-04-12T10:17:22.03Z</time></trkpt><trkpt lat="43.7320017" lon="12.684265"><ele>512.25</ele><time>2026-04-12T10:17:24.032Z</time></trkpt><trkpt lat="43.731985" lon="12.6841083"><ele>511.5</ele><time>2026-04-12T10:17:25.034Z</time></trkpt><trkpt lat="43.7319767" lon="12.68394"><ele>510.75</ele><time>2026-04-12T10:17:26.029Z</time></trkpt><trkpt lat="43.7319683" lon="12.68377"><ele>510.0</ele><time>2026-04-12T10:17:27.028Z</time></trkpt><trkpt lat="43.731965" lon="12.6836083"><ele>507.5</ele><time>2026-04-12T10:17:28.033Z</time></trkpt><trkpt lat="43.7319683" lon="12.6834467"><ele>505.0</ele><time>2026-04-12T10:17:29.026Z</time></trkpt><trkpt lat="43.73198" lon="12.6832833"><ele>502.5</ele><time>2026-04-12T10:17:30.024Z</time></trkpt><trkpt lat="43.7319933" lon="12.6831233"><ele>500.0</ele><time>2026-04-12T10:17:31.051Z</time></trkpt><trkpt lat="43.7320083" lon="12.68297"><ele>500.0</ele><time>2026-04-12T10:17:32.029Z</time></trkpt><trkpt lat="43.7320217" lon="12.6828083"><ele>500.0</ele><time>2026-04-12T10:17:33.028Z</time></trkpt><trkpt lat="43.7320367" lon="12.6826317"><ele>500.0</ele><time>2026-04-12T10:17:34.034Z</time></trkpt><trkpt lat="43.7320517" lon="12.68245"><ele>500.0</ele><time>2026-04-12T10:17:35.03Z</time></trkpt><trkpt lat="43.73206" lon="12.6822717"><ele>498.0</ele><time>2026-04-12T10:17:36.026Z</time></trkpt><trkpt lat="43.73207" lon="12.682105"><ele>496.0</ele><time>2026-04-12T10:17:37.029Z</time></trkpt><trkpt lat="43.7320783" lon="12.6819467"><ele>494.0</ele><time>2026-04-12T10:17:38.032Z</time></trkpt><trkpt lat="43.7320733" lon="12.6817967"><ele>492.0</ele><time>2026-04-12T10:17:39.034Z</time></trkpt><trkpt lat="43.7320633" lon="12.6816333"><ele>490.75</ele><time>2026-04-12T10:17:40.026Z</time></trkpt><trkpt lat="43.7320383" lon="12.6814667"><ele>489.5</ele><time>2026-04-12T10:17:41.03Z</time></trkpt><trkpt lat="43.7320067" lon="12.6813067"><ele>488.25</ele><time>2026-04-12T10:17:42.029Z</time></trkpt><trkpt lat="43.7319767" lon="12.6811517"><ele>487.0</ele><time>2026-04-12T10:17:43.032Z</time></trkpt><trkpt lat="43.7319517" lon="12.6810117"><ele>485.8</ele><time>2026-04-12T10:17:44.03Z</time></trkpt><trkpt lat="43.7319417" lon="12.6808783"><ele>484.6</ele><time>2026-04-12T10:17:45.032Z</time></trkpt><trkpt lat="43.731945" lon="12.6807467"><ele>483.40000000000003</ele><time>2026-04-12T10:17:46.029Z</time></trkpt><trkpt lat="43.7319583" lon="12.6806217"><ele>482.20000000000005</ele><time>2026-04-12T10:17:47.031Z</time></trkpt><trkpt lat="43.7319883" lon="12.6805117"><ele>481.0</ele><time>2026-04-12T10:17:48.028Z</time></trkpt><trkpt lat="43.732035" lon="12.680415"><ele>481.0</ele><time>2026-04-12T10:17:49.033Z</time></trkpt><trkpt lat="43.7320983" lon="12.6803367"><ele>481.0</ele><time>2026-04-12T10:17:50.029Z</time></trkpt><trkpt lat="43.7321683" lon="12.6802633"><ele>481.0</ele><time>2026-04-12T10:17:51.027Z</time></trkpt><trkpt lat="43.7322333" lon="12.6801783"><ele>481.0</ele><time>2026-04-12T10:17:52.026Z</time></trkpt><trkpt lat="43.732285" lon="12.6800517"><ele>481.0</ele><time>2026-04-12T10:17:53.028Z</time></trkpt><trkpt lat="43.7323417" lon="12.6798983"><ele>479.5</ele><time>2026-04-12T10:17:54.03Z</time></trkpt><trkpt lat="43.7323917" lon="12.679735"><ele>478.0</ele><time>2026-04-12T10:17:55.03Z</time></trkpt><trkpt lat="43.7324367" lon="12.6795717"><ele>476.5</ele><time>2026-04-12T10:17:56.033Z</time></trkpt><trkpt lat="43.7324783" lon="12.6794117"><ele>475.0</ele><time>2026-04-12T10:17:57.035Z</time></trkpt><trkpt lat="43.73252" lon="12.6792533"><ele>474.2</ele><time>2026-04-12T10:17:58.031Z</time></trkpt><trkpt lat="43.7325683" lon="12.6791"><ele>473.4</ele><time>2026-04-12T10:17:59.029Z</time></trkpt><trkpt lat="43.73262" lon="12.6789517"><ele>472.6</ele><time>2026-04-12T10:18:00.028Z</time></trkpt><trkpt lat="43.7326733" lon="12.6788167"><ele>471.8</ele><time>2026-04-12T10:18:01.026Z</time></trkpt><trkpt lat="43.732725" lon="12.678705"><ele>471.0</ele><time>2026-04-12T10:18:02.029Z</time></trkpt><trkpt lat="43.7327733" lon="12.6786067"><ele>468.1666666666667</ele><time>2026-04-12T10:18:03.025Z</time></trkpt><trkpt lat="43.73283" lon="12.678525"><ele>465.33333333333337</ele><time>2026-04-12T10:18:04.027Z</time></trkpt><trkpt lat="43.7328867" lon="12.6784617"><ele>462.5</ele><time>2026-04-12T10:18:05.026Z</time></trkpt><trkpt lat="43.73296" lon="12.678415"><ele>459.6666666666667</ele><time>2026-04-12T10:18:06.027Z</time></trkpt><trkpt lat="43.7330633" lon="12.6784033"><ele>456.83333333333337</ele><time>2026-04-12T10:18:07.032Z</time></trkpt><trkpt lat="43.7331633" lon="12.6784017"><ele>454.0</ele><time>2026-04-12T10:18:08.027Z</time></trkpt><trkpt lat="43.7332633" lon="12.67841"><ele>454.0</ele><time>2026-04-12T10:18:09.031Z</time></trkpt><trkpt lat="43.7333567" lon="12.6784417"><ele>454.0</ele><time>2026-04-12T10:18:10.024Z</time></trkpt><trkpt lat="43.7334433" lon="12.6785017"><ele>454.0</ele><time>2026-04-12T10:18:11.027Z</time></trkpt><trkpt lat="43.733515" lon="12.6785817"><ele>454.0</ele><time>2026-04-12T10:18:12.032Z</time></trkpt><trkpt lat="43.7335683" lon="12.6786683"><ele>454.0</ele><time>2026-04-12T10:18:13.03Z</time></trkpt><trkpt lat="43.7336117" lon="12.6787783"><ele>451.6</ele><time>2026-04-12T10:18:14.034Z</time></trkpt><trkpt lat="43.7336383" lon="12.678935"><ele>449.2</ele><time>2026-04-12T10:18:15.027Z</time></trkpt><trkpt lat="43.73365" lon="12.6790833"><ele>446.80000000000007</ele><time>2026-04-12T10:18:16.03Z</time></trkpt><trkpt lat="43.7336483" lon="12.6792267"><ele>444.40000000000003</ele><time>2026-04-12T10:18:17.027Z</time></trkpt><trkpt lat="43.73364" lon="12.6793567"><ele>442.0</ele><time>2026-04-12T10:18:18.025Z</time></trkpt><trkpt lat="43.7336283" lon="12.6794617"><ele>441.6666666666667</ele><time>2026-04-12T10:18:19.027Z</time></trkpt><trkpt lat="43.7336233" lon="12.6795583"><ele>441.33333333333337</ele><time>2026-04-12T10:18:20.036Z</time></trkpt><trkpt lat="43.7336333" lon="12.6796467"><ele>441.0</ele><time>2026-04-12T10:18:21.028Z</time></trkpt><trkpt lat="43.7337033" lon="12.6797783"><ele>440.66666666666663</ele><time>2026-04-12T10:18:23.03Z</time></trkpt><trkpt lat="43.7337817" lon="12.679815"><ele>440.3333333333333</ele><time>2026-04-12T10:18:24.027Z</time></trkpt><trkpt lat="43.7338567" lon="12.6798533"><ele>440.0</ele><time>2026-04-12T10:18:25.031Z</time></trkpt><trkpt lat="43.7339617" lon="12.6798783"><ele>440.0</ele><time>2026-04-12T10:18:26.036Z</time></trkpt><trkpt lat="43.7340767" lon="12.67991"><ele>440.0</ele><time>2026-04-12T10:18:27.03Z</time></trkpt><trkpt lat="43.734175" lon="12.6799583"><ele>440.0</ele><time>2026-04-12T10:18:28.03Z</time></trkpt><trkpt lat="43.7342717" lon="12.68003"><ele>440.0</ele><time>2026-04-12T10:18:29.025Z</time></trkpt><trkpt lat="43.7343633" lon="12.680125"><ele>440.0</ele><time>2026-04-12T10:18:30.028Z</time></trkpt><trkpt lat="43.73445" lon="12.680245"><ele>434.75</ele><time>2026-04-12T10:18:31.026Z</time></trkpt><trkpt lat="43.7345333" lon="12.6803817"><ele>429.5</ele><time>2026-04-12T10:18:32.035Z</time></trkpt><trkpt lat="43.7346033" lon="12.6805217"><ele>424.25</ele><time>2026-04-12T10:18:33.028Z</time></trkpt><trkpt lat="43.7346717" lon="12.680665"><ele>419.0</ele><time>2026-04-12T10:18:34.03Z</time></trkpt><trkpt lat="43.7347417" lon="12.6808033"><ele>419.0</ele><time>2026-04-12T10:18:35.032Z</time></trkpt><trkpt lat="43.7348117" lon="12.6809317"><ele>419.0</ele><time>2026-04-12T10:18:36.028Z</time></trkpt><trkpt lat="43.7348817" lon="12.681045"><ele>419.0</ele><time>2026-04-12T10:18:37.025Z</time></trkpt><trkpt lat="43.734945" lon="12.6811433"><ele>419.0</ele><time>2026-04-12T10:18:38.031Z</time></trkpt><trkpt lat="43.7350017" lon="12.6812217"><ele>419.0</ele><time>2026-04-12T10:18:39.026Z</time></trkpt><trkpt lat="43.73509" lon="12.681315"><ele>419.99999999999994</ele><time>2026-04-12T10:18:41.029Z</time></trkpt><trkpt lat="43.73518" lon="12.681325"><ele>421.0</ele><time>2026-04-12T10:18:43.029Z</time></trkpt><trkpt lat="43.7352517" lon="12.68121"><ele>422.0</ele><time>2026-04-12T10:18:45.032Z</time></trkpt><trkpt lat="43.7352817" lon="12.6811117"><ele>423.0</ele><time>2026-04-12T10:18:46.026Z</time></trkpt><trkpt lat="43.735305" lon="12.6810183"><ele>423.99999999999994</ele><time>2026-04-12T10:18:47.033Z</time></trkpt><trkpt lat="43.73533" lon="12.6809367"><ele>425.0</ele><time>2026-04-12T10:18:48.025Z</time></trkpt><trkpt lat="43.7353983" lon="12.68083"><ele>420.0</ele><time>2026-04-12T10:18:50.027Z</time></trkpt><trkpt lat="43.7355033" lon="12.680875"><ele>415.0</ele><time>2026-04-12T10:18:52.033Z</time></trkpt><trkpt lat="43.7355717" lon="12.6809667"><ele>410.0</ele><time>2026-04-12T10:18:53.028Z</time></trkpt><trkpt lat="43.7356617" lon="12.681105"><ele>405.0</ele><time>2026-04-12T10:18:54.03Z</time></trkpt><trkpt lat="43.7357517" lon="12.6812583"><ele>405.0</ele><time>2026-04-12T10:18:55.026Z</time></trkpt><trkpt lat="43.735835" lon="12.68141"><ele>405.0</ele><time>2026-04-12T10:18:56.028Z</time></trkpt><trkpt lat="43.7359117" lon="12.6815583"><ele>405.0</ele><time>2026-04-12T10:18:57.028Z</time></trkpt><trkpt lat="43.73599" lon="12.681695"><ele>405.0</ele><time>2026-04-12T10:18:58.028Z</time></trkpt><trkpt lat="43.7360583" lon="12.6818233"><ele>403.8</ele><time>2026-04-12T10:18:59.028Z</time></trkpt><trkpt lat="43.7361283" lon="12.68193"><ele>402.6</ele><time>2026-04-12T10:19:00.025Z</time></trkpt><trkpt lat="43.7362" lon="12.68201"><ele>401.4</ele><time>2026-04-12T10:19:01.028Z</time></trkpt><trkpt lat="43.7362817" lon="12.6820617"><ele>400.2</ele><time>2026-04-12T10:19:02.028Z</time></trkpt><trkpt lat="43.7363767" lon="12.682095"><ele>399.0</ele><time>2026-04-12T10:19:03.033Z</time></trkpt><trkpt lat="43.73649" lon="12.68211"><ele>399.0</ele><time>2026-04-12T10:19:04.026Z</time></trkpt><trkpt lat="43.7365933" lon="12.682125"><ele>399.0</ele><time>2026-04-12T10:19:05.027Z</time></trkpt><trkpt lat="43.73669" lon="12.682145"><ele>399.0</ele><time>2026-04-12T10:19:06.032Z</time></trkpt><trkpt lat="43.736775" lon="12.6821617"><ele>399.0</ele><time>2026-04-12T10:19:07.034Z</time></trkpt><trkpt lat="43.7368483" lon="12.6821917"><ele>399.0</ele><time>2026-04-12T10:19:08.028Z</time></trkpt><trkpt lat="43.73691" lon="12.682265"><ele>399.0</ele><time>2026-04-12T10:19:09.028Z</time></trkpt><trkpt lat="43.7369817" lon="12.6823533"><ele>397.2</ele><time>2026-04-12T10:19:10.027Z</time></trkpt><trkpt lat="43.7370583" lon="12.682445"><ele>395.4</ele><time>2026-04-12T10:19:11.029Z</time></trkpt><trkpt lat="43.73712" lon="12.6825333"><ele>393.6</ele><time>2026-04-12T10:19:12.027Z</time></trkpt><trkpt lat="43.7371783" lon="12.6826167"><ele>391.8</ele><time>2026-04-12T10:19:13.028Z</time></trkpt><trkpt lat="43.7372333" lon="12.6827133"><ele>390.0</ele><time>2026-04-12T10:19:14.029Z</time></trkpt><trkpt lat="43.7372867" lon="12.682845"><ele>390.0</ele><time>2026-04-12T10:19:15.029Z</time></trkpt><trkpt lat="43.7373417" lon="12.682995"><ele>390.0</ele><time>2026-04-12T10:19:16.028Z</time></trkpt><trkpt lat="43.7373983" lon="12.68315"><ele>390.0</ele><time>2026-04-12T10:19:17.029Z</time></trkpt><trkpt lat="43.73744" lon="12.68329"><ele>390.0</ele><time>2026-04-12T10:19:18.032Z</time></trkpt><trkpt lat="43.7374717" lon="12.683435"><ele>390.0</ele><time>2026-04-12T10:19:19.035Z</time></trkpt><trkpt lat="43.7374967" lon="12.6835833"><ele>390.0</ele><time>2026-04-12T10:19:20.028Z</time></trkpt><trkpt lat="43.737525" lon="12.6837517"><ele>390.0</ele><time>2026-04-12T10:19:21.026Z</time></trkpt><trkpt lat="43.7375517" lon="12.6839183"><ele>390.0</ele><time>2026-04-12T10:19:22.03Z</time></trkpt><trkpt lat="43.737575" lon="12.6840733"><ele>389.8</ele><time>2026-04-12T10:19:23.026Z</time></trkpt><trkpt lat="43.73759" lon="12.6842183"><ele>389.6</ele><time>2026-04-12T10:19:24.027Z</time></trkpt><trkpt lat="43.7376083" lon="12.6843433"><ele>389.4</ele><time>2026-04-12T10:19:25.032Z</time></trkpt><trkpt lat="43.73763" lon="12.6844483"><ele>389.2</ele><time>2026-04-12T10:19:26.03Z</time></trkpt><trkpt lat="43.73766" lon="12.684545"><ele>389.0</ele><time>2026-04-12T10:19:27.025Z</time></trkpt><trkpt lat="43.737735" lon="12.6846317"><ele>388.99999999999994</ele><time>2026-04-12T10:19:28.033Z</time></trkpt><trkpt lat="43.7377967" lon="12.68473"><ele>389.0</ele><time>2026-04-12T10:19:29.029Z</time></trkpt><trkpt lat="43.737835" lon="12.6848433"><ele>389.0</ele><time>2026-04-12T10:19:30.028Z</time></trkpt><trkpt lat="43.737845" lon="12.6849667"><ele>389.0</ele><time>2026-04-12T10:19:31.026Z</time></trkpt><trkpt lat="43.737835" lon="12.685085"><ele>388.99999999999994</ele><time>2026-04-12T10:19:32.032Z</time></trkpt><trkpt lat="43.737835" lon="12.6851933"><ele>389.0</ele><time>2026-04-12T10:19:33.033Z</time></trkpt><trkpt lat="43.737845" lon="12.685305"><ele>392.0</ele><time>2026-04-12T10:19:34.03Z</time></trkpt><trkpt lat="43.73787" lon="12.6854433"><ele>395.0</ele><time>2026-04-12T10:19:35.028Z</time></trkpt><trkpt lat="43.7379033" lon="12.6856117"><ele>398.0</ele><time>2026-04-12T10:19:36.033Z</time></trkpt><trkpt lat="43.7379333" lon="12.68577"><ele>401.0</ele><time>2026-04-12T10:19:37.026Z</time></trkpt><trkpt lat="43.737955" lon="12.6858983"><ele>404.0</ele><time>2026-04-12T10:19:38.028Z</time></trkpt><trkpt lat="43.7379817" lon="12.6859967"><ele>403.79999999999995</ele><time>2026-04-12T10:19:39.028Z</time></trkpt><trkpt lat="43.7380533" lon="12.686125"><ele>403.59999999999997</ele><time>2026-04-12T10:19:41.027Z</time></trkpt><trkpt lat="43.73811" lon="12.686165"><ele>403.4</ele><time>2026-04-12T10:19:42.026Z</time></trkpt><trkpt lat="43.7381817" lon="12.6861917"><ele>403.2</ele><time>2026-04-12T10:19:43.026Z</time></trkpt><trkpt lat="43.7382767" lon="12.686225"><ele>403.0</ele><time>2026-04-12T10:19:44.036Z</time></trkpt><trkpt lat="43.7384133" lon="12.68626"><ele>402.0</ele><time>2026-04-12T10:19:45.025Z</time></trkpt><trkpt lat="43.738565" lon="12.686295"><ele>401.0</ele><time>2026-04-12T10:19:46.029Z</time></trkpt><trkpt lat="43.7387083" lon="12.6863217"><ele>400.0</ele><time>2026-04-12T10:19:47.035Z</time></trkpt><trkpt lat="43.7388367" lon="12.6863317"><ele>399.0</ele><time>2026-04-12T10:19:48.028Z</time></trkpt><trkpt lat="43.7389517" lon="12.6863267"><ele>399.0</ele><time>2026-04-12T10:19:49.028Z</time></trkpt><trkpt lat="43.7390867" lon="12.6862933"><ele>399.0</ele><time>2026-04-12T10:19:50.031Z</time></trkpt><trkpt lat="43.7392133" lon="12.68626"><ele>399.0</ele><time>2026-04-12T10:19:51.035Z</time></trkpt><trkpt lat="43.7393367" lon="12.6862367"><ele>399.0</ele><time>2026-04-12T10:19:52.029Z</time></trkpt><trkpt lat="43.7394583" lon="12.68621"><ele>396.0</ele><time>2026-04-12T10:19:53.028Z</time></trkpt><trkpt lat="43.7395783" lon="12.6861817"><ele>393.0</ele><time>2026-04-12T10:19:54.026Z</time></trkpt><trkpt lat="43.7396933" lon="12.68615"><ele>390.0</ele><time>2026-04-12T10:19:55.025Z</time></trkpt><trkpt lat="43.739805" lon="12.68612"><ele>387.0</ele><time>2026-04-12T10:19:56.026Z</time></trkpt><trkpt lat="43.739925" lon="12.6860983"><ele>387.0</ele><time>2026-04-12T10:19:57.031Z</time></trkpt><trkpt lat="43.7400533" lon="12.68608"><ele>387.0</ele><time>2026-04-12T10:19:58.027Z</time></trkpt><trkpt lat="43.7401867" lon="12.6860517"><ele>387.0</ele><time>2026-04-12T10:19:59.025Z</time></trkpt><trkpt lat="43.74032" lon="12.6860217"><ele>387.0</ele><time>2026-04-12T10:20:00.026Z</time></trkpt><trkpt lat="43.7404483" lon="12.685995"><ele>385.40000000000003</ele><time>2026-04-12T10:20:01.026Z</time></trkpt><trkpt lat="43.7405633" lon="12.6859717"><ele>383.8</ele><time>2026-04-12T10:20:02.028Z</time></trkpt><trkpt lat="43.7406733" lon="12.6859517"><ele>382.2</ele><time>2026-04-12T10:20:03.027Z</time></trkpt><trkpt lat="43.740775" lon="12.68594"><ele>380.6</ele><time>2026-04-12T10:20:04.029Z</time></trkpt><trkpt lat="43.7408617" lon="12.6859383"><ele>379.0</ele><time>2026-04-12T10:20:05.028Z</time></trkpt><trkpt lat="43.7409383" lon="12.6859583"><ele>379.0</ele><time>2026-04-12T10:20:06.029Z</time></trkpt><trkpt lat="43.7410017" lon="12.686005"><ele>379.0</ele><time>2026-04-12T10:20:07.028Z</time></trkpt><trkpt lat="43.741055" lon="12.6860567"><ele>379.0</ele><time>2026-04-12T10:20:08.026Z</time></trkpt><trkpt lat="43.741155" lon="12.6861317"><ele>379.0</ele><time>2026-04-12T10:20:10.029Z</time></trkpt><trkpt lat="43.7412183" lon="12.6861333"><ele>379.0</ele><time>2026-04-12T10:20:11.03Z</time></trkpt><trkpt lat="43.741295" lon="12.686105"><ele>379.0</ele><time>2026-04-12T10:20:12.027Z</time></trkpt><trkpt lat="43.7413917" lon="12.68604"><ele>376.0</ele><time>2026-04-12T10:20:13.027Z</time></trkpt><trkpt lat="43.7415017" lon="12.6859117"><ele>373.0</ele><time>2026-04-12T10:20:14.028Z</time></trkpt><trkpt lat="43.741605" lon="12.6857883"><ele>370.0</ele><time>2026-04-12T10:20:15.029Z</time></trkpt><trkpt lat="43.741705" lon="12.6856733"><ele>367.0</ele><time>2026-04-12T10:20:16.03Z</time></trkpt><trkpt lat="43.7418017" lon="12.685575"><ele>365.8</ele><time>2026-04-12T10:20:17.026Z</time></trkpt><trkpt lat="43.7419" lon="12.68551"><ele>364.6</ele><time>2026-04-12T10:20:18.067Z</time></trkpt><trkpt lat="43.742005" lon="12.6854817"><ele>363.40000000000003</ele><time>2026-04-12T10:20:19.025Z</time></trkpt><trkpt lat="43.74211" lon="12.6854917"><ele>362.20000000000005</ele><time>2026-04-12T10:20:20.029Z</time></trkpt><trkpt lat="43.7422267" lon="12.685545"><ele>361.0</ele><time>2026-04-12T10:20:21.035Z</time></trkpt><trkpt lat="43.7423633" lon="12.6856267"><ele>361.0</ele><time>2026-04-12T10:20:22.035Z</time></trkpt><trkpt lat="43.7424917" lon="12.6857133"><ele>361.0</ele><time>2026-04-12T10:20:23.026Z</time></trkpt><trkpt lat="43.7426033" lon="12.6857867"><ele>361.0</ele><time>2026-04-12T10:20:24.026Z</time></trkpt><trkpt lat="43.7427" lon="12.685845"><ele>361.0</ele><time>2026-04-12T10:20:25.028Z</time></trkpt><trkpt lat="43.7427933" lon="12.6858783"><ele>360.5</ele><time>2026-04-12T10:20:26.027Z</time></trkpt><trkpt lat="43.7428933" lon="12.6858933"><ele>360.0</ele><time>2026-04-12T10:20:27.028Z</time></trkpt><trkpt lat="43.7430083" lon="12.6858817"><ele>359.5</ele><time>2026-04-12T10:20:28.03Z</time></trkpt><trkpt lat="43.7431317" lon="12.6858667"><ele>359.0</ele><time>2026-04-12T10:20:29.025Z</time></trkpt><trkpt lat="43.743255" lon="12.6858683"><ele>359.0</ele><time>2026-04-12T10:20:30.025Z</time></trkpt><trkpt lat="43.743375" lon="12.6858983"><ele>359.0</ele><time>2026-04-12T10:20:31.029Z</time></trkpt><trkpt lat="43.7434867" lon="12.6859533"><ele>359.0</ele><time>2026-04-12T10:20:32.038Z</time></trkpt><trkpt lat="43.7435867" lon="12.6860367"><ele>359.0</ele><time>2026-04-12T10:20:33.028Z</time></trkpt><trkpt lat="43.7436767" lon="12.6861467"><ele>357.75</ele><time>2026-04-12T10:20:34.028Z</time></trkpt><trkpt lat="43.7437433" lon="12.6862717"><ele>356.5</ele><time>2026-04-12T10:20:35.025Z</time></trkpt><trkpt lat="43.7437983" lon="12.6864067"><ele>355.25</ele><time>2026-04-12T10:20:36.026Z</time></trkpt><trkpt lat="43.7438733" lon="12.6865417"><ele>354.0</ele><time>2026-04-12T10:20:37.029Z</time></trkpt><trkpt lat="43.7439833" lon="12.6866583"><ele>354.0</ele><time>2026-04-12T10:20:38.025Z</time></trkpt><trkpt lat="43.7441417" lon="12.686755"><ele>354.0</ele><time>2026-04-12T10:20:39.029Z</time></trkpt><trkpt lat="43.7443017" lon="12.686845"><ele>354.0</ele><time>2026-04-12T10:20:40.029Z</time></trkpt><trkpt lat="43.7444567" lon="12.6869183"><ele>354.0</ele><time>2026-04-12T10:20:41.027Z</time></trkpt><trkpt lat="43.7446317" lon="12.686975"><ele>354.0</ele><time>2026-04-12T10:20:42.03Z</time></trkpt><trkpt lat="43.7448133" lon="12.6870133"><ele>354.0</ele><time>2026-04-12T10:20:43.026Z</time></trkpt><trkpt lat="43.744975" lon="12.687035"><ele>354.0</ele><time>2026-04-12T10:20:44.028Z</time></trkpt><trkpt lat="43.7451167" lon="12.68704"><ele>354.0</ele><time>2026-04-12T10:20:45.026Z</time></trkpt><trkpt lat="43.7452417" lon="12.6870383"><ele>354.0</ele><time>2026-04-12T10:20:46.028Z</time></trkpt><trkpt lat="43.7453667" lon="12.6870167"><ele>354.0</ele><time>2026-04-12T10:20:47.03Z</time></trkpt><trkpt lat="43.745505" lon="12.6869583"><ele>353.25</ele><time>2026-04-12T10:20:48.031Z</time></trkpt><trkpt lat="43.7456483" lon="12.6868817"><ele>352.5</ele><time>2026-04-12T10:20:49.028Z</time></trkpt><trkpt lat="43.7457867" lon="12.68681"><ele>351.75</ele><time>2026-04-12T10:20:50.024Z</time></trkpt><trkpt lat="43.745915" lon="12.6867417"><ele>351.0</ele><time>2026-04-12T10:20:51.028Z</time></trkpt><trkpt lat="43.746035" lon="12.6866717"><ele>350.25</ele><time>2026-04-12T10:20:52.025Z</time></trkpt><trkpt lat="43.7461417" lon="12.6866033"><ele>349.5</ele><time>2026-04-12T10:20:53.028Z</time></trkpt><trkpt lat="43.7462467" lon="12.686535"><ele>348.75</ele><time>2026-04-12T10:20:54.028Z</time></trkpt><trkpt lat="43.7463533" lon="12.6864683"><ele>348.0</ele><time>2026-04-12T10:20:55.028Z</time></trkpt><trkpt lat="43.7464833" lon="12.6864017"><ele>348.0</ele><time>2026-04-12T10:20:56.027Z</time></trkpt><trkpt lat="43.74663" lon="12.6863333"><ele>348.0</ele><time>2026-04-12T10:20:57.028Z</time></trkpt><trkpt lat="43.7467867" lon="12.6862617"><ele>348.0</ele><time>2026-04-12T10:20:58.03Z</time></trkpt><trkpt lat="43.7469317" lon="12.686185"><ele>344.0</ele><time>2026-04-12T10:20:59.025Z</time></trkpt><trkpt lat="43.7470633" lon="12.68612"><ele>340.0</ele><time>2026-04-12T10:21:00.031Z</time></trkpt><trkpt lat="43.7471917" lon="12.6860667"><ele>336.0</ele><time>2026-04-12T10:21:01.028Z</time></trkpt><trkpt lat="43.7473167" lon="12.6860167"><ele>332.0</ele><time>2026-04-12T10:21:02.025Z</time></trkpt><trkpt lat="43.747445" lon="12.6859617"><ele>331.75</ele><time>2026-04-12T10:21:03.043Z</time></trkpt><trkpt lat="43.7475683" lon="12.685895"><ele>331.5</ele><time>2026-04-12T10:21:04.027Z</time></trkpt><trkpt lat="43.7476917" lon="12.6858267"><ele>331.25</ele><time>2026-04-12T10:21:05.029Z</time></trkpt><trkpt lat="43.7478183" lon="12.6857617"><ele>331.0</ele><time>2026-04-12T10:21:06.028Z</time></trkpt><trkpt lat="43.7479533" lon="12.6857167"><ele>328.25</ele><time>2026-04-12T10:21:07.032Z</time></trkpt><trkpt lat="43.7480983" lon="12.685695"><ele>325.5</ele><time>2026-04-12T10:21:08.025Z</time></trkpt><trkpt lat="43.7482383" lon="12.6856967"><ele>322.75</ele><time>2026-04-12T10:21:09.028Z</time></trkpt><trkpt lat="43.7483617" lon="12.6856917"><ele>320.0</ele><time>2026-04-12T10:21:10.028Z</time></trkpt><trkpt lat="43.7484667" lon="12.68567"><ele>320.4</ele><time>2026-04-12T10:21:11.035Z</time></trkpt><trkpt lat="43.7485567" lon="12.6856333"><ele>320.8</ele><time>2026-04-12T10:21:12.026Z</time></trkpt><trkpt lat="43.74863" lon="12.6855767"><ele>321.20000000000005</ele><time>2026-04-12T10:21:13.028Z</time></trkpt><trkpt lat="43.74869" lon="12.6855033"><ele>321.6</ele><time>2026-04-12T10:21:14.028Z</time></trkpt><trkpt lat="43.7487533" lon="12.68542"><ele>322.0</ele><time>2026-04-12T10:21:15.027Z</time></trkpt><trkpt lat="43.7488317" lon="12.68532"><ele>322.0</ele><time>2026-04-12T10:21:16.027Z</time></trkpt><trkpt lat="43.7489133" lon="12.6851833"><ele>322.0</ele><time>2026-04-12T10:21:17.028Z</time></trkpt><trkpt lat="43.7489917" lon="12.68503"><ele>322.0</ele><time>2026-04-12T10:21:18.033Z</time></trkpt><trkpt lat="43.7490583" lon="12.6848867"><ele>322.0</ele><time>2026-04-12T10:21:19.038Z</time></trkpt><trkpt lat="43.74913" lon="12.6847717"><ele>322.0</ele><time>2026-04-12T10:21:20.027Z</time></trkpt><trkpt lat="43.7492183" lon="12.684695"><ele>322.0</ele><time>2026-04-12T10:21:21.033Z</time></trkpt><trkpt lat="43.749325" lon="12.6846567"><ele>322.0</ele><time>2026-04-12T10:21:22.029Z</time></trkpt><trkpt lat="43.749455" lon="12.68466"><ele>322.0</ele><time>2026-04-12T10:21:23.026Z</time></trkpt><trkpt lat="43.7495883" lon="12.68469"><ele>322.0</ele><time>2026-04-12T10:21:24.027Z</time></trkpt><trkpt lat="43.7497167" lon="12.6847317"><ele>322.0</ele><time>2026-04-12T10:21:25.029Z</time></trkpt><trkpt lat="43.7498283" lon="12.68474"><ele>322.0</ele><time>2026-04-12T10:21:26.025Z</time></trkpt><trkpt lat="43.749925" lon="12.6846933"><ele>322.0</ele><time>2026-04-12T10:21:27.027Z</time></trkpt><trkpt lat="43.7500167" lon="12.6845817"><ele>320.3333333333333</ele><time>2026-04-12T10:21:28.025Z</time></trkpt><trkpt lat="43.7501" lon="12.6844283"><ele>318.6666666666667</ele><time>2026-04-12T10:21:29.027Z</time></trkpt><trkpt lat="43.7501817" lon="12.68423"><ele>317.0</ele><time>2026-04-12T10:21:30.025Z</time></trkpt><trkpt lat="43.7502617" lon="12.6840017"><ele>316.6666666666667</ele><time>2026-04-12T10:21:31.03Z</time></trkpt><trkpt lat="43.750335" lon="12.6837683"><ele>316.3333333333333</ele><time>2026-04-12T10:21:32.029Z</time></trkpt><trkpt lat="43.7503983" lon="12.68356"><ele>316.0</ele><time>2026-04-12T10:21:33.027Z</time></trkpt><trkpt lat="43.7504533" lon="12.6833683"><ele>316.75</ele><time>2026-04-12T10:21:34.031Z</time></trkpt><trkpt lat="43.750505" lon="12.6832"><ele>317.5</ele><time>2026-04-12T10:21:35.027Z</time></trkpt><trkpt lat="43.750565" lon="12.6830517"><ele>318.25</ele><time>2026-04-12T10:21:36.027Z</time></trkpt><trkpt lat="43.750635" lon="12.6829267"><ele>319.0</ele><time>2026-04-12T10:21:37.025Z</time></trkpt><trkpt lat="43.750715" lon="12.6828067"><ele>316.75</ele><time>2026-04-12T10:21:38.026Z</time></trkpt><trkpt lat="43.7508083" lon="12.68269"><ele>314.5</ele><time>2026-04-12T10:21:39.028Z</time></trkpt><trkpt lat="43.7509017" lon="12.682585"><ele>312.25</ele><time>2026-04-12T10:21:40.03Z</time></trkpt><trkpt lat="43.7509917" lon="12.6824717"><ele>310.0</ele><time>2026-04-12T10:21:41.027Z</time></trkpt><trkpt lat="43.7510733" lon="12.682315"><ele>308.0</ele><time>2026-04-12T10:21:42.031Z</time></trkpt><trkpt lat="43.7511417" lon="12.6821233"><ele>306.0</ele><time>2026-04-12T10:21:43.029Z</time></trkpt><trkpt lat="43.7512017" lon="12.68194"><ele>304.0</ele><time>2026-04-12T10:21:44.026Z</time></trkpt><trkpt lat="43.75126" lon="12.6817517"><ele>302.0</ele><time>2026-04-12T10:21:45.024Z</time></trkpt><trkpt lat="43.75132" lon="12.68157"><ele>301.0</ele><time>2026-04-12T10:21:46.029Z</time></trkpt><trkpt lat="43.75138" lon="12.6813883"><ele>300.0</ele><time>2026-04-12T10:21:47.026Z</time></trkpt><trkpt lat="43.7514383" lon="12.6811933"><ele>299.0</ele><time>2026-04-12T10:21:48.027Z</time></trkpt><trkpt lat="43.7515017" lon="12.6809883"><ele>297.6666666666667</ele><time>2026-04-12T10:21:49.026Z</time></trkpt><trkpt lat="43.7515667" lon="12.6807717"><ele>296.3333333333333</ele><time>2026-04-12T10:21:50.029Z</time></trkpt><trkpt lat="43.7516317" lon="12.6805533"><ele>295.0</ele><time>2026-04-12T10:21:51.026Z</time></trkpt><trkpt lat="43.7517" lon="12.6803433"><ele>294.66666666666663</ele><time>2026-04-12T10:21:52.025Z</time></trkpt><trkpt lat="43.75177" lon="12.68014"><ele>294.3333333333333</ele><time>2026-04-12T10:21:53.027Z</time></trkpt><trkpt lat="43.7518383" lon="12.67994"><ele>294.0</ele><time>2026-04-12T10:21:54.029Z</time></trkpt><trkpt lat="43.7519" lon="12.679745"><ele>290.5</ele><time>2026-04-12T10:21:55.027Z</time></trkpt><trkpt lat="43.751965" lon="12.6795667"><ele>287.0</ele><time>2026-04-12T10:21:56.028Z</time></trkpt><trkpt lat="43.752025" lon="12.6794"><ele>283.5</ele><time>2026-04-12T10:21:57.027Z</time></trkpt><trkpt lat="43.7520717" lon="12.6792333"><ele>280.0</ele><time>2026-04-12T10:21:58.031Z</time></trkpt><trkpt lat="43.752115" lon="12.679055"><ele>280.0</ele><time>2026-04-12T10:21:59.029Z</time></trkpt><trkpt lat="43.752145" lon="12.67885"><ele>280.0</ele><time>2026-04-12T10:22:00.028Z</time></trkpt><trkpt lat="43.7521767" lon="12.6786167"><ele>280.0</ele><time>2026-04-12T10:22:01.03Z</time></trkpt><trkpt lat="43.7522067" lon="12.6783767"><ele>280.3333333333333</ele><time>2026-04-12T10:22:02.027Z</time></trkpt><trkpt lat="43.75224" lon="12.6781433"><ele>280.6666666666667</ele><time>2026-04-12T10:22:03.029Z</time></trkpt><trkpt lat="43.75227" lon="12.6779333"><ele>281.0</ele><time>2026-04-12T10:22:04.028Z</time></trkpt><trkpt lat="43.7523017" lon="12.6777383"><ele>281.0</ele><time>2026-04-12T10:22:05.027Z</time></trkpt><trkpt lat="43.7523333" lon="12.677555"><ele>281.0</ele><time>2026-04-12T10:22:06.032Z</time></trkpt><trkpt lat="43.7523633" lon="12.6773767"><ele>281.0</ele><time>2026-04-12T10:22:07.03Z</time></trkpt><trkpt lat="43.75238" lon="12.677195"><ele>281.0</ele><time>2026-04-12T10:22:08.029Z</time></trkpt><trkpt lat="43.75239" lon="12.6769867"><ele>280.33333333333337</ele><time>2026-04-12T10:22:09.031Z</time></trkpt><trkpt lat="43.752395" lon="12.67675"><ele>279.6666666666667</ele><time>2026-04-12T10:22:10.028Z</time></trkpt><trkpt lat="43.752395" lon="12.676485"><ele>279.0</ele><time>2026-04-12T10:22:11.029Z</time></trkpt><trkpt lat="43.7523917" lon="12.6762"><ele>277.6666666666667</ele><time>2026-04-12T10:22:12.026Z</time></trkpt><trkpt lat="43.7523917" lon="12.67592"><ele>276.33333333333337</ele><time>2026-04-12T10:22:13.026Z</time></trkpt><trkpt lat="43.75239" lon="12.6756633"><ele>275.0</ele><time>2026-04-12T10:22:14.028Z</time></trkpt><trkpt lat="43.75239" lon="12.6754267"><ele>272.33333333333337</ele><time>2026-04-12T10:22:15.026Z</time></trkpt><trkpt lat="43.7523917" lon="12.6752017"><ele>269.6666666666667</ele><time>2026-04-12T10:22:16.028Z</time></trkpt><trkpt lat="43.7523933" lon="12.6749867"><ele>267.0</ele><time>2026-04-12T10:22:17.027Z</time></trkpt><trkpt lat="43.7523983" lon="12.6747817"><ele>267.0</ele><time>2026-04-12T10:22:18.03Z</time></trkpt><trkpt lat="43.7524" lon="12.6745817"><ele>267.0</ele><time>2026-04-12T10:22:19.029Z</time></trkpt><trkpt lat="43.7523967" lon="12.674385"><ele>267.0</ele><time>2026-04-12T10:22:20.029Z</time></trkpt><trkpt lat="43.752385" lon="12.6741783"><ele>267.0</ele><time>2026-04-12T10:22:21.038Z</time></trkpt><trkpt lat="43.752365" lon="12.673975"><ele>265.0</ele><time>2026-04-12T10:22:22.029Z</time></trkpt><trkpt lat="43.7523317" lon="12.673785"><ele>263.0</ele><time>2026-04-12T10:22:23.025Z</time></trkpt><trkpt lat="43.75229" lon="12.6736083"><ele>261.0</ele><time>2026-04-12T10:22:24.029Z</time></trkpt><trkpt lat="43.7522483" lon="12.673455"><ele>259.0</ele><time>2026-04-12T10:22:25.03Z</time></trkpt><trkpt lat="43.752215" lon="12.67332"><ele>257.25</ele><time>2026-04-12T10:22:26.028Z</time></trkpt><trkpt lat="43.7522" lon="12.673185"><ele>255.5</ele><time>2026-04-12T10:22:27.027Z</time></trkpt><trkpt lat="43.7522083" lon="12.67304"><ele>253.75</ele><time>2026-04-12T10:22:28.029Z</time></trkpt><trkpt lat="43.752255" lon="12.672885"><ele>252.0</ele><time>2026-04-12T10:22:29.026Z</time></trkpt><trkpt lat="43.752325" lon="12.672735"><ele>250.6</ele><time>2026-04-12T10:22:30.027Z</time></trkpt><trkpt lat="43.7523933" lon="12.672605"><ele>249.2</ele><time>2026-04-12T10:22:31.034Z</time></trkpt><trkpt lat="43.75245" lon="12.672485"><ele>247.8</ele><time>2026-04-12T10:22:32.029Z</time></trkpt><trkpt lat="43.752495" lon="12.6723533"><ele>246.4</ele><time>2026-04-12T10:22:33.028Z</time></trkpt><trkpt lat="43.7525167" lon="12.6722083"><ele>245.0</ele><time>2026-04-12T10:22:34.028Z</time></trkpt><trkpt lat="43.7525067" lon="12.6720567"><ele>242.8</ele><time>2026-04-12T10:22:35.027Z</time></trkpt><trkpt lat="43.7524783" lon="12.6719067"><ele>240.6</ele><time>2026-04-12T10:22:36.029Z</time></trkpt><trkpt lat="43.7524283" lon="12.6717867"><ele>238.39999999999998</ele><time>2026-04-12T10:22:37.033Z</time></trkpt><trkpt lat="43.75236" lon="12.6717017"><ele>236.2</ele><time>2026-04-12T10:22:38.03Z</time></trkpt><trkpt lat="43.752275" lon="12.6716467"><ele>234.0</ele><time>2026-04-12T10:22:39.032Z</time></trkpt><trkpt lat="43.7521667" lon="12.6716317"><ele>234.0</ele><time>2026-04-12T10:22:40.027Z</time></trkpt><trkpt lat="43.752015" lon="12.6716933"><ele>234.0</ele><time>2026-04-12T10:22:41.03Z</time></trkpt><trkpt lat="43.7518817" lon="12.6717383"><ele>234.0</ele><time>2026-04-12T10:22:42.027Z</time></trkpt><trkpt lat="43.7517517" lon="12.6717867"><ele>234.0</ele><time>2026-04-12T10:22:43.029Z</time></trkpt><trkpt lat="43.7516333" lon="12.67183"><ele>233.33333333333334</ele><time>2026-04-12T10:22:44.025Z</time></trkpt><trkpt lat="43.751535" lon="12.6718733"><ele>232.66666666666669</ele><time>2026-04-12T10:22:45.027Z</time></trkpt><trkpt lat="43.7514483" lon="12.6719117"><ele>232.0</ele><time>2026-04-12T10:22:46.033Z</time></trkpt><trkpt lat="43.7513783" lon="12.6719333"><ele>231.33333333333334</ele><time>2026-04-12T10:22:47.025Z</time></trkpt><trkpt lat="43.7513117" lon="12.6719267"><ele>230.66666666666669</ele><time>2026-04-12T10:22:48.03Z</time></trkpt><trkpt lat="43.75128" lon="12.6718017"><ele>230.0</ele><time>2026-04-12T10:22:50.027Z</time></trkpt><trkpt lat="43.7513217" lon="12.6717183"><ele>230.0</ele><time>2026-04-12T10:22:51.026Z</time></trkpt><trkpt lat="43.751435" lon="12.6716317"><ele>230.0</ele><time>2026-04-12T10:22:52.03Z</time></trkpt><trkpt lat="43.75157" lon="12.6715433"><ele>230.0</ele><time>2026-04-12T10:22:53.027Z</time></trkpt><trkpt lat="43.751705" lon="12.6714433"><ele>230.0</ele><time>2026-04-12T10:22:54.028Z</time></trkpt><trkpt lat="43.7518383" lon="12.6713417"><ele>231.33333333333334</ele><time>2026-04-12T10:22:55.029Z</time></trkpt><trkpt lat="43.75197" lon="12.671235"><ele>232.66666666666669</ele><time>2026-04-12T10:22:56.029Z</time></trkpt><trkpt lat="43.7520867" lon="12.6710917"><ele>234.0</ele><time>2026-04-12T10:22:57.029Z</time></trkpt><trkpt lat="43.7521833" lon="12.6709333"><ele>231.25</ele><time>2026-04-12T10:22:58.029Z</time></trkpt><trkpt lat="43.7522617" lon="12.67079"><ele>228.5</ele><time>2026-04-12T10:22:59.026Z</time></trkpt><trkpt lat="43.7523417" lon="12.67067"><ele>225.75</ele><time>2026-04-12T10:23:00.03Z</time></trkpt><trkpt lat="43.7524417" lon="12.6705767"><ele>223.0</ele><time>2026-04-12T10:23:01.03Z</time></trkpt><trkpt lat="43.752575" lon="12.6705017"><ele>220.5</ele><time>2026-04-12T10:23:02.03Z</time></trkpt><trkpt lat="43.7527233" lon="12.6704217"><ele>218.0</ele><time>2026-04-12T10:23:03.025Z</time></trkpt><trkpt lat="43.75287" lon="12.67035"><ele>215.5</ele><time>2026-04-12T10:23:04.031Z</time></trkpt><trkpt lat="43.7529967" lon="12.6702883"><ele>213.0</ele><time>2026-04-12T10:23:05.028Z</time></trkpt><trkpt lat="43.753115" lon="12.6702367"><ele>209.75</ele><time>2026-04-12T10:23:06.03Z</time></trkpt><trkpt lat="43.753235" lon="12.6702"><ele>206.5</ele><time>2026-04-12T10:23:07.027Z</time></trkpt><trkpt lat="43.7533517" lon="12.6701467"><ele>203.25</ele><time>2026-04-12T10:23:08.028Z</time></trkpt><trkpt lat="43.7534517" lon="12.670075"><ele>200.0</ele><time>2026-04-12T10:23:09.028Z</time></trkpt><trkpt lat="43.75353" lon="12.6699983"><ele>198.2</ele><time>2026-04-12T10:23:10.03Z</time></trkpt><trkpt lat="43.753595" lon="12.6699283"><ele>196.4</ele><time>2026-04-12T10:23:11.026Z</time></trkpt><trkpt lat="43.753655" lon="12.66988"><ele>194.60000000000002</ele><time>2026-04-12T10:23:12.03Z</time></trkpt><trkpt lat="43.753745" lon="12.66995"><ele>192.8</ele><time>2026-04-12T10:23:14.028Z</time></trkpt><trkpt lat="43.753705" lon="12.6701483"><ele>191.0</ele><time>2026-04-12T10:23:16.026Z</time></trkpt><trkpt lat="43.753655" lon="12.670275"><ele>191.0</ele><time>2026-04-12T10:23:17.029Z</time></trkpt><trkpt lat="43.7536217" lon="12.670495"><ele>191.0</ele><time>2026-04-12T10:23:18.025Z</time></trkpt><trkpt lat="43.7536217" lon="12.6706783"><ele>191.0</ele><time>2026-04-12T10:23:19.025Z</time></trkpt><trkpt lat="43.753625" lon="12.6708233"><ele>191.0</ele><time>2026-04-12T10:23:20.031Z</time></trkpt><trkpt lat="43.7536367" lon="12.6709383"><ele>191.0</ele><time>2026-04-12T10:23:21.031Z</time></trkpt><trkpt lat="43.7536467" lon="12.6710467"><ele>191.0</ele><time>2026-04-12T10:23:22.032Z</time></trkpt><trkpt lat="43.7536833" lon="12.6711883"><ele>191.0</ele><time>2026-04-12T10:23:24.026Z</time></trkpt><trkpt lat="43.7537367" lon="12.67104"><ele>191.0</ele><time>2026-04-12T10:23:27.026Z</time></trkpt><trkpt lat="43.7537417" lon="12.6709167"><ele>191.0</ele><time>2026-04-12T10:23:28.026Z</time></trkpt><trkpt lat="43.753745" lon="12.67078"><ele>191.0</ele><time>2026-04-12T10:23:29.028Z</time></trkpt><trkpt lat="43.7537667" lon="12.6706317"><ele>191.0</ele><time>2026-04-12T10:23:30.028Z</time></trkpt><trkpt lat="43.7538183" lon="12.6704783"><ele>191.0</ele><time>2026-04-12T10:23:31.025Z</time></trkpt><trkpt lat="43.753885" lon="12.670335"><ele>191.0</ele><time>2026-04-12T10:23:32.029Z</time></trkpt><trkpt lat="43.7539517" lon="12.6701967"><ele>191.0</ele><time>2026-04-12T10:23:33.028Z</time></trkpt><trkpt lat="43.754" lon="12.6700533"><ele>191.0</ele><time>2026-04-12T10:23:34.031Z</time></trkpt><trkpt lat="43.7540317" lon="12.6699"><ele>191.0</ele><time>2026-04-12T10:23:35.032Z</time></trkpt><trkpt lat="43.754035" lon="12.6697433"><ele>191.0</ele><time>2026-04-12T10:23:36.027Z</time></trkpt><trkpt lat="43.7539983" lon="12.6696033"><ele>191.0</ele><time>2026-04-12T10:23:37.03Z</time></trkpt><trkpt lat="43.7539383" lon="12.669485"><ele>191.0</ele><time>2026-04-12T10:23:38.035Z</time></trkpt><trkpt lat="43.75388" lon="12.6693717"><ele>191.0</ele><time>2026-04-12T10:23:39.029Z</time></trkpt><trkpt lat="43.7538233" lon="12.6692667"><ele>191.0</ele><time>2026-04-12T10:23:40.029Z</time></trkpt><trkpt lat="43.7537533" lon="12.669175"><ele>191.0</ele><time>2026-04-12T10:23:41.027Z</time></trkpt><trkpt lat="43.75368" lon="12.6690967"><ele>189.83333333333331</ele><time>2026-04-12T10:23:42.028Z</time></trkpt><trkpt lat="43.7536" lon="12.669045"><ele>188.66666666666666</ele><time>2026-04-12T10:23:43.027Z</time></trkpt><trkpt lat="43.7535167" lon="12.66902"><ele>187.5</ele><time>2026-04-12T10:23:44.025Z</time></trkpt><trkpt lat="43.7534367" lon="12.66903"><ele>186.33333333333334</ele><time>2026-04-12T10:23:45.027Z</time></trkpt><trkpt lat="43.7533583" lon="12.6691083"><ele>185.16666666666669</ele><time>2026-04-12T10:23:46.03Z</time></trkpt><trkpt lat="43.7532933" lon="12.6691783"><ele>184.0</ele><time>2026-04-12T10:23:47.03Z</time></trkpt><trkpt lat="43.7532233" lon="12.6692267"><ele>184.0</ele><time>2026-04-12T10:23:48.031Z</time></trkpt><trkpt lat="43.7531217" lon="12.6692067"><ele>184.0</ele><time>2026-04-12T10:23:50.032Z</time></trkpt><trkpt lat="43.75313" lon="12.66912"><ele>184.0</ele><time>2026-04-12T10:23:51.03Z</time></trkpt><trkpt lat="43.7531617" lon="12.6690167"><ele>184.0</ele><time>2026-04-12T10:23:52.03Z</time></trkpt><trkpt lat="43.7532233" lon="12.668885"><ele>184.0</ele><time>2026-04-12T10:23:53.028Z</time></trkpt><trkpt lat="43.7533083" lon="12.6687383"><ele>183.39999999999998</ele><time>2026-04-12T10:23:54.027Z</time></trkpt><trkpt lat="43.75338" lon="12.6686083"><ele>182.8</ele><time>2026-04-12T10:23:55.024Z</time></trkpt><trkpt lat="43.753455" lon="12.66851"><ele>182.2</ele><time>2026-04-12T10:23:56.026Z</time></trkpt><trkpt lat="43.7535233" lon="12.6684467"><ele>181.60000000000002</ele><time>2026-04-12T10:23:57.028Z</time></trkpt><trkpt lat="43.75362" lon="12.6684733"><ele>181.0</ele><time>2026-04-12T10:23:58.03Z</time></trkpt><trkpt lat="43.75372" lon="12.6685583"><ele>181.4</ele><time>2026-04-12T10:23:59.03Z</time></trkpt><trkpt lat="43.7538217" lon="12.6686517"><ele>181.8</ele><time>2026-04-12T10:24:00.028Z</time></trkpt><trkpt lat="43.7539267" lon="12.6687083"><ele>182.20000000000002</ele><time>2026-04-12T10:24:01.027Z</time></trkpt><trkpt lat="43.7540267" lon="12.6687117"><ele>182.60000000000002</ele><time>2026-04-12T10:24:02.03Z</time></trkpt><trkpt lat="43.75412" lon="12.6686533"><ele>183.0</ele><time>2026-04-12T10:24:03.028Z</time></trkpt><trkpt lat="43.754205" lon="12.6685517"><ele>182.0</ele><time>2026-04-12T10:24:04.027Z</time></trkpt><trkpt lat="43.7542633" lon="12.668415"><ele>181.0</ele><time>2026-04-12T10:24:05.029Z</time></trkpt><trkpt lat="43.7542817" lon="12.6682367"><ele>180.0</ele><time>2026-04-12T10:24:06.029Z</time></trkpt><trkpt lat="43.7543" lon="12.6680667"><ele>179.0</ele><time>2026-04-12T10:24:07.029Z</time></trkpt><trkpt lat="43.754325" lon="12.6679267"><ele>179.0</ele><time>2026-04-12T10:24:08.029Z</time></trkpt><trkpt lat="43.7543633" lon="12.6678083"><ele>179.0</ele><time>2026-04-12T10:24:09.031Z</time></trkpt><trkpt lat="43.7544067" lon="12.66771"><ele>179.0</ele><time>2026-04-12T10:24:10.03Z</time></trkpt><trkpt lat="43.7544583" lon="12.6676133"><ele>179.0</ele><time>2026-04-12T10:24:11.028Z</time></trkpt><trkpt lat="43.754515" lon="12.66751"><ele>179.0</ele><time>2026-04-12T10:24:12.029Z</time></trkpt><trkpt lat="43.7545683" lon="12.6674067"><ele>179.0</ele><time>2026-04-12T10:24:13.03Z</time></trkpt><trkpt lat="43.7546217" lon="12.6673117"><ele>178.83333333333331</ele><time>2026-04-12T10:24:14.03Z</time></trkpt><trkpt lat="43.7546733" lon="12.66723"><ele>178.66666666666666</ele><time>2026-04-12T10:24:15.027Z</time></trkpt><trkpt lat="43.7547333" lon="12.6671783"><ele>178.5</ele><time>2026-04-12T10:24:16.03Z</time></trkpt><trkpt lat="43.7548083" lon="12.6671717"><ele>178.33333333333334</ele><time>2026-04-12T10:24:17.024Z</time></trkpt><trkpt lat="43.7548983" lon="12.667195"><ele>178.16666666666669</ele><time>2026-04-12T10:24:18.031Z</time></trkpt><trkpt lat="43.7550017" lon="12.6672283"><ele>178.0</ele><time>2026-04-12T10:24:19.031Z</time></trkpt><trkpt lat="43.7551083" lon="12.667255"><ele>178.0</ele><time>2026-04-12T10:24:20.029Z</time></trkpt><trkpt lat="43.755215" lon="12.6672733"><ele>178.0</ele><time>2026-04-12T10:24:21.033Z</time></trkpt><trkpt lat="43.7553183" lon="12.6672917"><ele>178.0</ele><time>2026-04-12T10:24:22.03Z</time></trkpt><trkpt lat="43.7554217" lon="12.6673083"><ele>178.0</ele><time>2026-04-12T10:24:23.029Z</time></trkpt><trkpt lat="43.7555267" lon="12.667325"><ele>178.0</ele><time>2026-04-12T10:24:24.032Z</time></trkpt><trkpt lat="43.755635" lon="12.6673433"><ele>178.0</ele><time>2026-04-12T10:24:25.027Z</time></trkpt><trkpt lat="43.7557433" lon="12.667365"><ele>178.0</ele><time>2026-04-12T10:24:26.029Z</time></trkpt><trkpt lat="43.755845" lon="12.6673817"><ele>178.0</ele><time>2026-04-12T10:24:27.031Z</time></trkpt><trkpt lat="43.7559383" lon="12.6674"><ele>178.0</ele><time>2026-04-12T10:24:28.029Z</time></trkpt><trkpt lat="43.7560217" lon="12.6674167"><ele>178.0</ele><time>2026-04-12T10:24:29.03Z</time></trkpt><trkpt lat="43.7560967" lon="12.66743"><ele>178.33333333333334</ele><time>2026-04-12T10:24:30.033Z</time></trkpt><trkpt lat="43.7561617" lon="12.66744"><ele>178.66666666666669</ele><time>2026-04-12T10:24:31.032Z</time></trkpt><trkpt lat="43.756275" lon="12.6674433"><ele>179.0</ele><time>2026-04-12T10:24:33.032Z</time></trkpt><trkpt lat="43.7563667" lon="12.6674233"><ele>179.33333333333334</ele><time>2026-04-12T10:24:35.03Z</time></trkpt><trkpt lat="43.756435" lon="12.6673917"><ele>179.66666666666666</ele><time>2026-04-12T10:24:37.036Z</time></trkpt><trkpt lat="43.7564567" lon="12.6672933"><ele>180.0</ele><time>2026-04-12T10:29:14.025Z</time></trkpt><trkpt lat="43.7565" lon="12.6672067"><ele>180.0</ele><time>2026-04-12T10:29:16.027Z</time></trkpt><trkpt lat="43.75657" lon="12.667125"><ele>180.0</ele><time>2026-04-12T10:29:18.029Z</time></trkpt><trkpt lat="43.7566483" lon="12.6670667"><ele>180.0</ele><time>2026-04-12T10:29:20.029Z</time></trkpt><trkpt lat="43.7567117" lon="12.6670283"><ele>180.0</ele><time>2026-04-12T10:29:22.031Z</time></trkpt><trkpt lat="43.7567867" lon="12.6669817"><ele>180.0</ele><time>2026-04-12T10:29:25.034Z</time></trkpt><trkpt lat="43.756845" lon="12.66694"><ele>180.0</ele><time>2026-04-12T10:29:31.03Z</time></trkpt><trkpt lat="43.7569333" lon="12.6668967"><ele>179.16666666666666</ele><time>2026-04-12T10:29:42.033Z</time></trkpt><trkpt lat="43.7569983" lon="12.66689"><ele>178.33333333333334</ele><time>2026-04-12T10:29:43.029Z</time></trkpt><trkpt lat="43.75707" lon="12.6668883"><ele>177.5</ele><time>2026-04-12T10:29:44.027Z</time></trkpt><trkpt lat="43.75715" lon="12.6668883"><ele>176.66666666666669</ele><time>2026-04-12T10:29:45.033Z</time></trkpt><trkpt lat="43.7572317" lon="12.6668817"><ele>175.83333333333334</ele><time>2026-04-12T10:29:46.037Z</time></trkpt><trkpt lat="43.757315" lon="12.666875"><ele>175.0</ele><time>2026-04-12T10:29:47.025Z</time></trkpt><trkpt lat="43.7574033" lon="12.666865"><ele>175.0</ele><time>2026-04-12T10:29:48.033Z</time></trkpt><trkpt lat="43.7575" lon="12.6668467"><ele>175.0</ele><time>2026-04-12T10:29:49.033Z</time></trkpt><trkpt lat="43.7575933" lon="12.6668367"><ele>175.0</ele><time>2026-04-12T10:29:50.034Z</time></trkpt><trkpt lat="43.7576783" lon="12.6668317"><ele>175.0</ele><time>2026-04-12T10:29:51.032Z</time></trkpt><trkpt lat="43.7577567" lon="12.6668317"><ele>175.0</ele><time>2026-04-12T10:29:52.028Z</time></trkpt><trkpt lat="43.75782" lon="12.6668267"><ele>175.0</ele><time>2026-04-12T10:29:53.032Z</time></trkpt><trkpt lat="43.7579033" lon="12.6668433"><ele>174.25</ele><time>2026-04-12T10:29:54.033Z</time></trkpt><trkpt lat="43.7580083" lon="12.666865"><ele>173.5</ele><time>2026-04-12T10:29:55.032Z</time></trkpt><trkpt lat="43.7581233" lon="12.6669083"><ele>172.75</ele><time>2026-04-12T10:29:56.027Z</time></trkpt><trkpt lat="43.758235" lon="12.666985"><ele>172.0</ele><time>2026-04-12T10:29:57.027Z</time></trkpt><trkpt lat="43.7583433" lon="12.6670817"><ele>172.0</ele><time>2026-04-12T10:29:58.028Z</time></trkpt><trkpt lat="43.758445" lon="12.6671883"><ele>172.0</ele><time>2026-04-12T10:29:59.035Z</time></trkpt><trkpt lat="43.7585433" lon="12.6672867"><ele>172.0</ele><time>2026-04-12T10:30:00.03Z</time></trkpt><trkpt lat="43.7586367" lon="12.6673717"><ele>172.0</ele><time>2026-04-12T10:30:01.032Z</time></trkpt><trkpt lat="43.7587283" lon="12.667435"><ele>171.6</ele><time>2026-04-12T10:30:02.033Z</time></trkpt><trkpt lat="43.7588183" lon="12.667485"><ele>171.2</ele><time>2026-04-12T10:30:03.027Z</time></trkpt><trkpt lat="43.7589133" lon="12.6675267"><ele>170.8</ele><time>2026-04-12T10:30:04.029Z</time></trkpt><trkpt lat="43.75901" lon="12.6675517"><ele>170.4</ele><time>2026-04-12T10:30:05.025Z</time></trkpt><trkpt lat="43.7591183" lon="12.6675667"><ele>170.0</ele><time>2026-04-12T10:30:06.031Z</time></trkpt><trkpt lat="43.7592383" lon="12.667575"><ele>171.5</ele><time>2026-04-12T10:30:07.029Z</time></trkpt><trkpt lat="43.7593783" lon="12.6675917"><ele>173.0</ele><time>2026-04-12T10:30:08.029Z</time></trkpt><trkpt lat="43.7595283" lon="12.6676083"><ele>174.5</ele><time>2026-04-12T10:30:09.028Z</time></trkpt><trkpt lat="43.759675" lon="12.667625"><ele>176.0</ele><time>2026-04-12T10:30:10.032Z</time></trkpt><trkpt lat="43.7598117" lon="12.6676417"><ele>176.0</ele><time>2026-04-12T10:30:11.03Z</time></trkpt><trkpt lat="43.759945" lon="12.66765"><ele>176.0</ele><time>2026-04-12T10:30:12.026Z</time></trkpt><trkpt lat="43.7600783" lon="12.6676667"><ele>176.0</ele><time>2026-04-12T10:30:13.028Z</time></trkpt><trkpt lat="43.76021" lon="12.6676867"><ele>176.0</ele><time>2026-04-12T10:30:14.035Z</time></trkpt><trkpt lat="43.76034" lon="12.667705"><ele>177.5</ele><time>2026-04-12T10:30:15.026Z</time></trkpt><trkpt lat="43.7604583" lon="12.66772"><ele>179.0</ele><time>2026-04-12T10:30:16.028Z</time></trkpt><trkpt lat="43.7605767" lon="12.6677433"><ele>180.5</ele><time>2026-04-12T10:30:17.028Z</time></trkpt><trkpt lat="43.7606867" lon="12.6677733"><ele>182.0</ele><time>2026-04-12T10:30:18.03Z</time></trkpt><trkpt lat="43.7607867" lon="12.6678"><ele>179.6</ele><time>2026-04-12T10:30:19.029Z</time></trkpt><trkpt lat="43.760875" lon="12.6678267"><ele>177.2</ele><time>2026-04-12T10:30:20.032Z</time></trkpt><trkpt lat="43.7609683" lon="12.66786"><ele>174.8</ele><time>2026-04-12T10:30:21.026Z</time></trkpt><trkpt lat="43.76107" lon="12.6679083"><ele>172.4</ele><time>2026-04-12T10:30:22.034Z</time></trkpt><trkpt lat="43.7611733" lon="12.6679617"><ele>170.0</ele><time>2026-04-12T10:30:23.026Z</time></trkpt><trkpt lat="43.761275" lon="12.6680283"><ele>169.75</ele><time>2026-04-12T10:30:24.028Z</time></trkpt><trkpt lat="43.7613767" lon="12.6680983"><ele>169.5</ele><time>2026-04-12T10:30:25.033Z</time></trkpt><trkpt lat="43.7614767" lon="12.668175"><ele>169.25</ele><time>2026-04-12T10:30:26.028Z</time></trkpt><trkpt lat="43.761575" lon="12.6682567"><ele>169.0</ele><time>2026-04-12T10:30:27.029Z</time></trkpt><trkpt lat="43.76167" lon="12.668345"><ele>169.0</ele><time>2026-04-12T10:30:28.032Z</time></trkpt><trkpt lat="43.7617667" lon="12.66844"><ele>169.0</ele><time>2026-04-12T10:30:29.03Z</time></trkpt><trkpt lat="43.7618583" lon="12.6685517"><ele>169.0</ele><time>2026-04-12T10:30:30.026Z</time></trkpt><trkpt lat="43.761945" lon="12.6686583"><ele>169.0</ele><time>2026-04-12T10:30:31.029Z</time></trkpt><trkpt lat="43.7620317" lon="12.6687583"><ele>168.2</ele><time>2026-04-12T10:30:32.029Z</time></trkpt><trkpt lat="43.762115" lon="12.66885"><ele>167.39999999999998</ele><time>2026-04-12T10:30:33.027Z</time></trkpt><trkpt lat="43.7621933" lon="12.6689417"><ele>166.6</ele><time>2026-04-12T10:30:34.031Z</time></trkpt><trkpt lat="43.7622717" lon="12.6690333"><ele>165.8</ele><time>2026-04-12T10:30:35.026Z</time></trkpt><trkpt lat="43.762345" lon="12.669115"><ele>165.0</ele><time>2026-04-12T10:30:36.027Z</time></trkpt><trkpt lat="43.76242" lon="12.6691917"><ele>165.0</ele><time>2026-04-12T10:30:37.028Z</time></trkpt><trkpt lat="43.7624883" lon="12.6692583"><ele>165.0</ele><time>2026-04-12T10:30:38.034Z</time></trkpt><trkpt lat="43.7625433" lon="12.669315"><ele>165.0</ele><time>2026-04-12T10:30:39.033Z</time></trkpt><trkpt lat="43.762605" lon="12.6693683"><ele>165.0</ele><time>2026-04-12T10:30:41.031Z</time></trkpt><trkpt lat="43.7626717" lon="12.669395"><ele>165.0</ele><time>2026-04-12T10:30:44.03Z</time></trkpt><trkpt lat="43.7627" lon="12.669295"><ele>165.0</ele><time>2026-04-12T10:30:54.026Z</time></trkpt><trkpt lat="43.7627417" lon="12.6691883"><ele>164.66666666666666</ele><time>2026-04-12T10:30:56.03Z</time></trkpt><trkpt lat="43.7627783" lon="12.669105"><ele>164.33333333333334</ele><time>2026-04-12T10:30:57.029Z</time></trkpt><trkpt lat="43.76281" lon="12.6690183"><ele>164.0</ele><time>2026-04-12T10:30:58.03Z</time></trkpt><trkpt lat="43.76284" lon="12.6689233"><ele>163.66666666666669</ele><time>2026-04-12T10:30:59.03Z</time></trkpt><trkpt lat="43.762865" lon="12.668835"><ele>163.33333333333334</ele><time>2026-04-12T10:31:00.029Z</time></trkpt><trkpt lat="43.7628917" lon="12.6686867"><ele>163.0</ele><time>2026-04-12T10:31:02.029Z</time></trkpt><trkpt lat="43.76287" lon="12.66859"><ele>163.0</ele><time>2026-04-12T10:31:04.028Z</time></trkpt><trkpt lat="43.7627883" lon="12.6686033"><ele>163.0</ele><time>2026-04-12T10:31:06.029Z</time></trkpt><trkpt lat="43.7627217" lon="12.6686467"><ele>163.0</ele><time>2026-04-12T10:31:07.029Z</time></trkpt><trkpt lat="43.762635" lon="12.668695"><ele>163.0</ele><time>2026-04-12T10:31:08.033Z</time></trkpt><trkpt lat="43.7625517" lon="12.6687217"><ele>163.0</ele><time>2026-04-12T10:31:09.027Z</time></trkpt><trkpt lat="43.76248" lon="12.6687233"><ele>163.0</ele><time>2026-04-12T10:31:10.035Z</time></trkpt><trkpt lat="43.762385" lon="12.66865"><ele>165.4</ele><time>2026-04-12T10:31:12.028Z</time></trkpt><trkpt lat="43.7623583" lon="12.6684883"><ele>167.8</ele><time>2026-04-12T10:31:14.029Z</time></trkpt><trkpt lat="43.762355" lon="12.6683633"><ele>170.2</ele><time>2026-04-12T10:31:15.035Z</time></trkpt><trkpt lat="43.76236" lon="12.6681983"><ele>172.6</ele><time>2026-04-12T10:31:16.032Z</time></trkpt><trkpt lat="43.76236" lon="12.668035"><ele>175.0</ele><time>2026-04-12T10:31:17.029Z</time></trkpt><trkpt lat="43.76236" lon="12.6678717"><ele>177.6</ele><time>2026-04-12T10:31:18.025Z</time></trkpt><trkpt lat="43.762355" lon="12.667715"><ele>180.2</ele><time>2026-04-12T10:31:19.036Z</time></trkpt><trkpt lat="43.7623417" lon="12.6675667"><ele>182.8</ele><time>2026-04-12T10:31:20.026Z</time></trkpt><trkpt lat="43.7623183" lon="12.66743"><ele>185.4</ele><time>2026-04-12T10:31:21.03Z</time></trkpt><trkpt lat="43.7622817" lon="12.6672933"><ele>188.0</ele><time>2026-04-12T10:31:22.03Z</time></trkpt><trkpt lat="43.7622333" lon="12.6671617"><ele>188.0</ele><time>2026-04-12T10:31:23.028Z</time></trkpt><trkpt lat="43.7621783" lon="12.6670333"><ele>188.0</ele><time>2026-04-12T10:31:24.024Z</time></trkpt><trkpt lat="43.7621233" lon="12.6669333"><ele>188.0</ele><time>2026-04-12T10:31:25.028Z</time></trkpt><trkpt lat="43.7620617" lon="12.6668533"><ele>188.0</ele><time>2026-04-12T10:31:26.028Z</time></trkpt><trkpt lat="43.7620067" lon="12.6667883"><ele>188.0</ele><time>2026-04-12T10:31:27.033Z</time></trkpt><trkpt lat="43.76194" lon="12.6667417"><ele>188.0</ele><time>2026-04-12T10:31:28.027Z</time></trkpt><trkpt lat="43.7618583" lon="12.6667317"><ele>191.0</ele><time>2026-04-12T10:31:29.026Z</time></trkpt><trkpt lat="43.7617817" lon="12.6667367"><ele>194.0</ele><time>2026-04-12T10:31:30.026Z</time></trkpt><trkpt lat="43.7616867" lon="12.6667117"><ele>197.0</ele><time>2026-04-12T10:31:32.033Z</time></trkpt><trkpt lat="43.7617233" lon="12.6665667"><ele>200.0</ele><time>2026-04-12T10:31:35.026Z</time></trkpt><trkpt lat="43.76178" lon="12.6665"><ele>203.00000000000003</ele><time>2026-04-12T10:31:36.031Z</time></trkpt><trkpt lat="43.7618417" lon="12.6664333"><ele>206.0</ele><time>2026-04-12T10:31:37.034Z</time></trkpt><trkpt lat="43.76189" lon="12.66637"><ele>206.00000000000003</ele><time>2026-04-12T10:31:38.027Z</time></trkpt><trkpt lat="43.7619217" lon="12.6662917"><ele>206.0</ele><time>2026-04-12T10:31:39.03Z</time></trkpt><trkpt lat="43.7618967" lon="12.6661633"><ele>206.0</ele><time>2026-04-12T10:31:41.03Z</time></trkpt><trkpt lat="43.76183" lon="12.6661117"><ele>206.0</ele><time>2026-04-12T10:31:43.028Z</time></trkpt><trkpt lat="43.7617517" lon="12.66615"><ele>206.00000000000003</ele><time>2026-04-12T10:31:45.031Z</time></trkpt><trkpt lat="43.7616933" lon="12.6661967"><ele>206.0</ele><time>2026-04-12T10:31:46.028Z</time></trkpt><trkpt lat="43.7616083" lon="12.66625"><ele>206.16666666666669</ele><time>2026-04-12T10:31:47.029Z</time></trkpt><trkpt lat="43.76153" lon="12.6662683"><ele>206.33333333333334</ele><time>2026-04-12T10:31:48.029Z</time></trkpt><trkpt lat="43.7614517" lon="12.6662617"><ele>206.5</ele><time>2026-04-12T10:31:49.03Z</time></trkpt><trkpt lat="43.7613717" lon="12.6662267"><ele>206.66666666666669</ele><time>2026-04-12T10:31:50.03Z</time></trkpt><trkpt lat="43.76129" lon="12.66618"><ele>206.83333333333334</ele><time>2026-04-12T10:31:51.028Z</time></trkpt><trkpt lat="43.7612133" lon="12.6661183"><ele>207.0</ele><time>2026-04-12T10:31:52.027Z</time></trkpt><trkpt lat="43.7611217" lon="12.6660533"><ele>211.8</ele><time>2026-04-12T10:31:53.027Z</time></trkpt><trkpt lat="43.761035" lon="12.6659783"><ele>216.6</ele><time>2026-04-12T10:31:54.031Z</time></trkpt><trkpt lat="43.76094" lon="12.6659017"><ele>221.40000000000003</ele><time>2026-04-12T10:31:55.025Z</time></trkpt><trkpt lat="43.7608383" lon="12.665825"><ele>226.20000000000002</ele><time>2026-04-12T10:31:56.028Z</time></trkpt><trkpt lat="43.76074" lon="12.6657483"><ele>231.0</ele><time>2026-04-12T10:31:57.03Z</time></trkpt><trkpt lat="43.7606583" lon="12.6656783"><ele>232.20000000000002</ele><time>2026-04-12T10:31:58.025Z</time></trkpt><trkpt lat="43.7605817" lon="12.6655967"><ele>233.40000000000003</ele><time>2026-04-12T10:31:59.028Z</time></trkpt><trkpt lat="43.7605117" lon="12.6655"><ele>234.6</ele><time>2026-04-12T10:32:00.026Z</time></trkpt><trkpt lat="43.76044" lon="12.6653917"><ele>235.8</ele><time>2026-04-12T10:32:01.031Z</time></trkpt><trkpt lat="43.7603667" lon="12.665285"><ele>237.0</ele><time>2026-04-12T10:32:02.026Z</time></trkpt><trkpt lat="43.7602983" lon="12.6651783"><ele>238.2</ele><time>2026-04-12T10:32:03.029Z</time></trkpt><trkpt lat="43.76024" lon="12.6650717"><ele>239.39999999999998</ele><time>2026-04-12T10:32:04.028Z</time></trkpt><trkpt lat="43.7601933" lon="12.6649583"><ele>240.60000000000002</ele><time>2026-04-12T10:32:05.028Z</time></trkpt><trkpt lat="43.7601533" lon="12.6648317"><ele>241.8</ele><time>2026-04-12T10:32:06.03Z</time></trkpt><trkpt lat="43.7601183" lon="12.6646833"><ele>243.0</ele><time>2026-04-12T10:32:07.029Z</time></trkpt><trkpt lat="43.7600817" lon="12.66454"><ele>246.2</ele><time>2026-04-12T10:32:08.028Z</time></trkpt><trkpt lat="43.7600417" lon="12.66441"><ele>249.4</ele><time>2026-04-12T10:32:09.03Z</time></trkpt><trkpt lat="43.7599883" lon="12.6642933"><ele>252.59999999999997</ele><time>2026-04-12T10:32:10.029Z</time></trkpt><trkpt lat="43.7599217" lon="12.6641967"><ele>255.79999999999998</ele><time>2026-04-12T10:32:11.034Z</time></trkpt><trkpt lat="43.7598367" lon="12.6641133"><ele>259.0</ele><time>2026-04-12T10:32:12.029Z</time></trkpt><trkpt lat="43.7597383" lon="12.664045"><ele>259.0</ele><time>2026-04-12T10:32:13.03Z</time></trkpt><trkpt lat="43.759605" lon="12.6639733"><ele>259.0</ele><time>2026-04-12T10:32:14.026Z</time></trkpt><trkpt lat="43.7594667" lon="12.6639117"><ele>259.0</ele><time>2026-04-12T10:32:15.026Z</time></trkpt><trkpt lat="43.759335" lon="12.6638733"><ele>259.0</ele><time>2026-04-12T10:32:16.038Z</time></trkpt><trkpt lat="43.75922" lon="12.6638533"><ele>258.2</ele><time>2026-04-12T10:32:17.03Z</time></trkpt><trkpt lat="43.7591167" lon="12.6638467"><ele>257.4</ele><time>2026-04-12T10:32:18.029Z</time></trkpt><trkpt lat="43.75901" lon="12.6638617"><ele>256.6</ele><time>2026-04-12T10:32:19.033Z</time></trkpt><trkpt lat="43.758905" lon="12.66391"><ele>255.8</ele><time>2026-04-12T10:32:20.035Z</time></trkpt><trkpt lat="43.75881" lon="12.6639617"><ele>255.0</ele><time>2026-04-12T10:32:21.029Z</time></trkpt><trkpt lat="43.7587183" lon="12.66401"><ele>255.0</ele><time>2026-04-12T10:32:22.028Z</time></trkpt><trkpt lat="43.7586383" lon="12.6640317"><ele>255.0</ele><time>2026-04-12T10:32:23.026Z</time></trkpt><trkpt lat="43.7585683" lon="12.66404"><ele>255.0</ele><time>2026-04-12T10:32:24.034Z</time></trkpt><trkpt lat="43.758465" lon="12.6639933"><ele>255.0</ele><time>2026-04-12T10:32:26.03Z</time></trkpt><trkpt lat="43.7584167" lon="12.6638833"><ele>255.0</ele><time>2026-04-12T10:32:28.032Z</time></trkpt><trkpt lat="43.7584167" lon="12.6637417"><ele>257.6</ele><time>2026-04-12T10:32:30.026Z</time></trkpt><trkpt lat="43.7584467" lon="12.6635733"><ele>260.2</ele><time>2026-04-12T10:32:32.025Z</time></trkpt><trkpt lat="43.7584717" lon="12.6634733"><ele>262.8</ele><time>2026-04-12T10:32:33.033Z</time></trkpt><trkpt lat="43.7584967" lon="12.6633533"><ele>265.4</ele><time>2026-04-12T10:32:34.032Z</time></trkpt><trkpt lat="43.7585083" lon="12.663225"><ele>268.0</ele><time>2026-04-12T10:32:35.034Z</time></trkpt><trkpt lat="43.7585183" lon="12.6631033"><ele>268.0</ele><time>2026-04-12T10:32:36.03Z</time></trkpt><trkpt lat="43.7585317" lon="12.6630017"><ele>268.0</ele><time>2026-04-12T10:32:37.028Z</time></trkpt><trkpt lat="43.7585683" lon="12.6629067"><ele>268.0</ele><time>2026-04-12T10:32:38.035Z</time></trkpt><trkpt lat="43.7586283" lon="12.6628033"><ele>268.0</ele><time>2026-04-12T10:32:39.028Z</time></trkpt><trkpt lat="43.75871" lon="12.6626883"><ele>268.0</ele><time>2026-04-12T10:32:40.031Z</time></trkpt><trkpt lat="43.7587983" lon="12.6625583"><ele>271.8</ele><time>2026-04-12T10:32:41.03Z</time></trkpt><trkpt lat="43.7588817" lon="12.6624217"><ele>275.6</ele><time>2026-04-12T10:32:42.027Z</time></trkpt><trkpt lat="43.7589433" lon="12.6623017"><ele>279.4</ele><time>2026-04-12T10:32:43.029Z</time></trkpt><trkpt lat="43.7589983" lon="12.6622233"><ele>283.2</ele><time>2026-04-12T10:32:44.026Z</time></trkpt><trkpt lat="43.7590833" lon="12.6621567"><ele>287.0</ele><time>2026-04-12T10:32:46.029Z</time></trkpt><trkpt lat="43.7591433" lon="12.66223"><ele>287.0</ele><time>2026-04-12T10:32:48.025Z</time></trkpt><trkpt lat="43.7591633" lon="12.6623167"><ele>287.0</ele><time>2026-04-12T10:32:49.03Z</time></trkpt><trkpt lat="43.7591917" lon="12.6623967"><ele>287.0</ele><time>2026-04-12T10:32:50.025Z</time></trkpt><trkpt lat="43.759275" lon="12.66251"><ele>287.0</ele><time>2026-04-12T10:32:52.029Z</time></trkpt><trkpt lat="43.7593733" lon="12.66246"><ele>287.0</ele><time>2026-04-12T10:32:54.029Z</time></trkpt><trkpt lat="43.759445" lon="12.6622967"><ele>289.6</ele><time>2026-04-12T10:32:56.028Z</time></trkpt><trkpt lat="43.7594833" lon="12.66217"><ele>292.2</ele><time>2026-04-12T10:32:57.024Z</time></trkpt><trkpt lat="43.7595283" lon="12.662045"><ele>294.8</ele><time>2026-04-12T10:32:58.027Z</time></trkpt><trkpt lat="43.7595883" lon="12.66193"><ele>297.4</ele><time>2026-04-12T10:32:59.03Z</time></trkpt><trkpt lat="43.75966" lon="12.6618367"><ele>300.0</ele><time>2026-04-12T10:33:00.027Z</time></trkpt><trkpt lat="43.7597417" lon="12.66177"><ele>302.0</ele><time>2026-04-12T10:33:01.029Z</time></trkpt><trkpt lat="43.759825" lon="12.6617233"><ele>304.0</ele><time>2026-04-12T10:33:02.03Z</time></trkpt><trkpt lat="43.759915" lon="12.6616667"><ele>306.0</ele><time>2026-04-12T10:33:03.03Z</time></trkpt><trkpt lat="43.76001" lon="12.6615817"><ele>308.0</ele><time>2026-04-12T10:33:04.027Z</time></trkpt><trkpt lat="43.7601083" lon="12.6614817"><ele>310.0</ele><time>2026-04-12T10:33:05.03Z</time></trkpt><trkpt lat="43.7602" lon="12.6613867"><ele>310.0</ele><time>2026-04-12T10:33:06.028Z</time></trkpt><trkpt lat="43.7602767" lon="12.6613"><ele>310.0</ele><time>2026-04-12T10:33:07.026Z</time></trkpt><trkpt lat="43.76033" lon="12.6612133"><ele>310.0</ele><time>2026-04-12T10:33:08.026Z</time></trkpt><trkpt lat="43.760365" lon="12.6611183"><ele>310.0</ele><time>2026-04-12T10:33:09.026Z</time></trkpt><trkpt lat="43.76038" lon="12.6610067"><ele>310.0</ele><time>2026-04-12T10:33:10.03Z</time></trkpt><trkpt lat="43.7603783" lon="12.6608717"><ele>310.0</ele><time>2026-04-12T10:33:11.027Z</time></trkpt><trkpt lat="43.7603583" lon="12.6606817"><ele>310.75</ele><time>2026-04-12T10:33:12.026Z</time></trkpt><trkpt lat="43.7603383" lon="12.6604667"><ele>311.5</ele><time>2026-04-12T10:33:13.029Z</time></trkpt><trkpt lat="43.7603217" lon="12.6602583"><ele>312.25</ele><time>2026-04-12T10:33:14.029Z</time></trkpt><trkpt lat="43.7603117" lon="12.6600683"><ele>313.0</ele><time>2026-04-12T10:33:15.028Z</time></trkpt><trkpt lat="43.7603" lon="12.6598833"><ele>313.0</ele><time>2026-04-12T10:33:16.032Z</time></trkpt><trkpt lat="43.760285" lon="12.6597083"><ele>313.0</ele><time>2026-04-12T10:33:17.028Z</time></trkpt><trkpt lat="43.7602683" lon="12.6595233"><ele>313.0</ele><time>2026-04-12T10:33:18.026Z</time></trkpt><trkpt lat="43.7602517" lon="12.65934"><ele>313.0</ele><time>2026-04-12T10:33:19.029Z</time></trkpt><trkpt lat="43.7602483" lon="12.65917"><ele>314.0</ele><time>2026-04-12T10:33:20.036Z</time></trkpt><trkpt lat="43.7602533" lon="12.6589983"><ele>315.0</ele><time>2026-04-12T10:33:21.029Z</time></trkpt><trkpt lat="43.7602667" lon="12.6588133"><ele>316.0</ele><time>2026-04-12T10:33:22.03Z</time></trkpt><trkpt lat="43.7602883" lon="12.6586233"><ele>317.0</ele><time>2026-04-12T10:33:23.032Z</time></trkpt><trkpt lat="43.7603117" lon="12.65843"><ele>319.0</ele><time>2026-04-12T10:33:24.025Z</time></trkpt><trkpt lat="43.7603367" lon="12.65823"><ele>321.0</ele><time>2026-04-12T10:33:25.031Z</time></trkpt><trkpt lat="43.7603583" lon="12.658035"><ele>323.0</ele><time>2026-04-12T10:33:26.026Z</time></trkpt><trkpt lat="43.7603783" lon="12.657845"><ele>325.0</ele><time>2026-04-12T10:33:27.03Z</time></trkpt><trkpt lat="43.7604017" lon="12.6576583"><ele>327.5</ele><time>2026-04-12T10:33:28.026Z</time></trkpt><trkpt lat="43.7604267" lon="12.6574733"><ele>330.0</ele><time>2026-04-12T10:33:29.025Z</time></trkpt><trkpt lat="43.76045" lon="12.6572967"><ele>332.5</ele><time>2026-04-12T10:33:30.028Z</time></trkpt><trkpt lat="43.7604717" lon="12.65712"><ele>335.0</ele><time>2026-04-12T10:33:31.029Z</time></trkpt><trkpt lat="43.7604867" lon="12.6569567"><ele>337.4</ele><time>2026-04-12T10:33:32.028Z</time></trkpt><trkpt lat="43.7605" lon="12.6568167"><ele>339.8</ele><time>2026-04-12T10:33:33.03Z</time></trkpt><trkpt lat="43.76051" lon="12.6567"><ele>342.20000000000005</ele><time>2026-04-12T10:33:34.029Z</time></trkpt><trkpt lat="43.7605183" lon="12.6566"><ele>344.6</ele><time>2026-04-12T10:33:35.028Z</time></trkpt><trkpt lat="43.7605167" lon="12.656465"><ele>347.0</ele><time>2026-04-12T10:33:37.028Z</time></trkpt><trkpt lat="43.7606183" lon="12.6563933"><ele>347.0</ele><time>2026-04-12T10:34:39.031Z</time></trkpt><trkpt lat="43.7607333" lon="12.6564017"><ele>347.0</ele><time>2026-04-12T10:34:40.034Z</time></trkpt><trkpt lat="43.76086" lon="12.6564"><ele>347.0</ele><time>2026-04-12T10:34:41.031Z</time></trkpt><trkpt lat="43.7609983" lon="12.6564017"><ele>347.0</ele><time>2026-04-12T10:34:42.031Z</time></trkpt><trkpt lat="43.7611467" lon="12.6564067"><ele>345.0</ele><time>2026-04-12T10:34:43.028Z</time></trkpt><trkpt lat="43.7612967" lon="12.65642"><ele>343.0</ele><time>2026-04-12T10:34:44.029Z</time></trkpt><trkpt lat="43.7614367" lon="12.6564283"><ele>341.0</ele><time>2026-04-12T10:34:45.035Z</time></trkpt><trkpt lat="43.7615733" lon="12.6564333"><ele>339.0</ele><time>2026-04-12T10:34:46.032Z</time></trkpt><trkpt lat="43.7617083" lon="12.6564317"><ele>339.0</ele><time>2026-04-12T10:34:47.024Z</time></trkpt><trkpt lat="43.76184" lon="12.6564367"><ele>339.0</ele><time>2026-04-12T10:34:48.03Z</time></trkpt><trkpt lat="43.76197" lon="12.6564433"><ele>339.0</ele><time>2026-04-12T10:34:49.026Z</time></trkpt><trkpt lat="43.7620967" lon="12.6564483"><ele>339.0</ele><time>2026-04-12T10:34:50.031Z</time></trkpt><trkpt lat="43.7622183" lon="12.6564433"><ele>335.75</ele><time>2026-04-12T10:34:51.029Z</time></trkpt><trkpt lat="43.762335" lon="12.6564283"><ele>332.5</ele><time>2026-04-12T10:34:52.033Z</time></trkpt><trkpt lat="43.7624483" lon="12.6564"><ele>329.25</ele><time>2026-04-12T10:34:53.025Z</time></trkpt><trkpt lat="43.7625617" lon="12.65636"><ele>326.0</ele><time>2026-04-12T10:34:54.025Z</time></trkpt><trkpt lat="43.7626683" lon="12.656315"><ele>325.25</ele><time>2026-04-12T10:34:55.028Z</time></trkpt><trkpt lat="43.76278" lon="12.6562717"><ele>324.5</ele><time>2026-04-12T10:34:56.034Z</time></trkpt><trkpt lat="43.7628967" lon="12.6562133"><ele>323.75</ele><time>2026-04-12T10:34:57.03Z</time></trkpt><trkpt lat="43.763015" lon="12.6561317"><ele>323.0</ele><time>2026-04-12T10:34:58.026Z</time></trkpt><trkpt lat="43.763125" lon="12.6560383"><ele>323.0</ele><time>2026-04-12T10:34:59.029Z</time></trkpt><trkpt lat="43.7632183" lon="12.65594"><ele>323.0</ele><time>2026-04-12T10:35:00.031Z</time></trkpt><trkpt lat="43.7633067" lon="12.6558433"><ele>323.0</ele><time>2026-04-12T10:35:01.028Z</time></trkpt><trkpt lat="43.7633917" lon="12.65575"><ele>323.0</ele><time>2026-04-12T10:35:02.031Z</time></trkpt><trkpt lat="43.7634733" lon="12.6556717"><ele>323.0</ele><time>2026-04-12T10:35:03.031Z</time></trkpt><trkpt lat="43.7635433" lon="12.6556117"><ele>319.6666666666667</ele><time>2026-04-12T10:35:04.027Z</time></trkpt><trkpt lat="43.76361" lon="12.6555683"><ele>316.33333333333337</ele><time>2026-04-12T10:35:05.031Z</time></trkpt><trkpt lat="43.7636783" lon="12.6555483"><ele>313.0</ele><time>2026-04-12T10:35:06.033Z</time></trkpt><trkpt lat="43.7637367" lon="12.655585"><ele>309.6666666666667</ele><time>2026-04-12T10:35:07.025Z</time></trkpt><trkpt lat="43.7637867" lon="12.655655"><ele>306.3333333333333</ele><time>2026-04-12T10:35:08.031Z</time></trkpt><trkpt lat="43.76381" lon="12.6557733"><ele>303.0</ele><time>2026-04-12T10:35:09.029Z</time></trkpt><trkpt lat="43.7638183" lon="12.6559233"><ele>303.0</ele><time>2026-04-12T10:35:10.035Z</time></trkpt><trkpt lat="43.763825" lon="12.6560867"><ele>303.0</ele><time>2026-04-12T10:35:11.029Z</time></trkpt><trkpt lat="43.7638317" lon="12.65625"><ele>303.0</ele><time>2026-04-12T10:35:12.027Z</time></trkpt><trkpt lat="43.7638417" lon="12.6564067"><ele>303.0</ele><time>2026-04-12T10:35:13.033Z</time></trkpt><trkpt lat="43.76385" lon="12.656565"><ele>301.75</ele><time>2026-04-12T10:35:14.026Z</time></trkpt><trkpt lat="43.7638617" lon="12.6567333"><ele>300.5</ele><time>2026-04-12T10:35:15.03Z</time></trkpt><trkpt lat="43.7638783" lon="12.6569067"><ele>299.25</ele><time>2026-04-12T10:35:16.03Z</time></trkpt><trkpt lat="43.7638933" lon="12.6570717"><ele>298.0</ele><time>2026-04-12T10:35:17.027Z</time></trkpt><trkpt lat="43.7639117" lon="12.65723"><ele>296.2</ele><time>2026-04-12T10:35:18.026Z</time></trkpt><trkpt lat="43.76394" lon="12.6573833"><ele>294.4</ele><time>2026-04-12T10:35:19.028Z</time></trkpt><trkpt lat="43.763995" lon="12.65751"><ele>292.59999999999997</ele><time>2026-04-12T10:35:20.033Z</time></trkpt><trkpt lat="43.764075" lon="12.6576067"><ele>290.8</ele><time>2026-04-12T10:35:21.031Z</time></trkpt><trkpt lat="43.764175" lon="12.657665"><ele>289.0</ele><time>2026-04-12T10:35:22.031Z</time></trkpt><trkpt lat="43.764285" lon="12.657695"><ele>286.4</ele><time>2026-04-12T10:35:23.031Z</time></trkpt><trkpt lat="43.7643917" lon="12.6577083"><ele>283.79999999999995</ele><time>2026-04-12T10:35:24.026Z</time></trkpt><trkpt lat="43.7644933" lon="12.6577183"><ele>281.20000000000005</ele><time>2026-04-12T10:35:25.03Z</time></trkpt><trkpt lat="43.7645983" lon="12.6577267"><ele>278.6</ele><time>2026-04-12T10:35:26.034Z</time></trkpt><trkpt lat="43.7647083" lon="12.6577367"><ele>276.0</ele><time>2026-04-12T10:35:27.027Z</time></trkpt><trkpt lat="43.7648267" lon="12.65775"><ele>276.0</ele><time>2026-04-12T10:35:28.029Z</time></trkpt><trkpt lat="43.7649533" lon="12.65777"><ele>276.0</ele><time>2026-04-12T10:35:29.029Z</time></trkpt><trkpt lat="43.76508" lon="12.65781"><ele>276.0</ele><time>2026-04-12T10:35:30.031Z</time></trkpt><trkpt lat="43.7651983" lon="12.6578683"><ele>276.0</ele><time>2026-04-12T10:35:31.031Z</time></trkpt><trkpt lat="43.7653" lon="12.6579433"><ele>274.5</ele><time>2026-04-12T10:35:32.031Z</time></trkpt><trkpt lat="43.7653883" lon="12.6580383"><ele>273.0</ele><time>2026-04-12T10:35:33.033Z</time></trkpt><trkpt lat="43.765465" lon="12.65815"><ele>271.5</ele><time>2026-04-12T10:35:34.029Z</time></trkpt><trkpt lat="43.76553" lon="12.6582783"><ele>270.0</ele><time>2026-04-12T10:35:35.034Z</time></trkpt><trkpt lat="43.7655867" lon="12.658435"><ele>269.6666666666667</ele><time>2026-04-12T10:35:36.032Z</time></trkpt><trkpt lat="43.76564" lon="12.6586183"><ele>269.33333333333337</ele><time>2026-04-12T10:35:37.025Z</time></trkpt><trkpt lat="43.7657017" lon="12.658815"><ele>269.0</ele><time>2026-04-12T10:35:38.028Z</time></trkpt><trkpt lat="43.7657633" lon="12.6590183"><ele>269.0</ele><time>2026-04-12T10:35:39.03Z</time></trkpt><trkpt lat="43.7658267" lon="12.659215"><ele>269.0</ele><time>2026-04-12T10:35:40.026Z</time></trkpt><trkpt lat="43.7658933" lon="12.6594033"><ele>269.0</ele><time>2026-04-12T10:35:41.028Z</time></trkpt><trkpt lat="43.76596" lon="12.659585"><ele>267.0</ele><time>2026-04-12T10:35:42.028Z</time></trkpt><trkpt lat="43.76603" lon="12.659755"><ele>265.0</ele><time>2026-04-12T10:35:43.025Z</time></trkpt><trkpt lat="43.7661183" lon="12.6599117"><ele>263.0</ele><time>2026-04-12T10:35:44.029Z</time></trkpt><trkpt lat="43.7662317" lon="12.660045"><ele>261.0</ele><time>2026-04-12T10:35:45.031Z</time></trkpt><trkpt lat="43.76637" lon="12.6601567"><ele>261.0</ele><time>2026-04-12T10:35:46.033Z</time></trkpt><trkpt lat="43.76652" lon="12.6602567"><ele>261.0</ele><time>2026-04-12T10:35:47.026Z</time></trkpt><trkpt lat="43.766675" lon="12.660355"><ele>261.0</ele><time>2026-04-12T10:35:48.025Z</time></trkpt><trkpt lat="43.7668283" lon="12.6604483"><ele>257.0</ele><time>2026-04-12T10:35:49.032Z</time></trkpt><trkpt lat="43.7669783" lon="12.6605433"><ele>253.0</ele><time>2026-04-12T10:35:50.03Z</time></trkpt><trkpt lat="43.7671283" lon="12.66064"><ele>249.0</ele><time>2026-04-12T10:35:51.039Z</time></trkpt><trkpt lat="43.767275" lon="12.6607417"><ele>249.0</ele><time>2026-04-12T10:35:52.029Z</time></trkpt><trkpt lat="43.76742" lon="12.6608517"><ele>249.0</ele><time>2026-04-12T10:35:53.034Z</time></trkpt><trkpt lat="43.7675583" lon="12.6609717"><ele>249.0</ele><time>2026-04-12T10:35:54.027Z</time></trkpt><trkpt lat="43.76769" lon="12.66109"><ele>249.0</ele><time>2026-04-12T10:35:55.032Z</time></trkpt><trkpt lat="43.767825" lon="12.6612017"><ele>249.0</ele><time>2026-04-12T10:35:56.033Z</time></trkpt><trkpt lat="43.7679767" lon="12.661285"><ele>249.0</ele><time>2026-04-12T10:35:57.031Z</time></trkpt><trkpt lat="43.7681467" lon="12.6613317"><ele>249.0</ele><time>2026-04-12T10:35:58.031Z</time></trkpt><trkpt lat="43.768315" lon="12.6613533"><ele>249.0</ele><time>2026-04-12T10:35:59.026Z</time></trkpt><trkpt lat="43.7684783" lon="12.6613733"><ele>249.0</ele><time>2026-04-12T10:36:00.032Z</time></trkpt><trkpt lat="43.7686367" lon="12.6614183"><ele>251.0</ele><time>2026-04-12T10:36:01.033Z</time></trkpt><trkpt lat="43.7687967" lon="12.6614783"><ele>253.0</ele><time>2026-04-12T10:36:02.028Z</time></trkpt><trkpt lat="43.7689583" lon="12.6615517"><ele>255.0</ele><time>2026-04-12T10:36:03.03Z</time></trkpt><trkpt lat="43.7691233" lon="12.661635"><ele>255.0</ele><time>2026-04-12T10:36:04.031Z</time></trkpt><trkpt lat="43.76928" lon="12.66173"><ele>255.0</ele><time>2026-04-12T10:36:05.028Z</time></trkpt><trkpt lat="43.769425" lon="12.6618433"><ele>255.0</ele><time>2026-04-12T10:36:06.03Z</time></trkpt><trkpt lat="43.7695667" lon="12.6619667"><ele>255.33333333333331</ele><time>2026-04-12T10:36:07.03Z</time></trkpt><trkpt lat="43.7697017" lon="12.6621017"><ele>255.66666666666666</ele><time>2026-04-12T10:36:08.028Z</time></trkpt><trkpt lat="43.76984" lon="12.662245"><ele>256.0</ele><time>2026-04-12T10:36:09.03Z</time></trkpt><trkpt lat="43.76998" lon="12.6623933"><ele>256.0</ele><time>2026-04-12T10:36:10.028Z</time></trkpt><trkpt lat="43.7701183" lon="12.6625483"><ele>256.0</ele><time>2026-04-12T10:36:11.033Z</time></trkpt><trkpt lat="43.7702617" lon="12.662705"><ele>256.0</ele><time>2026-04-12T10:36:12.026Z</time></trkpt><trkpt lat="43.7704083" lon="12.6628617"><ele>255.0</ele><time>2026-04-12T10:36:13.03Z</time></trkpt><trkpt lat="43.77055" lon="12.6630117"><ele>254.0</ele><time>2026-04-12T10:36:14.03Z</time></trkpt><trkpt lat="43.7706833" lon="12.6631567"><ele>253.0</ele><time>2026-04-12T10:36:15.028Z</time></trkpt><trkpt lat="43.7708117" lon="12.6632983"><ele>253.0</ele><time>2026-04-12T10:36:16.028Z</time></trkpt><trkpt lat="43.77094" lon="12.663435"><ele>253.0</ele><time>2026-04-12T10:36:17.039Z</time></trkpt><trkpt lat="43.7710583" lon="12.6635683"><ele>253.0</ele><time>2026-04-12T10:36:18.033Z</time></trkpt><trkpt lat="43.771175" lon="12.6636983"><ele>254.33333333333331</ele><time>2026-04-12T10:36:19.028Z</time></trkpt><trkpt lat="43.7712967" lon="12.66382"><ele>255.66666666666669</ele><time>2026-04-12T10:36:20.029Z</time></trkpt><trkpt lat="43.7714333" lon="12.6639133"><ele>257.0</ele><time>2026-04-12T10:36:21.031Z</time></trkpt><trkpt lat="43.7715883" lon="12.6639683"><ele>257.0</ele><time>2026-04-12T10:36:22.031Z</time></trkpt><trkpt lat="43.7717633" lon="12.6639767"><ele>257.0</ele><time>2026-04-12T10:36:23.026Z</time></trkpt><trkpt lat="43.7719483" lon="12.6639417"><ele>257.0</ele><time>2026-04-12T10:36:24.029Z</time></trkpt><trkpt lat="43.7721317" lon="12.6638833"><ele>255.66666666666669</ele><time>2026-04-12T10:36:25.03Z</time></trkpt><trkpt lat="43.7723067" lon="12.6638267"><ele>254.33333333333331</ele><time>2026-04-12T10:36:26.029Z</time></trkpt><trkpt lat="43.7724783" lon="12.66377"><ele>253.0</ele><time>2026-04-12T10:36:27.029Z</time></trkpt><trkpt lat="43.772645" lon="12.6637133"><ele>253.0</ele><time>2026-04-12T10:36:28.029Z</time></trkpt><trkpt lat="43.772815" lon="12.6636567"><ele>253.0</ele><time>2026-04-12T10:36:29.031Z</time></trkpt><trkpt lat="43.7729767" lon="12.6636033"><ele>253.0</ele><time>2026-04-12T10:36:30.032Z</time></trkpt><trkpt lat="43.77313" lon="12.6635533"><ele>252.66666666666666</ele><time>2026-04-12T10:36:31.03Z</time></trkpt><trkpt lat="43.77328" lon="12.6635033"><ele>252.33333333333331</ele><time>2026-04-12T10:36:32.027Z</time></trkpt><trkpt lat="43.7734283" lon="12.6634583"><ele>252.0</ele><time>2026-04-12T10:36:33.032Z</time></trkpt><trkpt lat="43.7735717" lon="12.663425"><ele>252.75</ele><time>2026-04-12T10:36:34.031Z</time></trkpt><trkpt lat="43.7737083" lon="12.663405"><ele>253.5</ele><time>2026-04-12T10:36:35.028Z</time></trkpt><trkpt lat="43.77384" lon="12.6634"><ele>254.25</ele><time>2026-04-12T10:36:36.031Z</time></trkpt><trkpt lat="43.7739783" lon="12.663405"><ele>255.0</ele><time>2026-04-12T10:36:37.03Z</time></trkpt><trkpt lat="43.7741233" lon="12.6634133"><ele>255.0</ele><time>2026-04-12T10:36:38.032Z</time></trkpt><trkpt lat="43.7742817" lon="12.6634233"><ele>255.0</ele><time>2026-04-12T10:36:39.039Z</time></trkpt><trkpt lat="43.7744467" lon="12.6634317"><ele>255.0</ele><time>2026-04-12T10:36:40.032Z</time></trkpt><trkpt lat="43.7746183" lon="12.6634433"><ele>253.66666666666669</ele><time>2026-04-12T10:36:41.031Z</time></trkpt><trkpt lat="43.7747933" lon="12.6634567"><ele>252.33333333333334</ele><time>2026-04-12T10:36:42.034Z</time></trkpt><trkpt lat="43.7749633" lon="12.6634717"><ele>251.0</ele><time>2026-04-12T10:36:43.031Z</time></trkpt><trkpt lat="43.77513" lon="12.66349"><ele>248.66666666666669</ele><time>2026-04-12T10:36:44.025Z</time></trkpt><trkpt lat="43.7752933" lon="12.6635017"><ele>246.33333333333331</ele><time>2026-04-12T10:36:45.028Z</time></trkpt><trkpt lat="43.7754533" lon="12.6635133"><ele>244.0</ele><time>2026-04-12T10:36:46.034Z</time></trkpt><trkpt lat="43.7756083" lon="12.66353"><ele>244.0</ele><time>2026-04-12T10:36:47.028Z</time></trkpt><trkpt lat="43.7757667" lon="12.6635533"><ele>244.0</ele><time>2026-04-12T10:36:48.026Z</time></trkpt><trkpt lat="43.77593" lon="12.663585"><ele>244.0</ele><time>2026-04-12T10:36:49.032Z</time></trkpt><trkpt lat="43.776095" lon="12.663625"><ele>240.33333333333331</ele><time>2026-04-12T10:36:50.035Z</time></trkpt><trkpt lat="43.7762583" lon="12.6636717"><ele>236.66666666666669</ele><time>2026-04-12T10:36:51.033Z</time></trkpt><trkpt lat="43.7764267" lon="12.663725"><ele>233.0</ele><time>2026-04-12T10:36:52.031Z</time></trkpt><trkpt lat="43.7766017" lon="12.663785"><ele>233.0</ele><time>2026-04-12T10:36:53.028Z</time></trkpt><trkpt lat="43.7767783" lon="12.6638517"><ele>233.0</ele><time>2026-04-12T10:36:54.038Z</time></trkpt><trkpt lat="43.7769617" lon="12.66392"><ele>233.0</ele><time>2026-04-12T10:36:55.038Z</time></trkpt><trkpt lat="43.777145" lon="12.6639883"><ele>233.33333333333334</ele><time>2026-04-12T10:36:56.025Z</time></trkpt><trkpt lat="43.7773333" lon="12.6640567"><ele>233.66666666666669</ele><time>2026-04-12T10:36:57.03Z</time></trkpt><trkpt lat="43.7775217" lon="12.6641217"><ele>234.0</ele><time>2026-04-12T10:36:58.026Z</time></trkpt><trkpt lat="43.7777117" lon="12.6641883"><ele>234.0</ele><time>2026-04-12T10:36:59.028Z</time></trkpt><trkpt lat="43.777905" lon="12.664255"><ele>234.0</ele><time>2026-04-12T10:37:00.029Z</time></trkpt><trkpt lat="43.7780983" lon="12.6643267"><ele>234.0</ele><time>2026-04-12T10:37:01.027Z</time></trkpt><trkpt lat="43.7782833" lon="12.6643983"><ele>234.66666666666669</ele><time>2026-04-12T10:37:02.027Z</time></trkpt><trkpt lat="43.7784583" lon="12.664475"><ele>235.33333333333334</ele><time>2026-04-12T10:37:03.028Z</time></trkpt><trkpt lat="43.7786283" lon="12.6645583"><ele>236.0</ele><time>2026-04-12T10:37:04.027Z</time></trkpt><trkpt lat="43.7787983" lon="12.6646483"><ele>236.66666666666669</ele><time>2026-04-12T10:37:05.031Z</time></trkpt><trkpt lat="43.7789717" lon="12.6647417"><ele>237.33333333333331</ele><time>2026-04-12T10:37:06.03Z</time></trkpt><trkpt lat="43.7791417" lon="12.664835"><ele>238.0</ele><time>2026-04-12T10:37:07.032Z</time></trkpt><trkpt lat="43.7793033" lon="12.6649267"><ele>237.66666666666666</ele><time>2026-04-12T10:37:08.033Z</time></trkpt><trkpt lat="43.7794567" lon="12.6650183"><ele>237.33333333333331</ele><time>2026-04-12T10:37:09.025Z</time></trkpt><trkpt lat="43.7796017" lon="12.6651217"><ele>237.0</ele><time>2026-04-12T10:37:10.027Z</time></trkpt><trkpt lat="43.779735" lon="12.6652667"><ele>239.33333333333331</ele><time>2026-04-12T10:37:11.029Z</time></trkpt><trkpt lat="43.779855" lon="12.6654467"><ele>241.66666666666666</ele><time>2026-04-12T10:37:12.029Z</time></trkpt><trkpt lat="43.7799683" lon="12.6656467"><ele>244.0</ele><time>2026-04-12T10:37:13.029Z</time></trkpt><trkpt lat="43.78008" lon="12.6658533"><ele>243.33333333333331</ele><time>2026-04-12T10:37:14.033Z</time></trkpt><trkpt lat="43.7801917" lon="12.6660567"><ele>242.66666666666669</ele><time>2026-04-12T10:37:15.027Z</time></trkpt><trkpt lat="43.780305" lon="12.6662533"><ele>242.0</ele><time>2026-04-12T10:37:16.032Z</time></trkpt><trkpt lat="43.7804183" lon="12.6664433"><ele>243.33333333333334</ele><time>2026-04-12T10:37:17.029Z</time></trkpt><trkpt lat="43.7805367" lon="12.666625"><ele>244.66666666666669</ele><time>2026-04-12T10:37:18.029Z</time></trkpt><trkpt lat="43.7806517" lon="12.6668"><ele>246.0</ele><time>2026-04-12T10:37:19.033Z</time></trkpt><trkpt lat="43.7807667" lon="12.666975"><ele>247.0</ele><time>2026-04-12T10:37:20.035Z</time></trkpt><trkpt lat="43.7808817" lon="12.6671433"><ele>248.0</ele><time>2026-04-12T10:37:21.036Z</time></trkpt><trkpt lat="43.7810017" lon="12.6672933"><ele>249.0</ele><time>2026-04-12T10:37:22.034Z</time></trkpt><trkpt lat="43.7811217" lon="12.66743"><ele>249.0</ele><time>2026-04-12T10:37:23.032Z</time></trkpt><trkpt lat="43.781245" lon="12.667555"><ele>249.0</ele><time>2026-04-12T10:37:24.033Z</time></trkpt><trkpt lat="43.7813617" lon="12.6676733"><ele>249.0</ele><time>2026-04-12T10:37:25.026Z</time></trkpt><trkpt lat="43.78148" lon="12.6677817"><ele>249.0</ele><time>2026-04-12T10:37:26.026Z</time></trkpt><trkpt lat="43.7815933" lon="12.6678817"><ele>252.5</ele><time>2026-04-12T10:37:27.029Z</time></trkpt><trkpt lat="43.7817017" lon="12.667975"><ele>256.0</ele><time>2026-04-12T10:37:28.028Z</time></trkpt><trkpt lat="43.7818083" lon="12.668065"><ele>259.5</ele><time>2026-04-12T10:37:29.034Z</time></trkpt><trkpt lat="43.78191" lon="12.668145"><ele>263.0</ele><time>2026-04-12T10:37:30.028Z</time></trkpt><trkpt lat="43.782015" lon="12.6682033"><ele>263.5</ele><time>2026-04-12T10:37:31.028Z</time></trkpt><trkpt lat="43.782125" lon="12.66824"><ele>264.0</ele><time>2026-04-12T10:37:32.037Z</time></trkpt><trkpt lat="43.7822367" lon="12.6682667"><ele>264.5</ele><time>2026-04-12T10:37:33.034Z</time></trkpt><trkpt lat="43.7823483" lon="12.6682817"><ele>265.0</ele><time>2026-04-12T10:37:34.029Z</time></trkpt><trkpt lat="43.7824633" lon="12.6682883"><ele>265.0</ele><time>2026-04-12T10:37:35.029Z</time></trkpt><trkpt lat="43.7825717" lon="12.6682917"><ele>265.0</ele><time>2026-04-12T10:37:36.032Z</time></trkpt><trkpt lat="43.7826733" lon="12.6683"><ele>265.0</ele><time>2026-04-12T10:37:37.033Z</time></trkpt><trkpt lat="43.7827683" lon="12.668315"><ele>265.0</ele><time>2026-04-12T10:37:38.035Z</time></trkpt><trkpt lat="43.7828633" lon="12.6683483"><ele>265.0</ele><time>2026-04-12T10:37:39.029Z</time></trkpt><trkpt lat="43.7829467" lon="12.6683967"><ele>264.5</ele><time>2026-04-12T10:37:40.033Z</time></trkpt><trkpt lat="43.78302" lon="12.66846"><ele>264.0</ele><time>2026-04-12T10:37:41.032Z</time></trkpt><trkpt lat="43.7830783" lon="12.6685267"><ele>263.5</ele><time>2026-04-12T10:37:42.03Z</time></trkpt><trkpt lat="43.7831267" lon="12.6685917"><ele>263.0</ele><time>2026-04-12T10:37:43.028Z</time></trkpt><trkpt lat="43.78319" lon="12.668705"><ele>262.5</ele><time>2026-04-12T10:37:45.028Z</time></trkpt><trkpt lat="43.783215" lon="12.66879"><ele>262.0</ele><time>2026-04-12T10:37:46.03Z</time></trkpt><trkpt lat="43.783245" lon="12.668895"><ele>262.2</ele><time>2026-04-12T10:37:47.031Z</time></trkpt><trkpt lat="43.783295" lon="12.6690067"><ele>262.4</ele><time>2026-04-12T10:37:48.029Z</time></trkpt><trkpt lat="43.7833683" lon="12.669115"><ele>262.6</ele><time>2026-04-12T10:37:49.032Z</time></trkpt><trkpt lat="43.7834533" lon="12.6692217"><ele>262.8</ele><time>2026-04-12T10:37:50.027Z</time></trkpt><trkpt lat="43.7835483" lon="12.6693183"><ele>263.0</ele><time>2026-04-12T10:37:51.036Z</time></trkpt><trkpt lat="43.783645" lon="12.6694083"><ele>266.75</ele><time>2026-04-12T10:37:52.029Z</time></trkpt><trkpt lat="43.7837417" lon="12.6694933"><ele>270.5</ele><time>2026-04-12T10:37:53.027Z</time></trkpt><trkpt lat="43.7838417" lon="12.669575"><ele>274.25</ele><time>2026-04-12T10:37:54.029Z</time></trkpt><trkpt lat="43.7839417" lon="12.6696483"><ele>278.0</ele><time>2026-04-12T10:37:55.025Z</time></trkpt><trkpt lat="43.7840383" lon="12.669715"><ele>278.0</ele><time>2026-04-12T10:37:56.033Z</time></trkpt><trkpt lat="43.7841317" lon="12.6697833"><ele>278.0</ele><time>2026-04-12T10:37:57.03Z</time></trkpt><trkpt lat="43.784225" lon="12.6698517"><ele>278.0</ele><time>2026-04-12T10:37:58.032Z</time></trkpt><trkpt lat="43.7843183" lon="12.6699233"><ele>278.0</ele><time>2026-04-12T10:37:59.027Z</time></trkpt><trkpt lat="43.784405" lon="12.6699967"><ele>278.0</ele><time>2026-04-12T10:38:00.026Z</time></trkpt><trkpt lat="43.7844983" lon="12.6700683"><ele>277.0</ele><time>2026-04-12T10:38:01.027Z</time></trkpt><trkpt lat="43.7845917" lon="12.67014"><ele>276.0</ele><time>2026-04-12T10:38:02.029Z</time></trkpt><trkpt lat="43.7846833" lon="12.670215"><ele>275.0</ele><time>2026-04-12T10:38:03.032Z</time></trkpt><trkpt lat="43.7847817" lon="12.6702933"><ele>274.0</ele><time>2026-04-12T10:38:04.032Z</time></trkpt><trkpt lat="43.7848833" lon="12.6703767"><ele>273.0</ele><time>2026-04-12T10:38:05.03Z</time></trkpt><trkpt lat="43.7849817" lon="12.6704633"><ele>273.0</ele><time>2026-04-12T10:38:06.026Z</time></trkpt><trkpt lat="43.7850783" lon="12.67055"><ele>273.0</ele><time>2026-04-12T10:38:07.027Z</time></trkpt><trkpt lat="43.7851733" lon="12.6706317"><ele>273.0</ele><time>2026-04-12T10:38:08.03Z</time></trkpt><trkpt lat="43.78527" lon="12.6707133"><ele>273.0</ele><time>2026-04-12T10:38:09.032Z</time></trkpt><trkpt lat="43.7853667" lon="12.6707867"><ele>271.0</ele><time>2026-04-12T10:38:10.03Z</time></trkpt><trkpt lat="43.78547" lon="12.6708483"><ele>269.0</ele><time>2026-04-12T10:38:11.03Z</time></trkpt><trkpt lat="43.7855767" lon="12.670895"><ele>267.0</ele><time>2026-04-12T10:38:12.028Z</time></trkpt><trkpt lat="43.7856833" lon="12.6709283"><ele>265.0</ele><time>2026-04-12T10:38:13.028Z</time></trkpt><trkpt lat="43.785795" lon="12.670945"><ele>263.0</ele><time>2026-04-12T10:38:14.028Z</time></trkpt><trkpt lat="43.78591" lon="12.67095"><ele>261.0</ele><time>2026-04-12T10:38:15.028Z</time></trkpt><trkpt lat="43.786025" lon="12.6709567"><ele>259.0</ele><time>2026-04-12T10:38:16.031Z</time></trkpt><trkpt lat="43.786135" lon="12.67097"><ele>257.0</ele><time>2026-04-12T10:38:17.027Z</time></trkpt><trkpt lat="43.786245" lon="12.6709933"><ele>255.0</ele><time>2026-04-12T10:38:18.029Z</time></trkpt><trkpt lat="43.786345" lon="12.6710433"><ele>253.0</ele><time>2026-04-12T10:38:19.035Z</time></trkpt><trkpt lat="43.7864367" lon="12.6711067"><ele>254.60000000000002</ele><time>2026-04-12T10:38:20.029Z</time></trkpt><trkpt lat="43.7865217" lon="12.6711867"><ele>256.20000000000005</ele><time>2026-04-12T10:38:21.035Z</time></trkpt><trkpt lat="43.786605" lon="12.6712833"><ele>257.8</ele><time>2026-04-12T10:38:22.031Z</time></trkpt><trkpt lat="43.7866817" lon="12.6713883"><ele>259.40000000000003</ele><time>2026-04-12T10:38:23.031Z</time></trkpt><trkpt lat="43.786755" lon="12.6714967"><ele>261.0</ele><time>2026-04-12T10:38:24.03Z</time></trkpt><trkpt lat="43.7868317" lon="12.6716017"><ele>259.40000000000003</ele><time>2026-04-12T10:38:25.032Z</time></trkpt><trkpt lat="43.7869033" lon="12.671705"><ele>257.8</ele><time>2026-04-12T10:38:26.03Z</time></trkpt><trkpt lat="43.786975" lon="12.6718083"><ele>256.20000000000005</ele><time>2026-04-12T10:38:27.026Z</time></trkpt><trkpt lat="43.7870517" lon="12.6719133"><ele>254.60000000000002</ele><time>2026-04-12T10:38:28.029Z</time></trkpt><trkpt lat="43.78713" lon="12.67202"><ele>253.0</ele><time>2026-04-12T10:38:29.029Z</time></trkpt><trkpt lat="43.787215" lon="12.6721217"><ele>253.0</ele><time>2026-04-12T10:38:30.027Z</time></trkpt><trkpt lat="43.7873083" lon="12.6722067"><ele>253.0</ele><time>2026-04-12T10:38:31.03Z</time></trkpt><trkpt lat="43.7874183" lon="12.6722733"><ele>253.0</ele><time>2026-04-12T10:38:32.028Z</time></trkpt><trkpt lat="43.787535" lon="12.6723333"><ele>253.0</ele><time>2026-04-12T10:38:33.028Z</time></trkpt><trkpt lat="43.7876617" lon="12.672395"><ele>251.0</ele><time>2026-04-12T10:38:34.031Z</time></trkpt><trkpt lat="43.7877883" lon="12.672455"><ele>249.0</ele><time>2026-04-12T10:38:35.029Z</time></trkpt><trkpt lat="43.7879183" lon="12.6725117"><ele>247.0</ele><time>2026-04-12T10:38:36.029Z</time></trkpt><trkpt lat="43.7880467" lon="12.6725733"><ele>245.0</ele><time>2026-04-12T10:38:37.026Z</time></trkpt><trkpt lat="43.78818" lon="12.6726367"><ele>245.0</ele><time>2026-04-12T10:38:38.029Z</time></trkpt><trkpt lat="43.7883183" lon="12.6726983"><ele>245.0</ele><time>2026-04-12T10:38:39.028Z</time></trkpt><trkpt lat="43.7884567" lon="12.67276"><ele>245.0</ele><time>2026-04-12T10:38:40.03Z</time></trkpt><trkpt lat="43.788595" lon="12.6728233"><ele>245.0</ele><time>2026-04-12T10:38:41.028Z</time></trkpt><trkpt lat="43.78873" lon="12.6728867"><ele>244.75</ele><time>2026-04-12T10:38:42.028Z</time></trkpt><trkpt lat="43.7888683" lon="12.6729483"><ele>244.5</ele><time>2026-04-12T10:38:43.025Z</time></trkpt><trkpt lat="43.789005" lon="12.6730083"><ele>244.25</ele><time>2026-04-12T10:38:44.031Z</time></trkpt><trkpt lat="43.789145" lon="12.673065"><ele>244.0</ele><time>2026-04-12T10:38:45.029Z</time></trkpt><trkpt lat="43.789285" lon="12.6731233"><ele>244.75</ele><time>2026-04-12T10:38:46.029Z</time></trkpt><trkpt lat="43.7894217" lon="12.67319"><ele>245.5</ele><time>2026-04-12T10:38:47.029Z</time></trkpt><trkpt lat="43.7895567" lon="12.67326"><ele>246.25</ele><time>2026-04-12T10:38:48.033Z</time></trkpt><trkpt lat="43.7896883" lon="12.6733383"><ele>247.0</ele><time>2026-04-12T10:38:49.031Z</time></trkpt><trkpt lat="43.7898133" lon="12.67342"><ele>247.0</ele><time>2026-04-12T10:38:50.031Z</time></trkpt><trkpt lat="43.78993" lon="12.6735133"><ele>247.0</ele><time>2026-04-12T10:38:51.03Z</time></trkpt><trkpt lat="43.7900417" lon="12.673615"><ele>247.0</ele><time>2026-04-12T10:38:52.029Z</time></trkpt><trkpt lat="43.7901533" lon="12.6737283"><ele>247.0</ele><time>2026-04-12T10:38:53.033Z</time></trkpt><trkpt lat="43.7902633" lon="12.6738433"><ele>248.75</ele><time>2026-04-12T10:38:54.03Z</time></trkpt><trkpt lat="43.7903767" lon="12.6739583"><ele>250.5</ele><time>2026-04-12T10:38:55.03Z</time></trkpt><trkpt lat="43.7904867" lon="12.6740767"><ele>252.25</ele><time>2026-04-12T10:38:56.03Z</time></trkpt><trkpt lat="43.7906017" lon="12.67419"><ele>254.0</ele><time>2026-04-12T10:38:57.026Z</time></trkpt><trkpt lat="43.7907183" lon="12.6743033"><ele>254.0</ele><time>2026-04-12T10:38:58.026Z</time></trkpt><trkpt lat="43.7908333" lon="12.6744183"><ele>254.0</ele><time>2026-04-12T10:38:59.03Z</time></trkpt><trkpt lat="43.7909567" lon="12.674525"><ele>254.0</ele><time>2026-04-12T10:39:00.03Z</time></trkpt><trkpt lat="43.79107" lon="12.6746367"><ele>254.0</ele><time>2026-04-12T10:39:01.027Z</time></trkpt><trkpt lat="43.7911817" lon="12.6747433"><ele>255.25</ele><time>2026-04-12T10:39:02.029Z</time></trkpt><trkpt lat="43.7913033" lon="12.6748417"><ele>256.5</ele><time>2026-04-12T10:39:03.03Z</time></trkpt><trkpt lat="43.7914233" lon="12.6749383"><ele>257.75</ele><time>2026-04-12T10:39:04.03Z</time></trkpt><trkpt lat="43.7915433" lon="12.6750333"><ele>259.0</ele><time>2026-04-12T10:39:05.031Z</time></trkpt><trkpt lat="43.7916633" lon="12.67513"><ele>259.0</ele><time>2026-04-12T10:39:06.029Z</time></trkpt><trkpt lat="43.791775" lon="12.675235"><ele>259.0</ele><time>2026-04-12T10:39:07.028Z</time></trkpt><trkpt lat="43.7918833" lon="12.6753583"><ele>259.0</ele><time>2026-04-12T10:39:08.032Z</time></trkpt><trkpt lat="43.7919817" lon="12.6755017"><ele>259.0</ele><time>2026-04-12T10:39:09.031Z</time></trkpt><trkpt lat="43.7920767" lon="12.6756617"><ele>259.0</ele><time>2026-04-12T10:39:10.031Z</time></trkpt><trkpt lat="43.7921683" lon="12.6758267"><ele>259.0</ele><time>2026-04-12T10:39:11.028Z</time></trkpt><trkpt lat="43.792255" lon="12.6759833"><ele>259.0</ele><time>2026-04-12T10:39:12.031Z</time></trkpt><trkpt lat="43.7923383" lon="12.6761283"><ele>259.0</ele><time>2026-04-12T10:39:13.029Z</time></trkpt><trkpt lat="43.79242" lon="12.6762733"><ele>257.75</ele><time>2026-04-12T10:39:14.031Z</time></trkpt><trkpt lat="43.7925067" lon="12.6764233"><ele>256.5</ele><time>2026-04-12T10:39:15.03Z</time></trkpt><trkpt lat="43.7925983" lon="12.6765783"><ele>255.25</ele><time>2026-04-12T10:39:16.041Z</time></trkpt><trkpt lat="43.7926917" lon="12.6767417"><ele>254.0</ele><time>2026-04-12T10:39:17.035Z</time></trkpt><trkpt lat="43.7927833" lon="12.6769067"><ele>253.0</ele><time>2026-04-12T10:39:18.03Z</time></trkpt><trkpt lat="43.7928767" lon="12.6770733"><ele>252.0</ele><time>2026-04-12T10:39:19.029Z</time></trkpt><trkpt lat="43.7929717" lon="12.6772483"><ele>251.0</ele><time>2026-04-12T10:39:20.032Z</time></trkpt><trkpt lat="43.7930633" lon="12.6774267"><ele>251.0</ele><time>2026-04-12T10:39:21.029Z</time></trkpt><trkpt lat="43.7931533" lon="12.677615"><ele>251.0</ele><time>2026-04-12T10:39:22.032Z</time></trkpt><trkpt lat="43.7932433" lon="12.67781"><ele>251.0</ele><time>2026-04-12T10:39:23.031Z</time></trkpt><trkpt lat="43.7933367" lon="12.6780133"><ele>251.66666666666669</ele><time>2026-04-12T10:39:24.032Z</time></trkpt><trkpt lat="43.793435" lon="12.6782233"><ele>252.33333333333331</ele><time>2026-04-12T10:39:25.031Z</time></trkpt><trkpt lat="43.7935333" lon="12.6784333"><ele>253.0</ele><time>2026-04-12T10:39:26.027Z</time></trkpt><trkpt lat="43.7936283" lon="12.6786367"><ele>253.33333333333331</ele><time>2026-04-12T10:39:27.03Z</time></trkpt><trkpt lat="43.793725" lon="12.67883"><ele>253.66666666666669</ele><time>2026-04-12T10:39:28.027Z</time></trkpt><trkpt lat="43.7938367" lon="12.6790133"><ele>254.0</ele><time>2026-04-12T10:39:29.03Z</time></trkpt><trkpt lat="43.7939633" lon="12.6791683"><ele>254.0</ele><time>2026-04-12T10:39:30.03Z</time></trkpt><trkpt lat="43.7941017" lon="12.6793017"><ele>254.0</ele><time>2026-04-12T10:39:31.028Z</time></trkpt><trkpt lat="43.7942433" lon="12.679435"><ele>254.0</ele><time>2026-04-12T10:39:32.031Z</time></trkpt><trkpt lat="43.79439" lon="12.6795683"><ele>256.6666666666667</ele><time>2026-04-12T10:39:33.027Z</time></trkpt><trkpt lat="43.7945367" lon="12.6797"><ele>259.3333333333333</ele><time>2026-04-12T10:39:34.032Z</time></trkpt><trkpt lat="43.794685" lon="12.67983"><ele>262.0</ele><time>2026-04-12T10:39:35.027Z</time></trkpt><trkpt lat="43.794835" lon="12.6799583"><ele>262.0</ele><time>2026-04-12T10:39:36.03Z</time></trkpt><trkpt lat="43.7949817" lon="12.680085"><ele>262.0</ele><time>2026-04-12T10:39:37.029Z</time></trkpt><trkpt lat="43.795125" lon="12.6802117"><ele>262.0</ele><time>2026-04-12T10:39:38.035Z</time></trkpt><trkpt lat="43.7952683" lon="12.6803383"><ele>261.3333333333333</ele><time>2026-04-12T10:39:39.027Z</time></trkpt><trkpt lat="43.79541" lon="12.6804583"><ele>260.6666666666667</ele><time>2026-04-12T10:39:40.03Z</time></trkpt><trkpt lat="43.79555" lon="12.68058"><ele>260.0</ele><time>2026-04-12T10:39:41.03Z</time></trkpt><trkpt lat="43.7956867" lon="12.6807017"><ele>260.0</ele><time>2026-04-12T10:39:42.031Z</time></trkpt><trkpt lat="43.7958233" lon="12.6808217"><ele>260.0</ele><time>2026-04-12T10:39:43.03Z</time></trkpt><trkpt lat="43.7959733" lon="12.680925"><ele>260.0</ele><time>2026-04-12T10:39:44.03Z</time></trkpt><trkpt lat="43.7961367" lon="12.6810017"><ele>258.33333333333337</ele><time>2026-04-12T10:39:45.035Z</time></trkpt><trkpt lat="43.79631" lon="12.68106"><ele>256.6666666666667</ele><time>2026-04-12T10:39:46.032Z</time></trkpt><trkpt lat="43.796495" lon="12.6811017"><ele>255.0</ele><time>2026-04-12T10:39:47.03Z</time></trkpt><trkpt lat="43.7966783" lon="12.681135"><ele>262.0</ele><time>2026-04-12T10:39:48.028Z</time></trkpt><trkpt lat="43.7968517" lon="12.681165"><ele>269.0</ele><time>2026-04-12T10:39:49.027Z</time></trkpt><trkpt lat="43.7970167" lon="12.6811883"><ele>276.0</ele><time>2026-04-12T10:39:50.029Z</time></trkpt><trkpt lat="43.797175" lon="12.681205"><ele>276.0</ele><time>2026-04-12T10:39:51.033Z</time></trkpt><trkpt lat="43.7973333" lon="12.6812167"><ele>276.0</ele><time>2026-04-12T10:39:52.037Z</time></trkpt><trkpt lat="43.7974933" lon="12.68122"><ele>276.0</ele><time>2026-04-12T10:39:53.032Z</time></trkpt><trkpt lat="43.7976517" lon="12.68121"><ele>274.3333333333333</ele><time>2026-04-12T10:39:54.03Z</time></trkpt><trkpt lat="43.797805" lon="12.681195"><ele>272.66666666666663</ele><time>2026-04-12T10:39:55.027Z</time></trkpt><trkpt lat="43.797955" lon="12.6811767"><ele>271.0</ele><time>2026-04-12T10:39:56.032Z</time></trkpt><trkpt lat="43.7981" lon="12.6811583"><ele>271.0</ele><time>2026-04-12T10:39:57.032Z</time></trkpt><trkpt lat="43.7982383" lon="12.6811417"><ele>271.0</ele><time>2026-04-12T10:39:58.032Z</time></trkpt><trkpt lat="43.7983733" lon="12.6811267"><ele>271.0</ele><time>2026-04-12T10:39:59.029Z</time></trkpt><trkpt lat="43.7985033" lon="12.681115"><ele>271.0</ele><time>2026-04-12T10:40:00.03Z</time></trkpt><trkpt lat="43.79863" lon="12.6811067"><ele>266.5</ele><time>2026-04-12T10:40:01.028Z</time></trkpt><trkpt lat="43.798755" lon="12.681095"><ele>262.0</ele><time>2026-04-12T10:40:02.031Z</time></trkpt><trkpt lat="43.79888" lon="12.6810817"><ele>257.5</ele><time>2026-04-12T10:40:03.033Z</time></trkpt><trkpt lat="43.799" lon="12.68107"><ele>253.0</ele><time>2026-04-12T10:40:04.037Z</time></trkpt><trkpt lat="43.7991217" lon="12.6810567"><ele>253.0</ele><time>2026-04-12T10:40:05.029Z</time></trkpt><trkpt lat="43.799245" lon="12.681035"><ele>253.0</ele><time>2026-04-12T10:40:06.03Z</time></trkpt><trkpt lat="43.7993683" lon="12.68099"><ele>253.0</ele><time>2026-04-12T10:40:07.036Z</time></trkpt><trkpt lat="43.7994917" lon="12.6809233"><ele>253.0</ele><time>2026-04-12T10:40:08.029Z</time></trkpt><trkpt lat="43.7996133" lon="12.6808483"><ele>251.25</ele><time>2026-04-12T10:40:09.029Z</time></trkpt><trkpt lat="43.7997317" lon="12.68077"><ele>249.5</ele><time>2026-04-12T10:40:10.028Z</time></trkpt><trkpt lat="43.7998483" lon="12.680685"><ele>247.75</ele><time>2026-04-12T10:40:11.032Z</time></trkpt><trkpt lat="43.7999617" lon="12.6806017"><ele>246.0</ele><time>2026-04-12T10:40:12.029Z</time></trkpt><trkpt lat="43.8000733" lon="12.6805167"><ele>242.75</ele><time>2026-04-12T10:40:13.034Z</time></trkpt><trkpt lat="43.8001833" lon="12.68044"><ele>239.5</ele><time>2026-04-12T10:40:14.028Z</time></trkpt><trkpt lat="43.8002917" lon="12.6803683"><ele>236.25</ele><time>2026-04-12T10:40:15.031Z</time></trkpt><trkpt lat="43.8004117" lon="12.68031"><ele>233.0</ele><time>2026-04-12T10:40:16.032Z</time></trkpt><trkpt lat="43.8005467" lon="12.6802867"><ele>233.0</ele><time>2026-04-12T10:40:17.024Z</time></trkpt><trkpt lat="43.8007" lon="12.6803017"><ele>233.0</ele><time>2026-04-12T10:40:18.028Z</time></trkpt><trkpt lat="43.8008517" lon="12.6803233"><ele>233.0</ele><time>2026-04-12T10:40:19.029Z</time></trkpt><trkpt lat="43.801005" lon="12.680345"><ele>230.66666666666669</ele><time>2026-04-12T10:40:20.031Z</time></trkpt><trkpt lat="43.8011583" lon="12.680365"><ele>228.33333333333331</ele><time>2026-04-12T10:40:21.034Z</time></trkpt><trkpt lat="43.80131" lon="12.68039"><ele>226.0</ele><time>2026-04-12T10:40:22.033Z</time></trkpt><trkpt lat="43.8014617" lon="12.6804317"><ele>226.0</ele><time>2026-04-12T10:40:23.034Z</time></trkpt><trkpt lat="43.8016067" lon="12.6804933"><ele>226.0</ele><time>2026-04-12T10:40:24.033Z</time></trkpt><trkpt lat="43.801745" lon="12.6805783"><ele>226.0</ele><time>2026-04-12T10:40:25.028Z</time></trkpt><trkpt lat="43.801885" lon="12.6806817"><ele>223.0</ele><time>2026-04-12T10:40:26.028Z</time></trkpt><trkpt lat="43.8020317" lon="12.6807917"><ele>220.0</ele><time>2026-04-12T10:40:27.03Z</time></trkpt><trkpt lat="43.802185" lon="12.6809033"><ele>217.0</ele><time>2026-04-12T10:40:28.029Z</time></trkpt><trkpt lat="43.8023433" lon="12.6810033"><ele>217.0</ele><time>2026-04-12T10:40:29.038Z</time></trkpt><trkpt lat="43.8025017" lon="12.6810833"><ele>217.0</ele><time>2026-04-12T10:40:30.028Z</time></trkpt><trkpt lat="43.8026633" lon="12.6811533"><ele>217.0</ele><time>2026-04-12T10:40:31.029Z</time></trkpt><trkpt lat="43.8028317" lon="12.6812233"><ele>216.0</ele><time>2026-04-12T10:40:32.029Z</time></trkpt><trkpt lat="43.8029967" lon="12.6812933"><ele>215.0</ele><time>2026-04-12T10:40:33.035Z</time></trkpt><trkpt lat="43.8031483" lon="12.68136"><ele>214.0</ele><time>2026-04-12T10:40:34.028Z</time></trkpt><trkpt lat="43.80328" lon="12.6814267"><ele>214.0</ele><time>2026-04-12T10:40:35.034Z</time></trkpt><trkpt lat="43.8034017" lon="12.6814933"><ele>214.0</ele><time>2026-04-12T10:40:36.032Z</time></trkpt><trkpt lat="43.8035167" lon="12.68156"><ele>214.0</ele><time>2026-04-12T10:40:37.032Z</time></trkpt><trkpt lat="43.8036267" lon="12.6816367"><ele>214.0</ele><time>2026-04-12T10:40:38.027Z</time></trkpt><trkpt lat="43.803735" lon="12.681725"><ele>214.25</ele><time>2026-04-12T10:40:39.029Z</time></trkpt><trkpt lat="43.8038483" lon="12.681825"><ele>214.5</ele><time>2026-04-12T10:40:40.028Z</time></trkpt><trkpt lat="43.8039667" lon="12.6819317"><ele>214.75</ele><time>2026-04-12T10:40:41.029Z</time></trkpt><trkpt lat="43.8040867" lon="12.6820433"><ele>215.0</ele><time>2026-04-12T10:40:42.03Z</time></trkpt><trkpt lat="43.8042067" lon="12.68216"><ele>214.0</ele><time>2026-04-12T10:40:43.03Z</time></trkpt><trkpt lat="43.8043283" lon="12.6822817"><ele>213.0</ele><time>2026-04-12T10:40:44.029Z</time></trkpt><trkpt lat="43.8044533" lon="12.6824117"><ele>212.0</ele><time>2026-04-12T10:40:45.032Z</time></trkpt><trkpt lat="43.80458" lon="12.6825467"><ele>212.0</ele><time>2026-04-12T10:40:46.032Z</time></trkpt><trkpt lat="43.8047017" lon="12.6826833"><ele>212.0</ele><time>2026-04-12T10:40:47.028Z</time></trkpt><trkpt lat="43.8048167" lon="12.6828233"><ele>212.0</ele><time>2026-04-12T10:40:48.029Z</time></trkpt><trkpt lat="43.8049333" lon="12.6829683"><ele>211.33333333333334</ele><time>2026-04-12T10:40:49.029Z</time></trkpt><trkpt lat="43.805055" lon="12.68312"><ele>210.66666666666669</ele><time>2026-04-12T10:40:50.031Z</time></trkpt><trkpt lat="43.8051767" lon="12.683275"><ele>210.0</ele><time>2026-04-12T10:40:51.033Z</time></trkpt><trkpt lat="43.8052967" lon="12.6834367"><ele>210.0</ele><time>2026-04-12T10:40:52.038Z</time></trkpt><trkpt lat="43.805415" lon="12.6836033"><ele>210.0</ele><time>2026-04-12T10:40:53.034Z</time></trkpt><trkpt lat="43.805535" lon="12.683775"><ele>210.0</ele><time>2026-04-12T10:40:54.026Z</time></trkpt><trkpt lat="43.80566" lon="12.68395"><ele>210.0</ele><time>2026-04-12T10:40:55.031Z</time></trkpt><trkpt lat="43.8057883" lon="12.6841183"><ele>210.0</ele><time>2026-04-12T10:40:56.032Z</time></trkpt><trkpt lat="43.8059217" lon="12.6842817"><ele>210.0</ele><time>2026-04-12T10:40:57.031Z</time></trkpt><trkpt lat="43.80606" lon="12.6844367"><ele>213.33333333333331</ele><time>2026-04-12T10:40:58.034Z</time></trkpt><trkpt lat="43.806205" lon="12.6845833"><ele>216.66666666666666</ele><time>2026-04-12T10:40:59.028Z</time></trkpt><trkpt lat="43.806345" lon="12.684725"><ele>220.0</ele><time>2026-04-12T10:41:00.026Z</time></trkpt><trkpt lat="43.80648" lon="12.6848717"><ele>220.0</ele><time>2026-04-12T10:41:01.029Z</time></trkpt><trkpt lat="43.8066117" lon="12.6850167"><ele>220.0</ele><time>2026-04-12T10:41:02.032Z</time></trkpt><trkpt lat="43.8067417" lon="12.685165"><ele>220.0</ele><time>2026-04-12T10:41:03.028Z</time></trkpt><trkpt lat="43.8068717" lon="12.6853167"><ele>224.0</ele><time>2026-04-12T10:41:04.03Z</time></trkpt><trkpt lat="43.806995" lon="12.6854633"><ele>228.0</ele><time>2026-04-12T10:41:05.028Z</time></trkpt><trkpt lat="43.80711" lon="12.6855967"><ele>232.0</ele><time>2026-04-12T10:41:06.033Z</time></trkpt><trkpt lat="43.80722" lon="12.6857183"><ele>232.0</ele><time>2026-04-12T10:41:07.029Z</time></trkpt><trkpt lat="43.8073267" lon="12.6858333"><ele>232.0</ele><time>2026-04-12T10:41:08.03Z</time></trkpt><trkpt lat="43.8074317" lon="12.6859567"><ele>232.0</ele><time>2026-04-12T10:41:09.03Z</time></trkpt><trkpt lat="43.80753" lon="12.686095"><ele>232.0</ele><time>2026-04-12T10:41:10.034Z</time></trkpt><trkpt lat="43.80762" lon="12.6862533"><ele>230.33333333333331</ele><time>2026-04-12T10:41:11.028Z</time></trkpt><trkpt lat="43.8076983" lon="12.6864333"><ele>228.66666666666669</ele><time>2026-04-12T10:41:12.025Z</time></trkpt><trkpt lat="43.8077617" lon="12.686635"><ele>227.0</ele><time>2026-04-12T10:41:13.027Z</time></trkpt><trkpt lat="43.80781" lon="12.6868583"><ele>227.33333333333334</ele><time>2026-04-12T10:41:14.028Z</time></trkpt><trkpt lat="43.8078567" lon="12.687095"><ele>227.66666666666669</ele><time>2026-04-12T10:41:15.027Z</time></trkpt><trkpt lat="43.8079067" lon="12.6873283"><ele>228.0</ele><time>2026-04-12T10:41:16.029Z</time></trkpt><trkpt lat="43.807955" lon="12.6875467"><ele>228.0</ele><time>2026-04-12T10:41:17.031Z</time></trkpt><trkpt lat="43.8080067" lon="12.6877483"><ele>228.0</ele><time>2026-04-12T10:41:18.029Z</time></trkpt><trkpt lat="43.8080667" lon="12.687945"><ele>228.0</ele><time>2026-04-12T10:41:19.029Z</time></trkpt><trkpt lat="43.8081317" lon="12.6881467"><ele>229.0</ele><time>2026-04-12T10:41:20.03Z</time></trkpt><trkpt lat="43.8082017" lon="12.6883567"><ele>230.0</ele><time>2026-04-12T10:41:21.029Z</time></trkpt><trkpt lat="43.808275" lon="12.68857"><ele>231.0</ele><time>2026-04-12T10:41:22.028Z</time></trkpt><trkpt lat="43.8083433" lon="12.6887733"><ele>231.0</ele><time>2026-04-12T10:41:23.031Z</time></trkpt><trkpt lat="43.8084067" lon="12.6889683"><ele>231.0</ele><time>2026-04-12T10:41:24.025Z</time></trkpt><trkpt lat="43.8084683" lon="12.6891617"><ele>231.0</ele><time>2026-04-12T10:41:25.027Z</time></trkpt><trkpt lat="43.808525" lon="12.6893617"><ele>229.66666666666669</ele><time>2026-04-12T10:41:26.029Z</time></trkpt><trkpt lat="43.8085783" lon="12.68957"><ele>228.33333333333334</ele><time>2026-04-12T10:41:27.03Z</time></trkpt><trkpt lat="43.808625" lon="12.6897883"><ele>227.0</ele><time>2026-04-12T10:41:28.031Z</time></trkpt><trkpt lat="43.808665" lon="12.690005"><ele>227.0</ele><time>2026-04-12T10:41:29.029Z</time></trkpt><trkpt lat="43.8087" lon="12.6902117"><ele>227.0</ele><time>2026-04-12T10:41:30.035Z</time></trkpt><trkpt lat="43.808735" lon="12.690415"><ele>227.0</ele><time>2026-04-12T10:41:31.03Z</time></trkpt><trkpt lat="43.8087783" lon="12.690625"><ele>228.0</ele><time>2026-04-12T10:41:32.031Z</time></trkpt><trkpt lat="43.8088367" lon="12.6908417"><ele>229.0</ele><time>2026-04-12T10:41:33.028Z</time></trkpt><trkpt lat="43.808905" lon="12.6910567"><ele>230.0</ele><time>2026-04-12T10:41:34.028Z</time></trkpt><trkpt lat="43.8089883" lon="12.6912683"><ele>230.0</ele><time>2026-04-12T10:41:35.029Z</time></trkpt><trkpt lat="43.8090817" lon="12.6914733"><ele>230.0</ele><time>2026-04-12T10:41:36.03Z</time></trkpt><trkpt lat="43.8091867" lon="12.6916767"><ele>230.0</ele><time>2026-04-12T10:41:37.033Z</time></trkpt><trkpt lat="43.8093033" lon="12.6918733"><ele>230.0</ele><time>2026-04-12T10:41:38.028Z</time></trkpt><trkpt lat="43.80944" lon="12.6920583"><ele>230.0</ele><time>2026-04-12T10:41:39.029Z</time></trkpt><trkpt lat="43.8095833" lon="12.69223"><ele>230.0</ele><time>2026-04-12T10:41:40.032Z</time></trkpt><trkpt lat="43.8097167" lon="12.6924033"><ele>230.0</ele><time>2026-04-12T10:41:41.032Z</time></trkpt><trkpt lat="43.8098333" lon="12.6926"><ele>230.0</ele><time>2026-04-12T10:41:42.031Z</time></trkpt><trkpt lat="43.80993" lon="12.6928333"><ele>230.0</ele><time>2026-04-12T10:41:43.03Z</time></trkpt><trkpt lat="43.8100167" lon="12.6930883"><ele>232.0</ele><time>2026-04-12T10:41:44.033Z</time></trkpt><trkpt lat="43.8101017" lon="12.6933517"><ele>234.0</ele><time>2026-04-12T10:41:45.027Z</time></trkpt><trkpt lat="43.810185" lon="12.693615"><ele>236.0</ele><time>2026-04-12T10:41:46.032Z</time></trkpt><trkpt lat="43.8102683" lon="12.69387"><ele>240.33333333333334</ele><time>2026-04-12T10:41:47.03Z</time></trkpt><trkpt lat="43.81035" lon="12.6941217"><ele>244.66666666666669</ele><time>2026-04-12T10:41:48.027Z</time></trkpt><trkpt lat="43.81043" lon="12.6943683"><ele>249.0</ele><time>2026-04-12T10:41:49.028Z</time></trkpt><trkpt lat="43.810505" lon="12.6946033"><ele>250.25</ele><time>2026-04-12T10:41:50.03Z</time></trkpt><trkpt lat="43.8105683" lon="12.6948183"><ele>251.5</ele><time>2026-04-12T10:41:51.03Z</time></trkpt><trkpt lat="43.8106233" lon="12.6950017"><ele>252.75</ele><time>2026-04-12T10:41:52.033Z</time></trkpt><trkpt lat="43.8106817" lon="12.6951467"><ele>254.0</ele><time>2026-04-12T10:41:53.033Z</time></trkpt><trkpt lat="43.8107567" lon="12.6952483"><ele>253.75</ele><time>2026-04-12T10:41:54.031Z</time></trkpt><trkpt lat="43.81086" lon="12.6953067"><ele>253.5</ele><time>2026-04-12T10:41:55.03Z</time></trkpt><trkpt lat="43.81098" lon="12.6953283"><ele>253.25</ele><time>2026-04-12T10:41:56.036Z</time></trkpt><trkpt lat="43.8111167" lon="12.6952917"><ele>253.0</ele><time>2026-04-12T10:41:57.025Z</time></trkpt><trkpt lat="43.81126" lon="12.695245"><ele>256.25</ele><time>2026-04-12T10:41:58.027Z</time></trkpt><trkpt lat="43.81141" lon="12.69519"><ele>259.5</ele><time>2026-04-12T10:41:59.027Z</time></trkpt><trkpt lat="43.811545" lon="12.69514"><ele>262.75</ele><time>2026-04-12T10:42:00.025Z</time></trkpt><trkpt lat="43.8116717" lon="12.6951117"><ele>266.0</ele><time>2026-04-12T10:42:01.028Z</time></trkpt><trkpt lat="43.8117917" lon="12.695115"><ele>267.0</ele><time>2026-04-12T10:42:02.029Z</time></trkpt><trkpt lat="43.8119017" lon="12.6951733"><ele>268.0</ele><time>2026-04-12T10:42:03.03Z</time></trkpt><trkpt lat="43.8119867" lon="12.6953"><ele>269.0</ele><time>2026-04-12T10:42:04.03Z</time></trkpt><trkpt lat="43.8120467" lon="12.6954783"><ele>270.0</ele><time>2026-04-12T10:42:05.032Z</time></trkpt><trkpt lat="43.812085" lon="12.6956767"><ele>270.5</ele><time>2026-04-12T10:42:06.027Z</time></trkpt><trkpt lat="43.8121167" lon="12.695855"><ele>271.0</ele><time>2026-04-12T10:42:07.025Z</time></trkpt><trkpt lat="43.8121417" lon="12.69603"><ele>271.5</ele><time>2026-04-12T10:42:08.029Z</time></trkpt><trkpt lat="43.81216" lon="12.6962"><ele>272.0</ele><time>2026-04-12T10:42:09.027Z</time></trkpt><trkpt lat="43.8121717" lon="12.6963667"><ele>272.5</ele><time>2026-04-12T10:42:10.031Z</time></trkpt><trkpt lat="43.8121767" lon="12.6965267"><ele>273.0</ele><time>2026-04-12T10:42:11.029Z</time></trkpt><trkpt lat="43.812175" lon="12.69669"><ele>273.5</ele><time>2026-04-12T10:42:12.031Z</time></trkpt><trkpt lat="43.812175" lon="12.6968533"><ele>274.0</ele><time>2026-04-12T10:42:13.031Z</time></trkpt><trkpt lat="43.8121783" lon="12.697015"><ele>275.59999999999997</ele><time>2026-04-12T10:42:14.024Z</time></trkpt><trkpt lat="43.8121867" lon="12.6971683"><ele>277.2</ele><time>2026-04-12T10:42:15.028Z</time></trkpt><trkpt lat="43.8122117" lon="12.6973117"><ele>278.79999999999995</ele><time>2026-04-12T10:42:16.03Z</time></trkpt><trkpt lat="43.8122683" lon="12.697435"><ele>280.4</ele><time>2026-04-12T10:42:17.028Z</time></trkpt><trkpt lat="43.8123533" lon="12.6975183"><ele>282.0</ele><time>2026-04-12T10:42:18.032Z</time></trkpt><trkpt lat="43.8124667" lon="12.6975433"><ele>282.0</ele><time>2026-04-12T10:42:19.031Z</time></trkpt><trkpt lat="43.812585" lon="12.6974917"><ele>282.0</ele><time>2026-04-12T10:42:20.032Z</time></trkpt><trkpt lat="43.8126883" lon="12.6974483"><ele>282.0</ele><time>2026-04-12T10:42:21.029Z</time></trkpt><trkpt lat="43.812795" lon="12.69742"><ele>282.0</ele><time>2026-04-12T10:42:22.03Z</time></trkpt><trkpt lat="43.8129083" lon="12.69741"><ele>283.5</ele><time>2026-04-12T10:42:23.027Z</time></trkpt><trkpt lat="43.8130317" lon="12.69742"><ele>285.0</ele><time>2026-04-12T10:42:24.025Z</time></trkpt><trkpt lat="43.813155" lon="12.6974417"><ele>286.5</ele><time>2026-04-12T10:42:25.031Z</time></trkpt><trkpt lat="43.8132717" lon="12.697475"><ele>288.0</ele><time>2026-04-12T10:42:26.028Z</time></trkpt><trkpt lat="43.813375" lon="12.6975067"><ele>288.0</ele><time>2026-04-12T10:42:27.031Z</time></trkpt><trkpt lat="43.813475" lon="12.6975483"><ele>288.0</ele><time>2026-04-12T10:42:28.03Z</time></trkpt><trkpt lat="43.813565" lon="12.697615"><ele>288.0</ele><time>2026-04-12T10:42:29.029Z</time></trkpt><trkpt lat="43.8136483" lon="12.6977117"><ele>288.0</ele><time>2026-04-12T10:42:30.031Z</time></trkpt><trkpt lat="43.8137033" lon="12.6978433"><ele>288.0</ele><time>2026-04-12T10:42:31.032Z</time></trkpt><trkpt lat="43.8137317" lon="12.698005"><ele>285.25</ele><time>2026-04-12T10:42:32.03Z</time></trkpt><trkpt lat="43.8137383" lon="12.698185"><ele>282.5</ele><time>2026-04-12T10:42:33.028Z</time></trkpt><trkpt lat="43.8137267" lon="12.6983667"><ele>279.75</ele><time>2026-04-12T10:42:34.028Z</time></trkpt><trkpt lat="43.8137117" lon="12.6985467"><ele>277.0</ele><time>2026-04-12T10:42:35.034Z</time></trkpt><trkpt lat="43.8136983" lon="12.6987183"><ele>276.75</ele><time>2026-04-12T10:42:36.03Z</time></trkpt><trkpt lat="43.81368" lon="12.698885"><ele>276.5</ele><time>2026-04-12T10:42:37.032Z</time></trkpt><trkpt lat="43.8136533" lon="12.69905"><ele>276.25</ele><time>2026-04-12T10:42:38.034Z</time></trkpt><trkpt lat="43.8136367" lon="12.6992083"><ele>276.0</ele><time>2026-04-12T10:42:39.032Z</time></trkpt><trkpt lat="43.81362" lon="12.6993717"><ele>276.5</ele><time>2026-04-12T10:42:40.028Z</time></trkpt><trkpt lat="43.8136017" lon="12.6995417"><ele>277.0</ele><time>2026-04-12T10:42:41.028Z</time></trkpt><trkpt lat="43.8135917" lon="12.6997167"><ele>277.5</ele><time>2026-04-12T10:42:42.034Z</time></trkpt><trkpt lat="43.8135833" lon="12.6998933"><ele>278.0</ele><time>2026-04-12T10:42:43.025Z</time></trkpt><trkpt lat="43.8135817" lon="12.7000617"><ele>278.0</ele><time>2026-04-12T10:42:44.032Z</time></trkpt><trkpt lat="43.813595" lon="12.7002333"><ele>278.0</ele><time>2026-04-12T10:42:45.03Z</time></trkpt><trkpt lat="43.813635" lon="12.7004067"><ele>278.0</ele><time>2026-04-12T10:42:46.029Z</time></trkpt><trkpt lat="43.8136983" lon="12.7005667"><ele>278.0</ele><time>2026-04-12T10:42:47.025Z</time></trkpt><trkpt lat="43.8137633" lon="12.7007067"><ele>281.25</ele><time>2026-04-12T10:42:48.031Z</time></trkpt><trkpt lat="43.813845" lon="12.7008333"><ele>284.5</ele><time>2026-04-12T10:42:49.032Z</time></trkpt><trkpt lat="43.81394" lon="12.7009533"><ele>287.75</ele><time>2026-04-12T10:42:50.029Z</time></trkpt><trkpt lat="43.8140383" lon="12.7010667"><ele>291.0</ele><time>2026-04-12T10:42:51.035Z</time></trkpt><trkpt lat="43.8141317" lon="12.7011733"><ele>293.0</ele><time>2026-04-12T10:42:52.027Z</time></trkpt><trkpt lat="43.814215" lon="12.7012783"><ele>295.0</ele><time>2026-04-12T10:42:53.029Z</time></trkpt><trkpt lat="43.814295" lon="12.70139"><ele>297.0</ele><time>2026-04-12T10:42:54.03Z</time></trkpt><trkpt lat="43.8143633" lon="12.701525"><ele>299.0</ele><time>2026-04-12T10:42:55.028Z</time></trkpt><trkpt lat="43.8144217" lon="12.701675"><ele>300.25</ele><time>2026-04-12T10:42:56.035Z</time></trkpt><trkpt lat="43.8144733" lon="12.7018333"><ele>301.5</ele><time>2026-04-12T10:42:57.033Z</time></trkpt><trkpt lat="43.8145083" lon="12.7019933"><ele>302.75</ele><time>2026-04-12T10:42:58.04Z</time></trkpt><trkpt lat="43.814535" lon="12.702145"><ele>304.0</ele><time>2026-04-12T10:42:59.028Z</time></trkpt><trkpt lat="43.8145583" lon="12.7022767"><ele>304.0</ele><time>2026-04-12T10:43:00.029Z</time></trkpt><trkpt lat="43.8145833" lon="12.7023817"><ele>304.0</ele><time>2026-04-12T10:43:01.032Z</time></trkpt><trkpt lat="43.814655" lon="12.7024767"><ele>304.0</ele><time>2026-04-12T10:43:03.026Z</time></trkpt><trkpt lat="43.814765" lon="12.702495"><ele>304.0</ele><time>2026-04-12T10:43:05.032Z</time></trkpt><trkpt lat="43.81484" lon="12.7025017"><ele>304.0</ele><time>2026-04-12T10:43:06.027Z</time></trkpt><trkpt lat="43.8149083" lon="12.7025267"><ele>304.0</ele><time>2026-04-12T10:43:07.026Z</time></trkpt><trkpt lat="43.8149683" lon="12.7025733"><ele>304.0</ele><time>2026-04-12T10:43:08.029Z</time></trkpt><trkpt lat="43.8150317" lon="12.702635"><ele>304.0</ele><time>2026-04-12T10:43:09.026Z</time></trkpt><trkpt lat="43.8150967" lon="12.7027083"><ele>304.0</ele><time>2026-04-12T10:43:10.037Z</time></trkpt><trkpt lat="43.81516" lon="12.702795"><ele>304.0</ele><time>2026-04-12T10:43:11.031Z</time></trkpt><trkpt lat="43.815225" lon="12.70288"><ele>304.0</ele><time>2026-04-12T10:43:12.027Z</time></trkpt><trkpt lat="43.8152833" lon="12.7029667"><ele>304.0</ele><time>2026-04-12T10:43:13.028Z</time></trkpt><trkpt lat="43.8153383" lon="12.7030467"><ele>304.3333333333333</ele><time>2026-04-12T10:43:14.029Z</time></trkpt><trkpt lat="43.8153933" lon="12.7031133"><ele>304.66666666666663</ele><time>2026-04-12T10:43:15.03Z</time></trkpt><trkpt lat="43.8154483" lon="12.70316"><ele>305.0</ele><time>2026-04-12T10:43:16.028Z</time></trkpt><trkpt lat="43.81558" lon="12.70317"><ele>305.3333333333333</ele><time>2026-04-12T10:43:18.025Z</time></trkpt><trkpt lat="43.8156567" lon="12.7031483"><ele>305.6666666666667</ele><time>2026-04-12T10:43:19.027Z</time></trkpt><trkpt lat="43.8157267" lon="12.7031317"><ele>306.0</ele><time>2026-04-12T10:43:20.025Z</time></trkpt><trkpt lat="43.8157883" lon="12.7031117"><ele>306.0</ele><time>2026-04-12T10:43:21.031Z</time></trkpt><trkpt lat="43.8158917" lon="12.703095"><ele>306.0</ele><time>2026-04-12T10:43:23.03Z</time></trkpt><trkpt lat="43.816015" lon="12.7031567"><ele>306.0</ele><time>2026-04-12T10:43:25.026Z</time></trkpt><trkpt lat="43.81608" lon="12.70322"><ele>306.0</ele><time>2026-04-12T10:43:26.033Z</time></trkpt><trkpt lat="43.8161433" lon="12.7032733"><ele>306.0</ele><time>2026-04-12T10:43:27.03Z</time></trkpt><trkpt lat="43.81621" lon="12.7033083"><ele>306.0</ele><time>2026-04-12T10:43:28.029Z</time></trkpt><trkpt lat="43.816275" lon="12.7033183"><ele>306.0</ele><time>2026-04-12T10:43:29.031Z</time></trkpt><trkpt lat="43.8163383" lon="12.7033033"><ele>306.0</ele><time>2026-04-12T10:43:30.035Z</time></trkpt><trkpt lat="43.8164067" lon="12.7032783"><ele>306.0</ele><time>2026-04-12T10:43:31.028Z</time></trkpt><trkpt lat="43.8164733" lon="12.7032767"><ele>306.0</ele><time>2026-04-12T10:43:32.032Z</time></trkpt><trkpt lat="43.8165467" lon="12.703285"><ele>306.0</ele><time>2026-04-12T10:43:33.033Z</time></trkpt><trkpt lat="43.8166217" lon="12.703325"><ele>306.0</ele><time>2026-04-12T10:43:34.032Z</time></trkpt><trkpt lat="43.8166967" lon="12.7033583"><ele>306.0</ele><time>2026-04-12T10:43:35.032Z</time></trkpt><trkpt lat="43.81676" lon="12.7033733"><ele>306.0</ele><time>2026-04-12T10:43:36.029Z</time></trkpt><trkpt lat="43.8168683" lon="12.7033383"><ele>306.0</ele><time>2026-04-12T10:43:38.026Z</time></trkpt><trkpt lat="43.8169317" lon="12.7032633"><ele>306.0</ele><time>2026-04-12T10:43:39.026Z</time></trkpt><trkpt lat="43.8169917" lon="12.70319"><ele>306.0</ele><time>2026-04-12T10:43:40.03Z</time></trkpt><trkpt lat="43.81705" lon="12.7031133"><ele>306.0</ele><time>2026-04-12T10:43:41.028Z</time></trkpt><trkpt lat="43.8171033" lon="12.703045"><ele>306.8</ele><time>2026-04-12T10:43:42.03Z</time></trkpt><trkpt lat="43.8172033" lon="12.70295"><ele>307.6</ele><time>2026-04-12T10:43:44.026Z</time></trkpt><trkpt lat="43.81732" lon="12.702925"><ele>308.4</ele><time>2026-04-12T10:43:46.026Z</time></trkpt><trkpt lat="43.8174033" lon="12.70293"><ele>309.2</ele><time>2026-04-12T10:43:47.03Z</time></trkpt><trkpt lat="43.8174833" lon="12.7029417"><ele>310.0</ele><time>2026-04-12T10:43:48.034Z</time></trkpt><trkpt lat="43.8175517" lon="12.70295"><ele>309.3333333333333</ele><time>2026-04-12T10:43:49.028Z</time></trkpt><trkpt lat="43.8176583" lon="12.70291"><ele>308.66666666666663</ele><time>2026-04-12T10:43:51.032Z</time></trkpt><trkpt lat="43.817715" lon="12.702755"><ele>308.0</ele><time>2026-04-12T10:43:53.031Z</time></trkpt><trkpt lat="43.817745" lon="12.7026633"><ele>307.3333333333333</ele><time>2026-04-12T10:43:54.032Z</time></trkpt><trkpt lat="43.8177783" lon="12.7025767"><ele>306.6666666666667</ele><time>2026-04-12T10:43:55.029Z</time></trkpt><trkpt lat="43.81781" lon="12.7024967"><ele>306.0</ele><time>2026-04-12T10:43:56.032Z</time></trkpt><trkpt lat="43.81784" lon="12.7024167"><ele>304.6</ele><time>2026-04-12T10:43:57.027Z</time></trkpt><trkpt lat="43.81787" lon="12.7023383"><ele>303.20000000000005</ele><time>2026-04-12T10:43:58.031Z</time></trkpt><trkpt lat="43.8179233" lon="12.7021817"><ele>301.79999999999995</ele><time>2026-04-12T10:44:00.025Z</time></trkpt><trkpt lat="43.817965" lon="12.70202"><ele>300.4</ele><time>2026-04-12T10:44:02.034Z</time></trkpt><trkpt lat="43.8180067" lon="12.701855"><ele>299.0</ele><time>2026-04-12T10:44:04.026Z</time></trkpt><trkpt lat="43.8180483" lon="12.7016933"><ele>295.75</ele><time>2026-04-12T10:44:06.027Z</time></trkpt><trkpt lat="43.81808" lon="12.7015367"><ele>292.5</ele><time>2026-04-12T10:44:08.032Z</time></trkpt><trkpt lat="43.8181183" lon="12.70139"><ele>289.25</ele><time>2026-04-12T10:44:10.031Z</time></trkpt><trkpt lat="43.818165" lon="12.7012583"><ele>286.0</ele><time>2026-04-12T10:44:12.026Z</time></trkpt><trkpt lat="43.81822" lon="12.7011133"><ele>281.75</ele><time>2026-04-12T10:44:14.032Z</time></trkpt><trkpt lat="43.81827" lon="12.700975"><ele>277.5</ele><time>2026-04-12T10:44:16.026Z</time></trkpt><trkpt lat="43.818325" lon="12.7008383"><ele>273.25</ele><time>2026-04-12T10:44:18.028Z</time></trkpt><trkpt lat="43.8183867" lon="12.7007"><ele>269.0</ele><time>2026-04-12T10:44:20.028Z</time></trkpt><trkpt lat="43.8184467" lon="12.70057"><ele>268.25</ele><time>2026-04-12T10:44:22.033Z</time></trkpt><trkpt lat="43.8185133" lon="12.7004383"><ele>267.5</ele><time>2026-04-12T10:44:24.032Z</time></trkpt><trkpt lat="43.8185883" lon="12.70031"><ele>266.75</ele><time>2026-04-12T10:44:26.03Z</time></trkpt><trkpt lat="43.8186617" lon="12.7001767"><ele>266.0</ele><time>2026-04-12T10:44:28.026Z</time></trkpt><trkpt lat="43.8187383" lon="12.7000333"><ele>264.5</ele><time>2026-04-12T10:44:30.035Z</time></trkpt><trkpt lat="43.8187967" lon="12.6998817"><ele>263.0</ele><time>2026-04-12T10:44:32.03Z</time></trkpt><trkpt lat="43.81885" lon="12.69973"><ele>261.5</ele><time>2026-04-12T10:44:34.033Z</time></trkpt><trkpt lat="43.818885" lon="12.699655"><ele>260.0</ele><time>2026-04-12T10:44:35.04Z</time></trkpt><trkpt lat="43.8189233" lon="12.6995783"><ele>258.5</ele><time>2026-04-12T10:44:36.029Z</time></trkpt><trkpt lat="43.8189633" lon="12.6995033"><ele>257.0</ele><time>2026-04-12T10:44:37.03Z</time></trkpt><trkpt lat="43.8190117" lon="12.699435"><ele>255.6</ele><time>2026-04-12T10:44:38.034Z</time></trkpt><trkpt lat="43.8190617" lon="12.6993783"><ele>254.2</ele><time>2026-04-12T10:44:39.028Z</time></trkpt><trkpt lat="43.8191117" lon="12.699325"><ele>252.8</ele><time>2026-04-12T10:44:40.029Z</time></trkpt><trkpt lat="43.819205" lon="12.6992317"><ele>251.4</ele><time>2026-04-12T10:44:42.029Z</time></trkpt><trkpt lat="43.8192917" lon="12.699145"><ele>250.0</ele><time>2026-04-12T10:44:44.035Z</time></trkpt><trkpt lat="43.8193817" lon="12.6990633"><ele>248.6</ele><time>2026-04-12T10:44:46.031Z</time></trkpt><trkpt lat="43.81946" lon="12.69899"><ele>247.2</ele><time>2026-04-12T10:44:48.035Z</time></trkpt><trkpt lat="43.81955" lon="12.698915"><ele>245.8</ele><time>2026-04-12T10:44:50.028Z</time></trkpt><trkpt lat="43.819635" lon="12.6988317"><ele>244.4</ele><time>2026-04-12T10:44:52.03Z</time></trkpt><trkpt lat="43.8197167" lon="12.6987267"><ele>243.0</ele><time>2026-04-12T10:44:54.033Z</time></trkpt><trkpt lat="43.8198067" lon="12.6986167"><ele>242.0</ele><time>2026-04-12T10:44:56.031Z</time></trkpt><trkpt lat="43.8198983" lon="12.6985017"><ele>241.0</ele><time>2026-04-12T10:44:58.039Z</time></trkpt><trkpt lat="43.8199883" lon="12.6983983"><ele>240.0</ele><time>2026-04-12T10:45:00.028Z</time></trkpt><trkpt lat="43.8200783" lon="12.6983"><ele>239.0</ele><time>2026-04-12T10:45:02.032Z</time></trkpt><trkpt lat="43.8201267" lon="12.6982433"><ele>238.0</ele><time>2026-04-12T10:45:03.029Z</time></trkpt><trkpt lat="43.820225" lon="12.6981367"><ele>235.5</ele><time>2026-04-12T10:45:05.027Z</time></trkpt><trkpt lat="43.8203183" lon="12.6980417"><ele>233.0</ele><time>2026-04-12T10:45:07.03Z</time></trkpt><trkpt lat="43.8204183" lon="12.6979517"><ele>230.5</ele><time>2026-04-12T10:45:09.026Z</time></trkpt><trkpt lat="43.8205217" lon="12.69788"><ele>228.0</ele><time>2026-04-12T10:45:11.027Z</time></trkpt><trkpt lat="43.82063" lon="12.6978183"><ele>228.0</ele><time>2026-04-12T10:45:13.026Z</time></trkpt><trkpt lat="43.82068" lon="12.6977617"><ele>227.99999999999997</ele><time>2026-04-12T10:45:14.027Z</time></trkpt><trkpt lat="43.8207233" lon="12.6976833"><ele>228.0</ele><time>2026-04-12T10:45:15.03Z</time></trkpt><trkpt lat="43.820765" lon="12.6976033"><ele>228.0</ele><time>2026-04-12T10:45:16.029Z</time></trkpt><trkpt lat="43.8208167" lon="12.69752"><ele>227.99999999999997</ele><time>2026-04-12T10:45:17.03Z</time></trkpt><trkpt lat="43.82087" lon="12.69744"><ele>228.0</ele><time>2026-04-12T10:45:18.034Z</time></trkpt><trkpt lat="43.8209267" lon="12.6973717"><ele>228.0</ele><time>2026-04-12T10:45:19.03Z</time></trkpt><trkpt lat="43.8209767" lon="12.6973167"><ele>227.4</ele><time>2026-04-12T10:45:20.027Z</time></trkpt><trkpt lat="43.8210817" lon="12.697225"><ele>226.8</ele><time>2026-04-12T10:45:22.029Z</time></trkpt><trkpt lat="43.82114" lon="12.6971733"><ele>226.2</ele><time>2026-04-12T10:45:23.035Z</time></trkpt><trkpt lat="43.8211967" lon="12.6971217"><ele>225.6</ele><time>2026-04-12T10:45:24.028Z</time></trkpt><trkpt lat="43.8212517" lon="12.6970717"><ele>225.0</ele><time>2026-04-12T10:45:25.026Z</time></trkpt><trkpt lat="43.8213433" lon="12.6969583"><ele>224.4</ele><time>2026-04-12T10:45:27.029Z</time></trkpt><trkpt lat="43.82143" lon="12.6968933"><ele>223.8</ele><time>2026-04-12T10:45:29.028Z</time></trkpt><trkpt lat="43.8215017" lon="12.6968417"><ele>223.2</ele><time>2026-04-12T10:45:31.025Z</time></trkpt><trkpt lat="43.8215583" lon="12.696735"><ele>222.6</ele><time>2026-04-12T10:45:33.027Z</time></trkpt><trkpt lat="43.8215817" lon="12.696585"><ele>222.0</ele><time>2026-04-12T10:45:35.029Z</time></trkpt><trkpt lat="43.8215667" lon="12.6964417"><ele>222.0</ele><time>2026-04-12T10:45:37.028Z</time></trkpt><trkpt lat="43.8215317" lon="12.6963133"><ele>222.0</ele><time>2026-04-12T10:45:39.027Z</time></trkpt><trkpt lat="43.8214917" lon="12.69621"><ele>222.0</ele><time>2026-04-12T10:45:41.026Z</time></trkpt><trkpt lat="43.8214617" lon="12.6961083"><ele>222.0</ele><time>2026-04-12T10:45:43.029Z</time></trkpt><trkpt lat="43.8214517" lon="12.6959983"><ele>222.0</ele><time>2026-04-12T10:45:45.026Z</time></trkpt><trkpt lat="43.8214533" lon="12.695895"><ele>222.0</ele><time>2026-04-12T10:45:47.03Z</time></trkpt><trkpt lat="43.82146" lon="12.695805"><ele>219.6</ele><time>2026-04-12T10:45:49.033Z</time></trkpt><trkpt lat="43.8214617" lon="12.6957"><ele>217.2</ele><time>2026-04-12T10:45:51.029Z</time></trkpt><trkpt lat="43.8214883" lon="12.6955767"><ele>214.8</ele><time>2026-04-12T10:45:53.028Z</time></trkpt><trkpt lat="43.821535" lon="12.69544"><ele>212.4</ele><time>2026-04-12T10:45:55.028Z</time></trkpt><trkpt lat="43.8216" lon="12.695315"><ele>210.0</ele><time>2026-04-12T10:45:57.029Z</time></trkpt><trkpt lat="43.82167" lon="12.695225"><ele>207.66666666666666</ele><time>2026-04-12T10:45:59.031Z</time></trkpt><trkpt lat="43.82175" lon="12.6951517"><ele>205.33333333333331</ele><time>2026-04-12T10:46:01.024Z</time></trkpt><trkpt lat="43.82183" lon="12.69508"><ele>203.0</ele><time>2026-04-12T10:46:03.027Z</time></trkpt><trkpt lat="43.8219" lon="12.6950083"><ele>200.66666666666666</ele><time>2026-04-12T10:46:05.024Z</time></trkpt><trkpt lat="43.8219667" lon="12.69494"><ele>198.33333333333331</ele><time>2026-04-12T10:46:07.026Z</time></trkpt><trkpt lat="43.8220367" lon="12.6948717"><ele>196.0</ele><time>2026-04-12T10:46:09.028Z</time></trkpt><trkpt lat="43.8220983" lon="12.6948083"><ele>194.83333333333331</ele><time>2026-04-12T10:46:11.031Z</time></trkpt><trkpt lat="43.8221617" lon="12.69474"><ele>193.66666666666666</ele><time>2026-04-12T10:46:13.03Z</time></trkpt><trkpt lat="43.8222233" lon="12.6946667"><ele>192.5</ele><time>2026-04-12T10:46:15.033Z</time></trkpt><trkpt lat="43.822285" lon="12.6945867"><ele>191.33333333333331</ele><time>2026-04-12T10:46:17.032Z</time></trkpt><trkpt lat="43.8223483" lon="12.6944883"><ele>190.16666666666666</ele><time>2026-04-12T10:46:19.027Z</time></trkpt><trkpt lat="43.822415" lon="12.6943817"><ele>189.0</ele><time>2026-04-12T10:46:21.026Z</time></trkpt><trkpt lat="43.8224817" lon="12.6942817"><ele>186.0</ele><time>2026-04-12T10:46:23.024Z</time></trkpt><trkpt lat="43.8225467" lon="12.694185"><ele>183.0</ele><time>2026-04-12T10:46:25.028Z</time></trkpt><trkpt lat="43.822625" lon="12.6940833"><ele>180.0</ele><time>2026-04-12T10:46:27.027Z</time></trkpt><trkpt lat="43.822705" lon="12.6939883"><ele>177.0</ele><time>2026-04-12T10:46:29.031Z</time></trkpt><trkpt lat="43.8227867" lon="12.6939083"><ele>174.0</ele><time>2026-04-12T10:46:31.03Z</time></trkpt><trkpt lat="43.8228767" lon="12.6938417"><ele>172.39999999999998</ele><time>2026-04-12T10:46:33.028Z</time></trkpt><trkpt lat="43.8229683" lon="12.6937783"><ele>170.8</ele><time>2026-04-12T10:46:35.028Z</time></trkpt><trkpt lat="43.823055" lon="12.693735"><ele>169.2</ele><time>2026-04-12T10:46:37.029Z</time></trkpt><trkpt lat="43.8231383" lon="12.69369"><ele>167.60000000000002</ele><time>2026-04-12T10:46:39.027Z</time></trkpt><trkpt lat="43.8232283" lon="12.69364"><ele>166.0</ele><time>2026-04-12T10:46:41.027Z</time></trkpt><trkpt lat="43.8233217" lon="12.6935917"><ele>164.8</ele><time>2026-04-12T10:46:43.03Z</time></trkpt><trkpt lat="43.8234133" lon="12.69354"><ele>163.60000000000002</ele><time>2026-04-12T10:46:45.023Z</time></trkpt><trkpt lat="43.8235133" lon="12.69348"><ele>162.4</ele><time>2026-04-12T10:46:47.033Z</time></trkpt><trkpt lat="43.8236317" lon="12.69342"><ele>161.2</ele><time>2026-04-12T10:46:49.029Z</time></trkpt><trkpt lat="43.8236917" lon="12.6933867"><ele>160.0</ele><time>2026-04-12T10:46:50.03Z</time></trkpt><trkpt lat="43.823805" lon="12.6933317"><ele>158.16666666666669</ele><time>2026-04-12T10:46:52.031Z</time></trkpt><trkpt lat="43.8239133" lon="12.6932933"><ele>156.33333333333334</ele><time>2026-04-12T10:46:54.031Z</time></trkpt><trkpt lat="43.8240067" lon="12.6932667"><ele>154.5</ele><time>2026-04-12T10:46:56.032Z</time></trkpt><trkpt lat="43.8240717" lon="12.6932317"><ele>152.66666666666666</ele><time>2026-04-12T10:46:58.03Z</time></trkpt><trkpt lat="43.8240967" lon="12.6931233"><ele>150.83333333333331</ele><time>2026-04-12T10:47:01.029Z</time></trkpt><trkpt lat="43.8240633" lon="12.6930483"><ele>149.0</ele><time>2026-04-12T10:47:03.029Z</time></trkpt><trkpt lat="43.8240183" lon="12.69293"><ele>149.0</ele><time>2026-04-12T10:47:05.027Z</time></trkpt><trkpt lat="43.8239733" lon="12.6927933"><ele>149.0</ele><time>2026-04-12T10:47:07.029Z</time></trkpt><trkpt lat="43.8239467" lon="12.6926633"><ele>149.0</ele><time>2026-04-12T10:47:09.036Z</time></trkpt><trkpt lat="43.8239183" lon="12.6925317"><ele>149.0</ele><time>2026-04-12T10:47:11.029Z</time></trkpt><trkpt lat="43.8239133" lon="12.6924167"><ele>149.0</ele><time>2026-04-12T10:47:13.031Z</time></trkpt><trkpt lat="43.82391" lon="12.6923"><ele>147.5</ele><time>2026-04-12T10:47:15.041Z</time></trkpt><trkpt lat="43.8238983" lon="12.692175"><ele>146.0</ele><time>2026-04-12T10:47:17.029Z</time></trkpt><trkpt lat="43.8238767" lon="12.692075"><ele>144.5</ele><time>2026-04-12T10:47:19.032Z</time></trkpt><trkpt lat="43.8238467" lon="12.69198"><ele>143.0</ele><time>2026-04-12T10:47:21.03Z</time></trkpt><trkpt lat="43.8238517" lon="12.6918917"><ele>141.5</ele><time>2026-04-12T10:47:23.035Z</time></trkpt><trkpt lat="43.82394" lon="12.691945"><ele>140.0</ele><time>2026-04-12T10:47:26.028Z</time></trkpt><trkpt lat="43.824015" lon="12.6920417"><ele>140.0</ele><time>2026-04-12T10:47:28.036Z</time></trkpt><trkpt lat="43.8241083" lon="12.6921467"><ele>140.0</ele><time>2026-04-12T10:47:30.031Z</time></trkpt><trkpt lat="43.8242117" lon="12.692255"><ele>140.0</ele><time>2026-04-12T10:47:32.028Z</time></trkpt><trkpt lat="43.8242733" lon="12.692285"><ele>140.0</ele><time>2026-04-12T10:47:33.031Z</time></trkpt><trkpt lat="43.8243367" lon="12.69231"><ele>140.0</ele><time>2026-04-12T10:47:34.031Z</time></trkpt><trkpt lat="43.8244067" lon="12.6923233"><ele>137.66666666666666</ele><time>2026-04-12T10:47:35.027Z</time></trkpt><trkpt lat="43.82448" lon="12.6923383"><ele>135.33333333333331</ele><time>2026-04-12T10:47:36.032Z</time></trkpt><trkpt lat="43.82455" lon="12.69235"><ele>133.0</ele><time>2026-04-12T10:47:37.03Z</time></trkpt><trkpt lat="43.8246183" lon="12.692365"><ele>130.66666666666666</ele><time>2026-04-12T10:47:38.029Z</time></trkpt><trkpt lat="43.8246867" lon="12.692385"><ele>128.33333333333334</ele><time>2026-04-12T10:47:39.03Z</time></trkpt><trkpt lat="43.8248117" lon="12.69241"><ele>126.0</ele><time>2026-04-12T10:47:41.028Z</time></trkpt><trkpt lat="43.8248767" lon="12.6924167"><ele>126.0</ele><time>2026-04-12T10:47:42.029Z</time></trkpt><trkpt lat="43.8249917" lon="12.6924367"><ele>126.0</ele><time>2026-04-12T10:47:44.031Z</time></trkpt><trkpt lat="43.8250833" lon="12.6924667"><ele>126.0</ele><time>2026-04-12T10:47:46.03Z</time></trkpt><trkpt lat="43.8251783" lon="12.6925217"><ele>126.0</ele><time>2026-04-12T10:47:48.029Z</time></trkpt><trkpt lat="43.82527" lon="12.69259"><ele>126.0</ele><time>2026-04-12T10:47:50.03Z</time></trkpt><trkpt lat="43.825355" lon="12.6926617"><ele>124.19999999999999</ele><time>2026-04-12T10:47:52.033Z</time></trkpt><trkpt lat="43.8254517" lon="12.692735"><ele>122.39999999999999</ele><time>2026-04-12T10:47:54.03Z</time></trkpt><trkpt lat="43.82555" lon="12.6927983"><ele>120.6</ele><time>2026-04-12T10:47:56.03Z</time></trkpt><trkpt lat="43.8256217" lon="12.6928683"><ele>118.8</ele><time>2026-04-12T10:47:58.031Z</time></trkpt><trkpt lat="43.8256917" lon="12.6929367"><ele>117.0</ele><time>2026-04-12T10:48:00.031Z</time></trkpt><trkpt lat="43.8257633" lon="12.6929967"><ele>117.0</ele><time>2026-04-12T10:48:02.033Z</time></trkpt><trkpt lat="43.8258667" lon="12.693015"><ele>116.99999999999999</ele><time>2026-04-12T10:48:04.041Z</time></trkpt><trkpt lat="43.82595" lon="12.6930167"><ele>116.99999999999999</ele><time>2026-04-12T10:48:06.026Z</time></trkpt><trkpt lat="43.82601" lon="12.6929633"><ele>117.0</ele><time>2026-04-12T10:48:08.029Z</time></trkpt><trkpt lat="43.8260767" lon="12.6928367"><ele>117.0</ele><time>2026-04-12T10:48:10.029Z</time></trkpt><trkpt lat="43.8261233" lon="12.692715"><ele>114.66666666666667</ele><time>2026-04-12T10:48:12.026Z</time></trkpt><trkpt lat="43.8261667" lon="12.6926"><ele>112.33333333333334</ele><time>2026-04-12T10:48:14.029Z</time></trkpt><trkpt lat="43.8262383" lon="12.692565"><ele>110.0</ele><time>2026-04-12T10:48:16.029Z</time></trkpt><trkpt lat="43.8262883" lon="12.6926817"><ele>107.66666666666667</ele><time>2026-04-12T10:48:19.034Z</time></trkpt><trkpt lat="43.82629" lon="12.6927833"><ele>105.33333333333334</ele><time>2026-04-12T10:48:20.028Z</time></trkpt><trkpt lat="43.826305" lon="12.6929"><ele>103.0</ele><time>2026-04-12T10:48:21.031Z</time></trkpt><trkpt lat="43.82633" lon="12.69302"><ele>103.0</ele><time>2026-04-12T10:48:22.028Z</time></trkpt><trkpt lat="43.8263683" lon="12.6931467"><ele>103.0</ele><time>2026-04-12T10:48:23.028Z</time></trkpt><trkpt lat="43.8264183" lon="12.693285"><ele>103.0</ele><time>2026-04-12T10:48:24.03Z</time></trkpt><trkpt lat="43.8264933" lon="12.6934367"><ele>103.0</ele><time>2026-04-12T10:48:25.027Z</time></trkpt><trkpt lat="43.8265867" lon="12.693605"><ele>101.66666666666667</ele><time>2026-04-12T10:48:26.027Z</time></trkpt><trkpt lat="43.8266983" lon="12.6937683"><ele>100.33333333333334</ele><time>2026-04-12T10:48:27.04Z</time></trkpt><trkpt lat="43.8268117" lon="12.6939167"><ele>99.0</ele><time>2026-04-12T10:48:28.03Z</time></trkpt><trkpt lat="43.8269467" lon="12.6940467"><ele>99.0</ele><time>2026-04-12T10:48:29.033Z</time></trkpt><trkpt lat="43.8270717" lon="12.6941717"><ele>99.0</ele><time>2026-04-12T10:48:30.032Z</time></trkpt><trkpt lat="43.8271967" lon="12.6942783"><ele>99.0</ele><time>2026-04-12T10:48:31.028Z</time></trkpt><trkpt lat="43.8273233" lon="12.6943783"><ele>99.0</ele><time>2026-04-12T10:48:32.026Z</time></trkpt><trkpt lat="43.8274383" lon="12.6944767"><ele>98.5</ele><time>2026-04-12T10:48:33.029Z</time></trkpt><trkpt lat="43.82754" lon="12.69458"><ele>98.0</ele><time>2026-04-12T10:48:34.03Z</time></trkpt><trkpt lat="43.8276333" lon="12.6946883"><ele>97.5</ele><time>2026-04-12T10:48:35.03Z</time></trkpt><trkpt lat="43.8277267" lon="12.694805"><ele>97.0</ele><time>2026-04-12T10:48:36.031Z</time></trkpt><trkpt lat="43.8278217" lon="12.6949283"><ele>97.0</ele><time>2026-04-12T10:48:37.027Z</time></trkpt><trkpt lat="43.8279167" lon="12.6950583"><ele>97.0</ele><time>2026-04-12T10:48:38.03Z</time></trkpt><trkpt lat="43.8279967" lon="12.6952083"><ele>97.0</ele><time>2026-04-12T10:48:39.035Z</time></trkpt><trkpt lat="43.8280717" lon="12.6953767"><ele>97.0</ele><time>2026-04-12T10:48:40.031Z</time></trkpt><trkpt lat="43.8281533" lon="12.6955533"><ele>97.66666666666667</ele><time>2026-04-12T10:48:41.03Z</time></trkpt><trkpt lat="43.8282383" lon="12.6957367"><ele>98.33333333333334</ele><time>2026-04-12T10:48:42.032Z</time></trkpt><trkpt lat="43.8283267" lon="12.6959233"><ele>99.0</ele><time>2026-04-12T10:48:43.027Z</time></trkpt><trkpt lat="43.8284083" lon="12.6961183"><ele>96.66666666666667</ele><time>2026-04-12T10:48:44.028Z</time></trkpt><trkpt lat="43.8284917" lon="12.6963233"><ele>94.33333333333334</ele><time>2026-04-12T10:48:45.03Z</time></trkpt><trkpt lat="43.8285867" lon="12.69653"><ele>92.0</ele><time>2026-04-12T10:48:46.029Z</time></trkpt><trkpt lat="43.8286833" lon="12.6967417"><ele>93.33333333333334</ele><time>2026-04-12T10:48:47.032Z</time></trkpt><trkpt lat="43.8287817" lon="12.696955"><ele>94.66666666666667</ele><time>2026-04-12T10:48:48.031Z</time></trkpt><trkpt lat="43.8288783" lon="12.69717"><ele>96.0</ele><time>2026-04-12T10:48:49.028Z</time></trkpt><trkpt lat="43.82898" lon="12.6973833"><ele>96.0</ele><time>2026-04-12T10:48:50.029Z</time></trkpt><trkpt lat="43.8290833" lon="12.6976017"><ele>96.0</ele><time>2026-04-12T10:48:51.028Z</time></trkpt><trkpt lat="43.8291883" lon="12.697815"><ele>96.0</ele><time>2026-04-12T10:48:52.033Z</time></trkpt><trkpt lat="43.8292867" lon="12.6980283"><ele>96.33333333333334</ele><time>2026-04-12T10:48:53.033Z</time></trkpt><trkpt lat="43.8293783" lon="12.698245"><ele>96.66666666666667</ele><time>2026-04-12T10:48:54.031Z</time></trkpt><trkpt lat="43.829465" lon="12.69847"><ele>97.0</ele><time>2026-04-12T10:48:55.028Z</time></trkpt><trkpt lat="43.8295533" lon="12.6987"><ele>97.0</ele><time>2026-04-12T10:48:56.034Z</time></trkpt><trkpt lat="43.8296383" lon="12.69893"><ele>97.0</ele><time>2026-04-12T10:48:57.031Z</time></trkpt><trkpt lat="43.829725" lon="12.6991617"><ele>97.0</ele><time>2026-04-12T10:48:58.032Z</time></trkpt><trkpt lat="43.8298117" lon="12.699395"><ele>98.33333333333334</ele><time>2026-04-12T10:48:59.025Z</time></trkpt><trkpt lat="43.8298967" lon="12.699625"><ele>99.66666666666666</ele><time>2026-04-12T10:49:00.028Z</time></trkpt><trkpt lat="43.8299767" lon="12.6998517"><ele>101.0</ele><time>2026-04-12T10:49:01.026Z</time></trkpt><trkpt lat="43.830055" lon="12.7000683"><ele>100.66666666666666</ele><time>2026-04-12T10:49:02.033Z</time></trkpt><trkpt lat="43.8301333" lon="12.7002717"><ele>100.33333333333334</ele><time>2026-04-12T10:49:03.027Z</time></trkpt><trkpt lat="43.8302017" lon="12.7004683"><ele>100.0</ele><time>2026-04-12T10:49:04.03Z</time></trkpt><trkpt lat="43.83027" lon="12.70066"><ele>100.0</ele><time>2026-04-12T10:49:05.031Z</time></trkpt><trkpt lat="43.830335" lon="12.7008483"><ele>100.0</ele><time>2026-04-12T10:49:06.027Z</time></trkpt><trkpt lat="43.8304" lon="12.70104"><ele>100.0</ele><time>2026-04-12T10:49:07.028Z</time></trkpt><trkpt lat="43.83046" lon="12.70123"><ele>101.0</ele><time>2026-04-12T10:49:08.027Z</time></trkpt><trkpt lat="43.8305217" lon="12.7014233"><ele>102.0</ele><time>2026-04-12T10:49:09.027Z</time></trkpt><trkpt lat="43.8305767" lon="12.7016317"><ele>103.0</ele><time>2026-04-12T10:49:10.034Z</time></trkpt><trkpt lat="43.8306183" lon="12.7018617"><ele>103.33333333333334</ele><time>2026-04-12T10:49:11.027Z</time></trkpt><trkpt lat="43.830645" lon="12.7021133"><ele>103.66666666666666</ele><time>2026-04-12T10:49:12.03Z</time></trkpt><trkpt lat="43.83067" lon="12.702375"><ele>104.0</ele><time>2026-04-12T10:49:13.033Z</time></trkpt><trkpt lat="43.8306917" lon="12.7026433"><ele>105.0</ele><time>2026-04-12T10:49:14.027Z</time></trkpt><trkpt lat="43.830715" lon="12.7029133"><ele>106.0</ele><time>2026-04-12T10:49:15.028Z</time></trkpt><trkpt lat="43.8307383" lon="12.7031683"><ele>107.0</ele><time>2026-04-12T10:49:16.031Z</time></trkpt><trkpt lat="43.8307533" lon="12.70341"><ele>107.0</ele><time>2026-04-12T10:49:17.029Z</time></trkpt><trkpt lat="43.8307583" lon="12.7036517"><ele>107.0</ele><time>2026-04-12T10:49:18.032Z</time></trkpt><trkpt lat="43.830755" lon="12.703905"><ele>107.0</ele><time>2026-04-12T10:49:19.031Z</time></trkpt><trkpt lat="43.8307433" lon="12.7041633"><ele>107.0</ele><time>2026-04-12T10:49:20.029Z</time></trkpt><trkpt lat="43.830735" lon="12.70441"><ele>107.0</ele><time>2026-04-12T10:49:21.028Z</time></trkpt><trkpt lat="43.8307283" lon="12.7046433"><ele>107.0</ele><time>2026-04-12T10:49:22.03Z</time></trkpt><trkpt lat="43.8307217" lon="12.70487"><ele>106.66666666666666</ele><time>2026-04-12T10:49:23.031Z</time></trkpt><trkpt lat="43.8307233" lon="12.7050867"><ele>106.33333333333334</ele><time>2026-04-12T10:49:24.027Z</time></trkpt><trkpt lat="43.8307133" lon="12.7053067"><ele>106.0</ele><time>2026-04-12T10:49:25.035Z</time></trkpt><trkpt lat="43.8306867" lon="12.7055417"><ele>106.66666666666667</ele><time>2026-04-12T10:49:26.031Z</time></trkpt><trkpt lat="43.8306483" lon="12.7057917"><ele>107.33333333333334</ele><time>2026-04-12T10:49:27.027Z</time></trkpt><trkpt lat="43.8306067" lon="12.7060467"><ele>108.0</ele><time>2026-04-12T10:49:28.032Z</time></trkpt><trkpt lat="43.8305667" lon="12.706285"><ele>108.0</ele><time>2026-04-12T10:49:29.025Z</time></trkpt><trkpt lat="43.8305317" lon="12.70651"><ele>108.0</ele><time>2026-04-12T10:49:30.031Z</time></trkpt><trkpt lat="43.8304967" lon="12.7067183"><ele>108.0</ele><time>2026-04-12T10:49:31.032Z</time></trkpt><trkpt lat="43.8304667" lon="12.7069067"><ele>108.0</ele><time>2026-04-12T10:49:32.028Z</time></trkpt><trkpt lat="43.8304367" lon="12.7070767"><ele>108.00000000000001</ele><time>2026-04-12T10:49:33.027Z</time></trkpt><trkpt lat="43.8304033" lon="12.7072167"><ele>108.00000000000001</ele><time>2026-04-12T10:49:34.028Z</time></trkpt><trkpt lat="43.8303517" lon="12.7073067"><ele>108.0</ele><time>2026-04-12T10:49:35.032Z</time></trkpt><trkpt lat="43.8302667" lon="12.7073467"><ele>108.0</ele><time>2026-04-12T10:49:36.027Z</time></trkpt><trkpt lat="43.8301567" lon="12.7073617"><ele>110.0</ele><time>2026-04-12T10:49:37.029Z</time></trkpt><trkpt lat="43.8300333" lon="12.70737"><ele>112.0</ele><time>2026-04-12T10:49:38.031Z</time></trkpt><trkpt lat="43.8298917" lon="12.707375"><ele>114.0</ele><time>2026-04-12T10:49:39.034Z</time></trkpt><trkpt lat="43.829735" lon="12.707375"><ele>116.0</ele><time>2026-04-12T10:49:40.033Z</time></trkpt><trkpt lat="43.8295683" lon="12.7073567"><ele>116.0</ele><time>2026-04-12T10:49:41.029Z</time></trkpt><trkpt lat="43.8294133" lon="12.707335"><ele>116.0</ele><time>2026-04-12T10:49:42.032Z</time></trkpt><trkpt lat="43.829275" lon="12.7073217"><ele>116.0</ele><time>2026-04-12T10:49:43.036Z</time></trkpt><trkpt lat="43.8291583" lon="12.70734"><ele>116.0</ele><time>2026-04-12T10:49:44.033Z</time></trkpt><trkpt lat="43.8290617" lon="12.707395"><ele>116.8</ele><time>2026-04-12T10:49:45.029Z</time></trkpt><trkpt lat="43.829" lon="12.707495"><ele>117.6</ele><time>2026-04-12T10:49:46.031Z</time></trkpt><trkpt lat="43.8289617" lon="12.7076283"><ele>118.4</ele><time>2026-04-12T10:49:47.03Z</time></trkpt><trkpt lat="43.8289467" lon="12.707785"><ele>119.2</ele><time>2026-04-12T10:49:48.03Z</time></trkpt><trkpt lat="43.8289433" lon="12.7079367"><ele>120.0</ele><time>2026-04-12T10:49:49.034Z</time></trkpt><trkpt lat="43.8289367" lon="12.7080717"><ele>120.0</ele><time>2026-04-12T10:49:50.029Z</time></trkpt><trkpt lat="43.8289117" lon="12.70819"><ele>120.0</ele><time>2026-04-12T10:49:51.03Z</time></trkpt><trkpt lat="43.8288367" lon="12.7082833"><ele>120.0</ele><time>2026-04-12T10:49:52.032Z</time></trkpt><trkpt lat="43.8287183" lon="12.70836"><ele>120.0</ele><time>2026-04-12T10:49:53.028Z</time></trkpt><trkpt lat="43.8285833" lon="12.7084483"><ele>117.25</ele><time>2026-04-12T10:49:54.029Z</time></trkpt><trkpt lat="43.8284567" lon="12.708555"><ele>114.5</ele><time>2026-04-12T10:49:55.031Z</time></trkpt><trkpt lat="43.8283433" lon="12.708665"><ele>111.75</ele><time>2026-04-12T10:49:56.028Z</time></trkpt><trkpt lat="43.828245" lon="12.7087417"><ele>109.0</ele><time>2026-04-12T10:49:57.027Z</time></trkpt><trkpt lat="43.8281233" lon="12.7087833"><ele>109.0</ele><time>2026-04-12T10:49:58.031Z</time></trkpt><trkpt lat="43.8280067" lon="12.7087817"><ele>109.0</ele><time>2026-04-12T10:49:59.03Z</time></trkpt><trkpt lat="43.8278683" lon="12.7087883"><ele>109.0</ele><time>2026-04-12T10:50:00.028Z</time></trkpt><trkpt lat="43.8277333" lon="12.7088133"><ele>109.0</ele><time>2026-04-12T10:50:01.029Z</time></trkpt><trkpt lat="43.827605" lon="12.7088483"><ele>109.5</ele><time>2026-04-12T10:50:02.029Z</time></trkpt><trkpt lat="43.8274667" lon="12.708865"><ele>110.0</ele><time>2026-04-12T10:50:03.033Z</time></trkpt><trkpt lat="43.82733" lon="12.708855"><ele>110.5</ele><time>2026-04-12T10:50:04.03Z</time></trkpt><trkpt lat="43.8272067" lon="12.7088317"><ele>111.0</ele><time>2026-04-12T10:50:05.03Z</time></trkpt><trkpt lat="43.827105" lon="12.7088183"><ele>111.0</ele><time>2026-04-12T10:50:06.026Z</time></trkpt><trkpt lat="43.8270217" lon="12.7088133"><ele>111.0</ele><time>2026-04-12T10:50:07.028Z</time></trkpt><trkpt lat="43.8269467" lon="12.7088183"><ele>111.0</ele><time>2026-04-12T10:50:08.028Z</time></trkpt><trkpt lat="43.8268533" lon="12.7088767"><ele>111.0</ele><time>2026-04-12T10:50:10.03Z</time></trkpt><trkpt lat="43.8269233" lon="12.708965"><ele>111.0</ele><time>2026-04-12T10:50:12.026Z</time></trkpt><trkpt lat="43.827025" lon="12.709015"><ele>111.0</ele><time>2026-04-12T10:50:13.032Z</time></trkpt><trkpt lat="43.8271133" lon="12.70907"><ele>111.0</ele><time>2026-04-12T10:50:14.031Z</time></trkpt><trkpt lat="43.8271933" lon="12.7091483"><ele>111.0</ele><time>2026-04-12T10:50:15.03Z</time></trkpt><trkpt lat="43.8272733" lon="12.70925"><ele>111.0</ele><time>2026-04-12T10:50:16.032Z</time></trkpt><trkpt lat="43.8273367" lon="12.7093417"><ele>111.0</ele><time>2026-04-12T10:50:17.032Z</time></trkpt><trkpt lat="43.8273917" lon="12.70943"><ele>111.33333333333333</ele><time>2026-04-12T10:50:18.027Z</time></trkpt><trkpt lat="43.8274333" lon="12.7095183"><ele>111.66666666666666</ele><time>2026-04-12T10:50:19.029Z</time></trkpt><trkpt lat="43.8274567" lon="12.7096133"><ele>112.0</ele><time>2026-04-12T10:50:20.031Z</time></trkpt><trkpt lat="43.8273967" lon="12.7096883"><ele>112.33333333333333</ele><time>2026-04-12T10:50:21.032Z</time></trkpt><trkpt lat="43.82733" lon="12.70975"><ele>112.66666666666666</ele><time>2026-04-12T10:50:22.03Z</time></trkpt><trkpt lat="43.82726" lon="12.7098067"><ele>113.0</ele><time>2026-04-12T10:50:23.028Z</time></trkpt><trkpt lat="43.8271883" lon="12.7098717"><ele>113.0</ele><time>2026-04-12T10:50:24.027Z</time></trkpt><trkpt lat="43.8271317" lon="12.709935"><ele>113.00000000000001</ele><time>2026-04-12T10:50:25.032Z</time></trkpt><trkpt lat="43.8271233" lon="12.710095"><ele>113.00000000000001</ele><time>2026-04-12T10:50:27.03Z</time></trkpt><trkpt lat="43.8271717" lon="12.7102283"><ele>113.0</ele><time>2026-04-12T10:50:29.028Z</time></trkpt><trkpt lat="43.8272883" lon="12.7102733"><ele>113.0</ele><time>2026-04-12T10:50:31.028Z</time></trkpt><trkpt lat="43.8273867" lon="12.7102283"><ele>113.0</ele><time>2026-04-12T10:50:32.035Z</time></trkpt><trkpt lat="43.8274983" lon="12.7101683"><ele>113.0</ele><time>2026-04-12T10:50:33.029Z</time></trkpt><trkpt lat="43.827625" lon="12.7100733"><ele>113.0</ele><time>2026-04-12T10:50:34.03Z</time></trkpt><trkpt lat="43.82776" lon="12.7099767"><ele>113.0</ele><time>2026-04-12T10:50:35.036Z</time></trkpt><trkpt lat="43.8279067" lon="12.7099"><ele>113.25</ele><time>2026-04-12T10:50:36.028Z</time></trkpt><trkpt lat="43.828045" lon="12.7098433"><ele>113.5</ele><time>2026-04-12T10:50:37.031Z</time></trkpt><trkpt lat="43.8281667" lon="12.7098117"><ele>113.75</ele><time>2026-04-12T10:50:38.03Z</time></trkpt><trkpt lat="43.8282833" lon="12.7098133"><ele>114.0</ele><time>2026-04-12T10:50:39.028Z</time></trkpt><trkpt lat="43.828395" lon="12.7098483"><ele>112.0</ele><time>2026-04-12T10:50:40.029Z</time></trkpt><trkpt lat="43.82851" lon="12.70993"><ele>110.0</ele><time>2026-04-12T10:50:41.031Z</time></trkpt><trkpt lat="43.8286217" lon="12.7100133"><ele>108.0</ele><time>2026-04-12T10:50:42.024Z</time></trkpt><trkpt lat="43.82873" lon="12.7100917"><ele>106.0</ele><time>2026-04-12T10:50:43.028Z</time></trkpt><trkpt lat="43.828825" lon="12.7101767"><ele>110.0</ele><time>2026-04-12T10:50:44.031Z</time></trkpt><trkpt lat="43.8289017" lon="12.71028"><ele>114.0</ele><time>2026-04-12T10:50:45.03Z</time></trkpt><trkpt lat="43.8289617" lon="12.7103933"><ele>118.0</ele><time>2026-04-12T10:50:46.03Z</time></trkpt><trkpt lat="43.82901" lon="12.7105"><ele>122.0</ele><time>2026-04-12T10:50:47.028Z</time></trkpt><trkpt lat="43.8290633" lon="12.7105883"><ele>126.0</ele><time>2026-04-12T10:50:48.026Z</time></trkpt><trkpt lat="43.829145" lon="12.7106383"><ele>126.0</ele><time>2026-04-12T10:50:49.031Z</time></trkpt><trkpt lat="43.8292333" lon="12.7106517"><ele>126.0</ele><time>2026-04-12T10:50:50.034Z</time></trkpt><trkpt lat="43.8293467" lon="12.7105917"><ele>126.0</ele><time>2026-04-12T10:50:51.035Z</time></trkpt><trkpt lat="43.8294467" lon="12.7105883"><ele>126.0</ele><time>2026-04-12T10:50:52.032Z</time></trkpt><trkpt lat="43.82955" lon="12.7106117"><ele>126.0</ele><time>2026-04-12T10:50:53.027Z</time></trkpt><trkpt lat="43.829625" lon="12.71065"><ele>123.5</ele><time>2026-04-12T10:50:54.027Z</time></trkpt><trkpt lat="43.8297217" lon="12.7107217"><ele>121.0</ele><time>2026-04-12T10:50:56.029Z</time></trkpt><trkpt lat="43.8298233" lon="12.71083"><ele>118.5</ele><time>2026-04-12T10:51:17.031Z</time></trkpt><trkpt lat="43.8298983" lon="12.7109383"><ele>116.0</ele><time>2026-04-12T10:51:18.032Z</time></trkpt><trkpt lat="43.82997" lon="12.71108"><ele>116.0</ele><time>2026-04-12T10:51:19.027Z</time></trkpt><trkpt lat="43.830045" lon="12.7112433"><ele>116.0</ele><time>2026-04-12T10:51:20.034Z</time></trkpt><trkpt lat="43.8301067" lon="12.7114317"><ele>116.0</ele><time>2026-04-12T10:51:21.031Z</time></trkpt><trkpt lat="43.830185" lon="12.711625"><ele>116.0</ele><time>2026-04-12T10:51:22.031Z</time></trkpt><trkpt lat="43.8302667" lon="12.711835"><ele>111.33333333333333</ele><time>2026-04-12T10:51:23.03Z</time></trkpt><trkpt lat="43.8303517" lon="12.71206"><ele>106.66666666666666</ele><time>2026-04-12T10:51:24.029Z</time></trkpt><trkpt lat="43.8304383" lon="12.712295"><ele>102.0</ele><time>2026-04-12T10:51:25.03Z</time></trkpt><trkpt lat="43.8305283" lon="12.7125333"><ele>101.66666666666666</ele><time>2026-04-12T10:51:26.03Z</time></trkpt><trkpt lat="43.830615" lon="12.7127783"><ele>101.33333333333333</ele><time>2026-04-12T10:51:27.031Z</time></trkpt><trkpt lat="43.8306967" lon="12.7130367"><ele>101.0</ele><time>2026-04-12T10:51:28.034Z</time></trkpt><trkpt lat="43.83077" lon="12.7132967"><ele>101.0</ele><time>2026-04-12T10:51:29.034Z</time></trkpt><trkpt lat="43.8308383" lon="12.7135533"><ele>101.0</ele><time>2026-04-12T10:51:30.035Z</time></trkpt><trkpt lat="43.8309067" lon="12.7137967"><ele>101.0</ele><time>2026-04-12T10:51:31.028Z</time></trkpt><trkpt lat="43.8309733" lon="12.7140267"><ele>99.0</ele><time>2026-04-12T10:51:32.029Z</time></trkpt><trkpt lat="43.8310317" lon="12.7142417"><ele>97.0</ele><time>2026-04-12T10:51:33.027Z</time></trkpt><trkpt lat="43.8310817" lon="12.7144333"><ele>95.0</ele><time>2026-04-12T10:51:34.037Z</time></trkpt><trkpt lat="43.8311367" lon="12.7146033"><ele>93.0</ele><time>2026-04-12T10:51:35.031Z</time></trkpt><trkpt lat="43.8312067" lon="12.7147533"><ele>93.0</ele><time>2026-04-12T10:51:36.03Z</time></trkpt><trkpt lat="43.83131" lon="12.7148833"><ele>93.0</ele><time>2026-04-12T10:51:37.031Z</time></trkpt><trkpt lat="43.83146" lon="12.7149883"><ele>93.0</ele><time>2026-04-12T10:51:38.029Z</time></trkpt><trkpt lat="43.8316333" lon="12.7150867"><ele>92.0</ele><time>2026-04-12T10:51:39.032Z</time></trkpt><trkpt lat="43.8318133" lon="12.7151917"><ele>91.0</ele><time>2026-04-12T10:51:40.029Z</time></trkpt><trkpt lat="43.832" lon="12.7153"><ele>90.0</ele><time>2026-04-12T10:51:41.029Z</time></trkpt><trkpt lat="43.8321983" lon="12.7154167"><ele>90.0</ele><time>2026-04-12T10:51:42.031Z</time></trkpt><trkpt lat="43.8324" lon="12.7155367"><ele>90.0</ele><time>2026-04-12T10:51:43.028Z</time></trkpt><trkpt lat="43.83261" lon="12.7156583"><ele>90.0</ele><time>2026-04-12T10:51:44.031Z</time></trkpt><trkpt lat="43.832835" lon="12.715785"><ele>89.0</ele><time>2026-04-12T10:51:45.029Z</time></trkpt><trkpt lat="43.8330583" lon="12.71592"><ele>88.0</ele><time>2026-04-12T10:51:46.032Z</time></trkpt><trkpt lat="43.8332817" lon="12.7160517"><ele>86.33333333333333</ele><time>2026-04-12T10:51:47.028Z</time></trkpt><trkpt lat="43.8334917" lon="12.7161733"><ele>84.66666666666667</ele><time>2026-04-12T10:51:48.036Z</time></trkpt><trkpt lat="43.833695" lon="12.7162833"><ele>83.0</ele><time>2026-04-12T10:51:49.028Z</time></trkpt><trkpt lat="43.8338883" lon="12.7163933"><ele>83.0</ele><time>2026-04-12T10:51:50.032Z</time></trkpt><trkpt lat="43.8340717" lon="12.716505"><ele>83.0</ele><time>2026-04-12T10:51:51.03Z</time></trkpt><trkpt lat="43.8342433" lon="12.7166067"><ele>83.0</ele><time>2026-04-12T10:51:52.031Z</time></trkpt><trkpt lat="43.8344117" lon="12.7166983"><ele>81.66666666666667</ele><time>2026-04-12T10:51:53.033Z</time></trkpt><trkpt lat="43.8345717" lon="12.71679"><ele>80.33333333333333</ele><time>2026-04-12T10:51:54.029Z</time></trkpt><trkpt lat="43.8347267" lon="12.7168733"><ele>79.0</ele><time>2026-04-12T10:51:55.028Z</time></trkpt><trkpt lat="43.8348767" lon="12.7169533"><ele>78.5</ele><time>2026-04-12T10:51:56.033Z</time></trkpt><trkpt lat="43.8350117" lon="12.7170317"><ele>78.0</ele><time>2026-04-12T10:51:57.034Z</time></trkpt><trkpt lat="43.8351333" lon="12.7171117"><ele>77.5</ele><time>2026-04-12T10:51:58.031Z</time></trkpt><trkpt lat="43.8352367" lon="12.7172117"><ele>77.0</ele><time>2026-04-12T10:51:59.03Z</time></trkpt><trkpt lat="43.8353233" lon="12.7173267"><ele>76.5</ele><time>2026-04-12T10:52:00.033Z</time></trkpt><trkpt lat="43.8353867" lon="12.7174383"><ele>76.0</ele><time>2026-04-12T10:52:01.033Z</time></trkpt><trkpt lat="43.8354517" lon="12.717515"><ele>75.5</ele><time>2026-04-12T10:52:02.033Z</time></trkpt><trkpt lat="43.8355233" lon="12.7175583"><ele>75.0</ele><time>2026-04-12T10:52:03.036Z</time></trkpt><trkpt lat="43.8356083" lon="12.7175367"><ele>74.5</ele><time>2026-04-12T10:52:04.032Z</time></trkpt><trkpt lat="43.835695" lon="12.7174833"><ele>74.0</ele><time>2026-04-12T10:52:05.03Z</time></trkpt><trkpt lat="43.83582" lon="12.717425"><ele>74.0</ele><time>2026-04-12T10:52:06.027Z</time></trkpt><trkpt lat="43.8359617" lon="12.7173783"><ele>74.0</ele><time>2026-04-12T10:52:07.027Z</time></trkpt><trkpt lat="43.83613" lon="12.71738"><ele>74.0</ele><time>2026-04-12T10:52:08.028Z</time></trkpt><trkpt lat="43.836315" lon="12.71739"><ele>73.33333333333334</ele><time>2026-04-12T10:52:09.026Z</time></trkpt><trkpt lat="43.8365083" lon="12.7174083"><ele>72.66666666666667</ele><time>2026-04-12T10:52:10.031Z</time></trkpt><trkpt lat="43.83671" lon="12.71743"><ele>72.0</ele><time>2026-04-12T10:52:11.028Z</time></trkpt><trkpt lat="43.8369167" lon="12.7174517"><ele>71.0</ele><time>2026-04-12T10:52:12.031Z</time></trkpt><trkpt lat="43.837125" lon="12.7174767"><ele>70.0</ele><time>2026-04-12T10:52:13.028Z</time></trkpt><trkpt lat="43.8373317" lon="12.7174983"><ele>69.0</ele><time>2026-04-12T10:52:14.028Z</time></trkpt><trkpt lat="43.83754" lon="12.71752"><ele>68.66666666666667</ele><time>2026-04-12T10:52:15.027Z</time></trkpt><trkpt lat="43.837745" lon="12.7175483"><ele>68.33333333333334</ele><time>2026-04-12T10:52:16.028Z</time></trkpt><trkpt lat="43.83795" lon="12.7175767"><ele>68.0</ele><time>2026-04-12T10:52:17.027Z</time></trkpt><trkpt lat="43.83815" lon="12.7176"><ele>68.0</ele><time>2026-04-12T10:52:18.027Z</time></trkpt><trkpt lat="43.8383483" lon="12.7176317"><ele>68.0</ele><time>2026-04-12T10:52:19.029Z</time></trkpt><trkpt lat="43.838545" lon="12.7176667"><ele>68.0</ele><time>2026-04-12T10:52:20.036Z</time></trkpt><trkpt lat="43.8387417" lon="12.717725"><ele>67.66666666666667</ele><time>2026-04-12T10:52:21.028Z</time></trkpt><trkpt lat="43.838935" lon="12.7178033"><ele>67.33333333333333</ele><time>2026-04-12T10:52:22.028Z</time></trkpt><trkpt lat="43.8391233" lon="12.7179"><ele>67.0</ele><time>2026-04-12T10:52:23.027Z</time></trkpt><trkpt lat="43.83931" lon="12.718005"><ele>67.0</ele><time>2026-04-12T10:52:24.028Z</time></trkpt><trkpt lat="43.8394967" lon="12.7181133"><ele>67.0</ele><time>2026-04-12T10:52:25.036Z</time></trkpt><trkpt lat="43.8396833" lon="12.7182217"><ele>67.0</ele><time>2026-04-12T10:52:26.029Z</time></trkpt><trkpt lat="43.8398717" lon="12.718325"><ele>67.0</ele><time>2026-04-12T10:52:27.032Z</time></trkpt><trkpt lat="43.84006" lon="12.7184317"><ele>67.0</ele><time>2026-04-12T10:52:28.032Z</time></trkpt><trkpt lat="43.84025" lon="12.718535"><ele>67.0</ele><time>2026-04-12T10:52:29.03Z</time></trkpt><trkpt lat="43.8404433" lon="12.7186433"><ele>67.0</ele><time>2026-04-12T10:52:30.027Z</time></trkpt><trkpt lat="43.8406367" lon="12.7187517"><ele>67.0</ele><time>2026-04-12T10:52:31.028Z</time></trkpt><trkpt lat="43.8408317" lon="12.7188633"><ele>67.0</ele><time>2026-04-12T10:52:32.027Z</time></trkpt><trkpt lat="43.841025" lon="12.7189717"><ele>66.66666666666666</ele><time>2026-04-12T10:52:33.032Z</time></trkpt><trkpt lat="43.8412183" lon="12.7190817"><ele>66.33333333333333</ele><time>2026-04-12T10:52:34.028Z</time></trkpt><trkpt lat="43.8414183" lon="12.7191867"><ele>66.0</ele><time>2026-04-12T10:52:35.029Z</time></trkpt><trkpt lat="43.8416183" lon="12.71929"><ele>65.66666666666667</ele><time>2026-04-12T10:52:36.031Z</time></trkpt><trkpt lat="43.8418217" lon="12.7193817"><ele>65.33333333333334</ele><time>2026-04-12T10:52:37.031Z</time></trkpt><trkpt lat="43.8420333" lon="12.7194567"><ele>65.0</ele><time>2026-04-12T10:52:38.038Z</time></trkpt><trkpt lat="43.8422467" lon="12.719525"><ele>64.33333333333334</ele><time>2026-04-12T10:52:39.029Z</time></trkpt><trkpt lat="43.84246" lon="12.7195967"><ele>63.66666666666667</ele><time>2026-04-12T10:52:40.029Z</time></trkpt><trkpt lat="43.842675" lon="12.7196667"><ele>63.0</ele><time>2026-04-12T10:52:41.027Z</time></trkpt><trkpt lat="43.8428917" lon="12.7197367"><ele>62.66666666666667</ele><time>2026-04-12T10:52:42.026Z</time></trkpt><trkpt lat="43.8431067" lon="12.719805"><ele>62.333333333333336</ele><time>2026-04-12T10:52:43.033Z</time></trkpt><trkpt lat="43.8433233" lon="12.7198767"><ele>62.0</ele><time>2026-04-12T10:52:44.03Z</time></trkpt><trkpt lat="43.8435383" lon="12.7199433"><ele>62.0</ele><time>2026-04-12T10:52:45.027Z</time></trkpt><trkpt lat="43.8437433" lon="12.7200083"><ele>62.0</ele><time>2026-04-12T10:52:46.03Z</time></trkpt><trkpt lat="43.8439417" lon="12.7200717"><ele>62.0</ele><time>2026-04-12T10:52:47.03Z</time></trkpt><trkpt lat="43.8441383" lon="12.720135"><ele>61.66666666666667</ele><time>2026-04-12T10:52:48.03Z</time></trkpt><trkpt lat="43.844335" lon="12.720195"><ele>61.33333333333333</ele><time>2026-04-12T10:52:49.034Z</time></trkpt><trkpt lat="43.8445317" lon="12.7202567"><ele>61.0</ele><time>2026-04-12T10:52:50.031Z</time></trkpt><trkpt lat="43.8447217" lon="12.720315"><ele>61.0</ele><time>2026-04-12T10:52:51.032Z</time></trkpt><trkpt lat="43.844905" lon="12.7203717"><ele>61.0</ele><time>2026-04-12T10:52:52.03Z</time></trkpt><trkpt lat="43.84508" lon="12.7204267"><ele>61.0</ele><time>2026-04-12T10:52:53.033Z</time></trkpt><trkpt lat="43.8452517" lon="12.7204733"><ele>61.0</ele><time>2026-04-12T10:52:54.028Z</time></trkpt><trkpt lat="43.845415" lon="12.7205167"><ele>61.0</ele><time>2026-04-12T10:52:55.027Z</time></trkpt><trkpt lat="43.8455717" lon="12.7205567"><ele>61.0</ele><time>2026-04-12T10:52:56.029Z</time></trkpt><trkpt lat="43.8457233" lon="12.7205933"><ele>61.0</ele><time>2026-04-12T10:52:57.028Z</time></trkpt><trkpt lat="43.8458717" lon="12.720625"><ele>61.0</ele><time>2026-04-12T10:52:58.038Z</time></trkpt><trkpt lat="43.8460217" lon="12.72065"><ele>61.0</ele><time>2026-04-12T10:52:59.029Z</time></trkpt><trkpt lat="43.8461733" lon="12.72066"><ele>59.0</ele><time>2026-04-12T10:53:00.03Z</time></trkpt><trkpt lat="43.8463183" lon="12.7206517"><ele>57.0</ele><time>2026-04-12T10:53:01.031Z</time></trkpt><trkpt lat="43.8464583" lon="12.720625"><ele>55.0</ele><time>2026-04-12T10:53:02.028Z</time></trkpt><trkpt lat="43.8465917" lon="12.72059"><ele>53.0</ele><time>2026-04-12T10:53:03.028Z</time></trkpt><trkpt lat="43.84672" lon="12.7205533"><ele>53.0</ele><time>2026-04-12T10:53:04.032Z</time></trkpt><trkpt lat="43.8468467" lon="12.7205267"><ele>53.0</ele><time>2026-04-12T10:53:05.028Z</time></trkpt><trkpt lat="43.846975" lon="12.7205217"><ele>53.0</ele><time>2026-04-12T10:53:06.032Z</time></trkpt><trkpt lat="43.8471033" lon="12.7205467"><ele>53.0</ele><time>2026-04-12T10:53:07.029Z</time></trkpt><trkpt lat="43.84723" lon="12.7205867"><ele>53.0</ele><time>2026-04-12T10:53:08.029Z</time></trkpt><trkpt lat="43.847355" lon="12.7206683"><ele>53.0</ele><time>2026-04-12T10:53:09.028Z</time></trkpt><trkpt lat="43.8474717" lon="12.7207933"><ele>53.0</ele><time>2026-04-12T10:53:10.031Z</time></trkpt><trkpt lat="43.8475683" lon="12.7209683"><ele>53.0</ele><time>2026-04-12T10:53:11.029Z</time></trkpt><trkpt lat="43.84764" lon="12.7211933"><ele>53.66666666666667</ele><time>2026-04-12T10:53:12.033Z</time></trkpt><trkpt lat="43.8476983" lon="12.721465"><ele>54.33333333333333</ele><time>2026-04-12T10:53:13.028Z</time></trkpt><trkpt lat="43.8477683" lon="12.721755"><ele>55.0</ele><time>2026-04-12T10:53:14.028Z</time></trkpt><trkpt lat="43.8478667" lon="12.7220467"><ele>55.5</ele><time>2026-04-12T10:53:15.029Z</time></trkpt><trkpt lat="43.8479933" lon="12.7223267"><ele>56.0</ele><time>2026-04-12T10:53:16.031Z</time></trkpt><trkpt lat="43.8481367" lon="12.7225833"><ele>55.0</ele><time>2026-04-12T10:53:17.031Z</time></trkpt><trkpt lat="43.8482883" lon="12.72281"><ele>54.0</ele><time>2026-04-12T10:53:18.029Z</time></trkpt><trkpt lat="43.8484283" lon="12.723025"><ele>53.0</ele><time>2026-04-12T10:53:19.03Z</time></trkpt><trkpt lat="43.8485567" lon="12.7232283"><ele>53.0</ele><time>2026-04-12T10:53:20.029Z</time></trkpt><trkpt lat="43.8486717" lon="12.7234117"><ele>53.0</ele><time>2026-04-12T10:53:21.03Z</time></trkpt><trkpt lat="43.8487633" lon="12.7235633"><ele>53.0</ele><time>2026-04-12T10:53:22.033Z</time></trkpt><trkpt lat="43.8488417" lon="12.7236817"><ele>53.0</ele><time>2026-04-12T10:53:23.029Z</time></trkpt><trkpt lat="43.8489033" lon="12.723775"><ele>53.00000000000001</ele><time>2026-04-12T10:53:24.031Z</time></trkpt><trkpt lat="43.84895" lon="12.7238717"><ele>53.0</ele><time>2026-04-12T10:53:25.029Z</time></trkpt><trkpt lat="43.8489817" lon="12.7239717"><ele>53.0</ele><time>2026-04-12T10:53:26.029Z</time></trkpt><trkpt lat="43.849" lon="12.7240917"><ele>53.0</ele><time>2026-04-12T10:53:27.026Z</time></trkpt><trkpt lat="43.849005" lon="12.72422"><ele>53.00000000000001</ele><time>2026-04-12T10:53:28.027Z</time></trkpt><trkpt lat="43.8490117" lon="12.724355"><ele>53.0</ele><time>2026-04-12T10:53:29.025Z</time></trkpt><trkpt lat="43.8490233" lon="12.724495"><ele>53.2</ele><time>2026-04-12T10:53:30.03Z</time></trkpt><trkpt lat="43.8490517" lon="12.7246333"><ele>53.4</ele><time>2026-04-12T10:53:31.032Z</time></trkpt><trkpt lat="43.8490917" lon="12.7247683"><ele>53.60000000000001</ele><time>2026-04-12T10:53:32.031Z</time></trkpt><trkpt lat="43.84914" lon="12.7248983"><ele>53.800000000000004</ele><time>2026-04-12T10:53:33.03Z</time></trkpt><trkpt lat="43.849175" lon="12.7250317"><ele>54.0</ele><time>2026-04-12T10:53:34.03Z</time></trkpt><trkpt lat="43.8491983" lon="12.7251683"><ele>54.6</ele><time>2026-04-12T10:53:35.029Z</time></trkpt><trkpt lat="43.8492117" lon="12.7253067"><ele>55.2</ele><time>2026-04-12T10:53:36.028Z</time></trkpt><trkpt lat="43.84923" lon="12.72544"><ele>55.800000000000004</ele><time>2026-04-12T10:53:37.026Z</time></trkpt><trkpt lat="43.8492483" lon="12.7255767"><ele>56.400000000000006</ele><time>2026-04-12T10:53:38.036Z</time></trkpt><trkpt lat="43.849265" lon="12.7257333"><ele>57.0</ele><time>2026-04-12T10:53:39.029Z</time></trkpt><trkpt lat="43.8492833" lon="12.72591"><ele>56.5</ele><time>2026-04-12T10:53:40.031Z</time></trkpt><trkpt lat="43.8493033" lon="12.7261067"><ele>56.0</ele><time>2026-04-12T10:53:41.028Z</time></trkpt><trkpt lat="43.8493233" lon="12.72631"><ele>55.5</ele><time>2026-04-12T10:53:42.028Z</time></trkpt><trkpt lat="43.84935" lon="12.7265217"><ele>55.0</ele><time>2026-04-12T10:53:43.028Z</time></trkpt><trkpt lat="43.84938" lon="12.72674"><ele>55.0</ele><time>2026-04-12T10:53:44.03Z</time></trkpt><trkpt lat="43.849405" lon="12.726965"><ele>55.0</ele><time>2026-04-12T10:53:45.032Z</time></trkpt><trkpt lat="43.8494233" lon="12.7271983"><ele>55.0</ele><time>2026-04-12T10:53:46.026Z</time></trkpt><trkpt lat="43.8494433" lon="12.7274367"><ele>55.0</ele><time>2026-04-12T10:53:47.032Z</time></trkpt><trkpt lat="43.849465" lon="12.72768"><ele>55.0</ele><time>2026-04-12T10:53:48.029Z</time></trkpt><trkpt lat="43.8494867" lon="12.7279233"><ele>55.0</ele><time>2026-04-12T10:53:49.026Z</time></trkpt><trkpt lat="43.8495067" lon="12.72817"><ele>55.33333333333333</ele><time>2026-04-12T10:53:50.029Z</time></trkpt><trkpt lat="43.84953" lon="12.7284217"><ele>55.66666666666667</ele><time>2026-04-12T10:53:51.031Z</time></trkpt><trkpt lat="43.84956" lon="12.7286717"><ele>56.0</ele><time>2026-04-12T10:53:52.032Z</time></trkpt><trkpt lat="43.8495867" lon="12.728915"><ele>56.0</ele><time>2026-04-12T10:53:53.03Z</time></trkpt><trkpt lat="43.84961" lon="12.7291483"><ele>56.0</ele><time>2026-04-12T10:53:54.028Z</time></trkpt><trkpt lat="43.84963" lon="12.7293733"><ele>56.0</ele><time>2026-04-12T10:53:55.028Z</time></trkpt><trkpt lat="43.84965" lon="12.7296067"><ele>55.66666666666667</ele><time>2026-04-12T10:53:56.03Z</time></trkpt><trkpt lat="43.8496717" lon="12.72986"><ele>55.33333333333333</ele><time>2026-04-12T10:53:57.027Z</time></trkpt><trkpt lat="43.8496983" lon="12.73013"><ele>55.0</ele><time>2026-04-12T10:53:58.028Z</time></trkpt><trkpt lat="43.8497333" lon="12.7304133"><ele>55.666666666666664</ele><time>2026-04-12T10:53:59.029Z</time></trkpt><trkpt lat="43.8497667" lon="12.7307033"><ele>56.33333333333333</ele><time>2026-04-12T10:54:00.023Z</time></trkpt><trkpt lat="43.8498033" lon="12.730995"><ele>57.0</ele><time>2026-04-12T10:54:01.029Z</time></trkpt><trkpt lat="43.8498417" lon="12.7312867"><ele>57.0</ele><time>2026-04-12T10:54:02.03Z</time></trkpt><trkpt lat="43.84988" lon="12.7315767"><ele>57.0</ele><time>2026-04-12T10:54:03.032Z</time></trkpt><trkpt lat="43.84992" lon="12.731865"><ele>57.0</ele><time>2026-04-12T10:54:04.031Z</time></trkpt><trkpt lat="43.8499667" lon="12.7321533"><ele>56.66666666666667</ele><time>2026-04-12T10:54:05.032Z</time></trkpt><trkpt lat="43.8500133" lon="12.73244"><ele>56.333333333333336</ele><time>2026-04-12T10:54:06.028Z</time></trkpt><trkpt lat="43.8500617" lon="12.7327233"><ele>56.0</ele><time>2026-04-12T10:54:07.029Z</time></trkpt><trkpt lat="43.8501167" lon="12.7330033"><ele>55.66666666666667</ele><time>2026-04-12T10:54:08.029Z</time></trkpt><trkpt lat="43.8501767" lon="12.7332817"><ele>55.33333333333333</ele><time>2026-04-12T10:54:09.026Z</time></trkpt><trkpt lat="43.8502383" lon="12.733555"><ele>55.0</ele><time>2026-04-12T10:54:10.031Z</time></trkpt><trkpt lat="43.8503083" lon="12.733825"><ele>55.0</ele><time>2026-04-12T10:54:11.029Z</time></trkpt><trkpt lat="43.8503933" lon="12.7340883"><ele>55.0</ele><time>2026-04-12T10:54:12.028Z</time></trkpt><trkpt lat="43.8504867" lon="12.734345"><ele>55.0</ele><time>2026-04-12T10:54:13.03Z</time></trkpt><trkpt lat="43.85059" lon="12.734595"><ele>55.0</ele><time>2026-04-12T10:54:14.028Z</time></trkpt><trkpt lat="43.8506967" lon="12.7348417"><ele>55.0</ele><time>2026-04-12T10:54:15.032Z</time></trkpt><trkpt lat="43.8507983" lon="12.7350817"><ele>55.0</ele><time>2026-04-12T10:54:16.026Z</time></trkpt><trkpt lat="43.8508983" lon="12.735305"><ele>55.0</ele><time>2026-04-12T10:54:17.031Z</time></trkpt><trkpt lat="43.8509933" lon="12.7355167"><ele>55.0</ele><time>2026-04-12T10:54:18.029Z</time></trkpt><trkpt lat="43.8510783" lon="12.73572"><ele>55.0</ele><time>2026-04-12T10:54:19.028Z</time></trkpt><trkpt lat="43.8511633" lon="12.7359133"><ele>55.33333333333333</ele><time>2026-04-12T10:54:20.033Z</time></trkpt><trkpt lat="43.8512483" lon="12.7361067"><ele>55.66666666666667</ele><time>2026-04-12T10:54:21.029Z</time></trkpt><trkpt lat="43.8513283" lon="12.7363033"><ele>56.0</ele><time>2026-04-12T10:54:22.033Z</time></trkpt><trkpt lat="43.8514133" lon="12.7365"><ele>56.0</ele><time>2026-04-12T10:54:23.028Z</time></trkpt><trkpt lat="43.8515017" lon="12.7367033"><ele>56.0</ele><time>2026-04-12T10:54:24.03Z</time></trkpt><trkpt lat="43.851585" lon="12.7369083"><ele>56.0</ele><time>2026-04-12T10:54:25.032Z</time></trkpt><trkpt lat="43.85167" lon="12.7371133"><ele>55.66666666666667</ele><time>2026-04-12T10:54:26.028Z</time></trkpt><trkpt lat="43.8517567" lon="12.7373167"><ele>55.33333333333333</ele><time>2026-04-12T10:54:27.035Z</time></trkpt><trkpt lat="43.8518417" lon="12.7375217"><ele>55.0</ele><time>2026-04-12T10:54:28.03Z</time></trkpt><trkpt lat="43.8519317" lon="12.7377283"><ele>55.666666666666664</ele><time>2026-04-12T10:54:29.029Z</time></trkpt><trkpt lat="43.8520233" lon="12.737945"><ele>56.33333333333333</ele><time>2026-04-12T10:54:30.031Z</time></trkpt><trkpt lat="43.8521167" lon="12.73817"><ele>57.0</ele><time>2026-04-12T10:54:31.025Z</time></trkpt><trkpt lat="43.8522" lon="12.7384067"><ele>56.0</ele><time>2026-04-12T10:54:32.025Z</time></trkpt><trkpt lat="43.8522767" lon="12.7386483"><ele>55.0</ele><time>2026-04-12T10:54:33.025Z</time></trkpt><trkpt lat="43.8523467" lon="12.738895"><ele>54.0</ele><time>2026-04-12T10:54:34.032Z</time></trkpt><trkpt lat="43.852415" lon="12.7391433"><ele>53.66666666666667</ele><time>2026-04-12T10:54:35.031Z</time></trkpt><trkpt lat="43.85248" lon="12.7393917"><ele>53.333333333333336</ele><time>2026-04-12T10:54:36.029Z</time></trkpt><trkpt lat="43.8525467" lon="12.73964"><ele>53.0</ele><time>2026-04-12T10:54:37.025Z</time></trkpt><trkpt lat="43.8526133" lon="12.7398867"><ele>53.333333333333336</ele><time>2026-04-12T10:54:38.027Z</time></trkpt><trkpt lat="43.8526817" lon="12.74013"><ele>53.66666666666667</ele><time>2026-04-12T10:54:39.036Z</time></trkpt><trkpt lat="43.8527517" lon="12.7403733"><ele>54.0</ele><time>2026-04-12T10:54:40.031Z</time></trkpt><trkpt lat="43.852825" lon="12.740615"><ele>54.66666666666667</ele><time>2026-04-12T10:54:41.029Z</time></trkpt><trkpt lat="43.852895" lon="12.74086"><ele>55.333333333333336</ele><time>2026-04-12T10:54:42.026Z</time></trkpt><trkpt lat="43.8529683" lon="12.7411083"><ele>56.0</ele><time>2026-04-12T10:54:43.033Z</time></trkpt><trkpt lat="43.8530433" lon="12.7413583"><ele>56.0</ele><time>2026-04-12T10:54:44.028Z</time></trkpt><trkpt lat="43.8531217" lon="12.741605"><ele>56.0</ele><time>2026-04-12T10:54:45.032Z</time></trkpt><trkpt lat="43.8531967" lon="12.7418517"><ele>56.0</ele><time>2026-04-12T10:54:46.032Z</time></trkpt><trkpt lat="43.8532667" lon="12.7420883"><ele>56.0</ele><time>2026-04-12T10:54:47.031Z</time></trkpt><trkpt lat="43.8533333" lon="12.7423183"><ele>56.0</ele><time>2026-04-12T10:54:48.032Z</time></trkpt><trkpt lat="43.8534" lon="12.7425483"><ele>56.0</ele><time>2026-04-12T10:54:49.028Z</time></trkpt><trkpt lat="43.8534667" lon="12.7427833"><ele>55.333333333333336</ele><time>2026-04-12T10:54:50.025Z</time></trkpt><trkpt lat="43.8535383" lon="12.7430233"><ele>54.66666666666667</ele><time>2026-04-12T10:54:51.027Z</time></trkpt><trkpt lat="43.8536067" lon="12.7432683"><ele>54.0</ele><time>2026-04-12T10:54:52.037Z</time></trkpt><trkpt lat="43.8536683" lon="12.7435167"><ele>54.0</ele><time>2026-04-12T10:54:53.032Z</time></trkpt><trkpt lat="43.8537217" lon="12.74376"><ele>54.0</ele><time>2026-04-12T10:54:54.031Z</time></trkpt><trkpt lat="43.8537633" lon="12.7439933"><ele>54.0</ele><time>2026-04-12T10:54:55.027Z</time></trkpt><trkpt lat="43.853795" lon="12.7442217"><ele>54.33333333333333</ele><time>2026-04-12T10:54:56.043Z</time></trkpt><trkpt lat="43.85382" lon="12.7444467"><ele>54.666666666666664</ele><time>2026-04-12T10:54:57.031Z</time></trkpt><trkpt lat="43.8538417" lon="12.74467"><ele>55.0</ele><time>2026-04-12T10:54:58.033Z</time></trkpt><trkpt lat="43.85386" lon="12.7448883"><ele>55.0</ele><time>2026-04-12T10:54:59.034Z</time></trkpt><trkpt lat="43.8538783" lon="12.7451017"><ele>55.0</ele><time>2026-04-12T10:55:00.024Z</time></trkpt><trkpt lat="43.8538917" lon="12.74531"><ele>55.0</ele><time>2026-04-12T10:55:01.032Z</time></trkpt><trkpt lat="43.8539067" lon="12.745515"><ele>55.25</ele><time>2026-04-12T10:55:02.031Z</time></trkpt><trkpt lat="43.8539217" lon="12.7457133"><ele>55.5</ele><time>2026-04-12T10:55:03.028Z</time></trkpt><trkpt lat="43.8539367" lon="12.7459083"><ele>55.75</ele><time>2026-04-12T10:55:04.032Z</time></trkpt><trkpt lat="43.8539483" lon="12.7461017"><ele>56.0</ele><time>2026-04-12T10:55:05.029Z</time></trkpt><trkpt lat="43.8539617" lon="12.7462983"><ele>55.75</ele><time>2026-04-12T10:55:06.029Z</time></trkpt><trkpt lat="43.853975" lon="12.746495"><ele>55.5</ele><time>2026-04-12T10:55:07.031Z</time></trkpt><trkpt lat="43.8539883" lon="12.7466917"><ele>55.25</ele><time>2026-04-12T10:55:08.03Z</time></trkpt><trkpt lat="43.8540033" lon="12.746885"><ele>55.0</ele><time>2026-04-12T10:55:09.033Z</time></trkpt><trkpt lat="43.8540183" lon="12.74708"><ele>55.0</ele><time>2026-04-12T10:55:10.033Z</time></trkpt><trkpt lat="43.854035" lon="12.7472733"><ele>55.0</ele><time>2026-04-12T10:55:11.033Z</time></trkpt><trkpt lat="43.8540483" lon="12.7474667"><ele>55.0</ele><time>2026-04-12T10:55:12.03Z</time></trkpt><trkpt lat="43.8540633" lon="12.74766"><ele>55.0</ele><time>2026-04-12T10:55:13.032Z</time></trkpt><trkpt lat="43.8540783" lon="12.747855"><ele>55.0</ele><time>2026-04-12T10:55:14.028Z</time></trkpt><trkpt lat="43.854095" lon="12.7480517"><ele>55.0</ele><time>2026-04-12T10:55:15.031Z</time></trkpt><trkpt lat="43.8541117" lon="12.7482483"><ele>55.0</ele><time>2026-04-12T10:55:16.036Z</time></trkpt><trkpt lat="43.8541267" lon="12.748445"><ele>55.0</ele><time>2026-04-12T10:55:17.032Z</time></trkpt><trkpt lat="43.8541467" lon="12.748645"><ele>55.0</ele><time>2026-04-12T10:55:18.034Z</time></trkpt><trkpt lat="43.8541617" lon="12.7488467"><ele>55.0</ele><time>2026-04-12T10:55:19.032Z</time></trkpt><trkpt lat="43.85418" lon="12.7490483"><ele>55.0</ele><time>2026-04-12T10:55:20.03Z</time></trkpt><trkpt lat="43.8541967" lon="12.7492417"><ele>55.0</ele><time>2026-04-12T10:55:21.027Z</time></trkpt><trkpt lat="43.8542133" lon="12.74943"><ele>55.0</ele><time>2026-04-12T10:55:22.026Z</time></trkpt><trkpt lat="43.854225" lon="12.74962"><ele>55.0</ele><time>2026-04-12T10:55:23.035Z</time></trkpt><trkpt lat="43.8542333" lon="12.749805"><ele>55.0</ele><time>2026-04-12T10:55:24.026Z</time></trkpt><trkpt lat="43.8542417" lon="12.7499767"><ele>55.0</ele><time>2026-04-12T10:55:25.034Z</time></trkpt><trkpt lat="43.8542517" lon="12.75014"><ele>55.0</ele><time>2026-04-12T10:55:26.026Z</time></trkpt><trkpt lat="43.8542617" lon="12.7502933"><ele>55.0</ele><time>2026-04-12T10:55:27.029Z</time></trkpt><trkpt lat="43.8542683" lon="12.7504367"><ele>55.0</ele><time>2026-04-12T10:55:28.032Z</time></trkpt><trkpt lat="43.8542767" lon="12.750565"><ele>55.0</ele><time>2026-04-12T10:55:29.031Z</time></trkpt><trkpt lat="43.8542867" lon="12.7506783"><ele>55.0</ele><time>2026-04-12T10:55:30.032Z</time></trkpt><trkpt lat="43.8542967" lon="12.7507817"><ele>55.2</ele><time>2026-04-12T10:55:31.03Z</time></trkpt><trkpt lat="43.8543067" lon="12.7508933"><ele>55.4</ele><time>2026-04-12T10:55:32.032Z</time></trkpt><trkpt lat="43.85432" lon="12.7510233"><ele>55.599999999999994</ele><time>2026-04-12T10:55:33.029Z</time></trkpt><trkpt lat="43.8543283" lon="12.7511667"><ele>55.8</ele><time>2026-04-12T10:55:34.03Z</time></trkpt><trkpt lat="43.8543383" lon="12.75132"><ele>56.0</ele><time>2026-04-12T10:55:35.027Z</time></trkpt><trkpt lat="43.8543433" lon="12.7514667"><ele>56.8</ele><time>2026-04-12T10:55:36.027Z</time></trkpt><trkpt lat="43.8543517" lon="12.7516083"><ele>57.599999999999994</ele><time>2026-04-12T10:55:37.031Z</time></trkpt><trkpt lat="43.8543583" lon="12.7517417"><ele>58.4</ele><time>2026-04-12T10:55:38.028Z</time></trkpt><trkpt lat="43.85437" lon="12.7518767"><ele>59.2</ele><time>2026-04-12T10:55:39.027Z</time></trkpt><trkpt lat="43.854385" lon="12.7520183"><ele>60.0</ele><time>2026-04-12T10:55:40.03Z</time></trkpt><trkpt lat="43.8544017" lon="12.7521683"><ele>60.0</ele><time>2026-04-12T10:55:41.027Z</time></trkpt><trkpt lat="43.85442" lon="12.7523267"><ele>60.0</ele><time>2026-04-12T10:55:42.031Z</time></trkpt><trkpt lat="43.8544433" lon="12.7524883"><ele>60.0</ele><time>2026-04-12T10:55:43.033Z</time></trkpt><trkpt lat="43.85447" lon="12.7526467"><ele>60.0</ele><time>2026-04-12T10:55:44.028Z</time></trkpt><trkpt lat="43.8544967" lon="12.7528033"><ele>59.0</ele><time>2026-04-12T10:55:45.031Z</time></trkpt><trkpt lat="43.8545283" lon="12.7529617"><ele>58.0</ele><time>2026-04-12T10:55:46.029Z</time></trkpt><trkpt lat="43.85456" lon="12.7531233"><ele>57.0</ele><time>2026-04-12T10:55:47.03Z</time></trkpt><trkpt lat="43.8545917" lon="12.7532883"><ele>56.0</ele><time>2026-04-12T10:55:48.032Z</time></trkpt><trkpt lat="43.8546233" lon="12.75345"><ele>55.75</ele><time>2026-04-12T10:55:49.025Z</time></trkpt><trkpt lat="43.8546567" lon="12.75361"><ele>55.5</ele><time>2026-04-12T10:55:50.028Z</time></trkpt><trkpt lat="43.8546867" lon="12.7537717"><ele>55.25</ele><time>2026-04-12T10:55:51.028Z</time></trkpt><trkpt lat="43.8547133" lon="12.7539333"><ele>55.0</ele><time>2026-04-12T10:55:52.033Z</time></trkpt><trkpt lat="43.8547433" lon="12.7540817"><ele>54.99999999999999</ele><time>2026-04-12T10:55:53.031Z</time></trkpt><trkpt lat="43.8547717" lon="12.7542183"><ele>55.0</ele><time>2026-04-12T10:55:54.027Z</time></trkpt><trkpt lat="43.8547983" lon="12.7543417"><ele>55.0</ele><time>2026-04-12T10:55:55.033Z</time></trkpt><trkpt lat="43.8548233" lon="12.7544533"><ele>55.0</ele><time>2026-04-12T10:55:56.032Z</time></trkpt><trkpt lat="43.85485" lon="12.7545583"><ele>54.99999999999999</ele><time>2026-04-12T10:55:57.03Z</time></trkpt><trkpt lat="43.854875" lon="12.7546667"><ele>55.0</ele><time>2026-04-12T10:55:58.029Z</time></trkpt><trkpt lat="43.8549" lon="12.7547767"><ele>55.166666666666664</ele><time>2026-04-12T10:55:59.032Z</time></trkpt><trkpt lat="43.854925" lon="12.7548917"><ele>55.33333333333333</ele><time>2026-04-12T10:56:00.026Z</time></trkpt><trkpt lat="43.8549567" lon="12.755005"><ele>55.5</ele><time>2026-04-12T10:56:01.03Z</time></trkpt><trkpt lat="43.8549867" lon="12.7551233"><ele>55.66666666666667</ele><time>2026-04-12T10:56:02.029Z</time></trkpt><trkpt lat="43.8550117" lon="12.75524"><ele>55.833333333333336</ele><time>2026-04-12T10:56:03.033Z</time></trkpt><trkpt lat="43.8550317" lon="12.755345"><ele>56.0</ele><time>2026-04-12T10:56:04.03Z</time></trkpt><trkpt lat="43.8550517" lon="12.7554383"><ele>56.4</ele><time>2026-04-12T10:56:05.028Z</time></trkpt><trkpt lat="43.8550683" lon="12.7555267"><ele>56.8</ele><time>2026-04-12T10:56:06.032Z</time></trkpt><trkpt lat="43.8550767" lon="12.7556133"><ele>57.199999999999996</ele><time>2026-04-12T10:56:07.035Z</time></trkpt><trkpt lat="43.8551117" lon="12.7557633"><ele>57.599999999999994</ele><time>2026-04-12T10:56:09.029Z</time></trkpt><trkpt lat="43.85517" lon="12.7559283"><ele>58.0</ele><time>2026-04-12T10:56:11.032Z</time></trkpt><trkpt lat="43.8551967" lon="12.7560267"><ele>61.166666666666664</ele><time>2026-04-12T10:56:12.026Z</time></trkpt><trkpt lat="43.8552183" lon="12.7561333"><ele>64.33333333333333</ele><time>2026-04-12T10:56:13.028Z</time></trkpt><trkpt lat="43.8552417" lon="12.756245"><ele>67.5</ele><time>2026-04-12T10:56:14.033Z</time></trkpt><trkpt lat="43.855265" lon="12.75636"><ele>70.66666666666667</ele><time>2026-04-12T10:56:15.026Z</time></trkpt><trkpt lat="43.8552917" lon="12.756475"><ele>73.83333333333334</ele><time>2026-04-12T10:56:16.035Z</time></trkpt><trkpt lat="43.855315" lon="12.7565933"><ele>77.0</ele><time>2026-04-12T10:56:17.026Z</time></trkpt><trkpt lat="43.855345" lon="12.7567167"><ele>77.0</ele><time>2026-04-12T10:56:18.03Z</time></trkpt><trkpt lat="43.855375" lon="12.75685"><ele>77.0</ele><time>2026-04-12T10:56:19.033Z</time></trkpt><trkpt lat="43.85541" lon="12.7569917"><ele>77.0</ele><time>2026-04-12T10:56:20.03Z</time></trkpt><trkpt lat="43.8554433" lon="12.757135"><ele>77.0</ele><time>2026-04-12T10:56:21.033Z</time></trkpt><trkpt lat="43.855465" lon="12.757275"><ele>77.0</ele><time>2026-04-12T10:56:22.026Z</time></trkpt><trkpt lat="43.855485" lon="12.7574117"><ele>77.0</ele><time>2026-04-12T10:56:23.027Z</time></trkpt><trkpt lat="43.8554967" lon="12.757545"><ele>77.0</ele><time>2026-04-12T10:56:24.031Z</time></trkpt><trkpt lat="43.8555033" lon="12.7576783"><ele>77.0</ele><time>2026-04-12T10:56:25.026Z</time></trkpt><trkpt lat="43.8555033" lon="12.7578067"><ele>77.0</ele><time>2026-04-12T10:56:26.032Z</time></trkpt><trkpt lat="43.8554983" lon="12.757925"><ele>77.0</ele><time>2026-04-12T10:56:27.028Z</time></trkpt><trkpt lat="43.8554917" lon="12.7580333"><ele>77.0</ele><time>2026-04-12T10:56:28.026Z</time></trkpt><trkpt lat="43.855485" lon="12.7581367"><ele>77.0</ele><time>2026-04-12T10:56:29.031Z</time></trkpt><trkpt lat="43.8554667" lon="12.7582417"><ele>77.0</ele><time>2026-04-12T10:56:30.03Z</time></trkpt><trkpt lat="43.85544" lon="12.7583433"><ele>77.0</ele><time>2026-04-12T10:56:31.032Z</time></trkpt><trkpt lat="43.855415" lon="12.7584417"><ele>77.0</ele><time>2026-04-12T10:56:32.027Z</time></trkpt><trkpt lat="43.8554" lon="12.7585417"><ele>77.0</ele><time>2026-04-12T10:56:33.029Z</time></trkpt><trkpt lat="43.8554017" lon="12.758655"><ele>76.0</ele><time>2026-04-12T10:56:34.029Z</time></trkpt><trkpt lat="43.8554167" lon="12.7587917"><ele>75.0</ele><time>2026-04-12T10:56:35.029Z</time></trkpt><trkpt lat="43.85545" lon="12.7589867"><ele>74.0</ele><time>2026-04-12T10:56:36.029Z</time></trkpt><trkpt lat="43.8554667" lon="12.7592267"><ele>73.0</ele><time>2026-04-12T10:56:37.033Z</time></trkpt><trkpt lat="43.8554883" lon="12.7594633"><ele>70.66666666666666</ele><time>2026-04-12T10:56:38.026Z</time></trkpt><trkpt lat="43.8555133" lon="12.759685"><ele>68.33333333333333</ele><time>2026-04-12T10:56:39.027Z</time></trkpt><trkpt lat="43.85555" lon="12.759895"><ele>66.0</ele><time>2026-04-12T10:56:40.034Z</time></trkpt><trkpt lat="43.8556" lon="12.7600967"><ele>63.33333333333333</ele><time>2026-04-12T10:56:41.027Z</time></trkpt><trkpt lat="43.8556583" lon="12.7603"><ele>60.666666666666664</ele><time>2026-04-12T10:56:42.03Z</time></trkpt><trkpt lat="43.8557117" lon="12.7605"><ele>58.0</ele><time>2026-04-12T10:56:43.025Z</time></trkpt><trkpt lat="43.855765" lon="12.76068"><ele>58.0</ele><time>2026-04-12T10:56:44.035Z</time></trkpt><trkpt lat="43.8558183" lon="12.7608483"><ele>58.0</ele><time>2026-04-12T10:56:45.027Z</time></trkpt><trkpt lat="43.8558717" lon="12.76101"><ele>58.0</ele><time>2026-04-12T10:56:46.029Z</time></trkpt><trkpt lat="43.8559233" lon="12.7611767"><ele>58.0</ele><time>2026-04-12T10:56:47.03Z</time></trkpt><trkpt lat="43.8559733" lon="12.7613467"><ele>60.5</ele><time>2026-04-12T10:56:48.028Z</time></trkpt><trkpt lat="43.85602" lon="12.7615133"><ele>63.0</ele><time>2026-04-12T10:56:49.028Z</time></trkpt><trkpt lat="43.85607" lon="12.761665"><ele>65.5</ele><time>2026-04-12T10:56:50.032Z</time></trkpt><trkpt lat="43.8561167" lon="12.7618"><ele>68.0</ele><time>2026-04-12T10:56:51.029Z</time></trkpt><trkpt lat="43.8561533" lon="12.7619267"><ele>68.0</ele><time>2026-04-12T10:56:52.035Z</time></trkpt><trkpt lat="43.8561867" lon="12.762045"><ele>68.0</ele><time>2026-04-12T10:56:53.029Z</time></trkpt><trkpt lat="43.8562167" lon="12.762165"><ele>68.0</ele><time>2026-04-12T10:56:54.027Z</time></trkpt><trkpt lat="43.8562517" lon="12.7622867"><ele>68.0</ele><time>2026-04-12T10:56:55.033Z</time></trkpt><trkpt lat="43.85629" lon="12.7624167"><ele>68.0</ele><time>2026-04-12T10:56:56.032Z</time></trkpt><trkpt lat="43.8563267" lon="12.76255"><ele>68.0</ele><time>2026-04-12T10:56:57.027Z</time></trkpt><trkpt lat="43.8563683" lon="12.762675"><ele>68.0</ele><time>2026-04-12T10:56:58.029Z</time></trkpt><trkpt lat="43.8564033" lon="12.76279"><ele>68.0</ele><time>2026-04-12T10:56:59.026Z</time></trkpt><trkpt lat="43.8564317" lon="12.7628967"><ele>68.0</ele><time>2026-04-12T10:57:00.028Z</time></trkpt><trkpt lat="43.8564583" lon="12.7629983"><ele>68.0</ele><time>2026-04-12T10:57:01.033Z</time></trkpt><trkpt lat="43.8564817" lon="12.763095"><ele>68.0</ele><time>2026-04-12T10:57:02.026Z</time></trkpt><trkpt lat="43.8565083" lon="12.7631967"><ele>66.83333333333334</ele><time>2026-04-12T10:57:03.028Z</time></trkpt><trkpt lat="43.8565367" lon="12.7632917"><ele>65.66666666666667</ele><time>2026-04-12T10:57:04.029Z</time></trkpt><trkpt lat="43.8565633" lon="12.7633717"><ele>64.5</ele><time>2026-04-12T10:57:05.028Z</time></trkpt><trkpt lat="43.85661" lon="12.7634917"><ele>63.33333333333333</ele><time>2026-04-12T10:57:07.029Z</time></trkpt><trkpt lat="43.8566367" lon="12.763595"><ele>62.166666666666664</ele><time>2026-04-12T10:57:09.03Z</time></trkpt><trkpt lat="43.8566217" lon="12.7637017"><ele>61.0</ele><time>2026-04-12T10:57:11.028Z</time></trkpt><trkpt lat="43.856585" lon="12.7638333"><ele>60.199999999999996</ele><time>2026-04-12T10:57:13.03Z</time></trkpt><trkpt lat="43.856615" lon="12.7639617"><ele>59.39999999999999</ele><time>2026-04-12T10:57:15.028Z</time></trkpt><trkpt lat="43.8566633" lon="12.76403"><ele>58.6</ele><time>2026-04-12T10:57:16.034Z</time></trkpt><trkpt lat="43.8567133" lon="12.7640983"><ele>57.8</ele><time>2026-04-12T10:57:17.03Z</time></trkpt><trkpt lat="43.8567833" lon="12.7642167"><ele>57.0</ele><time>2026-04-12T10:57:19.026Z</time></trkpt><trkpt lat="43.8568283" lon="12.7643533"><ele>58.0</ele><time>2026-04-12T10:57:21.03Z</time></trkpt><trkpt lat="43.85689" lon="12.764475"><ele>59.0</ele><time>2026-04-12T10:57:23.028Z</time></trkpt><trkpt lat="43.8569317" lon="12.7645433"><ele>60.0</ele><time>2026-04-12T10:57:24.027Z</time></trkpt><trkpt lat="43.8569767" lon="12.76462"><ele>61.0</ele><time>2026-04-12T10:57:25.028Z</time></trkpt><trkpt lat="43.8570233" lon="12.7647067"><ele>62.0</ele><time>2026-04-12T10:57:26.03Z</time></trkpt><trkpt lat="43.8570767" lon="12.7648"><ele>63.0</ele><time>2026-04-12T10:57:27.026Z</time></trkpt><trkpt lat="43.857135" lon="12.764895"><ele>63.0</ele><time>2026-04-12T10:57:28.027Z</time></trkpt><trkpt lat="43.8571917" lon="12.7649883"><ele>63.0</ele><time>2026-04-12T10:57:29.033Z</time></trkpt><trkpt lat="43.857255" lon="12.76508"><ele>63.0</ele><time>2026-04-12T10:57:30.028Z</time></trkpt><trkpt lat="43.8573117" lon="12.7651833"><ele>63.0</ele><time>2026-04-12T10:57:31.025Z</time></trkpt><trkpt lat="43.85738" lon="12.765285"><ele>63.0</ele><time>2026-04-12T10:57:32.033Z</time></trkpt><trkpt lat="43.857455" lon="12.7653933"><ele>61.75</ele><time>2026-04-12T10:57:33.027Z</time></trkpt><trkpt lat="43.8575333" lon="12.7655083"><ele>60.5</ele><time>2026-04-12T10:57:34.028Z</time></trkpt><trkpt lat="43.8576083" lon="12.7656283"><ele>59.25</ele><time>2026-04-12T10:57:35.028Z</time></trkpt><trkpt lat="43.857685" lon="12.76575"><ele>58.0</ele><time>2026-04-12T10:57:36.028Z</time></trkpt><trkpt lat="43.8577717" lon="12.7658733"><ele>58.0</ele><time>2026-04-12T10:57:37.028Z</time></trkpt><trkpt lat="43.8578567" lon="12.766"><ele>58.0</ele><time>2026-04-12T10:57:38.025Z</time></trkpt><trkpt lat="43.8579383" lon="12.766125"><ele>58.0</ele><time>2026-04-12T10:57:39.028Z</time></trkpt><trkpt lat="43.8580083" lon="12.7662383"><ele>58.0</ele><time>2026-04-12T10:57:40.036Z</time></trkpt><trkpt lat="43.85807" lon="12.7663333"><ele>58.0</ele><time>2026-04-12T10:57:41.025Z</time></trkpt><trkpt lat="43.858125" lon="12.7664117"><ele>57.0</ele><time>2026-04-12T10:57:42.028Z</time></trkpt><trkpt lat="43.8581817" lon="12.76648"><ele>56.0</ele><time>2026-04-12T10:57:43.027Z</time></trkpt><trkpt lat="43.8582483" lon="12.766555"><ele>55.0</ele><time>2026-04-12T10:57:44.03Z</time></trkpt><trkpt lat="43.858325" lon="12.7666417"><ele>54.0</ele><time>2026-04-12T10:57:45.032Z</time></trkpt><trkpt lat="43.8584067" lon="12.7667283"><ele>53.0</ele><time>2026-04-12T10:57:46.036Z</time></trkpt><trkpt lat="43.8584883" lon="12.7668067"><ele>53.00000000000001</ele><time>2026-04-12T10:57:47.028Z</time></trkpt><trkpt lat="43.8585583" lon="12.766875"><ele>53.0</ele><time>2026-04-12T10:57:48.027Z</time></trkpt><trkpt lat="43.8586317" lon="12.76694"><ele>53.0</ele><time>2026-04-12T10:57:49.026Z</time></trkpt><trkpt lat="43.858705" lon="12.7670017"><ele>53.0</ele><time>2026-04-12T10:57:50.028Z</time></trkpt><trkpt lat="43.8587767" lon="12.767055"><ele>53.00000000000001</ele><time>2026-04-12T10:57:51.029Z</time></trkpt><trkpt lat="43.8588583" lon="12.7670983"><ele>53.0</ele><time>2026-04-12T10:57:52.031Z</time></trkpt><trkpt lat="43.8589383" lon="12.7671383"><ele>53.00000000000001</ele><time>2026-04-12T10:57:53.028Z</time></trkpt><trkpt lat="43.8590167" lon="12.7671733"><ele>53.0</ele><time>2026-04-12T10:57:54.025Z</time></trkpt><trkpt lat="43.8590933" lon="12.7672117"><ele>53.0</ele><time>2026-04-12T10:57:55.026Z</time></trkpt><trkpt lat="43.85917" lon="12.7672433"><ele>53.0</ele><time>2026-04-12T10:57:56.026Z</time></trkpt><trkpt lat="43.8592467" lon="12.7672767"><ele>53.00000000000001</ele><time>2026-04-12T10:57:57.029Z</time></trkpt><trkpt lat="43.85932" lon="12.7673133"><ele>53.0</ele><time>2026-04-12T10:57:58.029Z</time></trkpt><trkpt lat="43.8593883" lon="12.7673533"><ele>52.85714285714286</ele><time>2026-04-12T10:57:59.029Z</time></trkpt><trkpt lat="43.8594467" lon="12.7673983"><ele>52.71428571428571</ele><time>2026-04-12T10:58:00.026Z</time></trkpt><trkpt lat="43.8595017" lon="12.7674417"><ele>52.57142857142857</ele><time>2026-04-12T10:58:01.03Z</time></trkpt><trkpt lat="43.8595567" lon="12.767495"><ele>52.42857142857143</ele><time>2026-04-12T10:58:02.029Z</time></trkpt><trkpt lat="43.859615" lon="12.7675567"><ele>52.28571428571429</ele><time>2026-04-12T10:58:03.028Z</time></trkpt><trkpt lat="43.8596767" lon="12.7676317"><ele>52.14285714285714</ele><time>2026-04-12T10:58:04.028Z</time></trkpt><trkpt lat="43.859745" lon="12.7677233"><ele>52.0</ele><time>2026-04-12T10:58:05.028Z</time></trkpt><trkpt lat="43.8598133" lon="12.76782"><ele>52.0</ele><time>2026-04-12T10:58:06.03Z</time></trkpt><trkpt lat="43.85988" lon="12.7679217"><ele>52.0</ele><time>2026-04-12T10:58:07.027Z</time></trkpt><trkpt lat="43.8599467" lon="12.768035"><ele>52.0</ele><time>2026-04-12T10:58:08.03Z</time></trkpt><trkpt lat="43.8600167" lon="12.768165"><ele>52.0</ele><time>2026-04-12T10:58:09.027Z</time></trkpt><trkpt lat="43.8600883" lon="12.7683017"><ele>52.0</ele><time>2026-04-12T10:58:10.036Z</time></trkpt><trkpt lat="43.86016" lon="12.7684367"><ele>53.8</ele><time>2026-04-12T10:58:11.029Z</time></trkpt><trkpt lat="43.8602283" lon="12.7685633"><ele>55.6</ele><time>2026-04-12T10:58:12.029Z</time></trkpt><trkpt lat="43.860295" lon="12.7686833"><ele>57.39999999999999</ele><time>2026-04-12T10:58:13.027Z</time></trkpt><trkpt lat="43.8603583" lon="12.768795"><ele>59.199999999999996</ele><time>2026-04-12T10:58:14.029Z</time></trkpt><trkpt lat="43.8604233" lon="12.7689067"><ele>61.0</ele><time>2026-04-12T10:58:15.026Z</time></trkpt><trkpt lat="43.86049" lon="12.7690233"><ele>60.99999999999999</ele><time>2026-04-12T10:58:16.034Z</time></trkpt><trkpt lat="43.860555" lon="12.7691383"><ele>61.0</ele><time>2026-04-12T10:58:17.028Z</time></trkpt><trkpt lat="43.8606133" lon="12.76925"><ele>61.0</ele><time>2026-04-12T10:58:18.025Z</time></trkpt><trkpt lat="43.8606567" lon="12.769355"><ele>61.0</ele><time>2026-04-12T10:58:19.03Z</time></trkpt><trkpt lat="43.8606883" lon="12.7694517"><ele>60.99999999999999</ele><time>2026-04-12T10:58:20.029Z</time></trkpt><trkpt lat="43.860715" lon="12.7695433"><ele>61.0</ele><time>2026-04-12T10:58:21.028Z</time></trkpt><trkpt lat="43.8607317" lon="12.76963"><ele>60.599999999999994</ele><time>2026-04-12T10:58:22.029Z</time></trkpt><trkpt lat="43.8607367" lon="12.7698017"><ele>60.199999999999996</ele><time>2026-04-12T10:58:24.033Z</time></trkpt><trkpt lat="43.8607217" lon="12.7698867"><ele>59.800000000000004</ele><time>2026-04-12T10:58:25.031Z</time></trkpt><trkpt lat="43.8606983" lon="12.7699683"><ele>59.400000000000006</ele><time>2026-04-12T10:58:26.027Z</time></trkpt><trkpt lat="43.8606933" lon="12.7701283"><ele>59.0</ele><time>2026-04-12T10:58:28.03Z</time></trkpt><trkpt lat="43.86077" lon="12.7702383"><ele>58.400000000000006</ele><time>2026-04-12T10:58:30.023Z</time></trkpt><trkpt lat="43.860855" lon="12.770275"><ele>57.800000000000004</ele><time>2026-04-12T10:58:31.028Z</time></trkpt><trkpt lat="43.86094" lon="12.7703333"><ele>57.199999999999996</ele><time>2026-04-12T10:58:32.027Z</time></trkpt><trkpt lat="43.8610183" lon="12.770425"><ele>56.599999999999994</ele><time>2026-04-12T10:58:33.027Z</time></trkpt><trkpt lat="43.8610933" lon="12.7705517"><ele>56.0</ele><time>2026-04-12T10:58:34.03Z</time></trkpt><trkpt lat="43.8611667" lon="12.7707267"><ele>56.66666666666667</ele><time>2026-04-12T10:58:35.034Z</time></trkpt><trkpt lat="43.8612233" lon="12.7709367"><ele>57.33333333333333</ele><time>2026-04-12T10:58:36.028Z</time></trkpt><trkpt lat="43.8612667" lon="12.771165"><ele>58.0</ele><time>2026-04-12T10:58:37.03Z</time></trkpt><trkpt lat="43.86131" lon="12.7713867"><ele>58.0</ele><time>2026-04-12T10:58:38.03Z</time></trkpt><trkpt lat="43.861355" lon="12.7716017"><ele>58.0</ele><time>2026-04-12T10:58:39.034Z</time></trkpt><trkpt lat="43.8613933" lon="12.771805"><ele>58.0</ele><time>2026-04-12T10:58:40.028Z</time></trkpt><trkpt lat="43.8614317" lon="12.7719917"><ele>58.0</ele><time>2026-04-12T10:58:41.027Z</time></trkpt><trkpt lat="43.8614733" lon="12.7721717"><ele>58.0</ele><time>2026-04-12T10:58:42.03Z</time></trkpt><trkpt lat="43.8615167" lon="12.77235"><ele>58.0</ele><time>2026-04-12T10:58:43.027Z</time></trkpt><trkpt lat="43.861565" lon="12.7725317"><ele>58.0</ele><time>2026-04-12T10:58:44.03Z</time></trkpt><trkpt lat="43.86162" lon="12.7727067"><ele>58.5</ele><time>2026-04-12T10:58:45.026Z</time></trkpt><trkpt lat="43.8616733" lon="12.7728767"><ele>59.0</ele><time>2026-04-12T10:58:46.027Z</time></trkpt><trkpt lat="43.8617283" lon="12.773045"><ele>59.5</ele><time>2026-04-12T10:58:47.028Z</time></trkpt><trkpt lat="43.8617867" lon="12.7732117"><ele>60.0</ele><time>2026-04-12T10:58:48.03Z</time></trkpt><trkpt lat="43.8618483" lon="12.7733767"><ele>59.0</ele><time>2026-04-12T10:58:49.03Z</time></trkpt><trkpt lat="43.8619167" lon="12.77354"><ele>58.0</ele><time>2026-04-12T10:58:50.034Z</time></trkpt><trkpt lat="43.86199" lon="12.7737017"><ele>57.0</ele><time>2026-04-12T10:58:51.029Z</time></trkpt><trkpt lat="43.86207" lon="12.7738617"><ele>56.0</ele><time>2026-04-12T10:58:52.033Z</time></trkpt><trkpt lat="43.8621583" lon="12.7740183"><ele>56.0</ele><time>2026-04-12T10:58:53.024Z</time></trkpt><trkpt lat="43.8622533" lon="12.7741683"><ele>56.0</ele><time>2026-04-12T10:58:54.033Z</time></trkpt><trkpt lat="43.8623567" lon="12.7743167"><ele>56.0</ele><time>2026-04-12T10:58:55.03Z</time></trkpt><trkpt lat="43.862465" lon="12.7744667"><ele>56.0</ele><time>2026-04-12T10:58:56.026Z</time></trkpt><trkpt lat="43.8625717" lon="12.77461"><ele>56.25</ele><time>2026-04-12T10:58:57.028Z</time></trkpt><trkpt lat="43.862675" lon="12.774745"><ele>56.5</ele><time>2026-04-12T10:58:58.027Z</time></trkpt><trkpt lat="43.86277" lon="12.7748733"><ele>56.75</ele><time>2026-04-12T10:58:59.033Z</time></trkpt><trkpt lat="43.862855" lon="12.775005"><ele>57.0</ele><time>2026-04-12T10:59:00.026Z</time></trkpt><trkpt lat="43.8629383" lon="12.775145"><ele>57.0</ele><time>2026-04-12T10:59:01.03Z</time></trkpt><trkpt lat="43.86302" lon="12.7753"><ele>57.0</ele><time>2026-04-12T10:59:02.031Z</time></trkpt><trkpt lat="43.8630983" lon="12.7754717"><ele>57.0</ele><time>2026-04-12T10:59:03.025Z</time></trkpt><trkpt lat="43.863165" lon="12.7756483"><ele>57.0</ele><time>2026-04-12T10:59:04.028Z</time></trkpt><trkpt lat="43.8632167" lon="12.7758233"><ele>57.0</ele><time>2026-04-12T10:59:05.027Z</time></trkpt><trkpt lat="43.8632583" lon="12.7759967"><ele>57.0</ele><time>2026-04-12T10:59:06.03Z</time></trkpt><trkpt lat="43.8633" lon="12.77617"><ele>57.0</ele><time>2026-04-12T10:59:07.028Z</time></trkpt><trkpt lat="43.863345" lon="12.7763467"><ele>57.0</ele><time>2026-04-12T10:59:08.026Z</time></trkpt><trkpt lat="43.8633917" lon="12.7765317"><ele>56.5</ele><time>2026-04-12T10:59:09.028Z</time></trkpt><trkpt lat="43.8634433" lon="12.7767183"><ele>56.0</ele><time>2026-04-12T10:59:10.031Z</time></trkpt><trkpt lat="43.8634917" lon="12.7769017"><ele>55.5</ele><time>2026-04-12T10:59:11.027Z</time></trkpt><trkpt lat="43.8635467" lon="12.7770783"><ele>55.0</ele><time>2026-04-12T10:59:12.029Z</time></trkpt><trkpt lat="43.863605" lon="12.777255"><ele>55.25</ele><time>2026-04-12T10:59:13.031Z</time></trkpt><trkpt lat="43.8636683" lon="12.7774333"><ele>55.5</ele><time>2026-04-12T10:59:14.026Z</time></trkpt><trkpt lat="43.86373" lon="12.7776117"><ele>55.75</ele><time>2026-04-12T10:59:15.027Z</time></trkpt><trkpt lat="43.8637917" lon="12.777785"><ele>56.0</ele><time>2026-04-12T10:59:16.029Z</time></trkpt><trkpt lat="43.8638533" lon="12.777945"><ele>56.0</ele><time>2026-04-12T10:59:17.031Z</time></trkpt><trkpt lat="43.8639117" lon="12.7780967"><ele>56.0</ele><time>2026-04-12T10:59:18.031Z</time></trkpt><trkpt lat="43.8639683" lon="12.77825"><ele>56.0</ele><time>2026-04-12T10:59:19.029Z</time></trkpt><trkpt lat="43.8640283" lon="12.7784067"><ele>56.0</ele><time>2026-04-12T10:59:20.026Z</time></trkpt><trkpt lat="43.8640867" lon="12.7785633"><ele>55.199999999999996</ele><time>2026-04-12T10:59:21.029Z</time></trkpt><trkpt lat="43.8641383" lon="12.7787117"><ele>54.39999999999999</ele><time>2026-04-12T10:59:22.032Z</time></trkpt><trkpt lat="43.86419" lon="12.778845"><ele>53.6</ele><time>2026-04-12T10:59:23.034Z</time></trkpt><trkpt lat="43.864235" lon="12.7789667"><ele>52.8</ele><time>2026-04-12T10:59:24.026Z</time></trkpt><trkpt lat="43.8642717" lon="12.7790783"><ele>52.0</ele><time>2026-04-12T10:59:25.028Z</time></trkpt><trkpt lat="43.8642983" lon="12.77918"><ele>53.0</ele><time>2026-04-12T10:59:26.026Z</time></trkpt><trkpt lat="43.8643117" lon="12.779275"><ele>54.0</ele><time>2026-04-12T10:59:27.027Z</time></trkpt><trkpt lat="43.864325" lon="12.7793633"><ele>55.0</ele><time>2026-04-12T10:59:28.027Z</time></trkpt><trkpt lat="43.8644017" lon="12.77952"><ele>56.0</ele><time>2026-04-12T10:59:30.029Z</time></trkpt><trkpt lat="43.864465" lon="12.7796183"><ele>57.0</ele><time>2026-04-12T10:59:31.032Z</time></trkpt><trkpt lat="43.8645367" lon="12.779755"><ele>57.0</ele><time>2026-04-12T10:59:32.028Z</time></trkpt><trkpt lat="43.8646067" lon="12.7799233"><ele>57.0</ele><time>2026-04-12T10:59:33.03Z</time></trkpt><trkpt lat="43.864675" lon="12.7801067"><ele>57.0</ele><time>2026-04-12T10:59:34.029Z</time></trkpt><trkpt lat="43.8647417" lon="12.7802967"><ele>57.0</ele><time>2026-04-12T10:59:35.035Z</time></trkpt><trkpt lat="43.86481" lon="12.7804867"><ele>55.33333333333333</ele><time>2026-04-12T10:59:36.029Z</time></trkpt><trkpt lat="43.8648817" lon="12.78068"><ele>53.666666666666664</ele><time>2026-04-12T10:59:37.026Z</time></trkpt><trkpt lat="43.8649533" lon="12.7808783"><ele>52.0</ele><time>2026-04-12T10:59:38.026Z</time></trkpt><trkpt lat="43.8650283" lon="12.7810783"><ele>51.0</ele><time>2026-04-12T10:59:39.03Z</time></trkpt><trkpt lat="43.8651033" lon="12.7812783"><ele>50.0</ele><time>2026-04-12T10:59:40.037Z</time></trkpt><trkpt lat="43.8651833" lon="12.7814767"><ele>49.0</ele><time>2026-04-12T10:59:41.028Z</time></trkpt><trkpt lat="43.865265" lon="12.7816767"><ele>50.0</ele><time>2026-04-12T10:59:42.03Z</time></trkpt><trkpt lat="43.8653567" lon="12.7818767"><ele>51.0</ele><time>2026-04-12T10:59:43.032Z</time></trkpt><trkpt lat="43.8654567" lon="12.7820733"><ele>52.0</ele><time>2026-04-12T10:59:44.033Z</time></trkpt><trkpt lat="43.8655567" lon="12.782255"><ele>52.0</ele><time>2026-04-12T10:59:45.035Z</time></trkpt><trkpt lat="43.8656617" lon="12.782415"><ele>52.0</ele><time>2026-04-12T10:59:46.03Z</time></trkpt><trkpt lat="43.8657683" lon="12.78256"><ele>52.0</ele><time>2026-04-12T10:59:47.039Z</time></trkpt><trkpt lat="43.8658783" lon="12.7826967"><ele>52.25</ele><time>2026-04-12T10:59:48.03Z</time></trkpt><trkpt lat="43.8659883" lon="12.782825"><ele>52.5</ele><time>2026-04-12T10:59:49.032Z</time></trkpt><trkpt lat="43.866095" lon="12.7829417"><ele>52.75</ele><time>2026-04-12T10:59:50.033Z</time></trkpt><trkpt lat="43.86619" lon="12.7830533"><ele>53.0</ele><time>2026-04-12T10:59:51.029Z</time></trkpt><trkpt lat="43.866285" lon="12.7831583"><ele>53.0</ele><time>2026-04-12T10:59:52.029Z</time></trkpt><trkpt lat="43.8663783" lon="12.7832583"><ele>53.0</ele><time>2026-04-12T10:59:53.029Z</time></trkpt><trkpt lat="43.8664633" lon="12.7833567"><ele>53.0</ele><time>2026-04-12T10:59:54.03Z</time></trkpt><trkpt lat="43.866555" lon="12.7834667"><ele>53.0</ele><time>2026-04-12T10:59:55.028Z</time></trkpt><trkpt lat="43.8666467" lon="12.7835933"><ele>52.5</ele><time>2026-04-12T10:59:56.027Z</time></trkpt><trkpt lat="43.8667283" lon="12.7837333"><ele>52.0</ele><time>2026-04-12T10:59:57.027Z</time></trkpt><trkpt lat="43.8668017" lon="12.7838783"><ele>51.5</ele><time>2026-04-12T10:59:58.03Z</time></trkpt><trkpt lat="43.8668633" lon="12.7840233"><ele>51.0</ele><time>2026-04-12T10:59:59.029Z</time></trkpt><trkpt lat="43.8669217" lon="12.7841483"><ele>51.0</ele><time>2026-04-12T11:00:00.026Z</time></trkpt><trkpt lat="43.8669817" lon="12.7842533"><ele>51.0</ele><time>2026-04-12T11:00:01.035Z</time></trkpt><trkpt lat="43.86703" lon="12.7843383"><ele>51.0</ele><time>2026-04-12T11:00:02.032Z</time></trkpt><trkpt lat="43.8670817" lon="12.7844033"><ele>51.0</ele><time>2026-04-12T11:00:03.028Z</time></trkpt><trkpt lat="43.8671267" lon="12.7844717"><ele>51.0</ele><time>2026-04-12T11:00:04.03Z</time></trkpt><trkpt lat="43.867155" lon="12.7845533"><ele>51.0</ele><time>2026-04-12T11:00:05.028Z</time></trkpt><trkpt lat="43.8671817" lon="12.78465"><ele>50.85714285714286</ele><time>2026-04-12T11:00:06.028Z</time></trkpt><trkpt lat="43.8672117" lon="12.784745"><ele>50.714285714285715</ele><time>2026-04-12T11:00:07.029Z</time></trkpt><trkpt lat="43.8672483" lon="12.78482"><ele>50.57142857142857</ele><time>2026-04-12T11:00:08.036Z</time></trkpt><trkpt lat="43.8673033" lon="12.7848667"><ele>50.42857142857143</ele><time>2026-04-12T11:00:09.034Z</time></trkpt><trkpt lat="43.8673767" lon="12.7848683"><ele>50.285714285714285</ele><time>2026-04-12T11:00:10.029Z</time></trkpt><trkpt lat="43.8674517" lon="12.784865"><ele>50.142857142857146</ele><time>2026-04-12T11:00:11.029Z</time></trkpt><trkpt lat="43.8675283" lon="12.784875"><ele>50.0</ele><time>2026-04-12T11:00:12.03Z</time></trkpt><trkpt lat="43.8676033" lon="12.7849183"><ele>50.4</ele><time>2026-04-12T11:00:13.025Z</time></trkpt><trkpt lat="43.8676733" lon="12.7849933"><ele>50.8</ele><time>2026-04-12T11:00:14.029Z</time></trkpt><trkpt lat="43.8677267" lon="12.7851217"><ele>51.2</ele><time>2026-04-12T11:00:15.027Z</time></trkpt><trkpt lat="43.8677767" lon="12.78526"><ele>51.6</ele><time>2026-04-12T11:00:16.03Z</time></trkpt><trkpt lat="43.8678267" lon="12.785405"><ele>52.0</ele><time>2026-04-12T11:00:17.029Z</time></trkpt><trkpt lat="43.867875" lon="12.7855617"><ele>52.25</ele><time>2026-04-12T11:00:18.033Z</time></trkpt><trkpt lat="43.86793" lon="12.785725"><ele>52.5</ele><time>2026-04-12T11:00:19.029Z</time></trkpt><trkpt lat="43.8679883" lon="12.78591"><ele>52.75</ele><time>2026-04-12T11:00:20.026Z</time></trkpt><trkpt lat="43.868055" lon="12.786115"><ele>53.0</ele><time>2026-04-12T11:00:21.027Z</time></trkpt><trkpt lat="43.8681233" lon="12.7863383"><ele>53.333333333333336</ele><time>2026-04-12T11:00:22.031Z</time></trkpt><trkpt lat="43.868185" lon="12.7865717"><ele>53.66666666666667</ele><time>2026-04-12T11:00:23.028Z</time></trkpt><trkpt lat="43.868245" lon="12.786815"><ele>54.0</ele><time>2026-04-12T11:00:24.03Z</time></trkpt><trkpt lat="43.8683067" lon="12.7870617"><ele>54.33333333333333</ele><time>2026-04-12T11:00:25.027Z</time></trkpt><trkpt lat="43.8683683" lon="12.7873133"><ele>54.666666666666664</ele><time>2026-04-12T11:00:26.033Z</time></trkpt><trkpt lat="43.86843" lon="12.787565"><ele>55.0</ele><time>2026-04-12T11:00:27.03Z</time></trkpt><trkpt lat="43.8685" lon="12.7878183"><ele>55.0</ele><time>2026-04-12T11:00:28.029Z</time></trkpt><trkpt lat="43.8685767" lon="12.7880683"><ele>55.0</ele><time>2026-04-12T11:00:29.031Z</time></trkpt><trkpt lat="43.8686617" lon="12.7883183"><ele>55.0</ele><time>2026-04-12T11:00:30.03Z</time></trkpt><trkpt lat="43.86876" lon="12.7885617"><ele>54.33333333333333</ele><time>2026-04-12T11:00:31.031Z</time></trkpt><trkpt lat="43.8688633" lon="12.7888"><ele>53.66666666666667</ele><time>2026-04-12T11:00:32.03Z</time></trkpt><trkpt lat="43.868975" lon="12.78904"><ele>53.0</ele><time>2026-04-12T11:00:33.031Z</time></trkpt><trkpt lat="43.86909" lon="12.7892817"><ele>53.66666666666667</ele><time>2026-04-12T11:00:34.034Z</time></trkpt><trkpt lat="43.8692033" lon="12.7895283"><ele>54.33333333333333</ele><time>2026-04-12T11:00:35.031Z</time></trkpt><trkpt lat="43.8693183" lon="12.7897767"><ele>55.0</ele><time>2026-04-12T11:00:36.032Z</time></trkpt><trkpt lat="43.8694367" lon="12.7900317"><ele>53.0</ele><time>2026-04-12T11:00:37.026Z</time></trkpt><trkpt lat="43.8695583" lon="12.79029"><ele>51.0</ele><time>2026-04-12T11:00:38.033Z</time></trkpt><trkpt lat="43.8696783" lon="12.7905483"><ele>49.0</ele><time>2026-04-12T11:00:39.03Z</time></trkpt><trkpt lat="43.8698083" lon="12.7908017"><ele>48.5</ele><time>2026-04-12T11:00:40.03Z</time></trkpt><trkpt lat="43.8699417" lon="12.7910533"><ele>48.0</ele><time>2026-04-12T11:00:41.024Z</time></trkpt><trkpt lat="43.870085" lon="12.7912983"><ele>48.0</ele><time>2026-04-12T11:00:42.031Z</time></trkpt><trkpt lat="43.870235" lon="12.7915383"><ele>48.0</ele><time>2026-04-12T11:00:43.029Z</time></trkpt><trkpt lat="43.8703867" lon="12.7917733"><ele>48.0</ele><time>2026-04-12T11:00:44.029Z</time></trkpt><trkpt lat="43.870555" lon="12.7919983"><ele>48.0</ele><time>2026-04-12T11:00:45.029Z</time></trkpt><trkpt lat="43.87073" lon="12.7922183"><ele>48.0</ele><time>2026-04-12T11:00:46.034Z</time></trkpt><trkpt lat="43.8708983" lon="12.792445"><ele>48.0</ele><time>2026-04-12T11:00:47.031Z</time></trkpt><trkpt lat="43.8710567" lon="12.792685"><ele>49.5</ele><time>2026-04-12T11:00:48.027Z</time></trkpt><trkpt lat="43.8711983" lon="12.7929383"><ele>51.0</ele><time>2026-04-12T11:00:49.03Z</time></trkpt><trkpt lat="43.871315" lon="12.7932067"><ele>51.0</ele><time>2026-04-12T11:00:50.034Z</time></trkpt><trkpt lat="43.87141" lon="12.7934883"><ele>51.0</ele><time>2026-04-12T11:00:51.031Z</time></trkpt><trkpt lat="43.8714867" lon="12.793785"><ele>49.5</ele><time>2026-04-12T11:00:52.031Z</time></trkpt><trkpt lat="43.871555" lon="12.7940883"><ele>48.0</ele><time>2026-04-12T11:00:53.03Z</time></trkpt><trkpt lat="43.8716267" lon="12.7943967"><ele>47.0</ele><time>2026-04-12T11:00:54.027Z</time></trkpt><trkpt lat="43.8717083" lon="12.794705"><ele>46.0</ele><time>2026-04-12T11:00:55.029Z</time></trkpt><trkpt lat="43.8718033" lon="12.7950083"><ele>48.5</ele><time>2026-04-12T11:00:56.027Z</time></trkpt><trkpt lat="43.87191" lon="12.7953033"><ele>51.0</ele><time>2026-04-12T11:00:57.031Z</time></trkpt><trkpt lat="43.8720217" lon="12.79559"><ele>51.0</ele><time>2026-04-12T11:00:58.03Z</time></trkpt><trkpt lat="43.8721383" lon="12.79587"><ele>51.0</ele><time>2026-04-12T11:00:59.025Z</time></trkpt><trkpt lat="43.8722467" lon="12.79615"><ele>50.0</ele><time>2026-04-12T11:01:00.031Z</time></trkpt><trkpt lat="43.87235" lon="12.79643"><ele>49.0</ele><time>2026-04-12T11:01:01.03Z</time></trkpt><trkpt lat="43.8724433" lon="12.796705"><ele>48.0</ele><time>2026-04-12T11:01:02.032Z</time></trkpt><trkpt lat="43.8725333" lon="12.796975"><ele>48.33333333333333</ele><time>2026-04-12T11:01:03.027Z</time></trkpt><trkpt lat="43.8726183" lon="12.7972433"><ele>48.666666666666664</ele><time>2026-04-12T11:01:04.033Z</time></trkpt><trkpt lat="43.8727017" lon="12.797515"><ele>49.0</ele><time>2026-04-12T11:01:05.037Z</time></trkpt><trkpt lat="43.8727817" lon="12.7977867"><ele>49.0</ele><time>2026-04-12T11:01:06.027Z</time></trkpt><trkpt lat="43.872855" lon="12.7980567"><ele>49.0</ele><time>2026-04-12T11:01:07.037Z</time></trkpt><trkpt lat="43.872925" lon="12.798315"><ele>49.0</ele><time>2026-04-12T11:01:08.027Z</time></trkpt><trkpt lat="43.87299" lon="12.79856"><ele>47.666666666666664</ele><time>2026-04-12T11:01:09.026Z</time></trkpt><trkpt lat="43.873045" lon="12.798795"><ele>46.33333333333333</ele><time>2026-04-12T11:01:10.032Z</time></trkpt><trkpt lat="43.8731" lon="12.7990217"><ele>45.0</ele><time>2026-04-12T11:01:11.03Z</time></trkpt><trkpt lat="43.8731533" lon="12.7992467"><ele>44.333333333333336</ele><time>2026-04-12T11:01:12.029Z</time></trkpt><trkpt lat="43.8732083" lon="12.799475"><ele>43.66666666666667</ele><time>2026-04-12T11:01:13.026Z</time></trkpt><trkpt lat="43.8732683" lon="12.7997067"><ele>43.0</ele><time>2026-04-12T11:01:14.027Z</time></trkpt><trkpt lat="43.8733333" lon="12.799935"><ele>43.0</ele><time>2026-04-12T11:01:15.028Z</time></trkpt><trkpt lat="43.8734033" lon="12.8001633"><ele>43.0</ele><time>2026-04-12T11:01:16.032Z</time></trkpt><trkpt lat="43.873475" lon="12.800385"><ele>43.0</ele><time>2026-04-12T11:01:17.031Z</time></trkpt><trkpt lat="43.8735483" lon="12.800605"><ele>43.0</ele><time>2026-04-12T11:01:18.033Z</time></trkpt><trkpt lat="43.873625" lon="12.8008183"><ele>43.0</ele><time>2026-04-12T11:01:19.028Z</time></trkpt><trkpt lat="43.8737033" lon="12.801025"><ele>43.0</ele><time>2026-04-12T11:01:20.026Z</time></trkpt><trkpt lat="43.8737833" lon="12.8012233"><ele>42.5</ele><time>2026-04-12T11:01:21.029Z</time></trkpt><trkpt lat="43.873865" lon="12.8014067"><ele>42.0</ele><time>2026-04-12T11:01:22.03Z</time></trkpt><trkpt lat="43.8739467" lon="12.8015683"><ele>41.5</ele><time>2026-04-12T11:01:23.031Z</time></trkpt><trkpt lat="43.8740333" lon="12.8017083"><ele>41.0</ele><time>2026-04-12T11:01:24.029Z</time></trkpt><trkpt lat="43.8741217" lon="12.801835"><ele>41.0</ele><time>2026-04-12T11:01:25.029Z</time></trkpt><trkpt lat="43.874205" lon="12.8019633"><ele>41.0</ele><time>2026-04-12T11:01:26.029Z</time></trkpt><trkpt lat="43.874295" lon="12.8020967"><ele>41.0</ele><time>2026-04-12T11:01:27.03Z</time></trkpt><trkpt lat="43.874385" lon="12.8022467"><ele>41.0</ele><time>2026-04-12T11:01:28.033Z</time></trkpt><trkpt lat="43.8744817" lon="12.8024067"><ele>41.33333333333333</ele><time>2026-04-12T11:01:29.029Z</time></trkpt><trkpt lat="43.874575" lon="12.8025783"><ele>41.666666666666664</ele><time>2026-04-12T11:01:30.032Z</time></trkpt><trkpt lat="43.8746767" lon="12.8027633"><ele>42.0</ele><time>2026-04-12T11:01:31.029Z</time></trkpt><trkpt lat="43.87478" lon="12.8029517"><ele>41.0</ele><time>2026-04-12T11:01:32.032Z</time></trkpt><trkpt lat="43.8748867" lon="12.8031383"><ele>40.0</ele><time>2026-04-12T11:01:33.03Z</time></trkpt><trkpt lat="43.87499" lon="12.8033233"><ele>39.0</ele><time>2026-04-12T11:01:34.028Z</time></trkpt><trkpt lat="43.8750917" lon="12.803515"><ele>40.333333333333336</ele><time>2026-04-12T11:01:35.033Z</time></trkpt><trkpt lat="43.8751767" lon="12.8037167"><ele>41.66666666666667</ele><time>2026-04-12T11:01:36.029Z</time></trkpt><trkpt lat="43.8752417" lon="12.8039283"><ele>43.0</ele><time>2026-04-12T11:01:37.03Z</time></trkpt><trkpt lat="43.8752767" lon="12.804155"><ele>42.66666666666667</ele><time>2026-04-12T11:01:38.031Z</time></trkpt><trkpt lat="43.8752867" lon="12.80439"><ele>42.333333333333336</ele><time>2026-04-12T11:01:39.036Z</time></trkpt><trkpt lat="43.875285" lon="12.80463"><ele>42.0</ele><time>2026-04-12T11:01:40.034Z</time></trkpt><trkpt lat="43.87528" lon="12.8048767"><ele>42.0</ele><time>2026-04-12T11:01:41.03Z</time></trkpt><trkpt lat="43.8752783" lon="12.8051283"><ele>42.0</ele><time>2026-04-12T11:01:42.028Z</time></trkpt><trkpt lat="43.87529" lon="12.805385"><ele>42.0</ele><time>2026-04-12T11:01:43.031Z</time></trkpt><trkpt lat="43.87532" lon="12.8056417"><ele>41.333333333333336</ele><time>2026-04-12T11:01:44.028Z</time></trkpt><trkpt lat="43.8753583" lon="12.8058967"><ele>40.66666666666667</ele><time>2026-04-12T11:01:45.034Z</time></trkpt><trkpt lat="43.8754033" lon="12.806135"><ele>40.0</ele><time>2026-04-12T11:01:46.027Z</time></trkpt><trkpt lat="43.8754483" lon="12.8063583"><ele>40.25</ele><time>2026-04-12T11:01:47.03Z</time></trkpt><trkpt lat="43.8754967" lon="12.8065617"><ele>40.5</ele><time>2026-04-12T11:01:48.03Z</time></trkpt><trkpt lat="43.8755333" lon="12.80674"><ele>40.75</ele><time>2026-04-12T11:01:49.033Z</time></trkpt><trkpt lat="43.8755583" lon="12.80689"><ele>41.0</ele><time>2026-04-12T11:01:50.03Z</time></trkpt><trkpt lat="43.8755667" lon="12.8070133"><ele>41.0</ele><time>2026-04-12T11:01:51.029Z</time></trkpt><trkpt lat="43.87555" lon="12.80712"><ele>41.0</ele><time>2026-04-12T11:01:52.036Z</time></trkpt><trkpt lat="43.8755217" lon="12.807205"><ele>41.0</ele><time>2026-04-12T11:01:53.029Z</time></trkpt><trkpt lat="43.875475" lon="12.8072917"><ele>41.0</ele><time>2026-04-12T11:01:54.03Z</time></trkpt><trkpt lat="43.8754233" lon="12.8073883"><ele>41.0</ele><time>2026-04-12T11:01:55.026Z</time></trkpt><trkpt lat="43.87539" lon="12.807495"><ele>41.0</ele><time>2026-04-12T11:01:56.027Z</time></trkpt><trkpt lat="43.8753883" lon="12.8076067"><ele>40.8</ele><time>2026-04-12T11:01:57.032Z</time></trkpt><trkpt lat="43.8754183" lon="12.8077033"><ele>40.599999999999994</ele><time>2026-04-12T11:01:58.032Z</time></trkpt><trkpt lat="43.875505" lon="12.807755"><ele>40.4</ele><time>2026-04-12T11:01:59.03Z</time></trkpt><trkpt lat="43.875595" lon="12.80779"><ele>40.2</ele><time>2026-04-12T11:02:00.03Z</time></trkpt><trkpt lat="43.8757" lon="12.8078367"><ele>40.0</ele><time>2026-04-12T11:02:01.029Z</time></trkpt><trkpt lat="43.8758117" lon="12.8079167"><ele>40.0</ele><time>2026-04-12T11:02:02.029Z</time></trkpt><trkpt lat="43.875925" lon="12.80803"><ele>40.0</ele><time>2026-04-12T11:02:03.03Z</time></trkpt><trkpt lat="43.8760433" lon="12.808155"><ele>40.0</ele><time>2026-04-12T11:02:04.032Z</time></trkpt><trkpt lat="43.87617" lon="12.8082917"><ele>40.0</ele><time>2026-04-12T11:02:05.028Z</time></trkpt><trkpt lat="43.8763033" lon="12.8084367"><ele>39.333333333333336</ele><time>2026-04-12T11:02:06.034Z</time></trkpt><trkpt lat="43.8764467" lon="12.80859"><ele>38.666666666666664</ele><time>2026-04-12T11:02:07.031Z</time></trkpt><trkpt lat="43.876595" lon="12.8087467"><ele>38.0</ele><time>2026-04-12T11:02:08.031Z</time></trkpt><trkpt lat="43.87674" lon="12.8089083"><ele>38.33333333333333</ele><time>2026-04-12T11:02:09.032Z</time></trkpt><trkpt lat="43.876885" lon="12.809085"><ele>38.666666666666664</ele><time>2026-04-12T11:02:10.029Z</time></trkpt><trkpt lat="43.87703" lon="12.809275"><ele>39.0</ele><time>2026-04-12T11:02:11.031Z</time></trkpt><trkpt lat="43.8771717" lon="12.8094717"><ele>39.0</ele><time>2026-04-12T11:02:12.026Z</time></trkpt><trkpt lat="43.8773067" lon="12.809675"><ele>39.0</ele><time>2026-04-12T11:02:13.028Z</time></trkpt><trkpt lat="43.877445" lon="12.8098833"><ele>39.0</ele><time>2026-04-12T11:02:14.033Z</time></trkpt><trkpt lat="43.8775817" lon="12.8100933"><ele>39.333333333333336</ele><time>2026-04-12T11:02:15.028Z</time></trkpt><trkpt lat="43.8777167" lon="12.8103083"><ele>39.66666666666667</ele><time>2026-04-12T11:02:16.031Z</time></trkpt><trkpt lat="43.8778517" lon="12.810525"><ele>40.0</ele><time>2026-04-12T11:02:17.032Z</time></trkpt><trkpt lat="43.8779817" lon="12.8107533"><ele>40.0</ele><time>2026-04-12T11:02:18.034Z</time></trkpt><trkpt lat="43.8781033" lon="12.81099"><ele>40.0</ele><time>2026-04-12T11:02:19.031Z</time></trkpt><trkpt lat="43.87822" lon="12.811235"><ele>40.0</ele><time>2026-04-12T11:02:20.028Z</time></trkpt><trkpt lat="43.87833" lon="12.8114883"><ele>39.333333333333336</ele><time>2026-04-12T11:02:21.035Z</time></trkpt><trkpt lat="43.8784317" lon="12.81175"><ele>38.666666666666664</ele><time>2026-04-12T11:02:22.032Z</time></trkpt><trkpt lat="43.8785317" lon="12.8120167"><ele>38.0</ele><time>2026-04-12T11:02:23.027Z</time></trkpt><trkpt lat="43.8786317" lon="12.8122833"><ele>38.0</ele><time>2026-04-12T11:02:24.032Z</time></trkpt><trkpt lat="43.8787317" lon="12.8125467"><ele>38.0</ele><time>2026-04-12T11:02:25.03Z</time></trkpt><trkpt lat="43.8788317" lon="12.8128083"><ele>38.0</ele><time>2026-04-12T11:02:26.032Z</time></trkpt><trkpt lat="43.87893" lon="12.81307"><ele>37.0</ele><time>2026-04-12T11:02:27.028Z</time></trkpt><trkpt lat="43.87903" lon="12.81333"><ele>36.0</ele><time>2026-04-12T11:02:28.029Z</time></trkpt><trkpt lat="43.8791317" lon="12.8135917"><ele>35.0</ele><time>2026-04-12T11:02:29.029Z</time></trkpt><trkpt lat="43.8792333" lon="12.81386"><ele>34.5</ele><time>2026-04-12T11:02:30.029Z</time></trkpt><trkpt lat="43.879345" lon="12.8141367"><ele>34.0</ele><time>2026-04-12T11:02:31.033Z</time></trkpt><trkpt lat="43.8794567" lon="12.81443"><ele>34.0</ele><time>2026-04-12T11:02:32.03Z</time></trkpt><trkpt lat="43.8795733" lon="12.814725"><ele>34.0</ele><time>2026-04-12T11:02:33.033Z</time></trkpt><trkpt lat="43.8796967" lon="12.815015"><ele>33.5</ele><time>2026-04-12T11:02:34.027Z</time></trkpt><trkpt lat="43.879805" lon="12.8153033"><ele>33.0</ele><time>2026-04-12T11:02:35.03Z</time></trkpt><trkpt lat="43.8798917" lon="12.8155967"><ele>33.0</ele><time>2026-04-12T11:02:36.03Z</time></trkpt><trkpt lat="43.8799583" lon="12.8158933"><ele>33.0</ele><time>2026-04-12T11:02:37.029Z</time></trkpt><trkpt lat="43.8800083" lon="12.81619"><ele>33.0</ele><time>2026-04-12T11:02:38.03Z</time></trkpt><trkpt lat="43.8800467" lon="12.8164867"><ele>32.666666666666664</ele><time>2026-04-12T11:02:39.032Z</time></trkpt><trkpt lat="43.8800867" lon="12.81678"><ele>32.33333333333333</ele><time>2026-04-12T11:02:40.035Z</time></trkpt><trkpt lat="43.880125" lon="12.817075"><ele>32.0</ele><time>2026-04-12T11:02:41.032Z</time></trkpt><trkpt lat="43.8801583" lon="12.817375"><ele>32.666666666666664</ele><time>2026-04-12T11:02:42.03Z</time></trkpt><trkpt lat="43.880185" lon="12.8176783"><ele>33.333333333333336</ele><time>2026-04-12T11:02:43.033Z</time></trkpt><trkpt lat="43.880205" lon="12.817985"><ele>34.0</ele><time>2026-04-12T11:02:44.027Z</time></trkpt><trkpt lat="43.8802283" lon="12.8182933"><ele>35.0</ele><time>2026-04-12T11:02:45.034Z</time></trkpt><trkpt lat="43.880255" lon="12.8186"><ele>36.0</ele><time>2026-04-12T11:02:46.032Z</time></trkpt><trkpt lat="43.88028" lon="12.8189067"><ele>37.0</ele><time>2026-04-12T11:02:47.035Z</time></trkpt><trkpt lat="43.8803067" lon="12.81921"><ele>37.0</ele><time>2026-04-12T11:02:48.034Z</time></trkpt><trkpt lat="43.8803317" lon="12.819515"><ele>37.0</ele><time>2026-04-12T11:02:49.035Z</time></trkpt><trkpt lat="43.8803567" lon="12.819815"><ele>37.0</ele><time>2026-04-12T11:02:50.031Z</time></trkpt><trkpt lat="43.880385" lon="12.8201117"><ele>37.0</ele><time>2026-04-12T11:02:51.034Z</time></trkpt><trkpt lat="43.880415" lon="12.820405"><ele>37.0</ele><time>2026-04-12T11:02:52.033Z</time></trkpt><trkpt lat="43.8804433" lon="12.8207"><ele>37.0</ele><time>2026-04-12T11:02:53.034Z</time></trkpt><trkpt lat="43.8804733" lon="12.8209933"><ele>36.0</ele><time>2026-04-12T11:02:54.032Z</time></trkpt><trkpt lat="43.880505" lon="12.8212867"><ele>35.0</ele><time>2026-04-12T11:02:55.037Z</time></trkpt><trkpt lat="43.880535" lon="12.82158"><ele>34.0</ele><time>2026-04-12T11:02:56.032Z</time></trkpt><trkpt lat="43.880565" lon="12.8218733"><ele>32.66666666666667</ele><time>2026-04-12T11:02:57.035Z</time></trkpt><trkpt lat="43.880595" lon="12.8221667"><ele>31.333333333333336</ele><time>2026-04-12T11:02:58.033Z</time></trkpt><trkpt lat="43.8806267" lon="12.8224583"><ele>30.0</ele><time>2026-04-12T11:02:59.032Z</time></trkpt><trkpt lat="43.88067" lon="12.8227483"><ele>29.0</ele><time>2026-04-12T11:03:00.031Z</time></trkpt><trkpt lat="43.8807267" lon="12.8230367"><ele>28.0</ele><time>2026-04-12T11:03:01.033Z</time></trkpt><trkpt lat="43.880805" lon="12.823315"><ele>27.0</ele><time>2026-04-12T11:03:02.035Z</time></trkpt><trkpt lat="43.8809033" lon="12.823585"><ele>26.666666666666664</ele><time>2026-04-12T11:03:03.036Z</time></trkpt><trkpt lat="43.8810133" lon="12.8238517"><ele>26.333333333333332</ele><time>2026-04-12T11:03:04.032Z</time></trkpt><trkpt lat="43.8811333" lon="12.824115"><ele>26.0</ele><time>2026-04-12T11:03:05.032Z</time></trkpt><trkpt lat="43.881255" lon="12.8243783"><ele>26.0</ele><time>2026-04-12T11:03:06.03Z</time></trkpt><trkpt lat="43.8813817" lon="12.8246417"><ele>26.0</ele><time>2026-04-12T11:03:07.034Z</time></trkpt><trkpt lat="43.8815017" lon="12.8249033"><ele>25.0</ele><time>2026-04-12T11:03:08.03Z</time></trkpt><trkpt lat="43.8816183" lon="12.8251583"><ele>24.0</ele><time>2026-04-12T11:03:09.032Z</time></trkpt><trkpt lat="43.88173" lon="12.825405"><ele>23.0</ele><time>2026-04-12T11:03:10.033Z</time></trkpt><trkpt lat="43.8818417" lon="12.82565"><ele>23.0</ele><time>2026-04-12T11:03:11.036Z</time></trkpt><trkpt lat="43.8819517" lon="12.8258933"><ele>23.0</ele><time>2026-04-12T11:03:12.033Z</time></trkpt><trkpt lat="43.8820617" lon="12.8261317"><ele>23.0</ele><time>2026-04-12T11:03:13.032Z</time></trkpt><trkpt lat="43.8821617" lon="12.8263617"><ele>23.0</ele><time>2026-04-12T11:03:14.029Z</time></trkpt><trkpt lat="43.882265" lon="12.8265867"><ele>23.0</ele><time>2026-04-12T11:03:15.028Z</time></trkpt><trkpt lat="43.88237" lon="12.8268067"><ele>23.0</ele><time>2026-04-12T11:03:16.032Z</time></trkpt><trkpt lat="43.882485" lon="12.8270133"><ele>23.0</ele><time>2026-04-12T11:03:17.032Z</time></trkpt><trkpt lat="43.882615" lon="12.8272017"><ele>23.0</ele><time>2026-04-12T11:03:18.03Z</time></trkpt><trkpt lat="43.8827633" lon="12.827375"><ele>23.0</ele><time>2026-04-12T11:03:19.028Z</time></trkpt><trkpt lat="43.8829233" lon="12.82753"><ele>22.0</ele><time>2026-04-12T11:03:20.044Z</time></trkpt><trkpt lat="43.8830967" lon="12.82767"><ele>21.0</ele><time>2026-04-12T11:03:21.03Z</time></trkpt><trkpt lat="43.883275" lon="12.8278033"><ele>20.0</ele><time>2026-04-12T11:03:22.034Z</time></trkpt><trkpt lat="43.8834583" lon="12.8279317"><ele>19.666666666666668</ele><time>2026-04-12T11:03:23.036Z</time></trkpt><trkpt lat="43.8836467" lon="12.8280583"><ele>19.333333333333332</ele><time>2026-04-12T11:03:24.028Z</time></trkpt><trkpt lat="43.883835" lon="12.82819"><ele>19.0</ele><time>2026-04-12T11:03:25.029Z</time></trkpt><trkpt lat="43.88402" lon="12.8283267"><ele>19.0</ele><time>2026-04-12T11:03:26.034Z</time></trkpt><trkpt lat="43.8842067" lon="12.8284633"><ele>19.0</ele><time>2026-04-12T11:03:27.027Z</time></trkpt><trkpt lat="43.8843933" lon="12.8285983"><ele>19.0</ele><time>2026-04-12T11:03:28.03Z</time></trkpt><trkpt lat="43.8845817" lon="12.82874"><ele>19.0</ele><time>2026-04-12T11:03:29.039Z</time></trkpt><trkpt lat="43.8847733" lon="12.8288733"><ele>19.0</ele><time>2026-04-12T11:03:30.03Z</time></trkpt><trkpt lat="43.8849683" lon="12.8290117"><ele>19.0</ele><time>2026-04-12T11:03:31.033Z</time></trkpt><trkpt lat="43.8851567" lon="12.8291533"><ele>18.666666666666664</ele><time>2026-04-12T11:03:32.028Z</time></trkpt><trkpt lat="43.8853467" lon="12.8292967"><ele>18.333333333333332</ele><time>2026-04-12T11:03:33.029Z</time></trkpt><trkpt lat="43.8855367" lon="12.8294367"><ele>18.0</ele><time>2026-04-12T11:03:34.033Z</time></trkpt><trkpt lat="43.8857233" lon="12.829575"><ele>17.666666666666668</ele><time>2026-04-12T11:03:35.03Z</time></trkpt><trkpt lat="43.8859117" lon="12.8297133"><ele>17.333333333333336</ele><time>2026-04-12T11:03:36.028Z</time></trkpt><trkpt lat="43.8860983" lon="12.8298517"><ele>17.0</ele><time>2026-04-12T11:03:37.028Z</time></trkpt><trkpt lat="43.8862867" lon="12.8299883"><ele>17.0</ele><time>2026-04-12T11:03:38.031Z</time></trkpt><trkpt lat="43.8864733" lon="12.8301233"><ele>17.0</ele><time>2026-04-12T11:03:39.028Z</time></trkpt><trkpt lat="43.8866583" lon="12.8302567"><ele>17.0</ele><time>2026-04-12T11:03:40.027Z</time></trkpt><trkpt lat="43.8868433" lon="12.830395"><ele>17.0</ele><time>2026-04-12T11:03:41.03Z</time></trkpt><trkpt lat="43.887025" lon="12.8305333"><ele>17.0</ele><time>2026-04-12T11:03:42.029Z</time></trkpt><trkpt lat="43.88721" lon="12.8306733"><ele>17.0</ele><time>2026-04-12T11:03:43.029Z</time></trkpt><trkpt lat="43.88739" lon="12.83081"><ele>17.0</ele><time>2026-04-12T11:03:44.031Z</time></trkpt><trkpt lat="43.88757" lon="12.8309383"><ele>17.0</ele><time>2026-04-12T11:03:45.032Z</time></trkpt><trkpt lat="43.8877467" lon="12.8310667"><ele>17.0</ele><time>2026-04-12T11:03:46.032Z</time></trkpt><trkpt lat="43.8879233" lon="12.8311983"><ele>16.666666666666668</ele><time>2026-04-12T11:03:47.031Z</time></trkpt><trkpt lat="43.8881" lon="12.83133"><ele>16.333333333333332</ele><time>2026-04-12T11:03:48.036Z</time></trkpt><trkpt lat="43.8882783" lon="12.8314617"><ele>16.0</ele><time>2026-04-12T11:03:49.033Z</time></trkpt><trkpt lat="43.888455" lon="12.83159"><ele>15.666666666666666</ele><time>2026-04-12T11:03:50.032Z</time></trkpt><trkpt lat="43.88863" lon="12.83172"><ele>15.333333333333332</ele><time>2026-04-12T11:03:51.028Z</time></trkpt><trkpt lat="43.8888067" lon="12.83185"><ele>15.0</ele><time>2026-04-12T11:03:52.033Z</time></trkpt><trkpt lat="43.8889867" lon="12.8319783"><ele>15.0</ele><time>2026-04-12T11:03:53.029Z</time></trkpt><trkpt lat="43.889165" lon="12.8321067"><ele>15.0</ele><time>2026-04-12T11:03:54.026Z</time></trkpt><trkpt lat="43.889345" lon="12.832235"><ele>15.0</ele><time>2026-04-12T11:03:55.03Z</time></trkpt><trkpt lat="43.8895167" lon="12.83236"><ele>15.0</ele><time>2026-04-12T11:03:56.03Z</time></trkpt><trkpt lat="43.8896783" lon="12.8324783"><ele>15.0</ele><time>2026-04-12T11:03:57.034Z</time></trkpt><trkpt lat="43.8898317" lon="12.8325917"><ele>15.0</ele><time>2026-04-12T11:03:58.033Z</time></trkpt><trkpt lat="43.8899767" lon="12.8326967"><ele>15.25</ele><time>2026-04-12T11:03:59.029Z</time></trkpt><trkpt lat="43.8901133" lon="12.8327983"><ele>15.5</ele><time>2026-04-12T11:04:00.029Z</time></trkpt><trkpt lat="43.8902433" lon="12.8328867"><ele>15.75</ele><time>2026-04-12T11:04:01.029Z</time></trkpt><trkpt lat="43.8903583" lon="12.832965"><ele>16.0</ele><time>2026-04-12T11:04:02.03Z</time></trkpt><trkpt lat="43.8904667" lon="12.83304"><ele>16.0</ele><time>2026-04-12T11:04:03.031Z</time></trkpt><trkpt lat="43.890565" lon="12.8331083"><ele>16.0</ele><time>2026-04-12T11:04:04.029Z</time></trkpt><trkpt lat="43.89065" lon="12.8331867"><ele>16.0</ele><time>2026-04-12T11:04:05.034Z</time></trkpt><trkpt lat="43.8907183" lon="12.83329"><ele>16.0</ele><time>2026-04-12T11:04:06.028Z</time></trkpt><trkpt lat="43.8907783" lon="12.8334117"><ele>16.0</ele><time>2026-04-12T11:04:07.031Z</time></trkpt><trkpt lat="43.890835" lon="12.8335333"><ele>15.8</ele><time>2026-04-12T11:04:08.028Z</time></trkpt><trkpt lat="43.8909033" lon="12.8336367"><ele>15.600000000000001</ele><time>2026-04-12T11:04:09.03Z</time></trkpt><trkpt lat="43.8909967" lon="12.8337"><ele>15.4</ele><time>2026-04-12T11:04:10.03Z</time></trkpt><trkpt lat="43.8911" lon="12.8337183"><ele>15.2</ele><time>2026-04-12T11:04:11.032Z</time></trkpt><trkpt lat="43.89121" lon="12.83371"><ele>15.0</ele><time>2026-04-12T11:04:12.031Z</time></trkpt><trkpt lat="43.8913233" lon="12.8337217"><ele>15.0</ele><time>2026-04-12T11:04:13.029Z</time></trkpt><trkpt lat="43.891435" lon="12.8337633"><ele>15.0</ele><time>2026-04-12T11:04:14.025Z</time></trkpt><trkpt lat="43.89154" lon="12.83383"><ele>15.0</ele><time>2026-04-12T11:04:15.032Z</time></trkpt><trkpt lat="43.891645" lon="12.8339017"><ele>15.0</ele><time>2026-04-12T11:04:16.028Z</time></trkpt><trkpt lat="43.8917583" lon="12.8339783"><ele>14.666666666666668</ele><time>2026-04-12T11:04:17.031Z</time></trkpt><trkpt lat="43.8918833" lon="12.8340667"><ele>14.333333333333334</ele><time>2026-04-12T11:04:18.029Z</time></trkpt><trkpt lat="43.89202" lon="12.83417"><ele>14.0</ele><time>2026-04-12T11:04:19.033Z</time></trkpt><trkpt lat="43.892165" lon="12.8342833"><ele>14.0</ele><time>2026-04-12T11:04:20.03Z</time></trkpt><trkpt lat="43.8923167" lon="12.8344067"><ele>14.0</ele><time>2026-04-12T11:04:21.03Z</time></trkpt><trkpt lat="43.8924717" lon="12.8345317"><ele>14.0</ele><time>2026-04-12T11:04:22.029Z</time></trkpt><trkpt lat="43.89263" lon="12.8346517"><ele>14.0</ele><time>2026-04-12T11:04:23.029Z</time></trkpt><trkpt lat="43.8927833" lon="12.8347617"><ele>14.0</ele><time>2026-04-12T11:04:24.03Z</time></trkpt><trkpt lat="43.89293" lon="12.8348617"><ele>14.0</ele><time>2026-04-12T11:04:25.03Z</time></trkpt><trkpt lat="43.8930667" lon="12.834965"><ele>14.0</ele><time>2026-04-12T11:04:26.028Z</time></trkpt><trkpt lat="43.8931933" lon="12.83506"><ele>14.0</ele><time>2026-04-12T11:04:27.031Z</time></trkpt><trkpt lat="43.8933183" lon="12.83515"><ele>14.0</ele><time>2026-04-12T11:04:28.03Z</time></trkpt><trkpt lat="43.8934333" lon="12.8352367"><ele>14.0</ele><time>2026-04-12T11:04:29.031Z</time></trkpt><trkpt lat="43.89353" lon="12.8353383"><ele>14.2</ele><time>2026-04-12T11:04:30.026Z</time></trkpt><trkpt lat="43.893605" lon="12.835455"><ele>14.399999999999999</ele><time>2026-04-12T11:04:31.028Z</time></trkpt><trkpt lat="43.8936533" lon="12.83558"><ele>14.6</ele><time>2026-04-12T11:04:32.031Z</time></trkpt><trkpt lat="43.8937117" lon="12.835685"><ele>14.8</ele><time>2026-04-12T11:04:33.03Z</time></trkpt><trkpt lat="43.893805" lon="12.8357517"><ele>15.0</ele><time>2026-04-12T11:04:34.03Z</time></trkpt><trkpt lat="43.893925" lon="12.8357683"><ele>15.0</ele><time>2026-04-12T11:04:35.029Z</time></trkpt><trkpt lat="43.89406" lon="12.835775"><ele>15.0</ele><time>2026-04-12T11:04:36.025Z</time></trkpt><trkpt lat="43.8942067" lon="12.835815"><ele>15.0</ele><time>2026-04-12T11:04:37.032Z</time></trkpt><trkpt lat="43.8943617" lon="12.8358967"><ele>15.0</ele><time>2026-04-12T11:04:38.027Z</time></trkpt><trkpt lat="43.8945167" lon="12.8360067"><ele>15.0</ele><time>2026-04-12T11:04:39.03Z</time></trkpt><trkpt lat="43.894675" lon="12.836125"><ele>15.0</ele><time>2026-04-12T11:04:40.029Z</time></trkpt><trkpt lat="43.8948383" lon="12.8362483"><ele>15.0</ele><time>2026-04-12T11:04:41.033Z</time></trkpt><trkpt lat="43.895" lon="12.8363683"><ele>15.0</ele><time>2026-04-12T11:04:42.029Z</time></trkpt><trkpt lat="43.89516" lon="12.8364883"><ele>15.0</ele><time>2026-04-12T11:04:43.032Z</time></trkpt><trkpt lat="43.8953167" lon="12.83661"><ele>15.333333333333332</ele><time>2026-04-12T11:04:44.031Z</time></trkpt><trkpt lat="43.8954733" lon="12.8367317"><ele>15.666666666666666</ele><time>2026-04-12T11:04:45.029Z</time></trkpt><trkpt lat="43.8956317" lon="12.8368433"><ele>16.0</ele><time>2026-04-12T11:04:46.03Z</time></trkpt><trkpt lat="43.8957867" lon="12.836955"><ele>15.333333333333332</ele><time>2026-04-12T11:04:47.026Z</time></trkpt><trkpt lat="43.8959383" lon="12.8370567"><ele>14.666666666666668</ele><time>2026-04-12T11:04:48.029Z</time></trkpt><trkpt lat="43.8960867" lon="12.8371433"><ele>14.0</ele><time>2026-04-12T11:04:49.027Z</time></trkpt><trkpt lat="43.89622" lon="12.8372217"><ele>14.0</ele><time>2026-04-12T11:04:50.029Z</time></trkpt><trkpt lat="43.8963417" lon="12.837305"><ele>14.0</ele><time>2026-04-12T11:04:51.029Z</time></trkpt><trkpt lat="43.8964383" lon="12.8374167"><ele>14.0</ele><time>2026-04-12T11:04:52.03Z</time></trkpt><trkpt lat="43.89651" lon="12.8375433"><ele>14.0</ele><time>2026-04-12T11:04:53.029Z</time></trkpt><trkpt lat="43.8965767" lon="12.8376583"><ele>14.0</ele><time>2026-04-12T11:04:54.029Z</time></trkpt><trkpt lat="43.8966583" lon="12.8377417"><ele>13.999999999999998</ele><time>2026-04-12T11:04:55.033Z</time></trkpt><trkpt lat="43.8967583" lon="12.8377883"><ele>13.999999999999998</ele><time>2026-04-12T11:04:56.024Z</time></trkpt><trkpt lat="43.8968633" lon="12.8377933"><ele>14.0</ele><time>2026-04-12T11:04:57.032Z</time></trkpt><trkpt lat="43.89697" lon="12.837775"><ele>14.0</ele><time>2026-04-12T11:04:58.031Z</time></trkpt><trkpt lat="43.897075" lon="12.83778"><ele>15.0</ele><time>2026-04-12T11:04:59.028Z</time></trkpt><trkpt lat="43.8971783" lon="12.8378283"><ele>16.0</ele><time>2026-04-12T11:05:00.026Z</time></trkpt><trkpt lat="43.89728" lon="12.83791"><ele>17.0</ele><time>2026-04-12T11:05:01.029Z</time></trkpt><trkpt lat="43.8973883" lon="12.8380117"><ele>18.0</ele><time>2026-04-12T11:05:02.024Z</time></trkpt><trkpt lat="43.897495" lon="12.8381283"><ele>17.75</ele><time>2026-04-12T11:05:03.029Z</time></trkpt><trkpt lat="43.8976067" lon="12.8382483"><ele>17.5</ele><time>2026-04-12T11:05:04.029Z</time></trkpt><trkpt lat="43.8977167" lon="12.8383783"><ele>17.25</ele><time>2026-04-12T11:05:05.032Z</time></trkpt><trkpt lat="43.8978217" lon="12.8385133"><ele>17.0</ele><time>2026-04-12T11:05:06.029Z</time></trkpt><trkpt lat="43.8979233" lon="12.83865"><ele>17.0</ele><time>2026-04-12T11:05:07.024Z</time></trkpt><trkpt lat="43.8980217" lon="12.8387783"><ele>17.0</ele><time>2026-04-12T11:05:08.026Z</time></trkpt><trkpt lat="43.8981167" lon="12.8388967"><ele>17.0</ele><time>2026-04-12T11:05:09.029Z</time></trkpt><trkpt lat="43.8982" lon="12.8390033"><ele>17.0</ele><time>2026-04-12T11:05:10.034Z</time></trkpt><trkpt lat="43.89827" lon="12.8390883"><ele>17.0</ele><time>2026-04-12T11:05:11.031Z</time></trkpt><trkpt lat="43.89833" lon="12.839155"><ele>17.0</ele><time>2026-04-12T11:05:12.03Z</time></trkpt><trkpt lat="43.8983867" lon="12.8392267"><ele>17.0</ele><time>2026-04-12T11:05:13.027Z</time></trkpt><trkpt lat="43.8984483" lon="12.839315"><ele>17.0</ele><time>2026-04-12T11:05:14.026Z</time></trkpt><trkpt lat="43.8985217" lon="12.8394233"><ele>17.0</ele><time>2026-04-12T11:05:15.029Z</time></trkpt><trkpt lat="43.8986067" lon="12.839545"><ele>17.25</ele><time>2026-04-12T11:05:16.025Z</time></trkpt><trkpt lat="43.8987" lon="12.839675"><ele>17.5</ele><time>2026-04-12T11:05:17.03Z</time></trkpt><trkpt lat="43.8988" lon="12.8398033"><ele>17.75</ele><time>2026-04-12T11:05:18.026Z</time></trkpt><trkpt lat="43.8989033" lon="12.8399383"><ele>18.0</ele><time>2026-04-12T11:05:19.029Z</time></trkpt><trkpt lat="43.8990083" lon="12.8400783"><ele>17.333333333333332</ele><time>2026-04-12T11:05:20.033Z</time></trkpt><trkpt lat="43.8991167" lon="12.8402167"><ele>16.666666666666664</ele><time>2026-04-12T11:05:21.03Z</time></trkpt><trkpt lat="43.8992267" lon="12.840355"><ele>16.0</ele><time>2026-04-12T11:05:22.03Z</time></trkpt><trkpt lat="43.8993267" lon="12.8405183"><ele>17.666666666666664</ele><time>2026-04-12T11:05:23.029Z</time></trkpt><trkpt lat="43.89942" lon="12.8406867"><ele>19.333333333333332</ele><time>2026-04-12T11:05:24.03Z</time></trkpt><trkpt lat="43.8995033" lon="12.8408717"><ele>21.0</ele><time>2026-04-12T11:05:25.03Z</time></trkpt><trkpt lat="43.89958" lon="12.84106"><ele>21.0</ele><time>2026-04-12T11:05:26.03Z</time></trkpt><trkpt lat="43.8996517" lon="12.8412583"><ele>21.0</ele><time>2026-04-12T11:05:27.027Z</time></trkpt><trkpt lat="43.8997183" lon="12.8414517"><ele>21.0</ele><time>2026-04-12T11:05:28.03Z</time></trkpt><trkpt lat="43.8997817" lon="12.84165"><ele>20.333333333333332</ele><time>2026-04-12T11:05:29.027Z</time></trkpt><trkpt lat="43.899835" lon="12.8418517"><ele>19.666666666666664</ele><time>2026-04-12T11:05:30.03Z</time></trkpt><trkpt lat="43.8998867" lon="12.842055"><ele>19.0</ele><time>2026-04-12T11:05:31.031Z</time></trkpt><trkpt lat="43.8999367" lon="12.84226"><ele>19.0</ele><time>2026-04-12T11:05:32.027Z</time></trkpt><trkpt lat="43.899985" lon="12.842465"><ele>19.0</ele><time>2026-04-12T11:05:33.031Z</time></trkpt><trkpt lat="43.900035" lon="12.8426683"><ele>19.0</ele><time>2026-04-12T11:05:34.026Z</time></trkpt><trkpt lat="43.900085" lon="12.8428733"><ele>19.666666666666664</ele><time>2026-04-12T11:05:35.03Z</time></trkpt><trkpt lat="43.900135" lon="12.84308"><ele>20.333333333333332</ele><time>2026-04-12T11:05:36.029Z</time></trkpt><trkpt lat="43.9001817" lon="12.8432867"><ele>21.0</ele><time>2026-04-12T11:05:37.029Z</time></trkpt><trkpt lat="43.90023" lon="12.8434933"><ele>21.0</ele><time>2026-04-12T11:05:38.026Z</time></trkpt><trkpt lat="43.900275" lon="12.8437033"><ele>21.0</ele><time>2026-04-12T11:05:39.032Z</time></trkpt><trkpt lat="43.9003167" lon="12.8439183"><ele>21.0</ele><time>2026-04-12T11:05:40.032Z</time></trkpt><trkpt lat="43.9003533" lon="12.8441367"><ele>20.333333333333332</ele><time>2026-04-12T11:05:41.029Z</time></trkpt><trkpt lat="43.9003867" lon="12.8443583"><ele>19.666666666666664</ele><time>2026-04-12T11:05:42.031Z</time></trkpt><trkpt lat="43.9004117" lon="12.84458"><ele>19.0</ele><time>2026-04-12T11:05:43.03Z</time></trkpt><trkpt lat="43.9004367" lon="12.8448017"><ele>19.0</ele><time>2026-04-12T11:05:44.03Z</time></trkpt><trkpt lat="43.9004617" lon="12.8450217"><ele>19.0</ele><time>2026-04-12T11:05:45.033Z</time></trkpt><trkpt lat="43.9004917" lon="12.8452367"><ele>19.0</ele><time>2026-04-12T11:05:46.031Z</time></trkpt><trkpt lat="43.9005233" lon="12.8454533"><ele>18.666666666666664</ele><time>2026-04-12T11:05:47.027Z</time></trkpt><trkpt lat="43.9005583" lon="12.8456717"><ele>18.333333333333332</ele><time>2026-04-12T11:05:48.033Z</time></trkpt><trkpt lat="43.9005917" lon="12.84589"><ele>18.0</ele><time>2026-04-12T11:05:49.028Z</time></trkpt><trkpt lat="43.9006233" lon="12.84611"><ele>18.0</ele><time>2026-04-12T11:05:50.032Z</time></trkpt><trkpt lat="43.9006617" lon="12.8463267"><ele>18.0</ele><time>2026-04-12T11:05:51.031Z</time></trkpt><trkpt lat="43.9007" lon="12.846545"><ele>18.0</ele><time>2026-04-12T11:05:52.03Z</time></trkpt><trkpt lat="43.9007433" lon="12.8467617"><ele>17.666666666666668</ele><time>2026-04-12T11:05:53.026Z</time></trkpt><trkpt lat="43.9007917" lon="12.8469767"><ele>17.333333333333336</ele><time>2026-04-12T11:05:54.025Z</time></trkpt><trkpt lat="43.9008417" lon="12.8471933"><ele>17.0</ele><time>2026-04-12T11:05:55.028Z</time></trkpt><trkpt lat="43.9008933" lon="12.8474033"><ele>19.333333333333336</ele><time>2026-04-12T11:05:56.03Z</time></trkpt><trkpt lat="43.9009417" lon="12.8476117"><ele>21.666666666666668</ele><time>2026-04-12T11:05:57.028Z</time></trkpt><trkpt lat="43.9009917" lon="12.8478183"><ele>24.0</ele><time>2026-04-12T11:05:58.031Z</time></trkpt><trkpt lat="43.9010433" lon="12.84802"><ele>24.0</ele><time>2026-04-12T11:05:59.027Z</time></trkpt><trkpt lat="43.9010983" lon="12.8482217"><ele>24.0</ele><time>2026-04-12T11:06:00.027Z</time></trkpt><trkpt lat="43.9011467" lon="12.84842"><ele>24.0</ele><time>2026-04-12T11:06:01.028Z</time></trkpt><trkpt lat="43.9011983" lon="12.84861"><ele>23.0</ele><time>2026-04-12T11:06:02.027Z</time></trkpt><trkpt lat="43.9012467" lon="12.8487983"><ele>22.0</ele><time>2026-04-12T11:06:03.031Z</time></trkpt><trkpt lat="43.901295" lon="12.8489883"><ele>21.0</ele><time>2026-04-12T11:06:04.034Z</time></trkpt><trkpt lat="43.9013383" lon="12.849185"><ele>20.0</ele><time>2026-04-12T11:06:05.026Z</time></trkpt><trkpt lat="43.9013933" lon="12.8493683"><ele>20.0</ele><time>2026-04-12T11:06:06.03Z</time></trkpt><trkpt lat="43.9014417" lon="12.8495433"><ele>20.0</ele><time>2026-04-12T11:06:07.027Z</time></trkpt><trkpt lat="43.9014933" lon="12.8497133"><ele>20.0</ele><time>2026-04-12T11:06:08.028Z</time></trkpt><trkpt lat="43.9015467" lon="12.8498817"><ele>20.0</ele><time>2026-04-12T11:06:09.029Z</time></trkpt><trkpt lat="43.901605" lon="12.8500467"><ele>19.75</ele><time>2026-04-12T11:06:10.031Z</time></trkpt><trkpt lat="43.9016617" lon="12.8501983"><ele>19.5</ele><time>2026-04-12T11:06:11.032Z</time></trkpt><trkpt lat="43.90172" lon="12.850345"><ele>19.25</ele><time>2026-04-12T11:06:12.031Z</time></trkpt><trkpt lat="43.9017633" lon="12.8505083"><ele>19.0</ele><time>2026-04-12T11:06:13.029Z</time></trkpt><trkpt lat="43.9017983" lon="12.8506833"><ele>21.5</ele><time>2026-04-12T11:06:14.029Z</time></trkpt><trkpt lat="43.90184" lon="12.8508633"><ele>24.0</ele><time>2026-04-12T11:06:15.03Z</time></trkpt><trkpt lat="43.901885" lon="12.8510433"><ele>26.5</ele><time>2026-04-12T11:06:16.033Z</time></trkpt><trkpt lat="43.9019333" lon="12.8512233"><ele>29.0</ele><time>2026-04-12T11:06:17.027Z</time></trkpt><trkpt lat="43.9019767" lon="12.8514083"><ele>29.0</ele><time>2026-04-12T11:06:18.033Z</time></trkpt><trkpt lat="43.90202" lon="12.8515983"><ele>29.0</ele><time>2026-04-12T11:06:19.029Z</time></trkpt><trkpt lat="43.902065" lon="12.8517933"><ele>29.0</ele><time>2026-04-12T11:06:20.031Z</time></trkpt><trkpt lat="43.9021117" lon="12.8519933"><ele>29.0</ele><time>2026-04-12T11:06:21.025Z</time></trkpt><trkpt lat="43.9021633" lon="12.8521967"><ele>26.666666666666664</ele><time>2026-04-12T11:06:22.03Z</time></trkpt><trkpt lat="43.9022117" lon="12.8524"><ele>24.333333333333332</ele><time>2026-04-12T11:06:23.029Z</time></trkpt><trkpt lat="43.9022667" lon="12.8526017"><ele>22.0</ele><time>2026-04-12T11:06:24.033Z</time></trkpt><trkpt lat="43.9023233" lon="12.8528033"><ele>20.333333333333332</ele><time>2026-04-12T11:06:25.032Z</time></trkpt><trkpt lat="43.9023817" lon="12.85301"><ele>18.666666666666668</ele><time>2026-04-12T11:06:26.031Z</time></trkpt><trkpt lat="43.9024383" lon="12.85322"><ele>17.0</ele><time>2026-04-12T11:06:27.03Z</time></trkpt><trkpt lat="43.9024967" lon="12.85343"><ele>17.0</ele><time>2026-04-12T11:06:28.026Z</time></trkpt><trkpt lat="43.9025583" lon="12.8536417"><ele>17.0</ele><time>2026-04-12T11:06:29.03Z</time></trkpt><trkpt lat="43.9026367" lon="12.85385"><ele>17.0</ele><time>2026-04-12T11:06:30.032Z</time></trkpt><trkpt lat="43.9027267" lon="12.85405"><ele>17.0</ele><time>2026-04-12T11:06:31.032Z</time></trkpt><trkpt lat="43.902825" lon="12.85424"><ele>17.0</ele><time>2026-04-12T11:06:32.032Z</time></trkpt><trkpt lat="43.90293" lon="12.8544233"><ele>17.0</ele><time>2026-04-12T11:06:33.028Z</time></trkpt><trkpt lat="43.9030433" lon="12.8545983"><ele>17.0</ele><time>2026-04-12T11:06:34.031Z</time></trkpt><trkpt lat="43.903165" lon="12.854765"><ele>17.0</ele><time>2026-04-12T11:06:35.031Z</time></trkpt><trkpt lat="43.9032933" lon="12.8549233"><ele>17.0</ele><time>2026-04-12T11:06:36.033Z</time></trkpt><trkpt lat="43.9034217" lon="12.85508"><ele>17.666666666666668</ele><time>2026-04-12T11:06:37.032Z</time></trkpt><trkpt lat="43.9035617" lon="12.85523"><ele>18.333333333333332</ele><time>2026-04-12T11:06:38.03Z</time></trkpt><trkpt lat="43.9037" lon="12.8553817"><ele>19.0</ele><time>2026-04-12T11:06:39.026Z</time></trkpt><trkpt lat="43.9038333" lon="12.8555367"><ele>19.0</ele><time>2026-04-12T11:06:40.027Z</time></trkpt><trkpt lat="43.903965" lon="12.8556883"><ele>19.0</ele><time>2026-04-12T11:06:41.032Z</time></trkpt><trkpt lat="43.9040833" lon="12.8558483"><ele>19.0</ele><time>2026-04-12T11:06:42.031Z</time></trkpt><trkpt lat="43.9041967" lon="12.856015"><ele>18.666666666666664</ele><time>2026-04-12T11:06:43.032Z</time></trkpt><trkpt lat="43.904305" lon="12.856195"><ele>18.333333333333332</ele><time>2026-04-12T11:06:44.031Z</time></trkpt><trkpt lat="43.904405" lon="12.856385"><ele>18.0</ele><time>2026-04-12T11:06:45.032Z</time></trkpt><trkpt lat="43.9045" lon="12.8565833"><ele>17.0</ele><time>2026-04-12T11:06:46.033Z</time></trkpt><trkpt lat="43.9045783" lon="12.856795"><ele>16.0</ele><time>2026-04-12T11:06:47.027Z</time></trkpt><trkpt lat="43.904645" lon="12.857015"><ele>15.0</ele><time>2026-04-12T11:06:48.028Z</time></trkpt><trkpt lat="43.9047033" lon="12.8572383"><ele>15.0</ele><time>2026-04-12T11:06:49.027Z</time></trkpt><trkpt lat="43.90476" lon="12.8574617"><ele>15.0</ele><time>2026-04-12T11:06:50.031Z</time></trkpt><trkpt lat="43.9048183" lon="12.857685"><ele>15.0</ele><time>2026-04-12T11:06:51.029Z</time></trkpt><trkpt lat="43.9048717" lon="12.85791"><ele>15.0</ele><time>2026-04-12T11:06:52.03Z</time></trkpt><trkpt lat="43.904925" lon="12.8581333"><ele>15.0</ele><time>2026-04-12T11:06:53.032Z</time></trkpt><trkpt lat="43.90498" lon="12.8583567"><ele>15.0</ele><time>2026-04-12T11:06:54.033Z</time></trkpt><trkpt lat="43.905045" lon="12.8585767"><ele>15.333333333333332</ele><time>2026-04-12T11:06:55.033Z</time></trkpt><trkpt lat="43.9051267" lon="12.85879"><ele>15.666666666666666</ele><time>2026-04-12T11:06:56.031Z</time></trkpt><trkpt lat="43.9052183" lon="12.8590017"><ele>16.0</ele><time>2026-04-12T11:06:57.029Z</time></trkpt><trkpt lat="43.9053167" lon="12.85921"><ele>15.666666666666666</ele><time>2026-04-12T11:06:58.025Z</time></trkpt><trkpt lat="43.9054217" lon="12.8594167"><ele>15.333333333333332</ele><time>2026-04-12T11:06:59.036Z</time></trkpt><trkpt lat="43.9055283" lon="12.8596117"><ele>15.0</ele><time>2026-04-12T11:07:00.027Z</time></trkpt><trkpt lat="43.9056317" lon="12.8597967"><ele>15.0</ele><time>2026-04-12T11:07:01.031Z</time></trkpt><trkpt lat="43.9057367" lon="12.8599717"><ele>15.0</ele><time>2026-04-12T11:07:02.029Z</time></trkpt><trkpt lat="43.9058367" lon="12.8601333"><ele>15.0</ele><time>2026-04-12T11:07:03.029Z</time></trkpt><trkpt lat="43.90593" lon="12.8602867"><ele>16.5</ele><time>2026-04-12T11:07:04.029Z</time></trkpt><trkpt lat="43.906015" lon="12.86043"><ele>18.0</ele><time>2026-04-12T11:07:05.033Z</time></trkpt><trkpt lat="43.9060933" lon="12.860565"><ele>19.5</ele><time>2026-04-12T11:07:06.027Z</time></trkpt><trkpt lat="43.9061583" lon="12.8606917"><ele>21.0</ele><time>2026-04-12T11:07:07.027Z</time></trkpt><trkpt lat="43.9062033" lon="12.86082"><ele>19.8</ele><time>2026-04-12T11:07:08.031Z</time></trkpt><trkpt lat="43.9062233" lon="12.8609617"><ele>18.6</ele><time>2026-04-12T11:07:09.033Z</time></trkpt><trkpt lat="43.9062317" lon="12.8611117"><ele>17.4</ele><time>2026-04-12T11:07:10.03Z</time></trkpt><trkpt lat="43.906245" lon="12.86125"><ele>16.2</ele><time>2026-04-12T11:07:11.028Z</time></trkpt><trkpt lat="43.9062867" lon="12.86136"><ele>15.0</ele><time>2026-04-12T11:07:12.027Z</time></trkpt><trkpt lat="43.9063467" lon="12.8614467"><ele>15.0</ele><time>2026-04-12T11:07:13.026Z</time></trkpt><trkpt lat="43.9064583" lon="12.8614733"><ele>15.0</ele><time>2026-04-12T11:07:14.032Z</time></trkpt><trkpt lat="43.9065767" lon="12.8615033"><ele>15.0</ele><time>2026-04-12T11:07:15.027Z</time></trkpt><trkpt lat="43.9067067" lon="12.8615667"><ele>15.0</ele><time>2026-04-12T11:07:16.034Z</time></trkpt><trkpt lat="43.9068483" lon="12.8616883"><ele>17.0</ele><time>2026-04-12T11:07:17.028Z</time></trkpt><trkpt lat="43.9069817" lon="12.86188"><ele>19.0</ele><time>2026-04-12T11:07:18.033Z</time></trkpt><trkpt lat="43.9071117" lon="12.8621217"><ele>21.0</ele><time>2026-04-12T11:07:19.026Z</time></trkpt><trkpt lat="43.9072333" lon="12.86239"><ele>19.0</ele><time>2026-04-12T11:07:20.027Z</time></trkpt><trkpt lat="43.9073467" lon="12.8626833"><ele>17.0</ele><time>2026-04-12T11:07:21.028Z</time></trkpt><trkpt lat="43.9074533" lon="12.8629933"><ele>17.0</ele><time>2026-04-12T11:07:22.032Z</time></trkpt><trkpt lat="43.9075567" lon="12.863315"><ele>17.0</ele><time>2026-04-12T11:07:23.028Z</time></trkpt><trkpt lat="43.907665" lon="12.863645"><ele>22.0</ele><time>2026-04-12T11:07:24.028Z</time></trkpt><trkpt lat="43.9077717" lon="12.8639683"><ele>27.0</ele><time>2026-04-12T11:07:25.027Z</time></trkpt><trkpt lat="43.907865" lon="12.8642817"><ele>27.0</ele><time>2026-04-12T11:07:26.033Z</time></trkpt><trkpt lat="43.9079533" lon="12.8645733"><ele>27.0</ele><time>2026-04-12T11:07:27.034Z</time></trkpt><trkpt lat="43.9080267" lon="12.8648517"><ele>27.0</ele><time>2026-04-12T11:07:28.029Z</time></trkpt><trkpt lat="43.9080917" lon="12.86513"><ele>26.666666666666664</ele><time>2026-04-12T11:07:29.028Z</time></trkpt><trkpt lat="43.9081333" lon="12.865415"><ele>26.333333333333332</ele><time>2026-04-12T11:07:30.03Z</time></trkpt><trkpt lat="43.9081517" lon="12.8657133"><ele>26.0</ele><time>2026-04-12T11:07:31.03Z</time></trkpt><trkpt lat="43.9081533" lon="12.86602"><ele>25.666666666666664</ele><time>2026-04-12T11:07:32.031Z</time></trkpt><trkpt lat="43.90815" lon="12.86633"><ele>25.333333333333336</ele><time>2026-04-12T11:07:33.031Z</time></trkpt><trkpt lat="43.9081383" lon="12.8666333"><ele>25.0</ele><time>2026-04-12T11:07:34.034Z</time></trkpt><trkpt lat="43.9081317" lon="12.8669217"><ele>25.0</ele><time>2026-04-12T11:07:35.031Z</time></trkpt><trkpt lat="43.9081333" lon="12.8671917"><ele>25.0</ele><time>2026-04-12T11:07:36.033Z</time></trkpt><trkpt lat="43.90814" lon="12.8674433"><ele>25.0</ele><time>2026-04-12T11:07:37.024Z</time></trkpt><trkpt lat="43.908165" lon="12.8676717"><ele>23.5</ele><time>2026-04-12T11:07:38.034Z</time></trkpt><trkpt lat="43.908195" lon="12.8678833"><ele>22.0</ele><time>2026-04-12T11:07:39.035Z</time></trkpt><trkpt lat="43.9082417" lon="12.8680733"><ele>20.5</ele><time>2026-04-12T11:07:40.034Z</time></trkpt><trkpt lat="43.90829" lon="12.8682433"><ele>19.0</ele><time>2026-04-12T11:07:41.031Z</time></trkpt><trkpt lat="43.9083333" lon="12.8683783"><ele>18.2</ele><time>2026-04-12T11:07:42.032Z</time></trkpt><trkpt lat="43.9083617" lon="12.8684733"><ele>17.4</ele><time>2026-04-12T11:07:43.027Z</time></trkpt><trkpt lat="43.9083883" lon="12.868605"><ele>16.6</ele><time>2026-04-12T11:07:45.027Z</time></trkpt><trkpt lat="43.908425" lon="12.8687283"><ele>15.8</ele><time>2026-04-12T11:07:47.031Z</time></trkpt><trkpt lat="43.9084933" lon="12.8688617"><ele>15.0</ele><time>2026-04-12T11:07:49.033Z</time></trkpt><trkpt lat="43.9085483" lon="12.86896"><ele>15.0</ele><time>2026-04-12T11:07:50.029Z</time></trkpt><trkpt lat="43.9086333" lon="12.8691033"><ele>15.0</ele><time>2026-04-12T11:07:51.029Z</time></trkpt><trkpt lat="43.9087117" lon="12.8692817"><ele>15.0</ele><time>2026-04-12T11:07:52.027Z</time></trkpt><trkpt lat="43.908785" lon="12.8694967"><ele>15.0</ele><time>2026-04-12T11:07:53.031Z</time></trkpt><trkpt lat="43.90886" lon="12.869735"><ele>15.0</ele><time>2026-04-12T11:07:54.032Z</time></trkpt><trkpt lat="43.9089433" lon="12.8699917"><ele>15.0</ele><time>2026-04-12T11:07:55.027Z</time></trkpt><trkpt lat="43.909035" lon="12.8702717"><ele>16.0</ele><time>2026-04-12T11:07:56.035Z</time></trkpt><trkpt lat="43.9091267" lon="12.87057"><ele>17.0</ele><time>2026-04-12T11:07:57.035Z</time></trkpt><trkpt lat="43.9092067" lon="12.8708567"><ele>15.666666666666668</ele><time>2026-04-12T11:07:58.037Z</time></trkpt><trkpt lat="43.9092833" lon="12.87112"><ele>14.333333333333332</ele><time>2026-04-12T11:07:59.028Z</time></trkpt><trkpt lat="43.9093633" lon="12.8713533"><ele>13.0</ele><time>2026-04-12T11:08:00.03Z</time></trkpt><trkpt lat="43.90947" lon="12.8715483"><ele>13.0</ele><time>2026-04-12T11:08:01.034Z</time></trkpt><trkpt lat="43.90958" lon="12.8717233"><ele>13.0</ele><time>2026-04-12T11:08:02.033Z</time></trkpt><trkpt lat="43.909695" lon="12.87189"><ele>13.0</ele><time>2026-04-12T11:08:03.03Z</time></trkpt><trkpt lat="43.909795" lon="12.8720783"><ele>13.0</ele><time>2026-04-12T11:08:04.028Z</time></trkpt><trkpt lat="43.9098683" lon="12.872295"><ele>13.0</ele><time>2026-04-12T11:08:05.029Z</time></trkpt><trkpt lat="43.909915" lon="12.8725383"><ele>13.0</ele><time>2026-04-12T11:08:06.03Z</time></trkpt><trkpt lat="43.90994" lon="12.8727967"><ele>13.0</ele><time>2026-04-12T11:08:07.041Z</time></trkpt><trkpt lat="43.90996" lon="12.8730567"><ele>13.0</ele><time>2026-04-12T11:08:08.029Z</time></trkpt><trkpt lat="43.9099867" lon="12.8733133"><ele>13.0</ele><time>2026-04-12T11:08:09.03Z</time></trkpt><trkpt lat="43.9100117" lon="12.87356"><ele>13.333333333333332</ele><time>2026-04-12T11:08:10.031Z</time></trkpt><trkpt lat="43.9100333" lon="12.8738017"><ele>13.666666666666668</ele><time>2026-04-12T11:08:11.03Z</time></trkpt><trkpt lat="43.9100583" lon="12.8740433"><ele>14.0</ele><time>2026-04-12T11:08:12.029Z</time></trkpt><trkpt lat="43.9100817" lon="12.8742867"><ele>14.0</ele><time>2026-04-12T11:08:13.029Z</time></trkpt><trkpt lat="43.9101067" lon="12.8745233"><ele>14.0</ele><time>2026-04-12T11:08:14.03Z</time></trkpt><trkpt lat="43.91013" lon="12.8747417"><ele>14.0</ele><time>2026-04-12T11:08:15.03Z</time></trkpt><trkpt lat="43.9101733" lon="12.8749367"><ele>14.25</ele><time>2026-04-12T11:08:16.028Z</time></trkpt><trkpt lat="43.9102317" lon="12.8751067"><ele>14.5</ele><time>2026-04-12T11:08:17.031Z</time></trkpt><trkpt lat="43.9103083" lon="12.8752467"><ele>14.75</ele><time>2026-04-12T11:08:18.035Z</time></trkpt><trkpt lat="43.910375" lon="12.8753683"><ele>15.0</ele><time>2026-04-12T11:08:19.029Z</time></trkpt><trkpt lat="43.9104333" lon="12.8754817"><ele>15.0</ele><time>2026-04-12T11:08:20.028Z</time></trkpt><trkpt lat="43.9104817" lon="12.8755817"><ele>15.0</ele><time>2026-04-12T11:08:21.03Z</time></trkpt><trkpt lat="43.91053" lon="12.8756567"><ele>15.0</ele><time>2026-04-12T11:08:22.029Z</time></trkpt><trkpt lat="43.9106183" lon="12.8757367"><ele>15.0</ele><time>2026-04-12T11:08:24.032Z</time></trkpt><trkpt lat="43.9106683" lon="12.8756617"><ele>15.0</ele><time>2026-04-12T11:08:25.025Z</time></trkpt><trkpt lat="43.9107133" lon="12.8755733"><ele>15.0</ele><time>2026-04-12T11:08:26.026Z</time></trkpt><trkpt lat="43.9107483" lon="12.8754283"><ele>15.0</ele><time>2026-04-12T11:08:27.026Z</time></trkpt><trkpt lat="43.91079" lon="12.8752483"><ele>15.0</ele><time>2026-04-12T11:08:28.026Z</time></trkpt><trkpt lat="43.9108333" lon="12.8750517"><ele>15.0</ele><time>2026-04-12T11:08:29.023Z</time></trkpt><trkpt lat="43.910875" lon="12.874855"><ele>15.0</ele><time>2026-04-12T11:08:30.027Z</time></trkpt><trkpt lat="43.9109183" lon="12.87465"><ele>17.666666666666668</ele><time>2026-04-12T11:08:31.026Z</time></trkpt><trkpt lat="43.910965" lon="12.8744417"><ele>20.333333333333336</ele><time>2026-04-12T11:08:32.03Z</time></trkpt><trkpt lat="43.911015" lon="12.8742333"><ele>23.0</ele><time>2026-04-12T11:08:33.03Z</time></trkpt><trkpt lat="43.9110817" lon="12.8740217"><ele>23.0</ele><time>2026-04-12T11:08:34.033Z</time></trkpt><trkpt lat="43.91117" lon="12.8738133"><ele>23.0</ele><time>2026-04-12T11:08:35.026Z</time></trkpt><trkpt lat="43.91128" lon="12.8736017"><ele>23.0</ele><time>2026-04-12T11:08:36.029Z</time></trkpt><trkpt lat="43.9114033" lon="12.873375"><ele>22.0</ele><time>2026-04-12T11:08:37.034Z</time></trkpt><trkpt lat="43.9115383" lon="12.873135"><ele>21.0</ele><time>2026-04-12T11:08:38.028Z</time></trkpt><trkpt lat="43.911685" lon="12.8728933"><ele>20.0</ele><time>2026-04-12T11:08:39.034Z</time></trkpt><trkpt lat="43.9118267" lon="12.8726433"><ele>24.0</ele><time>2026-04-12T11:08:40.04Z</time></trkpt><trkpt lat="43.911965" lon="12.8723783"><ele>28.0</ele><time>2026-04-12T11:08:41.029Z</time></trkpt><trkpt lat="43.9121017" lon="12.8721117"><ele>28.0</ele><time>2026-04-12T11:08:42.03Z</time></trkpt><trkpt lat="43.9122383" lon="12.871845"><ele>28.0</ele><time>2026-04-12T11:08:43.032Z</time></trkpt><trkpt lat="43.912375" lon="12.8715767"><ele>27.0</ele><time>2026-04-12T11:08:44.035Z</time></trkpt><trkpt lat="43.91251" lon="12.87131"><ele>26.0</ele><time>2026-04-12T11:08:45.029Z</time></trkpt><trkpt lat="43.9126383" lon="12.8710533"><ele>30.333333333333332</ele><time>2026-04-12T11:08:46.028Z</time></trkpt><trkpt lat="43.9127583" lon="12.8708117"><ele>34.666666666666664</ele><time>2026-04-12T11:08:47.028Z</time></trkpt><trkpt lat="43.91287" lon="12.8705883"><ele>39.0</ele><time>2026-04-12T11:08:48.03Z</time></trkpt><trkpt lat="43.9129683" lon="12.870395"><ele>39.0</ele><time>2026-04-12T11:08:49.029Z</time></trkpt><trkpt lat="43.9130533" lon="12.8702183"><ele>39.0</ele><time>2026-04-12T11:08:50.032Z</time></trkpt><trkpt lat="43.913125" lon="12.8700567"><ele>39.0</ele><time>2026-04-12T11:08:51.031Z</time></trkpt><trkpt lat="43.9131783" lon="12.8699083"><ele>39.0</ele><time>2026-04-12T11:08:52.032Z</time></trkpt><trkpt lat="43.9132167" lon="12.86977"><ele>37.8</ele><time>2026-04-12T11:08:53.03Z</time></trkpt><trkpt lat="43.91326" lon="12.8696483"><ele>36.599999999999994</ele><time>2026-04-12T11:08:54.029Z</time></trkpt><trkpt lat="43.9133183" lon="12.869535"><ele>35.4</ele><time>2026-04-12T11:08:55.026Z</time></trkpt><trkpt lat="43.9133867" lon="12.869415"><ele>34.199999999999996</ele><time>2026-04-12T11:08:56.029Z</time></trkpt><trkpt lat="43.9134683" lon="12.8692717"><ele>33.0</ele><time>2026-04-12T11:08:57.027Z</time></trkpt><trkpt lat="43.9135533" lon="12.8691"><ele>32.666666666666664</ele><time>2026-04-12T11:08:58.028Z</time></trkpt><trkpt lat="43.9136483" lon="12.8689033"><ele>32.33333333333333</ele><time>2026-04-12T11:08:59.03Z</time></trkpt><trkpt lat="43.91375" lon="12.8686933"><ele>32.0</ele><time>2026-04-12T11:09:00.037Z</time></trkpt><trkpt lat="43.9138567" lon="12.86847"><ele>30.666666666666664</ele><time>2026-04-12T11:09:01.024Z</time></trkpt><trkpt lat="43.913965" lon="12.8682333"><ele>29.333333333333336</ele><time>2026-04-12T11:09:02.028Z</time></trkpt><trkpt lat="43.91408" lon="12.8679867"><ele>28.0</ele><time>2026-04-12T11:09:03.029Z</time></trkpt><trkpt lat="43.9141983" lon="12.867725"><ele>31.0</ele><time>2026-04-12T11:09:04.029Z</time></trkpt><trkpt lat="43.9143183" lon="12.8674583"><ele>34.0</ele><time>2026-04-12T11:09:05.029Z</time></trkpt><trkpt lat="43.9144367" lon="12.867185"><ele>34.0</ele><time>2026-04-12T11:09:06.025Z</time></trkpt><trkpt lat="43.914555" lon="12.8669117"><ele>34.0</ele><time>2026-04-12T11:09:07.03Z</time></trkpt><trkpt lat="43.914675" lon="12.8666333"><ele>32.5</ele><time>2026-04-12T11:09:08.029Z</time></trkpt><trkpt lat="43.9147983" lon="12.8663533"><ele>31.0</ele><time>2026-04-12T11:09:09.032Z</time></trkpt><trkpt lat="43.914925" lon="12.8660717"><ele>29.0</ele><time>2026-04-12T11:09:10.033Z</time></trkpt><trkpt lat="43.915055" lon="12.8657867"><ele>27.0</ele><time>2026-04-12T11:09:11.03Z</time></trkpt><trkpt lat="43.915185" lon="12.8654983"><ele>30.0</ele><time>2026-04-12T11:09:12.029Z</time></trkpt><trkpt lat="43.9153183" lon="12.86521"><ele>33.0</ele><time>2026-04-12T11:09:13.024Z</time></trkpt><trkpt lat="43.915465" lon="12.8649317"><ele>33.0</ele><time>2026-04-12T11:09:14.028Z</time></trkpt><trkpt lat="43.9156233" lon="12.8646633"><ele>33.0</ele><time>2026-04-12T11:09:15.029Z</time></trkpt><trkpt lat="43.9158017" lon="12.8644117"><ele>34.0</ele><time>2026-04-12T11:09:16.03Z</time></trkpt><trkpt lat="43.9159917" lon="12.86418"><ele>35.0</ele><time>2026-04-12T11:09:17.03Z</time></trkpt><trkpt lat="43.9161833" lon="12.8639583"><ele>35.0</ele><time>2026-04-12T11:09:18.034Z</time></trkpt><trkpt lat="43.9163717" lon="12.8637317"><ele>35.0</ele><time>2026-04-12T11:09:19.033Z</time></trkpt><trkpt lat="43.9165483" lon="12.8634883"><ele>35.0</ele><time>2026-04-12T11:09:20.031Z</time></trkpt><trkpt lat="43.9167133" lon="12.8632433"><ele>35.0</ele><time>2026-04-12T11:09:21.029Z</time></trkpt><trkpt lat="43.91686" lon="12.863005"><ele>35.0</ele><time>2026-04-12T11:09:22.026Z</time></trkpt><trkpt lat="43.9169933" lon="12.8627883"><ele>35.0</ele><time>2026-04-12T11:09:23.034Z</time></trkpt><trkpt lat="43.9171167" lon="12.862595"><ele>35.0</ele><time>2026-04-12T11:09:24.029Z</time></trkpt><trkpt lat="43.9172267" lon="12.8624217"><ele>34.0</ele><time>2026-04-12T11:09:25.032Z</time></trkpt><trkpt lat="43.9173283" lon="12.8622667"><ele>33.0</ele><time>2026-04-12T11:09:26.031Z</time></trkpt><trkpt lat="43.91743" lon="12.8621133"><ele>32.0</ele><time>2026-04-12T11:09:27.03Z</time></trkpt><trkpt lat="43.9175467" lon="12.8619483"><ele>34.0</ele><time>2026-04-12T11:09:28.029Z</time></trkpt><trkpt lat="43.91768" lon="12.8617733"><ele>36.0</ele><time>2026-04-12T11:09:29.032Z</time></trkpt><trkpt lat="43.91783" lon="12.8615867"><ele>38.0</ele><time>2026-04-12T11:09:30.029Z</time></trkpt><trkpt lat="43.9179933" lon="12.8614"><ele>38.0</ele><time>2026-04-12T11:09:31.03Z</time></trkpt><trkpt lat="43.9181517" lon="12.8612217"><ele>38.0</ele><time>2026-04-12T11:09:32.03Z</time></trkpt><trkpt lat="43.9183" lon="12.8610533"><ele>38.0</ele><time>2026-04-12T11:09:33.03Z</time></trkpt><trkpt lat="43.918445" lon="12.8608917"><ele>38.666666666666664</ele><time>2026-04-12T11:09:34.03Z</time></trkpt><trkpt lat="43.9185933" lon="12.8607267"><ele>39.333333333333336</ele><time>2026-04-12T11:09:35.033Z</time></trkpt><trkpt lat="43.918745" lon="12.860555"><ele>40.0</ele><time>2026-04-12T11:09:36.028Z</time></trkpt><trkpt lat="43.91889" lon="12.860395"><ele>40.0</ele><time>2026-04-12T11:09:37.03Z</time></trkpt><trkpt lat="43.9190167" lon="12.8602533"><ele>40.0</ele><time>2026-04-12T11:09:38.034Z</time></trkpt><trkpt lat="43.9191317" lon="12.8601217"><ele>40.0</ele><time>2026-04-12T11:09:39.028Z</time></trkpt><trkpt lat="43.919255" lon="12.8599817"><ele>39.333333333333336</ele><time>2026-04-12T11:09:40.029Z</time></trkpt><trkpt lat="43.9193883" lon="12.85983"><ele>38.666666666666664</ele><time>2026-04-12T11:09:41.031Z</time></trkpt><trkpt lat="43.9195383" lon="12.8596667"><ele>38.0</ele><time>2026-04-12T11:09:42.029Z</time></trkpt><trkpt lat="43.9197017" lon="12.85949"><ele>38.0</ele><time>2026-04-12T11:09:43.032Z</time></trkpt><trkpt lat="43.919875" lon="12.8593067"><ele>38.0</ele><time>2026-04-12T11:09:44.027Z</time></trkpt><trkpt lat="43.92006" lon="12.8591167"><ele>38.0</ele><time>2026-04-12T11:09:45.027Z</time></trkpt><trkpt lat="43.9202567" lon="12.8589217"><ele>38.0</ele><time>2026-04-12T11:09:46.03Z</time></trkpt><trkpt lat="43.9204633" lon="12.8587233"><ele>38.0</ele><time>2026-04-12T11:09:47.026Z</time></trkpt><trkpt lat="43.920675" lon="12.8585183"><ele>38.0</ele><time>2026-04-12T11:09:48.031Z</time></trkpt><trkpt lat="43.9208817" lon="12.8583167"><ele>38.0</ele><time>2026-04-12T11:09:49.031Z</time></trkpt><trkpt lat="43.9210783" lon="12.8581267"><ele>38.0</ele><time>2026-04-12T11:09:50.033Z</time></trkpt><trkpt lat="43.9212633" lon="12.85795"><ele>38.0</ele><time>2026-04-12T11:09:51.035Z</time></trkpt><trkpt lat="43.9214367" lon="12.8577883"><ele>38.0</ele><time>2026-04-12T11:09:52.037Z</time></trkpt><trkpt lat="43.9215967" lon="12.857635"><ele>36.0</ele><time>2026-04-12T11:09:53.032Z</time></trkpt><trkpt lat="43.92174" lon="12.857495"><ele>34.0</ele><time>2026-04-12T11:09:54.029Z</time></trkpt><trkpt lat="43.921865" lon="12.857375"><ele>32.0</ele><time>2026-04-12T11:09:55.027Z</time></trkpt><trkpt lat="43.9219717" lon="12.857275"><ele>31.999999999999996</ele><time>2026-04-12T11:09:56.033Z</time></trkpt><trkpt lat="43.9220533" lon="12.8571933"><ele>32.0</ele><time>2026-04-12T11:09:57.027Z</time></trkpt><trkpt lat="43.9221017" lon="12.8571083"><ele>32.0</ele><time>2026-04-12T11:09:58.032Z</time></trkpt><trkpt lat="43.92213" lon="12.8570183"><ele>32.0</ele><time>2026-04-12T11:09:59.029Z</time></trkpt><trkpt lat="43.9221267" lon="12.8569117"><ele>31.999999999999996</ele><time>2026-04-12T11:10:00.03Z</time></trkpt><trkpt lat="43.92211" lon="12.8568133"><ele>32.0</ele><time>2026-04-12T11:10:01.029Z</time></trkpt><trkpt lat="43.9220933" lon="12.8567283"><ele>31.0</ele><time>2026-04-12T11:10:02.037Z</time></trkpt><trkpt lat="43.9220967" lon="12.8566183"><ele>31.0</ele><time>2026-04-12T11:10:04.029Z</time></trkpt></trkseg></trk></gpx>